<?xml version="1.0" encoding="UTF-8" standalone="no" ?>
<gpx xmlns="http://www.topografix.com/GPX/1/1" xmlns:xsi="http://www.w3.org/2001/XMLSchema-instance" xsi:schemaLocation="http://www.topografix.com/GPX/1/1 http://www.topografix.com/GPX/1/1/gpx.xsd" version="1.1" creator="VisuGPX - https://www.visugpx.com">
  <metadata>
    <name>Edirne-Mostar</name>
  </metadata>
  <trk>
    <name><![CDATA[Tour d'Europe: étape 618]]></name>
    <extensions>
      <line xmlns="http://www.topografix.com/GPX/gpx_style/0/2">
        <color>FF0000</color>
        <width>4</width>
      </line>
    </extensions>
    <trkseg>
      <trkpt lat="42.51111" lon="24.18241">
        <ele>582.730514</ele>
        <time>2022-03-08T07:07:22.544Z</time>
      </trkpt>
      <trkpt lat="42.51125" lon="24.18243">
        <ele>582.730514</ele>
        <time>2022-03-08T07:07:24.506Z</time>
      </trkpt>
      <trkpt lat="42.51126" lon="24.18218">
        <ele>582.730514</ele>
        <time>2022-03-08T07:07:25.498Z</time>
      </trkpt>
      <trkpt lat="42.51123" lon="24.1824">
        <ele>582.730514</ele>
        <time>2022-03-08T07:07:26.475Z</time>
      </trkpt>
      <trkpt lat="42.51135" lon="24.18229">
        <ele>582.730514</ele>
        <time>2022-03-08T07:15:06.684Z</time>
      </trkpt>
      <trkpt lat="42.5114" lon="24.18203">
        <ele>582.730514</ele>
        <time>2022-03-08T07:15:26.679Z</time>
      </trkpt>
      <trkpt lat="42.51124" lon="24.18197">
        <ele>582.947845</ele>
        <time>2022-03-08T07:16:45.685Z</time>
      </trkpt>
      <trkpt lat="42.51113" lon="24.18193">
        <ele>583.210674</ele>
        <time>2022-03-08T07:16:48.682Z</time>
      </trkpt>
      <trkpt lat="42.511" lon="24.18188">
        <ele>583.483351</ele>
        <time>2022-03-08T07:16:51.716Z</time>
      </trkpt>
      <trkpt lat="42.51091" lon="24.18184">
        <ele>583.699126</ele>
        <time>2022-03-08T07:16:53.698Z</time>
      </trkpt>
      <trkpt lat="42.51079" lon="24.1818">
        <ele>583.950009</ele>
        <time>2022-03-08T07:16:55.679Z</time>
      </trkpt>
      <trkpt lat="42.51066" lon="24.18176">
        <ele>584.240133</ele>
        <time>2022-03-08T07:16:57.733Z</time>
      </trkpt>
      <trkpt lat="42.51053" lon="24.18173">
        <ele>584.528811</ele>
        <time>2022-03-08T07:16:59.676Z</time>
      </trkpt>
      <trkpt lat="42.51042" lon="24.18168">
        <ele>584.772695</ele>
        <time>2022-03-08T07:17:01.676Z</time>
      </trkpt>
      <trkpt lat="42.51031" lon="24.18162">
        <ele>585.022612</ele>
        <time>2022-03-08T07:17:03.697Z</time>
      </trkpt>
      <trkpt lat="42.51023" lon="24.18154">
        <ele>585.232202</ele>
        <time>2022-03-08T07:17:05.677Z</time>
      </trkpt>
      <trkpt lat="42.51015" lon="24.18148">
        <ele>585.431737</ele>
        <time>2022-03-08T07:17:07.688Z</time>
      </trkpt>
      <trkpt lat="42.51006" lon="24.18143">
        <ele>585.632329</ele>
        <time>2022-03-08T07:17:09.673Z</time>
      </trkpt>
      <trkpt lat="42.50998" lon="24.18137">
        <ele>585.835216</ele>
        <time>2022-03-08T07:17:11.687Z</time>
      </trkpt>
      <trkpt lat="42.50986" lon="24.18128">
        <ele>586.122638</ele>
        <time>2022-03-08T07:17:14.674Z</time>
      </trkpt>
      <trkpt lat="42.50974" lon="24.18121">
        <ele>586.402407</ele>
        <time>2022-03-08T07:17:17.687Z</time>
      </trkpt>
      <trkpt lat="42.50963" lon="24.18114">
        <ele>586.575586</ele>
        <time>2022-03-08T07:17:20.686Z</time>
      </trkpt>
      <trkpt lat="42.50954" lon="24.18106">
        <ele>586.578387</ele>
        <time>2022-03-08T07:17:23.688Z</time>
      </trkpt>
      <trkpt lat="42.50945" lon="24.18099">
        <ele>586.581187</ele>
        <time>2022-03-08T07:17:26.673Z</time>
      </trkpt>
      <trkpt lat="42.50935" lon="24.18091">
        <ele>586.584145</ele>
        <time>2022-03-08T07:17:29.704Z</time>
      </trkpt>
      <trkpt lat="42.50925" lon="24.18082">
        <ele>586.587445</ele>
        <time>2022-03-08T07:17:32.644Z</time>
      </trkpt>
      <trkpt lat="42.50914" lon="24.18072">
        <ele>586.590746</ele>
        <time>2022-03-08T07:17:35.672Z</time>
      </trkpt>
      <trkpt lat="42.50906" lon="24.18066">
        <ele>586.593247</ele>
        <time>2022-03-08T07:17:37.664Z</time>
      </trkpt>
      <trkpt lat="42.50897" lon="24.18059">
        <ele>586.595813</ele>
        <time>2022-03-08T07:17:39.666Z</time>
      </trkpt>
      <trkpt lat="42.50889" lon="24.18053">
        <ele>586.598289</ele>
        <time>2022-03-08T07:17:41.690Z</time>
      </trkpt>
      <trkpt lat="42.50881" lon="24.18047">
        <ele>586.600835</ele>
        <time>2022-03-08T07:17:43.711Z</time>
      </trkpt>
      <trkpt lat="42.50871" lon="24.18039">
        <ele>586.603858</ele>
        <time>2022-03-08T07:17:46.718Z</time>
      </trkpt>
      <trkpt lat="42.50863" lon="24.18031">
        <ele>586.606488</ele>
        <time>2022-03-08T07:17:49.683Z</time>
      </trkpt>
      <trkpt lat="42.50853" lon="24.18021">
        <ele>586.609557</ele>
        <time>2022-03-08T07:17:53.705Z</time>
      </trkpt>
      <trkpt lat="42.50844" lon="24.1801">
        <ele>586.612768</ele>
        <time>2022-03-08T07:17:57.689Z</time>
      </trkpt>
      <trkpt lat="42.50836" lon="24.18003">
        <ele>586.615395</ele>
        <time>2022-03-08T07:18:00.705Z</time>
      </trkpt>
      <trkpt lat="42.50828" lon="24.17995">
        <ele>586.617951</ele>
        <time>2022-03-08T07:18:03.698Z</time>
      </trkpt>
      <trkpt lat="42.5082" lon="24.17986">
        <ele>586.620617</ele>
        <time>2022-03-08T07:18:06.695Z</time>
      </trkpt>
      <trkpt lat="42.50811" lon="24.17978">
        <ele>586.671417</ele>
        <time>2022-03-08T07:18:09.709Z</time>
      </trkpt>
      <trkpt lat="42.50802" lon="24.1797">
        <ele>586.757205</ele>
        <time>2022-03-08T07:18:12.700Z</time>
      </trkpt>
      <trkpt lat="42.50793" lon="24.17961">
        <ele>586.839212</ele>
        <time>2022-03-08T07:18:15.704Z</time>
      </trkpt>
      <trkpt lat="42.50785" lon="24.17952">
        <ele>586.921686</ele>
        <time>2022-03-08T07:18:18.714Z</time>
      </trkpt>
      <trkpt lat="42.50776" lon="24.17944">
        <ele>587.003988</ele>
        <time>2022-03-08T07:18:21.696Z</time>
      </trkpt>
      <trkpt lat="42.50766" lon="24.17936">
        <ele>587.087917</ele>
        <time>2022-03-08T07:18:24.704Z</time>
      </trkpt>
      <trkpt lat="42.50757" lon="24.17928">
        <ele>587.175275</ele>
        <time>2022-03-08T07:18:27.726Z</time>
      </trkpt>
      <trkpt lat="42.50749" lon="24.17919">
        <ele>587.252654</ele>
        <time>2022-03-08T07:18:30.699Z</time>
      </trkpt>
      <trkpt lat="42.5074" lon="24.17911">
        <ele>587.335584</ele>
        <time>2022-03-08T07:18:33.710Z</time>
      </trkpt>
      <trkpt lat="42.50731" lon="24.17903">
        <ele>587.420423</ele>
        <time>2022-03-08T07:18:36.690Z</time>
      </trkpt>
      <trkpt lat="42.50722" lon="24.17895">
        <ele>587.501511</ele>
        <time>2022-03-08T07:18:39.705Z</time>
      </trkpt>
      <trkpt lat="42.50713" lon="24.17886">
        <ele>587.585714</ele>
        <time>2022-03-08T07:18:42.717Z</time>
      </trkpt>
      <trkpt lat="42.50704" lon="24.17877">
        <ele>587.672686</ele>
        <time>2022-03-08T07:18:45.685Z</time>
      </trkpt>
      <trkpt lat="42.50695" lon="24.17868">
        <ele>587.752572</ele>
        <time>2022-03-08T07:18:48.697Z</time>
      </trkpt>
      <trkpt lat="42.50687" lon="24.1786">
        <ele>587.829878</ele>
        <time>2022-03-08T07:18:51.690Z</time>
      </trkpt>
      <trkpt lat="42.50686" lon="24.17845">
        <ele>587.91392</ele>
        <time>2022-03-08T07:18:55.692Z</time>
      </trkpt>
      <trkpt lat="42.50693" lon="24.17834">
        <ele>587.992534</ele>
        <time>2022-03-08T07:18:58.718Z</time>
      </trkpt>
      <trkpt lat="42.50697" lon="24.1782">
        <ele>588.146257</ele>
        <time>2022-03-08T07:19:02.678Z</time>
      </trkpt>
      <trkpt lat="42.50696" lon="24.17805">
        <ele>588.3036</ele>
        <time>2022-03-08T07:19:06.734Z</time>
      </trkpt>
      <trkpt lat="42.50694" lon="24.17791">
        <ele>588.456459</ele>
        <time>2022-03-08T07:19:10.682Z</time>
      </trkpt>
      <trkpt lat="42.50693" lon="24.17777">
        <ele>588.601544</ele>
        <time>2022-03-08T07:19:14.699Z</time>
      </trkpt>
      <trkpt lat="42.50691" lon="24.17763">
        <ele>588.751131</ele>
        <time>2022-03-08T07:19:18.689Z</time>
      </trkpt>
      <trkpt lat="42.50689" lon="24.1775">
        <ele>588.887808</ele>
        <time>2022-03-08T07:19:22.705Z</time>
      </trkpt>
      <trkpt lat="42.50687" lon="24.17736">
        <ele>589.030848</ele>
        <time>2022-03-08T07:19:26.784Z</time>
      </trkpt>
      <trkpt lat="42.50685" lon="24.17724">
        <ele>589.16545</ele>
        <time>2022-03-08T07:19:29.688Z</time>
      </trkpt>
      <trkpt lat="42.50684" lon="24.17709">
        <ele>589.317166</ele>
        <time>2022-03-08T07:19:33.677Z</time>
      </trkpt>
      <trkpt lat="42.50682" lon="24.17694">
        <ele>589.475563</ele>
        <time>2022-03-08T07:19:37.696Z</time>
      </trkpt>
      <trkpt lat="42.5068" lon="24.1768">
        <ele>589.629363</ele>
        <time>2022-03-08T07:19:41.703Z</time>
      </trkpt>
      <trkpt lat="42.50679" lon="24.17666">
        <ele>589.769924</ele>
        <time>2022-03-08T07:19:45.692Z</time>
      </trkpt>
      <trkpt lat="42.50678" lon="24.17652">
        <ele>589.916952</ele>
        <time>2022-03-08T07:19:49.676Z</time>
      </trkpt>
      <trkpt lat="42.50672" lon="24.17641">
        <ele>590.059681</ele>
        <time>2022-03-08T07:19:53.686Z</time>
      </trkpt>
      <trkpt lat="42.50671" lon="24.17628">
        <ele>590.194693</ele>
        <time>2022-03-08T07:19:57.702Z</time>
      </trkpt>
      <trkpt lat="42.50668" lon="24.17616">
        <ele>590.326547</ele>
        <time>2022-03-08T07:20:00.671Z</time>
      </trkpt>
      <trkpt lat="42.50661" lon="24.17606">
        <ele>590.460461</ele>
        <time>2022-03-08T07:20:03.677Z</time>
      </trkpt>
      <trkpt lat="42.50655" lon="24.17596">
        <ele>590.767117</ele>
        <time>2022-03-08T07:20:06.682Z</time>
      </trkpt>
      <trkpt lat="42.50648" lon="24.17586">
        <ele>591.224708</ele>
        <time>2022-03-08T07:20:10.728Z</time>
      </trkpt>
      <trkpt lat="42.50644" lon="24.17575">
        <ele>591.641938</ele>
        <time>2022-03-08T07:20:14.697Z</time>
      </trkpt>
      <trkpt lat="42.50636" lon="24.17562">
        <ele>592.174942</ele>
        <time>2022-03-08T07:20:18.721Z</time>
      </trkpt>
      <trkpt lat="42.50629" lon="24.1755">
        <ele>592.676616</ele>
        <time>2022-03-08T07:20:22.698Z</time>
      </trkpt>
      <trkpt lat="42.50622" lon="24.17539">
        <ele>593.165605</ele>
        <time>2022-03-08T07:20:26.699Z</time>
      </trkpt>
      <trkpt lat="42.50616" lon="24.1753">
        <ele>593.588865</ele>
        <time>2022-03-08T07:20:29.713Z</time>
      </trkpt>
      <trkpt lat="42.50607" lon="24.17522">
        <ele>594.082074</ele>
        <time>2022-03-08T07:20:33.686Z</time>
      </trkpt>
      <trkpt lat="42.50599" lon="24.17511">
        <ele>594.561669</ele>
        <time>2022-03-08T07:20:37.698Z</time>
      </trkpt>
      <trkpt lat="42.50591" lon="24.17501">
        <ele>595.078332</ele>
        <time>2022-03-08T07:20:41.719Z</time>
      </trkpt>
      <trkpt lat="42.50583" lon="24.17494">
        <ele>595.515636</ele>
        <time>2022-03-08T07:20:44.698Z</time>
      </trkpt>
      <trkpt lat="42.50573" lon="24.17485">
        <ele>596.051677</ele>
        <time>2022-03-08T07:20:48.693Z</time>
      </trkpt>
      <trkpt lat="42.50566" lon="24.17476">
        <ele>596.482449</ele>
        <time>2022-03-08T07:20:51.703Z</time>
      </trkpt>
      <trkpt lat="42.50558" lon="24.17469">
        <ele>596.893564</ele>
        <time>2022-03-08T07:20:54.695Z</time>
      </trkpt>
      <trkpt lat="42.50551" lon="24.17462">
        <ele>597.298868</ele>
        <time>2022-03-08T07:20:57.681Z</time>
      </trkpt>
      <trkpt lat="42.50542" lon="24.17451">
        <ele>597.8305</ele>
        <time>2022-03-08T07:21:01.700Z</time>
      </trkpt>
      <trkpt lat="42.50535" lon="24.17443">
        <ele>598.261319</ele>
        <time>2022-03-08T07:21:04.680Z</time>
      </trkpt>
      <trkpt lat="42.50528" lon="24.1743">
        <ele>598.433369</ele>
        <time>2022-03-08T07:21:08.679Z</time>
      </trkpt>
      <trkpt lat="42.50518" lon="24.17422">
        <ele>597.793783</ele>
        <time>2022-03-08T07:21:11.744Z</time>
      </trkpt>
      <trkpt lat="42.50508" lon="24.17415">
        <ele>597.153735</ele>
        <time>2022-03-08T07:21:14.673Z</time>
      </trkpt>
      <trkpt lat="42.50498" lon="24.17406">
        <ele>596.481817</ele>
        <time>2022-03-08T07:21:17.679Z</time>
      </trkpt>
      <trkpt lat="42.5049" lon="24.17398">
        <ele>595.902046</ele>
        <time>2022-03-08T07:21:20.750Z</time>
      </trkpt>
      <trkpt lat="42.50482" lon="24.17389">
        <ele>595.330934</ele>
        <time>2022-03-08T07:21:23.684Z</time>
      </trkpt>
      <trkpt lat="42.50475" lon="24.17379">
        <ele>594.743916</ele>
        <time>2022-03-08T07:21:26.703Z</time>
      </trkpt>
      <trkpt lat="42.50467" lon="24.1737">
        <ele>594.136253</ele>
        <time>2022-03-08T07:21:29.697Z</time>
      </trkpt>
      <trkpt lat="42.50459" lon="24.17359">
        <ele>593.484696</ele>
        <time>2022-03-08T07:21:32.689Z</time>
      </trkpt>
      <trkpt lat="42.5045" lon="24.17348">
        <ele>592.787702</ele>
        <time>2022-03-08T07:21:35.720Z</time>
      </trkpt>
      <trkpt lat="42.50439" lon="24.17337">
        <ele>592.019749</ele>
        <time>2022-03-08T07:21:38.698Z</time>
      </trkpt>
      <trkpt lat="42.50432" lon="24.17329">
        <ele>591.48468</ele>
        <time>2022-03-08T07:21:40.710Z</time>
      </trkpt>
      <trkpt lat="42.50424" lon="24.17321">
        <ele>590.927014</ele>
        <time>2022-03-08T07:21:42.675Z</time>
      </trkpt>
      <trkpt lat="42.50417" lon="24.17312">
        <ele>590.34589</ele>
        <time>2022-03-08T07:21:44.690Z</time>
      </trkpt>
      <trkpt lat="42.50411" lon="24.173">
        <ele>589.738419</ele>
        <time>2022-03-08T07:21:46.686Z</time>
      </trkpt>
      <trkpt lat="42.50408" lon="24.17287">
        <ele>589.1871</ele>
        <time>2022-03-08T07:21:48.690Z</time>
      </trkpt>
      <trkpt lat="42.50407" lon="24.17274">
        <ele>588.632166</ele>
        <time>2022-03-08T07:21:50.698Z</time>
      </trkpt>
      <trkpt lat="42.50406" lon="24.17261">
        <ele>588.432874</ele>
        <time>2022-03-08T07:21:52.675Z</time>
      </trkpt>
      <trkpt lat="42.50404" lon="24.17245">
        <ele>588.602159</ele>
        <time>2022-03-08T07:21:55.686Z</time>
      </trkpt>
      <trkpt lat="42.50402" lon="24.17229">
        <ele>588.759737</ele>
        <time>2022-03-08T07:21:58.696Z</time>
      </trkpt>
      <trkpt lat="42.504" lon="24.17214">
        <ele>588.922528</ele>
        <time>2022-03-08T07:22:01.776Z</time>
      </trkpt>
      <trkpt lat="42.50398" lon="24.17198">
        <ele>589.091759</ele>
        <time>2022-03-08T07:22:04.690Z</time>
      </trkpt>
      <trkpt lat="42.50395" lon="24.17181">
        <ele>589.264063</ele>
        <time>2022-03-08T07:22:07.732Z</time>
      </trkpt>
      <trkpt lat="42.50392" lon="24.17165">
        <ele>589.43771</ele>
        <time>2022-03-08T07:22:10.709Z</time>
      </trkpt>
      <trkpt lat="42.50391" lon="24.17149">
        <ele>589.594844</ele>
        <time>2022-03-08T07:22:13.695Z</time>
      </trkpt>
      <trkpt lat="42.5039" lon="24.17133">
        <ele>589.759684</ele>
        <time>2022-03-08T07:22:16.698Z</time>
      </trkpt>
      <trkpt lat="42.50391" lon="24.17119">
        <ele>589.906159</ele>
        <time>2022-03-08T07:22:19.734Z</time>
      </trkpt>
      <trkpt lat="42.50393" lon="24.17107">
        <ele>590.034567</ele>
        <time>2022-03-08T07:22:22.679Z</time>
      </trkpt>
      <trkpt lat="42.50396" lon="24.17092">
        <ele>590.193683</ele>
        <time>2022-03-08T07:22:26.691Z</time>
      </trkpt>
      <trkpt lat="42.50398" lon="24.17076">
        <ele>590.352381</ele>
        <time>2022-03-08T07:22:30.752Z</time>
      </trkpt>
      <trkpt lat="42.50398" lon="24.17062">
        <ele>590.498305</ele>
        <time>2022-03-08T07:22:34.700Z</time>
      </trkpt>
      <trkpt lat="42.50399" lon="24.17048">
        <ele>590.636307</ele>
        <time>2022-03-08T07:22:38.697Z</time>
      </trkpt>
      <trkpt lat="42.504" lon="24.17034">
        <ele>590.780195</ele>
        <time>2022-03-08T07:22:42.677Z</time>
      </trkpt>
      <trkpt lat="42.50401" lon="24.17021">
        <ele>590.890912</ele>
        <time>2022-03-08T07:22:46.729Z</time>
      </trkpt>
      <trkpt lat="42.50402" lon="24.17006">
        <ele>590.975129</ele>
        <time>2022-03-08T07:22:50.699Z</time>
      </trkpt>
      <trkpt lat="42.50402" lon="24.16992">
        <ele>591.057969</ele>
        <time>2022-03-08T07:22:54.700Z</time>
      </trkpt>
      <trkpt lat="42.50402" lon="24.16978">
        <ele>591.137804</ele>
        <time>2022-03-08T07:22:58.689Z</time>
      </trkpt>
      <trkpt lat="42.50404" lon="24.16963">
        <ele>591.222957</ele>
        <time>2022-03-08T07:23:03.704Z</time>
      </trkpt>
      <trkpt lat="42.50405" lon="24.1695">
        <ele>591.299171</ele>
        <time>2022-03-08T07:23:07.706Z</time>
      </trkpt>
      <trkpt lat="42.50406" lon="24.16936">
        <ele>591.380122</ele>
        <time>2022-03-08T07:23:11.689Z</time>
      </trkpt>
      <trkpt lat="42.50409" lon="24.16922">
        <ele>591.461437</ele>
        <time>2022-03-08T07:23:15.703Z</time>
      </trkpt>
      <trkpt lat="42.50412" lon="24.16908">
        <ele>591.548489</ele>
        <time>2022-03-08T07:23:19.687Z</time>
      </trkpt>
      <trkpt lat="42.50415" lon="24.16894">
        <ele>591.63216</ele>
        <time>2022-03-08T07:23:23.717Z</time>
      </trkpt>
      <trkpt lat="42.50418" lon="24.1688">
        <ele>591.713304</ele>
        <time>2022-03-08T07:23:27.715Z</time>
      </trkpt>
      <trkpt lat="42.5042" lon="24.16866">
        <ele>591.79916</ele>
        <time>2022-03-08T07:23:31.694Z</time>
      </trkpt>
      <trkpt lat="42.50423" lon="24.1685">
        <ele>591.889894</ele>
        <time>2022-03-08T07:23:35.733Z</time>
      </trkpt>
      <trkpt lat="42.50426" lon="24.16836">
        <ele>591.972656</ele>
        <time>2022-03-08T07:23:39.700Z</time>
      </trkpt>
      <trkpt lat="42.50428" lon="24.16822">
        <ele>592.057947</ele>
        <time>2022-03-08T07:23:43.716Z</time>
      </trkpt>
      <trkpt lat="42.50431" lon="24.16807">
        <ele>592.144958</ele>
        <time>2022-03-08T07:23:47.683Z</time>
      </trkpt>
      <trkpt lat="42.50433" lon="24.16792">
        <ele>592.235317</ele>
        <time>2022-03-08T07:23:51.700Z</time>
      </trkpt>
      <trkpt lat="42.50436" lon="24.16778">
        <ele>592.393161</ele>
        <time>2022-03-08T07:23:55.696Z</time>
      </trkpt>
      <trkpt lat="42.50439" lon="24.16763">
        <ele>592.575549</ele>
        <time>2022-03-08T07:23:59.703Z</time>
      </trkpt>
      <trkpt lat="42.50441" lon="24.16749">
        <ele>592.755347</ele>
        <time>2022-03-08T07:24:03.763Z</time>
      </trkpt>
      <trkpt lat="42.50443" lon="24.16735">
        <ele>592.931164</ele>
        <time>2022-03-08T07:24:07.695Z</time>
      </trkpt>
      <trkpt lat="42.50444" lon="24.16721">
        <ele>593.110308</ele>
        <time>2022-03-08T07:24:11.700Z</time>
      </trkpt>
      <trkpt lat="42.50447" lon="24.16707">
        <ele>593.287904</ele>
        <time>2022-03-08T07:24:15.694Z</time>
      </trkpt>
      <trkpt lat="42.5045" lon="24.16693">
        <ele>593.468294</ele>
        <time>2022-03-08T07:24:19.701Z</time>
      </trkpt>
      <trkpt lat="42.50452" lon="24.16679">
        <ele>593.643227</ele>
        <time>2022-03-08T07:24:23.712Z</time>
      </trkpt>
      <trkpt lat="42.50454" lon="24.16665">
        <ele>593.817833</ele>
        <time>2022-03-08T07:24:27.709Z</time>
      </trkpt>
      <trkpt lat="42.50456" lon="24.16651">
        <ele>593.988249</ele>
        <time>2022-03-08T07:24:31.688Z</time>
      </trkpt>
      <trkpt lat="42.50458" lon="24.16638">
        <ele>594.155273</ele>
        <time>2022-03-08T07:24:35.701Z</time>
      </trkpt>
      <trkpt lat="42.5046" lon="24.16624">
        <ele>594.327302</ele>
        <time>2022-03-08T07:24:39.713Z</time>
      </trkpt>
      <trkpt lat="42.50462" lon="24.16611">
        <ele>594.498584</ele>
        <time>2022-03-08T07:24:43.694Z</time>
      </trkpt>
      <trkpt lat="42.50464" lon="24.16597">
        <ele>594.666635</ele>
        <time>2022-03-08T07:24:47.743Z</time>
      </trkpt>
      <trkpt lat="42.50468" lon="24.16584">
        <ele>594.845361</ele>
        <time>2022-03-08T07:24:51.683Z</time>
      </trkpt>
      <trkpt lat="42.5047" lon="24.1657">
        <ele>595.019653</ele>
        <time>2022-03-08T07:24:55.697Z</time>
      </trkpt>
      <trkpt lat="42.50472" lon="24.16556">
        <ele>595.199266</ele>
        <time>2022-03-08T07:24:59.712Z</time>
      </trkpt>
      <trkpt lat="42.50475" lon="24.16542">
        <ele>595.499222</ele>
        <time>2022-03-08T07:25:03.685Z</time>
      </trkpt>
      <trkpt lat="42.50477" lon="24.16529">
        <ele>595.86</ele>
        <time>2022-03-08T07:25:07.712Z</time>
      </trkpt>
      <trkpt lat="42.50479" lon="24.16516">
        <ele>596.214845</ele>
        <time>2022-03-08T07:25:11.705Z</time>
      </trkpt>
      <trkpt lat="42.50482" lon="24.16503">
        <ele>596.570535</ele>
        <time>2022-03-08T07:25:15.694Z</time>
      </trkpt>
      <trkpt lat="42.50484" lon="24.16489">
        <ele>596.94404</ele>
        <time>2022-03-08T07:25:19.711Z</time>
      </trkpt>
      <trkpt lat="42.50487" lon="24.16477">
        <ele>597.290077</ele>
        <time>2022-03-08T07:25:23.711Z</time>
      </trkpt>
      <trkpt lat="42.50488" lon="24.16463">
        <ele>597.645503</ele>
        <time>2022-03-08T07:25:27.705Z</time>
      </trkpt>
      <trkpt lat="42.5049" lon="24.1645">
        <ele>598.014001</ele>
        <time>2022-03-08T07:25:31.720Z</time>
      </trkpt>
      <trkpt lat="42.50493" lon="24.16435">
        <ele>598.402093</ele>
        <time>2022-03-08T07:25:35.699Z</time>
      </trkpt>
      <trkpt lat="42.50495" lon="24.16422">
        <ele>598.773117</ele>
        <time>2022-03-08T07:25:39.693Z</time>
      </trkpt>
      <trkpt lat="42.50499" lon="24.1641">
        <ele>599.121676</ele>
        <time>2022-03-08T07:25:43.725Z</time>
      </trkpt>
      <trkpt lat="42.50503" lon="24.16398">
        <ele>599.460504</ele>
        <time>2022-03-08T07:25:47.694Z</time>
      </trkpt>
      <trkpt lat="42.50507" lon="24.16385">
        <ele>599.840162</ele>
        <time>2022-03-08T07:25:52.700Z</time>
      </trkpt>
      <trkpt lat="42.50511" lon="24.16372">
        <ele>600.222943</ele>
        <time>2022-03-08T07:25:57.707Z</time>
      </trkpt>
      <trkpt lat="42.50515" lon="24.16359">
        <ele>600.583847</ele>
        <time>2022-03-08T07:26:02.703Z</time>
      </trkpt>
      <trkpt lat="42.50518" lon="24.16347">
        <ele>600.931306</ele>
        <time>2022-03-08T07:26:07.692Z</time>
      </trkpt>
      <trkpt lat="42.50522" lon="24.16334">
        <ele>601.304689</ele>
        <time>2022-03-08T07:26:12.706Z</time>
      </trkpt>
      <trkpt lat="42.50526" lon="24.16321">
        <ele>601.6574</ele>
        <time>2022-03-08T07:26:17.693Z</time>
      </trkpt>
      <trkpt lat="42.50529" lon="24.16309">
        <ele>601.969184</ele>
        <time>2022-03-08T07:26:22.698Z</time>
      </trkpt>
      <trkpt lat="42.50532" lon="24.16296">
        <ele>602.294787</ele>
        <time>2022-03-08T07:26:27.723Z</time>
      </trkpt>
      <trkpt lat="42.50536" lon="24.16284">
        <ele>602.615815</ele>
        <time>2022-03-08T07:26:32.707Z</time>
      </trkpt>
      <trkpt lat="42.5054" lon="24.16271">
        <ele>602.942591</ele>
        <time>2022-03-08T07:26:37.691Z</time>
      </trkpt>
      <trkpt lat="42.50543" lon="24.16257">
        <ele>603.2762</ele>
        <time>2022-03-08T07:26:42.700Z</time>
      </trkpt>
      <trkpt lat="42.50546" lon="24.16245">
        <ele>603.585784</ele>
        <time>2022-03-08T07:26:47.699Z</time>
      </trkpt>
      <trkpt lat="42.50548" lon="24.16233">
        <ele>603.886318</ele>
        <time>2022-03-08T07:26:52.719Z</time>
      </trkpt>
      <trkpt lat="42.50551" lon="24.1622">
        <ele>604.191</ele>
        <time>2022-03-08T07:26:57.710Z</time>
      </trkpt>
      <trkpt lat="42.50554" lon="24.16207">
        <ele>604.512806</ele>
        <time>2022-03-08T07:27:02.699Z</time>
      </trkpt>
      <trkpt lat="42.50556" lon="24.16194">
        <ele>604.827807</ele>
        <time>2022-03-08T07:27:07.710Z</time>
      </trkpt>
      <trkpt lat="42.50558" lon="24.16181">
        <ele>605.144527</ele>
        <time>2022-03-08T07:27:12.714Z</time>
      </trkpt>
      <trkpt lat="42.5056" lon="24.16167">
        <ele>605.477515</ele>
        <time>2022-03-08T07:27:17.696Z</time>
      </trkpt>
      <trkpt lat="42.50562" lon="24.16154">
        <ele>605.780485</ele>
        <time>2022-03-08T07:27:22.751Z</time>
      </trkpt>
      <trkpt lat="42.50563" lon="24.16141">
        <ele>606.108265</ele>
        <time>2022-03-08T07:27:27.687Z</time>
      </trkpt>
      <trkpt lat="42.50565" lon="24.16127">
        <ele>606.431428</ele>
        <time>2022-03-08T07:27:32.688Z</time>
      </trkpt>
      <trkpt lat="42.50566" lon="24.16115">
        <ele>606.725574</ele>
        <time>2022-03-08T07:27:37.692Z</time>
      </trkpt>
      <trkpt lat="42.50567" lon="24.16102">
        <ele>607.041337</ele>
        <time>2022-03-08T07:27:42.697Z</time>
      </trkpt>
      <trkpt lat="42.50568" lon="24.16088">
        <ele>607.373195</ele>
        <time>2022-03-08T07:27:47.692Z</time>
      </trkpt>
      <trkpt lat="42.5057" lon="24.16075">
        <ele>607.496043</ele>
        <time>2022-03-08T07:27:51.707Z</time>
      </trkpt>
      <trkpt lat="42.50572" lon="24.16062">
        <ele>607.506089</ele>
        <time>2022-03-08T07:27:55.718Z</time>
      </trkpt>
      <trkpt lat="42.50574" lon="24.16049">
        <ele>607.516323</ele>
        <time>2022-03-08T07:27:59.709Z</time>
      </trkpt>
      <trkpt lat="42.50575" lon="24.16037">
        <ele>607.526069</ele>
        <time>2022-03-08T07:28:03.707Z</time>
      </trkpt>
      <trkpt lat="42.50577" lon="24.16024">
        <ele>607.535948</ele>
        <time>2022-03-08T07:28:07.699Z</time>
      </trkpt>
      <trkpt lat="42.50578" lon="24.16011">
        <ele>607.545742</ele>
        <time>2022-03-08T07:28:11.700Z</time>
      </trkpt>
      <trkpt lat="42.5058" lon="24.15998">
        <ele>607.556219</ele>
        <time>2022-03-08T07:28:15.702Z</time>
      </trkpt>
      <trkpt lat="42.50581" lon="24.15985">
        <ele>607.5659</ele>
        <time>2022-03-08T07:28:19.693Z</time>
      </trkpt>
      <trkpt lat="42.50582" lon="24.15972">
        <ele>607.575718</ele>
        <time>2022-03-08T07:28:23.679Z</time>
      </trkpt>
      <trkpt lat="42.50584" lon="24.15959">
        <ele>607.585687</ele>
        <time>2022-03-08T07:28:27.697Z</time>
      </trkpt>
      <trkpt lat="42.50585" lon="24.15946">
        <ele>607.595508</ele>
        <time>2022-03-08T07:28:31.710Z</time>
      </trkpt>
      <trkpt lat="42.50586" lon="24.15933">
        <ele>607.605419</ele>
        <time>2022-03-08T07:28:35.703Z</time>
      </trkpt>
      <trkpt lat="42.50588" lon="24.15921">
        <ele>607.615321</ele>
        <time>2022-03-08T07:28:39.753Z</time>
      </trkpt>
      <trkpt lat="42.5059" lon="24.15908">
        <ele>607.625277</ele>
        <time>2022-03-08T07:28:43.711Z</time>
      </trkpt>
      <trkpt lat="42.50592" lon="24.15896">
        <ele>607.634631</ele>
        <time>2022-03-08T07:28:47.700Z</time>
      </trkpt>
      <trkpt lat="42.50593" lon="24.15883">
        <ele>607.644312</ele>
        <time>2022-03-08T07:28:51.701Z</time>
      </trkpt>
      <trkpt lat="42.50595" lon="24.15869">
        <ele>607.655293</ele>
        <time>2022-03-08T07:28:56.706Z</time>
      </trkpt>
      <trkpt lat="42.50598" lon="24.15855">
        <ele>607.666624</ele>
        <time>2022-03-08T07:29:01.716Z</time>
      </trkpt>
      <trkpt lat="42.506" lon="24.15842">
        <ele>607.67854</ele>
        <time>2022-03-08T07:29:05.704Z</time>
      </trkpt>
      <trkpt lat="42.50602" lon="24.15829">
        <ele>607.772499</ele>
        <time>2022-03-08T07:29:09.696Z</time>
      </trkpt>
      <trkpt lat="42.50604" lon="24.15815">
        <ele>607.873026</ele>
        <time>2022-03-08T07:29:13.704Z</time>
      </trkpt>
      <trkpt lat="42.50606" lon="24.15801">
        <ele>607.971699</ele>
        <time>2022-03-08T07:29:17.696Z</time>
      </trkpt>
      <trkpt lat="42.50607" lon="24.15788">
        <ele>608.062132</ele>
        <time>2022-03-08T07:29:21.698Z</time>
      </trkpt>
      <trkpt lat="42.50609" lon="24.15775">
        <ele>608.153674</ele>
        <time>2022-03-08T07:29:25.717Z</time>
      </trkpt>
      <trkpt lat="42.50611" lon="24.15762">
        <ele>608.243393</ele>
        <time>2022-03-08T07:29:29.760Z</time>
      </trkpt>
      <trkpt lat="42.50614" lon="24.15748">
        <ele>608.3394</ele>
        <time>2022-03-08T07:29:33.718Z</time>
      </trkpt>
      <trkpt lat="42.50617" lon="24.15736">
        <ele>608.42844</ele>
        <time>2022-03-08T07:29:37.701Z</time>
      </trkpt>
      <trkpt lat="42.50619" lon="24.15722">
        <ele>608.525091</ele>
        <time>2022-03-08T07:29:41.705Z</time>
      </trkpt>
      <trkpt lat="42.50621" lon="24.15709">
        <ele>608.619931</ele>
        <time>2022-03-08T07:29:45.716Z</time>
      </trkpt>
      <trkpt lat="42.50624" lon="24.15695">
        <ele>608.719226</ele>
        <time>2022-03-08T07:29:49.704Z</time>
      </trkpt>
      <trkpt lat="42.50626" lon="24.15681">
        <ele>608.815622</ele>
        <time>2022-03-08T07:29:53.708Z</time>
      </trkpt>
      <trkpt lat="42.50628" lon="24.15667">
        <ele>608.912905</ele>
        <time>2022-03-08T07:29:57.692Z</time>
      </trkpt>
      <trkpt lat="42.5063" lon="24.15654">
        <ele>609.008012</ele>
        <time>2022-03-08T07:30:01.702Z</time>
      </trkpt>
      <trkpt lat="42.50632" lon="24.15642">
        <ele>609.09329</ele>
        <time>2022-03-08T07:30:05.695Z</time>
      </trkpt>
      <trkpt lat="42.50634" lon="24.15628">
        <ele>609.193041</ele>
        <time>2022-03-08T07:30:10.693Z</time>
      </trkpt>
      <trkpt lat="42.50637" lon="24.15614">
        <ele>609.292337</ele>
        <time>2022-03-08T07:30:15.681Z</time>
      </trkpt>
      <trkpt lat="42.50639" lon="24.15599">
        <ele>609.549822</ele>
        <time>2022-03-08T07:30:20.698Z</time>
      </trkpt>
      <trkpt lat="42.50642" lon="24.15585">
        <ele>610.062555</ele>
        <time>2022-03-08T07:30:25.704Z</time>
      </trkpt>
      <trkpt lat="42.50644" lon="24.15572">
        <ele>610.540143</ele>
        <time>2022-03-08T07:30:30.735Z</time>
      </trkpt>
      <trkpt lat="42.50646" lon="24.15558">
        <ele>611.025808</ele>
        <time>2022-03-08T07:30:35.704Z</time>
      </trkpt>
      <trkpt lat="42.5065" lon="24.15546">
        <ele>611.465657</ele>
        <time>2022-03-08T07:30:40.700Z</time>
      </trkpt>
      <trkpt lat="42.50653" lon="24.15533">
        <ele>611.960235</ele>
        <time>2022-03-08T07:30:46.700Z</time>
      </trkpt>
      <trkpt lat="42.50656" lon="24.15521">
        <ele>612.396814</ele>
        <time>2022-03-08T07:30:51.692Z</time>
      </trkpt>
      <trkpt lat="42.5066" lon="24.1551">
        <ele>612.830421</ele>
        <time>2022-03-08T07:30:56.695Z</time>
      </trkpt>
      <trkpt lat="42.50665" lon="24.15497">
        <ele>613.341302</ele>
        <time>2022-03-08T07:31:02.701Z</time>
      </trkpt>
      <trkpt lat="42.5067" lon="24.15487">
        <ele>613.774054</ele>
        <time>2022-03-08T07:31:07.683Z</time>
      </trkpt>
      <trkpt lat="42.50675" lon="24.15476">
        <ele>614.249843</ele>
        <time>2022-03-08T07:31:13.681Z</time>
      </trkpt>
      <trkpt lat="42.50679" lon="24.15465">
        <ele>614.684809</ele>
        <time>2022-03-08T07:31:18.704Z</time>
      </trkpt>
      <trkpt lat="42.50683" lon="24.15453">
        <ele>615.123497</ele>
        <time>2022-03-08T07:31:22.696Z</time>
      </trkpt>
      <trkpt lat="42.50687" lon="24.15441">
        <ele>615.601967</ele>
        <time>2022-03-08T07:31:27.698Z</time>
      </trkpt>
      <trkpt lat="42.5069" lon="24.15428">
        <ele>616.074781</ele>
        <time>2022-03-08T07:31:33.705Z</time>
      </trkpt>
      <trkpt lat="42.50696" lon="24.15416">
        <ele>616.571997</ele>
        <time>2022-03-08T07:31:39.694Z</time>
      </trkpt>
      <trkpt lat="42.507" lon="24.15405">
        <ele>617.006962</ele>
        <time>2022-03-08T07:31:44.712Z</time>
      </trkpt>
      <trkpt lat="42.50704" lon="24.15392">
        <ele>617.499677</ele>
        <time>2022-03-08T07:31:50.717Z</time>
      </trkpt>
      <trkpt lat="42.50707" lon="24.1538">
        <ele>617.964786</ele>
        <time>2022-03-08T07:31:56.695Z</time>
      </trkpt>
      <trkpt lat="42.5071" lon="24.15367">
        <ele>618.472632</ele>
        <time>2022-03-08T07:32:03.716Z</time>
      </trkpt>
      <trkpt lat="42.50713" lon="24.15355">
        <ele>618.952815</ele>
        <time>2022-03-08T07:32:09.709Z</time>
      </trkpt>
      <trkpt lat="42.50715" lon="24.15343">
        <ele>619.443314</ele>
        <time>2022-03-08T07:32:15.695Z</time>
      </trkpt>
      <trkpt lat="42.50718" lon="24.1533">
        <ele>619.964834</ele>
        <time>2022-03-08T07:32:21.745Z</time>
      </trkpt>
      <trkpt lat="42.5072" lon="24.15317">
        <ele>620.466929</ele>
        <time>2022-03-08T07:32:27.703Z</time>
      </trkpt>
      <trkpt lat="42.50722" lon="24.15304">
        <ele>620.991728</ele>
        <time>2022-03-08T07:32:33.695Z</time>
      </trkpt>
      <trkpt lat="42.50724" lon="24.15291">
        <ele>621.481188</ele>
        <time>2022-03-08T07:32:40.699Z</time>
      </trkpt>
      <trkpt lat="42.50726" lon="24.15279">
        <ele>621.96511</ele>
        <time>2022-03-08T07:32:47.702Z</time>
      </trkpt>
      <trkpt lat="42.50729" lon="24.15267">
        <ele>622.442042</ele>
        <time>2022-03-08T07:32:53.696Z</time>
      </trkpt>
      <trkpt lat="42.50732" lon="24.15256">
        <ele>622.917808</ele>
        <time>2022-03-08T07:32:59.698Z</time>
      </trkpt>
      <trkpt lat="42.50735" lon="24.15244">
        <ele>623.415131</ele>
        <time>2022-03-08T07:33:05.734Z</time>
      </trkpt>
      <trkpt lat="42.50737" lon="24.15231">
        <ele>623.905054</ele>
        <time>2022-03-08T07:33:11.701Z</time>
      </trkpt>
      <trkpt lat="42.5074" lon="24.15218">
        <ele>624.442345</ele>
        <time>2022-03-08T07:33:18.701Z</time>
      </trkpt>
      <trkpt lat="42.50742" lon="24.15205">
        <ele>624.963465</ele>
        <time>2022-03-08T07:33:25.695Z</time>
      </trkpt>
      <trkpt lat="42.50744" lon="24.15192">
        <ele>625.445885</ele>
        <time>2022-03-08T07:33:31.695Z</time>
      </trkpt>
      <trkpt lat="42.50748" lon="24.1518">
        <ele>625.95894</ele>
        <time>2022-03-08T07:33:37.703Z</time>
      </trkpt>
      <trkpt lat="42.5075" lon="24.15167">
        <ele>626.451482</ele>
        <time>2022-03-08T07:33:43.697Z</time>
      </trkpt>
      <trkpt lat="42.50752" lon="24.15155">
        <ele>626.937705</ele>
        <time>2022-03-08T07:33:49.712Z</time>
      </trkpt>
      <trkpt lat="42.50755" lon="24.15142">
        <ele>627.475496</ele>
        <time>2022-03-08T07:33:55.695Z</time>
      </trkpt>
      <trkpt lat="42.50759" lon="24.15129">
        <ele>628.072823</ele>
        <time>2022-03-08T07:34:01.694Z</time>
      </trkpt>
      <trkpt lat="42.50762" lon="24.15116">
        <ele>628.646675</ele>
        <time>2022-03-08T07:34:07.695Z</time>
      </trkpt>
      <trkpt lat="42.50764" lon="24.15104">
        <ele>629.203033</ele>
        <time>2022-03-08T07:34:13.701Z</time>
      </trkpt>
      <trkpt lat="42.50767" lon="24.15092">
        <ele>629.727448</ele>
        <time>2022-03-08T07:34:19.709Z</time>
      </trkpt>
      <trkpt lat="42.50768" lon="24.1508">
        <ele>630.252429</ele>
        <time>2022-03-08T07:34:25.695Z</time>
      </trkpt>
      <trkpt lat="42.5077" lon="24.15068">
        <ele>630.783385</ele>
        <time>2022-03-08T07:34:31.740Z</time>
      </trkpt>
      <trkpt lat="42.50774" lon="24.15054">
        <ele>631.396924</ele>
        <time>2022-03-08T07:34:37.692Z</time>
      </trkpt>
      <trkpt lat="42.50778" lon="24.15042">
        <ele>631.972753</ele>
        <time>2022-03-08T07:34:43.708Z</time>
      </trkpt>
      <trkpt lat="42.50782" lon="24.15031">
        <ele>632.501875</ele>
        <time>2022-03-08T07:34:49.693Z</time>
      </trkpt>
      <trkpt lat="42.50787" lon="24.1502">
        <ele>633.042048</ele>
        <time>2022-03-08T07:34:55.672Z</time>
      </trkpt>
      <trkpt lat="42.50791" lon="24.15009">
        <ele>633.591711</ele>
        <time>2022-03-08T07:35:00.721Z</time>
      </trkpt>
      <trkpt lat="42.50797" lon="24.14997">
        <ele>634.189944</ele>
        <time>2022-03-08T07:35:05.681Z</time>
      </trkpt>
      <trkpt lat="42.50802" lon="24.14985">
        <ele>634.782426</ele>
        <time>2022-03-08T07:35:10.685Z</time>
      </trkpt>
      <trkpt lat="42.50807" lon="24.14972">
        <ele>635.387273</ele>
        <time>2022-03-08T07:35:15.710Z</time>
      </trkpt>
      <trkpt lat="42.50812" lon="24.14961">
        <ele>635.953862</ele>
        <time>2022-03-08T07:35:20.693Z</time>
      </trkpt>
      <trkpt lat="42.50817" lon="24.14949">
        <ele>636.52023</ele>
        <time>2022-03-08T07:35:25.718Z</time>
      </trkpt>
      <trkpt lat="42.50821" lon="24.14937">
        <ele>637.096807</ele>
        <time>2022-03-08T07:35:30.709Z</time>
      </trkpt>
      <trkpt lat="42.50825" lon="24.14927">
        <ele>637.620897</ele>
        <time>2022-03-08T07:35:35.696Z</time>
      </trkpt>
      <trkpt lat="42.50829" lon="24.14913">
        <ele>638.416595</ele>
        <time>2022-03-08T07:35:41.694Z</time>
      </trkpt>
      <trkpt lat="42.50831" lon="24.14901">
        <ele>639.139415</ele>
        <time>2022-03-08T07:35:46.705Z</time>
      </trkpt>
      <trkpt lat="42.50833" lon="24.14887">
        <ele>639.968231</ele>
        <time>2022-03-08T07:35:52.707Z</time>
      </trkpt>
      <trkpt lat="42.50833" lon="24.14873">
        <ele>640.787552</ele>
        <time>2022-03-08T07:35:58.717Z</time>
      </trkpt>
      <trkpt lat="42.50832" lon="24.14859">
        <ele>641.627203</ele>
        <time>2022-03-08T07:36:04.696Z</time>
      </trkpt>
      <trkpt lat="42.5083" lon="24.14844">
        <ele>642.484235</ele>
        <time>2022-03-08T07:36:10.693Z</time>
      </trkpt>
      <trkpt lat="42.50828" lon="24.14832">
        <ele>643.201384</ele>
        <time>2022-03-08T07:36:15.709Z</time>
      </trkpt>
      <trkpt lat="42.50826" lon="24.14819">
        <ele>644.012198</ele>
        <time>2022-03-08T07:36:21.701Z</time>
      </trkpt>
      <trkpt lat="42.50825" lon="24.14805">
        <ele>644.842828</ele>
        <time>2022-03-08T07:36:27.714Z</time>
      </trkpt>
      <trkpt lat="42.50823" lon="24.14791">
        <ele>645.642097</ele>
        <time>2022-03-08T07:36:33.690Z</time>
      </trkpt>
      <trkpt lat="42.50821" lon="24.14778">
        <ele>646.457719</ele>
        <time>2022-03-08T07:36:40.691Z</time>
      </trkpt>
      <trkpt lat="42.50819" lon="24.14765">
        <ele>647.234</ele>
        <time>2022-03-08T07:36:47.689Z</time>
      </trkpt>
      <trkpt lat="42.50819" lon="24.14752">
        <ele>647.95953</ele>
        <time>2022-03-08T07:36:53.679Z</time>
      </trkpt>
      <trkpt lat="42.50818" lon="24.14739">
        <ele>648.733734</ele>
        <time>2022-03-08T07:36:59.694Z</time>
      </trkpt>
      <trkpt lat="42.50818" lon="24.14725">
        <ele>649.535542</ele>
        <time>2022-03-08T07:37:05.697Z</time>
      </trkpt>
      <trkpt lat="42.50817" lon="24.14712">
        <ele>650.334469</ele>
        <time>2022-03-08T07:37:11.728Z</time>
      </trkpt>
      <trkpt lat="42.50815" lon="24.14699">
        <ele>651.097856</ele>
        <time>2022-03-08T07:37:17.690Z</time>
      </trkpt>
      <trkpt lat="42.50815" lon="24.14686">
        <ele>651.865087</ele>
        <time>2022-03-08T07:37:23.699Z</time>
      </trkpt>
      <trkpt lat="42.50813" lon="24.14674">
        <ele>652.399731</ele>
        <time>2022-03-08T07:37:29.692Z</time>
      </trkpt>
      <trkpt lat="42.50812" lon="24.14661">
        <ele>652.893939</ele>
        <time>2022-03-08T07:37:35.702Z</time>
      </trkpt>
      <trkpt lat="42.50811" lon="24.14648">
        <ele>653.395244</ele>
        <time>2022-03-08T07:37:41.690Z</time>
      </trkpt>
      <trkpt lat="42.50809" lon="24.14636">
        <ele>653.877813</ele>
        <time>2022-03-08T07:37:47.695Z</time>
      </trkpt>
      <trkpt lat="42.50808" lon="24.14623">
        <ele>654.393779</ele>
        <time>2022-03-08T07:37:53.731Z</time>
      </trkpt>
      <trkpt lat="42.50807" lon="24.1461">
        <ele>654.917542</ele>
        <time>2022-03-08T07:37:59.693Z</time>
      </trkpt>
      <trkpt lat="42.50806" lon="24.14598">
        <ele>655.408138</ele>
        <time>2022-03-08T07:38:05.692Z</time>
      </trkpt>
      <trkpt lat="42.50804" lon="24.14584">
        <ele>655.960748</ele>
        <time>2022-03-08T07:38:12.698Z</time>
      </trkpt>
      <trkpt lat="42.50803" lon="24.1457">
        <ele>656.49733</ele>
        <time>2022-03-08T07:38:18.685Z</time>
      </trkpt>
      <trkpt lat="42.50802" lon="24.14557">
        <ele>657.021826</ele>
        <time>2022-03-08T07:38:24.683Z</time>
      </trkpt>
      <trkpt lat="42.50801" lon="24.14545">
        <ele>657.518411</ele>
        <time>2022-03-08T07:38:30.698Z</time>
      </trkpt>
      <trkpt lat="42.508" lon="24.14532">
        <ele>658.038636</ele>
        <time>2022-03-08T07:38:37.681Z</time>
      </trkpt>
      <trkpt lat="42.50799" lon="24.14517">
        <ele>658.597753</ele>
        <time>2022-03-08T07:38:44.704Z</time>
      </trkpt>
      <trkpt lat="42.50798" lon="24.14503">
        <ele>659.150261</ele>
        <time>2022-03-08T07:38:51.697Z</time>
      </trkpt>
      <trkpt lat="42.50796" lon="24.14491">
        <ele>659.635069</ele>
        <time>2022-03-08T07:38:57.708Z</time>
      </trkpt>
      <trkpt lat="42.50796" lon="24.14479">
        <ele>660.119881</ele>
        <time>2022-03-08T07:39:03.712Z</time>
      </trkpt>
      <trkpt lat="42.50796" lon="24.14465">
        <ele>660.674454</ele>
        <time>2022-03-08T07:39:10.703Z</time>
      </trkpt>
      <trkpt lat="42.50796" lon="24.14451">
        <ele>661.205511</ele>
        <time>2022-03-08T07:39:17.706Z</time>
      </trkpt>
      <trkpt lat="42.50798" lon="24.14438">
        <ele>661.676078</ele>
        <time>2022-03-08T07:39:24.703Z</time>
      </trkpt>
      <trkpt lat="42.50799" lon="24.14426">
        <ele>661.982578</ele>
        <time>2022-03-08T07:39:30.693Z</time>
      </trkpt>
      <trkpt lat="42.50801" lon="24.14414">
        <ele>662.289886</ele>
        <time>2022-03-08T07:39:37.699Z</time>
      </trkpt>
      <trkpt lat="42.50804" lon="24.14402">
        <ele>662.603794</ele>
        <time>2022-03-08T07:39:44.714Z</time>
      </trkpt>
      <trkpt lat="42.50807" lon="24.1439">
        <ele>662.908634</ele>
        <time>2022-03-08T07:39:51.718Z</time>
      </trkpt>
      <trkpt lat="42.5081" lon="24.14378">
        <ele>663.211526</ele>
        <time>2022-03-08T07:39:58.721Z</time>
      </trkpt>
      <trkpt lat="42.50813" lon="24.14366">
        <ele>663.525678</ele>
        <time>2022-03-08T07:40:04.676Z</time>
      </trkpt>
      <trkpt lat="42.50816" lon="24.14352">
        <ele>663.883377</ele>
        <time>2022-03-08T07:40:10.703Z</time>
      </trkpt>
      <trkpt lat="42.5082" lon="24.1434">
        <ele>664.198057</ele>
        <time>2022-03-08T07:40:15.704Z</time>
      </trkpt>
      <trkpt lat="42.50825" lon="24.14329">
        <ele>664.512085</ele>
        <time>2022-03-08T07:40:20.716Z</time>
      </trkpt>
      <trkpt lat="42.5083" lon="24.14316">
        <ele>664.877868</ele>
        <time>2022-03-08T07:40:25.712Z</time>
      </trkpt>
      <trkpt lat="42.50834" lon="24.14305">
        <ele>665.180179</ele>
        <time>2022-03-08T07:40:29.710Z</time>
      </trkpt>
      <trkpt lat="42.50839" lon="24.14293">
        <ele>665.50481</ele>
        <time>2022-03-08T07:40:33.714Z</time>
      </trkpt>
      <trkpt lat="42.50843" lon="24.14282">
        <ele>665.812369</ele>
        <time>2022-03-08T07:40:37.698Z</time>
      </trkpt>
      <trkpt lat="42.50847" lon="24.1427">
        <ele>666.124019</ele>
        <time>2022-03-08T07:40:41.703Z</time>
      </trkpt>
      <trkpt lat="42.50852" lon="24.14258">
        <ele>666.456655</ele>
        <time>2022-03-08T07:40:45.704Z</time>
      </trkpt>
      <trkpt lat="42.50857" lon="24.14248">
        <ele>666.75376</ele>
        <time>2022-03-08T07:40:49.699Z</time>
      </trkpt>
      <trkpt lat="42.50862" lon="24.14238">
        <ele>667.059427</ele>
        <time>2022-03-08T07:40:53.712Z</time>
      </trkpt>
      <trkpt lat="42.50865" lon="24.14226">
        <ele>667.366572</ele>
        <time>2022-03-08T07:40:57.696Z</time>
      </trkpt>
      <trkpt lat="42.5087" lon="24.14214">
        <ele>667.638081</ele>
        <time>2022-03-08T07:41:01.738Z</time>
      </trkpt>
      <trkpt lat="42.50874" lon="24.14202">
        <ele>667.847355</ele>
        <time>2022-03-08T07:41:05.703Z</time>
      </trkpt>
      <trkpt lat="42.50878" lon="24.14191">
        <ele>668.048207</ele>
        <time>2022-03-08T07:41:09.702Z</time>
      </trkpt>
      <trkpt lat="42.50883" lon="24.14178">
        <ele>668.277438</ele>
        <time>2022-03-08T07:41:14.697Z</time>
      </trkpt>
      <trkpt lat="42.50887" lon="24.14167">
        <ele>668.476882</ele>
        <time>2022-03-08T07:41:18.746Z</time>
      </trkpt>
      <trkpt lat="42.50892" lon="24.14156">
        <ele>668.670785</ele>
        <time>2022-03-08T07:41:22.693Z</time>
      </trkpt>
      <trkpt lat="42.50897" lon="24.14143">
        <ele>668.904148</ele>
        <time>2022-03-08T07:41:27.730Z</time>
      </trkpt>
      <trkpt lat="42.50903" lon="24.14129">
        <ele>669.145173</ele>
        <time>2022-03-08T07:41:32.732Z</time>
      </trkpt>
      <trkpt lat="42.50908" lon="24.14118">
        <ele>669.355439</ele>
        <time>2022-03-08T07:41:36.708Z</time>
      </trkpt>
      <trkpt lat="42.50913" lon="24.14107">
        <ele>669.560307</ele>
        <time>2022-03-08T07:41:40.737Z</time>
      </trkpt>
      <trkpt lat="42.50918" lon="24.14095">
        <ele>669.770002</ele>
        <time>2022-03-08T07:41:44.722Z</time>
      </trkpt>
      <trkpt lat="42.50922" lon="24.14084">
        <ele>669.96512</ele>
        <time>2022-03-08T07:41:48.702Z</time>
      </trkpt>
      <trkpt lat="42.50926" lon="24.14073">
        <ele>670.161082</ele>
        <time>2022-03-08T07:41:52.701Z</time>
      </trkpt>
      <trkpt lat="42.5093" lon="24.1406">
        <ele>670.377695</ele>
        <time>2022-03-08T07:41:57.756Z</time>
      </trkpt>
      <trkpt lat="42.50933" lon="24.14049">
        <ele>670.569939</ele>
        <time>2022-03-08T07:42:01.712Z</time>
      </trkpt>
      <trkpt lat="42.50937" lon="24.14038">
        <ele>670.761369</ele>
        <time>2022-03-08T07:42:05.696Z</time>
      </trkpt>
      <trkpt lat="42.5094" lon="24.14023">
        <ele>670.996072</ele>
        <time>2022-03-08T07:42:10.702Z</time>
      </trkpt>
      <trkpt lat="42.50943" lon="24.14009">
        <ele>671.227151</ele>
        <time>2022-03-08T07:42:15.723Z</time>
      </trkpt>
      <trkpt lat="42.50948" lon="24.13997">
        <ele>671.495124</ele>
        <time>2022-03-08T07:42:20.701Z</time>
      </trkpt>
      <trkpt lat="42.5095" lon="24.13983">
        <ele>671.871622</ele>
        <time>2022-03-08T07:42:25.728Z</time>
      </trkpt>
      <trkpt lat="42.50953" lon="24.13971">
        <ele>672.23342</ele>
        <time>2022-03-08T07:42:30.751Z</time>
      </trkpt>
      <trkpt lat="42.50956" lon="24.13957">
        <ele>672.629091</ele>
        <time>2022-03-08T07:42:35.713Z</time>
      </trkpt>
      <trkpt lat="42.50958" lon="24.13942">
        <ele>673.027056</ele>
        <time>2022-03-08T07:42:40.692Z</time>
      </trkpt>
      <trkpt lat="42.50958" lon="24.13929">
        <ele>673.39937</ele>
        <time>2022-03-08T07:42:44.704Z</time>
      </trkpt>
      <trkpt lat="42.50959" lon="24.13915">
        <ele>673.766671</ele>
        <time>2022-03-08T07:42:48.692Z</time>
      </trkpt>
      <trkpt lat="42.50959" lon="24.13902">
        <ele>674.133523</ele>
        <time>2022-03-08T07:42:52.700Z</time>
      </trkpt>
      <trkpt lat="42.50959" lon="24.13888">
        <ele>674.52453</ele>
        <time>2022-03-08T07:42:56.706Z</time>
      </trkpt>
      <trkpt lat="42.50959" lon="24.13873">
        <ele>674.93466</ele>
        <time>2022-03-08T07:43:00.709Z</time>
      </trkpt>
      <trkpt lat="42.50959" lon="24.13857">
        <ele>675.36954</ele>
        <time>2022-03-08T07:43:04.697Z</time>
      </trkpt>
      <trkpt lat="42.50958" lon="24.13841">
        <ele>675.812868</ele>
        <time>2022-03-08T07:43:08.757Z</time>
      </trkpt>
      <trkpt lat="42.50958" lon="24.13825">
        <ele>676.236734</ele>
        <time>2022-03-08T07:43:12.691Z</time>
      </trkpt>
      <trkpt lat="42.50958" lon="24.13811">
        <ele>676.630895</ele>
        <time>2022-03-08T07:43:16.693Z</time>
      </trkpt>
      <trkpt lat="42.50957" lon="24.13797">
        <ele>677.016577</ele>
        <time>2022-03-08T07:43:20.699Z</time>
      </trkpt>
      <trkpt lat="42.50957" lon="24.13783">
        <ele>677.399653</ele>
        <time>2022-03-08T07:43:24.702Z</time>
      </trkpt>
      <trkpt lat="42.50956" lon="24.13769">
        <ele>677.76996</ele>
        <time>2022-03-08T07:43:28.693Z</time>
      </trkpt>
      <trkpt lat="42.50955" lon="24.13756">
        <ele>678.15509</ele>
        <time>2022-03-08T07:43:32.702Z</time>
      </trkpt>
      <trkpt lat="42.50955" lon="24.13741">
        <ele>678.732184</ele>
        <time>2022-03-08T07:43:37.697Z</time>
      </trkpt>
      <trkpt lat="42.50954" lon="24.13729">
        <ele>679.218706</ele>
        <time>2022-03-08T07:43:41.733Z</time>
      </trkpt>
      <trkpt lat="42.50953" lon="24.13715">
        <ele>679.77005</ele>
        <time>2022-03-08T07:43:46.715Z</time>
      </trkpt>
      <trkpt lat="42.50952" lon="24.13702">
        <ele>680.295275</ele>
        <time>2022-03-08T07:43:51.687Z</time>
      </trkpt>
      <trkpt lat="42.50952" lon="24.13687">
        <ele>680.875797</ele>
        <time>2022-03-08T07:43:56.703Z</time>
      </trkpt>
      <trkpt lat="42.50952" lon="24.13674">
        <ele>681.397376</ele>
        <time>2022-03-08T07:44:01.692Z</time>
      </trkpt>
      <trkpt lat="42.50951" lon="24.13661">
        <ele>681.907201</ele>
        <time>2022-03-08T07:44:06.713Z</time>
      </trkpt>
      <trkpt lat="42.50951" lon="24.13648">
        <ele>682.401126</ele>
        <time>2022-03-08T07:44:11.718Z</time>
      </trkpt>
      <trkpt lat="42.5095" lon="24.13635">
        <ele>682.937096</ele>
        <time>2022-03-08T07:44:16.693Z</time>
      </trkpt>
      <trkpt lat="42.50948" lon="24.1362">
        <ele>683.518803</ele>
        <time>2022-03-08T07:44:21.696Z</time>
      </trkpt>
      <trkpt lat="42.50946" lon="24.13608">
        <ele>684.004529</ele>
        <time>2022-03-08T07:44:25.727Z</time>
      </trkpt>
      <trkpt lat="42.50943" lon="24.13593">
        <ele>684.591887</ele>
        <time>2022-03-08T07:44:30.711Z</time>
      </trkpt>
      <trkpt lat="42.5094" lon="24.13582">
        <ele>685.084855</ele>
        <time>2022-03-08T07:44:34.700Z</time>
      </trkpt>
      <trkpt lat="42.50936" lon="24.13568">
        <ele>685.654968</ele>
        <time>2022-03-08T07:44:39.703Z</time>
      </trkpt>
      <trkpt lat="42.50932" lon="24.13557">
        <ele>686.143222</ele>
        <time>2022-03-08T07:44:43.714Z</time>
      </trkpt>
      <trkpt lat="42.50928" lon="24.13545">
        <ele>686.652322</ele>
        <time>2022-03-08T07:44:47.720Z</time>
      </trkpt>
      <trkpt lat="42.50924" lon="24.13533">
        <ele>687.163538</ele>
        <time>2022-03-08T07:44:51.699Z</time>
      </trkpt>
      <trkpt lat="42.50919" lon="24.1352">
        <ele>687.607838</ele>
        <time>2022-03-08T07:44:56.697Z</time>
      </trkpt>
      <trkpt lat="42.50915" lon="24.13508">
        <ele>687.578609</ele>
        <time>2022-03-08T07:45:00.704Z</time>
      </trkpt>
      <trkpt lat="42.50911" lon="24.13496">
        <ele>687.547856</ele>
        <time>2022-03-08T07:45:04.673Z</time>
      </trkpt>
      <trkpt lat="42.50907" lon="24.13484">
        <ele>687.517962</ele>
        <time>2022-03-08T07:45:08.695Z</time>
      </trkpt>
      <trkpt lat="42.50902" lon="24.13473">
        <ele>687.487761</ele>
        <time>2022-03-08T07:45:12.706Z</time>
      </trkpt>
      <trkpt lat="42.50897" lon="24.13459">
        <ele>687.45448</ele>
        <time>2022-03-08T07:45:17.700Z</time>
      </trkpt>
      <trkpt lat="42.50893" lon="24.13446">
        <ele>687.421168</ele>
        <time>2022-03-08T07:45:22.701Z</time>
      </trkpt>
      <trkpt lat="42.50888" lon="24.13432">
        <ele>687.387137</ele>
        <time>2022-03-08T07:45:27.724Z</time>
      </trkpt>
      <trkpt lat="42.50885" lon="24.13419">
        <ele>687.354835</ele>
        <time>2022-03-08T07:45:32.710Z</time>
      </trkpt>
      <trkpt lat="42.50881" lon="24.13405">
        <ele>687.321253</ele>
        <time>2022-03-08T07:45:37.735Z</time>
      </trkpt>
      <trkpt lat="42.50879" lon="24.13393">
        <ele>687.293571</ele>
        <time>2022-03-08T07:45:41.705Z</time>
      </trkpt>
      <trkpt lat="42.50877" lon="24.13381">
        <ele>687.265325</ele>
        <time>2022-03-08T07:45:45.696Z</time>
      </trkpt>
      <trkpt lat="42.50876" lon="24.13368">
        <ele>687.235195</ele>
        <time>2022-03-08T07:45:50.702Z</time>
      </trkpt>
      <trkpt lat="42.50875" lon="24.13355">
        <ele>687.204612</ele>
        <time>2022-03-08T07:45:55.696Z</time>
      </trkpt>
      <trkpt lat="42.50874" lon="24.13341">
        <ele>687.171914</ele>
        <time>2022-03-08T07:46:00.744Z</time>
      </trkpt>
      <trkpt lat="42.50874" lon="24.13327">
        <ele>687.141811</ele>
        <time>2022-03-08T07:46:05.704Z</time>
      </trkpt>
      <trkpt lat="42.50873" lon="24.13313">
        <ele>687.108689</ele>
        <time>2022-03-08T07:46:10.747Z</time>
      </trkpt>
      <trkpt lat="42.50873" lon="24.13298">
        <ele>687.074496</ele>
        <time>2022-03-08T07:46:15.725Z</time>
      </trkpt>
      <trkpt lat="42.50874" lon="24.13284">
        <ele>686.9063</ele>
        <time>2022-03-08T07:46:20.696Z</time>
      </trkpt>
      <trkpt lat="42.50874" lon="24.13271">
        <ele>686.633219</ele>
        <time>2022-03-08T07:46:25.689Z</time>
      </trkpt>
      <trkpt lat="42.50874" lon="24.13258">
        <ele>686.380508</ele>
        <time>2022-03-08T07:46:30.712Z</time>
      </trkpt>
      <trkpt lat="42.50875" lon="24.13244">
        <ele>686.081994</ele>
        <time>2022-03-08T07:46:35.716Z</time>
      </trkpt>
      <trkpt lat="42.50875" lon="24.13231">
        <ele>685.831</ele>
        <time>2022-03-08T07:46:39.697Z</time>
      </trkpt>
      <trkpt lat="42.50876" lon="24.13218">
        <ele>685.558873</ele>
        <time>2022-03-08T07:46:43.696Z</time>
      </trkpt>
      <trkpt lat="42.50878" lon="24.13204">
        <ele>685.271769</ele>
        <time>2022-03-08T07:46:47.684Z</time>
      </trkpt>
      <trkpt lat="42.50881" lon="24.1319">
        <ele>684.970796</ele>
        <time>2022-03-08T07:46:51.699Z</time>
      </trkpt>
      <trkpt lat="42.50885" lon="24.13175">
        <ele>684.659652</ele>
        <time>2022-03-08T07:46:55.708Z</time>
      </trkpt>
      <trkpt lat="42.50889" lon="24.13161">
        <ele>684.343094</ele>
        <time>2022-03-08T07:46:59.736Z</time>
      </trkpt>
      <trkpt lat="42.50893" lon="24.13146">
        <ele>684.025552</ele>
        <time>2022-03-08T07:47:03.704Z</time>
      </trkpt>
      <trkpt lat="42.50895" lon="24.13134">
        <ele>683.760921</ele>
        <time>2022-03-08T07:47:06.704Z</time>
      </trkpt>
      <trkpt lat="42.50899" lon="24.13121">
        <ele>683.487734</ele>
        <time>2022-03-08T07:47:09.695Z</time>
      </trkpt>
      <trkpt lat="42.50904" lon="24.13109">
        <ele>683.205971</ele>
        <time>2022-03-08T07:47:12.728Z</time>
      </trkpt>
      <trkpt lat="42.50909" lon="24.13097">
        <ele>682.922536</ele>
        <time>2022-03-08T07:47:15.714Z</time>
      </trkpt>
      <trkpt lat="42.50912" lon="24.13082">
        <ele>682.611393</ele>
        <time>2022-03-08T07:47:18.692Z</time>
      </trkpt>
      <trkpt lat="42.50915" lon="24.13067">
        <ele>682.300748</ele>
        <time>2022-03-08T07:47:21.693Z</time>
      </trkpt>
      <trkpt lat="42.50918" lon="24.13051">
        <ele>682.222006</ele>
        <time>2022-03-08T07:47:24.702Z</time>
      </trkpt>
      <trkpt lat="42.50924" lon="24.13034">
        <ele>682.563855</ele>
        <time>2022-03-08T07:47:27.702Z</time>
      </trkpt>
      <trkpt lat="42.50927" lon="24.13021">
        <ele>682.809406</ele>
        <time>2022-03-08T07:47:29.704Z</time>
      </trkpt>
      <trkpt lat="42.50931" lon="24.13009">
        <ele>683.061081</ele>
        <time>2022-03-08T07:47:31.691Z</time>
      </trkpt>
      <trkpt lat="42.50936" lon="24.12996">
        <ele>683.328404</ele>
        <time>2022-03-08T07:47:33.726Z</time>
      </trkpt>
      <trkpt lat="42.5094" lon="24.12983">
        <ele>683.588894</ele>
        <time>2022-03-08T07:47:35.699Z</time>
      </trkpt>
      <trkpt lat="42.50943" lon="24.12967">
        <ele>683.900424</ele>
        <time>2022-03-08T07:47:38.715Z</time>
      </trkpt>
      <trkpt lat="42.50946" lon="24.12955">
        <ele>684.136243</ele>
        <time>2022-03-08T07:47:40.693Z</time>
      </trkpt>
      <trkpt lat="42.50951" lon="24.12943">
        <ele>684.379065</ele>
        <time>2022-03-08T07:47:42.699Z</time>
      </trkpt>
      <trkpt lat="42.50956" lon="24.12931">
        <ele>684.644227</ele>
        <time>2022-03-08T07:47:44.725Z</time>
      </trkpt>
      <trkpt lat="42.50961" lon="24.12918">
        <ele>684.922118</ele>
        <time>2022-03-08T07:47:46.698Z</time>
      </trkpt>
      <trkpt lat="42.50965" lon="24.12905">
        <ele>685.187766</ele>
        <time>2022-03-08T07:47:48.698Z</time>
      </trkpt>
      <trkpt lat="42.5097" lon="24.12892">
        <ele>685.452927</ele>
        <time>2022-03-08T07:47:50.715Z</time>
      </trkpt>
      <trkpt lat="42.50974" lon="24.12879">
        <ele>685.720532</ele>
        <time>2022-03-08T07:47:52.710Z</time>
      </trkpt>
      <trkpt lat="42.50978" lon="24.12866">
        <ele>685.984298</ele>
        <time>2022-03-08T07:47:54.712Z</time>
      </trkpt>
      <trkpt lat="42.50982" lon="24.12853">
        <ele>686.24633</ele>
        <time>2022-03-08T07:47:56.714Z</time>
      </trkpt>
      <trkpt lat="42.50985" lon="24.12839">
        <ele>686.510951</ele>
        <time>2022-03-08T07:47:58.742Z</time>
      </trkpt>
      <trkpt lat="42.50988" lon="24.12825">
        <ele>686.514036</ele>
        <time>2022-03-08T07:48:00.718Z</time>
      </trkpt>
      <trkpt lat="42.5099" lon="24.12812">
        <ele>686.310785</ele>
        <time>2022-03-08T07:48:02.746Z</time>
      </trkpt>
      <trkpt lat="42.50993" lon="24.12799">
        <ele>686.113276</ele>
        <time>2022-03-08T07:48:04.718Z</time>
      </trkpt>
      <trkpt lat="42.50996" lon="24.12785">
        <ele>685.89892</ele>
        <time>2022-03-08T07:48:06.691Z</time>
      </trkpt>
      <trkpt lat="42.50998" lon="24.12771">
        <ele>685.675941</ele>
        <time>2022-03-08T07:48:08.744Z</time>
      </trkpt>
      <trkpt lat="42.51001" lon="24.12755">
        <ele>685.438876</ele>
        <time>2022-03-08T07:48:10.693Z</time>
      </trkpt>
      <trkpt lat="42.51003" lon="24.1274">
        <ele>685.209088</ele>
        <time>2022-03-08T07:48:12.709Z</time>
      </trkpt>
      <trkpt lat="42.51005" lon="24.12724">
        <ele>684.963598</ele>
        <time>2022-03-08T07:48:14.700Z</time>
      </trkpt>
      <trkpt lat="42.51006" lon="24.12706">
        <ele>684.6998</ele>
        <time>2022-03-08T07:48:16.712Z</time>
      </trkpt>
      <trkpt lat="42.51005" lon="24.12687">
        <ele>684.413606</ele>
        <time>2022-03-08T07:48:18.709Z</time>
      </trkpt>
      <trkpt lat="42.51003" lon="24.12666">
        <ele>684.097392</ele>
        <time>2022-03-08T07:48:20.723Z</time>
      </trkpt>
      <trkpt lat="42.51001" lon="24.12644">
        <ele>683.775023</ele>
        <time>2022-03-08T07:48:22.687Z</time>
      </trkpt>
      <trkpt lat="42.50998" lon="24.12622">
        <ele>683.431178</ele>
        <time>2022-03-08T07:48:24.704Z</time>
      </trkpt>
      <trkpt lat="42.50996" lon="24.12598">
        <ele>683.074838</ele>
        <time>2022-03-08T07:48:26.721Z</time>
      </trkpt>
      <trkpt lat="42.50996" lon="24.12586">
        <ele>682.695516</ele>
        <time>2022-03-08T07:48:27.703Z</time>
      </trkpt>
      <trkpt lat="42.50996" lon="24.12573">
        <ele>682.17106</ele>
        <time>2022-03-08T07:48:28.703Z</time>
      </trkpt>
      <trkpt lat="42.50997" lon="24.12561">
        <ele>681.649726</ele>
        <time>2022-03-08T07:48:29.705Z</time>
      </trkpt>
      <trkpt lat="42.50998" lon="24.12548">
        <ele>681.114869</ele>
        <time>2022-03-08T07:48:30.708Z</time>
      </trkpt>
      <trkpt lat="42.50998" lon="24.12536">
        <ele>680.57107</ele>
        <time>2022-03-08T07:48:31.677Z</time>
      </trkpt>
      <trkpt lat="42.51" lon="24.12523">
        <ele>680.021172</ele>
        <time>2022-03-08T07:48:32.701Z</time>
      </trkpt>
      <trkpt lat="42.51001" lon="24.1251">
        <ele>679.484565</ele>
        <time>2022-03-08T07:48:33.699Z</time>
      </trkpt>
      <trkpt lat="42.51002" lon="24.12497">
        <ele>678.94148</ele>
        <time>2022-03-08T07:48:34.690Z</time>
      </trkpt>
      <trkpt lat="42.51004" lon="24.12485">
        <ele>678.418386</ele>
        <time>2022-03-08T07:48:35.711Z</time>
      </trkpt>
      <trkpt lat="42.51005" lon="24.12473">
        <ele>677.895293</ele>
        <time>2022-03-08T07:48:36.751Z</time>
      </trkpt>
      <trkpt lat="42.51007" lon="24.1246">
        <ele>677.353558</ele>
        <time>2022-03-08T07:48:37.701Z</time>
      </trkpt>
      <trkpt lat="42.51009" lon="24.12448">
        <ele>676.824298</ele>
        <time>2022-03-08T07:48:38.703Z</time>
      </trkpt>
      <trkpt lat="42.51012" lon="24.12425">
        <ele>675.819767</ele>
        <time>2022-03-08T07:48:40.698Z</time>
      </trkpt>
      <trkpt lat="42.51014" lon="24.12413">
        <ele>675.303568</ele>
        <time>2022-03-08T07:48:41.697Z</time>
      </trkpt>
      <trkpt lat="42.51017" lon="24.12401">
        <ele>674.777516</ele>
        <time>2022-03-08T07:48:42.689Z</time>
      </trkpt>
      <trkpt lat="42.51021" lon="24.1239">
        <ele>674.25524</ele>
        <time>2022-03-08T07:48:43.700Z</time>
      </trkpt>
      <trkpt lat="42.51029" lon="24.12368">
        <ele>673.218996</ele>
        <time>2022-03-08T07:48:45.694Z</time>
      </trkpt>
      <trkpt lat="42.51033" lon="24.12357">
        <ele>672.694325</ele>
        <time>2022-03-08T07:48:46.713Z</time>
      </trkpt>
      <trkpt lat="42.51038" lon="24.12346">
        <ele>671.986962</ele>
        <time>2022-03-08T07:48:47.735Z</time>
      </trkpt>
      <trkpt lat="42.51042" lon="24.12335">
        <ele>671.24467</ele>
        <time>2022-03-08T07:48:48.708Z</time>
      </trkpt>
      <trkpt lat="42.51047" lon="24.12324">
        <ele>670.509571</ele>
        <time>2022-03-08T07:48:49.702Z</time>
      </trkpt>
      <trkpt lat="42.51052" lon="24.12314">
        <ele>669.784389</ele>
        <time>2022-03-08T07:48:50.712Z</time>
      </trkpt>
      <trkpt lat="42.51057" lon="24.12302">
        <ele>669.016383</ele>
        <time>2022-03-08T07:48:51.698Z</time>
      </trkpt>
      <trkpt lat="42.51062" lon="24.12291">
        <ele>668.252363</ele>
        <time>2022-03-08T07:48:52.711Z</time>
      </trkpt>
      <trkpt lat="42.51067" lon="24.1228">
        <ele>667.501182</ele>
        <time>2022-03-08T07:48:53.713Z</time>
      </trkpt>
      <trkpt lat="42.51072" lon="24.12269">
        <ele>666.776799</ele>
        <time>2022-03-08T07:48:54.693Z</time>
      </trkpt>
      <trkpt lat="42.51076" lon="24.12258">
        <ele>666.035682</ele>
        <time>2022-03-08T07:48:55.712Z</time>
      </trkpt>
      <trkpt lat="42.5108" lon="24.12247">
        <ele>665.318467</ele>
        <time>2022-03-08T07:48:56.699Z</time>
      </trkpt>
      <trkpt lat="42.51087" lon="24.12225">
        <ele>663.920533</ele>
        <time>2022-03-08T07:48:58.688Z</time>
      </trkpt>
      <trkpt lat="42.51093" lon="24.12202">
        <ele>662.518917</ele>
        <time>2022-03-08T07:49:00.693Z</time>
      </trkpt>
      <trkpt lat="42.51096" lon="24.1219">
        <ele>661.804637</ele>
        <time>2022-03-08T07:49:01.728Z</time>
      </trkpt>
      <trkpt lat="42.51098" lon="24.12178">
        <ele>661.078623</ele>
        <time>2022-03-08T07:49:02.698Z</time>
      </trkpt>
      <trkpt lat="42.51099" lon="24.12165">
        <ele>660.354098</ele>
        <time>2022-03-08T07:49:03.725Z</time>
      </trkpt>
      <trkpt lat="42.51101" lon="24.12153">
        <ele>659.646637</ele>
        <time>2022-03-08T07:49:04.703Z</time>
      </trkpt>
      <trkpt lat="42.51103" lon="24.12141">
        <ele>658.929218</ele>
        <time>2022-03-08T07:49:05.698Z</time>
      </trkpt>
      <trkpt lat="42.51104" lon="24.12129">
        <ele>658.152287</ele>
        <time>2022-03-08T07:49:06.718Z</time>
      </trkpt>
      <trkpt lat="42.51106" lon="24.12117">
        <ele>657.295371</ele>
        <time>2022-03-08T07:49:07.704Z</time>
      </trkpt>
      <trkpt lat="42.51108" lon="24.12104">
        <ele>656.45181</ele>
        <time>2022-03-08T07:49:08.695Z</time>
      </trkpt>
      <trkpt lat="42.51112" lon="24.12082">
        <ele>654.901278</ele>
        <time>2022-03-08T07:49:10.703Z</time>
      </trkpt>
      <trkpt lat="42.51117" lon="24.12062">
        <ele>653.47322</ele>
        <time>2022-03-08T07:49:12.730Z</time>
      </trkpt>
      <trkpt lat="42.51123" lon="24.12044">
        <ele>652.087589</ele>
        <time>2022-03-08T07:49:14.735Z</time>
      </trkpt>
      <trkpt lat="42.51129" lon="24.12027">
        <ele>650.849756</ele>
        <time>2022-03-08T07:49:16.714Z</time>
      </trkpt>
      <trkpt lat="42.51134" lon="24.12012">
        <ele>649.687134</ele>
        <time>2022-03-08T07:49:18.706Z</time>
      </trkpt>
      <trkpt lat="42.51139" lon="24.11997">
        <ele>648.560001</ele>
        <time>2022-03-08T07:49:20.732Z</time>
      </trkpt>
      <trkpt lat="42.51144" lon="24.11979">
        <ele>647.233846</ele>
        <time>2022-03-08T07:49:22.701Z</time>
      </trkpt>
      <trkpt lat="42.51149" lon="24.11957">
        <ele>645.734978</ele>
        <time>2022-03-08T07:49:24.705Z</time>
      </trkpt>
      <trkpt lat="42.51153" lon="24.11934">
        <ele>644.124805</ele>
        <time>2022-03-08T07:49:26.702Z</time>
      </trkpt>
      <trkpt lat="42.51156" lon="24.11922">
        <ele>643.280043</ele>
        <time>2022-03-08T07:49:27.694Z</time>
      </trkpt>
      <trkpt lat="42.51158" lon="24.1191">
        <ele>642.437648</ele>
        <time>2022-03-08T07:49:28.706Z</time>
      </trkpt>
      <trkpt lat="42.51162" lon="24.11887">
        <ele>641.067909</ele>
        <time>2022-03-08T07:49:30.713Z</time>
      </trkpt>
      <trkpt lat="42.51164" lon="24.11875">
        <ele>640.417697</ele>
        <time>2022-03-08T07:49:31.764Z</time>
      </trkpt>
      <trkpt lat="42.51166" lon="24.11863">
        <ele>639.770995</ele>
        <time>2022-03-08T07:49:32.681Z</time>
      </trkpt>
      <trkpt lat="42.51168" lon="24.11851">
        <ele>639.12086</ele>
        <time>2022-03-08T07:49:33.705Z</time>
      </trkpt>
      <trkpt lat="42.51171" lon="24.11839">
        <ele>638.457202</ele>
        <time>2022-03-08T07:49:34.704Z</time>
      </trkpt>
      <trkpt lat="42.51173" lon="24.11826">
        <ele>637.796913</ele>
        <time>2022-03-08T07:49:35.696Z</time>
      </trkpt>
      <trkpt lat="42.51175" lon="24.11814">
        <ele>637.119614</ele>
        <time>2022-03-08T07:49:36.728Z</time>
      </trkpt>
      <trkpt lat="42.51178" lon="24.11801">
        <ele>636.447389</ele>
        <time>2022-03-08T07:49:37.706Z</time>
      </trkpt>
      <trkpt lat="42.5118" lon="24.11789">
        <ele>635.790367</ele>
        <time>2022-03-08T07:49:38.712Z</time>
      </trkpt>
      <trkpt lat="42.51182" lon="24.11777">
        <ele>635.141986</ele>
        <time>2022-03-08T07:49:39.711Z</time>
      </trkpt>
      <trkpt lat="42.51184" lon="24.11765">
        <ele>634.490183</ele>
        <time>2022-03-08T07:49:40.701Z</time>
      </trkpt>
      <trkpt lat="42.51187" lon="24.11753">
        <ele>633.812834</ele>
        <time>2022-03-08T07:49:41.701Z</time>
      </trkpt>
      <trkpt lat="42.51189" lon="24.1174">
        <ele>633.154273</ele>
        <time>2022-03-08T07:49:42.727Z</time>
      </trkpt>
      <trkpt lat="42.51191" lon="24.11728">
        <ele>632.478734</ele>
        <time>2022-03-08T07:49:43.705Z</time>
      </trkpt>
      <trkpt lat="42.51193" lon="24.11716">
        <ele>631.81158</ele>
        <time>2022-03-08T07:49:44.705Z</time>
      </trkpt>
      <trkpt lat="42.51196" lon="24.11703">
        <ele>631.124131</ele>
        <time>2022-03-08T07:49:45.710Z</time>
      </trkpt>
      <trkpt lat="42.51198" lon="24.1169">
        <ele>630.41278</ele>
        <time>2022-03-08T07:49:46.704Z</time>
      </trkpt>
      <trkpt lat="42.51201" lon="24.11677">
        <ele>629.703246</ele>
        <time>2022-03-08T07:49:47.708Z</time>
      </trkpt>
      <trkpt lat="42.51203" lon="24.11664">
        <ele>628.984355</ele>
        <time>2022-03-08T07:49:48.744Z</time>
      </trkpt>
      <trkpt lat="42.51206" lon="24.11652">
        <ele>628.189816</ele>
        <time>2022-03-08T07:49:49.700Z</time>
      </trkpt>
      <trkpt lat="42.51208" lon="24.11639">
        <ele>627.399061</ele>
        <time>2022-03-08T07:49:50.755Z</time>
      </trkpt>
      <trkpt lat="42.5121" lon="24.11626">
        <ele>626.578315</ele>
        <time>2022-03-08T07:49:51.721Z</time>
      </trkpt>
      <trkpt lat="42.51212" lon="24.11614">
        <ele>625.749487</ele>
        <time>2022-03-08T07:49:52.699Z</time>
      </trkpt>
      <trkpt lat="42.51215" lon="24.11601">
        <ele>624.916362</ele>
        <time>2022-03-08T07:49:53.703Z</time>
      </trkpt>
      <trkpt lat="42.51217" lon="24.11588">
        <ele>624.107248</ele>
        <time>2022-03-08T07:49:54.699Z</time>
      </trkpt>
      <trkpt lat="42.5122" lon="24.11576">
        <ele>623.328065</ele>
        <time>2022-03-08T07:49:55.711Z</time>
      </trkpt>
      <trkpt lat="42.51222" lon="24.11564">
        <ele>622.5715</ele>
        <time>2022-03-08T07:49:56.697Z</time>
      </trkpt>
      <trkpt lat="42.51225" lon="24.11553">
        <ele>621.808932</ele>
        <time>2022-03-08T07:49:57.726Z</time>
      </trkpt>
      <trkpt lat="42.51229" lon="24.11529">
        <ele>620.31058</ele>
        <time>2022-03-08T07:49:59.752Z</time>
      </trkpt>
      <trkpt lat="42.51233" lon="24.11507">
        <ele>618.907039</ele>
        <time>2022-03-08T07:50:01.685Z</time>
      </trkpt>
      <trkpt lat="42.51237" lon="24.11487">
        <ele>617.582084</ele>
        <time>2022-03-08T07:50:03.795Z</time>
      </trkpt>
      <trkpt lat="42.5124" lon="24.11468">
        <ele>616.364074</ele>
        <time>2022-03-08T07:50:05.704Z</time>
      </trkpt>
      <trkpt lat="42.51243" lon="24.11451">
        <ele>615.262905</ele>
        <time>2022-03-08T07:50:07.702Z</time>
      </trkpt>
      <trkpt lat="42.51247" lon="24.11434">
        <ele>614.213596</ele>
        <time>2022-03-08T07:50:09.716Z</time>
      </trkpt>
      <trkpt lat="42.5125" lon="24.1142">
        <ele>613.753246</ele>
        <time>2022-03-08T07:50:11.701Z</time>
      </trkpt>
      <trkpt lat="42.51252" lon="24.11407">
        <ele>613.497744</ele>
        <time>2022-03-08T07:50:13.695Z</time>
      </trkpt>
      <trkpt lat="42.51254" lon="24.11395">
        <ele>613.253355</ele>
        <time>2022-03-08T07:50:15.702Z</time>
      </trkpt>
      <trkpt lat="42.51256" lon="24.11378">
        <ele>612.910723</ele>
        <time>2022-03-08T07:50:18.706Z</time>
      </trkpt>
      <trkpt lat="42.51257" lon="24.11364">
        <ele>612.634329</ele>
        <time>2022-03-08T07:50:21.736Z</time>
      </trkpt>
      <trkpt lat="42.51257" lon="24.11348">
        <ele>612.319385</ele>
        <time>2022-03-08T07:50:24.694Z</time>
      </trkpt>
      <trkpt lat="42.51257" lon="24.11331">
        <ele>611.990673</ele>
        <time>2022-03-08T07:50:27.699Z</time>
      </trkpt>
      <trkpt lat="42.51257" lon="24.11315">
        <ele>611.67574</ele>
        <time>2022-03-08T07:50:30.709Z</time>
      </trkpt>
      <trkpt lat="42.51257" lon="24.11299">
        <ele>611.354802</ele>
        <time>2022-03-08T07:50:33.699Z</time>
      </trkpt>
      <trkpt lat="42.51257" lon="24.11282">
        <ele>611.022154</ele>
        <time>2022-03-08T07:50:36.698Z</time>
      </trkpt>
      <trkpt lat="42.51258" lon="24.11265">
        <ele>610.682927</ele>
        <time>2022-03-08T07:50:39.697Z</time>
      </trkpt>
      <trkpt lat="42.51257" lon="24.11248">
        <ele>610.357265</ele>
        <time>2022-03-08T07:50:42.700Z</time>
      </trkpt>
      <trkpt lat="42.51256" lon="24.11231">
        <ele>610.020259</ele>
        <time>2022-03-08T07:50:45.746Z</time>
      </trkpt>
      <trkpt lat="42.51253" lon="24.11219">
        <ele>609.768578</ele>
        <time>2022-03-08T07:50:47.720Z</time>
      </trkpt>
      <trkpt lat="42.5125" lon="24.11202">
        <ele>609.425117</ele>
        <time>2022-03-08T07:50:50.704Z</time>
      </trkpt>
      <trkpt lat="42.51249" lon="24.11185">
        <ele>609.2758</ele>
        <time>2022-03-08T07:50:53.696Z</time>
      </trkpt>
      <trkpt lat="42.51249" lon="24.11169">
        <ele>609.668715</ele>
        <time>2022-03-08T07:50:56.736Z</time>
      </trkpt>
      <trkpt lat="42.51248" lon="24.11151">
        <ele>610.093525</ele>
        <time>2022-03-08T07:50:59.707Z</time>
      </trkpt>
      <trkpt lat="42.51247" lon="24.11134">
        <ele>610.517008</ele>
        <time>2022-03-08T07:51:02.691Z</time>
      </trkpt>
      <trkpt lat="42.51245" lon="24.11116">
        <ele>610.950521</ele>
        <time>2022-03-08T07:51:05.689Z</time>
      </trkpt>
      <trkpt lat="42.51244" lon="24.11104">
        <ele>611.254339</ele>
        <time>2022-03-08T07:51:07.731Z</time>
      </trkpt>
      <trkpt lat="42.51242" lon="24.11091">
        <ele>611.577341</ele>
        <time>2022-03-08T07:51:09.699Z</time>
      </trkpt>
      <trkpt lat="42.51238" lon="24.11077">
        <ele>611.931364</ele>
        <time>2022-03-08T07:51:11.679Z</time>
      </trkpt>
      <trkpt lat="42.51234" lon="24.11062">
        <ele>612.310177</ele>
        <time>2022-03-08T07:51:13.694Z</time>
      </trkpt>
      <trkpt lat="42.51228" lon="24.11047">
        <ele>612.718426</ele>
        <time>2022-03-08T07:51:15.684Z</time>
      </trkpt>
      <trkpt lat="42.5122" lon="24.11034">
        <ele>613.133868</ele>
        <time>2022-03-08T07:51:17.709Z</time>
      </trkpt>
      <trkpt lat="42.51211" lon="24.11022">
        <ele>613.553399</ele>
        <time>2022-03-08T07:51:19.699Z</time>
      </trkpt>
      <trkpt lat="42.51201" lon="24.11011">
        <ele>613.979928</ele>
        <time>2022-03-08T07:51:21.701Z</time>
      </trkpt>
      <trkpt lat="42.51189" lon="24.11001">
        <ele>614.425261</ele>
        <time>2022-03-08T07:51:23.702Z</time>
      </trkpt>
      <trkpt lat="42.51178" lon="24.10991">
        <ele>614.879998</ele>
        <time>2022-03-08T07:51:25.712Z</time>
      </trkpt>
      <trkpt lat="42.51166" lon="24.10981">
        <ele>615.119061</ele>
        <time>2022-03-08T07:51:27.699Z</time>
      </trkpt>
      <trkpt lat="42.51156" lon="24.10972">
        <ele>615.213014</ele>
        <time>2022-03-08T07:51:29.743Z</time>
      </trkpt>
      <trkpt lat="42.51146" lon="24.10963">
        <ele>615.303803</ele>
        <time>2022-03-08T07:51:31.705Z</time>
      </trkpt>
      <trkpt lat="42.51136" lon="24.10955">
        <ele>615.393412</ele>
        <time>2022-03-08T07:51:33.697Z</time>
      </trkpt>
      <trkpt lat="42.51125" lon="24.10945">
        <ele>615.491089</ele>
        <time>2022-03-08T07:51:35.701Z</time>
      </trkpt>
      <trkpt lat="42.51114" lon="24.10935">
        <ele>615.590315</ele>
        <time>2022-03-08T07:51:37.702Z</time>
      </trkpt>
      <trkpt lat="42.51103" lon="24.10925">
        <ele>615.690798</ele>
        <time>2022-03-08T07:51:39.722Z</time>
      </trkpt>
      <trkpt lat="42.51092" lon="24.10916">
        <ele>615.791935</ele>
        <time>2022-03-08T07:51:41.699Z</time>
      </trkpt>
      <trkpt lat="42.51081" lon="24.10905">
        <ele>615.894301</ele>
        <time>2022-03-08T07:51:43.703Z</time>
      </trkpt>
      <trkpt lat="42.51069" lon="24.10895">
        <ele>616.002008</ele>
        <time>2022-03-08T07:51:45.694Z</time>
      </trkpt>
      <trkpt lat="42.51057" lon="24.10884">
        <ele>616.109428</ele>
        <time>2022-03-08T07:51:47.702Z</time>
      </trkpt>
      <trkpt lat="42.51045" lon="24.10873">
        <ele>616.220954</ele>
        <time>2022-03-08T07:51:49.710Z</time>
      </trkpt>
      <trkpt lat="42.51033" lon="24.10861">
        <ele>616.335923</ele>
        <time>2022-03-08T07:51:51.740Z</time>
      </trkpt>
      <trkpt lat="42.5102" lon="24.10848">
        <ele>616.155039</ele>
        <time>2022-03-08T07:51:53.700Z</time>
      </trkpt>
      <trkpt lat="42.51006" lon="24.10834">
        <ele>615.096065</ele>
        <time>2022-03-08T07:51:55.709Z</time>
      </trkpt>
      <trkpt lat="42.50993" lon="24.10819">
        <ele>613.988306</ele>
        <time>2022-03-08T07:51:57.693Z</time>
      </trkpt>
      <trkpt lat="42.50982" lon="24.10801">
        <ele>612.89903</ele>
        <time>2022-03-08T07:51:59.703Z</time>
      </trkpt>
      <trkpt lat="42.50974" lon="24.10782">
        <ele>611.885757</ele>
        <time>2022-03-08T07:52:01.757Z</time>
      </trkpt>
      <trkpt lat="42.50972" lon="24.10761">
        <ele>610.88785</ele>
        <time>2022-03-08T07:52:03.697Z</time>
      </trkpt>
      <trkpt lat="42.50976" lon="24.1074">
        <ele>609.878008</ele>
        <time>2022-03-08T07:52:05.701Z</time>
      </trkpt>
      <trkpt lat="42.50982" lon="24.10719">
        <ele>608.831332</ele>
        <time>2022-03-08T07:52:07.717Z</time>
      </trkpt>
      <trkpt lat="42.5099" lon="24.10701">
        <ele>607.844246</ele>
        <time>2022-03-08T07:52:09.703Z</time>
      </trkpt>
      <trkpt lat="42.50997" lon="24.10686">
        <ele>607.023746</ele>
        <time>2022-03-08T07:52:11.717Z</time>
      </trkpt>
      <trkpt lat="42.51005" lon="24.10675">
        <ele>606.313327</ele>
        <time>2022-03-08T07:52:13.698Z</time>
      </trkpt>
      <trkpt lat="42.51014" lon="24.10664">
        <ele>605.545407</ele>
        <time>2022-03-08T07:52:15.720Z</time>
      </trkpt>
      <trkpt lat="42.51022" lon="24.10651">
        <ele>605.023461</ele>
        <time>2022-03-08T07:52:17.699Z</time>
      </trkpt>
      <trkpt lat="42.51029" lon="24.10639">
        <ele>604.910144</ele>
        <time>2022-03-08T07:52:19.704Z</time>
      </trkpt>
      <trkpt lat="42.51036" lon="24.10628">
        <ele>604.800772</ele>
        <time>2022-03-08T07:52:21.704Z</time>
      </trkpt>
      <trkpt lat="42.51043" lon="24.10617">
        <ele>604.699835</ele>
        <time>2022-03-08T07:52:23.693Z</time>
      </trkpt>
      <trkpt lat="42.5105" lon="24.10608">
        <ele>604.605107</ele>
        <time>2022-03-08T07:52:25.691Z</time>
      </trkpt>
      <trkpt lat="42.51056" lon="24.10597">
        <ele>604.508278</ele>
        <time>2022-03-08T07:52:27.710Z</time>
      </trkpt>
      <trkpt lat="42.51062" lon="24.10586">
        <ele>604.409703</ele>
        <time>2022-03-08T07:52:29.737Z</time>
      </trkpt>
      <trkpt lat="42.51068" lon="24.10577">
        <ele>604.318082</ele>
        <time>2022-03-08T07:52:31.709Z</time>
      </trkpt>
      <trkpt lat="42.51076" lon="24.10564">
        <ele>604.194795</ele>
        <time>2022-03-08T07:52:34.716Z</time>
      </trkpt>
      <trkpt lat="42.51084" lon="24.10552">
        <ele>604.081947</ele>
        <time>2022-03-08T07:52:37.685Z</time>
      </trkpt>
      <trkpt lat="42.51092" lon="24.10541">
        <ele>603.968305</ele>
        <time>2022-03-08T07:52:40.720Z</time>
      </trkpt>
      <trkpt lat="42.51099" lon="24.10533">
        <ele>603.876239</ele>
        <time>2022-03-08T07:52:43.718Z</time>
      </trkpt>
      <trkpt lat="42.51106" lon="24.10524">
        <ele>603.785387</ele>
        <time>2022-03-08T07:52:46.738Z</time>
      </trkpt>
      <trkpt lat="42.51113" lon="24.10514">
        <ele>603.685779</ele>
        <time>2022-03-08T07:52:49.712Z</time>
      </trkpt>
      <trkpt lat="42.5112" lon="24.10504">
        <ele>603.584463</ele>
        <time>2022-03-08T07:52:52.703Z</time>
      </trkpt>
      <trkpt lat="42.51129" lon="24.10492">
        <ele>603.462888</ele>
        <time>2022-03-08T07:52:55.710Z</time>
      </trkpt>
      <trkpt lat="42.51138" lon="24.10481">
        <ele>603.340911</ele>
        <time>2022-03-08T07:52:58.692Z</time>
      </trkpt>
      <trkpt lat="42.51147" lon="24.10469">
        <ele>604.023329</ele>
        <time>2022-03-08T07:53:01.720Z</time>
      </trkpt>
      <trkpt lat="42.51154" lon="24.10459">
        <ele>604.978798</ele>
        <time>2022-03-08T07:53:04.711Z</time>
      </trkpt>
      <trkpt lat="42.51161" lon="24.10449">
        <ele>605.834107</ele>
        <time>2022-03-08T07:53:07.700Z</time>
      </trkpt>
      <trkpt lat="42.51166" lon="24.10439">
        <ele>606.670197</ele>
        <time>2022-03-08T07:53:10.706Z</time>
      </trkpt>
      <trkpt lat="42.51173" lon="24.10425">
        <ele>607.730683</ele>
        <time>2022-03-08T07:53:14.713Z</time>
      </trkpt>
      <trkpt lat="42.5118" lon="24.10412">
        <ele>608.73415</ele>
        <time>2022-03-08T07:53:18.696Z</time>
      </trkpt>
      <trkpt lat="42.51187" lon="24.104">
        <ele>609.752835</ele>
        <time>2022-03-08T07:53:22.700Z</time>
      </trkpt>
      <trkpt lat="42.51192" lon="24.10389">
        <ele>610.647042</ele>
        <time>2022-03-08T07:53:26.709Z</time>
      </trkpt>
      <trkpt lat="42.51198" lon="24.10379">
        <ele>611.44616</ele>
        <time>2022-03-08T07:53:30.740Z</time>
      </trkpt>
      <trkpt lat="42.51203" lon="24.10368">
        <ele>612.277654</ele>
        <time>2022-03-08T07:53:35.705Z</time>
      </trkpt>
      <trkpt lat="42.51209" lon="24.10358">
        <ele>613.097781</ele>
        <time>2022-03-08T07:53:40.712Z</time>
      </trkpt>
      <trkpt lat="42.51214" lon="24.10346">
        <ele>614.00772</ele>
        <time>2022-03-08T07:53:46.707Z</time>
      </trkpt>
      <trkpt lat="42.51218" lon="24.10335">
        <ele>614.835289</ele>
        <time>2022-03-08T07:53:52.707Z</time>
      </trkpt>
      <trkpt lat="42.51224" lon="24.10324">
        <ele>615.650247</ele>
        <time>2022-03-08T07:53:58.734Z</time>
      </trkpt>
      <trkpt lat="42.51229" lon="24.10313">
        <ele>616.517973</ele>
        <time>2022-03-08T07:54:05.697Z</time>
      </trkpt>
      <trkpt lat="42.51236" lon="24.10302">
        <ele>617.442794</ele>
        <time>2022-03-08T07:54:12.723Z</time>
      </trkpt>
      <trkpt lat="42.51241" lon="24.10292">
        <ele>618.25228</ele>
        <time>2022-03-08T07:54:18.724Z</time>
      </trkpt>
      <trkpt lat="42.51245" lon="24.10281">
        <ele>619.044498</ele>
        <time>2022-03-08T07:54:24.714Z</time>
      </trkpt>
      <trkpt lat="42.51251" lon="24.10271">
        <ele>619.909725</ele>
        <time>2022-03-08T07:54:30.698Z</time>
      </trkpt>
      <trkpt lat="42.51256" lon="24.10259">
        <ele>620.811871</ele>
        <time>2022-03-08T07:54:37.705Z</time>
      </trkpt>
      <trkpt lat="42.51261" lon="24.10248">
        <ele>621.699394</ele>
        <time>2022-03-08T07:54:44.695Z</time>
      </trkpt>
      <trkpt lat="42.51266" lon="24.10237">
        <ele>622.589806</ele>
        <time>2022-03-08T07:54:52.711Z</time>
      </trkpt>
      <trkpt lat="42.5127" lon="24.10225">
        <ele>623.496401</ele>
        <time>2022-03-08T07:54:58.725Z</time>
      </trkpt>
      <trkpt lat="42.51275" lon="24.10213">
        <ele>624.447311</ele>
        <time>2022-03-08T07:55:05.708Z</time>
      </trkpt>
      <trkpt lat="42.51279" lon="24.10202">
        <ele>625.274275</ele>
        <time>2022-03-08T07:55:11.699Z</time>
      </trkpt>
      <trkpt lat="42.51284" lon="24.1019">
        <ele>626.174168</ele>
        <time>2022-03-08T07:55:18.706Z</time>
      </trkpt>
      <trkpt lat="42.51289" lon="24.10179">
        <ele>627.111711</ele>
        <time>2022-03-08T07:55:26.725Z</time>
      </trkpt>
      <trkpt lat="42.51294" lon="24.10167">
        <ele>628.036107</ele>
        <time>2022-03-08T07:55:33.709Z</time>
      </trkpt>
      <trkpt lat="42.51299" lon="24.10156">
        <ele>628.909014</ele>
        <time>2022-03-08T07:55:40.714Z</time>
      </trkpt>
      <trkpt lat="42.51305" lon="24.10145">
        <ele>629.778555</ele>
        <time>2022-03-08T07:55:48.701Z</time>
      </trkpt>
      <trkpt lat="42.5131" lon="24.10134">
        <ele>630.664325</ele>
        <time>2022-03-08T07:55:56.706Z</time>
      </trkpt>
      <trkpt lat="42.51314" lon="24.10122">
        <ele>631.56929</ele>
        <time>2022-03-08T07:56:04.700Z</time>
      </trkpt>
      <trkpt lat="42.51318" lon="24.1011">
        <ele>632.513521</ele>
        <time>2022-03-08T07:56:12.702Z</time>
      </trkpt>
      <trkpt lat="42.5132" lon="24.10096">
        <ele>633.439426</ele>
        <time>2022-03-08T07:56:19.709Z</time>
      </trkpt>
      <trkpt lat="42.51322" lon="24.10084">
        <ele>634.283689</ele>
        <time>2022-03-08T07:56:26.708Z</time>
      </trkpt>
      <trkpt lat="42.51325" lon="24.10072">
        <ele>635.138546</ele>
        <time>2022-03-08T07:56:33.699Z</time>
      </trkpt>
      <trkpt lat="42.51328" lon="24.10061">
        <ele>635.837376</ele>
        <time>2022-03-08T07:56:40.732Z</time>
      </trkpt>
      <trkpt lat="42.51331" lon="24.10048">
        <ele>636.293255</ele>
        <time>2022-03-08T07:56:48.702Z</time>
      </trkpt>
      <trkpt lat="42.51334" lon="24.10036">
        <ele>636.708499</ele>
        <time>2022-03-08T07:56:55.703Z</time>
      </trkpt>
      <trkpt lat="42.51337" lon="24.10024">
        <ele>637.160284</ele>
        <time>2022-03-08T07:57:03.741Z</time>
      </trkpt>
      <trkpt lat="42.51341" lon="24.10012">
        <ele>637.580718</ele>
        <time>2022-03-08T07:57:11.692Z</time>
      </trkpt>
      <trkpt lat="42.51344" lon="24.1">
        <ele>638.010281</ele>
        <time>2022-03-08T07:57:19.714Z</time>
      </trkpt>
      <trkpt lat="42.51347" lon="24.09989">
        <ele>638.430714</ele>
        <time>2022-03-08T07:57:27.704Z</time>
      </trkpt>
      <trkpt lat="42.51351" lon="24.09976">
        <ele>638.896414</ele>
        <time>2022-03-08T07:57:35.704Z</time>
      </trkpt>
      <trkpt lat="42.51356" lon="24.09964">
        <ele>639.360761</ele>
        <time>2022-03-08T07:57:44.694Z</time>
      </trkpt>
      <trkpt lat="42.51362" lon="24.09954">
        <ele>639.813828</ele>
        <time>2022-03-08T07:57:52.737Z</time>
      </trkpt>
      <trkpt lat="42.51368" lon="24.09943">
        <ele>640.242309</ele>
        <time>2022-03-08T07:58:01.699Z</time>
      </trkpt>
      <trkpt lat="42.51373" lon="24.09933">
        <ele>640.673529</ele>
        <time>2022-03-08T07:58:08.728Z</time>
      </trkpt>
      <trkpt lat="42.51378" lon="24.09923">
        <ele>641.098695</ele>
        <time>2022-03-08T07:58:17.703Z</time>
      </trkpt>
      <trkpt lat="42.51384" lon="24.09912">
        <ele>641.540797</ele>
        <time>2022-03-08T07:58:26.712Z</time>
      </trkpt>
      <trkpt lat="42.51389" lon="24.09901">
        <ele>641.980236</ele>
        <time>2022-03-08T07:58:36.765Z</time>
      </trkpt>
      <trkpt lat="42.51396" lon="24.09891">
        <ele>642.437799</ele>
        <time>2022-03-08T07:58:45.704Z</time>
      </trkpt>
      <trkpt lat="42.51401" lon="24.09881">
        <ele>642.866625</ele>
        <time>2022-03-08T07:58:53.703Z</time>
      </trkpt>
      <trkpt lat="42.51406" lon="24.0987">
        <ele>643.29545</ele>
        <time>2022-03-08T07:59:02.711Z</time>
      </trkpt>
      <trkpt lat="42.51411" lon="24.0986">
        <ele>643.716083</ele>
        <time>2022-03-08T07:59:11.711Z</time>
      </trkpt>
      <trkpt lat="42.51417" lon="24.09849">
        <ele>644.394881</ele>
        <time>2022-03-08T07:59:21.695Z</time>
      </trkpt>
      <trkpt lat="42.51422" lon="24.09839">
        <ele>645.280581</ele>
        <time>2022-03-08T07:59:29.710Z</time>
      </trkpt>
      <trkpt lat="42.51428" lon="24.09829">
        <ele>646.205429</ele>
        <time>2022-03-08T07:59:37.704Z</time>
      </trkpt>
      <trkpt lat="42.51433" lon="24.09819">
        <ele>647.115496</ele>
        <time>2022-03-08T07:59:47.704Z</time>
      </trkpt>
      <trkpt lat="42.51439" lon="24.09809">
        <ele>648.018649</ele>
        <time>2022-03-08T07:59:56.684Z</time>
      </trkpt>
      <trkpt lat="42.51446" lon="24.09799">
        <ele>649.00479</ele>
        <time>2022-03-08T08:00:04.717Z</time>
      </trkpt>
      <trkpt lat="42.51451" lon="24.09789">
        <ele>649.914855</ele>
        <time>2022-03-08T08:00:13.711Z</time>
      </trkpt>
      <trkpt lat="42.51456" lon="24.09779">
        <ele>650.80743</ele>
        <time>2022-03-08T08:00:22.762Z</time>
      </trkpt>
      <trkpt lat="42.51461" lon="24.09768">
        <ele>651.705443</ele>
        <time>2022-03-08T08:00:30.698Z</time>
      </trkpt>
      <trkpt lat="42.51467" lon="24.09758">
        <ele>652.596881</ele>
        <time>2022-03-08T08:00:38.705Z</time>
      </trkpt>
      <trkpt lat="42.51473" lon="24.09749">
        <ele>653.497845</ele>
        <time>2022-03-08T08:00:47.692Z</time>
      </trkpt>
      <trkpt lat="42.51479" lon="24.09739">
        <ele>654.460948</ele>
        <time>2022-03-08T08:00:56.691Z</time>
      </trkpt>
      <trkpt lat="42.51485" lon="24.09729">
        <ele>655.369822</ele>
        <time>2022-03-08T08:01:05.695Z</time>
      </trkpt>
      <trkpt lat="42.5149" lon="24.09717">
        <ele>656.356325</ele>
        <time>2022-03-08T08:01:15.705Z</time>
      </trkpt>
      <trkpt lat="42.51494" lon="24.09705">
        <ele>657.311425</ele>
        <time>2022-03-08T08:01:23.711Z</time>
      </trkpt>
      <trkpt lat="42.51498" lon="24.09694">
        <ele>658.194745</ele>
        <time>2022-03-08T08:01:32.696Z</time>
      </trkpt>
      <trkpt lat="42.51501" lon="24.09682">
        <ele>659.135262</ele>
        <time>2022-03-08T08:01:40.716Z</time>
      </trkpt>
      <trkpt lat="42.51505" lon="24.09669">
        <ele>660.131252</ele>
        <time>2022-03-08T08:01:48.715Z</time>
      </trkpt>
      <trkpt lat="42.51509" lon="24.09657">
        <ele>661.101634</ele>
        <time>2022-03-08T08:01:56.716Z</time>
      </trkpt>
      <trkpt lat="42.51514" lon="24.09645">
        <ele>662.060089</ele>
        <time>2022-03-08T08:02:04.726Z</time>
      </trkpt>
      <trkpt lat="42.51516" lon="24.09633">
        <ele>662.981569</ele>
        <time>2022-03-08T08:02:12.705Z</time>
      </trkpt>
      <trkpt lat="42.5152" lon="24.09622">
        <ele>663.932339</ele>
        <time>2022-03-08T08:02:20.744Z</time>
      </trkpt>
      <trkpt lat="42.51524" lon="24.0961">
        <ele>664.932429</ele>
        <time>2022-03-08T08:02:28.698Z</time>
      </trkpt>
      <trkpt lat="42.51528" lon="24.09599">
        <ele>665.871801</ele>
        <time>2022-03-08T08:02:35.706Z</time>
      </trkpt>
      <trkpt lat="42.51533" lon="24.09587">
        <ele>666.868174</ele>
        <time>2022-03-08T08:02:43.712Z</time>
      </trkpt>
      <trkpt lat="42.51537" lon="24.09576">
        <ele>667.820664</ele>
        <time>2022-03-08T08:02:51.703Z</time>
      </trkpt>
      <trkpt lat="42.51541" lon="24.09564">
        <ele>668.827599</ele>
        <time>2022-03-08T08:03:00.703Z</time>
      </trkpt>
      <trkpt lat="42.51544" lon="24.09551">
        <ele>669.836224</ele>
        <time>2022-03-08T08:03:09.690Z</time>
      </trkpt>
      <trkpt lat="42.51547" lon="24.09538">
        <ele>670.853524</ele>
        <time>2022-03-08T08:03:17.706Z</time>
      </trkpt>
      <trkpt lat="42.5155" lon="24.09525">
        <ele>671.876894</ele>
        <time>2022-03-08T08:03:25.709Z</time>
      </trkpt>
      <trkpt lat="42.51551" lon="24.09511">
        <ele>672.881768</ele>
        <time>2022-03-08T08:03:34.737Z</time>
      </trkpt>
      <trkpt lat="42.51553" lon="24.09498">
        <ele>673.894574</ele>
        <time>2022-03-08T08:03:43.749Z</time>
      </trkpt>
      <trkpt lat="42.51553" lon="24.09486">
        <ele>674.816725</ele>
        <time>2022-03-08T08:03:52.707Z</time>
      </trkpt>
      <trkpt lat="42.51554" lon="24.09473">
        <ele>675.746857</ele>
        <time>2022-03-08T08:04:00.699Z</time>
      </trkpt>
      <trkpt lat="42.51554" lon="24.0946">
        <ele>676.750963</ele>
        <time>2022-03-08T08:04:08.702Z</time>
      </trkpt>
      <trkpt lat="42.51552" lon="24.09447">
        <ele>677.729105</ele>
        <time>2022-03-08T08:04:17.710Z</time>
      </trkpt>
      <trkpt lat="42.51552" lon="24.09435">
        <ele>678.639019</ele>
        <time>2022-03-08T08:04:25.696Z</time>
      </trkpt>
      <trkpt lat="42.51552" lon="24.09422">
        <ele>679.613179</ele>
        <time>2022-03-08T08:04:34.708Z</time>
      </trkpt>
      <trkpt lat="42.51551" lon="24.09409">
        <ele>680.329201</ele>
        <time>2022-03-08T08:04:42.699Z</time>
      </trkpt>
      <trkpt lat="42.5155" lon="24.09397">
        <ele>680.931576</ele>
        <time>2022-03-08T08:04:50.746Z</time>
      </trkpt>
      <trkpt lat="42.51549" lon="24.09383">
        <ele>681.577637</ele>
        <time>2022-03-08T08:04:59.692Z</time>
      </trkpt>
      <trkpt lat="42.51547" lon="24.09372">
        <ele>682.169232</ele>
        <time>2022-03-08T08:05:07.702Z</time>
      </trkpt>
      <trkpt lat="42.51547" lon="24.09358">
        <ele>682.813647</ele>
        <time>2022-03-08T08:05:15.689Z</time>
      </trkpt>
      <trkpt lat="42.51547" lon="24.09345">
        <ele>683.458325</ele>
        <time>2022-03-08T08:05:24.773Z</time>
      </trkpt>
      <trkpt lat="42.51546" lon="24.09331">
        <ele>684.107445</ele>
        <time>2022-03-08T08:05:33.700Z</time>
      </trkpt>
      <trkpt lat="42.51544" lon="24.09319">
        <ele>684.722282</ele>
        <time>2022-03-08T08:05:40.698Z</time>
      </trkpt>
      <trkpt lat="42.51544" lon="24.09306">
        <ele>685.31409</ele>
        <time>2022-03-08T08:05:47.697Z</time>
      </trkpt>
      <trkpt lat="42.51543" lon="24.09294">
        <ele>685.938565</ele>
        <time>2022-03-08T08:05:55.690Z</time>
      </trkpt>
      <trkpt lat="42.51542" lon="24.0928">
        <ele>686.577373</ele>
        <time>2022-03-08T08:06:04.694Z</time>
      </trkpt>
      <trkpt lat="42.51541" lon="24.09267">
        <ele>687.241119</ele>
        <time>2022-03-08T08:06:12.706Z</time>
      </trkpt>
      <trkpt lat="42.51541" lon="24.09253">
        <ele>687.897198</ele>
        <time>2022-03-08T08:06:21.709Z</time>
      </trkpt>
      <trkpt lat="42.5154" lon="24.0924">
        <ele>688.507344</ele>
        <time>2022-03-08T08:06:28.703Z</time>
      </trkpt>
      <trkpt lat="42.51539" lon="24.09228">
        <ele>689.123012</ele>
        <time>2022-03-08T08:06:35.699Z</time>
      </trkpt>
      <trkpt lat="42.51539" lon="24.09214">
        <ele>689.75781</ele>
        <time>2022-03-08T08:06:42.693Z</time>
      </trkpt>
      <trkpt lat="42.51539" lon="24.09201">
        <ele>690.403017</ele>
        <time>2022-03-08T08:06:49.711Z</time>
      </trkpt>
      <trkpt lat="42.51539" lon="24.09187">
        <ele>691.081093</ele>
        <time>2022-03-08T08:06:55.711Z</time>
      </trkpt>
      <trkpt lat="42.51539" lon="24.09173">
        <ele>691.647484</ele>
        <time>2022-03-08T08:07:01.712Z</time>
      </trkpt>
      <trkpt lat="42.5154" lon="24.09159">
        <ele>691.649015</ele>
        <time>2022-03-08T08:07:07.735Z</time>
      </trkpt>
      <trkpt lat="42.5154" lon="24.09145">
        <ele>691.650467</ele>
        <time>2022-03-08T08:07:13.687Z</time>
      </trkpt>
      <trkpt lat="42.5154" lon="24.09133">
        <ele>691.651822</ele>
        <time>2022-03-08T08:07:19.710Z</time>
      </trkpt>
      <trkpt lat="42.5154" lon="24.09119">
        <ele>691.653351</ele>
        <time>2022-03-08T08:07:25.702Z</time>
      </trkpt>
      <trkpt lat="42.51541" lon="24.09106">
        <ele>691.654741</ele>
        <time>2022-03-08T08:07:31.721Z</time>
      </trkpt>
      <trkpt lat="42.51542" lon="24.09093">
        <ele>691.656124</ele>
        <time>2022-03-08T08:07:37.768Z</time>
      </trkpt>
      <trkpt lat="42.51542" lon="24.09079">
        <ele>691.657674</ele>
        <time>2022-03-08T08:07:44.697Z</time>
      </trkpt>
      <trkpt lat="42.51543" lon="24.09066">
        <ele>691.659036</ele>
        <time>2022-03-08T08:07:50.718Z</time>
      </trkpt>
      <trkpt lat="42.51544" lon="24.09053">
        <ele>691.660522</ele>
        <time>2022-03-08T08:07:57.718Z</time>
      </trkpt>
      <trkpt lat="42.51546" lon="24.0904">
        <ele>691.661922</ele>
        <time>2022-03-08T08:08:04.697Z</time>
      </trkpt>
      <trkpt lat="42.51547" lon="24.09028">
        <ele>691.663248</ele>
        <time>2022-03-08T08:08:10.739Z</time>
      </trkpt>
      <trkpt lat="42.51547" lon="24.09016">
        <ele>691.664581</ele>
        <time>2022-03-08T08:08:17.711Z</time>
      </trkpt>
      <trkpt lat="42.51547" lon="24.09003">
        <ele>691.665993</ele>
        <time>2022-03-08T08:08:24.700Z</time>
      </trkpt>
      <trkpt lat="42.51549" lon="24.08989">
        <ele>691.667447</ele>
        <time>2022-03-08T08:08:30.753Z</time>
      </trkpt>
      <trkpt lat="42.51549" lon="24.08976">
        <ele>691.668846</ele>
        <time>2022-03-08T08:08:36.710Z</time>
      </trkpt>
      <trkpt lat="42.5155" lon="24.08962">
        <ele>691.670387</ele>
        <time>2022-03-08T08:08:42.738Z</time>
      </trkpt>
      <trkpt lat="42.51549" lon="24.08948">
        <ele>691.671894</ele>
        <time>2022-03-08T08:08:49.700Z</time>
      </trkpt>
      <trkpt lat="42.5155" lon="24.08936">
        <ele>691.673262</ele>
        <time>2022-03-08T08:08:56.708Z</time>
      </trkpt>
      <trkpt lat="42.5155" lon="24.08924">
        <ele>692.063321</ele>
        <time>2022-03-08T08:09:01.702Z</time>
      </trkpt>
      <trkpt lat="42.51552" lon="24.08911">
        <ele>692.645316</ele>
        <time>2022-03-08T08:09:07.738Z</time>
      </trkpt>
      <trkpt lat="42.51552" lon="24.08898">
        <ele>693.238704</ele>
        <time>2022-03-08T08:09:13.722Z</time>
      </trkpt>
      <trkpt lat="42.51554" lon="24.08884">
        <ele>693.890105</ele>
        <time>2022-03-08T08:09:20.714Z</time>
      </trkpt>
      <trkpt lat="42.51554" lon="24.08872">
        <ele>694.454162</ele>
        <time>2022-03-08T08:09:26.746Z</time>
      </trkpt>
      <trkpt lat="42.51555" lon="24.0886">
        <ele>695.03235</ele>
        <time>2022-03-08T08:09:32.716Z</time>
      </trkpt>
      <trkpt lat="42.51557" lon="24.08847">
        <ele>695.629701</ele>
        <time>2022-03-08T08:09:38.712Z</time>
      </trkpt>
      <trkpt lat="42.51556" lon="24.08833">
        <ele>696.268186</ele>
        <time>2022-03-08T08:09:45.712Z</time>
      </trkpt>
      <trkpt lat="42.51556" lon="24.08821">
        <ele>696.851241</ele>
        <time>2022-03-08T08:09:51.730Z</time>
      </trkpt>
      <trkpt lat="42.51557" lon="24.08807">
        <ele>697.48712</ele>
        <time>2022-03-08T08:09:58.726Z</time>
      </trkpt>
      <trkpt lat="42.51557" lon="24.08795">
        <ele>698.051177</ele>
        <time>2022-03-08T08:10:05.710Z</time>
      </trkpt>
      <trkpt lat="42.51557" lon="24.08782">
        <ele>698.638314</ele>
        <time>2022-03-08T08:10:12.711Z</time>
      </trkpt>
      <trkpt lat="42.51558" lon="24.08769">
        <ele>699.255777</ele>
        <time>2022-03-08T08:10:19.739Z</time>
      </trkpt>
      <trkpt lat="42.51558" lon="24.08756">
        <ele>699.856783</ele>
        <time>2022-03-08T08:10:26.702Z</time>
      </trkpt>
      <trkpt lat="42.51559" lon="24.08743">
        <ele>700.449374</ele>
        <time>2022-03-08T08:10:32.717Z</time>
      </trkpt>
      <trkpt lat="42.51559" lon="24.08731">
        <ele>701.018157</ele>
        <time>2022-03-08T08:10:38.764Z</time>
      </trkpt>
      <trkpt lat="42.51559" lon="24.08718">
        <ele>701.606131</ele>
        <time>2022-03-08T08:10:44.703Z</time>
      </trkpt>
      <trkpt lat="42.5156" lon="24.08705">
        <ele>702.198073</ele>
        <time>2022-03-08T08:10:50.703Z</time>
      </trkpt>
      <trkpt lat="42.51564" lon="24.08692">
        <ele>702.840318</ele>
        <time>2022-03-08T08:10:57.701Z</time>
      </trkpt>
      <trkpt lat="42.51568" lon="24.08681">
        <ele>703.511676</ele>
        <time>2022-03-08T08:11:04.731Z</time>
      </trkpt>
      <trkpt lat="42.51574" lon="24.08671">
        <ele>704.218645</ele>
        <time>2022-03-08T08:11:10.713Z</time>
      </trkpt>
      <trkpt lat="42.51578" lon="24.0866">
        <ele>704.889031</ele>
        <time>2022-03-08T08:11:16.730Z</time>
      </trkpt>
      <trkpt lat="42.51584" lon="24.0865">
        <ele>705.614011</ele>
        <time>2022-03-08T08:11:23.696Z</time>
      </trkpt>
      <trkpt lat="42.51591" lon="24.08641">
        <ele>706.302046</ele>
        <time>2022-03-08T08:11:30.705Z</time>
      </trkpt>
      <trkpt lat="42.51597" lon="24.08631">
        <ele>707.000973</ele>
        <time>2022-03-08T08:11:37.703Z</time>
      </trkpt>
      <trkpt lat="42.51604" lon="24.08622">
        <ele>707.717384</ele>
        <time>2022-03-08T08:11:44.712Z</time>
      </trkpt>
      <trkpt lat="42.51612" lon="24.08614">
        <ele>708.504834</ele>
        <time>2022-03-08T08:11:51.701Z</time>
      </trkpt>
      <trkpt lat="42.51621" lon="24.08606">
        <ele>709.263957</ele>
        <time>2022-03-08T08:11:58.711Z</time>
      </trkpt>
      <trkpt lat="42.51629" lon="24.086">
        <ele>709.997322</ele>
        <time>2022-03-08T08:12:05.716Z</time>
      </trkpt>
      <trkpt lat="42.51638" lon="24.08593">
        <ele>710.735782</ele>
        <time>2022-03-08T08:12:11.706Z</time>
      </trkpt>
      <trkpt lat="42.51647" lon="24.08587">
        <ele>711.495843</ele>
        <time>2022-03-08T08:12:18.690Z</time>
      </trkpt>
      <trkpt lat="42.51654" lon="24.08579">
        <ele>712.219546</ele>
        <time>2022-03-08T08:12:24.696Z</time>
      </trkpt>
      <trkpt lat="42.51661" lon="24.08569">
        <ele>712.962544</ele>
        <time>2022-03-08T08:12:31.704Z</time>
      </trkpt>
      <trkpt lat="42.51664" lon="24.08555">
        <ele>713.751363</ele>
        <time>2022-03-08T08:12:38.719Z</time>
      </trkpt>
      <trkpt lat="42.51667" lon="24.08544">
        <ele>714.430817</ele>
        <time>2022-03-08T08:12:44.736Z</time>
      </trkpt>
      <trkpt lat="42.51671" lon="24.08531">
        <ele>715.179267</ele>
        <time>2022-03-08T08:12:50.751Z</time>
      </trkpt>
      <trkpt lat="42.51673" lon="24.08519">
        <ele>715.878168</ele>
        <time>2022-03-08T08:12:56.720Z</time>
      </trkpt>
      <trkpt lat="42.51675" lon="24.08506">
        <ele>716.551109</ele>
        <time>2022-03-08T08:13:02.731Z</time>
      </trkpt>
      <trkpt lat="42.51678" lon="24.08495">
        <ele>717.077236</ele>
        <time>2022-03-08T08:13:08.726Z</time>
      </trkpt>
      <trkpt lat="42.51681" lon="24.08482">
        <ele>717.646611</ele>
        <time>2022-03-08T08:13:15.698Z</time>
      </trkpt>
      <trkpt lat="42.51683" lon="24.08468">
        <ele>718.253059</ele>
        <time>2022-03-08T08:13:22.755Z</time>
      </trkpt>
      <trkpt lat="42.51685" lon="24.08455">
        <ele>718.839468</ele>
        <time>2022-03-08T08:13:28.738Z</time>
      </trkpt>
      <trkpt lat="42.51686" lon="24.08442">
        <ele>719.395511</ele>
        <time>2022-03-08T08:13:33.702Z</time>
      </trkpt>
      <trkpt lat="42.51685" lon="24.08429">
        <ele>719.919659</ele>
        <time>2022-03-08T08:13:38.707Z</time>
      </trkpt>
      <trkpt lat="42.51684" lon="24.08415">
        <ele>720.556307</ele>
        <time>2022-03-08T08:13:43.709Z</time>
      </trkpt>
      <trkpt lat="42.51681" lon="24.08401">
        <ele>721.163947</ele>
        <time>2022-03-08T08:13:47.719Z</time>
      </trkpt>
      <trkpt lat="42.51677" lon="24.08387">
        <ele>721.822893</ele>
        <time>2022-03-08T08:13:51.696Z</time>
      </trkpt>
      <trkpt lat="42.51673" lon="24.08374">
        <ele>722.4359</ele>
        <time>2022-03-08T08:13:55.712Z</time>
      </trkpt>
      <trkpt lat="42.51667" lon="24.08361">
        <ele>723.07397</ele>
        <time>2022-03-08T08:13:59.718Z</time>
      </trkpt>
      <trkpt lat="42.51661" lon="24.08348">
        <ele>723.735445</ele>
        <time>2022-03-08T08:14:03.710Z</time>
      </trkpt>
      <trkpt lat="42.51654" lon="24.08338">
        <ele>724.355417</ele>
        <time>2022-03-08T08:14:07.715Z</time>
      </trkpt>
      <trkpt lat="42.51646" lon="24.08327">
        <ele>725.00826</ele>
        <time>2022-03-08T08:14:12.713Z</time>
      </trkpt>
      <trkpt lat="42.51638" lon="24.08318">
        <ele>725.619397</ele>
        <time>2022-03-08T08:14:17.719Z</time>
      </trkpt>
      <trkpt lat="42.51629" lon="24.08311">
        <ele>726.190932</ele>
        <time>2022-03-08T08:14:22.700Z</time>
      </trkpt>
      <trkpt lat="42.51622" lon="24.08302">
        <ele>726.74705</ele>
        <time>2022-03-08T08:14:27.713Z</time>
      </trkpt>
      <trkpt lat="42.51615" lon="24.08294">
        <ele>726.93054</ele>
        <time>2022-03-08T08:14:32.713Z</time>
      </trkpt>
      <trkpt lat="42.51608" lon="24.08285">
        <ele>726.96762</ele>
        <time>2022-03-08T08:14:37.710Z</time>
      </trkpt>
      <trkpt lat="42.51601" lon="24.08276">
        <ele>727.004309</ele>
        <time>2022-03-08T08:14:42.724Z</time>
      </trkpt>
      <trkpt lat="42.51594" lon="24.08266">
        <ele>727.043423</ele>
        <time>2022-03-08T08:14:47.764Z</time>
      </trkpt>
      <trkpt lat="42.51587" lon="24.08257">
        <ele>727.079428</ele>
        <time>2022-03-08T08:14:52.698Z</time>
      </trkpt>
      <trkpt lat="42.51581" lon="24.08247">
        <ele>727.1154</ele>
        <time>2022-03-08T08:14:57.744Z</time>
      </trkpt>
      <trkpt lat="42.51577" lon="24.08235">
        <ele>727.154075</ele>
        <time>2022-03-08T08:15:01.714Z</time>
      </trkpt>
      <trkpt lat="42.51574" lon="24.08221">
        <ele>727.193276</ele>
        <time>2022-03-08T08:15:04.701Z</time>
      </trkpt>
      <trkpt lat="42.51572" lon="24.08204">
        <ele>727.243321</ele>
        <time>2022-03-08T08:15:07.700Z</time>
      </trkpt>
      <trkpt lat="42.51571" lon="24.0819">
        <ele>727.281839</ele>
        <time>2022-03-08T08:15:09.740Z</time>
      </trkpt>
      <trkpt lat="42.51572" lon="24.08176">
        <ele>727.322323</ele>
        <time>2022-03-08T08:15:11.698Z</time>
      </trkpt>
      <trkpt lat="42.51572" lon="24.0816">
        <ele>727.367289</ele>
        <time>2022-03-08T08:15:13.712Z</time>
      </trkpt>
      <trkpt lat="42.51572" lon="24.08145">
        <ele>727.407757</ele>
        <time>2022-03-08T08:15:15.705Z</time>
      </trkpt>
      <trkpt lat="42.51572" lon="24.08133">
        <ele>727.443547</ele>
        <time>2022-03-08T08:15:17.733Z</time>
      </trkpt>
      <trkpt lat="42.51573" lon="24.08119">
        <ele>727.48038</ele>
        <time>2022-03-08T08:15:19.725Z</time>
      </trkpt>
      <trkpt lat="42.51572" lon="24.08105">
        <ele>727.520034</ele>
        <time>2022-03-08T08:15:21.696Z</time>
      </trkpt>
      <trkpt lat="42.51572" lon="24.08091">
        <ele>727.561361</ele>
        <time>2022-03-08T08:15:23.734Z</time>
      </trkpt>
      <trkpt lat="42.51572" lon="24.08076">
        <ele>727.46056</ele>
        <time>2022-03-08T08:15:25.700Z</time>
      </trkpt>
      <trkpt lat="42.5157" lon="24.08061">
        <ele>726.983283</ele>
        <time>2022-03-08T08:15:27.711Z</time>
      </trkpt>
      <trkpt lat="42.51569" lon="24.08044">
        <ele>726.474185</ele>
        <time>2022-03-08T08:15:29.714Z</time>
      </trkpt>
      <trkpt lat="42.51569" lon="24.08027">
        <ele>725.94785</ele>
        <time>2022-03-08T08:15:31.734Z</time>
      </trkpt>
      <trkpt lat="42.51569" lon="24.08009">
        <ele>725.393705</ele>
        <time>2022-03-08T08:15:33.715Z</time>
      </trkpt>
      <trkpt lat="42.51568" lon="24.07992">
        <ele>724.85373</ele>
        <time>2022-03-08T08:15:35.711Z</time>
      </trkpt>
      <trkpt lat="42.51568" lon="24.07974">
        <ele>724.299601</ele>
        <time>2022-03-08T08:15:37.706Z</time>
      </trkpt>
      <trkpt lat="42.51568" lon="24.07954">
        <ele>723.68975</ele>
        <time>2022-03-08T08:15:39.714Z</time>
      </trkpt>
      <trkpt lat="42.51568" lon="24.07935">
        <ele>723.076285</ele>
        <time>2022-03-08T08:15:41.729Z</time>
      </trkpt>
      <trkpt lat="42.51567" lon="24.07916">
        <ele>722.496644</ele>
        <time>2022-03-08T08:15:43.687Z</time>
      </trkpt>
      <trkpt lat="42.51566" lon="24.079">
        <ele>721.990633</ele>
        <time>2022-03-08T08:15:45.697Z</time>
      </trkpt>
      <trkpt lat="42.51565" lon="24.07885">
        <ele>721.529228</ele>
        <time>2022-03-08T08:15:47.711Z</time>
      </trkpt>
      <trkpt lat="42.51564" lon="24.07869">
        <ele>721.045643</ele>
        <time>2022-03-08T08:15:49.726Z</time>
      </trkpt>
      <trkpt lat="42.51563" lon="24.07854">
        <ele>720.573582</ele>
        <time>2022-03-08T08:15:51.715Z</time>
      </trkpt>
      <trkpt lat="42.51562" lon="24.0784">
        <ele>720.128909</ele>
        <time>2022-03-08T08:15:53.755Z</time>
      </trkpt>
      <trkpt lat="42.51562" lon="24.07824">
        <ele>719.317755</ele>
        <time>2022-03-08T08:15:55.831Z</time>
      </trkpt>
      <trkpt lat="42.51562" lon="24.07807">
        <ele>718.372643</ele>
        <time>2022-03-08T08:15:57.719Z</time>
      </trkpt>
      <trkpt lat="42.51561" lon="24.07789">
        <ele>717.354749</ele>
        <time>2022-03-08T08:15:59.736Z</time>
      </trkpt>
      <trkpt lat="42.5156" lon="24.0777">
        <ele>716.290039</ele>
        <time>2022-03-08T08:16:01.705Z</time>
      </trkpt>
      <trkpt lat="42.5156" lon="24.07749">
        <ele>715.142032</ele>
        <time>2022-03-08T08:16:03.706Z</time>
      </trkpt>
      <trkpt lat="42.51561" lon="24.07728">
        <ele>713.941243</ele>
        <time>2022-03-08T08:16:05.702Z</time>
      </trkpt>
      <trkpt lat="42.51565" lon="24.07707">
        <ele>712.740985</ele>
        <time>2022-03-08T08:16:07.714Z</time>
      </trkpt>
      <trkpt lat="42.5157" lon="24.07687">
        <ele>711.55222</ele>
        <time>2022-03-08T08:16:09.733Z</time>
      </trkpt>
      <trkpt lat="42.51576" lon="24.07668">
        <ele>710.396298</ele>
        <time>2022-03-08T08:16:11.713Z</time>
      </trkpt>
      <trkpt lat="42.51581" lon="24.07654">
        <ele>709.50554</ele>
        <time>2022-03-08T08:16:13.692Z</time>
      </trkpt>
      <trkpt lat="42.51587" lon="24.07642">
        <ele>708.714524</ele>
        <time>2022-03-08T08:16:15.760Z</time>
      </trkpt>
      <trkpt lat="42.51592" lon="24.0763">
        <ele>707.924308</ele>
        <time>2022-03-08T08:16:17.709Z</time>
      </trkpt>
      <trkpt lat="42.516" lon="24.07619">
        <ele>707.059492</ele>
        <time>2022-03-08T08:16:19.711Z</time>
      </trkpt>
      <trkpt lat="42.51612" lon="24.07611">
        <ele>706.165274</ele>
        <time>2022-03-08T08:16:21.710Z</time>
      </trkpt>
      <trkpt lat="42.51626" lon="24.07605">
        <ele>705.435995</ele>
        <time>2022-03-08T08:16:23.747Z</time>
      </trkpt>
      <trkpt lat="42.51638" lon="24.07603">
        <ele>704.798124</ele>
        <time>2022-03-08T08:16:25.714Z</time>
      </trkpt>
      <trkpt lat="42.51648" lon="24.076">
        <ele>704.25713</ele>
        <time>2022-03-08T08:16:27.724Z</time>
      </trkpt>
      <trkpt lat="42.51657" lon="24.07593">
        <ele>703.726397</ele>
        <time>2022-03-08T08:16:29.719Z</time>
      </trkpt>
      <trkpt lat="42.51664" lon="24.07584">
        <ele>703.235458</ele>
        <time>2022-03-08T08:16:31.747Z</time>
      </trkpt>
      <trkpt lat="42.51669" lon="24.07568">
        <ele>702.562267</ele>
        <time>2022-03-08T08:16:34.732Z</time>
      </trkpt>
      <trkpt lat="42.51671" lon="24.07553">
        <ele>701.987196</ele>
        <time>2022-03-08T08:16:36.742Z</time>
      </trkpt>
      <trkpt lat="42.51675" lon="24.07538">
        <ele>701.381518</ele>
        <time>2022-03-08T08:16:38.715Z</time>
      </trkpt>
      <trkpt lat="42.51679" lon="24.07523">
        <ele>700.790261</ele>
        <time>2022-03-08T08:16:40.719Z</time>
      </trkpt>
      <trkpt lat="42.51683" lon="24.07508">
        <ele>700.184583</ele>
        <time>2022-03-08T08:16:42.759Z</time>
      </trkpt>
      <trkpt lat="42.51687" lon="24.07493">
        <ele>699.591346</ele>
        <time>2022-03-08T08:16:44.698Z</time>
      </trkpt>
      <trkpt lat="42.51691" lon="24.07479">
        <ele>699.001822</ele>
        <time>2022-03-08T08:16:46.711Z</time>
      </trkpt>
      <trkpt lat="42.51694" lon="24.07465">
        <ele>698.449716</ele>
        <time>2022-03-08T08:16:48.704Z</time>
      </trkpt>
      <trkpt lat="42.517" lon="24.07448">
        <ele>697.748945</ele>
        <time>2022-03-08T08:16:51.732Z</time>
      </trkpt>
      <trkpt lat="42.51703" lon="24.07436">
        <ele>697.264536</ele>
        <time>2022-03-08T08:16:53.742Z</time>
      </trkpt>
      <trkpt lat="42.51707" lon="24.07424">
        <ele>696.760782</ele>
        <time>2022-03-08T08:16:55.706Z</time>
      </trkpt>
      <trkpt lat="42.51709" lon="24.0741">
        <ele>696.219567</ele>
        <time>2022-03-08T08:16:57.713Z</time>
      </trkpt>
      <trkpt lat="42.51712" lon="24.07396">
        <ele>695.659948</ele>
        <time>2022-03-08T08:16:59.715Z</time>
      </trkpt>
      <trkpt lat="42.51715" lon="24.07381">
        <ele>695.064315</ele>
        <time>2022-03-08T08:17:01.700Z</time>
      </trkpt>
      <trkpt lat="42.51718" lon="24.07366">
        <ele>694.475075</ele>
        <time>2022-03-08T08:17:03.706Z</time>
      </trkpt>
      <trkpt lat="42.51722" lon="24.07351">
        <ele>693.892523</ele>
        <time>2022-03-08T08:17:05.701Z</time>
      </trkpt>
      <trkpt lat="42.51725" lon="24.07337">
        <ele>693.323248</ele>
        <time>2022-03-08T08:17:07.701Z</time>
      </trkpt>
      <trkpt lat="42.51728" lon="24.07323">
        <ele>692.778426</ele>
        <time>2022-03-08T08:17:09.707Z</time>
      </trkpt>
      <trkpt lat="42.51732" lon="24.0731">
        <ele>692.230353</ele>
        <time>2022-03-08T08:17:11.714Z</time>
      </trkpt>
      <trkpt lat="42.51737" lon="24.07296">
        <ele>691.665859</ele>
        <time>2022-03-08T08:17:13.710Z</time>
      </trkpt>
      <trkpt lat="42.51742" lon="24.07284">
        <ele>691.125018</ele>
        <time>2022-03-08T08:17:15.733Z</time>
      </trkpt>
      <trkpt lat="42.51748" lon="24.07273">
        <ele>690.624486</ele>
        <time>2022-03-08T08:17:17.720Z</time>
      </trkpt>
      <trkpt lat="42.51753" lon="24.07263">
        <ele>690.162016</ele>
        <time>2022-03-08T08:17:19.718Z</time>
      </trkpt>
      <trkpt lat="42.51758" lon="24.07252">
        <ele>689.665618</ele>
        <time>2022-03-08T08:17:21.718Z</time>
      </trkpt>
      <trkpt lat="42.51764" lon="24.07239">
        <ele>689.112764</ele>
        <time>2022-03-08T08:17:23.714Z</time>
      </trkpt>
      <trkpt lat="42.5177" lon="24.07227">
        <ele>688.544443</ele>
        <time>2022-03-08T08:17:25.716Z</time>
      </trkpt>
      <trkpt lat="42.51775" lon="24.07214">
        <ele>687.980387</ele>
        <time>2022-03-08T08:17:27.699Z</time>
      </trkpt>
      <trkpt lat="42.5178" lon="24.07201">
        <ele>687.326093</ele>
        <time>2022-03-08T08:17:29.735Z</time>
      </trkpt>
      <trkpt lat="42.51786" lon="24.07188">
        <ele>686.655017</ele>
        <time>2022-03-08T08:17:31.697Z</time>
      </trkpt>
      <trkpt lat="42.51793" lon="24.07175">
        <ele>685.957802</ele>
        <time>2022-03-08T08:17:33.712Z</time>
      </trkpt>
      <trkpt lat="42.518" lon="24.07162">
        <ele>685.221493</ele>
        <time>2022-03-08T08:17:35.705Z</time>
      </trkpt>
      <trkpt lat="42.51808" lon="24.07149">
        <ele>684.490194</ele>
        <time>2022-03-08T08:17:37.711Z</time>
      </trkpt>
      <trkpt lat="42.51815" lon="24.07138">
        <ele>683.816556</ele>
        <time>2022-03-08T08:17:39.731Z</time>
      </trkpt>
      <trkpt lat="42.51824" lon="24.07124">
        <ele>683.022445</ele>
        <time>2022-03-08T08:17:42.705Z</time>
      </trkpt>
      <trkpt lat="42.51833" lon="24.07111">
        <ele>682.215109</ele>
        <time>2022-03-08T08:17:45.730Z</time>
      </trkpt>
      <trkpt lat="42.51842" lon="24.07102">
        <ele>681.534344</ele>
        <time>2022-03-08T08:17:47.716Z</time>
      </trkpt>
      <trkpt lat="42.51852" lon="24.07093">
        <ele>680.812509</ele>
        <time>2022-03-08T08:17:49.762Z</time>
      </trkpt>
      <trkpt lat="42.51861" lon="24.07086">
        <ele>680.182948</ele>
        <time>2022-03-08T08:17:51.700Z</time>
      </trkpt>
      <trkpt lat="42.51868" lon="24.07077">
        <ele>679.572597</ele>
        <time>2022-03-08T08:17:53.711Z</time>
      </trkpt>
      <trkpt lat="42.51875" lon="24.07064">
        <ele>678.878425</ele>
        <time>2022-03-08T08:17:55.777Z</time>
      </trkpt>
      <trkpt lat="42.51878" lon="24.07049">
        <ele>678.13629</ele>
        <time>2022-03-08T08:17:57.705Z</time>
      </trkpt>
      <trkpt lat="42.51877" lon="24.07033">
        <ele>677.450402</ele>
        <time>2022-03-08T08:17:59.720Z</time>
      </trkpt>
      <trkpt lat="42.51872" lon="24.07022">
        <ele>676.861926</ele>
        <time>2022-03-08T08:18:01.704Z</time>
      </trkpt>
      <trkpt lat="42.51865" lon="24.07013">
        <ele>676.340833</ele>
        <time>2022-03-08T08:18:03.711Z</time>
      </trkpt>
      <trkpt lat="42.51854" lon="24.07003">
        <ele>675.610996</ele>
        <time>2022-03-08T08:18:06.793Z</time>
      </trkpt>
      <trkpt lat="42.51846" lon="24.06995">
        <ele>675.079096</ele>
        <time>2022-03-08T08:18:08.702Z</time>
      </trkpt>
      <trkpt lat="42.51836" lon="24.06987">
        <ele>674.452286</ele>
        <time>2022-03-08T08:18:10.705Z</time>
      </trkpt>
      <trkpt lat="42.51826" lon="24.06979">
        <ele>673.828296</ele>
        <time>2022-03-08T08:18:12.740Z</time>
      </trkpt>
      <trkpt lat="42.51817" lon="24.06973">
        <ele>673.269068</ele>
        <time>2022-03-08T08:18:14.709Z</time>
      </trkpt>
      <trkpt lat="42.51807" lon="24.06968">
        <ele>672.709261</ele>
        <time>2022-03-08T08:18:16.717Z</time>
      </trkpt>
      <trkpt lat="42.51798" lon="24.06965">
        <ele>672.166744</ele>
        <time>2022-03-08T08:18:18.716Z</time>
      </trkpt>
      <trkpt lat="42.51788" lon="24.06962">
        <ele>671.61701</ele>
        <time>2022-03-08T08:18:20.729Z</time>
      </trkpt>
      <trkpt lat="42.51777" lon="24.06959">
        <ele>671.032857</ele>
        <time>2022-03-08T08:18:22.769Z</time>
      </trkpt>
      <trkpt lat="42.51766" lon="24.06956">
        <ele>670.429288</ele>
        <time>2022-03-08T08:18:24.718Z</time>
      </trkpt>
      <trkpt lat="42.51756" lon="24.06951">
        <ele>669.824802</ele>
        <time>2022-03-08T08:18:26.718Z</time>
      </trkpt>
      <trkpt lat="42.51745" lon="24.06944">
        <ele>669.159458</ele>
        <time>2022-03-08T08:18:28.746Z</time>
      </trkpt>
      <trkpt lat="42.51735" lon="24.06934">
        <ele>668.515152</ele>
        <time>2022-03-08T08:18:30.713Z</time>
      </trkpt>
      <trkpt lat="42.51726" lon="24.06926">
        <ele>667.886656</ele>
        <time>2022-03-08T08:18:32.714Z</time>
      </trkpt>
      <trkpt lat="42.51716" lon="24.06917">
        <ele>667.267139</ele>
        <time>2022-03-08T08:18:34.715Z</time>
      </trkpt>
      <trkpt lat="42.51707" lon="24.06909">
        <ele>666.342178</ele>
        <time>2022-03-08T08:18:36.694Z</time>
      </trkpt>
      <trkpt lat="42.51696" lon="24.069">
        <ele>665.300441</ele>
        <time>2022-03-08T08:18:38.709Z</time>
      </trkpt>
      <trkpt lat="42.51686" lon="24.06889">
        <ele>664.229139</ele>
        <time>2022-03-08T08:18:40.731Z</time>
      </trkpt>
      <trkpt lat="42.51676" lon="24.06879">
        <ele>663.159301</ele>
        <time>2022-03-08T08:18:42.743Z</time>
      </trkpt>
      <trkpt lat="42.51666" lon="24.06868">
        <ele>662.053501</ele>
        <time>2022-03-08T08:18:44.719Z</time>
      </trkpt>
      <trkpt lat="42.51657" lon="24.06859">
        <ele>661.08239</ele>
        <time>2022-03-08T08:18:46.712Z</time>
      </trkpt>
      <trkpt lat="42.51649" lon="24.06849">
        <ele>660.168847</ele>
        <time>2022-03-08T08:18:48.712Z</time>
      </trkpt>
      <trkpt lat="42.5164" lon="24.0684">
        <ele>659.235829</ele>
        <time>2022-03-08T08:18:50.740Z</time>
      </trkpt>
      <trkpt lat="42.51632" lon="24.06828">
        <ele>658.214402</ele>
        <time>2022-03-08T08:18:52.711Z</time>
      </trkpt>
      <trkpt lat="42.51624" lon="24.06816">
        <ele>657.210595</ele>
        <time>2022-03-08T08:18:54.714Z</time>
      </trkpt>
      <trkpt lat="42.51616" lon="24.06804">
        <ele>656.236738</ele>
        <time>2022-03-08T08:18:56.703Z</time>
      </trkpt>
      <trkpt lat="42.51608" lon="24.06792">
        <ele>655.22855</ele>
        <time>2022-03-08T08:18:58.726Z</time>
      </trkpt>
      <trkpt lat="42.516" lon="24.0678">
        <ele>654.209761</ele>
        <time>2022-03-08T08:19:00.702Z</time>
      </trkpt>
      <trkpt lat="42.51593" lon="24.06768">
        <ele>653.218285</ele>
        <time>2022-03-08T08:19:02.739Z</time>
      </trkpt>
      <trkpt lat="42.51585" lon="24.06755">
        <ele>652.217102</ele>
        <time>2022-03-08T08:19:04.709Z</time>
      </trkpt>
      <trkpt lat="42.51578" lon="24.06743">
        <ele>651.746013</ele>
        <time>2022-03-08T08:19:06.722Z</time>
      </trkpt>
      <trkpt lat="42.51571" lon="24.0673">
        <ele>651.463271</ele>
        <time>2022-03-08T08:19:08.706Z</time>
      </trkpt>
      <trkpt lat="42.51564" lon="24.06718">
        <ele>651.180529</ele>
        <time>2022-03-08T08:19:10.702Z</time>
      </trkpt>
      <trkpt lat="42.51556" lon="24.06707">
        <ele>650.907328</ele>
        <time>2022-03-08T08:19:12.726Z</time>
      </trkpt>
      <trkpt lat="42.51549" lon="24.06695">
        <ele>650.620929</ele>
        <time>2022-03-08T08:19:14.732Z</time>
      </trkpt>
      <trkpt lat="42.51541" lon="24.06682">
        <ele>650.328848</ele>
        <time>2022-03-08T08:19:16.689Z</time>
      </trkpt>
      <trkpt lat="42.51533" lon="24.0667">
        <ele>650.038129</ele>
        <time>2022-03-08T08:19:18.694Z</time>
      </trkpt>
      <trkpt lat="42.51525" lon="24.06657">
        <ele>649.72853</ele>
        <time>2022-03-08T08:19:20.701Z</time>
      </trkpt>
      <trkpt lat="42.51516" lon="24.06643">
        <ele>649.398687</ele>
        <time>2022-03-08T08:19:22.717Z</time>
      </trkpt>
      <trkpt lat="42.51507" lon="24.06629">
        <ele>649.062927</ele>
        <time>2022-03-08T08:19:24.717Z</time>
      </trkpt>
      <trkpt lat="42.51498" lon="24.06615">
        <ele>648.733295</ele>
        <time>2022-03-08T08:19:26.714Z</time>
      </trkpt>
      <trkpt lat="42.51489" lon="24.06601">
        <ele>648.399128</ele>
        <time>2022-03-08T08:19:28.714Z</time>
      </trkpt>
      <trkpt lat="42.51481" lon="24.06587">
        <ele>648.071231</ele>
        <time>2022-03-08T08:19:30.713Z</time>
      </trkpt>
      <trkpt lat="42.51472" lon="24.06572">
        <ele>647.730462</ele>
        <time>2022-03-08T08:19:32.699Z</time>
      </trkpt>
      <trkpt lat="42.51464" lon="24.06557">
        <ele>647.360176</ele>
        <time>2022-03-08T08:19:34.736Z</time>
      </trkpt>
      <trkpt lat="42.51456" lon="24.06541">
        <ele>646.948328</ele>
        <time>2022-03-08T08:19:36.723Z</time>
      </trkpt>
      <trkpt lat="42.51448" lon="24.06525">
        <ele>646.53648</ele>
        <time>2022-03-08T08:19:38.696Z</time>
      </trkpt>
      <trkpt lat="42.5144" lon="24.06509">
        <ele>646.114075</ele>
        <time>2022-03-08T08:19:40.695Z</time>
      </trkpt>
      <trkpt lat="42.51431" lon="24.06492">
        <ele>645.675096</ele>
        <time>2022-03-08T08:19:42.715Z</time>
      </trkpt>
      <trkpt lat="42.51422" lon="24.06474">
        <ele>645.230584</ele>
        <time>2022-03-08T08:19:44.710Z</time>
      </trkpt>
      <trkpt lat="42.51414" lon="24.06458">
        <ele>644.815447</ele>
        <time>2022-03-08T08:19:46.724Z</time>
      </trkpt>
      <trkpt lat="42.51407" lon="24.06443">
        <ele>644.435639</ele>
        <time>2022-03-08T08:19:48.710Z</time>
      </trkpt>
      <trkpt lat="42.514" lon="24.06428">
        <ele>644.060939</ele>
        <time>2022-03-08T08:19:50.704Z</time>
      </trkpt>
      <trkpt lat="42.51393" lon="24.06413">
        <ele>643.680907</ele>
        <time>2022-03-08T08:19:52.709Z</time>
      </trkpt>
      <trkpt lat="42.51385" lon="24.06398">
        <ele>643.292944</ele>
        <time>2022-03-08T08:19:54.715Z</time>
      </trkpt>
      <trkpt lat="42.51379" lon="24.06384">
        <ele>642.940925</ele>
        <time>2022-03-08T08:19:56.752Z</time>
      </trkpt>
      <trkpt lat="42.51373" lon="24.06368">
        <ele>642.559254</ele>
        <time>2022-03-08T08:19:58.696Z</time>
      </trkpt>
      <trkpt lat="42.51366" lon="24.06352">
        <ele>642.058188</ele>
        <time>2022-03-08T08:20:00.731Z</time>
      </trkpt>
      <trkpt lat="42.5136" lon="24.06339">
        <ele>641.531728</ele>
        <time>2022-03-08T08:20:02.759Z</time>
      </trkpt>
      <trkpt lat="42.51353" lon="24.06326">
        <ele>641.017706</ele>
        <time>2022-03-08T08:20:04.748Z</time>
      </trkpt>
      <trkpt lat="42.51348" lon="24.06313">
        <ele>640.522696</ele>
        <time>2022-03-08T08:20:06.735Z</time>
      </trkpt>
      <trkpt lat="42.51342" lon="24.06299">
        <ele>640.010651</ele>
        <time>2022-03-08T08:20:08.694Z</time>
      </trkpt>
      <trkpt lat="42.51335" lon="24.06287">
        <ele>639.484086</ele>
        <time>2022-03-08T08:20:10.697Z</time>
      </trkpt>
      <trkpt lat="42.51326" lon="24.06275">
        <ele>638.929798</ele>
        <time>2022-03-08T08:20:12.704Z</time>
      </trkpt>
      <trkpt lat="42.51318" lon="24.06262">
        <ele>638.36694</ele>
        <time>2022-03-08T08:20:14.783Z</time>
      </trkpt>
      <trkpt lat="42.5131" lon="24.0625">
        <ele>637.829073</ele>
        <time>2022-03-08T08:20:16.665Z</time>
      </trkpt>
      <trkpt lat="42.51302" lon="24.06238">
        <ele>637.315345</ele>
        <time>2022-03-08T08:20:18.696Z</time>
      </trkpt>
      <trkpt lat="42.51295" lon="24.06226">
        <ele>636.785407</ele>
        <time>2022-03-08T08:20:20.690Z</time>
      </trkpt>
      <trkpt lat="42.51286" lon="24.06212">
        <ele>636.188335</ele>
        <time>2022-03-08T08:20:22.696Z</time>
      </trkpt>
      <trkpt lat="42.51276" lon="24.06199">
        <ele>635.551725</ele>
        <time>2022-03-08T08:20:24.716Z</time>
      </trkpt>
      <trkpt lat="42.51265" lon="24.06183">
        <ele>634.846036</ele>
        <time>2022-03-08T08:20:26.696Z</time>
      </trkpt>
      <trkpt lat="42.51256" lon="24.06168">
        <ele>634.19426</ele>
        <time>2022-03-08T08:20:28.743Z</time>
      </trkpt>
      <trkpt lat="42.51247" lon="24.06154">
        <ele>633.583157</ele>
        <time>2022-03-08T08:20:30.718Z</time>
      </trkpt>
      <trkpt lat="42.51238" lon="24.06141">
        <ele>632.984466</ele>
        <time>2022-03-08T08:20:32.702Z</time>
      </trkpt>
      <trkpt lat="42.51229" lon="24.0613">
        <ele>632.437203</ele>
        <time>2022-03-08T08:20:34.706Z</time>
      </trkpt>
      <trkpt lat="42.51221" lon="24.0612">
        <ele>631.943316</ele>
        <time>2022-03-08T08:20:36.704Z</time>
      </trkpt>
      <trkpt lat="42.51211" lon="24.06111">
        <ele>631.428701</ele>
        <time>2022-03-08T08:20:38.702Z</time>
      </trkpt>
      <trkpt lat="42.51203" lon="24.06101">
        <ele>630.919172</ele>
        <time>2022-03-08T08:20:40.754Z</time>
      </trkpt>
      <trkpt lat="42.51195" lon="24.06091">
        <ele>630.42521</ele>
        <time>2022-03-08T08:20:42.707Z</time>
      </trkpt>
      <trkpt lat="42.51186" lon="24.0608">
        <ele>629.895287</ele>
        <time>2022-03-08T08:20:44.703Z</time>
      </trkpt>
      <trkpt lat="42.51178" lon="24.06067">
        <ele>629.34704</ele>
        <time>2022-03-08T08:20:46.704Z</time>
      </trkpt>
      <trkpt lat="42.51171" lon="24.06054">
        <ele>628.791708</ele>
        <time>2022-03-08T08:20:48.702Z</time>
      </trkpt>
      <trkpt lat="42.51165" lon="24.06039">
        <ele>628.234952</ele>
        <time>2022-03-08T08:20:50.681Z</time>
      </trkpt>
      <trkpt lat="42.51161" lon="24.06023">
        <ele>627.65918</ele>
        <time>2022-03-08T08:20:52.716Z</time>
      </trkpt>
      <trkpt lat="42.51158" lon="24.06005">
        <ele>627.057817</ele>
        <time>2022-03-08T08:20:54.699Z</time>
      </trkpt>
      <trkpt lat="42.51156" lon="24.05986">
        <ele>626.417339</ele>
        <time>2022-03-08T08:20:56.734Z</time>
      </trkpt>
      <trkpt lat="42.51155" lon="24.05967">
        <ele>625.405031</ele>
        <time>2022-03-08T08:20:58.707Z</time>
      </trkpt>
      <trkpt lat="42.51154" lon="24.05951">
        <ele>624.431426</ele>
        <time>2022-03-08T08:21:00.705Z</time>
      </trkpt>
      <trkpt lat="42.51153" lon="24.05936">
        <ele>623.494085</ele>
        <time>2022-03-08T08:21:02.701Z</time>
      </trkpt>
      <trkpt lat="42.51152" lon="24.05922">
        <ele>622.600971</ele>
        <time>2022-03-08T08:21:04.714Z</time>
      </trkpt>
      <trkpt lat="42.51149" lon="24.05906">
        <ele>621.593142</ele>
        <time>2022-03-08T08:21:06.714Z</time>
      </trkpt>
      <trkpt lat="42.51142" lon="24.05889">
        <ele>620.374523</ele>
        <time>2022-03-08T08:21:08.757Z</time>
      </trkpt>
      <trkpt lat="42.51136" lon="24.05872">
        <ele>619.177201</ele>
        <time>2022-03-08T08:21:10.695Z</time>
      </trkpt>
      <trkpt lat="42.51133" lon="24.05855">
        <ele>618.120184</ele>
        <time>2022-03-08T08:21:12.712Z</time>
      </trkpt>
      <trkpt lat="42.5113" lon="24.0584">
        <ele>617.147463</ele>
        <time>2022-03-08T08:21:14.703Z</time>
      </trkpt>
      <trkpt lat="42.51127" lon="24.05825">
        <ele>616.176568</ele>
        <time>2022-03-08T08:21:16.706Z</time>
      </trkpt>
      <trkpt lat="42.51126" lon="24.05808">
        <ele>615.148514</ele>
        <time>2022-03-08T08:21:18.691Z</time>
      </trkpt>
      <trkpt lat="42.51127" lon="24.0579">
        <ele>614.036368</ele>
        <time>2022-03-08T08:21:20.696Z</time>
      </trkpt>
      <trkpt lat="42.51129" lon="24.05771">
        <ele>612.862914</ele>
        <time>2022-03-08T08:21:22.703Z</time>
      </trkpt>
      <trkpt lat="42.51131" lon="24.05753">
        <ele>611.699163</ele>
        <time>2022-03-08T08:21:24.703Z</time>
      </trkpt>
      <trkpt lat="42.51132" lon="24.05736">
        <ele>611.006912</ele>
        <time>2022-03-08T08:21:26.713Z</time>
      </trkpt>
      <trkpt lat="42.51131" lon="24.05718">
        <ele>610.755023</ele>
        <time>2022-03-08T08:21:28.694Z</time>
      </trkpt>
      <trkpt lat="42.51128" lon="24.05701">
        <ele>610.499789</ele>
        <time>2022-03-08T08:21:30.743Z</time>
      </trkpt>
      <trkpt lat="42.51126" lon="24.05683">
        <ele>610.251269</ele>
        <time>2022-03-08T08:21:32.716Z</time>
      </trkpt>
      <trkpt lat="42.51126" lon="24.05666">
        <ele>609.998139</ele>
        <time>2022-03-08T08:21:34.680Z</time>
      </trkpt>
      <trkpt lat="42.51126" lon="24.0565">
        <ele>609.766523</ele>
        <time>2022-03-08T08:21:36.690Z</time>
      </trkpt>
      <trkpt lat="42.51126" lon="24.05632">
        <ele>609.51629</ele>
        <time>2022-03-08T08:21:38.704Z</time>
      </trkpt>
      <trkpt lat="42.51126" lon="24.05611">
        <ele>609.218849</ele>
        <time>2022-03-08T08:21:40.692Z</time>
      </trkpt>
      <trkpt lat="42.51123" lon="24.0559">
        <ele>608.905861</ele>
        <time>2022-03-08T08:21:42.703Z</time>
      </trkpt>
      <trkpt lat="42.51113" lon="24.05571">
        <ele>608.581275</ele>
        <time>2022-03-08T08:21:44.698Z</time>
      </trkpt>
      <trkpt lat="42.51104" lon="24.05556">
        <ele>608.302419</ele>
        <time>2022-03-08T08:21:46.712Z</time>
      </trkpt>
      <trkpt lat="42.51096" lon="24.05542">
        <ele>608.042325</ele>
        <time>2022-03-08T08:21:48.754Z</time>
      </trkpt>
      <trkpt lat="42.5109" lon="24.05529">
        <ele>607.819891</ele>
        <time>2022-03-08T08:21:50.701Z</time>
      </trkpt>
      <trkpt lat="42.51084" lon="24.05515">
        <ele>607.489512</ele>
        <time>2022-03-08T08:21:52.720Z</time>
      </trkpt>
      <trkpt lat="42.5108" lon="24.055">
        <ele>606.717646</ele>
        <time>2022-03-08T08:21:54.706Z</time>
      </trkpt>
      <trkpt lat="42.51078" lon="24.05486">
        <ele>606.001891</ele>
        <time>2022-03-08T08:21:56.715Z</time>
      </trkpt>
      <trkpt lat="42.51078" lon="24.0547">
        <ele>605.232029</ele>
        <time>2022-03-08T08:21:58.714Z</time>
      </trkpt>
      <trkpt lat="42.51083" lon="24.05454">
        <ele>604.379256</ele>
        <time>2022-03-08T08:22:00.694Z</time>
      </trkpt>
      <trkpt lat="42.51089" lon="24.05438">
        <ele>603.4862</ele>
        <time>2022-03-08T08:22:02.695Z</time>
      </trkpt>
      <trkpt lat="42.51095" lon="24.05423">
        <ele>602.641756</ele>
        <time>2022-03-08T08:22:04.722Z</time>
      </trkpt>
      <trkpt lat="42.51101" lon="24.05406">
        <ele>601.731038</ele>
        <time>2022-03-08T08:22:06.712Z</time>
      </trkpt>
      <trkpt lat="42.51108" lon="24.0539">
        <ele>600.836273</ele>
        <time>2022-03-08T08:22:08.699Z</time>
      </trkpt>
      <trkpt lat="42.51112" lon="24.05373">
        <ele>599.948422</ele>
        <time>2022-03-08T08:22:10.698Z</time>
      </trkpt>
      <trkpt lat="42.51115" lon="24.05355">
        <ele>599.031555</ele>
        <time>2022-03-08T08:22:12.702Z</time>
      </trkpt>
      <trkpt lat="42.51117" lon="24.05338">
        <ele>598.198149</ele>
        <time>2022-03-08T08:22:14.708Z</time>
      </trkpt>
      <trkpt lat="42.51116" lon="24.05322">
        <ele>597.389312</ele>
        <time>2022-03-08T08:22:16.733Z</time>
      </trkpt>
      <trkpt lat="42.51116" lon="24.05306">
        <ele>596.581441</ele>
        <time>2022-03-08T08:22:18.715Z</time>
      </trkpt>
      <trkpt lat="42.51117" lon="24.0529">
        <ele>595.825388</ele>
        <time>2022-03-08T08:22:20.691Z</time>
      </trkpt>
      <trkpt lat="42.51117" lon="24.05274">
        <ele>595.364707</ele>
        <time>2022-03-08T08:22:22.713Z</time>
      </trkpt>
      <trkpt lat="42.51118" lon="24.05257">
        <ele>594.989391</ele>
        <time>2022-03-08T08:22:24.713Z</time>
      </trkpt>
      <trkpt lat="42.5112" lon="24.05238">
        <ele>594.59757</ele>
        <time>2022-03-08T08:22:26.712Z</time>
      </trkpt>
      <trkpt lat="42.51123" lon="24.05221">
        <ele>594.219264</ele>
        <time>2022-03-08T08:22:28.724Z</time>
      </trkpt>
      <trkpt lat="42.51128" lon="24.05203">
        <ele>593.813789</ele>
        <time>2022-03-08T08:22:30.708Z</time>
      </trkpt>
      <trkpt lat="42.51134" lon="24.05186">
        <ele>593.42059</ele>
        <time>2022-03-08T08:22:32.704Z</time>
      </trkpt>
      <trkpt lat="42.5114" lon="24.0517">
        <ele>593.033035</ele>
        <time>2022-03-08T08:22:34.702Z</time>
      </trkpt>
      <trkpt lat="42.51147" lon="24.05153">
        <ele>592.635339</ele>
        <time>2022-03-08T08:22:36.714Z</time>
      </trkpt>
      <trkpt lat="42.51152" lon="24.05135">
        <ele>592.229923</ele>
        <time>2022-03-08T08:22:38.709Z</time>
      </trkpt>
      <trkpt lat="42.51155" lon="24.05118">
        <ele>591.843873</ele>
        <time>2022-03-08T08:22:40.692Z</time>
      </trkpt>
      <trkpt lat="42.51156" lon="24.05099">
        <ele>591.444028</ele>
        <time>2022-03-08T08:22:42.688Z</time>
      </trkpt>
      <trkpt lat="42.51157" lon="24.05079">
        <ele>591.022766</ele>
        <time>2022-03-08T08:22:44.699Z</time>
      </trkpt>
      <trkpt lat="42.51158" lon="24.05059">
        <ele>590.601115</ele>
        <time>2022-03-08T08:22:46.738Z</time>
      </trkpt>
      <trkpt lat="42.51159" lon="24.0504">
        <ele>590.069088</ele>
        <time>2022-03-08T08:22:48.713Z</time>
      </trkpt>
      <trkpt lat="42.5116" lon="24.05023">
        <ele>589.49974</ele>
        <time>2022-03-08T08:22:50.712Z</time>
      </trkpt>
      <trkpt lat="42.51159" lon="24.05004">
        <ele>588.883307</ele>
        <time>2022-03-08T08:22:52.717Z</time>
      </trkpt>
      <trkpt lat="42.51155" lon="24.04984">
        <ele>588.211043</ele>
        <time>2022-03-08T08:22:54.705Z</time>
      </trkpt>
      <trkpt lat="42.51148" lon="24.04966">
        <ele>587.564209</ele>
        <time>2022-03-08T08:22:56.706Z</time>
      </trkpt>
      <trkpt lat="42.51139" lon="24.04952">
        <ele>586.958058</ele>
        <time>2022-03-08T08:22:58.711Z</time>
      </trkpt>
      <trkpt lat="42.51131" lon="24.0494">
        <ele>586.426435</ele>
        <time>2022-03-08T08:23:00.701Z</time>
      </trkpt>
      <trkpt lat="42.51123" lon="24.04929">
        <ele>585.949672</ele>
        <time>2022-03-08T08:23:02.685Z</time>
      </trkpt>
      <trkpt lat="42.51116" lon="24.04918">
        <ele>585.450619</ele>
        <time>2022-03-08T08:23:04.704Z</time>
      </trkpt>
      <trkpt lat="42.51107" lon="24.04907">
        <ele>584.933812</ele>
        <time>2022-03-08T08:23:06.746Z</time>
      </trkpt>
      <trkpt lat="42.511" lon="24.04895">
        <ele>584.440067</ele>
        <time>2022-03-08T08:23:08.713Z</time>
      </trkpt>
      <trkpt lat="42.51093" lon="24.04884">
        <ele>583.964259</ele>
        <time>2022-03-08T08:23:10.714Z</time>
      </trkpt>
      <trkpt lat="42.51084" lon="24.04875">
        <ele>583.474217</ele>
        <time>2022-03-08T08:23:12.705Z</time>
      </trkpt>
      <trkpt lat="42.51076" lon="24.04865">
        <ele>583.000113</ele>
        <time>2022-03-08T08:23:14.708Z</time>
      </trkpt>
      <trkpt lat="42.5107" lon="24.04854">
        <ele>582.564047</ele>
        <time>2022-03-08T08:23:16.728Z</time>
      </trkpt>
      <trkpt lat="42.51064" lon="24.04845">
        <ele>582.103992</ele>
        <time>2022-03-08T08:23:18.700Z</time>
      </trkpt>
      <trkpt lat="42.51055" lon="24.04831">
        <ele>581.42528</ele>
        <time>2022-03-08T08:23:21.714Z</time>
      </trkpt>
      <trkpt lat="42.51048" lon="24.04822">
        <ele>580.945009</ele>
        <time>2022-03-08T08:23:23.704Z</time>
      </trkpt>
      <trkpt lat="42.51041" lon="24.04813">
        <ele>580.459504</ele>
        <time>2022-03-08T08:23:25.709Z</time>
      </trkpt>
      <trkpt lat="42.51034" lon="24.04803">
        <ele>579.944899</ele>
        <time>2022-03-08T08:23:27.718Z</time>
      </trkpt>
      <trkpt lat="42.51027" lon="24.04793">
        <ele>579.432413</ele>
        <time>2022-03-08T08:23:29.741Z</time>
      </trkpt>
      <trkpt lat="42.51021" lon="24.04781">
        <ele>578.898233</ele>
        <time>2022-03-08T08:23:31.717Z</time>
      </trkpt>
      <trkpt lat="42.51015" lon="24.04768">
        <ele>578.341345</ele>
        <time>2022-03-08T08:23:33.752Z</time>
      </trkpt>
      <trkpt lat="42.51011" lon="24.04754">
        <ele>577.761639</ele>
        <time>2022-03-08T08:23:35.716Z</time>
      </trkpt>
      <trkpt lat="42.51006" lon="24.0474">
        <ele>577.181931</ele>
        <time>2022-03-08T08:23:37.715Z</time>
      </trkpt>
      <trkpt lat="42.51003" lon="24.04725">
        <ele>576.600274</ele>
        <time>2022-03-08T08:23:39.796Z</time>
      </trkpt>
      <trkpt lat="42.50999" lon="24.04709">
        <ele>575.996527</ele>
        <time>2022-03-08T08:23:41.722Z</time>
      </trkpt>
      <trkpt lat="42.50995" lon="24.04695">
        <ele>575.42067</ele>
        <time>2022-03-08T08:23:43.726Z</time>
      </trkpt>
      <trkpt lat="42.50991" lon="24.0468">
        <ele>574.831186</ele>
        <time>2022-03-08T08:23:45.711Z</time>
      </trkpt>
      <trkpt lat="42.50986" lon="24.04664">
        <ele>574.198097</ele>
        <time>2022-03-08T08:23:47.732Z</time>
      </trkpt>
      <trkpt lat="42.50983" lon="24.04647">
        <ele>573.570223</ele>
        <time>2022-03-08T08:23:49.731Z</time>
      </trkpt>
      <trkpt lat="42.50981" lon="24.04631">
        <ele>573.304549</ele>
        <time>2022-03-08T08:23:51.706Z</time>
      </trkpt>
      <trkpt lat="42.50977" lon="24.04615">
        <ele>573.059944</ele>
        <time>2022-03-08T08:23:53.705Z</time>
      </trkpt>
      <trkpt lat="42.50971" lon="24.04598">
        <ele>572.800769</ele>
        <time>2022-03-08T08:23:55.714Z</time>
      </trkpt>
      <trkpt lat="42.50962" lon="24.04587">
        <ele>572.571302</ele>
        <time>2022-03-08T08:23:57.725Z</time>
      </trkpt>
      <trkpt lat="42.50952" lon="24.04576">
        <ele>572.329206</ele>
        <time>2022-03-08T08:23:59.745Z</time>
      </trkpt>
      <trkpt lat="42.50944" lon="24.04564">
        <ele>572.096761</ele>
        <time>2022-03-08T08:24:01.717Z</time>
      </trkpt>
      <trkpt lat="42.50935" lon="24.04554">
        <ele>571.879859</ele>
        <time>2022-03-08T08:24:03.727Z</time>
      </trkpt>
      <trkpt lat="42.50927" lon="24.04545">
        <ele>571.68126</ele>
        <time>2022-03-08T08:24:05.731Z</time>
      </trkpt>
      <trkpt lat="42.5092" lon="24.04535">
        <ele>571.483119</ele>
        <time>2022-03-08T08:24:07.714Z</time>
      </trkpt>
      <trkpt lat="42.50914" lon="24.04525">
        <ele>571.304179</ele>
        <time>2022-03-08T08:24:09.703Z</time>
      </trkpt>
      <trkpt lat="42.50908" lon="24.04515">
        <ele>571.111242</ele>
        <time>2022-03-08T08:24:11.721Z</time>
      </trkpt>
      <trkpt lat="42.50901" lon="24.04505">
        <ele>570.919383</ele>
        <time>2022-03-08T08:24:13.703Z</time>
      </trkpt>
      <trkpt lat="42.50895" lon="24.04495">
        <ele>570.730921</ele>
        <time>2022-03-08T08:24:15.703Z</time>
      </trkpt>
      <trkpt lat="42.5089" lon="24.04483">
        <ele>570.535172</ele>
        <time>2022-03-08T08:24:17.755Z</time>
      </trkpt>
      <trkpt lat="42.50885" lon="24.0447">
        <ele>570.327305</ele>
        <time>2022-03-08T08:24:19.724Z</time>
      </trkpt>
      <trkpt lat="42.50878" lon="24.04456">
        <ele>570.101503</ele>
        <time>2022-03-08T08:24:21.700Z</time>
      </trkpt>
      <trkpt lat="42.50873" lon="24.04444">
        <ele>570.328497</ele>
        <time>2022-03-08T08:24:23.716Z</time>
      </trkpt>
      <trkpt lat="42.50868" lon="24.04427">
        <ele>570.74163</ele>
        <time>2022-03-08T08:24:26.724Z</time>
      </trkpt>
      <trkpt lat="42.50864" lon="24.04414">
        <ele>571.070543</ele>
        <time>2022-03-08T08:24:28.703Z</time>
      </trkpt>
      <trkpt lat="42.5086" lon="24.04399">
        <ele>571.422029</ele>
        <time>2022-03-08T08:24:30.735Z</time>
      </trkpt>
      <trkpt lat="42.50854" lon="24.04382">
        <ele>571.847246</ele>
        <time>2022-03-08T08:24:32.715Z</time>
      </trkpt>
      <trkpt lat="42.50847" lon="24.04366">
        <ele>572.275685</ele>
        <time>2022-03-08T08:24:34.724Z</time>
      </trkpt>
      <trkpt lat="42.50836" lon="24.04351">
        <ele>572.741072</ele>
        <time>2022-03-08T08:24:36.709Z</time>
      </trkpt>
      <trkpt lat="42.50826" lon="24.04341">
        <ele>573.124964</ele>
        <time>2022-03-08T08:24:38.735Z</time>
      </trkpt>
      <trkpt lat="42.50818" lon="24.04333">
        <ele>573.417887</ele>
        <time>2022-03-08T08:24:40.731Z</time>
      </trkpt>
      <trkpt lat="42.50806" lon="24.04323">
        <ele>573.827791</ele>
        <time>2022-03-08T08:24:43.716Z</time>
      </trkpt>
      <trkpt lat="42.50794" lon="24.04316">
        <ele>574.227348</ele>
        <time>2022-03-08T08:24:46.707Z</time>
      </trkpt>
      <trkpt lat="42.50785" lon="24.04309">
        <ele>574.548543</ele>
        <time>2022-03-08T08:24:49.722Z</time>
      </trkpt>
      <trkpt lat="42.50778" lon="24.04298">
        <ele>574.885772</ele>
        <time>2022-03-08T08:24:53.706Z</time>
      </trkpt>
      <trkpt lat="42.50768" lon="24.04291">
        <ele>575.20159</ele>
        <time>2022-03-08T08:24:57.718Z</time>
      </trkpt>
      <trkpt lat="42.5076" lon="24.04287">
        <ele>575.475715</ele>
        <time>2022-03-08T08:25:00.706Z</time>
      </trkpt>
      <trkpt lat="42.50752" lon="24.04281">
        <ele>575.59405</ele>
        <time>2022-03-08T08:25:03.721Z</time>
      </trkpt>
      <trkpt lat="42.50743" lon="24.04272">
        <ele>575.685682</ele>
        <time>2022-03-08T08:25:07.718Z</time>
      </trkpt>
      <trkpt lat="42.50734" lon="24.04264">
        <ele>575.777325</ele>
        <time>2022-03-08T08:25:10.707Z</time>
      </trkpt>
      <trkpt lat="42.50724" lon="24.04258">
        <ele>575.866175</ele>
        <time>2022-03-08T08:25:13.700Z</time>
      </trkpt>
      <trkpt lat="42.50715" lon="24.04251">
        <ele>575.955701</ele>
        <time>2022-03-08T08:25:16.727Z</time>
      </trkpt>
      <trkpt lat="42.50705" lon="24.04244">
        <ele>576.042336</ele>
        <time>2022-03-08T08:25:19.751Z</time>
      </trkpt>
      <trkpt lat="42.50698" lon="24.04236">
        <ele>576.119668</ele>
        <time>2022-03-08T08:25:22.758Z</time>
      </trkpt>
      <trkpt lat="42.50692" lon="24.04227">
        <ele>576.195877</ele>
        <time>2022-03-08T08:25:25.728Z</time>
      </trkpt>
      <trkpt lat="42.50681" lon="24.0422">
        <ele>576.292567</ele>
        <time>2022-03-08T08:25:29.701Z</time>
      </trkpt>
      <trkpt lat="42.50672" lon="24.04215">
        <ele>576.378849</ele>
        <time>2022-03-08T08:25:32.734Z</time>
      </trkpt>
      <trkpt lat="42.50663" lon="24.04209">
        <ele>576.458593</ele>
        <time>2022-03-08T08:25:35.712Z</time>
      </trkpt>
      <trkpt lat="42.50654" lon="24.04203">
        <ele>576.54055</ele>
        <time>2022-03-08T08:25:38.718Z</time>
      </trkpt>
      <trkpt lat="42.50644" lon="24.04196">
        <ele>576.632168</ele>
        <time>2022-03-08T08:25:42.713Z</time>
      </trkpt>
      <trkpt lat="42.50637" lon="24.04189">
        <ele>576.7079</ele>
        <time>2022-03-08T08:25:45.761Z</time>
      </trkpt>
      <trkpt lat="42.50628" lon="24.0418">
        <ele>576.79666</ele>
        <time>2022-03-08T08:25:49.730Z</time>
      </trkpt>
      <trkpt lat="42.50624" lon="24.04168">
        <ele>576.880405</ele>
        <time>2022-03-08T08:25:53.703Z</time>
      </trkpt>
      <trkpt lat="42.5062" lon="24.04154">
        <ele>576.975205</ele>
        <time>2022-03-08T08:25:57.712Z</time>
      </trkpt>
      <trkpt lat="42.50615" lon="24.04142">
        <ele>576.842867</ele>
        <time>2022-03-08T08:26:01.772Z</time>
      </trkpt>
      <trkpt lat="42.5061" lon="24.04128">
        <ele>576.34546</ele>
        <time>2022-03-08T08:26:05.719Z</time>
      </trkpt>
      <trkpt lat="42.50604" lon="24.04114">
        <ele>575.801805</ele>
        <time>2022-03-08T08:26:09.713Z</time>
      </trkpt>
      <trkpt lat="42.50599" lon="24.04103">
        <ele>575.375301</ele>
        <time>2022-03-08T08:26:12.716Z</time>
      </trkpt>
      <trkpt lat="42.50593" lon="24.04092">
        <ele>574.893497</ele>
        <time>2022-03-08T08:26:15.704Z</time>
      </trkpt>
      <trkpt lat="42.50586" lon="24.04078">
        <ele>574.34152</ele>
        <time>2022-03-08T08:26:18.726Z</time>
      </trkpt>
      <trkpt lat="42.5058" lon="24.04063">
        <ele>573.787077</ele>
        <time>2022-03-08T08:26:21.733Z</time>
      </trkpt>
      <trkpt lat="42.50574" lon="24.04048">
        <ele>573.2297</ele>
        <time>2022-03-08T08:26:24.716Z</time>
      </trkpt>
      <trkpt lat="42.5057" lon="24.04033">
        <ele>572.682872</ele>
        <time>2022-03-08T08:26:27.712Z</time>
      </trkpt>
      <trkpt lat="42.50565" lon="24.04018">
        <ele>572.141472</ele>
        <time>2022-03-08T08:26:30.724Z</time>
      </trkpt>
      <trkpt lat="42.50561" lon="24.04002">
        <ele>571.595366</ele>
        <time>2022-03-08T08:26:33.726Z</time>
      </trkpt>
      <trkpt lat="42.50558" lon="24.03986">
        <ele>571.030232</ele>
        <time>2022-03-08T08:26:36.741Z</time>
      </trkpt>
      <trkpt lat="42.50555" lon="24.03973">
        <ele>570.569012</ele>
        <time>2022-03-08T08:26:38.721Z</time>
      </trkpt>
      <trkpt lat="42.50552" lon="24.03958">
        <ele>570.050753</ele>
        <time>2022-03-08T08:26:40.730Z</time>
      </trkpt>
      <trkpt lat="42.50549" lon="24.03943">
        <ele>569.539352</ele>
        <time>2022-03-08T08:26:42.716Z</time>
      </trkpt>
      <trkpt lat="42.50548" lon="24.03927">
        <ele>569.005708</ele>
        <time>2022-03-08T08:26:44.736Z</time>
      </trkpt>
      <trkpt lat="42.50546" lon="24.0391">
        <ele>568.306354</ele>
        <time>2022-03-08T08:26:46.707Z</time>
      </trkpt>
      <trkpt lat="42.50546" lon="24.03892">
        <ele>567.50044</ele>
        <time>2022-03-08T08:26:48.711Z</time>
      </trkpt>
      <trkpt lat="42.50546" lon="24.03874">
        <ele>566.745213</ele>
        <time>2022-03-08T08:26:50.700Z</time>
      </trkpt>
      <trkpt lat="42.50548" lon="24.03858">
        <ele>566.047752</ele>
        <time>2022-03-08T08:26:52.731Z</time>
      </trkpt>
      <trkpt lat="42.5055" lon="24.03842">
        <ele>565.369035</ele>
        <time>2022-03-08T08:26:54.719Z</time>
      </trkpt>
      <trkpt lat="42.50551" lon="24.03828">
        <ele>564.760975</ele>
        <time>2022-03-08T08:26:56.775Z</time>
      </trkpt>
      <trkpt lat="42.50553" lon="24.03814">
        <ele>564.133436</ele>
        <time>2022-03-08T08:26:58.719Z</time>
      </trkpt>
      <trkpt lat="42.50555" lon="24.03798">
        <ele>563.441283</ele>
        <time>2022-03-08T08:27:00.716Z</time>
      </trkpt>
      <trkpt lat="42.50557" lon="24.03783">
        <ele>562.783901</ele>
        <time>2022-03-08T08:27:02.724Z</time>
      </trkpt>
      <trkpt lat="42.50559" lon="24.03767">
        <ele>562.053794</ele>
        <time>2022-03-08T08:27:04.728Z</time>
      </trkpt>
      <trkpt lat="42.50561" lon="24.0375">
        <ele>561.321373</ele>
        <time>2022-03-08T08:27:06.708Z</time>
      </trkpt>
      <trkpt lat="42.50564" lon="24.03733">
        <ele>560.551324</ele>
        <time>2022-03-08T08:27:08.722Z</time>
      </trkpt>
      <trkpt lat="42.50569" lon="24.03715">
        <ele>559.730528</ele>
        <time>2022-03-08T08:27:10.728Z</time>
      </trkpt>
      <trkpt lat="42.50576" lon="24.03696">
        <ele>558.830696</ele>
        <time>2022-03-08T08:27:12.755Z</time>
      </trkpt>
      <trkpt lat="42.50585" lon="24.03677">
        <ele>558.073795</ele>
        <time>2022-03-08T08:27:14.713Z</time>
      </trkpt>
      <trkpt lat="42.50591" lon="24.0366">
        <ele>557.547656</ele>
        <time>2022-03-08T08:27:16.724Z</time>
      </trkpt>
      <trkpt lat="42.50599" lon="24.03641">
        <ele>556.988325</ele>
        <time>2022-03-08T08:27:18.731Z</time>
      </trkpt>
      <trkpt lat="42.50607" lon="24.03626">
        <ele>556.486171</ele>
        <time>2022-03-08T08:27:20.722Z</time>
      </trkpt>
      <trkpt lat="42.50611" lon="24.03612">
        <ele>556.088597</ele>
        <time>2022-03-08T08:27:22.712Z</time>
      </trkpt>
      <trkpt lat="42.50614" lon="24.03596">
        <ele>555.657588</ele>
        <time>2022-03-08T08:27:24.700Z</time>
      </trkpt>
      <trkpt lat="42.50618" lon="24.03578">
        <ele>555.150271</ele>
        <time>2022-03-08T08:27:26.728Z</time>
      </trkpt>
      <trkpt lat="42.50625" lon="24.03558">
        <ele>554.572533</ele>
        <time>2022-03-08T08:27:28.704Z</time>
      </trkpt>
      <trkpt lat="42.5063" lon="24.03539">
        <ele>554.025258</ele>
        <time>2022-03-08T08:27:30.730Z</time>
      </trkpt>
      <trkpt lat="42.50637" lon="24.03519">
        <ele>553.451448</ele>
        <time>2022-03-08T08:27:32.723Z</time>
      </trkpt>
      <trkpt lat="42.50644" lon="24.03499">
        <ele>552.855254</ele>
        <time>2022-03-08T08:27:34.710Z</time>
      </trkpt>
      <trkpt lat="42.50649" lon="24.03478">
        <ele>552.261651</ele>
        <time>2022-03-08T08:27:36.726Z</time>
      </trkpt>
      <trkpt lat="42.50656" lon="24.03456">
        <ele>551.585872</ele>
        <time>2022-03-08T08:27:38.715Z</time>
      </trkpt>
      <trkpt lat="42.50661" lon="24.03434">
        <ele>550.82769</ele>
        <time>2022-03-08T08:27:40.746Z</time>
      </trkpt>
      <trkpt lat="42.50665" lon="24.0341">
        <ele>550.039766</ele>
        <time>2022-03-08T08:27:42.724Z</time>
      </trkpt>
      <trkpt lat="42.50667" lon="24.03398">
        <ele>549.643972</ele>
        <time>2022-03-08T08:27:43.732Z</time>
      </trkpt>
      <trkpt lat="42.5067" lon="24.03376">
        <ele>548.908227</ele>
        <time>2022-03-08T08:27:45.726Z</time>
      </trkpt>
      <trkpt lat="42.50673" lon="24.03356">
        <ele>548.262788</ele>
        <time>2022-03-08T08:27:47.712Z</time>
      </trkpt>
      <trkpt lat="42.50675" lon="24.03338">
        <ele>547.68286</ele>
        <time>2022-03-08T08:27:49.720Z</time>
      </trkpt>
      <trkpt lat="42.50677" lon="24.03321">
        <ele>547.116323</ele>
        <time>2022-03-08T08:27:51.713Z</time>
      </trkpt>
      <trkpt lat="42.50679" lon="24.03304">
        <ele>546.573725</ele>
        <time>2022-03-08T08:27:53.707Z</time>
      </trkpt>
      <trkpt lat="42.50682" lon="24.03285">
        <ele>545.962999</ele>
        <time>2022-03-08T08:27:55.713Z</time>
      </trkpt>
      <trkpt lat="42.50685" lon="24.03266">
        <ele>545.323878</ele>
        <time>2022-03-08T08:27:57.711Z</time>
      </trkpt>
      <trkpt lat="42.50688" lon="24.03246">
        <ele>544.65945</ele>
        <time>2022-03-08T08:27:59.703Z</time>
      </trkpt>
      <trkpt lat="42.50691" lon="24.03225">
        <ele>544.041251</ele>
        <time>2022-03-08T08:28:01.719Z</time>
      </trkpt>
      <trkpt lat="42.50697" lon="24.03204">
        <ele>543.962224</ele>
        <time>2022-03-08T08:28:03.734Z</time>
      </trkpt>
      <trkpt lat="42.50701" lon="24.03184">
        <ele>543.883128</ele>
        <time>2022-03-08T08:28:05.719Z</time>
      </trkpt>
      <trkpt lat="42.50706" lon="24.03163">
        <ele>543.802664</ele>
        <time>2022-03-08T08:28:07.746Z</time>
      </trkpt>
      <trkpt lat="42.5071" lon="24.03142">
        <ele>543.722017</ele>
        <time>2022-03-08T08:28:09.720Z</time>
      </trkpt>
      <trkpt lat="42.50714" lon="24.0312">
        <ele>543.639742</ele>
        <time>2022-03-08T08:28:11.727Z</time>
      </trkpt>
      <trkpt lat="42.50718" lon="24.03098">
        <ele>543.55628</ele>
        <time>2022-03-08T08:28:13.713Z</time>
      </trkpt>
      <trkpt lat="42.50721" lon="24.03075">
        <ele>543.470824</ele>
        <time>2022-03-08T08:28:15.724Z</time>
      </trkpt>
      <trkpt lat="42.50724" lon="24.03054">
        <ele>543.39041</ele>
        <time>2022-03-08T08:28:17.804Z</time>
      </trkpt>
      <trkpt lat="42.50726" lon="24.03034">
        <ele>543.317166</ele>
        <time>2022-03-08T08:28:19.728Z</time>
      </trkpt>
      <trkpt lat="42.5073" lon="24.03015">
        <ele>543.245258</ele>
        <time>2022-03-08T08:28:21.715Z</time>
      </trkpt>
      <trkpt lat="42.50732" lon="24.02997">
        <ele>543.179241</ele>
        <time>2022-03-08T08:28:23.763Z</time>
      </trkpt>
      <trkpt lat="42.50733" lon="24.0298">
        <ele>542.72892</ele>
        <time>2022-03-08T08:28:25.740Z</time>
      </trkpt>
      <trkpt lat="42.50728" lon="24.02964">
        <ele>542.035731</ele>
        <time>2022-03-08T08:28:27.748Z</time>
      </trkpt>
      <trkpt lat="42.50721" lon="24.02947">
        <ele>541.241</ele>
        <time>2022-03-08T08:28:29.705Z</time>
      </trkpt>
      <trkpt lat="42.50711" lon="24.02928">
        <ele>540.309667</ele>
        <time>2022-03-08T08:28:31.696Z</time>
      </trkpt>
      <trkpt lat="42.50702" lon="24.02913">
        <ele>539.504502</ele>
        <time>2022-03-08T08:28:33.711Z</time>
      </trkpt>
      <trkpt lat="42.50692" lon="24.029">
        <ele>538.801965</ele>
        <time>2022-03-08T08:28:35.707Z</time>
      </trkpt>
      <trkpt lat="42.50683" lon="24.02891">
        <ele>538.150218</ele>
        <time>2022-03-08T08:28:37.704Z</time>
      </trkpt>
      <trkpt lat="42.50675" lon="24.02883">
        <ele>537.607308</ele>
        <time>2022-03-08T08:28:39.724Z</time>
      </trkpt>
      <trkpt lat="42.50665" lon="24.0287">
        <ele>536.872844</ele>
        <time>2022-03-08T08:28:42.746Z</time>
      </trkpt>
      <trkpt lat="42.50659" lon="24.02861">
        <ele>536.375892</ele>
        <time>2022-03-08T08:28:44.692Z</time>
      </trkpt>
      <trkpt lat="42.5065" lon="24.02847">
        <ele>535.638407</ele>
        <time>2022-03-08T08:28:47.726Z</time>
      </trkpt>
      <trkpt lat="42.50644" lon="24.02838">
        <ele>535.13512</ele>
        <time>2022-03-08T08:28:49.695Z</time>
      </trkpt>
      <trkpt lat="42.50635" lon="24.02825">
        <ele>534.419071</ele>
        <time>2022-03-08T08:28:52.714Z</time>
      </trkpt>
      <trkpt lat="42.50629" lon="24.02812">
        <ele>533.804137</ele>
        <time>2022-03-08T08:28:55.691Z</time>
      </trkpt>
      <trkpt lat="42.50626" lon="24.02799">
        <ele>533.266046</ele>
        <time>2022-03-08T08:28:58.703Z</time>
      </trkpt>
      <trkpt lat="42.50621" lon="24.02785">
        <ele>532.783035</ele>
        <time>2022-03-08T08:29:01.707Z</time>
      </trkpt>
      <trkpt lat="42.50619" lon="24.02767">
        <ele>532.236745</ele>
        <time>2022-03-08T08:29:04.712Z</time>
      </trkpt>
      <trkpt lat="42.50617" lon="24.02751">
        <ele>531.741804</ele>
        <time>2022-03-08T08:29:07.714Z</time>
      </trkpt>
      <trkpt lat="42.50614" lon="24.02735">
        <ele>531.219532</ele>
        <time>2022-03-08T08:29:10.708Z</time>
      </trkpt>
      <trkpt lat="42.5061" lon="24.02719">
        <ele>530.690244</ele>
        <time>2022-03-08T08:29:13.754Z</time>
      </trkpt>
      <trkpt lat="42.50607" lon="24.02702">
        <ele>530.159684</ele>
        <time>2022-03-08T08:29:16.701Z</time>
      </trkpt>
      <trkpt lat="42.50606" lon="24.02688">
        <ele>529.748574</ele>
        <time>2022-03-08T08:29:18.704Z</time>
      </trkpt>
      <trkpt lat="42.50603" lon="24.02674">
        <ele>529.287941</ele>
        <time>2022-03-08T08:29:20.714Z</time>
      </trkpt>
      <trkpt lat="42.50599" lon="24.0266">
        <ele>528.823555</ele>
        <time>2022-03-08T08:29:22.712Z</time>
      </trkpt>
      <trkpt lat="42.50596" lon="24.02646">
        <ele>528.371848</ele>
        <time>2022-03-08T08:29:24.735Z</time>
      </trkpt>
      <trkpt lat="42.50593" lon="24.02633">
        <ele>527.960712</ele>
        <time>2022-03-08T08:29:26.705Z</time>
      </trkpt>
      <trkpt lat="42.5059" lon="24.02619">
        <ele>527.504798</ele>
        <time>2022-03-08T08:29:28.704Z</time>
      </trkpt>
      <trkpt lat="42.50585" lon="24.02606">
        <ele>527.066909</ele>
        <time>2022-03-08T08:29:30.693Z</time>
      </trkpt>
      <trkpt lat="42.50581" lon="24.02592">
        <ele>526.605977</ele>
        <time>2022-03-08T08:29:32.706Z</time>
      </trkpt>
      <trkpt lat="42.50577" lon="24.02579">
        <ele>526.166228</ele>
        <time>2022-03-08T08:29:34.718Z</time>
      </trkpt>
      <trkpt lat="42.50573" lon="24.02565">
        <ele>525.837339</ele>
        <time>2022-03-08T08:29:36.713Z</time>
      </trkpt>
      <trkpt lat="42.50571" lon="24.02552">
        <ele>525.908155</ele>
        <time>2022-03-08T08:29:38.713Z</time>
      </trkpt>
      <trkpt lat="42.50568" lon="24.02538">
        <ele>525.985983</ele>
        <time>2022-03-08T08:29:40.711Z</time>
      </trkpt>
      <trkpt lat="42.50564" lon="24.02524">
        <ele>526.066792</ele>
        <time>2022-03-08T08:29:42.703Z</time>
      </trkpt>
      <trkpt lat="42.50558" lon="24.0251">
        <ele>526.150732</ele>
        <time>2022-03-08T08:29:44.715Z</time>
      </trkpt>
      <trkpt lat="42.50553" lon="24.02496">
        <ele>526.229933</ele>
        <time>2022-03-08T08:29:46.732Z</time>
      </trkpt>
      <trkpt lat="42.5055" lon="24.02483">
        <ele>526.301704</ele>
        <time>2022-03-08T08:29:48.699Z</time>
      </trkpt>
      <trkpt lat="42.50548" lon="24.02471">
        <ele>526.367833</ele>
        <time>2022-03-08T08:29:50.704Z</time>
      </trkpt>
      <trkpt lat="42.50548" lon="24.02454">
        <ele>526.458375</ele>
        <time>2022-03-08T08:29:53.708Z</time>
      </trkpt>
      <trkpt lat="42.50546" lon="24.02441">
        <ele>526.528322</ele>
        <time>2022-03-08T08:29:55.712Z</time>
      </trkpt>
      <trkpt lat="42.50544" lon="24.02429">
        <ele>526.594535</ele>
        <time>2022-03-08T08:29:57.721Z</time>
      </trkpt>
      <trkpt lat="42.5054" lon="24.02412">
        <ele>526.686601</ele>
        <time>2022-03-08T08:30:00.735Z</time>
      </trkpt>
      <trkpt lat="42.50537" lon="24.02398">
        <ele>526.762206</ele>
        <time>2022-03-08T08:30:03.706Z</time>
      </trkpt>
      <trkpt lat="42.50537" lon="24.02384">
        <ele>526.836407</ele>
        <time>2022-03-08T08:30:06.713Z</time>
      </trkpt>
      <trkpt lat="42.50535" lon="24.02368">
        <ele>526.922598</ele>
        <time>2022-03-08T08:30:09.701Z</time>
      </trkpt>
      <trkpt lat="42.50533" lon="24.02351">
        <ele>527.013804</ele>
        <time>2022-03-08T08:30:12.734Z</time>
      </trkpt>
      <trkpt lat="42.50531" lon="24.02336">
        <ele>527.094103</ele>
        <time>2022-03-08T08:30:15.715Z</time>
      </trkpt>
      <trkpt lat="42.5053" lon="24.02322">
        <ele>527.274743</ele>
        <time>2022-03-08T08:30:18.714Z</time>
      </trkpt>
      <trkpt lat="42.5053" lon="24.02308">
        <ele>527.492593</ele>
        <time>2022-03-08T08:30:21.698Z</time>
      </trkpt>
      <trkpt lat="42.50528" lon="24.0229">
        <ele>527.767225</ele>
        <time>2022-03-08T08:30:24.715Z</time>
      </trkpt>
      <trkpt lat="42.50526" lon="24.02276">
        <ele>527.973444</ele>
        <time>2022-03-08T08:30:26.710Z</time>
      </trkpt>
      <trkpt lat="42.50523" lon="24.02264">
        <ele>528.168253</ele>
        <time>2022-03-08T08:30:28.713Z</time>
      </trkpt>
      <trkpt lat="42.50518" lon="24.02248">
        <ele>528.433837</ele>
        <time>2022-03-08T08:30:31.715Z</time>
      </trkpt>
      <trkpt lat="42.50512" lon="24.02237">
        <ele>528.636291</ele>
        <time>2022-03-08T08:30:33.743Z</time>
      </trkpt>
      <trkpt lat="42.50507" lon="24.02224">
        <ele>528.862747</ele>
        <time>2022-03-08T08:30:35.723Z</time>
      </trkpt>
      <trkpt lat="42.50501" lon="24.0221">
        <ele>529.09806</ele>
        <time>2022-03-08T08:30:37.714Z</time>
      </trkpt>
      <trkpt lat="42.50496" lon="24.02195">
        <ele>529.345869</ele>
        <time>2022-03-08T08:30:39.760Z</time>
      </trkpt>
      <trkpt lat="42.50489" lon="24.0218">
        <ele>529.605835</ele>
        <time>2022-03-08T08:30:41.703Z</time>
      </trkpt>
      <trkpt lat="42.50482" lon="24.02165">
        <ele>529.874576</ele>
        <time>2022-03-08T08:30:43.706Z</time>
      </trkpt>
      <trkpt lat="42.50475" lon="24.0215">
        <ele>530.153232</ele>
        <time>2022-03-08T08:30:45.706Z</time>
      </trkpt>
      <trkpt lat="42.50467" lon="24.02135">
        <ele>530.431372</ele>
        <time>2022-03-08T08:30:47.717Z</time>
      </trkpt>
      <trkpt lat="42.5046" lon="24.0212">
        <ele>530.694419</ele>
        <time>2022-03-08T08:30:49.712Z</time>
      </trkpt>
      <trkpt lat="42.50454" lon="24.02106">
        <ele>530.264808</ele>
        <time>2022-03-08T08:30:51.708Z</time>
      </trkpt>
      <trkpt lat="42.50449" lon="24.02093">
        <ele>529.514768</ele>
        <time>2022-03-08T08:30:53.708Z</time>
      </trkpt>
      <trkpt lat="42.50444" lon="24.02078">
        <ele>528.711211</ele>
        <time>2022-03-08T08:30:55.716Z</time>
      </trkpt>
      <trkpt lat="42.50439" lon="24.02063">
        <ele>527.92639</ele>
        <time>2022-03-08T08:30:57.709Z</time>
      </trkpt>
      <trkpt lat="42.50435" lon="24.02047">
        <ele>527.121112</ele>
        <time>2022-03-08T08:30:59.720Z</time>
      </trkpt>
      <trkpt lat="42.50435" lon="24.0203">
        <ele>526.311417</ele>
        <time>2022-03-08T08:31:01.702Z</time>
      </trkpt>
      <trkpt lat="42.50435" lon="24.02013">
        <ele>525.482412</ele>
        <time>2022-03-08T08:31:03.711Z</time>
      </trkpt>
      <trkpt lat="42.50435" lon="24.01996">
        <ele>524.643712</ele>
        <time>2022-03-08T08:31:05.714Z</time>
      </trkpt>
      <trkpt lat="42.50434" lon="24.01978">
        <ele>523.769098</ele>
        <time>2022-03-08T08:31:07.724Z</time>
      </trkpt>
      <trkpt lat="42.50431" lon="24.01961">
        <ele>522.904428</ele>
        <time>2022-03-08T08:31:09.704Z</time>
      </trkpt>
      <trkpt lat="42.50428" lon="24.01943">
        <ele>522.033134</ele>
        <time>2022-03-08T08:31:11.711Z</time>
      </trkpt>
      <trkpt lat="42.50425" lon="24.01927">
        <ele>521.227697</ele>
        <time>2022-03-08T08:31:13.720Z</time>
      </trkpt>
      <trkpt lat="42.50419" lon="24.01911">
        <ele>520.383646</ele>
        <time>2022-03-08T08:31:15.715Z</time>
      </trkpt>
      <trkpt lat="42.50412" lon="24.01899">
        <ele>519.602949</ele>
        <time>2022-03-08T08:31:17.759Z</time>
      </trkpt>
      <trkpt lat="42.50406" lon="24.01885">
        <ele>518.889949</ele>
        <time>2022-03-08T08:31:19.705Z</time>
      </trkpt>
      <trkpt lat="42.50401" lon="24.01873">
        <ele>518.546702</ele>
        <time>2022-03-08T08:31:21.706Z</time>
      </trkpt>
      <trkpt lat="42.50398" lon="24.01859">
        <ele>518.17915</ele>
        <time>2022-03-08T08:31:23.712Z</time>
      </trkpt>
      <trkpt lat="42.50393" lon="24.01842">
        <ele>517.723773</ele>
        <time>2022-03-08T08:31:25.718Z</time>
      </trkpt>
      <trkpt lat="42.50388" lon="24.01823">
        <ele>517.23819</ele>
        <time>2022-03-08T08:31:27.708Z</time>
      </trkpt>
      <trkpt lat="42.50386" lon="24.01802">
        <ele>516.715033</ele>
        <time>2022-03-08T08:31:29.711Z</time>
      </trkpt>
      <trkpt lat="42.50385" lon="24.01779">
        <ele>516.149607</ele>
        <time>2022-03-08T08:31:31.710Z</time>
      </trkpt>
      <trkpt lat="42.50383" lon="24.01757">
        <ele>515.616119</ele>
        <time>2022-03-08T08:31:33.711Z</time>
      </trkpt>
      <trkpt lat="42.50382" lon="24.01741">
        <ele>515.207116</ele>
        <time>2022-03-08T08:31:35.713Z</time>
      </trkpt>
      <trkpt lat="42.50382" lon="24.01727">
        <ele>514.857394</ele>
        <time>2022-03-08T08:31:37.708Z</time>
      </trkpt>
      <trkpt lat="42.50383" lon="24.01712">
        <ele>514.488748</ele>
        <time>2022-03-08T08:31:39.703Z</time>
      </trkpt>
      <trkpt lat="42.50385" lon="24.01694">
        <ele>514.060589</ele>
        <time>2022-03-08T08:31:41.700Z</time>
      </trkpt>
      <trkpt lat="42.50387" lon="24.01675">
        <ele>513.579397</ele>
        <time>2022-03-08T08:31:43.705Z</time>
      </trkpt>
      <trkpt lat="42.5039" lon="24.01656">
        <ele>513.10399</ele>
        <time>2022-03-08T08:31:45.748Z</time>
      </trkpt>
      <trkpt lat="42.50391" lon="24.01639">
        <ele>512.447733</ele>
        <time>2022-03-08T08:31:47.730Z</time>
      </trkpt>
      <trkpt lat="42.50392" lon="24.01622">
        <ele>511.707992</ele>
        <time>2022-03-08T08:31:49.718Z</time>
      </trkpt>
      <trkpt lat="42.50394" lon="24.01605">
        <ele>510.922097</ele>
        <time>2022-03-08T08:31:51.731Z</time>
      </trkpt>
      <trkpt lat="42.50393" lon="24.01586">
        <ele>510.048408</ele>
        <time>2022-03-08T08:31:53.699Z</time>
      </trkpt>
      <trkpt lat="42.5039" lon="24.01567">
        <ele>509.174374</ele>
        <time>2022-03-08T08:31:55.712Z</time>
      </trkpt>
      <trkpt lat="42.50388" lon="24.01549">
        <ele>508.366961</ele>
        <time>2022-03-08T08:31:57.710Z</time>
      </trkpt>
      <trkpt lat="42.50385" lon="24.0153">
        <ele>507.504288</ele>
        <time>2022-03-08T08:31:59.709Z</time>
      </trkpt>
      <trkpt lat="42.50381" lon="24.01509">
        <ele>506.536771</ele>
        <time>2022-03-08T08:32:01.691Z</time>
      </trkpt>
      <trkpt lat="42.50378" lon="24.0149">
        <ele>505.638728</ele>
        <time>2022-03-08T08:32:03.706Z</time>
      </trkpt>
      <trkpt lat="42.50374" lon="24.01471">
        <ele>504.764558</ele>
        <time>2022-03-08T08:32:05.711Z</time>
      </trkpt>
      <trkpt lat="42.50371" lon="24.01453">
        <ele>503.945859</ele>
        <time>2022-03-08T08:32:07.720Z</time>
      </trkpt>
      <trkpt lat="42.50371" lon="24.01437">
        <ele>503.230647</ele>
        <time>2022-03-08T08:32:09.719Z</time>
      </trkpt>
      <trkpt lat="42.50374" lon="24.01424">
        <ele>502.611083</ele>
        <time>2022-03-08T08:32:11.714Z</time>
      </trkpt>
      <trkpt lat="42.50375" lon="24.01409">
        <ele>501.955025</ele>
        <time>2022-03-08T08:32:13.749Z</time>
      </trkpt>
      <trkpt lat="42.50375" lon="24.01396">
        <ele>501.763246</ele>
        <time>2022-03-08T08:32:15.729Z</time>
      </trkpt>
      <trkpt lat="42.50378" lon="24.0138">
        <ele>501.526676</ele>
        <time>2022-03-08T08:32:18.703Z</time>
      </trkpt>
      <trkpt lat="42.50377" lon="24.01365">
        <ele>501.308569</ele>
        <time>2022-03-08T08:32:21.700Z</time>
      </trkpt>
      <trkpt lat="42.50381" lon="24.01351">
        <ele>501.090104</ele>
        <time>2022-03-08T08:32:25.690Z</time>
      </trkpt>
      <trkpt lat="42.50386" lon="24.01338">
        <ele>500.877816</ele>
        <time>2022-03-08T08:32:29.707Z</time>
      </trkpt>
      <trkpt lat="42.50388" lon="24.01325">
        <ele>500.687856</ele>
        <time>2022-03-08T08:32:33.720Z</time>
      </trkpt>
      <trkpt lat="42.50386" lon="24.01311">
        <ele>500.473154</ele>
        <time>2022-03-08T08:32:37.710Z</time>
      </trkpt>
      <trkpt lat="42.50388" lon="24.01297">
        <ele>500.272511</ele>
        <time>2022-03-08T08:32:40.704Z</time>
      </trkpt>
      <trkpt lat="42.50389" lon="24.01284">
        <ele>500.085086</ele>
        <time>2022-03-08T08:32:43.732Z</time>
      </trkpt>
      <trkpt lat="42.50389" lon="24.01271">
        <ele>499.888951</ele>
        <time>2022-03-08T08:32:46.754Z</time>
      </trkpt>
      <trkpt lat="42.50389" lon="24.01253">
        <ele>499.637627</ele>
        <time>2022-03-08T08:32:49.724Z</time>
      </trkpt>
      <trkpt lat="42.50389" lon="24.01235">
        <ele>499.377432</ele>
        <time>2022-03-08T08:32:52.741Z</time>
      </trkpt>
      <trkpt lat="42.50392" lon="24.01221">
        <ele>499.156434</ele>
        <time>2022-03-08T08:32:54.699Z</time>
      </trkpt>
      <trkpt lat="42.50395" lon="24.01206">
        <ele>498.941317</ele>
        <time>2022-03-08T08:32:56.692Z</time>
      </trkpt>
      <trkpt lat="42.50395" lon="24.01193">
        <ele>498.748117</ele>
        <time>2022-03-08T08:32:58.717Z</time>
      </trkpt>
      <trkpt lat="42.50396" lon="24.01176">
        <ele>498.497501</ele>
        <time>2022-03-08T08:33:00.710Z</time>
      </trkpt>
      <trkpt lat="42.50399" lon="24.01159">
        <ele>498.241181</ele>
        <time>2022-03-08T08:33:02.699Z</time>
      </trkpt>
      <trkpt lat="42.50402" lon="24.0114">
        <ele>497.97936</ele>
        <time>2022-03-08T08:33:04.701Z</time>
      </trkpt>
      <trkpt lat="42.50404" lon="24.01122">
        <ele>497.712663</ele>
        <time>2022-03-08T08:33:06.818Z</time>
      </trkpt>
      <trkpt lat="42.50405" lon="24.01106">
        <ele>497.485794</ele>
        <time>2022-03-08T08:33:08.716Z</time>
      </trkpt>
      <trkpt lat="42.50406" lon="24.0109">
        <ele>497.257143</ele>
        <time>2022-03-08T08:33:10.705Z</time>
      </trkpt>
      <trkpt lat="42.50408" lon="24.01073">
        <ele>497.013282</ele>
        <time>2022-03-08T08:33:12.706Z</time>
      </trkpt>
      <trkpt lat="42.5041" lon="24.01053">
        <ele>496.733337</ele>
        <time>2022-03-08T08:33:14.691Z</time>
      </trkpt>
      <trkpt lat="42.5041" lon="24.01033">
        <ele>496.454305</ele>
        <time>2022-03-08T08:33:16.713Z</time>
      </trkpt>
      <trkpt lat="42.50411" lon="24.01015">
        <ele>496.18649</ele>
        <time>2022-03-08T08:33:18.713Z</time>
      </trkpt>
      <trkpt lat="42.50409" lon="24.00996">
        <ele>495.929307</ele>
        <time>2022-03-08T08:33:20.716Z</time>
      </trkpt>
      <trkpt lat="42.50407" lon="24.00977">
        <ele>495.651054</ele>
        <time>2022-03-08T08:33:22.706Z</time>
      </trkpt>
      <trkpt lat="42.50406" lon="24.00957">
        <ele>495.362662</ele>
        <time>2022-03-08T08:33:24.706Z</time>
      </trkpt>
      <trkpt lat="42.50408" lon="24.00936">
        <ele>495.069302</ele>
        <time>2022-03-08T08:33:26.700Z</time>
      </trkpt>
      <trkpt lat="42.50412" lon="24.00925">
        <ele>494.915834</ele>
        <time>2022-03-08T08:33:27.710Z</time>
      </trkpt>
      <trkpt lat="42.50417" lon="24.00905">
        <ele>494.696839</ele>
        <time>2022-03-08T08:33:29.710Z</time>
      </trkpt>
      <trkpt lat="42.50422" lon="24.00885">
        <ele>494.479264</ele>
        <time>2022-03-08T08:33:31.720Z</time>
      </trkpt>
      <trkpt lat="42.50425" lon="24.00866">
        <ele>494.27923</ele>
        <time>2022-03-08T08:33:33.719Z</time>
      </trkpt>
      <trkpt lat="42.50429" lon="24.00846">
        <ele>494.077604</ele>
        <time>2022-03-08T08:33:35.721Z</time>
      </trkpt>
      <trkpt lat="42.50433" lon="24.00826">
        <ele>493.865376</ele>
        <time>2022-03-08T08:33:37.725Z</time>
      </trkpt>
      <trkpt lat="42.50436" lon="24.00808">
        <ele>493.672966</ele>
        <time>2022-03-08T08:33:39.702Z</time>
      </trkpt>
      <trkpt lat="42.50439" lon="24.00792">
        <ele>493.500965</ele>
        <time>2022-03-08T08:33:41.735Z</time>
      </trkpt>
      <trkpt lat="42.5044" lon="24.00777">
        <ele>493.345388</ele>
        <time>2022-03-08T08:33:43.713Z</time>
      </trkpt>
      <trkpt lat="42.50443" lon="24.00762">
        <ele>493.190224</ele>
        <time>2022-03-08T08:33:45.725Z</time>
      </trkpt>
      <trkpt lat="42.50442" lon="24.00749">
        <ele>493.056204</ele>
        <time>2022-03-08T08:33:47.704Z</time>
      </trkpt>
      <trkpt lat="42.5044" lon="24.00734">
        <ele>492.906754</ele>
        <time>2022-03-08T08:33:50.720Z</time>
      </trkpt>
      <trkpt lat="42.50436" lon="24.00722">
        <ele>492.771625</ele>
        <time>2022-03-08T08:33:54.721Z</time>
      </trkpt>
      <trkpt lat="42.50428" lon="24.0071">
        <ele>492.606993</ele>
        <time>2022-03-08T08:33:59.712Z</time>
      </trkpt>
      <trkpt lat="42.50421" lon="24.00701">
        <ele>492.470621</ele>
        <time>2022-03-08T08:34:03.709Z</time>
      </trkpt>
      <trkpt lat="42.50413" lon="24.0069">
        <ele>491.875928</ele>
        <time>2022-03-08T08:34:07.716Z</time>
      </trkpt>
      <trkpt lat="42.50406" lon="24.00678">
        <ele>491.258085</ele>
        <time>2022-03-08T08:34:11.704Z</time>
      </trkpt>
      <trkpt lat="42.50401" lon="24.00665">
        <ele>490.7037</ele>
        <time>2022-03-08T08:34:15.713Z</time>
      </trkpt>
      <trkpt lat="42.50397" lon="24.00654">
        <ele>490.235234</ele>
        <time>2022-03-08T08:34:18.713Z</time>
      </trkpt>
      <trkpt lat="42.50392" lon="24.00642">
        <ele>489.722122</ele>
        <time>2022-03-08T08:34:21.708Z</time>
      </trkpt>
      <trkpt lat="42.50388" lon="24.00629">
        <ele>489.172579</ele>
        <time>2022-03-08T08:34:24.714Z</time>
      </trkpt>
      <trkpt lat="42.50384" lon="24.00614">
        <ele>488.547956</ele>
        <time>2022-03-08T08:34:27.717Z</time>
      </trkpt>
      <trkpt lat="42.5038" lon="24.00598">
        <ele>487.938541</ele>
        <time>2022-03-08T08:34:30.759Z</time>
      </trkpt>
      <trkpt lat="42.50377" lon="24.00581">
        <ele>487.269086</ele>
        <time>2022-03-08T08:34:33.703Z</time>
      </trkpt>
      <trkpt lat="42.50375" lon="24.00569">
        <ele>486.786185</ele>
        <time>2022-03-08T08:34:35.714Z</time>
      </trkpt>
      <trkpt lat="42.50372" lon="24.00557">
        <ele>486.274535</ele>
        <time>2022-03-08T08:34:37.706Z</time>
      </trkpt>
      <trkpt lat="42.50368" lon="24.00543">
        <ele>485.73446</ele>
        <time>2022-03-08T08:34:39.706Z</time>
      </trkpt>
      <trkpt lat="42.50365" lon="24.0053">
        <ele>485.172839</ele>
        <time>2022-03-08T08:34:41.745Z</time>
      </trkpt>
      <trkpt lat="42.50361" lon="24.00516">
        <ele>484.602234</ele>
        <time>2022-03-08T08:34:43.740Z</time>
      </trkpt>
      <trkpt lat="42.50358" lon="24.00501">
        <ele>484.0123</ele>
        <time>2022-03-08T08:34:45.710Z</time>
      </trkpt>
      <trkpt lat="42.50356" lon="24.00485">
        <ele>483.390646</ele>
        <time>2022-03-08T08:34:47.711Z</time>
      </trkpt>
      <trkpt lat="42.50354" lon="24.00468">
        <ele>482.828278</ele>
        <time>2022-03-08T08:34:49.715Z</time>
      </trkpt>
      <trkpt lat="42.50353" lon="24.0045">
        <ele>482.302873</ele>
        <time>2022-03-08T08:34:51.695Z</time>
      </trkpt>
      <trkpt lat="42.50353" lon="24.00431">
        <ele>481.781022</ele>
        <time>2022-03-08T08:34:53.719Z</time>
      </trkpt>
      <trkpt lat="42.50352" lon="24.00414">
        <ele>481.293037</ele>
        <time>2022-03-08T08:34:55.708Z</time>
      </trkpt>
      <trkpt lat="42.50351" lon="24.004">
        <ele>480.867423</ele>
        <time>2022-03-08T08:34:57.697Z</time>
      </trkpt>
      <trkpt lat="42.5035" lon="24.00386">
        <ele>480.48527</ele>
        <time>2022-03-08T08:34:59.709Z</time>
      </trkpt>
      <trkpt lat="42.5035" lon="24.00371">
        <ele>480.052481</ele>
        <time>2022-03-08T08:35:01.709Z</time>
      </trkpt>
      <trkpt lat="42.50351" lon="24.00356">
        <ele>479.630027</ele>
        <time>2022-03-08T08:35:03.757Z</time>
      </trkpt>
      <trkpt lat="42.50351" lon="24.00343">
        <ele>479.237304</ele>
        <time>2022-03-08T08:35:05.691Z</time>
      </trkpt>
      <trkpt lat="42.5035" lon="24.00325">
        <ele>478.726779</ele>
        <time>2022-03-08T08:35:08.694Z</time>
      </trkpt>
      <trkpt lat="42.5035" lon="24.00313">
        <ele>478.374235</ele>
        <time>2022-03-08T08:35:10.699Z</time>
      </trkpt>
      <trkpt lat="42.5035" lon="24.00298">
        <ele>477.964373</ele>
        <time>2022-03-08T08:35:12.737Z</time>
      </trkpt>
      <trkpt lat="42.5035" lon="24.00284">
        <ele>477.557322</ele>
        <time>2022-03-08T08:35:14.711Z</time>
      </trkpt>
      <trkpt lat="42.5035" lon="24.00271">
        <ele>477.170329</ele>
        <time>2022-03-08T08:35:16.720Z</time>
      </trkpt>
      <trkpt lat="42.50348" lon="24.00258">
        <ele>476.808117</ele>
        <time>2022-03-08T08:35:18.710Z</time>
      </trkpt>
      <trkpt lat="42.50343" lon="24.00243">
        <ele>476.317586</ele>
        <time>2022-03-08T08:35:21.721Z</time>
      </trkpt>
      <trkpt lat="42.50336" lon="24.00229">
        <ele>475.821729</ele>
        <time>2022-03-08T08:35:24.874Z</time>
      </trkpt>
      <trkpt lat="42.50332" lon="24.00217">
        <ele>475.422687</ele>
        <time>2022-03-08T08:35:26.707Z</time>
      </trkpt>
      <trkpt lat="42.50327" lon="24.00204">
        <ele>474.981929</ele>
        <time>2022-03-08T08:35:28.712Z</time>
      </trkpt>
      <trkpt lat="42.50322" lon="24.00191">
        <ele>474.532437</ele>
        <time>2022-03-08T08:35:30.705Z</time>
      </trkpt>
      <trkpt lat="42.50317" lon="24.0018">
        <ele>474.117004</ele>
        <time>2022-03-08T08:35:32.706Z</time>
      </trkpt>
      <trkpt lat="42.50313" lon="24.00169">
        <ele>473.741681</ele>
        <time>2022-03-08T08:35:34.715Z</time>
      </trkpt>
      <trkpt lat="42.50308" lon="24.00153">
        <ele>473.21724</ele>
        <time>2022-03-08T08:35:37.695Z</time>
      </trkpt>
      <trkpt lat="42.50305" lon="24.00138">
        <ele>472.751527</ele>
        <time>2022-03-08T08:35:40.714Z</time>
      </trkpt>
      <trkpt lat="42.50298" lon="24.00122">
        <ele>472.180492</ele>
        <time>2022-03-08T08:35:43.728Z</time>
      </trkpt>
      <trkpt lat="42.50292" lon="24.00112">
        <ele>471.794662</ele>
        <time>2022-03-08T08:35:45.715Z</time>
      </trkpt>
      <trkpt lat="42.50285" lon="24.00097">
        <ele>471.251613</ele>
        <time>2022-03-08T08:35:48.700Z</time>
      </trkpt>
      <trkpt lat="42.5028" lon="24.00082">
        <ele>470.740131</ele>
        <time>2022-03-08T08:35:51.711Z</time>
      </trkpt>
      <trkpt lat="42.50277" lon="24.00066">
        <ele>470.239118</ele>
        <time>2022-03-08T08:35:54.710Z</time>
      </trkpt>
      <trkpt lat="42.50279" lon="24.0005">
        <ele>469.749698</ele>
        <time>2022-03-08T08:35:58.738Z</time>
      </trkpt>
      <trkpt lat="42.50288" lon="24.00043">
        <ele>469.32639</ele>
        <time>2022-03-08T08:36:01.777Z</time>
      </trkpt>
      <trkpt lat="42.50298" lon="24.00038">
        <ele>468.890067</ele>
        <time>2022-03-08T08:36:07.726Z</time>
      </trkpt>
      <trkpt lat="42.50306" lon="24.00034">
        <ele>468.591579</ele>
        <time>2022-03-08T08:36:12.723Z</time>
      </trkpt>
      <trkpt lat="42.50316" lon="24.0003">
        <ele>468.389624</ele>
        <time>2022-03-08T08:36:17.722Z</time>
      </trkpt>
      <trkpt lat="42.50322" lon="24.00019">
        <ele>468.179178</ele>
        <time>2022-03-08T08:36:23.725Z</time>
      </trkpt>
      <trkpt lat="42.50323" lon="24.00007">
        <ele>467.986256</ele>
        <time>2022-03-08T08:36:28.702Z</time>
      </trkpt>
      <trkpt lat="42.5033" lon="23.99995">
        <ele>467.747536</ele>
        <time>2022-03-08T08:36:33.705Z</time>
      </trkpt>
      <trkpt lat="42.50341" lon="23.99994">
        <ele>467.51279</ele>
        <time>2022-03-08T08:36:36.772Z</time>
      </trkpt>
      <trkpt lat="42.5035" lon="23.99997">
        <ele>467.318554</ele>
        <time>2022-03-08T08:36:39.702Z</time>
      </trkpt>
      <trkpt lat="42.50361" lon="24.00001">
        <ele>467.085899</ele>
        <time>2022-03-08T08:36:44.717Z</time>
      </trkpt>
      <trkpt lat="42.5037" lon="24.00001">
        <ele>466.882516</ele>
        <time>2022-03-08T08:36:48.709Z</time>
      </trkpt>
      <trkpt lat="42.5038" lon="24.00003">
        <ele>466.672068</ele>
        <time>2022-03-08T08:36:51.700Z</time>
      </trkpt>
      <trkpt lat="42.5039" lon="24.00004">
        <ele>466.479252</ele>
        <time>2022-03-08T08:36:54.710Z</time>
      </trkpt>
      <trkpt lat="42.50401" lon="24.00001">
        <ele>466.236512</ele>
        <time>2022-03-08T08:36:58.710Z</time>
      </trkpt>
      <trkpt lat="42.5041" lon="23.99997">
        <ele>466.047477</ele>
        <time>2022-03-08T08:37:01.706Z</time>
      </trkpt>
      <trkpt lat="42.50421" lon="23.99993">
        <ele>465.794686</ele>
        <time>2022-03-08T08:37:05.704Z</time>
      </trkpt>
      <trkpt lat="42.50431" lon="23.99989">
        <ele>465.574979</ele>
        <time>2022-03-08T08:37:08.722Z</time>
      </trkpt>
      <trkpt lat="42.50441" lon="23.99987">
        <ele>465.376027</ele>
        <time>2022-03-08T08:37:11.706Z</time>
      </trkpt>
      <trkpt lat="42.50451" lon="23.99984">
        <ele>465.147099</ele>
        <time>2022-03-08T08:37:14.708Z</time>
      </trkpt>
      <trkpt lat="42.50462" lon="23.99979">
        <ele>464.912463</ele>
        <time>2022-03-08T08:37:17.718Z</time>
      </trkpt>
      <trkpt lat="42.5047" lon="23.99973">
        <ele>464.682481</ele>
        <time>2022-03-08T08:37:20.690Z</time>
      </trkpt>
      <trkpt lat="42.5048" lon="23.99966">
        <ele>464.419767</ele>
        <time>2022-03-08T08:37:23.683Z</time>
      </trkpt>
      <trkpt lat="42.50488" lon="23.99959">
        <ele>464.178493</ele>
        <time>2022-03-08T08:37:26.745Z</time>
      </trkpt>
      <trkpt lat="42.50499" lon="23.99955">
        <ele>463.904413</ele>
        <time>2022-03-08T08:37:29.734Z</time>
      </trkpt>
      <trkpt lat="42.50511" lon="23.99949">
        <ele>463.593376</ele>
        <time>2022-03-08T08:37:32.714Z</time>
      </trkpt>
      <trkpt lat="42.50521" lon="23.99944">
        <ele>463.341862</ele>
        <time>2022-03-08T08:37:35.711Z</time>
      </trkpt>
      <trkpt lat="42.50531" lon="23.99936">
        <ele>463.058958</ele>
        <time>2022-03-08T08:37:39.711Z</time>
      </trkpt>
      <trkpt lat="42.5054" lon="23.9993">
        <ele>462.806986</ele>
        <time>2022-03-08T08:37:44.719Z</time>
      </trkpt>
      <trkpt lat="42.5055" lon="23.99928">
        <ele>462.566549</ele>
        <time>2022-03-08T08:37:48.752Z</time>
      </trkpt>
      <trkpt lat="42.50561" lon="23.99929">
        <ele>462.280293</ele>
        <time>2022-03-08T08:37:52.697Z</time>
      </trkpt>
      <trkpt lat="42.50571" lon="23.9993">
        <ele>462.052857</ele>
        <time>2022-03-08T08:37:55.719Z</time>
      </trkpt>
      <trkpt lat="42.5058" lon="23.99933">
        <ele>461.814269</ele>
        <time>2022-03-08T08:37:59.710Z</time>
      </trkpt>
      <trkpt lat="42.5059" lon="23.99936">
        <ele>461.563387</ele>
        <time>2022-03-08T08:38:03.734Z</time>
      </trkpt>
      <trkpt lat="42.50601" lon="23.99937">
        <ele>461.304332</ele>
        <time>2022-03-08T08:38:07.696Z</time>
      </trkpt>
      <trkpt lat="42.50612" lon="23.99936">
        <ele>461.028034</ele>
        <time>2022-03-08T08:38:10.722Z</time>
      </trkpt>
      <trkpt lat="42.50624" lon="23.99935">
        <ele>460.727257</ele>
        <time>2022-03-08T08:38:13.711Z</time>
      </trkpt>
      <trkpt lat="42.50635" lon="23.99935">
        <ele>460.500856</ele>
        <time>2022-03-08T08:38:16.745Z</time>
      </trkpt>
      <trkpt lat="42.50645" lon="23.99935">
        <ele>460.407252</ele>
        <time>2022-03-08T08:38:19.710Z</time>
      </trkpt>
      <trkpt lat="42.50656" lon="23.99931">
        <ele>460.303976</ele>
        <time>2022-03-08T08:38:22.702Z</time>
      </trkpt>
      <trkpt lat="42.50666" lon="23.99931">
        <ele>460.207584</ele>
        <time>2022-03-08T08:38:25.708Z</time>
      </trkpt>
      <trkpt lat="42.50677" lon="23.99931">
        <ele>460.109392</ele>
        <time>2022-03-08T08:38:28.708Z</time>
      </trkpt>
      <trkpt lat="42.50687" lon="23.99931">
        <ele>460.019421</ele>
        <time>2022-03-08T08:38:31.711Z</time>
      </trkpt>
      <trkpt lat="42.50698" lon="23.9993">
        <ele>459.918949</ele>
        <time>2022-03-08T08:38:34.709Z</time>
      </trkpt>
      <trkpt lat="42.50708" lon="23.9993">
        <ele>459.822557</ele>
        <time>2022-03-08T08:38:37.711Z</time>
      </trkpt>
      <trkpt lat="42.50718" lon="23.9993">
        <ele>459.729871</ele>
        <time>2022-03-08T08:38:40.718Z</time>
      </trkpt>
      <trkpt lat="42.50728" lon="23.9993">
        <ele>459.644312</ele>
        <time>2022-03-08T08:38:43.720Z</time>
      </trkpt>
      <trkpt lat="42.50737" lon="23.99933">
        <ele>459.554478</ele>
        <time>2022-03-08T08:38:46.725Z</time>
      </trkpt>
      <trkpt lat="42.50748" lon="23.99935">
        <ele>459.454625</ele>
        <time>2022-03-08T08:38:49.784Z</time>
      </trkpt>
      <trkpt lat="42.50758" lon="23.99937">
        <ele>459.361964</ele>
        <time>2022-03-08T08:38:52.708Z</time>
      </trkpt>
      <trkpt lat="42.50767" lon="23.99937">
        <ele>459.275704</ele>
        <time>2022-03-08T08:38:55.695Z</time>
      </trkpt>
      <trkpt lat="42.50779" lon="23.99937">
        <ele>459.169202</ele>
        <time>2022-03-08T08:38:58.705Z</time>
      </trkpt>
      <trkpt lat="42.5079" lon="23.99941">
        <ele>459.067703</ele>
        <time>2022-03-08T08:39:01.715Z</time>
      </trkpt>
      <trkpt lat="42.50799" lon="23.99946">
        <ele>458.971991</ele>
        <time>2022-03-08T08:39:04.717Z</time>
      </trkpt>
      <trkpt lat="42.5081" lon="23.9995">
        <ele>458.872793</ele>
        <time>2022-03-08T08:39:07.711Z</time>
      </trkpt>
      <trkpt lat="42.50821" lon="23.99954">
        <ele>458.806462</ele>
        <time>2022-03-08T08:39:10.723Z</time>
      </trkpt>
      <trkpt lat="42.50832" lon="23.99958">
        <ele>458.740811</ele>
        <time>2022-03-08T08:39:13.714Z</time>
      </trkpt>
      <trkpt lat="42.50843" lon="23.9996">
        <ele>458.682142</ele>
        <time>2022-03-08T08:39:16.693Z</time>
      </trkpt>
      <trkpt lat="42.50854" lon="23.99963">
        <ele>458.617806</ele>
        <time>2022-03-08T08:39:19.714Z</time>
      </trkpt>
      <trkpt lat="42.50866" lon="23.99967">
        <ele>458.54839</ele>
        <time>2022-03-08T08:39:22.739Z</time>
      </trkpt>
      <trkpt lat="42.50876" lon="23.99969">
        <ele>458.489337</ele>
        <time>2022-03-08T08:39:25.692Z</time>
      </trkpt>
      <trkpt lat="42.50887" lon="23.99972">
        <ele>458.426876</ele>
        <time>2022-03-08T08:39:28.695Z</time>
      </trkpt>
      <trkpt lat="42.50899" lon="23.99976">
        <ele>458.359415</ele>
        <time>2022-03-08T08:39:31.715Z</time>
      </trkpt>
      <trkpt lat="42.50908" lon="23.99981">
        <ele>458.304879</ele>
        <time>2022-03-08T08:39:33.733Z</time>
      </trkpt>
      <trkpt lat="42.50918" lon="23.99986">
        <ele>458.244374</ele>
        <time>2022-03-08T08:39:36.729Z</time>
      </trkpt>
      <trkpt lat="42.50927" lon="23.9999">
        <ele>458.193717</ele>
        <time>2022-03-08T08:39:39.752Z</time>
      </trkpt>
      <trkpt lat="42.50936" lon="23.99995">
        <ele>458.135501</ele>
        <time>2022-03-08T08:39:42.714Z</time>
      </trkpt>
      <trkpt lat="42.50945" lon="23.99999">
        <ele>458.080817</ele>
        <time>2022-03-08T08:39:45.720Z</time>
      </trkpt>
      <trkpt lat="42.50954" lon="24.00005">
        <ele>458.026211</ele>
        <time>2022-03-08T08:39:48.727Z</time>
      </trkpt>
      <trkpt lat="42.50964" lon="24.00008">
        <ele>457.971506</ele>
        <time>2022-03-08T08:39:51.726Z</time>
      </trkpt>
      <trkpt lat="42.50973" lon="24.00011">
        <ele>457.918702</ele>
        <time>2022-03-08T08:39:54.699Z</time>
      </trkpt>
      <trkpt lat="42.50983" lon="24.00015">
        <ele>457.859537</ele>
        <time>2022-03-08T08:39:57.757Z</time>
      </trkpt>
      <trkpt lat="42.50994" lon="24.00018">
        <ele>457.415684</ele>
        <time>2022-03-08T08:40:00.712Z</time>
      </trkpt>
      <trkpt lat="42.51004" lon="24.00024">
        <ele>456.969816</ele>
        <time>2022-03-08T08:40:03.711Z</time>
      </trkpt>
      <trkpt lat="42.51015" lon="24.00028">
        <ele>456.513418</ele>
        <time>2022-03-08T08:40:06.716Z</time>
      </trkpt>
      <trkpt lat="42.51026" lon="24.00033">
        <ele>456.047563</ele>
        <time>2022-03-08T08:40:09.700Z</time>
      </trkpt>
      <trkpt lat="42.51037" lon="24.00038">
        <ele>455.588416</ele>
        <time>2022-03-08T08:40:12.708Z</time>
      </trkpt>
      <trkpt lat="42.51046" lon="24.00044">
        <ele>455.19043</ele>
        <time>2022-03-08T08:40:15.714Z</time>
      </trkpt>
      <trkpt lat="42.51056" lon="24.00048">
        <ele>454.756794</ele>
        <time>2022-03-08T08:40:18.729Z</time>
      </trkpt>
      <trkpt lat="42.51066" lon="24.00052">
        <ele>454.348242</ele>
        <time>2022-03-08T08:40:21.711Z</time>
      </trkpt>
      <trkpt lat="42.51076" lon="24.00056">
        <ele>453.916281</ele>
        <time>2022-03-08T08:40:24.743Z</time>
      </trkpt>
      <trkpt lat="42.51087" lon="24.00061">
        <ele>453.476156</ele>
        <time>2022-03-08T08:40:27.712Z</time>
      </trkpt>
      <trkpt lat="42.51097" lon="24.00066">
        <ele>453.012081</ele>
        <time>2022-03-08T08:40:30.720Z</time>
      </trkpt>
      <trkpt lat="42.51108" lon="24.00071">
        <ele>452.550035</ele>
        <time>2022-03-08T08:40:33.708Z</time>
      </trkpt>
      <trkpt lat="42.51119" lon="24.00076">
        <ele>452.098336</ele>
        <time>2022-03-08T08:40:36.706Z</time>
      </trkpt>
      <trkpt lat="42.51128" lon="24.00081">
        <ele>451.700918</ele>
        <time>2022-03-08T08:40:39.705Z</time>
      </trkpt>
      <trkpt lat="42.51137" lon="24.00087">
        <ele>451.299189</ele>
        <time>2022-03-08T08:40:42.708Z</time>
      </trkpt>
      <trkpt lat="42.51145" lon="24.00093">
        <ele>450.933185</ele>
        <time>2022-03-08T08:40:45.704Z</time>
      </trkpt>
      <trkpt lat="42.51154" lon="24.00098">
        <ele>450.52212</ele>
        <time>2022-03-08T08:40:48.713Z</time>
      </trkpt>
      <trkpt lat="42.51165" lon="24.00101">
        <ele>450.040816</ele>
        <time>2022-03-08T08:40:51.718Z</time>
      </trkpt>
      <trkpt lat="42.51174" lon="24.00105">
        <ele>449.589955</ele>
        <time>2022-03-08T08:40:54.707Z</time>
      </trkpt>
      <trkpt lat="42.51183" lon="24.0011">
        <ele>449.176233</ele>
        <time>2022-03-08T08:40:57.738Z</time>
      </trkpt>
      <trkpt lat="42.51192" lon="24.00114">
        <ele>448.756281</ele>
        <time>2022-03-08T08:41:00.717Z</time>
      </trkpt>
      <trkpt lat="42.51201" lon="24.00117">
        <ele>448.325297</ele>
        <time>2022-03-08T08:41:03.751Z</time>
      </trkpt>
      <trkpt lat="42.51212" lon="24.00123">
        <ele>447.800318</ele>
        <time>2022-03-08T08:41:06.726Z</time>
      </trkpt>
      <trkpt lat="42.51223" lon="24.0013">
        <ele>447.264268</ele>
        <time>2022-03-08T08:41:09.733Z</time>
      </trkpt>
      <trkpt lat="42.51234" lon="24.00136">
        <ele>446.743441</ele>
        <time>2022-03-08T08:41:12.710Z</time>
      </trkpt>
      <trkpt lat="42.51244" lon="24.00143">
        <ele>446.216985</ele>
        <time>2022-03-08T08:41:15.732Z</time>
      </trkpt>
      <trkpt lat="42.51254" lon="24.0015">
        <ele>445.710911</ele>
        <time>2022-03-08T08:41:18.704Z</time>
      </trkpt>
      <trkpt lat="42.51266" lon="24.00155">
        <ele>445.147357</ele>
        <time>2022-03-08T08:41:21.700Z</time>
      </trkpt>
      <trkpt lat="42.51278" lon="24.00161">
        <ele>444.609217</ele>
        <time>2022-03-08T08:41:24.710Z</time>
      </trkpt>
      <trkpt lat="42.51288" lon="24.00167">
        <ele>444.088217</ele>
        <time>2022-03-08T08:41:27.711Z</time>
      </trkpt>
      <trkpt lat="42.51299" lon="24.00173">
        <ele>443.578408</ele>
        <time>2022-03-08T08:41:30.705Z</time>
      </trkpt>
      <trkpt lat="42.5131" lon="24.00177">
        <ele>443.075016</ele>
        <time>2022-03-08T08:41:33.703Z</time>
      </trkpt>
      <trkpt lat="42.5132" lon="24.00182">
        <ele>442.604419</ele>
        <time>2022-03-08T08:41:36.711Z</time>
      </trkpt>
      <trkpt lat="42.51329" lon="24.00187">
        <ele>443.281555</ele>
        <time>2022-03-08T08:41:39.703Z</time>
      </trkpt>
      <trkpt lat="42.51339" lon="24.00193">
        <ele>444.066018</ele>
        <time>2022-03-08T08:41:42.708Z</time>
      </trkpt>
      <trkpt lat="42.51349" lon="24.00198">
        <ele>444.878554</ele>
        <time>2022-03-08T08:41:45.712Z</time>
      </trkpt>
      <trkpt lat="42.51359" lon="24.00203">
        <ele>445.637814</ele>
        <time>2022-03-08T08:41:48.747Z</time>
      </trkpt>
      <trkpt lat="42.51368" lon="24.00208">
        <ele>446.390116</ele>
        <time>2022-03-08T08:41:51.702Z</time>
      </trkpt>
      <trkpt lat="42.51378" lon="24.00211">
        <ele>447.14411</ele>
        <time>2022-03-08T08:41:54.705Z</time>
      </trkpt>
      <trkpt lat="42.51388" lon="24.00214">
        <ele>447.88006</ele>
        <time>2022-03-08T08:41:57.725Z</time>
      </trkpt>
      <trkpt lat="42.51397" lon="24.00217">
        <ele>448.570506</ele>
        <time>2022-03-08T08:42:00.710Z</time>
      </trkpt>
      <trkpt lat="42.51408" lon="24.00219">
        <ele>449.416184</ele>
        <time>2022-03-08T08:42:04.712Z</time>
      </trkpt>
      <trkpt lat="42.51419" lon="24.00219">
        <ele>450.247497</ele>
        <time>2022-03-08T08:42:08.700Z</time>
      </trkpt>
      <trkpt lat="42.51432" lon="24.00221">
        <ele>451.157621</ele>
        <time>2022-03-08T08:42:12.703Z</time>
      </trkpt>
      <trkpt lat="42.51442" lon="24.00221">
        <ele>451.922472</ele>
        <time>2022-03-08T08:42:15.716Z</time>
      </trkpt>
      <trkpt lat="42.51452" lon="24.00221">
        <ele>452.680676</ele>
        <time>2022-03-08T08:42:18.738Z</time>
      </trkpt>
      <trkpt lat="42.51462" lon="24.00219">
        <ele>453.44095</ele>
        <time>2022-03-08T08:42:21.710Z</time>
      </trkpt>
      <trkpt lat="42.51475" lon="24.00219">
        <ele>454.354322</ele>
        <time>2022-03-08T08:42:24.720Z</time>
      </trkpt>
      <trkpt lat="42.51487" lon="24.00217">
        <ele>455.266941</ele>
        <time>2022-03-08T08:42:27.740Z</time>
      </trkpt>
      <trkpt lat="42.51498" lon="24.00212">
        <ele>456.024456</ele>
        <time>2022-03-08T08:42:30.703Z</time>
      </trkpt>
      <trkpt lat="42.5151" lon="24.00209">
        <ele>456.391398</ele>
        <time>2022-03-08T08:42:33.706Z</time>
      </trkpt>
      <trkpt lat="42.51522" lon="24.00205">
        <ele>456.765278</ele>
        <time>2022-03-08T08:42:36.708Z</time>
      </trkpt>
      <trkpt lat="42.51533" lon="24.00203">
        <ele>457.094956</ele>
        <time>2022-03-08T08:42:39.702Z</time>
      </trkpt>
      <trkpt lat="42.51543" lon="24.002">
        <ele>457.431816</ele>
        <time>2022-03-08T08:42:42.710Z</time>
      </trkpt>
      <trkpt lat="42.51555" lon="24.00197">
        <ele>457.806169</ele>
        <time>2022-03-08T08:42:45.719Z</time>
      </trkpt>
      <trkpt lat="42.51565" lon="24.00194">
        <ele>458.127043</ele>
        <time>2022-03-08T08:42:48.698Z</time>
      </trkpt>
      <trkpt lat="42.51576" lon="24.00191">
        <ele>458.447607</ele>
        <time>2022-03-08T08:42:51.715Z</time>
      </trkpt>
      <trkpt lat="42.51587" lon="24.00189">
        <ele>458.793915</ele>
        <time>2022-03-08T08:42:54.715Z</time>
      </trkpt>
      <trkpt lat="42.51597" lon="24.00185">
        <ele>459.122078</ele>
        <time>2022-03-08T08:42:57.704Z</time>
      </trkpt>
      <trkpt lat="42.51608" lon="24.0018">
        <ele>459.485446</ele>
        <time>2022-03-08T08:43:00.758Z</time>
      </trkpt>
      <trkpt lat="42.51619" lon="24.00175">
        <ele>459.838858</ele>
        <time>2022-03-08T08:43:03.735Z</time>
      </trkpt>
      <trkpt lat="42.51629" lon="24.00168">
        <ele>460.167709</ele>
        <time>2022-03-08T08:43:06.710Z</time>
      </trkpt>
      <trkpt lat="42.51638" lon="24.00161">
        <ele>460.49624</ele>
        <time>2022-03-08T08:43:09.711Z</time>
      </trkpt>
      <trkpt lat="42.51647" lon="24.00151">
        <ele>460.858274</ele>
        <time>2022-03-08T08:43:12.718Z</time>
      </trkpt>
      <trkpt lat="42.51655" lon="24.0014">
        <ele>461.20427</ele>
        <time>2022-03-08T08:43:15.714Z</time>
      </trkpt>
      <trkpt lat="42.51662" lon="24.00131">
        <ele>461.447924</ele>
        <time>2022-03-08T08:43:18.710Z</time>
      </trkpt>
      <trkpt lat="42.51669" lon="24.00123">
        <ele>461.422294</ele>
        <time>2022-03-08T08:43:21.714Z</time>
      </trkpt>
      <trkpt lat="42.51677" lon="24.00114">
        <ele>461.393783</ele>
        <time>2022-03-08T08:43:24.700Z</time>
      </trkpt>
      <trkpt lat="42.51685" lon="24.00102">
        <ele>461.360899</ele>
        <time>2022-03-08T08:43:27.706Z</time>
      </trkpt>
      <trkpt lat="42.51691" lon="24.00091">
        <ele>461.330927</ele>
        <time>2022-03-08T08:43:30.716Z</time>
      </trkpt>
      <trkpt lat="42.51698" lon="24.00081">
        <ele>461.302688</ele>
        <time>2022-03-08T08:43:33.703Z</time>
      </trkpt>
      <trkpt lat="42.51705" lon="24.00069">
        <ele>461.272428</ele>
        <time>2022-03-08T08:43:36.713Z</time>
      </trkpt>
      <trkpt lat="42.51711" lon="24.00058">
        <ele>461.244323</ele>
        <time>2022-03-08T08:43:39.707Z</time>
      </trkpt>
      <trkpt lat="42.51717" lon="24.00047">
        <ele>461.217376</ele>
        <time>2022-03-08T08:43:42.727Z</time>
      </trkpt>
      <trkpt lat="42.51722" lon="24.00037">
        <ele>461.191096</ele>
        <time>2022-03-08T08:43:45.726Z</time>
      </trkpt>
      <trkpt lat="42.51728" lon="24.00027">
        <ele>461.165143</ele>
        <time>2022-03-08T08:43:48.706Z</time>
      </trkpt>
      <trkpt lat="42.51733" lon="24.00017">
        <ele>461.139356</ele>
        <time>2022-03-08T08:43:51.728Z</time>
      </trkpt>
      <trkpt lat="42.51739" lon="24.00007">
        <ele>461.113389</ele>
        <time>2022-03-08T08:43:54.710Z</time>
      </trkpt>
      <trkpt lat="42.51748" lon="23.99995">
        <ele>461.079511</ele>
        <time>2022-03-08T08:43:58.724Z</time>
      </trkpt>
      <trkpt lat="42.51755" lon="23.99985">
        <ele>461.051047</ele>
        <time>2022-03-08T08:44:01.722Z</time>
      </trkpt>
      <trkpt lat="42.51762" lon="23.99976">
        <ele>461.023898</ele>
        <time>2022-03-08T08:44:04.699Z</time>
      </trkpt>
      <trkpt lat="42.51769" lon="23.99968">
        <ele>460.997281</ele>
        <time>2022-03-08T08:44:07.749Z</time>
      </trkpt>
      <trkpt lat="42.51778" lon="23.99959">
        <ele>460.965924</ele>
        <time>2022-03-08T08:44:10.707Z</time>
      </trkpt>
      <trkpt lat="42.51788" lon="23.99952">
        <ele>460.838239</ele>
        <time>2022-03-08T08:44:13.704Z</time>
      </trkpt>
      <trkpt lat="42.51797" lon="23.99945">
        <ele>460.622238</ele>
        <time>2022-03-08T08:44:16.718Z</time>
      </trkpt>
      <trkpt lat="42.51807" lon="23.99938">
        <ele>460.387344</ele>
        <time>2022-03-08T08:44:19.702Z</time>
      </trkpt>
      <trkpt lat="42.51816" lon="23.99933">
        <ele>460.172378</ele>
        <time>2022-03-08T08:44:22.693Z</time>
      </trkpt>
      <trkpt lat="42.51828" lon="23.9993">
        <ele>459.914443</ele>
        <time>2022-03-08T08:44:26.705Z</time>
      </trkpt>
      <trkpt lat="42.51838" lon="23.99928">
        <ele>459.697371</ele>
        <time>2022-03-08T08:44:29.728Z</time>
      </trkpt>
      <trkpt lat="42.51849" lon="23.99926">
        <ele>459.481326</ele>
        <time>2022-03-08T08:44:32.705Z</time>
      </trkpt>
      <trkpt lat="42.51859" lon="23.99924">
        <ele>459.263009</ele>
        <time>2022-03-08T08:44:35.699Z</time>
      </trkpt>
      <trkpt lat="42.51869" lon="23.99923">
        <ele>459.051484</ele>
        <time>2022-03-08T08:44:38.730Z</time>
      </trkpt>
      <trkpt lat="42.51879" lon="23.99921">
        <ele>458.843607</ele>
        <time>2022-03-08T08:44:41.716Z</time>
      </trkpt>
      <trkpt lat="42.51889" lon="23.99919">
        <ele>458.617491</ele>
        <time>2022-03-08T08:44:45.752Z</time>
      </trkpt>
      <trkpt lat="42.519" lon="23.99918">
        <ele>458.392163</ele>
        <time>2022-03-08T08:44:49.699Z</time>
      </trkpt>
      <trkpt lat="42.51912" lon="23.99919">
        <ele>458.139441</ele>
        <time>2022-03-08T08:44:53.702Z</time>
      </trkpt>
      <trkpt lat="42.51923" lon="23.99919">
        <ele>457.91422</ele>
        <time>2022-03-08T08:44:56.736Z</time>
      </trkpt>
      <trkpt lat="42.51933" lon="23.99917">
        <ele>457.69571</ele>
        <time>2022-03-08T08:44:59.708Z</time>
      </trkpt>
      <trkpt lat="42.51945" lon="23.99914">
        <ele>457.436329</ele>
        <time>2022-03-08T08:45:02.712Z</time>
      </trkpt>
      <trkpt lat="42.51957" lon="23.99914">
        <ele>457.18594</ele>
        <time>2022-03-08T08:45:05.697Z</time>
      </trkpt>
      <trkpt lat="42.51968" lon="23.99915">
        <ele>457.001016</ele>
        <time>2022-03-08T08:45:08.718Z</time>
      </trkpt>
      <trkpt lat="42.5198" lon="23.99918">
        <ele>456.79131</ele>
        <time>2022-03-08T08:45:11.715Z</time>
      </trkpt>
      <trkpt lat="42.51992" lon="23.99923">
        <ele>456.578623</ele>
        <time>2022-03-08T08:45:14.710Z</time>
      </trkpt>
      <trkpt lat="42.52005" lon="23.9993">
        <ele>456.347956</ele>
        <time>2022-03-08T08:45:17.711Z</time>
      </trkpt>
      <trkpt lat="42.52013" lon="23.99937">
        <ele>456.185411</ele>
        <time>2022-03-08T08:45:19.693Z</time>
      </trkpt>
      <trkpt lat="42.52021" lon="23.99945">
        <ele>456.015077</ele>
        <time>2022-03-08T08:45:21.715Z</time>
      </trkpt>
      <trkpt lat="42.52028" lon="23.99955">
        <ele>455.848498</ele>
        <time>2022-03-08T08:45:23.776Z</time>
      </trkpt>
      <trkpt lat="42.52035" lon="23.99969">
        <ele>455.632612</ele>
        <time>2022-03-08T08:45:26.710Z</time>
      </trkpt>
      <trkpt lat="42.52042" lon="23.99983">
        <ele>455.421791</ele>
        <time>2022-03-08T08:45:29.701Z</time>
      </trkpt>
      <trkpt lat="42.52047" lon="23.99997">
        <ele>455.221494</ele>
        <time>2022-03-08T08:45:32.708Z</time>
      </trkpt>
      <trkpt lat="42.52054" lon="24.0001">
        <ele>455.028469</ele>
        <time>2022-03-08T08:45:35.715Z</time>
      </trkpt>
      <trkpt lat="42.52059" lon="24.00021">
        <ele>454.866302</ele>
        <time>2022-03-08T08:45:38.705Z</time>
      </trkpt>
      <trkpt lat="42.52065" lon="24.00033">
        <ele>454.680617</ele>
        <time>2022-03-08T08:45:41.709Z</time>
      </trkpt>
      <trkpt lat="42.52073" lon="24.00045">
        <ele>454.479577</ele>
        <time>2022-03-08T08:45:44.723Z</time>
      </trkpt>
      <trkpt lat="42.5208" lon="24.00057">
        <ele>454.295911</ele>
        <time>2022-03-08T08:45:47.716Z</time>
      </trkpt>
      <trkpt lat="42.52085" lon="24.00069">
        <ele>454.128098</ele>
        <time>2022-03-08T08:45:50.708Z</time>
      </trkpt>
      <trkpt lat="42.52091" lon="24.00082">
        <ele>454.414403</ele>
        <time>2022-03-08T08:45:53.712Z</time>
      </trkpt>
      <trkpt lat="42.521" lon="24.00093">
        <ele>454.719262</ele>
        <time>2022-03-08T08:45:56.717Z</time>
      </trkpt>
      <trkpt lat="42.52106" lon="24.00104">
        <ele>454.974504</ele>
        <time>2022-03-08T08:45:59.711Z</time>
      </trkpt>
      <trkpt lat="42.52112" lon="24.00114">
        <ele>455.218604</ele>
        <time>2022-03-08T08:46:02.758Z</time>
      </trkpt>
      <trkpt lat="42.52119" lon="24.00125">
        <ele>455.495129</ele>
        <time>2022-03-08T08:46:05.724Z</time>
      </trkpt>
      <trkpt lat="42.52125" lon="24.00135">
        <ele>455.741169</ele>
        <time>2022-03-08T08:46:08.710Z</time>
      </trkpt>
      <trkpt lat="42.52132" lon="24.00148">
        <ele>456.022997</ele>
        <time>2022-03-08T08:46:12.716Z</time>
      </trkpt>
      <trkpt lat="42.52138" lon="24.00161">
        <ele>456.310365</ele>
        <time>2022-03-08T08:46:17.706Z</time>
      </trkpt>
      <trkpt lat="42.52143" lon="24.00173">
        <ele>456.571945</ele>
        <time>2022-03-08T08:46:21.705Z</time>
      </trkpt>
      <trkpt lat="42.52149" lon="24.00186">
        <ele>456.859057</ele>
        <time>2022-03-08T08:46:25.696Z</time>
      </trkpt>
      <trkpt lat="42.52155" lon="24.00198">
        <ele>457.147034</ele>
        <time>2022-03-08T08:46:29.711Z</time>
      </trkpt>
      <trkpt lat="42.5216" lon="24.00209">
        <ele>457.378311</ele>
        <time>2022-03-08T08:46:33.723Z</time>
      </trkpt>
      <trkpt lat="42.52166" lon="24.0022">
        <ele>457.625703</ele>
        <time>2022-03-08T08:46:37.719Z</time>
      </trkpt>
      <trkpt lat="42.52174" lon="24.00232">
        <ele>457.934172</ele>
        <time>2022-03-08T08:46:41.716Z</time>
      </trkpt>
      <trkpt lat="42.52181" lon="24.00244">
        <ele>458.220756</ele>
        <time>2022-03-08T08:46:45.712Z</time>
      </trkpt>
      <trkpt lat="42.52187" lon="24.00253">
        <ele>458.454099</ele>
        <time>2022-03-08T08:46:48.715Z</time>
      </trkpt>
      <trkpt lat="42.52193" lon="24.00263">
        <ele>458.68237</ele>
        <time>2022-03-08T08:46:51.741Z</time>
      </trkpt>
      <trkpt lat="42.52199" lon="24.00275">
        <ele>458.856143</ele>
        <time>2022-03-08T08:46:55.704Z</time>
      </trkpt>
      <trkpt lat="42.52207" lon="24.00285">
        <ele>459.034978</ele>
        <time>2022-03-08T08:46:59.723Z</time>
      </trkpt>
      <trkpt lat="42.52217" lon="24.00292">
        <ele>459.199574</ele>
        <time>2022-03-08T08:47:03.704Z</time>
      </trkpt>
      <trkpt lat="42.52227" lon="24.00296">
        <ele>459.373437</ele>
        <time>2022-03-08T08:47:07.719Z</time>
      </trkpt>
      <trkpt lat="42.52239" lon="24.00299">
        <ele>459.552653</ele>
        <time>2022-03-08T08:47:11.714Z</time>
      </trkpt>
      <trkpt lat="42.52249" lon="24.00302">
        <ele>459.72397</ele>
        <time>2022-03-08T08:47:15.718Z</time>
      </trkpt>
      <trkpt lat="42.52259" lon="24.00303">
        <ele>459.876709</ele>
        <time>2022-03-08T08:47:19.711Z</time>
      </trkpt>
      <trkpt lat="42.52269" lon="24.00305">
        <ele>460.026602</ele>
        <time>2022-03-08T08:47:23.706Z</time>
      </trkpt>
      <trkpt lat="42.52279" lon="24.00306">
        <ele>460.196027</ele>
        <time>2022-03-08T08:47:28.716Z</time>
      </trkpt>
      <trkpt lat="42.52289" lon="24.00308">
        <ele>460.347934</ele>
        <time>2022-03-08T08:47:32.699Z</time>
      </trkpt>
      <trkpt lat="42.52299" lon="24.0031">
        <ele>460.505204</ele>
        <time>2022-03-08T08:47:36.715Z</time>
      </trkpt>
      <trkpt lat="42.52308" lon="24.00312">
        <ele>460.650587</ele>
        <time>2022-03-08T08:47:40.707Z</time>
      </trkpt>
      <trkpt lat="42.52319" lon="24.00314">
        <ele>460.818159</ele>
        <time>2022-03-08T08:47:45.709Z</time>
      </trkpt>
      <trkpt lat="42.52328" lon="24.00315">
        <ele>460.970479</ele>
        <time>2022-03-08T08:47:50.712Z</time>
      </trkpt>
      <trkpt lat="42.52338" lon="24.00315">
        <ele>461.127267</ele>
        <time>2022-03-08T08:47:55.710Z</time>
      </trkpt>
      <trkpt lat="42.52349" lon="24.00314">
        <ele>461.288957</ele>
        <time>2022-03-08T08:47:59.711Z</time>
      </trkpt>
      <trkpt lat="42.52358" lon="24.00311">
        <ele>461.436748</ele>
        <time>2022-03-08T08:48:03.723Z</time>
      </trkpt>
      <trkpt lat="42.52368" lon="24.00307">
        <ele>462.072369</ele>
        <time>2022-03-08T08:48:08.715Z</time>
      </trkpt>
      <trkpt lat="42.52377" lon="24.00301">
        <ele>463.050894</ele>
        <time>2022-03-08T08:48:12.702Z</time>
      </trkpt>
      <trkpt lat="42.52387" lon="24.00295">
        <ele>464.049665</ele>
        <time>2022-03-08T08:48:17.714Z</time>
      </trkpt>
      <trkpt lat="42.52396" lon="24.0029">
        <ele>464.99169</ele>
        <time>2022-03-08T08:48:21.699Z</time>
      </trkpt>
      <trkpt lat="42.52406" lon="24.00285">
        <ele>466.023846</ele>
        <time>2022-03-08T08:48:27.764Z</time>
      </trkpt>
      <trkpt lat="42.52416" lon="24.00278">
        <ele>467.118124</ele>
        <time>2022-03-08T08:48:32.695Z</time>
      </trkpt>
      <trkpt lat="42.52425" lon="24.00273">
        <ele>468.064801</ele>
        <time>2022-03-08T08:48:36.717Z</time>
      </trkpt>
      <trkpt lat="42.52435" lon="24.00267">
        <ele>469.093267</ele>
        <time>2022-03-08T08:48:41.709Z</time>
      </trkpt>
      <trkpt lat="42.52446" lon="24.0026">
        <ele>470.208338</ele>
        <time>2022-03-08T08:48:46.712Z</time>
      </trkpt>
      <trkpt lat="42.52456" lon="24.00255">
        <ele>471.221868</ele>
        <time>2022-03-08T08:48:50.700Z</time>
      </trkpt>
      <trkpt lat="42.52464" lon="24.0025">
        <ele>472.086513</ele>
        <time>2022-03-08T08:48:54.714Z</time>
      </trkpt>
      <trkpt lat="42.52473" lon="24.00246">
        <ele>472.958743</ele>
        <time>2022-03-08T08:48:58.719Z</time>
      </trkpt>
      <trkpt lat="42.52483" lon="24.00239">
        <ele>474.046187</ele>
        <time>2022-03-08T08:49:02.707Z</time>
      </trkpt>
      <trkpt lat="42.52492" lon="24.00232">
        <ele>475.031473</ele>
        <time>2022-03-08T08:49:07.718Z</time>
      </trkpt>
      <trkpt lat="42.52501" lon="24.00227">
        <ele>475.924012</ele>
        <time>2022-03-08T08:49:11.740Z</time>
      </trkpt>
      <trkpt lat="42.5251" lon="24.00223">
        <ele>476.860482</ele>
        <time>2022-03-08T08:49:15.709Z</time>
      </trkpt>
      <trkpt lat="42.52519" lon="24.00217">
        <ele>477.842207</ele>
        <time>2022-03-08T08:49:19.713Z</time>
      </trkpt>
      <trkpt lat="42.52529" lon="24.00212">
        <ele>478.748072</ele>
        <time>2022-03-08T08:49:23.693Z</time>
      </trkpt>
      <trkpt lat="42.52539" lon="24.00207">
        <ele>479.459906</ele>
        <time>2022-03-08T08:49:27.705Z</time>
      </trkpt>
      <trkpt lat="42.52548" lon="24.002">
        <ele>480.174376</ele>
        <time>2022-03-08T08:49:32.704Z</time>
      </trkpt>
      <trkpt lat="42.52556" lon="24.00192">
        <ele>480.859686</ele>
        <time>2022-03-08T08:49:37.696Z</time>
      </trkpt>
      <trkpt lat="42.52562" lon="24.00182">
        <ele>481.469754</ele>
        <time>2022-03-08T08:49:42.715Z</time>
      </trkpt>
      <trkpt lat="42.52567" lon="24.00171">
        <ele>482.089898</ele>
        <time>2022-03-08T08:49:48.720Z</time>
      </trkpt>
      <trkpt lat="42.52571" lon="24.0016">
        <ele>482.739942</ele>
        <time>2022-03-08T08:49:54.702Z</time>
      </trkpt>
      <trkpt lat="42.52576" lon="24.00147">
        <ele>483.426042</ele>
        <time>2022-03-08T08:50:00.730Z</time>
      </trkpt>
      <trkpt lat="42.52583" lon="24.00139">
        <ele>484.032212</ele>
        <time>2022-03-08T08:50:04.710Z</time>
      </trkpt>
      <trkpt lat="42.5259" lon="24.00129">
        <ele>484.71056</ele>
        <time>2022-03-08T08:50:09.703Z</time>
      </trkpt>
      <trkpt lat="42.52596" lon="24.0012">
        <ele>485.308824</ele>
        <time>2022-03-08T08:50:14.747Z</time>
      </trkpt>
      <trkpt lat="42.52602" lon="24.00108">
        <ele>485.988766</ele>
        <time>2022-03-08T08:50:19.720Z</time>
      </trkpt>
      <trkpt lat="42.52608" lon="24.00099">
        <ele>486.610637</ele>
        <time>2022-03-08T08:50:24.744Z</time>
      </trkpt>
      <trkpt lat="42.52613" lon="24.00089">
        <ele>487.219411</ele>
        <time>2022-03-08T08:50:30.719Z</time>
      </trkpt>
      <trkpt lat="42.52619" lon="24.0008">
        <ele>487.840665</ele>
        <time>2022-03-08T08:50:36.712Z</time>
      </trkpt>
      <trkpt lat="42.52625" lon="24.00069">
        <ele>488.47318</ele>
        <time>2022-03-08T08:50:42.706Z</time>
      </trkpt>
      <trkpt lat="42.52633" lon="24.00059">
        <ele>489.17662</ele>
        <time>2022-03-08T08:50:48.714Z</time>
      </trkpt>
      <trkpt lat="42.52641" lon="24.00051">
        <ele>489.849404</ele>
        <time>2022-03-08T08:50:54.706Z</time>
      </trkpt>
      <trkpt lat="42.52648" lon="24.00043">
        <ele>490.452944</ele>
        <time>2022-03-08T08:50:58.712Z</time>
      </trkpt>
      <trkpt lat="42.52655" lon="24.00035">
        <ele>490.462239</ele>
        <time>2022-03-08T08:51:02.721Z</time>
      </trkpt>
      <trkpt lat="42.52662" lon="24.00027">
        <ele>490.22145</ele>
        <time>2022-03-08T08:51:06.701Z</time>
      </trkpt>
      <trkpt lat="42.52669" lon="24.00019">
        <ele>489.985877</ele>
        <time>2022-03-08T08:51:12.739Z</time>
      </trkpt>
      <trkpt lat="42.52677" lon="24.00013">
        <ele>489.742128</ele>
        <time>2022-03-08T08:51:20.712Z</time>
      </trkpt>
      <trkpt lat="42.52686" lon="24.00006">
        <ele>489.483112</ele>
        <time>2022-03-08T08:51:25.717Z</time>
      </trkpt>
      <trkpt lat="42.52694" lon="23.99999">
        <ele>489.235936</ele>
        <time>2022-03-08T08:51:29.765Z</time>
      </trkpt>
      <trkpt lat="42.52701" lon="23.99991">
        <ele>488.994669</ele>
        <time>2022-03-08T08:51:36.706Z</time>
      </trkpt>
      <trkpt lat="42.52708" lon="23.99982">
        <ele>488.744269</ele>
        <time>2022-03-08T08:51:42.712Z</time>
      </trkpt>
      <trkpt lat="42.52717" lon="23.99977">
        <ele>488.497994</ele>
        <time>2022-03-08T08:51:47.717Z</time>
      </trkpt>
      <trkpt lat="42.52726" lon="23.99972">
        <ele>488.228148</ele>
        <time>2022-03-08T08:51:52.719Z</time>
      </trkpt>
      <trkpt lat="42.52735" lon="23.99964">
        <ele>487.969211</ele>
        <time>2022-03-08T08:51:56.736Z</time>
      </trkpt>
      <trkpt lat="42.52743" lon="23.99956">
        <ele>487.704853</ele>
        <time>2022-03-08T08:52:02.752Z</time>
      </trkpt>
      <trkpt lat="42.52751" lon="23.99948">
        <ele>487.436244</ele>
        <time>2022-03-08T08:52:08.727Z</time>
      </trkpt>
      <trkpt lat="42.52759" lon="23.9994">
        <ele>487.196411</ele>
        <time>2022-03-08T08:52:13.715Z</time>
      </trkpt>
      <trkpt lat="42.52766" lon="23.99933">
        <ele>486.962772</ele>
        <time>2022-03-08T08:52:18.718Z</time>
      </trkpt>
      <trkpt lat="42.52775" lon="23.99924">
        <ele>486.681175</ele>
        <time>2022-03-08T08:52:24.715Z</time>
      </trkpt>
      <trkpt lat="42.52783" lon="23.99917">
        <ele>486.43825</ele>
        <time>2022-03-08T08:52:29.715Z</time>
      </trkpt>
      <trkpt lat="42.52792" lon="23.9991">
        <ele>486.157019</ele>
        <time>2022-03-08T08:52:34.706Z</time>
      </trkpt>
      <trkpt lat="42.52801" lon="23.99905">
        <ele>486.134777</ele>
        <time>2022-03-08T08:52:39.709Z</time>
      </trkpt>
      <trkpt lat="42.52811" lon="23.999">
        <ele>486.906843</ele>
        <time>2022-03-08T08:52:44.732Z</time>
      </trkpt>
      <trkpt lat="42.52821" lon="23.99896">
        <ele>487.583015</ele>
        <time>2022-03-08T08:52:48.773Z</time>
      </trkpt>
      <trkpt lat="42.52831" lon="23.99893">
        <ele>488.304482</ele>
        <time>2022-03-08T08:52:52.713Z</time>
      </trkpt>
      <trkpt lat="42.5284" lon="23.99891">
        <ele>488.945299</ele>
        <time>2022-03-08T08:52:56.714Z</time>
      </trkpt>
      <trkpt lat="42.52849" lon="23.99885">
        <ele>489.6245</ele>
        <time>2022-03-08T08:53:02.760Z</time>
      </trkpt>
      <trkpt lat="42.5286" lon="23.99882">
        <ele>490.361645</ele>
        <time>2022-03-08T08:53:08.714Z</time>
      </trkpt>
      <trkpt lat="42.5287" lon="23.99882">
        <ele>491.081914</ele>
        <time>2022-03-08T08:53:14.719Z</time>
      </trkpt>
      <trkpt lat="42.52881" lon="23.99882">
        <ele>491.857293</ele>
        <time>2022-03-08T08:53:19.717Z</time>
      </trkpt>
      <trkpt lat="42.52892" lon="23.99884">
        <ele>492.588212</ele>
        <time>2022-03-08T08:53:25.717Z</time>
      </trkpt>
      <trkpt lat="42.52901" lon="23.99885">
        <ele>493.224136</ele>
        <time>2022-03-08T08:53:29.708Z</time>
      </trkpt>
      <trkpt lat="42.52911" lon="23.99888">
        <ele>493.923206</ele>
        <time>2022-03-08T08:53:34.705Z</time>
      </trkpt>
      <trkpt lat="42.5292" lon="23.99893">
        <ele>494.608471</ele>
        <time>2022-03-08T08:53:40.737Z</time>
      </trkpt>
      <trkpt lat="42.52926" lon="23.99902">
        <ele>495.252059</ele>
        <time>2022-03-08T08:53:45.711Z</time>
      </trkpt>
      <trkpt lat="42.52932" lon="23.99912">
        <ele>495.926607</ele>
        <time>2022-03-08T08:53:49.703Z</time>
      </trkpt>
      <trkpt lat="42.52941" lon="23.99923">
        <ele>496.736234</ele>
        <time>2022-03-08T08:53:53.722Z</time>
      </trkpt>
      <trkpt lat="42.52945" lon="23.99937">
        <ele>497.4855</ele>
        <time>2022-03-08T08:53:57.696Z</time>
      </trkpt>
      <trkpt lat="42.52947" lon="23.9995">
        <ele>498.191686</ele>
        <time>2022-03-08T08:54:01.712Z</time>
      </trkpt>
      <trkpt lat="42.52948" lon="23.99966">
        <ele>498.470799</ele>
        <time>2022-03-08T08:54:05.720Z</time>
      </trkpt>
      <trkpt lat="42.52953" lon="23.99977">
        <ele>498.53559</ele>
        <time>2022-03-08T08:54:09.714Z</time>
      </trkpt>
      <trkpt lat="42.52958" lon="23.99988">
        <ele>498.59651</ele>
        <time>2022-03-08T08:54:13.722Z</time>
      </trkpt>
      <trkpt lat="42.52965" lon="23.99998">
        <ele>498.662782</ele>
        <time>2022-03-08T08:54:19.716Z</time>
      </trkpt>
      <trkpt lat="42.52975" lon="24.00003">
        <ele>498.733252</ele>
        <time>2022-03-08T08:54:24.728Z</time>
      </trkpt>
      <trkpt lat="42.52984" lon="24.00008">
        <ele>498.798353</ele>
        <time>2022-03-08T08:54:27.734Z</time>
      </trkpt>
      <trkpt lat="42.52996" lon="24.00015">
        <ele>498.88025</ele>
        <time>2022-03-08T08:54:31.717Z</time>
      </trkpt>
      <trkpt lat="42.53006" lon="24.00018">
        <ele>498.949941</ele>
        <time>2022-03-08T08:54:34.708Z</time>
      </trkpt>
      <trkpt lat="42.53017" lon="24.00021">
        <ele>499.022939</ele>
        <time>2022-03-08T08:54:37.710Z</time>
      </trkpt>
      <trkpt lat="42.53029" lon="24.00025">
        <ele>499.108464</ele>
        <time>2022-03-08T08:54:40.725Z</time>
      </trkpt>
      <trkpt lat="42.53044" lon="24.0003">
        <ele>499.20575</ele>
        <time>2022-03-08T08:54:43.751Z</time>
      </trkpt>
      <trkpt lat="42.53055" lon="24.00031">
        <ele>499.27882</ele>
        <time>2022-03-08T08:54:45.712Z</time>
      </trkpt>
      <trkpt lat="42.53064" lon="24.00035">
        <ele>499.342481</ele>
        <time>2022-03-08T08:54:47.711Z</time>
      </trkpt>
      <trkpt lat="42.53077" lon="24.00037">
        <ele>499.426529</ele>
        <time>2022-03-08T08:54:50.717Z</time>
      </trkpt>
      <trkpt lat="42.53088" lon="24.00036">
        <ele>499.495733</ele>
        <time>2022-03-08T08:54:52.712Z</time>
      </trkpt>
      <trkpt lat="42.53096" lon="24.00031">
        <ele>499.555288</ele>
        <time>2022-03-08T08:54:54.696Z</time>
      </trkpt>
      <trkpt lat="42.53106" lon="24.00019">
        <ele>499.187228</ele>
        <time>2022-03-08T08:54:57.711Z</time>
      </trkpt>
      <trkpt lat="42.53112" lon="24.00009">
        <ele>498.57603</ele>
        <time>2022-03-08T08:54:59.753Z</time>
      </trkpt>
      <trkpt lat="42.53119" lon="23.99996">
        <ele>497.863258</ele>
        <time>2022-03-08T08:55:01.716Z</time>
      </trkpt>
      <trkpt lat="42.53124" lon="23.99982">
        <ele>497.134756</ele>
        <time>2022-03-08T08:55:03.714Z</time>
      </trkpt>
      <trkpt lat="42.53127" lon="23.99966">
        <ele>496.417431</ele>
        <time>2022-03-08T08:55:05.728Z</time>
      </trkpt>
      <trkpt lat="42.53128" lon="23.9995">
        <ele>495.688204</ele>
        <time>2022-03-08T08:55:07.711Z</time>
      </trkpt>
      <trkpt lat="42.5313" lon="23.99934">
        <ele>494.938095</ele>
        <time>2022-03-08T08:55:09.720Z</time>
      </trkpt>
      <trkpt lat="42.5313" lon="23.99916">
        <ele>494.129473</ele>
        <time>2022-03-08T08:55:11.781Z</time>
      </trkpt>
      <trkpt lat="42.5313" lon="23.99899">
        <ele>493.352649</ele>
        <time>2022-03-08T08:55:13.728Z</time>
      </trkpt>
      <trkpt lat="42.5313" lon="23.99882">
        <ele>492.625426</ele>
        <time>2022-03-08T08:55:15.702Z</time>
      </trkpt>
      <trkpt lat="42.53131" lon="23.99868">
        <ele>491.957473</ele>
        <time>2022-03-08T08:55:17.712Z</time>
      </trkpt>
      <trkpt lat="42.53133" lon="23.99853">
        <ele>491.265645</ele>
        <time>2022-03-08T08:55:19.698Z</time>
      </trkpt>
      <trkpt lat="42.53136" lon="23.99838">
        <ele>490.565278</ele>
        <time>2022-03-08T08:55:21.717Z</time>
      </trkpt>
      <trkpt lat="42.5314" lon="23.99822">
        <ele>489.789765</ele>
        <time>2022-03-08T08:55:23.723Z</time>
      </trkpt>
      <trkpt lat="42.53145" lon="23.99804">
        <ele>488.95694</ele>
        <time>2022-03-08T08:55:25.706Z</time>
      </trkpt>
      <trkpt lat="42.53151" lon="23.99788">
        <ele>488.336109</ele>
        <time>2022-03-08T08:55:27.732Z</time>
      </trkpt>
      <trkpt lat="42.53157" lon="23.99771">
        <ele>487.901687</ele>
        <time>2022-03-08T08:55:29.716Z</time>
      </trkpt>
      <trkpt lat="42.53162" lon="23.99755">
        <ele>487.482706</ele>
        <time>2022-03-08T08:55:31.720Z</time>
      </trkpt>
      <trkpt lat="42.53166" lon="23.99741">
        <ele>487.115951</ele>
        <time>2022-03-08T08:55:33.735Z</time>
      </trkpt>
      <trkpt lat="42.53173" lon="23.99726">
        <ele>486.683119</ele>
        <time>2022-03-08T08:55:36.713Z</time>
      </trkpt>
      <trkpt lat="42.53182" lon="23.99714">
        <ele>486.281311</ele>
        <time>2022-03-08T08:55:38.713Z</time>
      </trkpt>
      <trkpt lat="42.53189" lon="23.99703">
        <ele>485.910417</ele>
        <time>2022-03-08T08:55:40.718Z</time>
      </trkpt>
      <trkpt lat="42.53199" lon="23.9969">
        <ele>485.468611</ele>
        <time>2022-03-08T08:55:42.713Z</time>
      </trkpt>
      <trkpt lat="42.53209" lon="23.99679">
        <ele>485.048516</ele>
        <time>2022-03-08T08:55:44.708Z</time>
      </trkpt>
      <trkpt lat="42.53219" lon="23.99667">
        <ele>484.626836</ele>
        <time>2022-03-08T08:55:46.712Z</time>
      </trkpt>
      <trkpt lat="42.53232" lon="23.99654">
        <ele>484.089597</ele>
        <time>2022-03-08T08:55:48.722Z</time>
      </trkpt>
      <trkpt lat="42.5324" lon="23.99647">
        <ele>483.783184</ele>
        <time>2022-03-08T08:55:49.753Z</time>
      </trkpt>
      <trkpt lat="42.53254" lon="23.99635">
        <ele>483.250057</ele>
        <time>2022-03-08T08:55:51.700Z</time>
      </trkpt>
      <trkpt lat="42.53266" lon="23.99625">
        <ele>482.7768</ele>
        <time>2022-03-08T08:55:53.715Z</time>
      </trkpt>
      <trkpt lat="42.53278" lon="23.99618">
        <ele>482.084112</ele>
        <time>2022-03-08T08:55:55.718Z</time>
      </trkpt>
      <trkpt lat="42.53289" lon="23.99613">
        <ele>481.387931</ele>
        <time>2022-03-08T08:55:57.711Z</time>
      </trkpt>
      <trkpt lat="42.53301" lon="23.99607">
        <ele>480.678086</ele>
        <time>2022-03-08T08:55:59.711Z</time>
      </trkpt>
      <trkpt lat="42.53312" lon="23.99602">
        <ele>480.026046</ele>
        <time>2022-03-08T08:56:01.713Z</time>
      </trkpt>
      <trkpt lat="42.53321" lon="23.99597">
        <ele>479.455329</ele>
        <time>2022-03-08T08:56:03.720Z</time>
      </trkpt>
      <trkpt lat="42.53333" lon="23.99591">
        <ele>478.708582</ele>
        <time>2022-03-08T08:56:06.715Z</time>
      </trkpt>
      <trkpt lat="42.53342" lon="23.99586">
        <ele>478.171001</ele>
        <time>2022-03-08T08:56:08.717Z</time>
      </trkpt>
      <trkpt lat="42.53353" lon="23.9958">
        <ele>477.458228</ele>
        <time>2022-03-08T08:56:11.748Z</time>
      </trkpt>
      <trkpt lat="42.53363" lon="23.99576">
        <ele>476.860344</ele>
        <time>2022-03-08T08:56:14.716Z</time>
      </trkpt>
      <trkpt lat="42.53374" lon="23.99568">
        <ele>476.16843</ele>
        <time>2022-03-08T08:56:18.725Z</time>
      </trkpt>
      <trkpt lat="42.53384" lon="23.99563">
        <ele>475.543137</ele>
        <time>2022-03-08T08:56:21.721Z</time>
      </trkpt>
      <trkpt lat="42.53396" lon="23.99559">
        <ele>474.848167</ele>
        <time>2022-03-08T08:56:24.712Z</time>
      </trkpt>
      <trkpt lat="42.53406" lon="23.99555">
        <ele>474.205167</ele>
        <time>2022-03-08T08:56:27.739Z</time>
      </trkpt>
      <trkpt lat="42.53417" lon="23.99553">
        <ele>473.567071</ele>
        <time>2022-03-08T08:56:30.715Z</time>
      </trkpt>
      <trkpt lat="42.53427" lon="23.99552">
        <ele>472.983976</ele>
        <time>2022-03-08T08:56:33.715Z</time>
      </trkpt>
      <trkpt lat="42.53439" lon="23.99553">
        <ele>472.34181</ele>
        <time>2022-03-08T08:56:36.723Z</time>
      </trkpt>
      <trkpt lat="42.53452" lon="23.99555">
        <ele>472.49325</ele>
        <time>2022-03-08T08:56:39.716Z</time>
      </trkpt>
      <trkpt lat="42.53464" lon="23.99558">
        <ele>472.641399</ele>
        <time>2022-03-08T08:56:42.710Z</time>
      </trkpt>
      <trkpt lat="42.53478" lon="23.99561">
        <ele>472.811835</ele>
        <time>2022-03-08T08:56:45.701Z</time>
      </trkpt>
      <trkpt lat="42.53489" lon="23.99566">
        <ele>472.947205</ele>
        <time>2022-03-08T08:56:48.714Z</time>
      </trkpt>
      <trkpt lat="42.535" lon="23.99571">
        <ele>473.086593</ele>
        <time>2022-03-08T08:56:52.745Z</time>
      </trkpt>
      <trkpt lat="42.53512" lon="23.99572">
        <ele>473.224389</ele>
        <time>2022-03-08T08:56:57.715Z</time>
      </trkpt>
      <trkpt lat="42.53523" lon="23.99571">
        <ele>473.367017</ele>
        <time>2022-03-08T08:57:00.705Z</time>
      </trkpt>
      <trkpt lat="42.53534" lon="23.99569">
        <ele>473.495448</ele>
        <time>2022-03-08T08:57:03.751Z</time>
      </trkpt>
      <trkpt lat="42.53544" lon="23.99566">
        <ele>473.610397</ele>
        <time>2022-03-08T08:57:06.719Z</time>
      </trkpt>
      <trkpt lat="42.53553" lon="23.99563">
        <ele>473.726993</ele>
        <time>2022-03-08T08:57:09.708Z</time>
      </trkpt>
      <trkpt lat="42.53565" lon="23.99558">
        <ele>473.876779</ele>
        <time>2022-03-08T08:57:12.718Z</time>
      </trkpt>
      <trkpt lat="42.53574" lon="23.99556">
        <ele>473.98587</ele>
        <time>2022-03-08T08:57:14.774Z</time>
      </trkpt>
      <trkpt lat="42.53587" lon="23.99551">
        <ele>474.149803</ele>
        <time>2022-03-08T08:57:17.720Z</time>
      </trkpt>
      <trkpt lat="42.536" lon="23.99547">
        <ele>474.298575</ele>
        <time>2022-03-08T08:57:20.722Z</time>
      </trkpt>
      <trkpt lat="42.5361" lon="23.99542">
        <ele>474.435078</ele>
        <time>2022-03-08T08:57:23.716Z</time>
      </trkpt>
      <trkpt lat="42.5362" lon="23.99537">
        <ele>474.812957</ele>
        <time>2022-03-08T08:57:26.723Z</time>
      </trkpt>
      <trkpt lat="42.53631" lon="23.99533">
        <ele>475.387459</ele>
        <time>2022-03-08T08:57:29.709Z</time>
      </trkpt>
      <trkpt lat="42.53642" lon="23.99529">
        <ele>475.971223</ele>
        <time>2022-03-08T08:57:32.718Z</time>
      </trkpt>
      <trkpt lat="42.53652" lon="23.99526">
        <ele>476.54829</ele>
        <time>2022-03-08T08:57:35.719Z</time>
      </trkpt>
      <trkpt lat="42.53664" lon="23.99521">
        <ele>477.162677</ele>
        <time>2022-03-08T08:57:38.695Z</time>
      </trkpt>
      <trkpt lat="42.53674" lon="23.99517">
        <ele>477.68764</ele>
        <time>2022-03-08T08:57:41.727Z</time>
      </trkpt>
      <trkpt lat="42.53686" lon="23.99512">
        <ele>478.374196</ele>
        <time>2022-03-08T08:57:44.712Z</time>
      </trkpt>
      <trkpt lat="42.53699" lon="23.99508">
        <ele>479.032777</ele>
        <time>2022-03-08T08:57:47.753Z</time>
      </trkpt>
      <trkpt lat="42.5371" lon="23.99505">
        <ele>479.606521</ele>
        <time>2022-03-08T08:57:50.712Z</time>
      </trkpt>
      <trkpt lat="42.5372" lon="23.99501">
        <ele>480.164045</ele>
        <time>2022-03-08T08:57:53.753Z</time>
      </trkpt>
      <trkpt lat="42.53729" lon="23.99497">
        <ele>480.664815</ele>
        <time>2022-03-08T08:57:56.715Z</time>
      </trkpt>
      <trkpt lat="42.5374" lon="23.99492">
        <ele>481.26795</ele>
        <time>2022-03-08T08:58:00.719Z</time>
      </trkpt>
      <trkpt lat="42.53749" lon="23.99487">
        <ele>481.757638</ele>
        <time>2022-03-08T08:58:03.724Z</time>
      </trkpt>
      <trkpt lat="42.53758" lon="23.9948">
        <ele>482.265552</ele>
        <time>2022-03-08T08:58:06.718Z</time>
      </trkpt>
      <trkpt lat="42.53766" lon="23.99471">
        <ele>482.855366</ele>
        <time>2022-03-08T08:58:09.712Z</time>
      </trkpt>
      <trkpt lat="42.53773" lon="23.99461">
        <ele>483.377767</ele>
        <time>2022-03-08T08:58:12.717Z</time>
      </trkpt>
      <trkpt lat="42.5378" lon="23.99451">
        <ele>483.861283</ele>
        <time>2022-03-08T08:58:15.738Z</time>
      </trkpt>
      <trkpt lat="42.53787" lon="23.99438">
        <ele>484.385975</ele>
        <time>2022-03-08T08:58:18.708Z</time>
      </trkpt>
      <trkpt lat="42.53793" lon="23.99425">
        <ele>484.854511</ele>
        <time>2022-03-08T08:58:21.738Z</time>
      </trkpt>
      <trkpt lat="42.538" lon="23.99414">
        <ele>485.302601</ele>
        <time>2022-03-08T08:58:24.711Z</time>
      </trkpt>
      <trkpt lat="42.53805" lon="23.99403">
        <ele>485.748638</ele>
        <time>2022-03-08T08:58:27.753Z</time>
      </trkpt>
      <trkpt lat="42.5381" lon="23.99392">
        <ele>486.149449</ele>
        <time>2022-03-08T08:58:30.724Z</time>
      </trkpt>
      <trkpt lat="42.53816" lon="23.99381">
        <ele>486.55917</ele>
        <time>2022-03-08T08:58:33.714Z</time>
      </trkpt>
      <trkpt lat="42.53822" lon="23.99366">
        <ele>487.105091</ele>
        <time>2022-03-08T08:58:36.709Z</time>
      </trkpt>
      <trkpt lat="42.53826" lon="23.99353">
        <ele>487.574198</ele>
        <time>2022-03-08T08:58:39.715Z</time>
      </trkpt>
      <trkpt lat="42.53829" lon="23.99341">
        <ele>487.971176</ele>
        <time>2022-03-08T08:58:42.721Z</time>
      </trkpt>
      <trkpt lat="42.53834" lon="23.99327">
        <ele>488.456116</ele>
        <time>2022-03-08T08:58:45.714Z</time>
      </trkpt>
      <trkpt lat="42.53839" lon="23.99314">
        <ele>488.937395</ele>
        <time>2022-03-08T08:58:48.732Z</time>
      </trkpt>
      <trkpt lat="42.53845" lon="23.99302">
        <ele>489.385286</ele>
        <time>2022-03-08T08:58:51.709Z</time>
      </trkpt>
      <trkpt lat="42.5385" lon="23.99291">
        <ele>489.802362</ele>
        <time>2022-03-08T08:58:54.704Z</time>
      </trkpt>
      <trkpt lat="42.53856" lon="23.9928">
        <ele>490.2426</ele>
        <time>2022-03-08T08:58:57.754Z</time>
      </trkpt>
      <trkpt lat="42.53862" lon="23.99271">
        <ele>490.631927</ele>
        <time>2022-03-08T08:59:00.713Z</time>
      </trkpt>
      <trkpt lat="42.53869" lon="23.99261">
        <ele>491.040986</ele>
        <time>2022-03-08T08:59:03.706Z</time>
      </trkpt>
      <trkpt lat="42.53875" lon="23.9925">
        <ele>491.48964</ele>
        <time>2022-03-08T08:59:06.713Z</time>
      </trkpt>
      <trkpt lat="42.53882" lon="23.99239">
        <ele>491.470902</ele>
        <time>2022-03-08T08:59:09.706Z</time>
      </trkpt>
      <trkpt lat="42.53889" lon="23.99227">
        <ele>491.404466</ele>
        <time>2022-03-08T08:59:12.762Z</time>
      </trkpt>
      <trkpt lat="42.53898" lon="23.99219">
        <ele>491.340194</ele>
        <time>2022-03-08T08:59:15.712Z</time>
      </trkpt>
      <trkpt lat="42.53905" lon="23.99208">
        <ele>491.276488</ele>
        <time>2022-03-08T08:59:18.719Z</time>
      </trkpt>
      <trkpt lat="42.53911" lon="23.99198">
        <ele>491.219226</ele>
        <time>2022-03-08T08:59:21.711Z</time>
      </trkpt>
      <trkpt lat="42.53918" lon="23.99186">
        <ele>491.153535</ele>
        <time>2022-03-08T08:59:24.711Z</time>
      </trkpt>
      <trkpt lat="42.53924" lon="23.99174">
        <ele>491.08851</ele>
        <time>2022-03-08T08:59:27.720Z</time>
      </trkpt>
      <trkpt lat="42.5393" lon="23.99163">
        <ele>491.024237</ele>
        <time>2022-03-08T08:59:30.737Z</time>
      </trkpt>
      <trkpt lat="42.53937" lon="23.99152">
        <ele>490.958402</ele>
        <time>2022-03-08T08:59:33.711Z</time>
      </trkpt>
      <trkpt lat="42.53945" lon="23.99142">
        <ele>490.894281</ele>
        <time>2022-03-08T08:59:36.723Z</time>
      </trkpt>
      <trkpt lat="42.53952" lon="23.99131">
        <ele>490.829714</ele>
        <time>2022-03-08T08:59:39.723Z</time>
      </trkpt>
      <trkpt lat="42.53959" lon="23.9912">
        <ele>490.76755</ele>
        <time>2022-03-08T08:59:42.714Z</time>
      </trkpt>
      <trkpt lat="42.53967" lon="23.99108">
        <ele>490.696924</ele>
        <time>2022-03-08T08:59:45.759Z</time>
      </trkpt>
      <trkpt lat="42.53974" lon="23.99097">
        <ele>490.629794</ele>
        <time>2022-03-08T08:59:48.709Z</time>
      </trkpt>
      <trkpt lat="42.53983" lon="23.99083">
        <ele>490.55095</ele>
        <time>2022-03-08T08:59:51.756Z</time>
      </trkpt>
      <trkpt lat="42.5399" lon="23.99071">
        <ele>490.480555</ele>
        <time>2022-03-08T08:59:54.736Z</time>
      </trkpt>
      <trkpt lat="42.53998" lon="23.99062">
        <ele>490.241509</ele>
        <time>2022-03-08T08:59:57.696Z</time>
      </trkpt>
      <trkpt lat="42.54006" lon="23.99049">
        <ele>489.712291</ele>
        <time>2022-03-08T09:00:00.715Z</time>
      </trkpt>
      <trkpt lat="42.54014" lon="23.99038">
        <ele>489.198752</ele>
        <time>2022-03-08T09:00:03.704Z</time>
      </trkpt>
      <trkpt lat="42.54022" lon="23.99025">
        <ele>488.664145</ele>
        <time>2022-03-08T09:00:06.703Z</time>
      </trkpt>
      <trkpt lat="42.54031" lon="23.99011">
        <ele>488.114792</ele>
        <time>2022-03-08T09:00:09.707Z</time>
      </trkpt>
      <trkpt lat="42.5404" lon="23.98999">
        <ele>487.578925</ele>
        <time>2022-03-08T09:00:12.692Z</time>
      </trkpt>
      <trkpt lat="42.54047" lon="23.98989">
        <ele>487.114083</ele>
        <time>2022-03-08T09:00:15.724Z</time>
      </trkpt>
      <trkpt lat="42.54055" lon="23.98978">
        <ele>486.626557</ele>
        <time>2022-03-08T09:00:18.751Z</time>
      </trkpt>
      <trkpt lat="42.54064" lon="23.98969">
        <ele>486.14989</ele>
        <time>2022-03-08T09:00:21.711Z</time>
      </trkpt>
      <trkpt lat="42.54073" lon="23.9896">
        <ele>485.671676</ele>
        <time>2022-03-08T09:00:25.722Z</time>
      </trkpt>
      <trkpt lat="42.54082" lon="23.98952">
        <ele>485.207874</ele>
        <time>2022-03-08T09:00:29.724Z</time>
      </trkpt>
      <trkpt lat="42.54093" lon="23.98944">
        <ele>484.706362</ele>
        <time>2022-03-08T09:00:32.702Z</time>
      </trkpt>
      <trkpt lat="42.54102" lon="23.98938">
        <ele>484.253634</ele>
        <time>2022-03-08T09:00:35.735Z</time>
      </trkpt>
      <trkpt lat="42.54111" lon="23.98932">
        <ele>483.8457</ele>
        <time>2022-03-08T09:00:38.743Z</time>
      </trkpt>
      <trkpt lat="42.54122" lon="23.98926">
        <ele>483.323121</ele>
        <time>2022-03-08T09:00:41.699Z</time>
      </trkpt>
      <trkpt lat="42.54132" lon="23.9892">
        <ele>482.871007</ele>
        <time>2022-03-08T09:00:44.720Z</time>
      </trkpt>
      <trkpt lat="42.5414" lon="23.98915">
        <ele>482.408526</ele>
        <time>2022-03-08T09:00:47.731Z</time>
      </trkpt>
      <trkpt lat="42.5415" lon="23.98907">
        <ele>481.77501</ele>
        <time>2022-03-08T09:00:50.713Z</time>
      </trkpt>
      <trkpt lat="42.54162" lon="23.98899">
        <ele>481.038859</ele>
        <time>2022-03-08T09:00:53.706Z</time>
      </trkpt>
      <trkpt lat="42.54171" lon="23.98894">
        <ele>480.493878</ele>
        <time>2022-03-08T09:00:55.714Z</time>
      </trkpt>
      <trkpt lat="42.5418" lon="23.9889">
        <ele>479.966763</ele>
        <time>2022-03-08T09:00:57.714Z</time>
      </trkpt>
      <trkpt lat="42.54191" lon="23.98884">
        <ele>479.299944</ele>
        <time>2022-03-08T09:01:00.704Z</time>
      </trkpt>
      <trkpt lat="42.542" lon="23.98879">
        <ele>478.762526</ele>
        <time>2022-03-08T09:01:03.711Z</time>
      </trkpt>
      <trkpt lat="42.54209" lon="23.98874">
        <ele>478.232408</ele>
        <time>2022-03-08T09:01:06.694Z</time>
      </trkpt>
      <trkpt lat="42.54221" lon="23.98869">
        <ele>477.539554</ele>
        <time>2022-03-08T09:01:10.717Z</time>
      </trkpt>
      <trkpt lat="42.54232" lon="23.98864">
        <ele>476.878314</ele>
        <time>2022-03-08T09:01:13.716Z</time>
      </trkpt>
      <trkpt lat="42.54244" lon="23.98859">
        <ele>476.207753</ele>
        <time>2022-03-08T09:01:16.723Z</time>
      </trkpt>
      <trkpt lat="42.54254" lon="23.98856">
        <ele>475.62004</ele>
        <time>2022-03-08T09:01:19.698Z</time>
      </trkpt>
      <trkpt lat="42.54264" lon="23.98855">
        <ele>475.077277</ele>
        <time>2022-03-08T09:01:22.707Z</time>
      </trkpt>
      <trkpt lat="42.54277" lon="23.9885">
        <ele>474.345376</ele>
        <time>2022-03-08T09:01:25.745Z</time>
      </trkpt>
      <trkpt lat="42.54287" lon="23.98846">
        <ele>473.787391</ele>
        <time>2022-03-08T09:01:27.719Z</time>
      </trkpt>
      <trkpt lat="42.54299" lon="23.98841">
        <ele>473.099134</ele>
        <time>2022-03-08T09:01:30.757Z</time>
      </trkpt>
      <trkpt lat="42.54308" lon="23.98837">
        <ele>473.269709</ele>
        <time>2022-03-08T09:01:33.716Z</time>
      </trkpt>
      <trkpt lat="42.54319" lon="23.98833">
        <ele>474.275749</ele>
        <time>2022-03-08T09:01:36.718Z</time>
      </trkpt>
      <trkpt lat="42.54331" lon="23.98829">
        <ele>475.376675</ele>
        <time>2022-03-08T09:01:39.720Z</time>
      </trkpt>
      <trkpt lat="42.5434" lon="23.98825">
        <ele>476.223113</ele>
        <time>2022-03-08T09:01:41.715Z</time>
      </trkpt>
      <trkpt lat="42.54351" lon="23.98821">
        <ele>477.188461</ele>
        <time>2022-03-08T09:01:44.712Z</time>
      </trkpt>
      <trkpt lat="42.54362" lon="23.98817">
        <ele>478.209496</ele>
        <time>2022-03-08T09:01:47.687Z</time>
      </trkpt>
      <trkpt lat="42.54371" lon="23.98814">
        <ele>479.009723</ele>
        <time>2022-03-08T09:01:49.715Z</time>
      </trkpt>
      <trkpt lat="42.54383" lon="23.9881">
        <ele>480.060057</ele>
        <time>2022-03-08T09:01:52.695Z</time>
      </trkpt>
      <trkpt lat="42.54395" lon="23.98807">
        <ele>481.212044</ele>
        <time>2022-03-08T09:01:55.718Z</time>
      </trkpt>
      <trkpt lat="42.54407" lon="23.98805">
        <ele>482.243898</ele>
        <time>2022-03-08T09:01:58.718Z</time>
      </trkpt>
      <trkpt lat="42.54419" lon="23.98806">
        <ele>483.260776</ele>
        <time>2022-03-08T09:02:02.708Z</time>
      </trkpt>
      <trkpt lat="42.54428" lon="23.98808">
        <ele>484.094632</ele>
        <time>2022-03-08T09:02:05.712Z</time>
      </trkpt>
      <trkpt lat="42.54439" lon="23.9881">
        <ele>485.072368</ele>
        <time>2022-03-08T09:02:08.720Z</time>
      </trkpt>
      <trkpt lat="42.5445" lon="23.98811">
        <ele>486.019866</ele>
        <time>2022-03-08T09:02:11.724Z</time>
      </trkpt>
      <trkpt lat="42.54461" lon="23.98813">
        <ele>487.067376</ele>
        <time>2022-03-08T09:02:14.720Z</time>
      </trkpt>
      <trkpt lat="42.54474" lon="23.98816">
        <ele>488.189155</ele>
        <time>2022-03-08T09:02:17.710Z</time>
      </trkpt>
      <trkpt lat="42.54487" lon="23.98817">
        <ele>488.369712</ele>
        <time>2022-03-08T09:02:20.728Z</time>
      </trkpt>
      <trkpt lat="42.54497" lon="23.9882">
        <ele>487.95548</ele>
        <time>2022-03-08T09:02:23.726Z</time>
      </trkpt>
      <trkpt lat="42.5451" lon="23.98824">
        <ele>487.428987</ele>
        <time>2022-03-08T09:02:26.713Z</time>
      </trkpt>
      <trkpt lat="42.54522" lon="23.98828">
        <ele>486.928124</ele>
        <time>2022-03-08T09:02:29.715Z</time>
      </trkpt>
      <trkpt lat="42.54534" lon="23.98832">
        <ele>486.4435</ele>
        <time>2022-03-08T09:02:32.714Z</time>
      </trkpt>
      <trkpt lat="42.54546" lon="23.98834">
        <ele>485.969088</ele>
        <time>2022-03-08T09:02:35.709Z</time>
      </trkpt>
      <trkpt lat="42.54556" lon="23.98835">
        <ele>485.588647</ele>
        <time>2022-03-08T09:02:38.717Z</time>
      </trkpt>
      <trkpt lat="42.54565" lon="23.98836">
        <ele>485.213476</ele>
        <time>2022-03-08T09:02:41.755Z</time>
      </trkpt>
      <trkpt lat="42.54576" lon="23.98839">
        <ele>484.78649</ele>
        <time>2022-03-08T09:02:44.711Z</time>
      </trkpt>
      <trkpt lat="42.54587" lon="23.98844">
        <ele>484.313722</ele>
        <time>2022-03-08T09:02:48.729Z</time>
      </trkpt>
      <trkpt lat="42.54597" lon="23.98846">
        <ele>483.938059</ele>
        <time>2022-03-08T09:02:51.717Z</time>
      </trkpt>
      <trkpt lat="42.54608" lon="23.98847">
        <ele>483.514681</ele>
        <time>2022-03-08T09:02:54.716Z</time>
      </trkpt>
      <trkpt lat="42.5462" lon="23.98851">
        <ele>483.003055</ele>
        <time>2022-03-08T09:02:57.708Z</time>
      </trkpt>
      <trkpt lat="42.54632" lon="23.98853">
        <ele>482.534476</ele>
        <time>2022-03-08T09:03:00.718Z</time>
      </trkpt>
      <trkpt lat="42.54642" lon="23.98855">
        <ele>482.12174</ele>
        <time>2022-03-08T09:03:03.719Z</time>
      </trkpt>
      <trkpt lat="42.54653" lon="23.98857">
        <ele>481.711841</ele>
        <time>2022-03-08T09:03:06.710Z</time>
      </trkpt>
      <trkpt lat="42.54662" lon="23.9886">
        <ele>481.225426</ele>
        <time>2022-03-08T09:03:09.725Z</time>
      </trkpt>
      <trkpt lat="42.54672" lon="23.98862">
        <ele>480.646946</ele>
        <time>2022-03-08T09:03:12.721Z</time>
      </trkpt>
      <trkpt lat="42.54682" lon="23.98865">
        <ele>480.066009</ele>
        <time>2022-03-08T09:03:15.710Z</time>
      </trkpt>
      <trkpt lat="42.54691" lon="23.98868">
        <ele>479.516541</ele>
        <time>2022-03-08T09:03:18.726Z</time>
      </trkpt>
      <trkpt lat="42.54701" lon="23.98869">
        <ele>478.931886</ele>
        <time>2022-03-08T09:03:21.719Z</time>
      </trkpt>
      <trkpt lat="42.54712" lon="23.98872">
        <ele>478.30178</ele>
        <time>2022-03-08T09:03:24.705Z</time>
      </trkpt>
      <trkpt lat="42.54723" lon="23.98874">
        <ele>477.645375</ele>
        <time>2022-03-08T09:03:27.751Z</time>
      </trkpt>
      <trkpt lat="42.54735" lon="23.98877">
        <ele>476.991151</ele>
        <time>2022-03-08T09:03:30.768Z</time>
      </trkpt>
      <trkpt lat="42.54746" lon="23.98878">
        <ele>476.340336</ele>
        <time>2022-03-08T09:03:33.712Z</time>
      </trkpt>
      <trkpt lat="42.54756" lon="23.9888">
        <ele>475.736925</ele>
        <time>2022-03-08T09:03:36.719Z</time>
      </trkpt>
      <trkpt lat="42.54766" lon="23.98882">
        <ele>475.189662</ele>
        <time>2022-03-08T09:03:39.715Z</time>
      </trkpt>
      <trkpt lat="42.54776" lon="23.98885">
        <ele>474.580578</ele>
        <time>2022-03-08T09:03:42.704Z</time>
      </trkpt>
      <trkpt lat="42.54785" lon="23.98887">
        <ele>474.042397</ele>
        <time>2022-03-08T09:03:45.723Z</time>
      </trkpt>
      <trkpt lat="42.54795" lon="23.98889">
        <ele>473.491932</ele>
        <time>2022-03-08T09:03:48.723Z</time>
      </trkpt>
      <trkpt lat="42.54805" lon="23.98892">
        <ele>472.907022</ele>
        <time>2022-03-08T09:03:51.715Z</time>
      </trkpt>
      <trkpt lat="42.54817" lon="23.98895">
        <ele>472.216572</ele>
        <time>2022-03-08T09:03:54.721Z</time>
      </trkpt>
      <trkpt lat="42.54828" lon="23.98898">
        <ele>471.538204</ele>
        <time>2022-03-08T09:03:57.720Z</time>
      </trkpt>
      <trkpt lat="42.54839" lon="23.98901">
        <ele>471.318308</ele>
        <time>2022-03-08T09:04:00.726Z</time>
      </trkpt>
      <trkpt lat="42.54851" lon="23.98904">
        <ele>471.516997</ele>
        <time>2022-03-08T09:04:03.719Z</time>
      </trkpt>
      <trkpt lat="42.54862" lon="23.98908">
        <ele>471.700978</ele>
        <time>2022-03-08T09:04:06.751Z</time>
      </trkpt>
      <trkpt lat="42.54873" lon="23.98913">
        <ele>471.876478</ele>
        <time>2022-03-08T09:04:09.718Z</time>
      </trkpt>
      <trkpt lat="42.54883" lon="23.98917">
        <ele>472.051118</ele>
        <time>2022-03-08T09:04:12.715Z</time>
      </trkpt>
      <trkpt lat="42.54892" lon="23.98923">
        <ele>472.207639</ele>
        <time>2022-03-08T09:04:15.718Z</time>
      </trkpt>
      <trkpt lat="42.54902" lon="23.98931">
        <ele>472.397181</ele>
        <time>2022-03-08T09:04:18.720Z</time>
      </trkpt>
      <trkpt lat="42.54913" lon="23.98938">
        <ele>472.587115</ele>
        <time>2022-03-08T09:04:21.712Z</time>
      </trkpt>
      <trkpt lat="42.54923" lon="23.98944">
        <ele>472.760252</ele>
        <time>2022-03-08T09:04:24.729Z</time>
      </trkpt>
      <trkpt lat="42.54932" lon="23.98951">
        <ele>472.926145</ele>
        <time>2022-03-08T09:04:27.747Z</time>
      </trkpt>
      <trkpt lat="42.54942" lon="23.98956">
        <ele>473.091494</ele>
        <time>2022-03-08T09:04:30.716Z</time>
      </trkpt>
      <trkpt lat="42.54951" lon="23.98962">
        <ele>473.247812</ele>
        <time>2022-03-08T09:04:33.723Z</time>
      </trkpt>
      <trkpt lat="42.54961" lon="23.98968">
        <ele>473.423287</ele>
        <time>2022-03-08T09:04:36.728Z</time>
      </trkpt>
      <trkpt lat="42.5497" lon="23.98975">
        <ele>473.593058</ele>
        <time>2022-03-08T09:04:39.741Z</time>
      </trkpt>
      <trkpt lat="42.5498" lon="23.98982">
        <ele>473.770596</ele>
        <time>2022-03-08T09:04:42.720Z</time>
      </trkpt>
      <trkpt lat="42.54991" lon="23.98989">
        <ele>473.965374</ele>
        <time>2022-03-08T09:04:45.760Z</time>
      </trkpt>
      <trkpt lat="42.55002" lon="23.98996">
        <ele>474.269453</ele>
        <time>2022-03-08T09:04:48.725Z</time>
      </trkpt>
      <trkpt lat="42.55012" lon="23.99003">
        <ele>474.704279</ele>
        <time>2022-03-08T09:04:51.715Z</time>
      </trkpt>
      <trkpt lat="42.5502" lon="23.99009">
        <ele>475.07714</ele>
        <time>2022-03-08T09:04:54.724Z</time>
      </trkpt>
      <trkpt lat="42.55028" lon="23.99014">
        <ele>475.452149</ele>
        <time>2022-03-08T09:04:57.730Z</time>
      </trkpt>
      <trkpt lat="42.55038" lon="23.9902">
        <ele>475.860874</ele>
        <time>2022-03-08T09:05:00.720Z</time>
      </trkpt>
      <trkpt lat="42.55049" lon="23.99027">
        <ele>476.350694</ele>
        <time>2022-03-08T09:05:04.702Z</time>
      </trkpt>
      <trkpt lat="42.55059" lon="23.99035">
        <ele>476.813789</ele>
        <time>2022-03-08T09:05:08.709Z</time>
      </trkpt>
      <trkpt lat="42.55069" lon="23.9904">
        <ele>477.282014</ele>
        <time>2022-03-08T09:05:12.736Z</time>
      </trkpt>
      <trkpt lat="42.5508" lon="23.99046">
        <ele>477.737474</ele>
        <time>2022-03-08T09:05:16.716Z</time>
      </trkpt>
      <trkpt lat="42.55091" lon="23.99054">
        <ele>478.233545</ele>
        <time>2022-03-08T09:05:20.714Z</time>
      </trkpt>
      <trkpt lat="42.55099" lon="23.99059">
        <ele>478.613964</ele>
        <time>2022-03-08T09:05:23.745Z</time>
      </trkpt>
      <trkpt lat="42.55109" lon="23.99066">
        <ele>479.060055</ele>
        <time>2022-03-08T09:05:27.719Z</time>
      </trkpt>
      <trkpt lat="42.55119" lon="23.99074">
        <ele>479.533149</ele>
        <time>2022-03-08T09:05:31.719Z</time>
      </trkpt>
      <trkpt lat="42.55128" lon="23.99081">
        <ele>479.937699</ele>
        <time>2022-03-08T09:05:34.739Z</time>
      </trkpt>
      <trkpt lat="42.55137" lon="23.99087">
        <ele>480.36363</ele>
        <time>2022-03-08T09:05:37.722Z</time>
      </trkpt>
      <trkpt lat="42.55146" lon="23.99093">
        <ele>480.736681</ele>
        <time>2022-03-08T09:05:40.724Z</time>
      </trkpt>
      <trkpt lat="42.55154" lon="23.99102">
        <ele>481.169224</ele>
        <time>2022-03-08T09:05:44.723Z</time>
      </trkpt>
      <trkpt lat="42.55163" lon="23.99112">
        <ele>481.584694</ele>
        <time>2022-03-08T09:05:48.725Z</time>
      </trkpt>
      <trkpt lat="42.5517" lon="23.99121">
        <ele>481.917935</ele>
        <time>2022-03-08T09:05:52.727Z</time>
      </trkpt>
      <trkpt lat="42.55178" lon="23.99133">
        <ele>482.291395</ele>
        <time>2022-03-08T09:05:56.699Z</time>
      </trkpt>
      <trkpt lat="42.55184" lon="23.99143">
        <ele>482.593939</ele>
        <time>2022-03-08T09:05:59.714Z</time>
      </trkpt>
      <trkpt lat="42.5519" lon="23.99153">
        <ele>482.901939</ele>
        <time>2022-03-08T09:06:02.776Z</time>
      </trkpt>
      <trkpt lat="42.55195" lon="23.99163">
        <ele>483.197955</ele>
        <time>2022-03-08T09:06:05.728Z</time>
      </trkpt>
      <trkpt lat="42.55199" lon="23.99176">
        <ele>483.527991</ele>
        <time>2022-03-08T09:06:09.734Z</time>
      </trkpt>
      <trkpt lat="42.55205" lon="23.99189">
        <ele>483.89614</ele>
        <time>2022-03-08T09:06:13.777Z</time>
      </trkpt>
      <trkpt lat="42.5521" lon="23.99199">
        <ele>484.190507</ele>
        <time>2022-03-08T09:06:16.706Z</time>
      </trkpt>
      <trkpt lat="42.55214" lon="23.9921">
        <ele>484.48183</ele>
        <time>2022-03-08T09:06:19.723Z</time>
      </trkpt>
      <trkpt lat="42.55216" lon="23.99222">
        <ele>484.778037</ele>
        <time>2022-03-08T09:06:22.721Z</time>
      </trkpt>
      <trkpt lat="42.55219" lon="23.99235">
        <ele>485.084968</ele>
        <time>2022-03-08T09:06:25.703Z</time>
      </trkpt>
      <trkpt lat="42.55223" lon="23.99249">
        <ele>485.451166</ele>
        <time>2022-03-08T09:06:29.755Z</time>
      </trkpt>
      <trkpt lat="42.55227" lon="23.99264">
        <ele>485.835761</ele>
        <time>2022-03-08T09:06:33.715Z</time>
      </trkpt>
      <trkpt lat="42.55229" lon="23.99276">
        <ele>486.133875</ele>
        <time>2022-03-08T09:06:36.714Z</time>
      </trkpt>
      <trkpt lat="42.55234" lon="23.99289">
        <ele>486.466042</ele>
        <time>2022-03-08T09:06:40.707Z</time>
      </trkpt>
      <trkpt lat="42.55239" lon="23.99302">
        <ele>486.8124</ele>
        <time>2022-03-08T09:06:44.712Z</time>
      </trkpt>
      <trkpt lat="42.55246" lon="23.99314">
        <ele>487.167847</ele>
        <time>2022-03-08T09:06:48.717Z</time>
      </trkpt>
      <trkpt lat="42.55252" lon="23.99326">
        <ele>486.851922</ele>
        <time>2022-03-08T09:06:52.727Z</time>
      </trkpt>
      <trkpt lat="42.55259" lon="23.99337">
        <ele>486.512422</ele>
        <time>2022-03-08T09:06:56.752Z</time>
      </trkpt>
      <trkpt lat="42.55269" lon="23.99344">
        <ele>486.163041</ele>
        <time>2022-03-08T09:07:00.715Z</time>
      </trkpt>
      <trkpt lat="42.55278" lon="23.99347">
        <ele>485.859835</ele>
        <time>2022-03-08T09:07:03.708Z</time>
      </trkpt>
      <trkpt lat="42.55288" lon="23.99348">
        <ele>485.548426</ele>
        <time>2022-03-08T09:07:06.714Z</time>
      </trkpt>
      <trkpt lat="42.55297" lon="23.99347">
        <ele>485.263977</ele>
        <time>2022-03-08T09:07:09.724Z</time>
      </trkpt>
      <trkpt lat="42.55305" lon="23.99342">
        <ele>484.978849</ele>
        <time>2022-03-08T09:07:12.733Z</time>
      </trkpt>
      <trkpt lat="42.55315" lon="23.99333">
        <ele>484.609924</ele>
        <time>2022-03-08T09:07:16.742Z</time>
      </trkpt>
      <trkpt lat="42.55324" lon="23.99323">
        <ele>484.238252</ele>
        <time>2022-03-08T09:07:20.710Z</time>
      </trkpt>
      <trkpt lat="42.55334" lon="23.99315">
        <ele>483.871917</ele>
        <time>2022-03-08T09:07:24.720Z</time>
      </trkpt>
      <trkpt lat="42.55343" lon="23.99307">
        <ele>483.541524</ele>
        <time>2022-03-08T09:07:27.709Z</time>
      </trkpt>
      <trkpt lat="42.55352" lon="23.993">
        <ele>483.209623</ele>
        <time>2022-03-08T09:07:30.732Z</time>
      </trkpt>
      <trkpt lat="42.55361" lon="23.99292">
        <ele>482.862767</ele>
        <time>2022-03-08T09:07:33.751Z</time>
      </trkpt>
      <trkpt lat="42.55371" lon="23.99283">
        <ele>482.491196</ele>
        <time>2022-03-08T09:07:37.736Z</time>
      </trkpt>
      <trkpt lat="42.5538" lon="23.99275">
        <ele>482.152025</ele>
        <time>2022-03-08T09:07:41.725Z</time>
      </trkpt>
      <trkpt lat="42.5539" lon="23.99267">
        <ele>481.80507</ele>
        <time>2022-03-08T09:07:45.749Z</time>
      </trkpt>
      <trkpt lat="42.55399" lon="23.99258">
        <ele>481.552969</ele>
        <time>2022-03-08T09:07:49.724Z</time>
      </trkpt>
      <trkpt lat="42.55409" lon="23.99249">
        <ele>481.640116</ele>
        <time>2022-03-08T09:07:53.718Z</time>
      </trkpt>
      <trkpt lat="42.55419" lon="23.9924">
        <ele>481.732152</ele>
        <time>2022-03-08T09:07:57.734Z</time>
      </trkpt>
      <trkpt lat="42.55428" lon="23.99232">
        <ele>481.807746</ele>
        <time>2022-03-08T09:08:00.719Z</time>
      </trkpt>
      <trkpt lat="42.55436" lon="23.99226">
        <ele>481.877176</ele>
        <time>2022-03-08T09:08:03.704Z</time>
      </trkpt>
      <trkpt lat="42.55443" lon="23.99219">
        <ele>481.945069</ele>
        <time>2022-03-08T09:08:06.729Z</time>
      </trkpt>
      <trkpt lat="42.55452" lon="23.99212">
        <ele>482.018833</ele>
        <time>2022-03-08T09:08:09.724Z</time>
      </trkpt>
      <trkpt lat="42.55461" lon="23.99204">
        <ele>482.096601</ele>
        <time>2022-03-08T09:08:12.711Z</time>
      </trkpt>
      <trkpt lat="42.5547" lon="23.99197">
        <ele>482.174725</ele>
        <time>2022-03-08T09:08:15.710Z</time>
      </trkpt>
      <trkpt lat="42.55478" lon="23.99189">
        <ele>482.250252</ele>
        <time>2022-03-08T09:08:18.725Z</time>
      </trkpt>
      <trkpt lat="42.55486" lon="23.99182">
        <ele>482.31936</ele>
        <time>2022-03-08T09:08:21.719Z</time>
      </trkpt>
      <trkpt lat="42.55495" lon="23.99175">
        <ele>482.392839</ele>
        <time>2022-03-08T09:08:24.719Z</time>
      </trkpt>
      <trkpt lat="42.55503" lon="23.99167">
        <ele>482.466239</ele>
        <time>2022-03-08T09:08:27.714Z</time>
      </trkpt>
      <trkpt lat="42.55513" lon="23.99159">
        <ele>482.553783</ele>
        <time>2022-03-08T09:08:31.708Z</time>
      </trkpt>
      <trkpt lat="42.55521" lon="23.99153">
        <ele>482.622692</ele>
        <time>2022-03-08T09:08:34.708Z</time>
      </trkpt>
      <trkpt lat="42.55529" lon="23.99145">
        <ele>482.697302</ele>
        <time>2022-03-08T09:08:37.720Z</time>
      </trkpt>
      <trkpt lat="42.55539" lon="23.99137">
        <ele>482.78018</ele>
        <time>2022-03-08T09:08:41.700Z</time>
      </trkpt>
      <trkpt lat="42.55548" lon="23.99129">
        <ele>482.858863</ele>
        <time>2022-03-08T09:08:45.711Z</time>
      </trkpt>
      <trkpt lat="42.55557" lon="23.99123">
        <ele>483.014256</ele>
        <time>2022-03-08T09:08:49.722Z</time>
      </trkpt>
      <trkpt lat="42.55568" lon="23.9912">
        <ele>483.183296</ele>
        <time>2022-03-08T09:08:52.722Z</time>
      </trkpt>
      <trkpt lat="42.55579" lon="23.99115">
        <ele>483.359701</ele>
        <time>2022-03-08T09:08:55.731Z</time>
      </trkpt>
      <trkpt lat="42.55589" lon="23.99114">
        <ele>483.51028</ele>
        <time>2022-03-08T09:08:58.723Z</time>
      </trkpt>
      <trkpt lat="42.55601" lon="23.99115">
        <ele>483.6944</ele>
        <time>2022-03-08T09:09:02.752Z</time>
      </trkpt>
      <trkpt lat="42.55611" lon="23.99116">
        <ele>483.840301</ele>
        <time>2022-03-08T09:09:05.720Z</time>
      </trkpt>
      <trkpt lat="42.55621" lon="23.99118">
        <ele>483.993867</ele>
        <time>2022-03-08T09:09:08.709Z</time>
      </trkpt>
      <trkpt lat="42.55632" lon="23.99119">
        <ele>484.157359</ele>
        <time>2022-03-08T09:09:11.706Z</time>
      </trkpt>
      <trkpt lat="42.55641" lon="23.99122">
        <ele>484.297485</ele>
        <time>2022-03-08T09:09:14.728Z</time>
      </trkpt>
      <trkpt lat="42.55649" lon="23.99124">
        <ele>484.434212</ele>
        <time>2022-03-08T09:09:17.711Z</time>
      </trkpt>
      <trkpt lat="42.5566" lon="23.99125">
        <ele>484.589206</ele>
        <time>2022-03-08T09:09:21.710Z</time>
      </trkpt>
      <trkpt lat="42.55671" lon="23.99124">
        <ele>484.759358</ele>
        <time>2022-03-08T09:09:25.748Z</time>
      </trkpt>
      <trkpt lat="42.5568" lon="23.99124">
        <ele>484.902123</ele>
        <time>2022-03-08T09:09:28.723Z</time>
      </trkpt>
      <trkpt lat="42.5569" lon="23.99125">
        <ele>485.051669</ele>
        <time>2022-03-08T09:09:31.714Z</time>
      </trkpt>
      <trkpt lat="42.557" lon="23.99126">
        <ele>485.196055</ele>
        <time>2022-03-08T09:09:34.718Z</time>
      </trkpt>
      <trkpt lat="42.55709" lon="23.99127">
        <ele>485.341074</ele>
        <time>2022-03-08T09:09:37.721Z</time>
      </trkpt>
      <trkpt lat="42.55719" lon="23.99129">
        <ele>485.49464</ele>
        <time>2022-03-08T09:09:40.755Z</time>
      </trkpt>
      <trkpt lat="42.55729" lon="23.9913">
        <ele>485.544134</ele>
        <time>2022-03-08T09:09:43.716Z</time>
      </trkpt>
      <trkpt lat="42.5574" lon="23.99132">
        <ele>485.395865</ele>
        <time>2022-03-08T09:09:46.746Z</time>
      </trkpt>
      <trkpt lat="42.55749" lon="23.99133">
        <ele>485.267544</ele>
        <time>2022-03-08T09:09:49.725Z</time>
      </trkpt>
      <trkpt lat="42.55758" lon="23.99134">
        <ele>485.138524</ele>
        <time>2022-03-08T09:09:52.724Z</time>
      </trkpt>
      <trkpt lat="42.55768" lon="23.99135">
        <ele>485.004835</ele>
        <time>2022-03-08T09:09:55.732Z</time>
      </trkpt>
      <trkpt lat="42.55777" lon="23.99136">
        <ele>484.878069</ele>
        <time>2022-03-08T09:09:58.723Z</time>
      </trkpt>
      <trkpt lat="42.55787" lon="23.99137">
        <ele>484.745556</ele>
        <time>2022-03-08T09:10:01.706Z</time>
      </trkpt>
      <trkpt lat="42.55797" lon="23.99137">
        <ele>484.606416</ele>
        <time>2022-03-08T09:10:04.754Z</time>
      </trkpt>
      <trkpt lat="42.55807" lon="23.99137">
        <ele>484.470147</ele>
        <time>2022-03-08T09:10:07.733Z</time>
      </trkpt>
      <trkpt lat="42.55817" lon="23.99138">
        <ele>484.32975</ele>
        <time>2022-03-08T09:10:10.719Z</time>
      </trkpt>
      <trkpt lat="42.55829" lon="23.99135">
        <ele>484.171275</ele>
        <time>2022-03-08T09:10:14.761Z</time>
      </trkpt>
      <trkpt lat="42.55839" lon="23.99129">
        <ele>484.00785</ele>
        <time>2022-03-08T09:10:18.724Z</time>
      </trkpt>
      <trkpt lat="42.55849" lon="23.99122">
        <ele>483.861435</ele>
        <time>2022-03-08T09:10:21.725Z</time>
      </trkpt>
      <trkpt lat="42.55859" lon="23.99114">
        <ele>483.703087</ele>
        <time>2022-03-08T09:10:24.716Z</time>
      </trkpt>
      <trkpt lat="42.55868" lon="23.99105">
        <ele>483.540249</ele>
        <time>2022-03-08T09:10:27.726Z</time>
      </trkpt>
      <trkpt lat="42.55877" lon="23.99098">
        <ele>483.399487</ele>
        <time>2022-03-08T09:10:30.720Z</time>
      </trkpt>
      <trkpt lat="42.55885" lon="23.9909">
        <ele>483.271883</ele>
        <time>2022-03-08T09:10:33.725Z</time>
      </trkpt>
      <trkpt lat="42.55894" lon="23.99083">
        <ele>483.128622</ele>
        <time>2022-03-08T09:10:36.768Z</time>
      </trkpt>
      <trkpt lat="42.55903" lon="23.99078">
        <ele>482.915002</ele>
        <time>2022-03-08T09:10:39.721Z</time>
      </trkpt>
      <trkpt lat="42.55914" lon="23.99073">
        <ele>482.63999</ele>
        <time>2022-03-08T09:10:42.729Z</time>
      </trkpt>
      <trkpt lat="42.55927" lon="23.99068">
        <ele>482.35174</ele>
        <time>2022-03-08T09:10:45.718Z</time>
      </trkpt>
      <trkpt lat="42.55939" lon="23.99062">
        <ele>482.064576</ele>
        <time>2022-03-08T09:10:48.708Z</time>
      </trkpt>
      <trkpt lat="42.55949" lon="23.99059">
        <ele>481.829576</ele>
        <time>2022-03-08T09:10:51.736Z</time>
      </trkpt>
      <trkpt lat="42.55958" lon="23.99056">
        <ele>481.62255</ele>
        <time>2022-03-08T09:10:54.721Z</time>
      </trkpt>
      <trkpt lat="42.55969" lon="23.99055">
        <ele>481.374846</ele>
        <time>2022-03-08T09:10:57.721Z</time>
      </trkpt>
      <trkpt lat="42.55979" lon="23.99056">
        <ele>481.160778</ele>
        <time>2022-03-08T09:11:00.727Z</time>
      </trkpt>
      <trkpt lat="42.55991" lon="23.99053">
        <ele>480.897401</ele>
        <time>2022-03-08T09:11:04.703Z</time>
      </trkpt>
      <trkpt lat="42.56" lon="23.99052">
        <ele>480.683516</ele>
        <time>2022-03-08T09:11:08.763Z</time>
      </trkpt>
      <trkpt lat="42.56012" lon="23.9905">
        <ele>480.427205</ele>
        <time>2022-03-08T09:11:12.705Z</time>
      </trkpt>
      <trkpt lat="42.56022" lon="23.99048">
        <ele>480.18322</ele>
        <time>2022-03-08T09:11:15.718Z</time>
      </trkpt>
      <trkpt lat="42.56033" lon="23.99047">
        <ele>479.941144</ele>
        <time>2022-03-08T09:11:18.736Z</time>
      </trkpt>
      <trkpt lat="42.56044" lon="23.99046">
        <ele>479.69952</ele>
        <time>2022-03-08T09:11:21.717Z</time>
      </trkpt>
      <trkpt lat="42.56056" lon="23.99043">
        <ele>479.439286</ele>
        <time>2022-03-08T09:11:24.711Z</time>
      </trkpt>
      <trkpt lat="42.56067" lon="23.99039">
        <ele>479.179027</ele>
        <time>2022-03-08T09:11:27.736Z</time>
      </trkpt>
      <trkpt lat="42.56079" lon="23.99036">
        <ele>479.01131</ele>
        <time>2022-03-08T09:11:30.719Z</time>
      </trkpt>
      <trkpt lat="42.5609" lon="23.99032">
        <ele>478.889347</ele>
        <time>2022-03-08T09:11:33.713Z</time>
      </trkpt>
      <trkpt lat="42.56102" lon="23.9903">
        <ele>478.755122</ele>
        <time>2022-03-08T09:11:36.726Z</time>
      </trkpt>
      <trkpt lat="42.56113" lon="23.99029">
        <ele>478.631551</ele>
        <time>2022-03-08T09:11:39.750Z</time>
      </trkpt>
      <trkpt lat="42.56125" lon="23.99027">
        <ele>478.50445</ele>
        <time>2022-03-08T09:11:42.711Z</time>
      </trkpt>
      <trkpt lat="42.56137" lon="23.99026">
        <ele>478.378947</ele>
        <time>2022-03-08T09:11:45.731Z</time>
      </trkpt>
      <trkpt lat="42.56148" lon="23.99024">
        <ele>478.26121</ele>
        <time>2022-03-08T09:11:48.756Z</time>
      </trkpt>
      <trkpt lat="42.56159" lon="23.99022">
        <ele>478.141331</ele>
        <time>2022-03-08T09:11:51.711Z</time>
      </trkpt>
      <trkpt lat="42.5617" lon="23.9902">
        <ele>478.01233</ele>
        <time>2022-03-08T09:11:54.724Z</time>
      </trkpt>
      <trkpt lat="42.56182" lon="23.99017">
        <ele>477.884745</ele>
        <time>2022-03-08T09:11:57.727Z</time>
      </trkpt>
      <trkpt lat="42.56194" lon="23.99016">
        <ele>477.758879</ele>
        <time>2022-03-08T09:12:00.723Z</time>
      </trkpt>
      <trkpt lat="42.56205" lon="23.99014">
        <ele>477.640455</ele>
        <time>2022-03-08T09:12:03.727Z</time>
      </trkpt>
      <trkpt lat="42.56215" lon="23.99012">
        <ele>477.522372</ele>
        <time>2022-03-08T09:12:06.725Z</time>
      </trkpt>
      <trkpt lat="42.56225" lon="23.99009">
        <ele>477.41254</ele>
        <time>2022-03-08T09:12:09.721Z</time>
      </trkpt>
      <trkpt lat="42.56235" lon="23.99007">
        <ele>477.302048</ele>
        <time>2022-03-08T09:12:12.732Z</time>
      </trkpt>
      <trkpt lat="42.56248" lon="23.99004">
        <ele>477.164628</ele>
        <time>2022-03-08T09:12:15.723Z</time>
      </trkpt>
      <trkpt lat="42.56257" lon="23.99001">
        <ele>477.049171</ele>
        <time>2022-03-08T09:12:17.726Z</time>
      </trkpt>
      <trkpt lat="42.56268" lon="23.98995">
        <ele>476.893912</ele>
        <time>2022-03-08T09:12:20.732Z</time>
      </trkpt>
      <trkpt lat="42.5628" lon="23.9899">
        <ele>476.730954</ele>
        <time>2022-03-08T09:12:23.730Z</time>
      </trkpt>
      <trkpt lat="42.56292" lon="23.98987">
        <ele>476.578362</ele>
        <time>2022-03-08T09:12:26.731Z</time>
      </trkpt>
      <trkpt lat="42.56304" lon="23.98983">
        <ele>476.419716</ele>
        <time>2022-03-08T09:12:29.703Z</time>
      </trkpt>
      <trkpt lat="42.56313" lon="23.98979">
        <ele>476.300155</ele>
        <time>2022-03-08T09:12:31.711Z</time>
      </trkpt>
      <trkpt lat="42.56326" lon="23.98974">
        <ele>476.13199</ele>
        <time>2022-03-08T09:12:34.714Z</time>
      </trkpt>
      <trkpt lat="42.56338" lon="23.98971">
        <ele>475.974034</ele>
        <time>2022-03-08T09:12:37.740Z</time>
      </trkpt>
      <trkpt lat="42.56349" lon="23.98968">
        <ele>475.831611</ele>
        <time>2022-03-08T09:12:40.733Z</time>
      </trkpt>
      <trkpt lat="42.5636" lon="23.98963">
        <ele>475.677227</ele>
        <time>2022-03-08T09:12:43.722Z</time>
      </trkpt>
      <trkpt lat="42.56369" lon="23.9896">
        <ele>475.558821</ele>
        <time>2022-03-08T09:12:46.721Z</time>
      </trkpt>
      <trkpt lat="42.56381" lon="23.98958">
        <ele>475.415761</ele>
        <time>2022-03-08T09:12:49.710Z</time>
      </trkpt>
      <trkpt lat="42.56392" lon="23.98957">
        <ele>475.270868</ele>
        <time>2022-03-08T09:12:52.726Z</time>
      </trkpt>
      <trkpt lat="42.56403" lon="23.98951">
        <ele>475.123432</ele>
        <time>2022-03-08T09:12:55.772Z</time>
      </trkpt>
      <trkpt lat="42.56414" lon="23.98946">
        <ele>474.973059</ele>
        <time>2022-03-08T09:12:58.728Z</time>
      </trkpt>
      <trkpt lat="42.56426" lon="23.98941">
        <ele>475.145845</ele>
        <time>2022-03-08T09:13:01.748Z</time>
      </trkpt>
      <trkpt lat="42.56437" lon="23.98936">
        <ele>475.873042</ele>
        <time>2022-03-08T09:13:04.712Z</time>
      </trkpt>
      <trkpt lat="42.56448" lon="23.98933">
        <ele>476.569302</ele>
        <time>2022-03-08T09:13:07.716Z</time>
      </trkpt>
      <trkpt lat="42.56459" lon="23.98931">
        <ele>477.258961</ele>
        <time>2022-03-08T09:13:10.726Z</time>
      </trkpt>
      <trkpt lat="42.56469" lon="23.9893">
        <ele>477.867767</ele>
        <time>2022-03-08T09:13:13.719Z</time>
      </trkpt>
      <trkpt lat="42.56479" lon="23.98929">
        <ele>478.482696</ele>
        <time>2022-03-08T09:13:16.739Z</time>
      </trkpt>
      <trkpt lat="42.56491" lon="23.98929">
        <ele>479.188446</ele>
        <time>2022-03-08T09:13:19.731Z</time>
      </trkpt>
      <trkpt lat="42.56503" lon="23.98928">
        <ele>479.962035</ele>
        <time>2022-03-08T09:13:22.720Z</time>
      </trkpt>
      <trkpt lat="42.56516" lon="23.98929">
        <ele>480.754021</ele>
        <time>2022-03-08T09:13:25.721Z</time>
      </trkpt>
      <trkpt lat="42.56529" lon="23.98932">
        <ele>481.555175</ele>
        <time>2022-03-08T09:13:28.716Z</time>
      </trkpt>
      <trkpt lat="42.56539" lon="23.98937">
        <ele>482.2148</ele>
        <time>2022-03-08T09:13:31.716Z</time>
      </trkpt>
      <trkpt lat="42.56549" lon="23.98945">
        <ele>482.906045</ele>
        <time>2022-03-08T09:13:34.763Z</time>
      </trkpt>
      <trkpt lat="42.56559" lon="23.98952">
        <ele>483.626486</ele>
        <time>2022-03-08T09:13:37.723Z</time>
      </trkpt>
      <trkpt lat="42.5657" lon="23.98959">
        <ele>484.337315</ele>
        <time>2022-03-08T09:13:40.716Z</time>
      </trkpt>
      <trkpt lat="42.5658" lon="23.98966">
        <ele>485.05111</ele>
        <time>2022-03-08T09:13:43.738Z</time>
      </trkpt>
      <trkpt lat="42.5659" lon="23.98973">
        <ele>485.733342</ele>
        <time>2022-03-08T09:13:46.724Z</time>
      </trkpt>
      <trkpt lat="42.56601" lon="23.9898">
        <ele>486.299535</ele>
        <time>2022-03-08T09:13:49.719Z</time>
      </trkpt>
      <trkpt lat="42.5661" lon="23.98988">
        <ele>486.782086</ele>
        <time>2022-03-08T09:13:52.751Z</time>
      </trkpt>
      <trkpt lat="42.5662" lon="23.98996">
        <ele>487.278467</ele>
        <time>2022-03-08T09:13:55.730Z</time>
      </trkpt>
      <trkpt lat="42.56629" lon="23.99005">
        <ele>487.772832</ele>
        <time>2022-03-08T09:13:58.702Z</time>
      </trkpt>
      <trkpt lat="42.56639" lon="23.99015">
        <ele>488.302088</ele>
        <time>2022-03-08T09:14:01.708Z</time>
      </trkpt>
      <trkpt lat="42.56649" lon="23.99024">
        <ele>488.816308</ele>
        <time>2022-03-08T09:14:04.712Z</time>
      </trkpt>
      <trkpt lat="42.56659" lon="23.99032">
        <ele>489.358252</ele>
        <time>2022-03-08T09:14:07.720Z</time>
      </trkpt>
      <trkpt lat="42.5667" lon="23.9904">
        <ele>489.895719</ele>
        <time>2022-03-08T09:14:10.722Z</time>
      </trkpt>
      <trkpt lat="42.56681" lon="23.99047">
        <ele>490.43347</ele>
        <time>2022-03-08T09:14:13.732Z</time>
      </trkpt>
      <trkpt lat="42.5669" lon="23.99055">
        <ele>490.897759</ele>
        <time>2022-03-08T09:14:16.722Z</time>
      </trkpt>
      <trkpt lat="42.56699" lon="23.99063">
        <ele>491.334431</ele>
        <time>2022-03-08T09:14:19.759Z</time>
      </trkpt>
      <trkpt lat="42.56706" lon="23.9907">
        <ele>491.747738</ele>
        <time>2022-03-08T09:14:22.724Z</time>
      </trkpt>
      <trkpt lat="42.56715" lon="23.99076">
        <ele>492.175789</ele>
        <time>2022-03-08T09:14:25.704Z</time>
      </trkpt>
      <trkpt lat="42.56723" lon="23.99083">
        <ele>492.576635</ele>
        <time>2022-03-08T09:14:28.716Z</time>
      </trkpt>
      <trkpt lat="42.56732" lon="23.99091">
        <ele>493.05296</ele>
        <time>2022-03-08T09:14:32.735Z</time>
      </trkpt>
      <trkpt lat="42.5674" lon="23.99097">
        <ele>493.460091</ele>
        <time>2022-03-08T09:14:36.753Z</time>
      </trkpt>
      <trkpt lat="42.56749" lon="23.99104">
        <ele>493.856001</ele>
        <time>2022-03-08T09:14:40.724Z</time>
      </trkpt>
      <trkpt lat="42.56758" lon="23.99113">
        <ele>494.162013</ele>
        <time>2022-03-08T09:14:44.717Z</time>
      </trkpt>
      <trkpt lat="42.56766" lon="23.9912">
        <ele>494.442108</ele>
        <time>2022-03-08T09:14:48.719Z</time>
      </trkpt>
      <trkpt lat="42.56775" lon="23.99125">
        <ele>494.709921</ele>
        <time>2022-03-08T09:14:52.733Z</time>
      </trkpt>
      <trkpt lat="42.56782" lon="23.99135">
        <ele>495.000279</ele>
        <time>2022-03-08T09:14:57.728Z</time>
      </trkpt>
      <trkpt lat="42.56791" lon="23.99143">
        <ele>495.305631</ele>
        <time>2022-03-08T09:15:01.721Z</time>
      </trkpt>
      <trkpt lat="42.56798" lon="23.99151">
        <ele>495.579194</ele>
        <time>2022-03-08T09:15:05.711Z</time>
      </trkpt>
      <trkpt lat="42.56806" lon="23.99157">
        <ele>495.8397</ele>
        <time>2022-03-08T09:15:09.754Z</time>
      </trkpt>
      <trkpt lat="42.56816" lon="23.99163">
        <ele>496.140341</ele>
        <time>2022-03-08T09:15:14.718Z</time>
      </trkpt>
      <trkpt lat="42.56825" lon="23.9917">
        <ele>496.445848</ele>
        <time>2022-03-08T09:15:19.732Z</time>
      </trkpt>
      <trkpt lat="42.56834" lon="23.99179">
        <ele>496.755078</ele>
        <time>2022-03-08T09:15:24.728Z</time>
      </trkpt>
      <trkpt lat="42.5684" lon="23.99189">
        <ele>497.023408</ele>
        <time>2022-03-08T09:15:28.721Z</time>
      </trkpt>
      <trkpt lat="42.56845" lon="23.99201">
        <ele>497.307631</ele>
        <time>2022-03-08T09:15:32.733Z</time>
      </trkpt>
      <trkpt lat="42.56849" lon="23.99212">
        <ele>497.564058</ele>
        <time>2022-03-08T09:15:35.707Z</time>
      </trkpt>
      <trkpt lat="42.56854" lon="23.99226">
        <ele>497.890703</ele>
        <time>2022-03-08T09:15:39.777Z</time>
      </trkpt>
      <trkpt lat="42.56858" lon="23.99241">
        <ele>498.219081</ele>
        <time>2022-03-08T09:15:43.728Z</time>
      </trkpt>
      <trkpt lat="42.56861" lon="23.99256">
        <ele>498.549378</ele>
        <time>2022-03-08T09:15:47.720Z</time>
      </trkpt>
      <trkpt lat="42.56862" lon="23.99271">
        <ele>498.859518</ele>
        <time>2022-03-08T09:15:51.718Z</time>
      </trkpt>
      <trkpt lat="42.56863" lon="23.99286">
        <ele>498.6739</ele>
        <time>2022-03-08T09:15:55.723Z</time>
      </trkpt>
      <trkpt lat="42.56865" lon="23.99301">
        <ele>498.465866</ele>
        <time>2022-03-08T09:15:59.739Z</time>
      </trkpt>
      <trkpt lat="42.56867" lon="23.99317">
        <ele>498.247849</ele>
        <time>2022-03-08T09:16:03.729Z</time>
      </trkpt>
      <trkpt lat="42.56869" lon="23.99332">
        <ele>498.042377</ele>
        <time>2022-03-08T09:16:07.718Z</time>
      </trkpt>
      <trkpt lat="42.56871" lon="23.99348">
        <ele>497.834285</ele>
        <time>2022-03-08T09:16:11.724Z</time>
      </trkpt>
      <trkpt lat="42.56873" lon="23.99362">
        <ele>497.638609</ele>
        <time>2022-03-08T09:16:15.729Z</time>
      </trkpt>
      <trkpt lat="42.56873" lon="23.99378">
        <ele>497.433646</ele>
        <time>2022-03-08T09:16:19.714Z</time>
      </trkpt>
      <trkpt lat="42.56872" lon="23.99393">
        <ele>497.225929</ele>
        <time>2022-03-08T09:16:23.726Z</time>
      </trkpt>
      <trkpt lat="42.56872" lon="23.99409">
        <ele>497.015668</ele>
        <time>2022-03-08T09:16:27.730Z</time>
      </trkpt>
      <trkpt lat="42.5687" lon="23.99424">
        <ele>496.809529</ele>
        <time>2022-03-08T09:16:31.720Z</time>
      </trkpt>
      <trkpt lat="42.56867" lon="23.99437">
        <ele>496.633427</ele>
        <time>2022-03-08T09:16:34.728Z</time>
      </trkpt>
      <trkpt lat="42.56863" lon="23.99451">
        <ele>496.42862</ele>
        <time>2022-03-08T09:16:38.721Z</time>
      </trkpt>
      <trkpt lat="42.5686" lon="23.99464">
        <ele>496.251298</ele>
        <time>2022-03-08T09:16:42.719Z</time>
      </trkpt>
      <trkpt lat="42.56856" lon="23.99476">
        <ele>496.068713</ele>
        <time>2022-03-08T09:16:46.729Z</time>
      </trkpt>
      <trkpt lat="42.5685" lon="23.99488">
        <ele>495.886097</ele>
        <time>2022-03-08T09:16:50.750Z</time>
      </trkpt>
      <trkpt lat="42.56845" lon="23.99499">
        <ele>495.712458</ele>
        <time>2022-03-08T09:16:54.719Z</time>
      </trkpt>
      <trkpt lat="42.56839" lon="23.99512">
        <ele>495.573856</ele>
        <time>2022-03-08T09:16:58.712Z</time>
      </trkpt>
      <trkpt lat="42.56833" lon="23.99525">
        <ele>495.494013</ele>
        <time>2022-03-08T09:17:02.727Z</time>
      </trkpt>
      <trkpt lat="42.5683" lon="23.99538">
        <ele>495.41712</ele>
        <time>2022-03-08T09:17:07.776Z</time>
      </trkpt>
      <trkpt lat="42.56826" lon="23.99551">
        <ele>495.339471</ele>
        <time>2022-03-08T09:17:12.711Z</time>
      </trkpt>
      <trkpt lat="42.56824" lon="23.99563">
        <ele>495.271484</ele>
        <time>2022-03-08T09:17:16.735Z</time>
      </trkpt>
      <trkpt lat="42.56824" lon="23.99577">
        <ele>495.194929</ele>
        <time>2022-03-08T09:17:21.723Z</time>
      </trkpt>
      <trkpt lat="42.56824" lon="23.9959">
        <ele>495.125963</ele>
        <time>2022-03-08T09:17:25.718Z</time>
      </trkpt>
      <trkpt lat="42.56825" lon="23.99603">
        <ele>495.05843</ele>
        <time>2022-03-08T09:17:29.747Z</time>
      </trkpt>
      <trkpt lat="42.56825" lon="23.99618">
        <ele>494.975303</ele>
        <time>2022-03-08T09:17:34.723Z</time>
      </trkpt>
      <trkpt lat="42.56828" lon="23.99632">
        <ele>494.896786</ele>
        <time>2022-03-08T09:17:39.715Z</time>
      </trkpt>
      <trkpt lat="42.56832" lon="23.99644">
        <ele>494.823085</ele>
        <time>2022-03-08T09:17:44.728Z</time>
      </trkpt>
      <trkpt lat="42.56837" lon="23.99655">
        <ele>494.752104</ele>
        <time>2022-03-08T09:17:48.707Z</time>
      </trkpt>
      <trkpt lat="42.56845" lon="23.99666">
        <ele>494.672096</ele>
        <time>2022-03-08T09:17:52.727Z</time>
      </trkpt>
      <trkpt lat="42.56853" lon="23.99673">
        <ele>494.602918</ele>
        <time>2022-03-08T09:17:56.712Z</time>
      </trkpt>
      <trkpt lat="42.56862" lon="23.99675">
        <ele>494.535965</ele>
        <time>2022-03-08T09:18:00.730Z</time>
      </trkpt>
      <trkpt lat="42.56873" lon="23.99676">
        <ele>494.456138</ele>
        <time>2022-03-08T09:18:05.728Z</time>
      </trkpt>
      <trkpt lat="42.56883" lon="23.99675">
        <ele>494.378557</ele>
        <time>2022-03-08T09:18:10.751Z</time>
      </trkpt>
      <trkpt lat="42.56892" lon="23.99671">
        <ele>494.307925</ele>
        <time>2022-03-08T09:18:15.703Z</time>
      </trkpt>
      <trkpt lat="42.56901" lon="23.99664">
        <ele>494.509535</ele>
        <time>2022-03-08T09:18:20.735Z</time>
      </trkpt>
      <trkpt lat="42.5691" lon="23.99656">
        <ele>494.767551</ele>
        <time>2022-03-08T09:18:25.735Z</time>
      </trkpt>
      <trkpt lat="42.56918" lon="23.99647">
        <ele>495.011044</ele>
        <time>2022-03-08T09:18:30.770Z</time>
      </trkpt>
      <trkpt lat="42.56925" lon="23.9964">
        <ele>495.233467</ele>
        <time>2022-03-08T09:18:35.711Z</time>
      </trkpt>
      <trkpt lat="42.56933" lon="23.99634">
        <ele>495.464229</ele>
        <time>2022-03-08T09:18:40.751Z</time>
      </trkpt>
      <trkpt lat="42.56941" lon="23.99626">
        <ele>495.700896</ele>
        <time>2022-03-08T09:18:45.729Z</time>
      </trkpt>
      <trkpt lat="42.5695" lon="23.99617">
        <ele>495.9743</ele>
        <time>2022-03-08T09:18:50.703Z</time>
      </trkpt>
      <trkpt lat="42.56958" lon="23.99608">
        <ele>496.241206</ele>
        <time>2022-03-08T09:18:55.720Z</time>
      </trkpt>
      <trkpt lat="42.56968" lon="23.99599">
        <ele>496.524704</ele>
        <time>2022-03-08T09:19:00.735Z</time>
      </trkpt>
      <trkpt lat="42.56975" lon="23.9959">
        <ele>496.759901</ele>
        <time>2022-03-08T09:19:04.714Z</time>
      </trkpt>
      <trkpt lat="42.56983" lon="23.99581">
        <ele>497.021395</ele>
        <time>2022-03-08T09:19:09.756Z</time>
      </trkpt>
      <trkpt lat="42.56991" lon="23.99573">
        <ele>497.27181</ele>
        <time>2022-03-08T09:19:13.699Z</time>
      </trkpt>
      <trkpt lat="42.56999" lon="23.99562">
        <ele>497.554217</ele>
        <time>2022-03-08T09:19:17.705Z</time>
      </trkpt>
      <trkpt lat="42.57006" lon="23.99552">
        <ele>497.802973</ele>
        <time>2022-03-08T09:19:20.718Z</time>
      </trkpt>
      <trkpt lat="42.57013" lon="23.99543">
        <ele>498.044907</ele>
        <time>2022-03-08T09:19:23.700Z</time>
      </trkpt>
      <trkpt lat="42.57021" lon="23.99534">
        <ele>498.288599</ele>
        <time>2022-03-08T09:19:26.705Z</time>
      </trkpt>
      <trkpt lat="42.57028" lon="23.99525">
        <ele>498.526847</ele>
        <time>2022-03-08T09:19:29.710Z</time>
      </trkpt>
      <trkpt lat="42.57036" lon="23.99516">
        <ele>498.687157</ele>
        <time>2022-03-08T09:19:32.742Z</time>
      </trkpt>
      <trkpt lat="42.57044" lon="23.99507">
        <ele>498.495519</ele>
        <time>2022-03-08T09:19:35.709Z</time>
      </trkpt>
      <trkpt lat="42.57053" lon="23.99499">
        <ele>498.29138</ele>
        <time>2022-03-08T09:19:38.720Z</time>
      </trkpt>
      <trkpt lat="42.57064" lon="23.99491">
        <ele>498.066191</ele>
        <time>2022-03-08T09:19:41.719Z</time>
      </trkpt>
      <trkpt lat="42.57075" lon="23.99485">
        <ele>497.843214</ele>
        <time>2022-03-08T09:19:44.709Z</time>
      </trkpt>
      <trkpt lat="42.57085" lon="23.99482">
        <ele>497.664301</ele>
        <time>2022-03-08T09:19:46.732Z</time>
      </trkpt>
      <trkpt lat="42.57094" lon="23.99479">
        <ele>497.494599</ele>
        <time>2022-03-08T09:19:48.720Z</time>
      </trkpt>
      <trkpt lat="42.57105" lon="23.99475">
        <ele>497.283275</ele>
        <time>2022-03-08T09:19:51.752Z</time>
      </trkpt>
      <trkpt lat="42.57118" lon="23.99473">
        <ele>497.042024</ele>
        <time>2022-03-08T09:19:54.727Z</time>
      </trkpt>
      <trkpt lat="42.57128" lon="23.99473">
        <ele>496.859132</ele>
        <time>2022-03-08T09:19:56.704Z</time>
      </trkpt>
      <trkpt lat="42.57139" lon="23.99473">
        <ele>496.672703</ele>
        <time>2022-03-08T09:19:58.735Z</time>
      </trkpt>
      <trkpt lat="42.57149" lon="23.99473">
        <ele>496.473372</ele>
        <time>2022-03-08T09:20:00.751Z</time>
      </trkpt>
      <trkpt lat="42.57161" lon="23.99475">
        <ele>496.266729</ele>
        <time>2022-03-08T09:20:02.710Z</time>
      </trkpt>
      <trkpt lat="42.57171" lon="23.99479">
        <ele>496.067968</ele>
        <time>2022-03-08T09:20:04.719Z</time>
      </trkpt>
      <trkpt lat="42.57182" lon="23.99482">
        <ele>495.871127</ele>
        <time>2022-03-08T09:20:06.715Z</time>
      </trkpt>
      <trkpt lat="42.57194" lon="23.99487">
        <ele>495.636541</ele>
        <time>2022-03-08T09:20:08.714Z</time>
      </trkpt>
      <trkpt lat="42.57207" lon="23.99492">
        <ele>495.393657</ele>
        <time>2022-03-08T09:20:10.722Z</time>
      </trkpt>
      <trkpt lat="42.5722" lon="23.99496">
        <ele>495.153404</ele>
        <time>2022-03-08T09:20:12.726Z</time>
      </trkpt>
      <trkpt lat="42.57233" lon="23.99502">
        <ele>494.90865</ele>
        <time>2022-03-08T09:20:14.719Z</time>
      </trkpt>
      <trkpt lat="42.57245" lon="23.99508">
        <ele>494.673134</ele>
        <time>2022-03-08T09:20:16.712Z</time>
      </trkpt>
      <trkpt lat="42.57256" lon="23.99517">
        <ele>494.445114</ele>
        <time>2022-03-08T09:20:18.756Z</time>
      </trkpt>
      <trkpt lat="42.57267" lon="23.99527">
        <ele>494.213805</ele>
        <time>2022-03-08T09:20:20.706Z</time>
      </trkpt>
      <trkpt lat="42.57277" lon="23.99536">
        <ele>493.997797</ele>
        <time>2022-03-08T09:20:22.720Z</time>
      </trkpt>
      <trkpt lat="42.57286" lon="23.99544">
        <ele>493.808369</ele>
        <time>2022-03-08T09:20:24.736Z</time>
      </trkpt>
      <trkpt lat="42.57295" lon="23.99551">
        <ele>493.627616</ele>
        <time>2022-03-08T09:20:26.705Z</time>
      </trkpt>
      <trkpt lat="42.57303" lon="23.99559">
        <ele>493.44627</ele>
        <time>2022-03-08T09:20:28.729Z</time>
      </trkpt>
      <trkpt lat="42.57311" lon="23.99567">
        <ele>493.270122</ele>
        <time>2022-03-08T09:20:30.740Z</time>
      </trkpt>
      <trkpt lat="42.57319" lon="23.99575">
        <ele>493.095411</ele>
        <time>2022-03-08T09:20:32.707Z</time>
      </trkpt>
      <trkpt lat="42.57327" lon="23.99582">
        <ele>492.931088</ele>
        <time>2022-03-08T09:20:34.735Z</time>
      </trkpt>
      <trkpt lat="42.57334" lon="23.99589">
        <ele>492.768287</ele>
        <time>2022-03-08T09:20:36.732Z</time>
      </trkpt>
      <trkpt lat="42.57342" lon="23.99596">
        <ele>492.597312</ele>
        <time>2022-03-08T09:20:38.758Z</time>
      </trkpt>
      <trkpt lat="42.5735" lon="23.99603">
        <ele>492.429235</ele>
        <time>2022-03-08T09:20:40.712Z</time>
      </trkpt>
      <trkpt lat="42.57358" lon="23.9961">
        <ele>492.268644</ele>
        <time>2022-03-08T09:20:42.734Z</time>
      </trkpt>
      <trkpt lat="42.57368" lon="23.99619">
        <ele>492.433699</ele>
        <time>2022-03-08T09:20:45.711Z</time>
      </trkpt>
      <trkpt lat="42.57379" lon="23.99628">
        <ele>492.685535</ele>
        <time>2022-03-08T09:20:48.721Z</time>
      </trkpt>
      <trkpt lat="42.57389" lon="23.99639">
        <ele>492.920666</ele>
        <time>2022-03-08T09:20:51.723Z</time>
      </trkpt>
      <trkpt lat="42.57398" lon="23.99651">
        <ele>493.160463</ele>
        <time>2022-03-08T09:20:54.730Z</time>
      </trkpt>
      <trkpt lat="42.57406" lon="23.99663">
        <ele>493.388896</ele>
        <time>2022-03-08T09:20:57.728Z</time>
      </trkpt>
      <trkpt lat="42.57413" lon="23.99674">
        <ele>493.588078</ele>
        <time>2022-03-08T09:21:00.710Z</time>
      </trkpt>
      <trkpt lat="42.5742" lon="23.99685">
        <ele>493.793793</ele>
        <time>2022-03-08T09:21:03.742Z</time>
      </trkpt>
      <trkpt lat="42.57426" lon="23.99697">
        <ele>493.992714</ele>
        <time>2022-03-08T09:21:06.761Z</time>
      </trkpt>
      <trkpt lat="42.57436" lon="23.99709">
        <ele>494.242402</ele>
        <time>2022-03-08T09:21:09.712Z</time>
      </trkpt>
      <trkpt lat="42.57443" lon="23.9972">
        <ele>494.446323</ele>
        <time>2022-03-08T09:21:12.721Z</time>
      </trkpt>
      <trkpt lat="42.57451" lon="23.99732">
        <ele>494.674756</ele>
        <time>2022-03-08T09:21:15.730Z</time>
      </trkpt>
      <trkpt lat="42.57457" lon="23.99746">
        <ele>494.89958</ele>
        <time>2022-03-08T09:21:18.718Z</time>
      </trkpt>
      <trkpt lat="42.57464" lon="23.99759">
        <ele>495.127672</ele>
        <time>2022-03-08T09:21:21.726Z</time>
      </trkpt>
      <trkpt lat="42.57471" lon="23.99771">
        <ele>495.341653</ele>
        <time>2022-03-08T09:21:24.720Z</time>
      </trkpt>
      <trkpt lat="42.57478" lon="23.99782">
        <ele>495.544205</ele>
        <time>2022-03-08T09:21:27.700Z</time>
      </trkpt>
      <trkpt lat="42.57485" lon="23.99794">
        <ele>495.66609</ele>
        <time>2022-03-08T09:21:30.722Z</time>
      </trkpt>
      <trkpt lat="42.57491" lon="23.99806">
        <ele>495.704997</ele>
        <time>2022-03-08T09:21:33.721Z</time>
      </trkpt>
      <trkpt lat="42.57497" lon="23.99819">
        <ele>495.747277</ele>
        <time>2022-03-08T09:21:36.718Z</time>
      </trkpt>
      <trkpt lat="42.57505" lon="23.9983">
        <ele>495.792371</ele>
        <time>2022-03-08T09:21:39.739Z</time>
      </trkpt>
      <trkpt lat="42.57513" lon="23.99841">
        <ele>495.834041</ele>
        <time>2022-03-08T09:21:42.732Z</time>
      </trkpt>
      <trkpt lat="42.57519" lon="23.99851">
        <ele>495.868087</ele>
        <time>2022-03-08T09:21:45.737Z</time>
      </trkpt>
      <trkpt lat="42.57524" lon="23.99861">
        <ele>495.901696</ele>
        <time>2022-03-08T09:21:48.700Z</time>
      </trkpt>
      <trkpt lat="42.5753" lon="23.99872">
        <ele>495.93816</ele>
        <time>2022-03-08T09:21:51.751Z</time>
      </trkpt>
      <trkpt lat="42.57536" lon="23.99881">
        <ele>495.971799</ele>
        <time>2022-03-08T09:21:54.732Z</time>
      </trkpt>
      <trkpt lat="42.57542" lon="23.99892">
        <ele>496.007168</ele>
        <time>2022-03-08T09:21:57.700Z</time>
      </trkpt>
      <trkpt lat="42.57547" lon="23.99903">
        <ele>496.043636</ele>
        <time>2022-03-08T09:22:00.716Z</time>
      </trkpt>
      <trkpt lat="42.57553" lon="23.99913">
        <ele>496.079222</ele>
        <time>2022-03-08T09:22:03.741Z</time>
      </trkpt>
      <trkpt lat="42.57561" lon="23.99925">
        <ele>496.123783</ele>
        <time>2022-03-08T09:22:07.719Z</time>
      </trkpt>
      <trkpt lat="42.57567" lon="23.99935">
        <ele>496.157553</ele>
        <time>2022-03-08T09:22:10.734Z</time>
      </trkpt>
      <trkpt lat="42.57574" lon="23.99947">
        <ele>496.198857</ele>
        <time>2022-03-08T09:22:14.735Z</time>
      </trkpt>
      <trkpt lat="42.57581" lon="23.99959">
        <ele>496.242361</ele>
        <time>2022-03-08T09:22:18.720Z</time>
      </trkpt>
      <trkpt lat="42.57587" lon="23.99968">
        <ele>496.276089</ele>
        <time>2022-03-08T09:22:21.739Z</time>
      </trkpt>
      <trkpt lat="42.57593" lon="23.99978">
        <ele>496.310716</ele>
        <time>2022-03-08T09:22:24.719Z</time>
      </trkpt>
      <trkpt lat="42.57599" lon="23.99989">
        <ele>496.490028</ele>
        <time>2022-03-08T09:22:27.708Z</time>
      </trkpt>
      <trkpt lat="42.57604" lon="24">
        <ele>496.679247</ele>
        <time>2022-03-08T09:22:30.760Z</time>
      </trkpt>
      <trkpt lat="42.5761" lon="24.00009">
        <ele>496.852691</ele>
        <time>2022-03-08T09:22:33.714Z</time>
      </trkpt>
      <trkpt lat="42.57616" lon="24.00021">
        <ele>497.06013</ele>
        <time>2022-03-08T09:22:37.718Z</time>
      </trkpt>
      <trkpt lat="42.57622" lon="24.00033">
        <ele>497.262005</ele>
        <time>2022-03-08T09:22:41.754Z</time>
      </trkpt>
      <trkpt lat="42.57629" lon="24.00046">
        <ele>497.489416</ele>
        <time>2022-03-08T09:22:45.719Z</time>
      </trkpt>
      <trkpt lat="42.57635" lon="24.00057">
        <ele>497.675298</ele>
        <time>2022-03-08T09:22:48.724Z</time>
      </trkpt>
      <trkpt lat="42.5764" lon="24.00067">
        <ele>497.861096</ele>
        <time>2022-03-08T09:22:51.724Z</time>
      </trkpt>
      <trkpt lat="42.57647" lon="24.0008">
        <ele>498.089058</ele>
        <time>2022-03-08T09:22:55.714Z</time>
      </trkpt>
      <trkpt lat="42.57654" lon="24.00093">
        <ele>498.309065</ele>
        <time>2022-03-08T09:22:59.711Z</time>
      </trkpt>
      <trkpt lat="42.57659" lon="24.00108">
        <ele>498.542107</ele>
        <time>2022-03-08T09:23:03.720Z</time>
      </trkpt>
      <trkpt lat="42.57663" lon="24.0012">
        <ele>498.727253</ele>
        <time>2022-03-08T09:23:06.731Z</time>
      </trkpt>
      <trkpt lat="42.57667" lon="24.00132">
        <ele>498.912329</ele>
        <time>2022-03-08T09:23:09.741Z</time>
      </trkpt>
      <trkpt lat="42.5767" lon="24.00144">
        <ele>499.093449</ele>
        <time>2022-03-08T09:23:12.726Z</time>
      </trkpt>
      <trkpt lat="42.5767" lon="24.00159">
        <ele>499.298712</ele>
        <time>2022-03-08T09:23:15.772Z</time>
      </trkpt>
      <trkpt lat="42.57668" lon="24.00173">
        <ele>499.49986</ele>
        <time>2022-03-08T09:23:18.728Z</time>
      </trkpt>
      <trkpt lat="42.57671" lon="24.00186">
        <ele>499.69873</ele>
        <time>2022-03-08T09:23:22.722Z</time>
      </trkpt>
      <trkpt lat="42.57671" lon="24.002">
        <ele>499.676469</ele>
        <time>2022-03-08T09:23:26.756Z</time>
      </trkpt>
      <trkpt lat="42.57671" lon="24.00215">
        <ele>499.516762</ele>
        <time>2022-03-08T09:23:30.725Z</time>
      </trkpt>
      <trkpt lat="42.5767" lon="24.0023">
        <ele>499.365261</ele>
        <time>2022-03-08T09:23:34.712Z</time>
      </trkpt>
      <trkpt lat="42.5767" lon="24.00243">
        <ele>499.228486</ele>
        <time>2022-03-08T09:23:38.728Z</time>
      </trkpt>
      <trkpt lat="42.5767" lon="24.00258">
        <ele>499.072002</ele>
        <time>2022-03-08T09:23:43.736Z</time>
      </trkpt>
      <trkpt lat="42.57669" lon="24.00271">
        <ele>498.934945</ele>
        <time>2022-03-08T09:23:47.723Z</time>
      </trkpt>
      <trkpt lat="42.5767" lon="24.00286">
        <ele>498.779195</ele>
        <time>2022-03-08T09:23:52.780Z</time>
      </trkpt>
      <trkpt lat="42.57669" lon="24.003">
        <ele>498.630893</ele>
        <time>2022-03-08T09:23:57.751Z</time>
      </trkpt>
      <trkpt lat="42.57669" lon="24.00313">
        <ele>498.497298</ele>
        <time>2022-03-08T09:24:01.714Z</time>
      </trkpt>
      <trkpt lat="42.57668" lon="24.00327">
        <ele>498.353275</ele>
        <time>2022-03-08T09:24:05.706Z</time>
      </trkpt>
      <trkpt lat="42.57669" lon="24.00339">
        <ele>498.21956</ele>
        <time>2022-03-08T09:24:09.731Z</time>
      </trkpt>
      <trkpt lat="42.57668" lon="24.00354">
        <ele>498.070752</ele>
        <time>2022-03-08T09:24:14.722Z</time>
      </trkpt>
      <trkpt lat="42.57668" lon="24.00367">
        <ele>497.927807</ele>
        <time>2022-03-08T09:24:19.726Z</time>
      </trkpt>
      <trkpt lat="42.57667" lon="24.0038">
        <ele>497.799113</ele>
        <time>2022-03-08T09:24:24.716Z</time>
      </trkpt>
      <trkpt lat="42.57666" lon="24.00394">
        <ele>497.646556</ele>
        <time>2022-03-08T09:24:29.726Z</time>
      </trkpt>
      <trkpt lat="42.57665" lon="24.00408">
        <ele>497.497748</ele>
        <time>2022-03-08T09:24:33.735Z</time>
      </trkpt>
      <trkpt lat="42.57665" lon="24.00422">
        <ele>497.349588</ele>
        <time>2022-03-08T09:24:37.744Z</time>
      </trkpt>
      <trkpt lat="42.57665" lon="24.00436">
        <ele>497.241098</ele>
        <time>2022-03-08T09:24:41.718Z</time>
      </trkpt>
      <trkpt lat="42.57665" lon="24.0045">
        <ele>497.436499</ele>
        <time>2022-03-08T09:24:45.718Z</time>
      </trkpt>
      <trkpt lat="42.57665" lon="24.00465">
        <ele>497.638759</ele>
        <time>2022-03-08T09:24:49.760Z</time>
      </trkpt>
      <trkpt lat="42.57664" lon="24.00479">
        <ele>497.84048</ele>
        <time>2022-03-08T09:24:53.733Z</time>
      </trkpt>
      <trkpt lat="42.57663" lon="24.00494">
        <ele>498.044228</ele>
        <time>2022-03-08T09:24:57.724Z</time>
      </trkpt>
      <trkpt lat="42.57664" lon="24.00508">
        <ele>498.236848</ele>
        <time>2022-03-08T09:25:01.794Z</time>
      </trkpt>
      <trkpt lat="42.57663" lon="24.00521">
        <ele>498.426582</ele>
        <time>2022-03-08T09:25:05.714Z</time>
      </trkpt>
      <trkpt lat="42.57662" lon="24.00534">
        <ele>498.611128</ele>
        <time>2022-03-08T09:25:09.727Z</time>
      </trkpt>
      <trkpt lat="42.57661" lon="24.00548">
        <ele>498.803597</ele>
        <time>2022-03-08T09:25:13.725Z</time>
      </trkpt>
      <trkpt lat="42.57661" lon="24.00561">
        <ele>498.987609</ele>
        <time>2022-03-08T09:25:17.727Z</time>
      </trkpt>
      <trkpt lat="42.57661" lon="24.00576">
        <ele>499.187005</ele>
        <time>2022-03-08T09:25:22.724Z</time>
      </trkpt>
      <trkpt lat="42.5766" lon="24.0059">
        <ele>499.38734</ele>
        <time>2022-03-08T09:25:26.710Z</time>
      </trkpt>
      <trkpt lat="42.57659" lon="24.00605">
        <ele>499.602052</ele>
        <time>2022-03-08T09:25:30.713Z</time>
      </trkpt>
      <trkpt lat="42.57658" lon="24.0062">
        <ele>499.810705</ele>
        <time>2022-03-08T09:25:34.718Z</time>
      </trkpt>
      <trkpt lat="42.57659" lon="24.00634">
        <ele>499.998962</ele>
        <time>2022-03-08T09:25:38.724Z</time>
      </trkpt>
      <trkpt lat="42.5766" lon="24.00648">
        <ele>500.198042</ele>
        <time>2022-03-08T09:25:42.734Z</time>
      </trkpt>
      <trkpt lat="42.57662" lon="24.00661">
        <ele>500.391319</ele>
        <time>2022-03-08T09:25:46.718Z</time>
      </trkpt>
      <trkpt lat="42.57665" lon="24.00674">
        <ele>500.570706</ele>
        <time>2022-03-08T09:25:50.725Z</time>
      </trkpt>
      <trkpt lat="42.5767" lon="24.00685">
        <ele>500.724092</ele>
        <time>2022-03-08T09:25:54.724Z</time>
      </trkpt>
      <trkpt lat="42.57677" lon="24.00697">
        <ele>500.890094</ele>
        <time>2022-03-08T09:25:59.715Z</time>
      </trkpt>
      <trkpt lat="42.57683" lon="24.00707">
        <ele>501.030175</ele>
        <time>2022-03-08T09:26:03.784Z</time>
      </trkpt>
      <trkpt lat="42.57691" lon="24.00717">
        <ele>501.189969</ele>
        <time>2022-03-08T09:26:07.731Z</time>
      </trkpt>
      <trkpt lat="42.57699" lon="24.00727">
        <ele>501.351003</ele>
        <time>2022-03-08T09:26:11.746Z</time>
      </trkpt>
      <trkpt lat="42.57708" lon="24.00737">
        <ele>501.522336</ele>
        <time>2022-03-08T09:26:15.722Z</time>
      </trkpt>
      <trkpt lat="42.57715" lon="24.00744">
        <ele>501.655753</ele>
        <time>2022-03-08T09:26:18.732Z</time>
      </trkpt>
      <trkpt lat="42.57723" lon="24.00755">
        <ele>501.821772</ele>
        <time>2022-03-08T09:26:22.726Z</time>
      </trkpt>
      <trkpt lat="42.5773" lon="24.00766">
        <ele>501.988315</ele>
        <time>2022-03-08T09:26:26.715Z</time>
      </trkpt>
      <trkpt lat="42.57739" lon="24.00775">
        <ele>502.141622</ele>
        <time>2022-03-08T09:26:30.716Z</time>
      </trkpt>
      <trkpt lat="42.57747" lon="24.00783">
        <ele>502.302192</ele>
        <time>2022-03-08T09:26:34.723Z</time>
      </trkpt>
      <trkpt lat="42.57757" lon="24.00793">
        <ele>502.477041</ele>
        <time>2022-03-08T09:26:38.724Z</time>
      </trkpt>
      <trkpt lat="42.57765" lon="24.00803">
        <ele>502.642887</ele>
        <time>2022-03-08T09:26:42.715Z</time>
      </trkpt>
      <trkpt lat="42.57774" lon="24.00812">
        <ele>502.802521</ele>
        <time>2022-03-08T09:26:46.743Z</time>
      </trkpt>
      <trkpt lat="42.57782" lon="24.00822">
        <ele>502.969695</ele>
        <time>2022-03-08T09:26:50.724Z</time>
      </trkpt>
      <trkpt lat="42.5779" lon="24.0083">
        <ele>503.117624</ele>
        <time>2022-03-08T09:26:54.732Z</time>
      </trkpt>
      <trkpt lat="42.578" lon="24.00838">
        <ele>503.285518</ele>
        <time>2022-03-08T09:26:58.716Z</time>
      </trkpt>
      <trkpt lat="42.57811" lon="24.00842">
        <ele>503.501885</ele>
        <time>2022-03-08T09:27:02.728Z</time>
      </trkpt>
      <trkpt lat="42.5782" lon="24.0085">
        <ele>503.7057</ele>
        <time>2022-03-08T09:27:06.716Z</time>
      </trkpt>
      <trkpt lat="42.57828" lon="24.00856">
        <ele>503.877172</ele>
        <time>2022-03-08T09:27:09.730Z</time>
      </trkpt>
      <trkpt lat="42.57837" lon="24.00862">
        <ele>504.074122</ele>
        <time>2022-03-08T09:27:12.732Z</time>
      </trkpt>
      <trkpt lat="42.57846" lon="24.00866">
        <ele>504.251994</ele>
        <time>2022-03-08T09:27:15.719Z</time>
      </trkpt>
      <trkpt lat="42.57856" lon="24.00872">
        <ele>504.459359</ele>
        <time>2022-03-08T09:27:19.751Z</time>
      </trkpt>
      <trkpt lat="42.57867" lon="24.00878">
        <ele>504.681505</ele>
        <time>2022-03-08T09:27:23.722Z</time>
      </trkpt>
      <trkpt lat="42.57878" lon="24.00883">
        <ele>504.901682</ele>
        <time>2022-03-08T09:27:27.731Z</time>
      </trkpt>
      <trkpt lat="42.57888" lon="24.00887">
        <ele>505.10076</ele>
        <time>2022-03-08T09:27:31.719Z</time>
      </trkpt>
      <trkpt lat="42.57898" lon="24.00891">
        <ele>505.292384</ele>
        <time>2022-03-08T09:27:35.724Z</time>
      </trkpt>
      <trkpt lat="42.57908" lon="24.00894">
        <ele>505.488723</ele>
        <time>2022-03-08T09:27:38.744Z</time>
      </trkpt>
      <trkpt lat="42.57918" lon="24.00895">
        <ele>505.680071</ele>
        <time>2022-03-08T09:27:41.728Z</time>
      </trkpt>
      <trkpt lat="42.5793" lon="24.00895">
        <ele>505.91212</ele>
        <time>2022-03-08T09:27:45.733Z</time>
      </trkpt>
      <trkpt lat="42.57942" lon="24.00894">
        <ele>506.139295</ele>
        <time>2022-03-08T09:27:49.731Z</time>
      </trkpt>
      <trkpt lat="42.57953" lon="24.00893">
        <ele>506.341597</ele>
        <time>2022-03-08T09:27:52.744Z</time>
      </trkpt>
      <trkpt lat="42.57965" lon="24.00888">
        <ele>506.589433</ele>
        <time>2022-03-08T09:27:55.725Z</time>
      </trkpt>
      <trkpt lat="42.57976" lon="24.00883">
        <ele>506.591639</ele>
        <time>2022-03-08T09:27:58.752Z</time>
      </trkpt>
      <trkpt lat="42.57987" lon="24.00876">
        <ele>506.352285</ele>
        <time>2022-03-08T09:28:01.720Z</time>
      </trkpt>
      <trkpt lat="42.57996" lon="24.00868">
        <ele>506.12663</ele>
        <time>2022-03-08T09:28:04.728Z</time>
      </trkpt>
      <trkpt lat="42.58004" lon="24.00859">
        <ele>505.912123</ele>
        <time>2022-03-08T09:28:07.745Z</time>
      </trkpt>
      <trkpt lat="42.5801" lon="24.00847">
        <ele>505.684534</ele>
        <time>2022-03-08T09:28:10.710Z</time>
      </trkpt>
      <trkpt lat="42.58018" lon="24.00834">
        <ele>505.428709</ele>
        <time>2022-03-08T09:28:13.729Z</time>
      </trkpt>
      <trkpt lat="42.58023" lon="24.00823">
        <ele>505.239134</ele>
        <time>2022-03-08T09:28:15.732Z</time>
      </trkpt>
      <trkpt lat="42.58028" lon="24.00813">
        <ele>505.04558</ele>
        <time>2022-03-08T09:28:17.729Z</time>
      </trkpt>
      <trkpt lat="42.58034" lon="24.00802">
        <ele>504.841376</ele>
        <time>2022-03-08T09:28:19.744Z</time>
      </trkpt>
      <trkpt lat="42.5804" lon="24.00791">
        <ele>504.637214</ele>
        <time>2022-03-08T09:28:21.718Z</time>
      </trkpt>
      <trkpt lat="42.58045" lon="24.0078">
        <ele>504.432871</ele>
        <time>2022-03-08T09:28:23.724Z</time>
      </trkpt>
      <trkpt lat="42.58052" lon="24.00767">
        <ele>504.178279</ele>
        <time>2022-03-08T09:28:26.716Z</time>
      </trkpt>
      <trkpt lat="42.58061" lon="24.00753">
        <ele>503.907314</ele>
        <time>2022-03-08T09:28:29.722Z</time>
      </trkpt>
      <trkpt lat="42.58069" lon="24.00739">
        <ele>503.633984</ele>
        <time>2022-03-08T09:28:32.725Z</time>
      </trkpt>
      <trkpt lat="42.58078" lon="24.00725">
        <ele>503.354188</ele>
        <time>2022-03-08T09:28:35.729Z</time>
      </trkpt>
      <trkpt lat="42.58085" lon="24.00712">
        <ele>503.105635</ele>
        <time>2022-03-08T09:28:38.723Z</time>
      </trkpt>
      <trkpt lat="42.5809" lon="24.00701">
        <ele>503.048599</ele>
        <time>2022-03-08T09:28:41.762Z</time>
      </trkpt>
      <trkpt lat="42.58096" lon="24.00691">
        <ele>503.237709</ele>
        <time>2022-03-08T09:28:44.711Z</time>
      </trkpt>
      <trkpt lat="42.58101" lon="24.0068">
        <ele>503.426343</ele>
        <time>2022-03-08T09:28:47.735Z</time>
      </trkpt>
      <trkpt lat="42.58106" lon="24.00669">
        <ele>503.610055</ele>
        <time>2022-03-08T09:28:50.726Z</time>
      </trkpt>
      <trkpt lat="42.58112" lon="24.00656">
        <ele>503.828799</ele>
        <time>2022-03-08T09:28:54.734Z</time>
      </trkpt>
      <trkpt lat="42.58119" lon="24.00643">
        <ele>504.056462</ele>
        <time>2022-03-08T09:28:58.713Z</time>
      </trkpt>
      <trkpt lat="42.58124" lon="24.00633">
        <ele>504.235075</ele>
        <time>2022-03-08T09:29:01.733Z</time>
      </trkpt>
      <trkpt lat="42.58131" lon="24.00621">
        <ele>504.469733</ele>
        <time>2022-03-08T09:29:05.738Z</time>
      </trkpt>
      <trkpt lat="42.58137" lon="24.00609">
        <ele>504.674198</ele>
        <time>2022-03-08T09:29:09.727Z</time>
      </trkpt>
      <trkpt lat="42.58143" lon="24.00597">
        <ele>504.876364</ele>
        <time>2022-03-08T09:29:13.732Z</time>
      </trkpt>
      <trkpt lat="42.58148" lon="24.00586">
        <ele>505.069223</ele>
        <time>2022-03-08T09:29:17.727Z</time>
      </trkpt>
      <trkpt lat="42.58153" lon="24.00573">
        <ele>505.278308</ele>
        <time>2022-03-08T09:29:21.719Z</time>
      </trkpt>
      <trkpt lat="42.58156" lon="24.0056">
        <ele>505.475584</ele>
        <time>2022-03-08T09:29:25.768Z</time>
      </trkpt>
      <trkpt lat="42.5816" lon="24.00548">
        <ele>505.675568</ele>
        <time>2022-03-08T09:29:30.732Z</time>
      </trkpt>
      <trkpt lat="42.58165" lon="24.00534">
        <ele>505.894633</ele>
        <time>2022-03-08T09:29:34.734Z</time>
      </trkpt>
      <trkpt lat="42.5817" lon="24.0052">
        <ele>506.117406</ele>
        <time>2022-03-08T09:29:38.713Z</time>
      </trkpt>
      <trkpt lat="42.58173" lon="24.00509">
        <ele>506.295358</ele>
        <time>2022-03-08T09:29:41.725Z</time>
      </trkpt>
      <trkpt lat="42.58178" lon="24.00498">
        <ele>506.479382</ele>
        <time>2022-03-08T09:29:44.734Z</time>
      </trkpt>
      <trkpt lat="42.58182" lon="24.00484">
        <ele>506.573435</ele>
        <time>2022-03-08T09:29:48.727Z</time>
      </trkpt>
      <trkpt lat="42.58188" lon="24.0047">
        <ele>506.641268</ele>
        <time>2022-03-08T09:29:52.753Z</time>
      </trkpt>
      <trkpt lat="42.58194" lon="24.00458">
        <ele>506.704029</ele>
        <time>2022-03-08T09:29:55.731Z</time>
      </trkpt>
      <trkpt lat="42.58199" lon="24.00447">
        <ele>506.763099</ele>
        <time>2022-03-08T09:29:58.717Z</time>
      </trkpt>
      <trkpt lat="42.58205" lon="24.00435">
        <ele>506.822213</ele>
        <time>2022-03-08T09:30:01.709Z</time>
      </trkpt>
      <trkpt lat="42.58211" lon="24.00426">
        <ele>506.875438</ele>
        <time>2022-03-08T09:30:04.765Z</time>
      </trkpt>
      <trkpt lat="42.58217" lon="24.00416">
        <ele>506.933077</ele>
        <time>2022-03-08T09:30:07.719Z</time>
      </trkpt>
      <trkpt lat="42.58225" lon="24.00407">
        <ele>506.991823</ele>
        <time>2022-03-08T09:30:10.728Z</time>
      </trkpt>
      <trkpt lat="42.58233" lon="24.00397">
        <ele>507.05608</ele>
        <time>2022-03-08T09:30:13.726Z</time>
      </trkpt>
      <trkpt lat="42.5824" lon="24.00389">
        <ele>507.113104</ele>
        <time>2022-03-08T09:30:16.704Z</time>
      </trkpt>
      <trkpt lat="42.58248" lon="24.0038">
        <ele>507.172981</ele>
        <time>2022-03-08T09:30:19.737Z</time>
      </trkpt>
      <trkpt lat="42.58255" lon="24.00371">
        <ele>507.231242</ele>
        <time>2022-03-08T09:30:22.723Z</time>
      </trkpt>
      <trkpt lat="42.58263" lon="24.00362">
        <ele>507.289215</ele>
        <time>2022-03-08T09:30:25.722Z</time>
      </trkpt>
      <trkpt lat="42.5827" lon="24.00354">
        <ele>507.344415</ele>
        <time>2022-03-08T09:30:28.727Z</time>
      </trkpt>
      <trkpt lat="42.58278" lon="24.00344">
        <ele>507.410028</ele>
        <time>2022-03-08T09:30:31.724Z</time>
      </trkpt>
      <trkpt lat="42.58287" lon="24.00334">
        <ele>507.477945</ele>
        <time>2022-03-08T09:30:34.722Z</time>
      </trkpt>
      <trkpt lat="42.58294" lon="24.00327">
        <ele>507.531313</ele>
        <time>2022-03-08T09:30:37.729Z</time>
      </trkpt>
      <trkpt lat="42.58304" lon="24.00316">
        <ele>507.534702</ele>
        <time>2022-03-08T09:30:41.746Z</time>
      </trkpt>
      <trkpt lat="42.58312" lon="24.00308">
        <ele>507.414315</ele>
        <time>2022-03-08T09:30:44.730Z</time>
      </trkpt>
      <trkpt lat="42.58323" lon="24.00302">
        <ele>507.286144</ele>
        <time>2022-03-08T09:30:47.736Z</time>
      </trkpt>
      <trkpt lat="42.58333" lon="24.003">
        <ele>507.169901</ele>
        <time>2022-03-08T09:30:50.743Z</time>
      </trkpt>
      <trkpt lat="42.58343" lon="24.00303">
        <ele>507.048439</ele>
        <time>2022-03-08T09:30:53.723Z</time>
      </trkpt>
      <trkpt lat="42.58354" lon="24.00308">
        <ele>506.914768</ele>
        <time>2022-03-08T09:30:56.744Z</time>
      </trkpt>
      <trkpt lat="42.58365" lon="24.00313">
        <ele>506.774271</ele>
        <time>2022-03-08T09:30:59.752Z</time>
      </trkpt>
      <trkpt lat="42.58377" lon="24.00319">
        <ele>506.632115</ele>
        <time>2022-03-08T09:31:02.752Z</time>
      </trkpt>
      <trkpt lat="42.58389" lon="24.00324">
        <ele>506.493251</ele>
        <time>2022-03-08T09:31:05.724Z</time>
      </trkpt>
      <trkpt lat="42.584" lon="24.00328">
        <ele>506.359167</ele>
        <time>2022-03-08T09:31:08.735Z</time>
      </trkpt>
      <trkpt lat="42.58411" lon="24.00333">
        <ele>506.227902</ele>
        <time>2022-03-08T09:31:11.731Z</time>
      </trkpt>
      <trkpt lat="42.58422" lon="24.00338">
        <ele>506.095593</ele>
        <time>2022-03-08T09:31:14.727Z</time>
      </trkpt>
      <trkpt lat="42.58432" lon="24.00344">
        <ele>505.966933</ele>
        <time>2022-03-08T09:31:17.736Z</time>
      </trkpt>
      <trkpt lat="42.58441" lon="24.00351">
        <ele>505.843825</ele>
        <time>2022-03-08T09:31:20.722Z</time>
      </trkpt>
      <trkpt lat="42.58451" lon="24.00357">
        <ele>505.72084</ele>
        <time>2022-03-08T09:31:23.710Z</time>
      </trkpt>
      <trkpt lat="42.58458" lon="24.00366">
        <ele>505.60488</ele>
        <time>2022-03-08T09:31:26.726Z</time>
      </trkpt>
      <trkpt lat="42.58465" lon="24.00377">
        <ele>505.5478</ele>
        <time>2022-03-08T09:31:29.760Z</time>
      </trkpt>
      <trkpt lat="42.58472" lon="24.00387">
        <ele>505.72137</ele>
        <time>2022-03-08T09:31:32.711Z</time>
      </trkpt>
      <trkpt lat="42.58479" lon="24.00398">
        <ele>505.90911</ele>
        <time>2022-03-08T09:31:35.752Z</time>
      </trkpt>
      <trkpt lat="42.58486" lon="24.00409">
        <ele>506.097343</ele>
        <time>2022-03-08T09:31:38.722Z</time>
      </trkpt>
      <trkpt lat="42.58493" lon="24.00419">
        <ele>506.266759</ele>
        <time>2022-03-08T09:31:41.723Z</time>
      </trkpt>
      <trkpt lat="42.585" lon="24.00428">
        <ele>506.434442</ele>
        <time>2022-03-08T09:31:44.727Z</time>
      </trkpt>
      <trkpt lat="42.58507" lon="24.00436">
        <ele>506.598687</ele>
        <time>2022-03-08T09:31:47.707Z</time>
      </trkpt>
      <trkpt lat="42.58516" lon="24.00447">
        <ele>506.806978</ele>
        <time>2022-03-08T09:31:51.751Z</time>
      </trkpt>
      <trkpt lat="42.58526" lon="24.00457">
        <ele>507.015984</ele>
        <time>2022-03-08T09:31:55.721Z</time>
      </trkpt>
      <trkpt lat="42.58535" lon="24.00467">
        <ele>507.215838</ele>
        <time>2022-03-08T09:31:59.731Z</time>
      </trkpt>
      <trkpt lat="42.58542" lon="24.00475">
        <ele>507.383904</ele>
        <time>2022-03-08T09:32:02.747Z</time>
      </trkpt>
      <trkpt lat="42.58549" lon="24.00484">
        <ele>507.553717</ele>
        <time>2022-03-08T09:32:05.722Z</time>
      </trkpt>
      <trkpt lat="42.58557" lon="24.00496">
        <ele>507.758093</ele>
        <time>2022-03-08T09:32:09.738Z</time>
      </trkpt>
      <trkpt lat="42.58565" lon="24.00508">
        <ele>507.963194</ele>
        <time>2022-03-08T09:32:13.796Z</time>
      </trkpt>
      <trkpt lat="42.58573" lon="24.0052">
        <ele>508.164775</ele>
        <time>2022-03-08T09:32:17.715Z</time>
      </trkpt>
      <trkpt lat="42.5858" lon="24.0053">
        <ele>508.347592</ele>
        <time>2022-03-08T09:32:21.732Z</time>
      </trkpt>
      <trkpt lat="42.58587" lon="24.00541">
        <ele>508.530174</ele>
        <time>2022-03-08T09:32:25.724Z</time>
      </trkpt>
      <trkpt lat="42.58593" lon="24.00551">
        <ele>508.746804</ele>
        <time>2022-03-08T09:32:28.732Z</time>
      </trkpt>
      <trkpt lat="42.58599" lon="24.00563">
        <ele>509.079587</ele>
        <time>2022-03-08T09:32:31.736Z</time>
      </trkpt>
      <trkpt lat="42.58603" lon="24.00575">
        <ele>509.379551</ele>
        <time>2022-03-08T09:32:34.739Z</time>
      </trkpt>
      <trkpt lat="42.58608" lon="24.00586">
        <ele>509.674681</ele>
        <time>2022-03-08T09:32:37.742Z</time>
      </trkpt>
      <trkpt lat="42.58613" lon="24.00597">
        <ele>509.958262</ele>
        <time>2022-03-08T09:32:40.771Z</time>
      </trkpt>
      <trkpt lat="42.58618" lon="24.0061">
        <ele>510.305671</ele>
        <time>2022-03-08T09:32:44.723Z</time>
      </trkpt>
      <trkpt lat="42.58624" lon="24.00624">
        <ele>510.676715</ele>
        <time>2022-03-08T09:32:48.722Z</time>
      </trkpt>
      <trkpt lat="42.5863" lon="24.00634">
        <ele>510.967262</ele>
        <time>2022-03-08T09:32:51.751Z</time>
      </trkpt>
      <trkpt lat="42.58638" lon="24.00643">
        <ele>511.285272</ele>
        <time>2022-03-08T09:32:54.715Z</time>
      </trkpt>
      <trkpt lat="42.58646" lon="24.00652">
        <ele>511.616692</ele>
        <time>2022-03-08T09:32:57.718Z</time>
      </trkpt>
      <trkpt lat="42.58656" lon="24.00661">
        <ele>511.979878</ele>
        <time>2022-03-08T09:33:00.730Z</time>
      </trkpt>
      <trkpt lat="42.58666" lon="24.00667">
        <ele>512.33583</ele>
        <time>2022-03-08T09:33:03.747Z</time>
      </trkpt>
      <trkpt lat="42.58679" lon="24.00672">
        <ele>512.731656</ele>
        <time>2022-03-08T09:33:06.732Z</time>
      </trkpt>
      <trkpt lat="42.58692" lon="24.00677">
        <ele>513.148813</ele>
        <time>2022-03-08T09:33:09.734Z</time>
      </trkpt>
      <trkpt lat="42.587" lon="24.00679">
        <ele>513.4276</ele>
        <time>2022-03-08T09:33:11.722Z</time>
      </trkpt>
      <trkpt lat="42.58714" lon="24.00681">
        <ele>513.845382</ele>
        <time>2022-03-08T09:33:14.725Z</time>
      </trkpt>
      <trkpt lat="42.58727" lon="24.00681">
        <ele>514.249554</ele>
        <time>2022-03-08T09:33:17.715Z</time>
      </trkpt>
      <trkpt lat="42.58737" lon="24.00678">
        <ele>514.520089</ele>
        <time>2022-03-08T09:33:19.718Z</time>
      </trkpt>
      <trkpt lat="42.58745" lon="24.00675">
        <ele>514.774779</ele>
        <time>2022-03-08T09:33:21.719Z</time>
      </trkpt>
      <trkpt lat="42.58757" lon="24.00671">
        <ele>515.12294</ele>
        <time>2022-03-08T09:33:24.700Z</time>
      </trkpt>
      <trkpt lat="42.5877" lon="24.00667">
        <ele>515.481054</ele>
        <time>2022-03-08T09:33:27.721Z</time>
      </trkpt>
      <trkpt lat="42.58782" lon="24.00663">
        <ele>515.837187</ele>
        <time>2022-03-08T09:33:30.726Z</time>
      </trkpt>
      <trkpt lat="42.58794" lon="24.00658">
        <ele>516.187924</ele>
        <time>2022-03-08T09:33:33.757Z</time>
      </trkpt>
      <trkpt lat="42.58807" lon="24.00654">
        <ele>516.546757</ele>
        <time>2022-03-08T09:33:36.756Z</time>
      </trkpt>
      <trkpt lat="42.58819" lon="24.00653">
        <ele>516.877431</ele>
        <time>2022-03-08T09:33:39.730Z</time>
      </trkpt>
      <trkpt lat="42.58831" lon="24.00651">
        <ele>517.226539</ele>
        <time>2022-03-08T09:33:42.738Z</time>
      </trkpt>
      <trkpt lat="42.58843" lon="24.00646">
        <ele>517.579439</ele>
        <time>2022-03-08T09:33:45.733Z</time>
      </trkpt>
      <trkpt lat="42.58854" lon="24.00642">
        <ele>517.889167</ele>
        <time>2022-03-08T09:33:48.771Z</time>
      </trkpt>
      <trkpt lat="42.58863" lon="24.00638">
        <ele>518.16978</ele>
        <time>2022-03-08T09:33:51.728Z</time>
      </trkpt>
      <trkpt lat="42.58874" lon="24.00634">
        <ele>518.484394</ele>
        <time>2022-03-08T09:33:54.755Z</time>
      </trkpt>
      <trkpt lat="42.58887" lon="24.00631">
        <ele>518.838472</ele>
        <time>2022-03-08T09:33:57.760Z</time>
      </trkpt>
      <trkpt lat="42.58898" lon="24.00628">
        <ele>519.154489</ele>
        <time>2022-03-08T09:34:00.730Z</time>
      </trkpt>
      <trkpt lat="42.5891" lon="24.00626">
        <ele>518.720497</ele>
        <time>2022-03-08T09:34:03.723Z</time>
      </trkpt>
      <trkpt lat="42.58922" lon="24.00624">
        <ele>518.00731</ele>
        <time>2022-03-08T09:34:06.745Z</time>
      </trkpt>
      <trkpt lat="42.58935" lon="24.00621">
        <ele>517.294943</ele>
        <time>2022-03-08T09:34:09.800Z</time>
      </trkpt>
      <trkpt lat="42.58947" lon="24.00617">
        <ele>516.613354</ele>
        <time>2022-03-08T09:34:12.755Z</time>
      </trkpt>
      <trkpt lat="42.58959" lon="24.00615">
        <ele>515.932581</ele>
        <time>2022-03-08T09:34:15.724Z</time>
      </trkpt>
      <trkpt lat="42.58971" lon="24.00611">
        <ele>515.275279</ele>
        <time>2022-03-08T09:34:18.756Z</time>
      </trkpt>
      <trkpt lat="42.58981" lon="24.00609">
        <ele>514.682127</ele>
        <time>2022-03-08T09:34:21.709Z</time>
      </trkpt>
      <trkpt lat="42.58991" lon="24.00607">
        <ele>514.155819</ele>
        <time>2022-03-08T09:34:24.717Z</time>
      </trkpt>
      <trkpt lat="42.59" lon="24.00604">
        <ele>513.633391</ele>
        <time>2022-03-08T09:34:27.722Z</time>
      </trkpt>
      <trkpt lat="42.59011" lon="24.00603">
        <ele>513.026939</ele>
        <time>2022-03-08T09:34:30.760Z</time>
      </trkpt>
      <trkpt lat="42.59023" lon="24.00599">
        <ele>512.353428</ele>
        <time>2022-03-08T09:34:33.738Z</time>
      </trkpt>
      <trkpt lat="42.59035" lon="24.00596">
        <ele>511.664217</ele>
        <time>2022-03-08T09:34:36.728Z</time>
      </trkpt>
      <trkpt lat="42.59047" lon="24.00594">
        <ele>511.023392</ele>
        <time>2022-03-08T09:34:39.735Z</time>
      </trkpt>
      <trkpt lat="42.59057" lon="24.00592">
        <ele>510.421502</ele>
        <time>2022-03-08T09:34:42.739Z</time>
      </trkpt>
      <trkpt lat="42.59068" lon="24.00593">
        <ele>509.815872</ele>
        <time>2022-03-08T09:34:46.750Z</time>
      </trkpt>
      <trkpt lat="42.5908" lon="24.00595">
        <ele>509.185364</ele>
        <time>2022-03-08T09:34:50.738Z</time>
      </trkpt>
      <trkpt lat="42.5909" lon="24.00597">
        <ele>508.70917</ele>
        <time>2022-03-08T09:34:53.732Z</time>
      </trkpt>
      <trkpt lat="42.59101" lon="24.006">
        <ele>508.199495</ele>
        <time>2022-03-08T09:34:56.735Z</time>
      </trkpt>
      <trkpt lat="42.59111" lon="24.00604">
        <ele>507.7048</ele>
        <time>2022-03-08T09:34:59.732Z</time>
      </trkpt>
      <trkpt lat="42.59121" lon="24.00609">
        <ele>507.224423</ele>
        <time>2022-03-08T09:35:02.751Z</time>
      </trkpt>
      <trkpt lat="42.5913" lon="24.00613">
        <ele>506.797378</ele>
        <time>2022-03-08T09:35:05.707Z</time>
      </trkpt>
      <trkpt lat="42.59139" lon="24.00618">
        <ele>506.345467</ele>
        <time>2022-03-08T09:35:08.730Z</time>
      </trkpt>
      <trkpt lat="42.59149" lon="24.00621">
        <ele>505.873634</ele>
        <time>2022-03-08T09:35:11.737Z</time>
      </trkpt>
      <trkpt lat="42.59158" lon="24.00627">
        <ele>505.400025</ele>
        <time>2022-03-08T09:35:14.716Z</time>
      </trkpt>
      <trkpt lat="42.59168" lon="24.00634">
        <ele>504.920617</ele>
        <time>2022-03-08T09:35:17.722Z</time>
      </trkpt>
      <trkpt lat="42.59177" lon="24.0064">
        <ele>504.459436</ele>
        <time>2022-03-08T09:35:20.760Z</time>
      </trkpt>
      <trkpt lat="42.59186" lon="24.00644">
        <ele>503.97906</ele>
        <time>2022-03-08T09:35:23.713Z</time>
      </trkpt>
      <trkpt lat="42.59197" lon="24.00649">
        <ele>503.467233</ele>
        <time>2022-03-08T09:35:26.710Z</time>
      </trkpt>
      <trkpt lat="42.59207" lon="24.00654">
        <ele>502.959306</ele>
        <time>2022-03-08T09:35:29.738Z</time>
      </trkpt>
      <trkpt lat="42.59217" lon="24.00658">
        <ele>502.478802</ele>
        <time>2022-03-08T09:35:32.724Z</time>
      </trkpt>
      <trkpt lat="42.59228" lon="24.00661">
        <ele>502.003218</ele>
        <time>2022-03-08T09:35:35.733Z</time>
      </trkpt>
      <trkpt lat="42.59238" lon="24.00662">
        <ele>501.503466</ele>
        <time>2022-03-08T09:35:38.716Z</time>
      </trkpt>
      <trkpt lat="42.59249" lon="24.00664">
        <ele>501.006557</ele>
        <time>2022-03-08T09:35:41.721Z</time>
      </trkpt>
      <trkpt lat="42.5926" lon="24.00666">
        <ele>501.071304</ele>
        <time>2022-03-08T09:35:44.723Z</time>
      </trkpt>
      <trkpt lat="42.59271" lon="24.00668">
        <ele>501.133718</ele>
        <time>2022-03-08T09:35:47.732Z</time>
      </trkpt>
      <trkpt lat="42.59281" lon="24.00672">
        <ele>501.194499</ele>
        <time>2022-03-08T09:35:50.754Z</time>
      </trkpt>
      <trkpt lat="42.59292" lon="24.00676">
        <ele>501.262214</ele>
        <time>2022-03-08T09:35:53.716Z</time>
      </trkpt>
      <trkpt lat="42.59304" lon="24.0068">
        <ele>501.329195</ele>
        <time>2022-03-08T09:35:56.723Z</time>
      </trkpt>
      <trkpt lat="42.59315" lon="24.00683">
        <ele>501.394455</ele>
        <time>2022-03-08T09:35:59.773Z</time>
      </trkpt>
      <trkpt lat="42.59325" lon="24.00685">
        <ele>501.455331</ele>
        <time>2022-03-08T09:36:02.732Z</time>
      </trkpt>
      <trkpt lat="42.59336" lon="24.00688">
        <ele>501.517993</ele>
        <time>2022-03-08T09:36:05.716Z</time>
      </trkpt>
      <trkpt lat="42.59346" lon="24.00691">
        <ele>501.577124</ele>
        <time>2022-03-08T09:36:08.735Z</time>
      </trkpt>
      <trkpt lat="42.59356" lon="24.00693">
        <ele>501.636766</ele>
        <time>2022-03-08T09:36:11.714Z</time>
      </trkpt>
      <trkpt lat="42.59365" lon="24.00695">
        <ele>501.692042</ele>
        <time>2022-03-08T09:36:14.720Z</time>
      </trkpt>
      <trkpt lat="42.59376" lon="24.00694">
        <ele>501.757095</ele>
        <time>2022-03-08T09:36:17.728Z</time>
      </trkpt>
      <trkpt lat="42.59388" lon="24.00692">
        <ele>501.825545</ele>
        <time>2022-03-08T09:36:20.714Z</time>
      </trkpt>
      <trkpt lat="42.594" lon="24.00692">
        <ele>501.890942</ele>
        <time>2022-03-08T09:36:23.736Z</time>
      </trkpt>
      <trkpt lat="42.59411" lon="24.00692">
        <ele>501.955216</ele>
        <time>2022-03-08T09:36:26.762Z</time>
      </trkpt>
      <trkpt lat="42.59422" lon="24.00692">
        <ele>502.018881</ele>
        <time>2022-03-08T09:36:29.726Z</time>
      </trkpt>
      <trkpt lat="42.59432" lon="24.00694">
        <ele>502.386699</ele>
        <time>2022-03-08T09:36:32.726Z</time>
      </trkpt>
      <trkpt lat="42.59442" lon="24.00697">
        <ele>503.066589</ele>
        <time>2022-03-08T09:36:35.732Z</time>
      </trkpt>
      <trkpt lat="42.59453" lon="24.007">
        <ele>503.714741</ele>
        <time>2022-03-08T09:36:38.779Z</time>
      </trkpt>
      <trkpt lat="42.59461" lon="24.00705">
        <ele>504.30697</ele>
        <time>2022-03-08T09:36:41.729Z</time>
      </trkpt>
      <trkpt lat="42.59469" lon="24.00712">
        <ele>504.909269</ele>
        <time>2022-03-08T09:36:44.725Z</time>
      </trkpt>
      <trkpt lat="42.59478" lon="24.00721">
        <ele>505.592692</ele>
        <time>2022-03-08T09:36:47.728Z</time>
      </trkpt>
      <trkpt lat="42.59486" lon="24.00731">
        <ele>506.277408</ele>
        <time>2022-03-08T09:36:50.712Z</time>
      </trkpt>
      <trkpt lat="42.59494" lon="24.00741">
        <ele>506.94074</ele>
        <time>2022-03-08T09:36:53.722Z</time>
      </trkpt>
      <trkpt lat="42.595" lon="24.00751">
        <ele>507.559877</ele>
        <time>2022-03-08T09:36:56.729Z</time>
      </trkpt>
      <trkpt lat="42.59508" lon="24.00762">
        <ele>508.264186</ele>
        <time>2022-03-08T09:37:00.713Z</time>
      </trkpt>
      <trkpt lat="42.59515" lon="24.00774">
        <ele>508.971519</ele>
        <time>2022-03-08T09:37:04.719Z</time>
      </trkpt>
      <trkpt lat="42.59521" lon="24.00784">
        <ele>509.56253</ele>
        <time>2022-03-08T09:37:07.736Z</time>
      </trkpt>
      <trkpt lat="42.59528" lon="24.00796">
        <ele>510.288108</ele>
        <time>2022-03-08T09:37:11.727Z</time>
      </trkpt>
      <trkpt lat="42.59534" lon="24.00808">
        <ele>510.957585</ele>
        <time>2022-03-08T09:37:15.720Z</time>
      </trkpt>
      <trkpt lat="42.59539" lon="24.00819">
        <ele>511.564316</ele>
        <time>2022-03-08T09:37:19.716Z</time>
      </trkpt>
      <trkpt lat="42.59544" lon="24.00833">
        <ele>512.249425</ele>
        <time>2022-03-08T09:37:24.724Z</time>
      </trkpt>
      <trkpt lat="42.5955" lon="24.00843">
        <ele>512.859514</ele>
        <time>2022-03-08T09:37:28.751Z</time>
      </trkpt>
      <trkpt lat="42.59556" lon="24.00854">
        <ele>513.331995</ele>
        <time>2022-03-08T09:37:32.771Z</time>
      </trkpt>
      <trkpt lat="42.59562" lon="24.00865">
        <ele>513.364862</ele>
        <time>2022-03-08T09:37:36.738Z</time>
      </trkpt>
      <trkpt lat="42.59569" lon="24.00875">
        <ele>513.400208</ele>
        <time>2022-03-08T09:37:41.723Z</time>
      </trkpt>
      <trkpt lat="42.59577" lon="24.00885">
        <ele>513.435233</ele>
        <time>2022-03-08T09:37:46.725Z</time>
      </trkpt>
      <trkpt lat="42.59585" lon="24.00894">
        <ele>513.468553</ele>
        <time>2022-03-08T09:37:50.763Z</time>
      </trkpt>
      <trkpt lat="42.59593" lon="24.00903">
        <ele>513.503602</ele>
        <time>2022-03-08T09:37:54.762Z</time>
      </trkpt>
      <trkpt lat="42.59602" lon="24.00911">
        <ele>513.541431</ele>
        <time>2022-03-08T09:37:58.716Z</time>
      </trkpt>
      <trkpt lat="42.5961" lon="24.00918">
        <ele>513.57123</ele>
        <time>2022-03-08T09:38:01.742Z</time>
      </trkpt>
      <trkpt lat="42.59618" lon="24.00925">
        <ele>513.602128</ele>
        <time>2022-03-08T09:38:04.769Z</time>
      </trkpt>
      <trkpt lat="42.59625" lon="24.00933">
        <ele>513.632777</ele>
        <time>2022-03-08T09:38:07.741Z</time>
      </trkpt>
      <trkpt lat="42.59634" lon="24.0094">
        <ele>513.666312</ele>
        <time>2022-03-08T09:38:10.730Z</time>
      </trkpt>
      <trkpt lat="42.59642" lon="24.00946">
        <ele>513.697524</ele>
        <time>2022-03-08T09:38:13.731Z</time>
      </trkpt>
      <trkpt lat="42.59652" lon="24.00954">
        <ele>513.736745</ele>
        <time>2022-03-08T09:38:17.735Z</time>
      </trkpt>
      <trkpt lat="42.5966" lon="24.00961">
        <ele>513.767533</ele>
        <time>2022-03-08T09:38:20.716Z</time>
      </trkpt>
      <trkpt lat="42.59669" lon="24.00964">
        <ele>513.798041</ele>
        <time>2022-03-08T09:38:23.735Z</time>
      </trkpt>
      <trkpt lat="42.5968" lon="24.00968">
        <ele>513.837066</ele>
        <time>2022-03-08T09:38:27.722Z</time>
      </trkpt>
      <trkpt lat="42.59691" lon="24.00973">
        <ele>513.873451</ele>
        <time>2022-03-08T09:38:31.724Z</time>
      </trkpt>
      <trkpt lat="42.59701" lon="24.00976">
        <ele>513.908374</ele>
        <time>2022-03-08T09:38:35.726Z</time>
      </trkpt>
      <trkpt lat="42.59712" lon="24.00979">
        <ele>513.729563</ele>
        <time>2022-03-08T09:38:39.735Z</time>
      </trkpt>
      <trkpt lat="42.59724" lon="24.00982">
        <ele>513.422894</ele>
        <time>2022-03-08T09:38:43.724Z</time>
      </trkpt>
      <trkpt lat="42.59732" lon="24.00985">
        <ele>513.192276</ele>
        <time>2022-03-08T09:38:46.738Z</time>
      </trkpt>
      <trkpt lat="42.59743" lon="24.00987">
        <ele>512.926643</ele>
        <time>2022-03-08T09:38:50.739Z</time>
      </trkpt>
      <trkpt lat="42.59752" lon="24.00989">
        <ele>512.693158</ele>
        <time>2022-03-08T09:38:53.738Z</time>
      </trkpt>
      <trkpt lat="42.59763" lon="24.00993">
        <ele>512.408463</ele>
        <time>2022-03-08T09:38:57.730Z</time>
      </trkpt>
      <trkpt lat="42.59774" lon="24.00994">
        <ele>512.128235</ele>
        <time>2022-03-08T09:39:01.744Z</time>
      </trkpt>
      <trkpt lat="42.59785" lon="24.00994">
        <ele>511.84091</ele>
        <time>2022-03-08T09:39:05.722Z</time>
      </trkpt>
      <trkpt lat="42.59797" lon="24.00989">
        <ele>511.529224</ele>
        <time>2022-03-08T09:39:09.735Z</time>
      </trkpt>
      <trkpt lat="42.59805" lon="24.00987">
        <ele>511.301028</ele>
        <time>2022-03-08T09:39:12.712Z</time>
      </trkpt>
      <trkpt lat="42.59815" lon="24.00985">
        <ele>511.053564</ele>
        <time>2022-03-08T09:39:16.732Z</time>
      </trkpt>
      <trkpt lat="42.59826" lon="24.00981">
        <ele>510.77672</ele>
        <time>2022-03-08T09:39:20.731Z</time>
      </trkpt>
      <trkpt lat="42.59838" lon="24.00979">
        <ele>510.468411</ele>
        <time>2022-03-08T09:39:24.807Z</time>
      </trkpt>
      <trkpt lat="42.59847" lon="24.00977">
        <ele>510.219303</ele>
        <time>2022-03-08T09:39:27.715Z</time>
      </trkpt>
      <trkpt lat="42.59857" lon="24.00977">
        <ele>509.967653</ele>
        <time>2022-03-08T09:39:30.743Z</time>
      </trkpt>
      <trkpt lat="42.59867" lon="24.00979">
        <ele>509.721807</ele>
        <time>2022-03-08T09:39:33.708Z</time>
      </trkpt>
      <trkpt lat="42.59876" lon="24.0098">
        <ele>509.482142</ele>
        <time>2022-03-08T09:39:36.727Z</time>
      </trkpt>
      <trkpt lat="42.59886" lon="24.0098">
        <ele>509.379898</ele>
        <time>2022-03-08T09:39:39.736Z</time>
      </trkpt>
      <trkpt lat="42.59895" lon="24.00979">
        <ele>509.447908</ele>
        <time>2022-03-08T09:39:42.715Z</time>
      </trkpt>
      <trkpt lat="42.59905" lon="24.00978">
        <ele>509.521918</ele>
        <time>2022-03-08T09:39:45.727Z</time>
      </trkpt>
      <trkpt lat="42.59916" lon="24.00977">
        <ele>509.594931</ele>
        <time>2022-03-08T09:39:48.720Z</time>
      </trkpt>
      <trkpt lat="42.59927" lon="24.00976">
        <ele>509.681221</ele>
        <time>2022-03-08T09:39:52.708Z</time>
      </trkpt>
      <trkpt lat="42.59937" lon="24.00976">
        <ele>509.750576</ele>
        <time>2022-03-08T09:39:55.721Z</time>
      </trkpt>
      <trkpt lat="42.59946" lon="24.00986">
        <ele>509.832905</ele>
        <time>2022-03-08T09:40:00.770Z</time>
      </trkpt>
      <trkpt lat="42.59947" lon="24.00998">
        <ele>509.899413</ele>
        <time>2022-03-08T09:40:03.726Z</time>
      </trkpt>
      <trkpt lat="42.59947" lon="24.01012">
        <ele>509.972855</ele>
        <time>2022-03-08T09:40:06.791Z</time>
      </trkpt>
      <trkpt lat="42.59948" lon="24.01026">
        <ele>510.04529</ele>
        <time>2022-03-08T09:40:09.717Z</time>
      </trkpt>
      <trkpt lat="42.59948" lon="24.01038">
        <ele>510.112829</ele>
        <time>2022-03-08T09:40:12.724Z</time>
      </trkpt>
      <trkpt lat="42.59948" lon="24.01051">
        <ele>510.180912</ele>
        <time>2022-03-08T09:40:15.719Z</time>
      </trkpt>
      <trkpt lat="42.59948" lon="24.01064">
        <ele>510.250668</ele>
        <time>2022-03-08T09:40:18.799Z</time>
      </trkpt>
      <trkpt lat="42.59947" lon="24.01077">
        <ele>510.318832</ele>
        <time>2022-03-08T09:40:21.705Z</time>
      </trkpt>
      <trkpt lat="42.59946" lon="24.01092">
        <ele>510.401641</ele>
        <time>2022-03-08T09:40:25.722Z</time>
      </trkpt>
      <trkpt lat="42.59942" lon="24.01108">
        <ele>510.487055</ele>
        <time>2022-03-08T09:40:29.730Z</time>
      </trkpt>
      <trkpt lat="42.5994" lon="24.01122">
        <ele>510.566088</ele>
        <time>2022-03-08T09:40:33.722Z</time>
      </trkpt>
      <trkpt lat="42.5994" lon="24.01136">
        <ele>510.638941</ele>
        <time>2022-03-08T09:40:38.717Z</time>
      </trkpt>
      <trkpt lat="42.59939" lon="24.01148">
        <ele>510.497966</ele>
        <time>2022-03-08T09:40:43.774Z</time>
      </trkpt>
      <trkpt lat="42.59931" lon="24.01133">
        <ele>510.233375</ele>
        <time>2022-03-08T09:44:48.731Z</time>
      </trkpt>
      <trkpt lat="42.59952" lon="24.01142">
        <ele>509.822902</ele>
        <time>2022-03-08T09:59:49.767Z</time>
      </trkpt>
      <trkpt lat="42.59946" lon="24.01113">
        <ele>509.398833</ele>
        <time>2022-03-08T10:04:00.736Z</time>
      </trkpt>
      <trkpt lat="42.5995" lon="24.01099">
        <ele>509.195272</ele>
        <time>2022-03-08T10:04:04.744Z</time>
      </trkpt>
      <trkpt lat="42.59953" lon="24.01087">
        <ele>509.022044</ele>
        <time>2022-03-08T10:04:07.733Z</time>
      </trkpt>
      <trkpt lat="42.59957" lon="24.01075">
        <ele>508.833825</ele>
        <time>2022-03-08T10:04:10.817Z</time>
      </trkpt>
      <trkpt lat="42.59959" lon="24.01063">
        <ele>508.658464</ele>
        <time>2022-03-08T10:04:13.739Z</time>
      </trkpt>
      <trkpt lat="42.59958" lon="24.01049">
        <ele>508.468317</ele>
        <time>2022-03-08T10:04:16.740Z</time>
      </trkpt>
      <trkpt lat="42.59957" lon="24.01035">
        <ele>508.267407</ele>
        <time>2022-03-08T10:04:20.735Z</time>
      </trkpt>
      <trkpt lat="42.59957" lon="24.01021">
        <ele>508.075861</ele>
        <time>2022-03-08T10:04:25.765Z</time>
      </trkpt>
      <trkpt lat="42.59956" lon="24.01007">
        <ele>507.871717</ele>
        <time>2022-03-08T10:04:31.783Z</time>
      </trkpt>
      <trkpt lat="42.59954" lon="24.00993">
        <ele>507.670734</ele>
        <time>2022-03-08T10:04:37.730Z</time>
      </trkpt>
      <trkpt lat="42.59954" lon="24.0098">
        <ele>507.483921</ele>
        <time>2022-03-08T10:04:42.755Z</time>
      </trkpt>
      <trkpt lat="42.59961" lon="24.00969">
        <ele>507.282503</ele>
        <time>2022-03-08T10:04:46.722Z</time>
      </trkpt>
      <trkpt lat="42.59968" lon="24.00962">
        <ele>507.467414</ele>
        <time>2022-03-08T10:04:50.725Z</time>
      </trkpt>
      <trkpt lat="42.59976" lon="24.00955">
        <ele>507.876664</ele>
        <time>2022-03-08T10:04:55.729Z</time>
      </trkpt>
      <trkpt lat="42.59983" lon="24.00946">
        <ele>508.278678</ele>
        <time>2022-03-08T10:04:59.728Z</time>
      </trkpt>
      <trkpt lat="42.59991" lon="24.00936">
        <ele>508.736497</ele>
        <time>2022-03-08T10:05:03.740Z</time>
      </trkpt>
      <trkpt lat="42.59999" lon="24.00927">
        <ele>509.209481</ele>
        <time>2022-03-08T10:05:07.737Z</time>
      </trkpt>
      <trkpt lat="42.60006" lon="24.00916">
        <ele>509.655727</ele>
        <time>2022-03-08T10:05:11.754Z</time>
      </trkpt>
      <trkpt lat="42.60014" lon="24.00905">
        <ele>510.135948</ele>
        <time>2022-03-08T10:05:15.777Z</time>
      </trkpt>
      <trkpt lat="42.6002" lon="24.00896">
        <ele>510.542574</ele>
        <time>2022-03-08T10:05:18.721Z</time>
      </trkpt>
      <trkpt lat="42.60027" lon="24.00888">
        <ele>510.938257</ele>
        <time>2022-03-08T10:05:21.735Z</time>
      </trkpt>
      <trkpt lat="42.60034" lon="24.0088">
        <ele>511.3513</ele>
        <time>2022-03-08T10:05:24.716Z</time>
      </trkpt>
      <trkpt lat="42.60041" lon="24.00868">
        <ele>511.826233</ele>
        <time>2022-03-08T10:05:28.746Z</time>
      </trkpt>
      <trkpt lat="42.60049" lon="24.00857">
        <ele>512.333325</ele>
        <time>2022-03-08T10:05:32.740Z</time>
      </trkpt>
      <trkpt lat="42.60056" lon="24.00848">
        <ele>512.746166</ele>
        <time>2022-03-08T10:05:35.721Z</time>
      </trkpt>
      <trkpt lat="42.60064" lon="24.0084">
        <ele>513.182936</ele>
        <time>2022-03-08T10:05:38.734Z</time>
      </trkpt>
      <trkpt lat="42.60076" lon="24.00837">
        <ele>513.67781</ele>
        <time>2022-03-08T10:05:42.735Z</time>
      </trkpt>
      <trkpt lat="42.60086" lon="24.00842">
        <ele>514.144138</ele>
        <time>2022-03-08T10:05:46.733Z</time>
      </trkpt>
      <trkpt lat="42.60094" lon="24.00852">
        <ele>514.632987</ele>
        <time>2022-03-08T10:05:50.736Z</time>
      </trkpt>
      <trkpt lat="42.601" lon="24.00863">
        <ele>515.102832</ele>
        <time>2022-03-08T10:05:54.733Z</time>
      </trkpt>
      <trkpt lat="42.60102" lon="24.00878">
        <ele>516.152558</ele>
        <time>2022-03-08T10:05:59.735Z</time>
      </trkpt>
      <trkpt lat="42.601" lon="24.0089">
        <ele>517.069446</ele>
        <time>2022-03-08T10:06:04.755Z</time>
      </trkpt>
      <trkpt lat="42.601" lon="24.00905">
        <ele>518.106718</ele>
        <time>2022-03-08T10:06:10.731Z</time>
      </trkpt>
      <trkpt lat="42.60098" lon="24.00918">
        <ele>519.075517</ele>
        <time>2022-03-08T10:06:16.746Z</time>
      </trkpt>
      <trkpt lat="42.60098" lon="24.00932">
        <ele>520.048071</ele>
        <time>2022-03-08T10:06:22.731Z</time>
      </trkpt>
      <trkpt lat="42.60097" lon="24.00945">
        <ele>521.02296</ele>
        <time>2022-03-08T10:06:28.726Z</time>
      </trkpt>
      <trkpt lat="42.60095" lon="24.00957">
        <ele>521.907269</ele>
        <time>2022-03-08T10:06:34.758Z</time>
      </trkpt>
      <trkpt lat="42.60093" lon="24.0097">
        <ele>522.851426</ele>
        <time>2022-03-08T10:06:41.739Z</time>
      </trkpt>
      <trkpt lat="42.60094" lon="24.00983">
        <ele>523.748493</ele>
        <time>2022-03-08T10:06:49.731Z</time>
      </trkpt>
      <trkpt lat="42.601" lon="24.00993">
        <ele>524.658902</ele>
        <time>2022-03-08T10:06:56.734Z</time>
      </trkpt>
      <trkpt lat="42.60107" lon="24.01003">
        <ele>525.66276</ele>
        <time>2022-03-08T10:07:03.719Z</time>
      </trkpt>
      <trkpt lat="42.60115" lon="24.0101">
        <ele>526.552666</ele>
        <time>2022-03-08T10:07:09.746Z</time>
      </trkpt>
      <trkpt lat="42.60123" lon="24.01014">
        <ele>527.431329</ele>
        <time>2022-03-08T10:07:15.737Z</time>
      </trkpt>
      <trkpt lat="42.60132" lon="24.01017">
        <ele>528.350457</ele>
        <time>2022-03-08T10:07:21.733Z</time>
      </trkpt>
      <trkpt lat="42.60142" lon="24.01019">
        <ele>529.270071</ele>
        <time>2022-03-08T10:07:27.724Z</time>
      </trkpt>
      <trkpt lat="42.60151" lon="24.01024">
        <ele>530.212926</ele>
        <time>2022-03-08T10:07:33.732Z</time>
      </trkpt>
      <trkpt lat="42.6016" lon="24.0103">
        <ele>531.210589</ele>
        <time>2022-03-08T10:07:39.759Z</time>
      </trkpt>
      <trkpt lat="42.60169" lon="24.01036">
        <ele>532.226597</ele>
        <time>2022-03-08T10:07:45.767Z</time>
      </trkpt>
      <trkpt lat="42.60178" lon="24.01041">
        <ele>532.724636</ele>
        <time>2022-03-08T10:07:50.756Z</time>
      </trkpt>
      <trkpt lat="42.60187" lon="24.01048">
        <ele>533.054104</ele>
        <time>2022-03-08T10:07:55.735Z</time>
      </trkpt>
      <trkpt lat="42.60194" lon="24.01056">
        <ele>533.373042</ele>
        <time>2022-03-08T10:08:00.747Z</time>
      </trkpt>
      <trkpt lat="42.60202" lon="24.01063">
        <ele>533.68741</ele>
        <time>2022-03-08T10:08:04.739Z</time>
      </trkpt>
      <trkpt lat="42.60211" lon="24.0107">
        <ele>534.028094</ele>
        <time>2022-03-08T10:08:08.799Z</time>
      </trkpt>
      <trkpt lat="42.60219" lon="24.01076">
        <ele>534.356024</ele>
        <time>2022-03-08T10:08:12.732Z</time>
      </trkpt>
      <trkpt lat="42.60228" lon="24.01081">
        <ele>534.695005</ele>
        <time>2022-03-08T10:08:16.743Z</time>
      </trkpt>
      <trkpt lat="42.60237" lon="24.01089">
        <ele>535.038178</ele>
        <time>2022-03-08T10:08:20.740Z</time>
      </trkpt>
      <trkpt lat="42.60245" lon="24.01096">
        <ele>535.37717</ele>
        <time>2022-03-08T10:08:24.769Z</time>
      </trkpt>
      <trkpt lat="42.60254" lon="24.01104">
        <ele>535.733017</ele>
        <time>2022-03-08T10:08:28.742Z</time>
      </trkpt>
      <trkpt lat="42.60262" lon="24.01114">
        <ele>536.100569</ele>
        <time>2022-03-08T10:08:32.740Z</time>
      </trkpt>
      <trkpt lat="42.60268" lon="24.01124">
        <ele>536.41051</ele>
        <time>2022-03-08T10:08:36.721Z</time>
      </trkpt>
      <trkpt lat="42.60273" lon="24.01136">
        <ele>536.755125</ele>
        <time>2022-03-08T10:08:41.746Z</time>
      </trkpt>
      <trkpt lat="42.60278" lon="24.01149">
        <ele>537.116159</ele>
        <time>2022-03-08T10:08:46.772Z</time>
      </trkpt>
      <trkpt lat="42.60284" lon="24.01161">
        <ele>537.486604</ele>
        <time>2022-03-08T10:08:51.740Z</time>
      </trkpt>
      <trkpt lat="42.6029" lon="24.01172">
        <ele>537.816495</ele>
        <time>2022-03-08T10:08:55.727Z</time>
      </trkpt>
      <trkpt lat="42.60294" lon="24.01183">
        <ele>538.122918</ele>
        <time>2022-03-08T10:08:59.734Z</time>
      </trkpt>
      <trkpt lat="42.60298" lon="24.01195">
        <ele>538.464896</ele>
        <time>2022-03-08T10:09:04.741Z</time>
      </trkpt>
      <trkpt lat="42.60301" lon="24.01209">
        <ele>538.381379</ele>
        <time>2022-03-08T10:09:09.737Z</time>
      </trkpt>
      <trkpt lat="42.60306" lon="24.01223">
        <ele>538.127548</ele>
        <time>2022-03-08T10:09:14.780Z</time>
      </trkpt>
      <trkpt lat="42.60311" lon="24.01233">
        <ele>537.912094</ele>
        <time>2022-03-08T10:09:18.738Z</time>
      </trkpt>
      <trkpt lat="42.60315" lon="24.01244">
        <ele>537.703583</ele>
        <time>2022-03-08T10:09:22.743Z</time>
      </trkpt>
      <trkpt lat="42.60318" lon="24.01256">
        <ele>537.494032</ele>
        <time>2022-03-08T10:09:26.737Z</time>
      </trkpt>
      <trkpt lat="42.60323" lon="24.01268">
        <ele>537.253892</ele>
        <time>2022-03-08T10:09:31.767Z</time>
      </trkpt>
      <trkpt lat="42.60327" lon="24.01281">
        <ele>537.015351</ele>
        <time>2022-03-08T10:09:35.734Z</time>
      </trkpt>
      <trkpt lat="42.60334" lon="24.0129">
        <ele>536.794479</ele>
        <time>2022-03-08T10:09:39.738Z</time>
      </trkpt>
      <trkpt lat="42.60343" lon="24.01298">
        <ele>536.54946</ele>
        <time>2022-03-08T10:09:43.728Z</time>
      </trkpt>
      <trkpt lat="42.60352" lon="24.01303">
        <ele>536.318638</ele>
        <time>2022-03-08T10:09:47.733Z</time>
      </trkpt>
      <trkpt lat="42.60361" lon="24.01306">
        <ele>536.103786</ele>
        <time>2022-03-08T10:09:51.727Z</time>
      </trkpt>
      <trkpt lat="42.6037" lon="24.01308">
        <ele>535.890736</ele>
        <time>2022-03-08T10:09:55.737Z</time>
      </trkpt>
      <trkpt lat="42.6038" lon="24.01308">
        <ele>535.675524</ele>
        <time>2022-03-08T10:09:59.737Z</time>
      </trkpt>
      <trkpt lat="42.60391" lon="24.01307">
        <ele>535.404012</ele>
        <time>2022-03-08T10:10:03.726Z</time>
      </trkpt>
      <trkpt lat="42.60402" lon="24.01307">
        <ele>535.156357</ele>
        <time>2022-03-08T10:10:06.744Z</time>
      </trkpt>
      <trkpt lat="42.60415" lon="24.01305">
        <ele>534.848021</ele>
        <time>2022-03-08T10:10:09.735Z</time>
      </trkpt>
      <trkpt lat="42.60425" lon="24.01304">
        <ele>534.610421</ele>
        <time>2022-03-08T10:10:11.750Z</time>
      </trkpt>
      <trkpt lat="42.60437" lon="24.01303">
        <ele>534.365928</ele>
        <time>2022-03-08T10:10:13.735Z</time>
      </trkpt>
      <trkpt lat="42.60448" lon="24.01304">
        <ele>534.172022</ele>
        <time>2022-03-08T10:10:15.774Z</time>
      </trkpt>
      <trkpt lat="42.6046" lon="24.01304">
        <ele>533.979708</ele>
        <time>2022-03-08T10:10:17.725Z</time>
      </trkpt>
      <trkpt lat="42.60473" lon="24.01303">
        <ele>533.762246</ele>
        <time>2022-03-08T10:10:19.746Z</time>
      </trkpt>
      <trkpt lat="42.60487" lon="24.01303">
        <ele>533.52809</ele>
        <time>2022-03-08T10:10:21.726Z</time>
      </trkpt>
      <trkpt lat="42.60501" lon="24.01302">
        <ele>533.293879</ele>
        <time>2022-03-08T10:10:23.740Z</time>
      </trkpt>
      <trkpt lat="42.60515" lon="24.01301">
        <ele>533.061337</ele>
        <time>2022-03-08T10:10:25.738Z</time>
      </trkpt>
      <trkpt lat="42.60527" lon="24.01301">
        <ele>532.859138</ele>
        <time>2022-03-08T10:10:27.732Z</time>
      </trkpt>
      <trkpt lat="42.60538" lon="24.01301">
        <ele>532.666949</ele>
        <time>2022-03-08T10:10:29.736Z</time>
      </trkpt>
      <trkpt lat="42.60549" lon="24.013">
        <ele>532.49138</ele>
        <time>2022-03-08T10:10:31.740Z</time>
      </trkpt>
      <trkpt lat="42.60559" lon="24.013">
        <ele>532.324232</ele>
        <time>2022-03-08T10:10:33.746Z</time>
      </trkpt>
      <trkpt lat="42.60571" lon="24.013">
        <ele>532.115334</ele>
        <time>2022-03-08T10:10:36.750Z</time>
      </trkpt>
      <trkpt lat="42.60583" lon="24.01298">
        <ele>531.917956</ele>
        <time>2022-03-08T10:10:39.731Z</time>
      </trkpt>
      <trkpt lat="42.60595" lon="24.01296">
        <ele>531.709811</ele>
        <time>2022-03-08T10:10:42.735Z</time>
      </trkpt>
      <trkpt lat="42.60607" lon="24.01295">
        <ele>531.505407</ele>
        <time>2022-03-08T10:10:45.751Z</time>
      </trkpt>
      <trkpt lat="42.60619" lon="24.01295">
        <ele>531.43684</ele>
        <time>2022-03-08T10:10:48.742Z</time>
      </trkpt>
      <trkpt lat="42.60631" lon="24.01294">
        <ele>531.542368</ele>
        <time>2022-03-08T10:10:51.733Z</time>
      </trkpt>
      <trkpt lat="42.60642" lon="24.01294">
        <ele>531.64601</ele>
        <time>2022-03-08T10:10:54.784Z</time>
      </trkpt>
      <trkpt lat="42.60653" lon="24.01294">
        <ele>531.742435</ele>
        <time>2022-03-08T10:10:57.724Z</time>
      </trkpt>
      <trkpt lat="42.60664" lon="24.01293">
        <ele>531.841775</ele>
        <time>2022-03-08T10:11:00.715Z</time>
      </trkpt>
      <trkpt lat="42.60675" lon="24.01291">
        <ele>531.942287</ele>
        <time>2022-03-08T10:11:03.741Z</time>
      </trkpt>
      <trkpt lat="42.60687" lon="24.0129">
        <ele>532.047115</ele>
        <time>2022-03-08T10:11:06.741Z</time>
      </trkpt>
      <trkpt lat="42.60698" lon="24.01289">
        <ele>532.145388</ele>
        <time>2022-03-08T10:11:09.758Z</time>
      </trkpt>
      <trkpt lat="42.60708" lon="24.01287">
        <ele>532.24201</ele>
        <time>2022-03-08T10:11:12.736Z</time>
      </trkpt>
      <trkpt lat="42.60719" lon="24.01285">
        <ele>532.338181</ele>
        <time>2022-03-08T10:11:15.747Z</time>
      </trkpt>
      <trkpt lat="42.60729" lon="24.01282">
        <ele>532.431694</ele>
        <time>2022-03-08T10:11:18.741Z</time>
      </trkpt>
      <trkpt lat="42.60738" lon="24.01278">
        <ele>532.521794</ele>
        <time>2022-03-08T10:11:21.744Z</time>
      </trkpt>
      <trkpt lat="42.60748" lon="24.01273">
        <ele>532.612999</ele>
        <time>2022-03-08T10:11:24.774Z</time>
      </trkpt>
      <trkpt lat="42.60757" lon="24.01267">
        <ele>532.708215</ele>
        <time>2022-03-08T10:11:27.778Z</time>
      </trkpt>
      <trkpt lat="42.60766" lon="24.01261">
        <ele>532.795831</ele>
        <time>2022-03-08T10:11:30.726Z</time>
      </trkpt>
      <trkpt lat="42.60775" lon="24.01255">
        <ele>532.884048</ele>
        <time>2022-03-08T10:11:33.736Z</time>
      </trkpt>
      <trkpt lat="42.60783" lon="24.01247">
        <ele>532.978363</ele>
        <time>2022-03-08T10:11:36.738Z</time>
      </trkpt>
      <trkpt lat="42.60792" lon="24.01239">
        <ele>533.031562</ele>
        <time>2022-03-08T10:11:39.713Z</time>
      </trkpt>
      <trkpt lat="42.608" lon="24.01232">
        <ele>533.060706</ele>
        <time>2022-03-08T10:11:42.745Z</time>
      </trkpt>
      <trkpt lat="42.6081" lon="24.01222">
        <ele>533.095011</ele>
        <time>2022-03-08T10:11:46.725Z</time>
      </trkpt>
      <trkpt lat="42.60818" lon="24.01215">
        <ele>533.123801</ele>
        <time>2022-03-08T10:11:49.780Z</time>
      </trkpt>
      <trkpt lat="42.60827" lon="24.01206">
        <ele>533.154146</ele>
        <time>2022-03-08T10:11:52.743Z</time>
      </trkpt>
      <trkpt lat="42.60835" lon="24.01199">
        <ele>533.182947</ele>
        <time>2022-03-08T10:11:55.737Z</time>
      </trkpt>
      <trkpt lat="42.60844" lon="24.01192">
        <ele>533.2133</ele>
        <time>2022-03-08T10:11:58.726Z</time>
      </trkpt>
      <trkpt lat="42.60852" lon="24.01184">
        <ele>533.242482</ele>
        <time>2022-03-08T10:12:01.724Z</time>
      </trkpt>
      <trkpt lat="42.6086" lon="24.01177">
        <ele>533.269707</ele>
        <time>2022-03-08T10:12:04.728Z</time>
      </trkpt>
      <trkpt lat="42.60868" lon="24.0117">
        <ele>533.297431</ele>
        <time>2022-03-08T10:12:07.726Z</time>
      </trkpt>
      <trkpt lat="42.60876" lon="24.01163">
        <ele>533.325376</ele>
        <time>2022-03-08T10:12:10.743Z</time>
      </trkpt>
      <trkpt lat="42.60884" lon="24.01156">
        <ele>533.352727</ele>
        <time>2022-03-08T10:12:13.738Z</time>
      </trkpt>
      <trkpt lat="42.60892" lon="24.01148">
        <ele>533.381032</ele>
        <time>2022-03-08T10:12:16.734Z</time>
      </trkpt>
      <trkpt lat="42.609" lon="24.01141">
        <ele>533.409101</ele>
        <time>2022-03-08T10:12:19.736Z</time>
      </trkpt>
      <trkpt lat="42.60908" lon="24.01134">
        <ele>533.436086</ele>
        <time>2022-03-08T10:12:22.767Z</time>
      </trkpt>
      <trkpt lat="42.60916" lon="24.01127">
        <ele>533.464415</ele>
        <time>2022-03-08T10:12:25.727Z</time>
      </trkpt>
      <trkpt lat="42.60924" lon="24.0112">
        <ele>533.492727</ele>
        <time>2022-03-08T10:12:28.735Z</time>
      </trkpt>
      <trkpt lat="42.60933" lon="24.01112">
        <ele>533.522117</ele>
        <time>2022-03-08T10:12:31.737Z</time>
      </trkpt>
      <trkpt lat="42.60942" lon="24.01105">
        <ele>533.571898</ele>
        <time>2022-03-08T10:12:34.738Z</time>
      </trkpt>
      <trkpt lat="42.60951" lon="24.01099">
        <ele>533.638684</ele>
        <time>2022-03-08T10:12:37.740Z</time>
      </trkpt>
      <trkpt lat="42.6096" lon="24.01093">
        <ele>533.705339</ele>
        <time>2022-03-08T10:12:40.734Z</time>
      </trkpt>
      <trkpt lat="42.60969" lon="24.01088">
        <ele>533.770094</ele>
        <time>2022-03-08T10:12:43.736Z</time>
      </trkpt>
      <trkpt lat="42.60978" lon="24.01082">
        <ele>533.829674</ele>
        <time>2022-03-08T10:12:46.739Z</time>
      </trkpt>
      <trkpt lat="42.60986" lon="24.01077">
        <ele>533.890814</ele>
        <time>2022-03-08T10:12:49.738Z</time>
      </trkpt>
      <trkpt lat="42.60995" lon="24.01071">
        <ele>533.954117</ele>
        <time>2022-03-08T10:12:52.744Z</time>
      </trkpt>
      <trkpt lat="42.61005" lon="24.01068">
        <ele>534.019219</ele>
        <time>2022-03-08T10:12:55.778Z</time>
      </trkpt>
      <trkpt lat="42.61014" lon="24.01065">
        <ele>534.078705</ele>
        <time>2022-03-08T10:12:58.725Z</time>
      </trkpt>
      <trkpt lat="42.61023" lon="24.01061">
        <ele>534.144433</ele>
        <time>2022-03-08T10:13:01.746Z</time>
      </trkpt>
      <trkpt lat="42.61034" lon="24.01056">
        <ele>534.213868</ele>
        <time>2022-03-08T10:13:04.726Z</time>
      </trkpt>
      <trkpt lat="42.61043" lon="24.01052">
        <ele>534.280399</ele>
        <time>2022-03-08T10:13:07.725Z</time>
      </trkpt>
      <trkpt lat="42.61053" lon="24.01047">
        <ele>534.349064</ele>
        <time>2022-03-08T10:13:10.748Z</time>
      </trkpt>
      <trkpt lat="42.61062" lon="24.01043">
        <ele>534.408529</ele>
        <time>2022-03-08T10:13:13.736Z</time>
      </trkpt>
      <trkpt lat="42.61071" lon="24.01039">
        <ele>534.470012</ele>
        <time>2022-03-08T10:13:16.739Z</time>
      </trkpt>
      <trkpt lat="42.6108" lon="24.01033">
        <ele>534.535477</ele>
        <time>2022-03-08T10:13:19.762Z</time>
      </trkpt>
      <trkpt lat="42.61089" lon="24.01026">
        <ele>534.603284</ele>
        <time>2022-03-08T10:13:22.737Z</time>
      </trkpt>
      <trkpt lat="42.61099" lon="24.01019">
        <ele>534.672994</ele>
        <time>2022-03-08T10:13:25.723Z</time>
      </trkpt>
      <trkpt lat="42.61108" lon="24.01011">
        <ele>534.738546</ele>
        <time>2022-03-08T10:13:28.732Z</time>
      </trkpt>
      <trkpt lat="42.61118" lon="24.01003">
        <ele>534.803165</ele>
        <time>2022-03-08T10:13:31.733Z</time>
      </trkpt>
      <trkpt lat="42.61128" lon="24.00995">
        <ele>534.873704</ele>
        <time>2022-03-08T10:13:34.726Z</time>
      </trkpt>
      <trkpt lat="42.61139" lon="24.00986">
        <ele>534.942448</ele>
        <time>2022-03-08T10:13:37.737Z</time>
      </trkpt>
      <trkpt lat="42.61148" lon="24.00977">
        <ele>535.006661</ele>
        <time>2022-03-08T10:13:40.738Z</time>
      </trkpt>
      <trkpt lat="42.61158" lon="24.00968">
        <ele>535.073945</ele>
        <time>2022-03-08T10:13:43.723Z</time>
      </trkpt>
      <trkpt lat="42.61168" lon="24.0096">
        <ele>535.140678</ele>
        <time>2022-03-08T10:13:46.745Z</time>
      </trkpt>
      <trkpt lat="42.61178" lon="24.00952">
        <ele>535.210936</ele>
        <time>2022-03-08T10:13:49.779Z</time>
      </trkpt>
      <trkpt lat="42.61188" lon="24.00943">
        <ele>535.275866</ele>
        <time>2022-03-08T10:13:52.755Z</time>
      </trkpt>
      <trkpt lat="42.61196" lon="24.00935">
        <ele>535.33418</ele>
        <time>2022-03-08T10:13:55.739Z</time>
      </trkpt>
      <trkpt lat="42.61204" lon="24.00928">
        <ele>535.391077</ele>
        <time>2022-03-08T10:13:58.741Z</time>
      </trkpt>
      <trkpt lat="42.61214" lon="24.0092">
        <ele>535.453948</ele>
        <time>2022-03-08T10:14:01.743Z</time>
      </trkpt>
      <trkpt lat="42.61225" lon="24.00912">
        <ele>535.523763</ele>
        <time>2022-03-08T10:14:04.767Z</time>
      </trkpt>
      <trkpt lat="42.61235" lon="24.00904">
        <ele>535.590434</ele>
        <time>2022-03-08T10:14:07.735Z</time>
      </trkpt>
      <trkpt lat="42.61244" lon="24.00896">
        <ele>535.654559</ele>
        <time>2022-03-08T10:14:10.736Z</time>
      </trkpt>
      <trkpt lat="42.61254" lon="24.00889">
        <ele>535.716782</ele>
        <time>2022-03-08T10:14:13.736Z</time>
      </trkpt>
      <trkpt lat="42.61263" lon="24.00881">
        <ele>535.89735</ele>
        <time>2022-03-08T10:14:16.736Z</time>
      </trkpt>
      <trkpt lat="42.61271" lon="24.00873">
        <ele>536.099869</ele>
        <time>2022-03-08T10:14:19.735Z</time>
      </trkpt>
      <trkpt lat="42.6128" lon="24.00863">
        <ele>536.316869</ele>
        <time>2022-03-08T10:14:22.736Z</time>
      </trkpt>
      <trkpt lat="42.61288" lon="24.00852">
        <ele>536.523507</ele>
        <time>2022-03-08T10:14:25.786Z</time>
      </trkpt>
      <trkpt lat="42.61295" lon="24.00842">
        <ele>536.726259</ele>
        <time>2022-03-08T10:14:28.740Z</time>
      </trkpt>
      <trkpt lat="42.61301" lon="24.00831">
        <ele>536.919351</ele>
        <time>2022-03-08T10:14:31.731Z</time>
      </trkpt>
      <trkpt lat="42.61308" lon="24.0082">
        <ele>537.126318</ele>
        <time>2022-03-08T10:14:34.742Z</time>
      </trkpt>
      <trkpt lat="42.61313" lon="24.00807">
        <ele>537.330846</ele>
        <time>2022-03-08T10:14:37.764Z</time>
      </trkpt>
      <trkpt lat="42.6132" lon="24.00795">
        <ele>537.547459</ele>
        <time>2022-03-08T10:14:40.736Z</time>
      </trkpt>
      <trkpt lat="42.61326" lon="24.00783">
        <ele>537.74819</ele>
        <time>2022-03-08T10:14:43.737Z</time>
      </trkpt>
      <trkpt lat="42.61333" lon="24.00772">
        <ele>537.954489</ele>
        <time>2022-03-08T10:14:46.740Z</time>
      </trkpt>
      <trkpt lat="42.61339" lon="24.0076">
        <ele>538.162096</ele>
        <time>2022-03-08T10:14:49.737Z</time>
      </trkpt>
      <trkpt lat="42.61346" lon="24.00749">
        <ele>538.363934</ele>
        <time>2022-03-08T10:14:52.739Z</time>
      </trkpt>
      <trkpt lat="42.61352" lon="24.00739">
        <ele>538.550643</ele>
        <time>2022-03-08T10:14:55.743Z</time>
      </trkpt>
      <trkpt lat="42.6136" lon="24.00729">
        <ele>538.746875</ele>
        <time>2022-03-08T10:14:58.783Z</time>
      </trkpt>
      <trkpt lat="42.61366" lon="24.00719">
        <ele>538.93719</ele>
        <time>2022-03-08T10:15:01.744Z</time>
      </trkpt>
      <trkpt lat="42.61373" lon="24.0071">
        <ele>539.113784</ele>
        <time>2022-03-08T10:15:04.743Z</time>
      </trkpt>
      <trkpt lat="42.61378" lon="24.007">
        <ele>539.184786</ele>
        <time>2022-03-08T10:15:07.745Z</time>
      </trkpt>
      <trkpt lat="42.61385" lon="24.00691">
        <ele>539.212435</ele>
        <time>2022-03-08T10:15:10.742Z</time>
      </trkpt>
      <trkpt lat="42.61391" lon="24.00681">
        <ele>539.241268</ele>
        <time>2022-03-08T10:15:13.740Z</time>
      </trkpt>
      <trkpt lat="42.61398" lon="24.00672">
        <ele>539.269731</ele>
        <time>2022-03-08T10:15:16.754Z</time>
      </trkpt>
      <trkpt lat="42.61404" lon="24.00662">
        <ele>539.2982</ele>
        <time>2022-03-08T10:15:19.736Z</time>
      </trkpt>
      <trkpt lat="42.61411" lon="24.00653">
        <ele>539.324964</ele>
        <time>2022-03-08T10:15:22.723Z</time>
      </trkpt>
      <trkpt lat="42.61417" lon="24.00644">
        <ele>539.353427</ele>
        <time>2022-03-08T10:15:25.757Z</time>
      </trkpt>
      <trkpt lat="42.61424" lon="24.00634">
        <ele>539.38305</ele>
        <time>2022-03-08T10:15:28.739Z</time>
      </trkpt>
      <trkpt lat="42.6143" lon="24.00624">
        <ele>539.411022</ele>
        <time>2022-03-08T10:15:31.736Z</time>
      </trkpt>
      <trkpt lat="42.61436" lon="24.00614">
        <ele>539.439292</ele>
        <time>2022-03-08T10:15:34.744Z</time>
      </trkpt>
      <trkpt lat="42.61442" lon="24.00605">
        <ele>539.467395</ele>
        <time>2022-03-08T10:15:37.771Z</time>
      </trkpt>
      <trkpt lat="42.61449" lon="24.00595">
        <ele>539.496655</ele>
        <time>2022-03-08T10:15:40.818Z</time>
      </trkpt>
      <trkpt lat="42.61456" lon="24.00586">
        <ele>539.524812</ele>
        <time>2022-03-08T10:15:43.731Z</time>
      </trkpt>
      <trkpt lat="42.61462" lon="24.00576">
        <ele>539.552555</ele>
        <time>2022-03-08T10:15:46.736Z</time>
      </trkpt>
      <trkpt lat="42.6147" lon="24.00564">
        <ele>539.588102</ele>
        <time>2022-03-08T10:15:50.736Z</time>
      </trkpt>
      <trkpt lat="42.61476" lon="24.00554">
        <ele>539.615876</ele>
        <time>2022-03-08T10:15:53.735Z</time>
      </trkpt>
      <trkpt lat="42.61483" lon="24.00545">
        <ele>539.644817</ele>
        <time>2022-03-08T10:15:56.749Z</time>
      </trkpt>
      <trkpt lat="42.6149" lon="24.00535">
        <ele>539.674378</ele>
        <time>2022-03-08T10:15:59.800Z</time>
      </trkpt>
      <trkpt lat="42.61497" lon="24.00525">
        <ele>539.696459</ele>
        <time>2022-03-08T10:16:02.736Z</time>
      </trkpt>
      <trkpt lat="42.61503" lon="24.00515">
        <ele>539.673542</ele>
        <time>2022-03-08T10:16:05.749Z</time>
      </trkpt>
      <trkpt lat="42.61509" lon="24.00506">
        <ele>539.650729</ele>
        <time>2022-03-08T10:16:08.727Z</time>
      </trkpt>
      <trkpt lat="42.61516" lon="24.00497">
        <ele>539.626883</ele>
        <time>2022-03-08T10:16:11.740Z</time>
      </trkpt>
      <trkpt lat="42.61522" lon="24.00487">
        <ele>539.602905</ele>
        <time>2022-03-08T10:16:14.750Z</time>
      </trkpt>
      <trkpt lat="42.61528" lon="24.00477">
        <ele>539.579691</ele>
        <time>2022-03-08T10:16:17.742Z</time>
      </trkpt>
      <trkpt lat="42.61534" lon="24.00467">
        <ele>539.556057</ele>
        <time>2022-03-08T10:16:20.754Z</time>
      </trkpt>
      <trkpt lat="42.61539" lon="24.00455">
        <ele>539.530736</ele>
        <time>2022-03-08T10:16:23.730Z</time>
      </trkpt>
      <trkpt lat="42.61545" lon="24.00442">
        <ele>539.50404</ele>
        <time>2022-03-08T10:16:26.736Z</time>
      </trkpt>
      <trkpt lat="42.6155" lon="24.0043">
        <ele>539.478664</ele>
        <time>2022-03-08T10:16:29.726Z</time>
      </trkpt>
      <trkpt lat="42.61555" lon="24.00417">
        <ele>539.451302</ele>
        <time>2022-03-08T10:16:32.740Z</time>
      </trkpt>
      <trkpt lat="42.6156" lon="24.00404">
        <ele>539.424199</ele>
        <time>2022-03-08T10:16:35.743Z</time>
      </trkpt>
      <trkpt lat="42.61565" lon="24.00391">
        <ele>539.398827</ele>
        <time>2022-03-08T10:16:38.732Z</time>
      </trkpt>
      <trkpt lat="42.61569" lon="24.00379">
        <ele>539.374055</ele>
        <time>2022-03-08T10:16:41.736Z</time>
      </trkpt>
      <trkpt lat="42.61573" lon="24.00367">
        <ele>539.34955</ele>
        <time>2022-03-08T10:16:44.783Z</time>
      </trkpt>
      <trkpt lat="42.61577" lon="24.00354">
        <ele>539.325046</ele>
        <time>2022-03-08T10:16:47.732Z</time>
      </trkpt>
      <trkpt lat="42.61582" lon="24.0034">
        <ele>539.296032</ele>
        <time>2022-03-08T10:16:51.738Z</time>
      </trkpt>
      <trkpt lat="42.61586" lon="24.00328">
        <ele>539.272523</ele>
        <time>2022-03-08T10:16:54.736Z</time>
      </trkpt>
      <trkpt lat="42.6159" lon="24.00317">
        <ele>539.272564</ele>
        <time>2022-03-08T10:16:57.743Z</time>
      </trkpt>
      <trkpt lat="42.61594" lon="24.00305">
        <ele>539.349981</ele>
        <time>2022-03-08T10:17:00.722Z</time>
      </trkpt>
      <trkpt lat="42.61599" lon="24.00293">
        <ele>539.430593</ele>
        <time>2022-03-08T10:17:03.771Z</time>
      </trkpt>
      <trkpt lat="42.61603" lon="24.00279">
        <ele>539.519871</ele>
        <time>2022-03-08T10:17:06.738Z</time>
      </trkpt>
      <trkpt lat="42.61608" lon="24.00265">
        <ele>539.604579</ele>
        <time>2022-03-08T10:17:09.730Z</time>
      </trkpt>
      <trkpt lat="42.61613" lon="24.00251">
        <ele>539.692094</ele>
        <time>2022-03-08T10:17:12.739Z</time>
      </trkpt>
      <trkpt lat="42.61618" lon="24.00237">
        <ele>539.785663</ele>
        <time>2022-03-08T10:17:15.743Z</time>
      </trkpt>
      <trkpt lat="42.61624" lon="24.00224">
        <ele>539.874282</ele>
        <time>2022-03-08T10:17:18.739Z</time>
      </trkpt>
      <trkpt lat="42.6163" lon="24.00211">
        <ele>539.961881</ele>
        <time>2022-03-08T10:17:21.751Z</time>
      </trkpt>
      <trkpt lat="42.61637" lon="24.00199">
        <ele>540.051761</ele>
        <time>2022-03-08T10:17:24.736Z</time>
      </trkpt>
      <trkpt lat="42.61643" lon="24.00187">
        <ele>540.136483</ele>
        <time>2022-03-08T10:17:27.733Z</time>
      </trkpt>
      <trkpt lat="42.6165" lon="24.00174">
        <ele>540.228649</ele>
        <time>2022-03-08T10:17:30.735Z</time>
      </trkpt>
      <trkpt lat="42.61657" lon="24.00162">
        <ele>540.316164</ele>
        <time>2022-03-08T10:17:33.738Z</time>
      </trkpt>
      <trkpt lat="42.61665" lon="24.0015">
        <ele>540.407747</ele>
        <time>2022-03-08T10:17:36.732Z</time>
      </trkpt>
      <trkpt lat="42.61673" lon="24.0014">
        <ele>540.494868</ele>
        <time>2022-03-08T10:17:39.738Z</time>
      </trkpt>
      <trkpt lat="42.61681" lon="24.0013">
        <ele>540.580629</ele>
        <time>2022-03-08T10:17:42.741Z</time>
      </trkpt>
      <trkpt lat="42.61689" lon="24.00121">
        <ele>540.664997</ele>
        <time>2022-03-08T10:17:45.756Z</time>
      </trkpt>
      <trkpt lat="42.61698" lon="24.00112">
        <ele>540.784954</ele>
        <time>2022-03-08T10:17:48.742Z</time>
      </trkpt>
      <trkpt lat="42.61704" lon="24.00101">
        <ele>540.899384</ele>
        <time>2022-03-08T10:17:51.780Z</time>
      </trkpt>
      <trkpt lat="42.61711" lon="24.0009">
        <ele>541.017584</ele>
        <time>2022-03-08T10:17:54.734Z</time>
      </trkpt>
      <trkpt lat="42.61716" lon="24.00078">
        <ele>541.131207</ele>
        <time>2022-03-08T10:17:57.741Z</time>
      </trkpt>
      <trkpt lat="42.61721" lon="24.00065">
        <ele>541.256154</ele>
        <time>2022-03-08T10:18:00.738Z</time>
      </trkpt>
      <trkpt lat="42.61726" lon="24.00052">
        <ele>541.380718</ele>
        <time>2022-03-08T10:18:03.727Z</time>
      </trkpt>
      <trkpt lat="42.61731" lon="24.00039">
        <ele>541.499019</ele>
        <time>2022-03-08T10:18:06.737Z</time>
      </trkpt>
      <trkpt lat="42.61735" lon="24.00026">
        <ele>541.61732</ele>
        <time>2022-03-08T10:18:09.725Z</time>
      </trkpt>
      <trkpt lat="42.6174" lon="24.00013">
        <ele>541.739765</ele>
        <time>2022-03-08T10:18:12.739Z</time>
      </trkpt>
      <trkpt lat="42.61744" lon="24">
        <ele>541.858215</ele>
        <time>2022-03-08T10:18:15.752Z</time>
      </trkpt>
      <trkpt lat="42.6175" lon="23.99988">
        <ele>541.982165</ele>
        <time>2022-03-08T10:18:18.753Z</time>
      </trkpt>
      <trkpt lat="42.61758" lon="23.99974">
        <ele>542.12931</ele>
        <time>2022-03-08T10:18:21.742Z</time>
      </trkpt>
      <trkpt lat="42.61768" lon="23.99962">
        <ele>542.276741</ele>
        <time>2022-03-08T10:18:24.755Z</time>
      </trkpt>
      <trkpt lat="42.61779" lon="23.99953">
        <ele>542.420435</ele>
        <time>2022-03-08T10:18:27.739Z</time>
      </trkpt>
      <trkpt lat="42.61788" lon="23.99945">
        <ele>542.546982</ele>
        <time>2022-03-08T10:18:30.750Z</time>
      </trkpt>
      <trkpt lat="42.61799" lon="23.99939">
        <ele>542.67628</ele>
        <time>2022-03-08T10:18:33.744Z</time>
      </trkpt>
      <trkpt lat="42.61809" lon="23.99934">
        <ele>542.389839</ele>
        <time>2022-03-08T10:18:36.748Z</time>
      </trkpt>
      <trkpt lat="42.6182" lon="23.99931">
        <ele>541.978793</ele>
        <time>2022-03-08T10:18:39.733Z</time>
      </trkpt>
      <trkpt lat="42.6183" lon="23.99929">
        <ele>541.592695</ele>
        <time>2022-03-08T10:18:42.739Z</time>
      </trkpt>
      <trkpt lat="42.61842" lon="23.99927">
        <ele>541.127897</ele>
        <time>2022-03-08T10:18:45.732Z</time>
      </trkpt>
      <trkpt lat="42.61851" lon="23.99927">
        <ele>540.774717</ele>
        <time>2022-03-08T10:18:47.775Z</time>
      </trkpt>
      <trkpt lat="42.61861" lon="23.99928">
        <ele>540.406478</ele>
        <time>2022-03-08T10:18:49.746Z</time>
      </trkpt>
      <trkpt lat="42.61871" lon="23.99928">
        <ele>540.026918</ele>
        <time>2022-03-08T10:18:51.738Z</time>
      </trkpt>
      <trkpt lat="42.61882" lon="23.99928">
        <ele>539.628625</ele>
        <time>2022-03-08T10:18:53.734Z</time>
      </trkpt>
      <trkpt lat="42.61892" lon="23.99928">
        <ele>539.234117</ele>
        <time>2022-03-08T10:18:55.771Z</time>
      </trkpt>
      <trkpt lat="42.61902" lon="23.99928">
        <ele>538.858365</ele>
        <time>2022-03-08T10:18:57.743Z</time>
      </trkpt>
      <trkpt lat="42.61912" lon="23.99927">
        <ele>538.497416</ele>
        <time>2022-03-08T10:18:59.752Z</time>
      </trkpt>
      <trkpt lat="42.61922" lon="23.99926">
        <ele>538.108768</ele>
        <time>2022-03-08T10:19:01.743Z</time>
      </trkpt>
      <trkpt lat="42.61933" lon="23.99923">
        <ele>537.691989</ele>
        <time>2022-03-08T10:19:03.731Z</time>
      </trkpt>
      <trkpt lat="42.61945" lon="23.99919">
        <ele>537.240803</ele>
        <time>2022-03-08T10:19:05.718Z</time>
      </trkpt>
      <trkpt lat="42.61955" lon="23.99913">
        <ele>536.806958</ele>
        <time>2022-03-08T10:19:07.728Z</time>
      </trkpt>
      <trkpt lat="42.61966" lon="23.99906">
        <ele>536.373457</ele>
        <time>2022-03-08T10:19:09.768Z</time>
      </trkpt>
      <trkpt lat="42.61976" lon="23.999">
        <ele>535.965887</ele>
        <time>2022-03-08T10:19:11.735Z</time>
      </trkpt>
      <trkpt lat="42.61985" lon="23.99893">
        <ele>535.982312</ele>
        <time>2022-03-08T10:19:13.737Z</time>
      </trkpt>
      <trkpt lat="42.61993" lon="23.99888">
        <ele>536.015505</ele>
        <time>2022-03-08T10:19:15.783Z</time>
      </trkpt>
      <trkpt lat="42.62005" lon="23.99882">
        <ele>536.059949</ele>
        <time>2022-03-08T10:19:18.747Z</time>
      </trkpt>
      <trkpt lat="42.62014" lon="23.99875">
        <ele>536.099321</ele>
        <time>2022-03-08T10:19:21.738Z</time>
      </trkpt>
      <trkpt lat="42.62024" lon="23.99868">
        <ele>536.138956</ele>
        <time>2022-03-08T10:19:24.736Z</time>
      </trkpt>
      <trkpt lat="42.62034" lon="23.9986">
        <ele>536.182533</ele>
        <time>2022-03-08T10:19:27.745Z</time>
      </trkpt>
      <trkpt lat="42.62044" lon="23.99852">
        <ele>536.223641</ele>
        <time>2022-03-08T10:19:30.733Z</time>
      </trkpt>
      <trkpt lat="42.62055" lon="23.99845">
        <ele>536.265206</ele>
        <time>2022-03-08T10:19:33.739Z</time>
      </trkpt>
      <trkpt lat="42.62066" lon="23.99838">
        <ele>536.310494</ele>
        <time>2022-03-08T10:19:36.740Z</time>
      </trkpt>
      <trkpt lat="42.62077" lon="23.99831">
        <ele>536.354346</ele>
        <time>2022-03-08T10:19:39.745Z</time>
      </trkpt>
      <trkpt lat="42.62087" lon="23.99826">
        <ele>536.394016</ele>
        <time>2022-03-08T10:19:42.722Z</time>
      </trkpt>
      <trkpt lat="42.62098" lon="23.99821">
        <ele>536.435377</ele>
        <time>2022-03-08T10:19:45.739Z</time>
      </trkpt>
      <trkpt lat="42.62108" lon="23.99812">
        <ele>536.478338</ele>
        <time>2022-03-08T10:19:48.776Z</time>
      </trkpt>
      <trkpt lat="42.62115" lon="23.99801">
        <ele>536.516433</ele>
        <time>2022-03-08T10:19:51.734Z</time>
      </trkpt>
      <trkpt lat="42.62118" lon="23.99789">
        <ele>536.549442</ele>
        <time>2022-03-08T10:19:54.737Z</time>
      </trkpt>
      <trkpt lat="42.62119" lon="23.99775">
        <ele>536.588002</ele>
        <time>2022-03-08T10:19:58.738Z</time>
      </trkpt>
      <trkpt lat="42.62119" lon="23.99762">
        <ele>537.23405</ele>
        <time>2022-03-08T10:20:02.732Z</time>
      </trkpt>
      <trkpt lat="42.62119" lon="23.9975">
        <ele>538.116003</ele>
        <time>2022-03-08T10:20:06.739Z</time>
      </trkpt>
      <trkpt lat="42.6212" lon="23.99735">
        <ele>539.130187</ele>
        <time>2022-03-08T10:20:11.753Z</time>
      </trkpt>
      <trkpt lat="42.62119" lon="23.99722">
        <ele>540.012702</ele>
        <time>2022-03-08T10:20:16.771Z</time>
      </trkpt>
      <trkpt lat="42.62117" lon="23.9971">
        <ele>540.880572</ele>
        <time>2022-03-08T10:20:22.733Z</time>
      </trkpt>
      <trkpt lat="42.62117" lon="23.99697">
        <ele>541.834172</ele>
        <time>2022-03-08T10:20:29.747Z</time>
      </trkpt>
      <trkpt lat="42.62115" lon="23.99685">
        <ele>542.694154</ele>
        <time>2022-03-08T10:20:34.743Z</time>
      </trkpt>
      <trkpt lat="42.62112" lon="23.99672">
        <ele>543.624168</ele>
        <time>2022-03-08T10:20:40.741Z</time>
      </trkpt>
      <trkpt lat="42.6211" lon="23.9966">
        <ele>544.492039</ele>
        <time>2022-03-08T10:20:46.737Z</time>
      </trkpt>
      <trkpt lat="42.62108" lon="23.99646">
        <ele>545.474202</ele>
        <time>2022-03-08T10:20:53.736Z</time>
      </trkpt>
      <trkpt lat="42.62106" lon="23.99633">
        <ele>546.403954</ele>
        <time>2022-03-08T10:21:00.772Z</time>
      </trkpt>
      <trkpt lat="42.62105" lon="23.99618">
        <ele>547.449502</ele>
        <time>2022-03-08T10:21:06.745Z</time>
      </trkpt>
      <trkpt lat="42.62104" lon="23.99606">
        <ele>548.320404</ele>
        <time>2022-03-08T10:21:11.796Z</time>
      </trkpt>
      <trkpt lat="42.62103" lon="23.99592">
        <ele>549.258171</ele>
        <time>2022-03-08T10:21:17.740Z</time>
      </trkpt>
      <trkpt lat="42.62102" lon="23.99579">
        <ele>550.156046</ele>
        <time>2022-03-08T10:21:23.752Z</time>
      </trkpt>
      <trkpt lat="42.62102" lon="23.99566">
        <ele>551.099818</ele>
        <time>2022-03-08T10:21:29.723Z</time>
      </trkpt>
      <trkpt lat="42.62101" lon="23.99552">
        <ele>552.06605</ele>
        <time>2022-03-08T10:21:35.739Z</time>
      </trkpt>
      <trkpt lat="42.62102" lon="23.99538">
        <ele>553.077945</ele>
        <time>2022-03-08T10:21:41.744Z</time>
      </trkpt>
      <trkpt lat="42.62104" lon="23.99525">
        <ele>553.830279</ele>
        <time>2022-03-08T10:21:47.737Z</time>
      </trkpt>
      <trkpt lat="42.62107" lon="23.99512">
        <ele>554.246951</ele>
        <time>2022-03-08T10:21:54.746Z</time>
      </trkpt>
      <trkpt lat="42.62108" lon="23.99499">
        <ele>554.66583</ele>
        <time>2022-03-08T10:22:00.724Z</time>
      </trkpt>
      <trkpt lat="42.62109" lon="23.99487">
        <ele>555.070571</ele>
        <time>2022-03-08T10:22:05.740Z</time>
      </trkpt>
      <trkpt lat="42.62111" lon="23.99474">
        <ele>555.480052</ele>
        <time>2022-03-08T10:22:10.726Z</time>
      </trkpt>
      <trkpt lat="42.62114" lon="23.99461">
        <ele>555.929033</ele>
        <time>2022-03-08T10:22:16.744Z</time>
      </trkpt>
      <trkpt lat="42.62116" lon="23.99449">
        <ele>556.321951</ele>
        <time>2022-03-08T10:22:22.737Z</time>
      </trkpt>
      <trkpt lat="42.62117" lon="23.99436">
        <ele>556.726691</ele>
        <time>2022-03-08T10:22:28.731Z</time>
      </trkpt>
      <trkpt lat="42.62118" lon="23.99423">
        <ele>557.159904</ele>
        <time>2022-03-08T10:22:34.719Z</time>
      </trkpt>
      <trkpt lat="42.6212" lon="23.99409">
        <ele>557.617995</ele>
        <time>2022-03-08T10:22:40.736Z</time>
      </trkpt>
      <trkpt lat="42.62122" lon="23.99396">
        <ele>558.048107</ele>
        <time>2022-03-08T10:22:47.746Z</time>
      </trkpt>
      <trkpt lat="42.62123" lon="23.99382">
        <ele>558.473858</ele>
        <time>2022-03-08T10:22:54.743Z</time>
      </trkpt>
      <trkpt lat="42.62124" lon="23.99369">
        <ele>558.891832</ele>
        <time>2022-03-08T10:23:00.748Z</time>
      </trkpt>
      <trkpt lat="42.62124" lon="23.99355">
        <ele>559.352783</ele>
        <time>2022-03-08T10:23:06.736Z</time>
      </trkpt>
      <trkpt lat="42.62125" lon="23.99341">
        <ele>559.795063</ele>
        <time>2022-03-08T10:23:12.756Z</time>
      </trkpt>
      <trkpt lat="42.62125" lon="23.99327">
        <ele>560.250361</ele>
        <time>2022-03-08T10:23:18.733Z</time>
      </trkpt>
      <trkpt lat="42.62125" lon="23.99314">
        <ele>560.67939</ele>
        <time>2022-03-08T10:23:24.753Z</time>
      </trkpt>
      <trkpt lat="42.62125" lon="23.99301">
        <ele>561.083308</ele>
        <time>2022-03-08T10:23:30.734Z</time>
      </trkpt>
      <trkpt lat="42.62124" lon="23.99287">
        <ele>561.52006</ele>
        <time>2022-03-08T10:23:36.746Z</time>
      </trkpt>
      <trkpt lat="42.62122" lon="23.99274">
        <ele>561.912622</ele>
        <time>2022-03-08T10:23:42.742Z</time>
      </trkpt>
      <trkpt lat="42.62121" lon="23.99261">
        <ele>562.297224</ele>
        <time>2022-03-08T10:23:48.755Z</time>
      </trkpt>
      <trkpt lat="42.62119" lon="23.99249">
        <ele>562.668698</ele>
        <time>2022-03-08T10:23:53.731Z</time>
      </trkpt>
      <trkpt lat="42.62118" lon="23.99236">
        <ele>563.057975</ele>
        <time>2022-03-08T10:23:59.752Z</time>
      </trkpt>
      <trkpt lat="42.62119" lon="23.99222">
        <ele>563.45311</ele>
        <time>2022-03-08T10:24:05.736Z</time>
      </trkpt>
      <trkpt lat="42.62119" lon="23.99208">
        <ele>563.864606</ele>
        <time>2022-03-08T10:24:11.735Z</time>
      </trkpt>
      <trkpt lat="42.62118" lon="23.99196">
        <ele>564.226367</ele>
        <time>2022-03-08T10:24:17.734Z</time>
      </trkpt>
      <trkpt lat="42.62115" lon="23.99182">
        <ele>564.6593</ele>
        <time>2022-03-08T10:24:23.739Z</time>
      </trkpt>
      <trkpt lat="42.62114" lon="23.99168">
        <ele>565.071124</ele>
        <time>2022-03-08T10:24:28.749Z</time>
      </trkpt>
      <trkpt lat="42.62113" lon="23.99154">
        <ele>565.47033</ele>
        <time>2022-03-08T10:24:33.787Z</time>
      </trkpt>
      <trkpt lat="42.62111" lon="23.99142">
        <ele>565.8295</ele>
        <time>2022-03-08T10:24:38.745Z</time>
      </trkpt>
      <trkpt lat="42.6211" lon="23.99129">
        <ele>566.210745</ele>
        <time>2022-03-08T10:24:44.788Z</time>
      </trkpt>
      <trkpt lat="42.62109" lon="23.99117">
        <ele>566.591085</ele>
        <time>2022-03-08T10:24:49.736Z</time>
      </trkpt>
      <trkpt lat="42.62107" lon="23.99102">
        <ele>567.022022</ele>
        <time>2022-03-08T10:24:55.778Z</time>
      </trkpt>
      <trkpt lat="42.62106" lon="23.99087">
        <ele>567.458774</ele>
        <time>2022-03-08T10:25:00.736Z</time>
      </trkpt>
      <trkpt lat="42.62105" lon="23.99073">
        <ele>567.870948</ele>
        <time>2022-03-08T10:25:05.846Z</time>
      </trkpt>
      <trkpt lat="42.62104" lon="23.9906">
        <ele>568.268713</ele>
        <time>2022-03-08T10:25:10.726Z</time>
      </trkpt>
      <trkpt lat="42.62103" lon="23.99046">
        <ele>568.686369</ele>
        <time>2022-03-08T10:25:15.757Z</time>
      </trkpt>
      <trkpt lat="42.62103" lon="23.99033">
        <ele>568.435986</ele>
        <time>2022-03-08T10:25:20.748Z</time>
      </trkpt>
      <trkpt lat="42.62103" lon="23.9902">
        <ele>568.194178</ele>
        <time>2022-03-08T10:25:24.746Z</time>
      </trkpt>
      <trkpt lat="42.62103" lon="23.99006">
        <ele>567.925081</ele>
        <time>2022-03-08T10:25:28.778Z</time>
      </trkpt>
      <trkpt lat="42.62103" lon="23.98992">
        <ele>567.648035</ele>
        <time>2022-03-08T10:25:32.744Z</time>
      </trkpt>
      <trkpt lat="42.62104" lon="23.98977">
        <ele>567.353216</ele>
        <time>2022-03-08T10:25:36.753Z</time>
      </trkpt>
      <trkpt lat="42.62104" lon="23.98963">
        <ele>567.076259</ele>
        <time>2022-03-08T10:25:40.747Z</time>
      </trkpt>
      <trkpt lat="42.62105" lon="23.98948">
        <ele>566.788446</ele>
        <time>2022-03-08T10:25:44.764Z</time>
      </trkpt>
      <trkpt lat="42.62107" lon="23.98933">
        <ele>566.499465</ele>
        <time>2022-03-08T10:25:48.759Z</time>
      </trkpt>
      <trkpt lat="42.62109" lon="23.98922">
        <ele>566.260786</ele>
        <time>2022-03-08T10:25:51.748Z</time>
      </trkpt>
      <trkpt lat="42.62113" lon="23.98907">
        <ele>565.953996</ele>
        <time>2022-03-08T10:25:55.755Z</time>
      </trkpt>
      <trkpt lat="42.62116" lon="23.98895">
        <ele>565.706911</ele>
        <time>2022-03-08T10:25:58.740Z</time>
      </trkpt>
      <trkpt lat="42.62118" lon="23.98882">
        <ele>565.456668</ele>
        <time>2022-03-08T10:26:01.732Z</time>
      </trkpt>
      <trkpt lat="42.62122" lon="23.98869">
        <ele>565.169404</ele>
        <time>2022-03-08T10:26:04.744Z</time>
      </trkpt>
      <trkpt lat="42.62125" lon="23.98855">
        <ele>564.897611</ele>
        <time>2022-03-08T10:26:07.794Z</time>
      </trkpt>
      <trkpt lat="42.62128" lon="23.98843">
        <ele>564.643865</ele>
        <time>2022-03-08T10:26:10.726Z</time>
      </trkpt>
      <trkpt lat="42.62131" lon="23.98829">
        <ele>564.364677</ele>
        <time>2022-03-08T10:26:13.727Z</time>
      </trkpt>
      <trkpt lat="42.62134" lon="23.98814">
        <ele>564.048945</ele>
        <time>2022-03-08T10:26:16.743Z</time>
      </trkpt>
      <trkpt lat="42.62138" lon="23.98797">
        <ele>563.76233</ele>
        <time>2022-03-08T10:26:19.733Z</time>
      </trkpt>
      <trkpt lat="42.62142" lon="23.9878">
        <ele>563.487668</ele>
        <time>2022-03-08T10:26:22.758Z</time>
      </trkpt>
      <trkpt lat="42.62145" lon="23.98767">
        <ele>563.284361</ele>
        <time>2022-03-08T10:26:24.747Z</time>
      </trkpt>
      <trkpt lat="42.62148" lon="23.98753">
        <ele>563.060374</ele>
        <time>2022-03-08T10:26:26.752Z</time>
      </trkpt>
      <trkpt lat="42.62151" lon="23.98739">
        <ele>562.83027</ele>
        <time>2022-03-08T10:26:28.760Z</time>
      </trkpt>
      <trkpt lat="42.62155" lon="23.98725">
        <ele>562.605147</ele>
        <time>2022-03-08T10:26:30.730Z</time>
      </trkpt>
      <trkpt lat="42.62158" lon="23.9871">
        <ele>562.375351</ele>
        <time>2022-03-08T10:26:32.732Z</time>
      </trkpt>
      <trkpt lat="42.62162" lon="23.98696">
        <ele>562.144335</ele>
        <time>2022-03-08T10:26:34.750Z</time>
      </trkpt>
      <trkpt lat="42.62165" lon="23.98681">
        <ele>561.911873</ele>
        <time>2022-03-08T10:26:36.741Z</time>
      </trkpt>
      <trkpt lat="42.62168" lon="23.98666">
        <ele>561.677121</ele>
        <time>2022-03-08T10:26:38.742Z</time>
      </trkpt>
      <trkpt lat="42.62172" lon="23.98651">
        <ele>561.433054</ele>
        <time>2022-03-08T10:26:40.719Z</time>
      </trkpt>
      <trkpt lat="42.62175" lon="23.98634">
        <ele>561.173843</ele>
        <time>2022-03-08T10:26:42.751Z</time>
      </trkpt>
      <trkpt lat="42.62179" lon="23.98618">
        <ele>560.905801</ele>
        <time>2022-03-08T10:26:44.752Z</time>
      </trkpt>
      <trkpt lat="42.62183" lon="23.986">
        <ele>560.631348</ele>
        <time>2022-03-08T10:26:46.749Z</time>
      </trkpt>
      <trkpt lat="42.62187" lon="23.98584">
        <ele>560.362664</ele>
        <time>2022-03-08T10:26:48.736Z</time>
      </trkpt>
      <trkpt lat="42.62192" lon="23.98568">
        <ele>560.157447</ele>
        <time>2022-03-08T10:26:50.736Z</time>
      </trkpt>
      <trkpt lat="42.62195" lon="23.98552">
        <ele>560.027206</ele>
        <time>2022-03-08T10:26:52.739Z</time>
      </trkpt>
      <trkpt lat="42.62198" lon="23.98537">
        <ele>559.89774</ele>
        <time>2022-03-08T10:26:54.731Z</time>
      </trkpt>
      <trkpt lat="42.62201" lon="23.98521">
        <ele>559.769051</ele>
        <time>2022-03-08T10:26:56.744Z</time>
      </trkpt>
      <trkpt lat="42.62205" lon="23.98506">
        <ele>559.641771</ele>
        <time>2022-03-08T10:26:58.738Z</time>
      </trkpt>
      <trkpt lat="42.62208" lon="23.98491">
        <ele>559.514925</ele>
        <time>2022-03-08T10:27:00.739Z</time>
      </trkpt>
      <trkpt lat="42.62211" lon="23.98475">
        <ele>559.381325</ele>
        <time>2022-03-08T10:27:02.754Z</time>
      </trkpt>
      <trkpt lat="42.62213" lon="23.98459">
        <ele>559.247908</ele>
        <time>2022-03-08T10:27:04.755Z</time>
      </trkpt>
      <trkpt lat="42.62216" lon="23.98443">
        <ele>559.113525</ele>
        <time>2022-03-08T10:27:06.746Z</time>
      </trkpt>
      <trkpt lat="42.6222" lon="23.98427">
        <ele>558.980528</ele>
        <time>2022-03-08T10:27:08.741Z</time>
      </trkpt>
      <trkpt lat="42.62223" lon="23.98411">
        <ele>558.849389</ele>
        <time>2022-03-08T10:27:10.749Z</time>
      </trkpt>
      <trkpt lat="42.62226" lon="23.98394">
        <ele>558.708734</ele>
        <time>2022-03-08T10:27:12.743Z</time>
      </trkpt>
      <trkpt lat="42.6223" lon="23.98377">
        <ele>558.564118</ele>
        <time>2022-03-08T10:27:14.744Z</time>
      </trkpt>
      <trkpt lat="42.62234" lon="23.9836">
        <ele>558.419988</ele>
        <time>2022-03-08T10:27:16.743Z</time>
      </trkpt>
      <trkpt lat="42.62238" lon="23.98345">
        <ele>558.289068</ele>
        <time>2022-03-08T10:27:18.737Z</time>
      </trkpt>
      <trkpt lat="42.62241" lon="23.98329">
        <ele>558.307271</ele>
        <time>2022-03-08T10:27:20.746Z</time>
      </trkpt>
      <trkpt lat="42.62246" lon="23.98313">
        <ele>558.399612</ele>
        <time>2022-03-08T10:27:22.775Z</time>
      </trkpt>
      <trkpt lat="42.62249" lon="23.98298">
        <ele>558.487368</ele>
        <time>2022-03-08T10:27:24.762Z</time>
      </trkpt>
      <trkpt lat="42.62252" lon="23.98282">
        <ele>558.579276</ele>
        <time>2022-03-08T10:27:26.751Z</time>
      </trkpt>
      <trkpt lat="42.62256" lon="23.98266">
        <ele>558.674521</ele>
        <time>2022-03-08T10:27:28.747Z</time>
      </trkpt>
      <trkpt lat="42.6226" lon="23.98249">
        <ele>558.769605</ele>
        <time>2022-03-08T10:27:30.759Z</time>
      </trkpt>
      <trkpt lat="42.62263" lon="23.98234">
        <ele>558.859375</ele>
        <time>2022-03-08T10:27:32.743Z</time>
      </trkpt>
      <trkpt lat="42.62266" lon="23.98219">
        <ele>558.944436</ele>
        <time>2022-03-08T10:27:34.748Z</time>
      </trkpt>
      <trkpt lat="42.62269" lon="23.98205">
        <ele>559.026123</ele>
        <time>2022-03-08T10:27:36.760Z</time>
      </trkpt>
      <trkpt lat="42.62273" lon="23.98192">
        <ele>559.102998</ele>
        <time>2022-03-08T10:27:38.745Z</time>
      </trkpt>
      <trkpt lat="42.62278" lon="23.98179">
        <ele>559.179974</ele>
        <time>2022-03-08T10:27:40.785Z</time>
      </trkpt>
      <trkpt lat="42.62282" lon="23.98169">
        <ele>559.247831</ele>
        <time>2022-03-08T10:27:42.739Z</time>
      </trkpt>
      <trkpt lat="42.62285" lon="23.98157">
        <ele>559.316896</ele>
        <time>2022-03-08T10:27:44.757Z</time>
      </trkpt>
      <trkpt lat="42.62289" lon="23.98145">
        <ele>559.387647</ele>
        <time>2022-03-08T10:27:46.721Z</time>
      </trkpt>
      <trkpt lat="42.62293" lon="23.98128">
        <ele>559.488312</ele>
        <time>2022-03-08T10:27:49.747Z</time>
      </trkpt>
      <trkpt lat="42.62298" lon="23.98113">
        <ele>559.580652</ele>
        <time>2022-03-08T10:27:52.737Z</time>
      </trkpt>
      <trkpt lat="42.62301" lon="23.98098">
        <ele>559.666187</ele>
        <time>2022-03-08T10:27:55.757Z</time>
      </trkpt>
      <trkpt lat="42.62305" lon="23.98083">
        <ele>559.759657</ele>
        <time>2022-03-08T10:27:58.750Z</time>
      </trkpt>
      <trkpt lat="42.62309" lon="23.98068">
        <ele>559.847307</ele>
        <time>2022-03-08T10:28:01.750Z</time>
      </trkpt>
      <trkpt lat="42.62314" lon="23.98054">
        <ele>559.933905</ele>
        <time>2022-03-08T10:28:04.738Z</time>
      </trkpt>
      <trkpt lat="42.62317" lon="23.9804">
        <ele>560.016522</ele>
        <time>2022-03-08T10:28:07.740Z</time>
      </trkpt>
      <trkpt lat="42.62321" lon="23.98025">
        <ele>560.104734</ele>
        <time>2022-03-08T10:28:10.736Z</time>
      </trkpt>
      <trkpt lat="42.62326" lon="23.9801">
        <ele>560.196727</ele>
        <time>2022-03-08T10:28:13.771Z</time>
      </trkpt>
      <trkpt lat="42.62331" lon="23.97996">
        <ele>560.286862</ele>
        <time>2022-03-08T10:28:16.746Z</time>
      </trkpt>
      <trkpt lat="42.62335" lon="23.97981">
        <ele>560.376997</ele>
        <time>2022-03-08T10:28:19.727Z</time>
      </trkpt>
      <trkpt lat="42.62341" lon="23.97965">
        <ele>560.476005</ele>
        <time>2022-03-08T10:28:22.755Z</time>
      </trkpt>
      <trkpt lat="42.62346" lon="23.97949">
        <ele>560.57409</ele>
        <time>2022-03-08T10:28:25.751Z</time>
      </trkpt>
      <trkpt lat="42.62351" lon="23.97934">
        <ele>560.665469</ele>
        <time>2022-03-08T10:28:28.746Z</time>
      </trkpt>
      <trkpt lat="42.62354" lon="23.9792">
        <ele>560.74915</ele>
        <time>2022-03-08T10:28:31.747Z</time>
      </trkpt>
      <trkpt lat="42.62358" lon="23.97908">
        <ele>560.824829</ele>
        <time>2022-03-08T10:28:34.750Z</time>
      </trkpt>
      <trkpt lat="42.62363" lon="23.97895">
        <ele>560.905715</ele>
        <time>2022-03-08T10:28:37.748Z</time>
      </trkpt>
      <trkpt lat="42.62367" lon="23.97881">
        <ele>561.011224</ele>
        <time>2022-03-08T10:28:40.752Z</time>
      </trkpt>
      <trkpt lat="42.62372" lon="23.97867">
        <ele>561.200026</ele>
        <time>2022-03-08T10:28:43.754Z</time>
      </trkpt>
      <trkpt lat="42.62376" lon="23.97853">
        <ele>561.387836</ele>
        <time>2022-03-08T10:28:46.760Z</time>
      </trkpt>
      <trkpt lat="42.6238" lon="23.97838">
        <ele>561.580637</ele>
        <time>2022-03-08T10:28:49.737Z</time>
      </trkpt>
      <trkpt lat="42.62385" lon="23.97825">
        <ele>561.765616</ele>
        <time>2022-03-08T10:28:52.764Z</time>
      </trkpt>
      <trkpt lat="42.6239" lon="23.97813">
        <ele>561.933248</ele>
        <time>2022-03-08T10:28:55.735Z</time>
      </trkpt>
      <trkpt lat="42.62395" lon="23.97799">
        <ele>562.134199</ele>
        <time>2022-03-08T10:28:59.747Z</time>
      </trkpt>
      <trkpt lat="42.624" lon="23.97784">
        <ele>562.327906</ele>
        <time>2022-03-08T10:29:03.742Z</time>
      </trkpt>
      <trkpt lat="42.62404" lon="23.9777">
        <ele>562.519011</ele>
        <time>2022-03-08T10:29:07.767Z</time>
      </trkpt>
      <trkpt lat="42.62408" lon="23.97755">
        <ele>562.720532</ele>
        <time>2022-03-08T10:29:11.746Z</time>
      </trkpt>
      <trkpt lat="42.62412" lon="23.97743">
        <ele>562.879266</ele>
        <time>2022-03-08T10:29:14.747Z</time>
      </trkpt>
      <trkpt lat="42.62416" lon="23.9773">
        <ele>563.057598</ele>
        <time>2022-03-08T10:29:17.752Z</time>
      </trkpt>
      <trkpt lat="42.62419" lon="23.97718">
        <ele>563.211423</ele>
        <time>2022-03-08T10:29:20.742Z</time>
      </trkpt>
      <trkpt lat="42.62422" lon="23.97706">
        <ele>563.372179</ele>
        <time>2022-03-08T10:29:23.748Z</time>
      </trkpt>
      <trkpt lat="42.62426" lon="23.97694">
        <ele>563.52831</ele>
        <time>2022-03-08T10:29:26.746Z</time>
      </trkpt>
      <trkpt lat="42.6243" lon="23.97683">
        <ele>563.691003</ele>
        <time>2022-03-08T10:29:29.742Z</time>
      </trkpt>
      <trkpt lat="42.62435" lon="23.97672">
        <ele>563.845886</ele>
        <time>2022-03-08T10:29:32.747Z</time>
      </trkpt>
      <trkpt lat="42.62439" lon="23.97659">
        <ele>564.017888</ele>
        <time>2022-03-08T10:29:35.747Z</time>
      </trkpt>
      <trkpt lat="42.62442" lon="23.97647">
        <ele>564.151657</ele>
        <time>2022-03-08T10:29:38.755Z</time>
      </trkpt>
      <trkpt lat="42.62446" lon="23.97635">
        <ele>564.275204</ele>
        <time>2022-03-08T10:29:41.753Z</time>
      </trkpt>
      <trkpt lat="42.6245" lon="23.97624">
        <ele>564.399723</ele>
        <time>2022-03-08T10:29:44.747Z</time>
      </trkpt>
      <trkpt lat="42.62454" lon="23.97609">
        <ele>564.556084</ele>
        <time>2022-03-08T10:29:48.746Z</time>
      </trkpt>
      <trkpt lat="42.62458" lon="23.97598">
        <ele>564.679243</ele>
        <time>2022-03-08T10:29:51.732Z</time>
      </trkpt>
      <trkpt lat="42.62462" lon="23.97584">
        <ele>564.834677</ele>
        <time>2022-03-08T10:29:55.738Z</time>
      </trkpt>
      <trkpt lat="42.62466" lon="23.97571">
        <ele>564.971558</ele>
        <time>2022-03-08T10:29:59.756Z</time>
      </trkpt>
      <trkpt lat="42.6247" lon="23.9756">
        <ele>565.096732</ele>
        <time>2022-03-08T10:30:03.752Z</time>
      </trkpt>
      <trkpt lat="42.62474" lon="23.97549">
        <ele>565.220663</ele>
        <time>2022-03-08T10:30:07.757Z</time>
      </trkpt>
      <trkpt lat="42.62478" lon="23.97536">
        <ele>565.355539</ele>
        <time>2022-03-08T10:30:11.734Z</time>
      </trkpt>
      <trkpt lat="42.62481" lon="23.97524">
        <ele>565.486203</ele>
        <time>2022-03-08T10:30:15.744Z</time>
      </trkpt>
      <trkpt lat="42.62485" lon="23.97512">
        <ele>565.617671</ele>
        <time>2022-03-08T10:30:19.757Z</time>
      </trkpt>
      <trkpt lat="42.62489" lon="23.975">
        <ele>565.747964</ele>
        <time>2022-03-08T10:30:23.743Z</time>
      </trkpt>
      <trkpt lat="42.62492" lon="23.97489">
        <ele>565.871122</ele>
        <time>2022-03-08T10:30:27.750Z</time>
      </trkpt>
      <trkpt lat="42.62496" lon="23.97478">
        <ele>565.994477</ele>
        <time>2022-03-08T10:30:31.733Z</time>
      </trkpt>
      <trkpt lat="42.625" lon="23.97467">
        <ele>566.117197</ele>
        <time>2022-03-08T10:30:35.747Z</time>
      </trkpt>
      <trkpt lat="42.62505" lon="23.97454">
        <ele>566.261473</ele>
        <time>2022-03-08T10:30:40.747Z</time>
      </trkpt>
      <trkpt lat="42.62509" lon="23.9744">
        <ele>566.407687</ele>
        <time>2022-03-08T10:30:45.743Z</time>
      </trkpt>
      <trkpt lat="42.62513" lon="23.97427">
        <ele>566.763658</ele>
        <time>2022-03-08T10:30:50.751Z</time>
      </trkpt>
      <trkpt lat="42.62516" lon="23.97415">
        <ele>567.217608</ele>
        <time>2022-03-08T10:30:55.745Z</time>
      </trkpt>
      <trkpt lat="42.6252" lon="23.97402">
        <ele>567.706264</ele>
        <time>2022-03-08T10:31:00.733Z</time>
      </trkpt>
      <trkpt lat="42.62524" lon="23.97388">
        <ele>568.212276</ele>
        <time>2022-03-08T10:31:05.772Z</time>
      </trkpt>
      <trkpt lat="42.62528" lon="23.97375">
        <ele>568.713314</ele>
        <time>2022-03-08T10:31:10.749Z</time>
      </trkpt>
      <trkpt lat="42.62531" lon="23.97363">
        <ele>569.149666</ele>
        <time>2022-03-08T10:31:15.736Z</time>
      </trkpt>
      <trkpt lat="42.62534" lon="23.9735">
        <ele>569.620372</ele>
        <time>2022-03-08T10:31:20.750Z</time>
      </trkpt>
      <trkpt lat="42.62538" lon="23.97336">
        <ele>570.121409</ele>
        <time>2022-03-08T10:31:25.742Z</time>
      </trkpt>
      <trkpt lat="42.62542" lon="23.97324">
        <ele>570.595513</ele>
        <time>2022-03-08T10:31:30.749Z</time>
      </trkpt>
      <trkpt lat="42.62545" lon="23.9731">
        <ele>571.088487</ele>
        <time>2022-03-08T10:31:35.747Z</time>
      </trkpt>
      <trkpt lat="42.62548" lon="23.97296">
        <ele>571.592264</ele>
        <time>2022-03-08T10:31:40.751Z</time>
      </trkpt>
      <trkpt lat="42.6255" lon="23.97282">
        <ele>572.097976</ele>
        <time>2022-03-08T10:31:45.739Z</time>
      </trkpt>
      <trkpt lat="42.62552" lon="23.97267">
        <ele>572.602606</ele>
        <time>2022-03-08T10:31:50.764Z</time>
      </trkpt>
      <trkpt lat="42.62554" lon="23.97255">
        <ele>573.051976</ele>
        <time>2022-03-08T10:31:54.740Z</time>
      </trkpt>
      <trkpt lat="42.62556" lon="23.97242">
        <ele>573.482809</ele>
        <time>2022-03-08T10:31:58.761Z</time>
      </trkpt>
      <trkpt lat="42.62558" lon="23.9723">
        <ele>573.922414</ele>
        <time>2022-03-08T10:32:02.750Z</time>
      </trkpt>
      <trkpt lat="42.6256" lon="23.97216">
        <ele>574.406717</ele>
        <time>2022-03-08T10:32:07.743Z</time>
      </trkpt>
      <trkpt lat="42.62562" lon="23.97202">
        <ele>574.916209</ele>
        <time>2022-03-08T10:32:12.745Z</time>
      </trkpt>
      <trkpt lat="42.62565" lon="23.97187">
        <ele>575.348215</ele>
        <time>2022-03-08T10:32:17.776Z</time>
      </trkpt>
      <trkpt lat="42.62567" lon="23.97173">
        <ele>575.759816</ele>
        <time>2022-03-08T10:32:22.746Z</time>
      </trkpt>
      <trkpt lat="42.62569" lon="23.97159">
        <ele>576.164628</ele>
        <time>2022-03-08T10:32:27.731Z</time>
      </trkpt>
      <trkpt lat="42.62571" lon="23.97145">
        <ele>576.590185</ele>
        <time>2022-03-08T10:32:32.754Z</time>
      </trkpt>
      <trkpt lat="42.62573" lon="23.97131">
        <ele>576.992915</ele>
        <time>2022-03-08T10:32:37.749Z</time>
      </trkpt>
      <trkpt lat="42.62576" lon="23.97117">
        <ele>577.415679</ele>
        <time>2022-03-08T10:32:42.734Z</time>
      </trkpt>
      <trkpt lat="42.62578" lon="23.97104">
        <ele>577.800414</ele>
        <time>2022-03-08T10:32:47.758Z</time>
      </trkpt>
      <trkpt lat="42.6258" lon="23.97091">
        <ele>578.157478</ele>
        <time>2022-03-08T10:32:52.754Z</time>
      </trkpt>
      <trkpt lat="42.62584" lon="23.97078">
        <ele>578.564621</ele>
        <time>2022-03-08T10:32:58.757Z</time>
      </trkpt>
      <trkpt lat="42.62587" lon="23.97066">
        <ele>578.920727</ele>
        <time>2022-03-08T10:33:03.749Z</time>
      </trkpt>
      <trkpt lat="42.6259" lon="23.97055">
        <ele>579.275494</ele>
        <time>2022-03-08T10:33:08.737Z</time>
      </trkpt>
      <trkpt lat="42.62594" lon="23.97042">
        <ele>579.67679</ele>
        <time>2022-03-08T10:33:14.745Z</time>
      </trkpt>
      <trkpt lat="42.62598" lon="23.97029">
        <ele>580.055692</ele>
        <time>2022-03-08T10:33:20.747Z</time>
      </trkpt>
      <trkpt lat="42.62601" lon="23.97017">
        <ele>580.430976</ele>
        <time>2022-03-08T10:33:25.742Z</time>
      </trkpt>
      <trkpt lat="42.62603" lon="23.97003">
        <ele>580.847422</ele>
        <time>2022-03-08T10:33:30.758Z</time>
      </trkpt>
      <trkpt lat="42.62607" lon="23.9699">
        <ele>581.249201</ele>
        <time>2022-03-08T10:33:35.752Z</time>
      </trkpt>
      <trkpt lat="42.62613" lon="23.96978">
        <ele>581.662695</ele>
        <time>2022-03-08T10:33:40.732Z</time>
      </trkpt>
      <trkpt lat="42.62618" lon="23.96966">
        <ele>581.886779</ele>
        <time>2022-03-08T10:33:45.774Z</time>
      </trkpt>
      <trkpt lat="42.62624" lon="23.96954">
        <ele>581.848356</ele>
        <time>2022-03-08T10:33:50.739Z</time>
      </trkpt>
      <trkpt lat="42.62629" lon="23.96944">
        <ele>581.814611</ele>
        <time>2022-03-08T10:33:54.755Z</time>
      </trkpt>
      <trkpt lat="42.62636" lon="23.96933">
        <ele>581.77368</ele>
        <time>2022-03-08T10:33:59.746Z</time>
      </trkpt>
      <trkpt lat="42.62643" lon="23.96921">
        <ele>581.732437</ele>
        <time>2022-03-08T10:34:04.742Z</time>
      </trkpt>
      <trkpt lat="42.62649" lon="23.96908">
        <ele>581.691772</ele>
        <time>2022-03-08T10:34:09.745Z</time>
      </trkpt>
      <trkpt lat="42.62656" lon="23.96898">
        <ele>581.653922</ele>
        <time>2022-03-08T10:34:13.767Z</time>
      </trkpt>
      <trkpt lat="42.62663" lon="23.96888">
        <ele>581.615587</ele>
        <time>2022-03-08T10:34:17.750Z</time>
      </trkpt>
      <trkpt lat="42.62671" lon="23.96877">
        <ele>581.575025</ele>
        <time>2022-03-08T10:34:21.747Z</time>
      </trkpt>
      <trkpt lat="42.62678" lon="23.96865">
        <ele>581.531732</ele>
        <time>2022-03-08T10:34:25.784Z</time>
      </trkpt>
      <trkpt lat="42.62684" lon="23.96855">
        <ele>581.497507</ele>
        <time>2022-03-08T10:34:28.754Z</time>
      </trkpt>
      <trkpt lat="42.6269" lon="23.96846">
        <ele>581.463038</ele>
        <time>2022-03-08T10:34:31.750Z</time>
      </trkpt>
      <trkpt lat="42.62697" lon="23.96837">
        <ele>581.427113</ele>
        <time>2022-03-08T10:34:34.760Z</time>
      </trkpt>
      <trkpt lat="42.62703" lon="23.96827">
        <ele>581.390371</ele>
        <time>2022-03-08T10:34:37.748Z</time>
      </trkpt>
      <trkpt lat="42.6271" lon="23.96817">
        <ele>581.354732</ele>
        <time>2022-03-08T10:34:40.756Z</time>
      </trkpt>
      <trkpt lat="42.62716" lon="23.96808">
        <ele>581.31921</ele>
        <time>2022-03-08T10:34:43.759Z</time>
      </trkpt>
      <trkpt lat="42.62723" lon="23.96796">
        <ele>581.277684</ele>
        <time>2022-03-08T10:34:46.738Z</time>
      </trkpt>
      <trkpt lat="42.62731" lon="23.96785">
        <ele>581.237617</ele>
        <time>2022-03-08T10:34:49.738Z</time>
      </trkpt>
      <trkpt lat="42.62738" lon="23.96773">
        <ele>580.976125</ele>
        <time>2022-03-08T10:34:52.752Z</time>
      </trkpt>
      <trkpt lat="42.62746" lon="23.96761">
        <ele>580.678289</ele>
        <time>2022-03-08T10:34:55.747Z</time>
      </trkpt>
      <trkpt lat="42.62753" lon="23.96748">
        <ele>580.383911</ele>
        <time>2022-03-08T10:34:58.769Z</time>
      </trkpt>
      <trkpt lat="42.62761" lon="23.96736">
        <ele>580.083936</ele>
        <time>2022-03-08T10:35:01.756Z</time>
      </trkpt>
      <trkpt lat="42.62768" lon="23.96722">
        <ele>579.778171</ele>
        <time>2022-03-08T10:35:04.782Z</time>
      </trkpt>
      <trkpt lat="42.62775" lon="23.96709">
        <ele>579.467917</ele>
        <time>2022-03-08T10:35:07.735Z</time>
      </trkpt>
      <trkpt lat="42.62782" lon="23.96696">
        <ele>579.175223</ele>
        <time>2022-03-08T10:35:10.748Z</time>
      </trkpt>
      <trkpt lat="42.62789" lon="23.96682">
        <ele>578.87374</ele>
        <time>2022-03-08T10:35:13.772Z</time>
      </trkpt>
      <trkpt lat="42.62795" lon="23.9667">
        <ele>578.602116</ele>
        <time>2022-03-08T10:35:16.737Z</time>
      </trkpt>
      <trkpt lat="42.62801" lon="23.96659">
        <ele>578.340882</ele>
        <time>2022-03-08T10:35:19.752Z</time>
      </trkpt>
      <trkpt lat="42.62807" lon="23.96647">
        <ele>578.085477</ele>
        <time>2022-03-08T10:35:22.743Z</time>
      </trkpt>
      <trkpt lat="42.62813" lon="23.96636">
        <ele>577.827031</ele>
        <time>2022-03-08T10:35:25.726Z</time>
      </trkpt>
      <trkpt lat="42.62818" lon="23.96625">
        <ele>577.588496</ele>
        <time>2022-03-08T10:35:28.751Z</time>
      </trkpt>
      <trkpt lat="42.62822" lon="23.96614">
        <ele>577.360438</ele>
        <time>2022-03-08T10:35:31.744Z</time>
      </trkpt>
      <trkpt lat="42.62828" lon="23.966">
        <ele>577.068412</ele>
        <time>2022-03-08T10:35:35.752Z</time>
      </trkpt>
      <trkpt lat="42.62834" lon="23.96588">
        <ele>576.794279</ele>
        <time>2022-03-08T10:35:39.765Z</time>
      </trkpt>
      <trkpt lat="42.62839" lon="23.96576">
        <ele>576.912269</ele>
        <time>2022-03-08T10:35:43.732Z</time>
      </trkpt>
      <trkpt lat="42.62844" lon="23.96564">
        <ele>577.163126</ele>
        <time>2022-03-08T10:35:47.738Z</time>
      </trkpt>
      <trkpt lat="42.62849" lon="23.96551">
        <ele>577.417987</ele>
        <time>2022-03-08T10:35:51.774Z</time>
      </trkpt>
      <trkpt lat="42.62855" lon="23.96539">
        <ele>577.673329</ele>
        <time>2022-03-08T10:35:55.747Z</time>
      </trkpt>
      <trkpt lat="42.6286" lon="23.96528">
        <ele>577.914787</ele>
        <time>2022-03-08T10:35:59.756Z</time>
      </trkpt>
      <trkpt lat="42.62865" lon="23.96516">
        <ele>578.163149</ele>
        <time>2022-03-08T10:36:03.753Z</time>
      </trkpt>
      <trkpt lat="42.6287" lon="23.96505">
        <ele>578.409972</ele>
        <time>2022-03-08T10:36:07.750Z</time>
      </trkpt>
      <trkpt lat="42.62876" lon="23.96493">
        <ele>578.659423</ele>
        <time>2022-03-08T10:36:11.761Z</time>
      </trkpt>
      <trkpt lat="42.6288" lon="23.96482">
        <ele>578.887498</ele>
        <time>2022-03-08T10:36:15.764Z</time>
      </trkpt>
      <trkpt lat="42.62885" lon="23.96471">
        <ele>579.12276</ele>
        <time>2022-03-08T10:36:19.749Z</time>
      </trkpt>
      <trkpt lat="42.6289" lon="23.9646">
        <ele>579.365775</ele>
        <time>2022-03-08T10:36:23.743Z</time>
      </trkpt>
      <trkpt lat="42.62895" lon="23.96448">
        <ele>579.609237</ele>
        <time>2022-03-08T10:36:27.762Z</time>
      </trkpt>
      <trkpt lat="42.629" lon="23.96436">
        <ele>579.863263</ele>
        <time>2022-03-08T10:36:31.753Z</time>
      </trkpt>
      <trkpt lat="42.62907" lon="23.96425">
        <ele>580.112252</ele>
        <time>2022-03-08T10:36:35.751Z</time>
      </trkpt>
      <trkpt lat="42.62913" lon="23.96414">
        <ele>580.361224</ele>
        <time>2022-03-08T10:36:39.747Z</time>
      </trkpt>
      <trkpt lat="42.62918" lon="23.96402">
        <ele>580.608794</ele>
        <time>2022-03-08T10:36:43.733Z</time>
      </trkpt>
      <trkpt lat="42.62924" lon="23.96392">
        <ele>580.840457</ele>
        <time>2022-03-08T10:36:47.751Z</time>
      </trkpt>
      <trkpt lat="42.62929" lon="23.96378">
        <ele>581.111559</ele>
        <time>2022-03-08T10:36:52.744Z</time>
      </trkpt>
      <trkpt lat="42.62934" lon="23.96365">
        <ele>581.539274</ele>
        <time>2022-03-08T10:36:57.758Z</time>
      </trkpt>
      <trkpt lat="42.62939" lon="23.96352">
        <ele>581.974358</ele>
        <time>2022-03-08T10:37:02.743Z</time>
      </trkpt>
      <trkpt lat="42.62944" lon="23.96341">
        <ele>582.376752</ele>
        <time>2022-03-08T10:37:07.788Z</time>
      </trkpt>
      <trkpt lat="42.6295" lon="23.96328">
        <ele>582.82787</ele>
        <time>2022-03-08T10:37:12.728Z</time>
      </trkpt>
      <trkpt lat="42.62956" lon="23.96315">
        <ele>583.26489</ele>
        <time>2022-03-08T10:37:17.752Z</time>
      </trkpt>
      <trkpt lat="42.62962" lon="23.96304">
        <ele>583.686214</ele>
        <time>2022-03-08T10:37:22.768Z</time>
      </trkpt>
      <trkpt lat="42.62968" lon="23.96293">
        <ele>584.0931</ele>
        <time>2022-03-08T10:37:27.754Z</time>
      </trkpt>
      <trkpt lat="42.62973" lon="23.96282">
        <ele>584.498067</ele>
        <time>2022-03-08T10:37:32.736Z</time>
      </trkpt>
      <trkpt lat="42.62979" lon="23.96271">
        <ele>584.900182</ele>
        <time>2022-03-08T10:37:37.747Z</time>
      </trkpt>
      <trkpt lat="42.62985" lon="23.9626">
        <ele>585.309551</ele>
        <time>2022-03-08T10:37:42.738Z</time>
      </trkpt>
      <trkpt lat="42.6299" lon="23.96249">
        <ele>585.708335</ele>
        <time>2022-03-08T10:37:47.742Z</time>
      </trkpt>
      <trkpt lat="42.62996" lon="23.96238">
        <ele>586.095955</ele>
        <time>2022-03-08T10:37:52.746Z</time>
      </trkpt>
      <trkpt lat="42.63001" lon="23.96228">
        <ele>586.471791</ele>
        <time>2022-03-08T10:37:57.794Z</time>
      </trkpt>
      <trkpt lat="42.63007" lon="23.96215">
        <ele>586.910405</ele>
        <time>2022-03-08T10:38:03.743Z</time>
      </trkpt>
      <trkpt lat="42.63013" lon="23.96203">
        <ele>587.337331</ele>
        <time>2022-03-08T10:38:09.754Z</time>
      </trkpt>
      <trkpt lat="42.63018" lon="23.96191">
        <ele>587.766473</ele>
        <time>2022-03-08T10:38:15.730Z</time>
      </trkpt>
      <trkpt lat="42.63024" lon="23.96182">
        <ele>588.132428</ele>
        <time>2022-03-08T10:38:20.777Z</time>
      </trkpt>
      <trkpt lat="42.63029" lon="23.96172">
        <ele>588.486481</ele>
        <time>2022-03-08T10:38:25.730Z</time>
      </trkpt>
      <trkpt lat="42.63035" lon="23.96161">
        <ele>588.768098</ele>
        <time>2022-03-08T10:38:30.752Z</time>
      </trkpt>
      <trkpt lat="42.63041" lon="23.9615">
        <ele>589.078445</ele>
        <time>2022-03-08T10:38:35.780Z</time>
      </trkpt>
      <trkpt lat="42.63047" lon="23.9614">
        <ele>589.366911</ele>
        <time>2022-03-08T10:38:40.752Z</time>
      </trkpt>
      <trkpt lat="42.63052" lon="23.96129">
        <ele>589.633101</ele>
        <time>2022-03-08T10:38:45.734Z</time>
      </trkpt>
      <trkpt lat="42.63056" lon="23.96118">
        <ele>589.904268</ele>
        <time>2022-03-08T10:38:50.747Z</time>
      </trkpt>
      <trkpt lat="42.63061" lon="23.96107">
        <ele>590.183148</ele>
        <time>2022-03-08T10:38:55.741Z</time>
      </trkpt>
      <trkpt lat="42.63067" lon="23.96097">
        <ele>590.461302</ele>
        <time>2022-03-08T10:39:00.766Z</time>
      </trkpt>
      <trkpt lat="42.63072" lon="23.96087">
        <ele>590.726951</ele>
        <time>2022-03-08T10:39:05.741Z</time>
      </trkpt>
      <trkpt lat="42.63077" lon="23.96076">
        <ele>591.020109</ele>
        <time>2022-03-08T10:39:11.754Z</time>
      </trkpt>
      <trkpt lat="42.63083" lon="23.96064">
        <ele>591.328295</ele>
        <time>2022-03-08T10:39:17.760Z</time>
      </trkpt>
      <trkpt lat="42.63089" lon="23.96053">
        <ele>591.641367</ele>
        <time>2022-03-08T10:39:23.744Z</time>
      </trkpt>
      <trkpt lat="42.63096" lon="23.96042">
        <ele>591.941221</ele>
        <time>2022-03-08T10:39:28.746Z</time>
      </trkpt>
      <trkpt lat="42.631" lon="23.96031">
        <ele>592.226524</ele>
        <time>2022-03-08T10:39:33.741Z</time>
      </trkpt>
      <trkpt lat="42.63106" lon="23.96019">
        <ele>592.533339</ele>
        <time>2022-03-08T10:39:39.747Z</time>
      </trkpt>
      <trkpt lat="42.6311" lon="23.96006">
        <ele>592.846872</ele>
        <time>2022-03-08T10:39:45.731Z</time>
      </trkpt>
      <trkpt lat="42.63115" lon="23.95996">
        <ele>593.115933</ele>
        <time>2022-03-08T10:39:50.746Z</time>
      </trkpt>
      <trkpt lat="42.63121" lon="23.95984">
        <ele>593.423814</ele>
        <time>2022-03-08T10:39:56.740Z</time>
      </trkpt>
      <trkpt lat="42.63126" lon="23.95974">
        <ele>593.699939</ele>
        <time>2022-03-08T10:40:02.736Z</time>
      </trkpt>
      <trkpt lat="42.63131" lon="23.95962">
        <ele>594.079384</ele>
        <time>2022-03-08T10:40:08.782Z</time>
      </trkpt>
      <trkpt lat="42.63137" lon="23.95952">
        <ele>594.463224</ele>
        <time>2022-03-08T10:40:13.740Z</time>
      </trkpt>
      <trkpt lat="42.63143" lon="23.95942">
        <ele>594.86001</ele>
        <time>2022-03-08T10:40:18.746Z</time>
      </trkpt>
      <trkpt lat="42.63149" lon="23.95932">
        <ele>595.249169</ele>
        <time>2022-03-08T10:40:23.730Z</time>
      </trkpt>
      <trkpt lat="42.63154" lon="23.95922">
        <ele>595.628096</ele>
        <time>2022-03-08T10:40:28.753Z</time>
      </trkpt>
      <trkpt lat="42.6316" lon="23.95911">
        <ele>596.046412</ele>
        <time>2022-03-08T10:40:34.757Z</time>
      </trkpt>
      <trkpt lat="42.63165" lon="23.959">
        <ele>596.428856</ele>
        <time>2022-03-08T10:40:39.734Z</time>
      </trkpt>
      <trkpt lat="42.63169" lon="23.95889">
        <ele>596.807973</ele>
        <time>2022-03-08T10:40:44.727Z</time>
      </trkpt>
      <trkpt lat="42.63174" lon="23.95879">
        <ele>597.188625</ele>
        <time>2022-03-08T10:40:49.746Z</time>
      </trkpt>
      <trkpt lat="42.63179" lon="23.95867">
        <ele>597.605167</ele>
        <time>2022-03-08T10:40:55.754Z</time>
      </trkpt>
      <trkpt lat="42.63184" lon="23.95855">
        <ele>598.021882</ele>
        <time>2022-03-08T10:41:01.745Z</time>
      </trkpt>
      <trkpt lat="42.6319" lon="23.95845">
        <ele>598.418071</ele>
        <time>2022-03-08T10:41:07.740Z</time>
      </trkpt>
      <trkpt lat="42.63195" lon="23.95833">
        <ele>598.848208</ele>
        <time>2022-03-08T10:41:14.752Z</time>
      </trkpt>
      <trkpt lat="42.632" lon="23.95823">
        <ele>599.224749</ele>
        <time>2022-03-08T10:41:20.739Z</time>
      </trkpt>
      <trkpt lat="42.63206" lon="23.95812">
        <ele>599.630992</ele>
        <time>2022-03-08T10:41:26.756Z</time>
      </trkpt>
      <trkpt lat="42.63213" lon="23.95801">
        <ele>600.071115</ele>
        <time>2022-03-08T10:41:32.751Z</time>
      </trkpt>
      <trkpt lat="42.63219" lon="23.95791">
        <ele>600.474678</ele>
        <time>2022-03-08T10:41:38.753Z</time>
      </trkpt>
      <trkpt lat="42.63224" lon="23.95779">
        <ele>600.890611</ele>
        <time>2022-03-08T10:41:45.764Z</time>
      </trkpt>
      <trkpt lat="42.6323" lon="23.95769">
        <ele>601.288489</ele>
        <time>2022-03-08T10:41:51.754Z</time>
      </trkpt>
      <trkpt lat="42.63236" lon="23.95758">
        <ele>601.889343</ele>
        <time>2022-03-08T10:41:57.752Z</time>
      </trkpt>
      <trkpt lat="42.6324" lon="23.95747">
        <ele>602.434235</ele>
        <time>2022-03-08T10:42:03.744Z</time>
      </trkpt>
      <trkpt lat="42.63245" lon="23.95736">
        <ele>603.015052</ele>
        <time>2022-03-08T10:42:09.735Z</time>
      </trkpt>
      <trkpt lat="42.6325" lon="23.95724">
        <ele>603.629032</ele>
        <time>2022-03-08T10:42:16.744Z</time>
      </trkpt>
      <trkpt lat="42.63256" lon="23.95715">
        <ele>604.174981</ele>
        <time>2022-03-08T10:42:22.721Z</time>
      </trkpt>
      <trkpt lat="42.63262" lon="23.95704">
        <ele>604.765227</ele>
        <time>2022-03-08T10:42:28.731Z</time>
      </trkpt>
      <trkpt lat="42.63268" lon="23.95693">
        <ele>605.380349</ele>
        <time>2022-03-08T10:42:34.744Z</time>
      </trkpt>
      <trkpt lat="42.63274" lon="23.95682">
        <ele>605.935351</ele>
        <time>2022-03-08T10:42:40.763Z</time>
      </trkpt>
      <trkpt lat="42.63278" lon="23.95671">
        <ele>606.49087</ele>
        <time>2022-03-08T10:42:46.797Z</time>
      </trkpt>
      <trkpt lat="42.63284" lon="23.9566">
        <ele>607.092574</ele>
        <time>2022-03-08T10:42:53.746Z</time>
      </trkpt>
      <trkpt lat="42.63288" lon="23.95649">
        <ele>607.641384</ele>
        <time>2022-03-08T10:42:59.755Z</time>
      </trkpt>
      <trkpt lat="42.63294" lon="23.95638">
        <ele>608.257453</ele>
        <time>2022-03-08T10:43:06.742Z</time>
      </trkpt>
      <trkpt lat="42.63299" lon="23.95626">
        <ele>608.825738</ele>
        <time>2022-03-08T10:43:12.744Z</time>
      </trkpt>
      <trkpt lat="42.63304" lon="23.95616">
        <ele>609.378278</ele>
        <time>2022-03-08T10:43:18.753Z</time>
      </trkpt>
      <trkpt lat="42.6331" lon="23.95606">
        <ele>609.966618</ele>
        <time>2022-03-08T10:43:24.760Z</time>
      </trkpt>
      <trkpt lat="42.63317" lon="23.95595">
        <ele>610.580083</ele>
        <time>2022-03-08T10:43:30.788Z</time>
      </trkpt>
      <trkpt lat="42.63323" lon="23.95585">
        <ele>611.163152</ele>
        <time>2022-03-08T10:43:36.754Z</time>
      </trkpt>
      <trkpt lat="42.63328" lon="23.95573">
        <ele>611.79036</ele>
        <time>2022-03-08T10:43:43.738Z</time>
      </trkpt>
      <trkpt lat="42.63334" lon="23.95562">
        <ele>612.170077</ele>
        <time>2022-03-08T10:43:49.753Z</time>
      </trkpt>
      <trkpt lat="42.63341" lon="23.95551">
        <ele>612.413795</ele>
        <time>2022-03-08T10:43:56.762Z</time>
      </trkpt>
      <trkpt lat="42.63347" lon="23.95541">
        <ele>612.64236</ele>
        <time>2022-03-08T10:44:02.744Z</time>
      </trkpt>
      <trkpt lat="42.63352" lon="23.9553">
        <ele>612.861577</ele>
        <time>2022-03-08T10:44:08.752Z</time>
      </trkpt>
      <trkpt lat="42.63358" lon="23.9552">
        <ele>613.071658</ele>
        <time>2022-03-08T10:44:14.745Z</time>
      </trkpt>
      <trkpt lat="42.63364" lon="23.95511">
        <ele>613.291688</ele>
        <time>2022-03-08T10:44:20.756Z</time>
      </trkpt>
      <trkpt lat="42.63372" lon="23.95503">
        <ele>613.518557</ele>
        <time>2022-03-08T10:44:26.758Z</time>
      </trkpt>
      <trkpt lat="42.6338" lon="23.95494">
        <ele>613.754019</ele>
        <time>2022-03-08T10:44:32.753Z</time>
      </trkpt>
      <trkpt lat="42.63387" lon="23.95485">
        <ele>613.963424</ele>
        <time>2022-03-08T10:44:37.755Z</time>
      </trkpt>
      <trkpt lat="42.63394" lon="23.95477">
        <ele>614.184297</ele>
        <time>2022-03-08T10:44:42.733Z</time>
      </trkpt>
      <trkpt lat="42.63403" lon="23.95469">
        <ele>614.42504</ele>
        <time>2022-03-08T10:44:48.751Z</time>
      </trkpt>
      <trkpt lat="42.6341" lon="23.95461">
        <ele>614.644885</ele>
        <time>2022-03-08T10:44:54.744Z</time>
      </trkpt>
      <trkpt lat="42.63419" lon="23.95453">
        <ele>614.887396</ele>
        <time>2022-03-08T10:45:01.755Z</time>
      </trkpt>
      <trkpt lat="42.63428" lon="23.95446">
        <ele>615.129591</ele>
        <time>2022-03-08T10:45:07.732Z</time>
      </trkpt>
      <trkpt lat="42.63437" lon="23.95439">
        <ele>615.365475</ele>
        <time>2022-03-08T10:45:13.735Z</time>
      </trkpt>
      <trkpt lat="42.63444" lon="23.95432">
        <ele>615.573604</ele>
        <time>2022-03-08T10:45:18.759Z</time>
      </trkpt>
      <trkpt lat="42.63454" lon="23.95426">
        <ele>615.813332</ele>
        <time>2022-03-08T10:45:24.738Z</time>
      </trkpt>
      <trkpt lat="42.63462" lon="23.95422">
        <ele>616.029792</ele>
        <time>2022-03-08T10:45:29.755Z</time>
      </trkpt>
      <trkpt lat="42.63471" lon="23.95416">
        <ele>616.216445</ele>
        <time>2022-03-08T10:45:34.762Z</time>
      </trkpt>
      <trkpt lat="42.63481" lon="23.95411">
        <ele>616.277715</ele>
        <time>2022-03-08T10:45:39.762Z</time>
      </trkpt>
      <trkpt lat="42.63489" lon="23.95404">
        <ele>616.335485</ele>
        <time>2022-03-08T10:45:44.735Z</time>
      </trkpt>
      <trkpt lat="42.63499" lon="23.95399">
        <ele>616.401057</ele>
        <time>2022-03-08T10:45:49.789Z</time>
      </trkpt>
      <trkpt lat="42.63509" lon="23.95395">
        <ele>616.463787</ele>
        <time>2022-03-08T10:45:54.744Z</time>
      </trkpt>
      <trkpt lat="42.63519" lon="23.95392">
        <ele>616.527111</ele>
        <time>2022-03-08T10:45:59.740Z</time>
      </trkpt>
      <trkpt lat="42.63529" lon="23.95387">
        <ele>616.590209</ele>
        <time>2022-03-08T10:46:04.749Z</time>
      </trkpt>
      <trkpt lat="42.63538" lon="23.95385">
        <ele>616.647586</ele>
        <time>2022-03-08T10:46:09.755Z</time>
      </trkpt>
      <trkpt lat="42.63548" lon="23.9538">
        <ele>616.714072</ele>
        <time>2022-03-08T10:46:14.749Z</time>
      </trkpt>
      <trkpt lat="42.63559" lon="23.95376">
        <ele>616.780436</ele>
        <time>2022-03-08T10:46:19.787Z</time>
      </trkpt>
      <trkpt lat="42.63569" lon="23.95372">
        <ele>616.846214</ele>
        <time>2022-03-08T10:46:24.721Z</time>
      </trkpt>
      <trkpt lat="42.63579" lon="23.95369">
        <ele>616.906117</ele>
        <time>2022-03-08T10:46:28.751Z</time>
      </trkpt>
      <trkpt lat="42.63589" lon="23.95365">
        <ele>616.96919</ele>
        <time>2022-03-08T10:46:32.746Z</time>
      </trkpt>
      <trkpt lat="42.63598" lon="23.95362">
        <ele>617.026746</ele>
        <time>2022-03-08T10:46:36.752Z</time>
      </trkpt>
      <trkpt lat="42.63607" lon="23.95358">
        <ele>617.086111</ele>
        <time>2022-03-08T10:46:40.756Z</time>
      </trkpt>
      <trkpt lat="42.63617" lon="23.95354">
        <ele>617.145309</ele>
        <time>2022-03-08T10:46:44.785Z</time>
      </trkpt>
      <trkpt lat="42.63626" lon="23.95351">
        <ele>617.204037</ele>
        <time>2022-03-08T10:46:48.759Z</time>
      </trkpt>
      <trkpt lat="42.63635" lon="23.95347">
        <ele>617.26081</ele>
        <time>2022-03-08T10:46:52.750Z</time>
      </trkpt>
      <trkpt lat="42.63645" lon="23.95342">
        <ele>617.360565</ele>
        <time>2022-03-08T10:46:57.735Z</time>
      </trkpt>
      <trkpt lat="42.63654" lon="23.95338">
        <ele>617.476521</ele>
        <time>2022-03-08T10:47:01.764Z</time>
      </trkpt>
      <trkpt lat="42.63663" lon="23.95334">
        <ele>617.595633</ele>
        <time>2022-03-08T10:47:05.752Z</time>
      </trkpt>
      <trkpt lat="42.63673" lon="23.95327">
        <ele>617.734922</ele>
        <time>2022-03-08T10:47:10.752Z</time>
      </trkpt>
      <trkpt lat="42.63682" lon="23.95321">
        <ele>617.85553</ele>
        <time>2022-03-08T10:47:14.743Z</time>
      </trkpt>
      <trkpt lat="42.63691" lon="23.95316">
        <ele>617.974997</ele>
        <time>2022-03-08T10:47:18.747Z</time>
      </trkpt>
      <trkpt lat="42.637" lon="23.95311">
        <ele>618.093759</ele>
        <time>2022-03-08T10:47:22.760Z</time>
      </trkpt>
      <trkpt lat="42.63708" lon="23.95305">
        <ele>618.210781</ele>
        <time>2022-03-08T10:47:26.738Z</time>
      </trkpt>
      <trkpt lat="42.63717" lon="23.95299">
        <ele>618.331502</ele>
        <time>2022-03-08T10:47:30.757Z</time>
      </trkpt>
      <trkpt lat="42.63725" lon="23.95293">
        <ele>618.446093</ele>
        <time>2022-03-08T10:47:34.786Z</time>
      </trkpt>
      <trkpt lat="42.63734" lon="23.95285">
        <ele>618.57258</ele>
        <time>2022-03-08T10:47:38.781Z</time>
      </trkpt>
      <trkpt lat="42.63742" lon="23.95279">
        <ele>618.685885</ele>
        <time>2022-03-08T10:47:42.754Z</time>
      </trkpt>
      <trkpt lat="42.6375" lon="23.95272">
        <ele>618.804255</ele>
        <time>2022-03-08T10:47:46.742Z</time>
      </trkpt>
      <trkpt lat="42.63758" lon="23.95264">
        <ele>618.927162</ele>
        <time>2022-03-08T10:47:50.760Z</time>
      </trkpt>
      <trkpt lat="42.63765" lon="23.95257">
        <ele>619.042451</ele>
        <time>2022-03-08T10:47:54.755Z</time>
      </trkpt>
      <trkpt lat="42.63773" lon="23.95248">
        <ele>619.162515</ele>
        <time>2022-03-08T10:47:58.747Z</time>
      </trkpt>
      <trkpt lat="42.6378" lon="23.95238">
        <ele>619.286892</ele>
        <time>2022-03-08T10:48:02.754Z</time>
      </trkpt>
      <trkpt lat="42.63787" lon="23.9523">
        <ele>619.406021</ele>
        <time>2022-03-08T10:48:06.736Z</time>
      </trkpt>
      <trkpt lat="42.63795" lon="23.95221">
        <ele>619.549904</ele>
        <time>2022-03-08T10:48:10.747Z</time>
      </trkpt>
      <trkpt lat="42.63802" lon="23.95213">
        <ele>619.960311</ele>
        <time>2022-03-08T10:48:14.753Z</time>
      </trkpt>
      <trkpt lat="42.63808" lon="23.95204">
        <ele>620.358481</ele>
        <time>2022-03-08T10:48:18.786Z</time>
      </trkpt>
      <trkpt lat="42.63815" lon="23.95193">
        <ele>620.826258</ele>
        <time>2022-03-08T10:48:23.749Z</time>
      </trkpt>
      <trkpt lat="42.63822" lon="23.95182">
        <ele>621.297431</ele>
        <time>2022-03-08T10:48:28.737Z</time>
      </trkpt>
      <trkpt lat="42.63827" lon="23.9517">
        <ele>621.75784</ele>
        <time>2022-03-08T10:48:33.754Z</time>
      </trkpt>
      <trkpt lat="42.63833" lon="23.95158">
        <ele>622.217604</ele>
        <time>2022-03-08T10:48:38.747Z</time>
      </trkpt>
      <trkpt lat="42.6384" lon="23.95147">
        <ele>622.680352</ele>
        <time>2022-03-08T10:48:43.741Z</time>
      </trkpt>
      <trkpt lat="42.63847" lon="23.95136">
        <ele>623.155818</ele>
        <time>2022-03-08T10:48:48.762Z</time>
      </trkpt>
      <trkpt lat="42.63852" lon="23.95123">
        <ele>623.627572</ele>
        <time>2022-03-08T10:48:53.736Z</time>
      </trkpt>
      <trkpt lat="42.63857" lon="23.95112">
        <ele>624.048452</ele>
        <time>2022-03-08T10:48:57.735Z</time>
      </trkpt>
      <trkpt lat="42.63862" lon="23.95101">
        <ele>624.464551</ele>
        <time>2022-03-08T10:49:01.759Z</time>
      </trkpt>
      <trkpt lat="42.63867" lon="23.95091">
        <ele>624.867368</ele>
        <time>2022-03-08T10:49:05.739Z</time>
      </trkpt>
      <trkpt lat="42.63872" lon="23.9508">
        <ele>625.276475</ele>
        <time>2022-03-08T10:49:09.754Z</time>
      </trkpt>
      <trkpt lat="42.63877" lon="23.95067">
        <ele>625.769942</ele>
        <time>2022-03-08T10:49:14.746Z</time>
      </trkpt>
      <trkpt lat="42.63882" lon="23.95056">
        <ele>626.177532</ele>
        <time>2022-03-08T10:49:18.752Z</time>
      </trkpt>
      <trkpt lat="42.63886" lon="23.95044">
        <ele>626.59493</ele>
        <time>2022-03-08T10:49:22.727Z</time>
      </trkpt>
      <trkpt lat="42.6389" lon="23.95034">
        <ele>626.995204</ele>
        <time>2022-03-08T10:49:26.771Z</time>
      </trkpt>
      <trkpt lat="42.63895" lon="23.95023">
        <ele>627.391283</ele>
        <time>2022-03-08T10:49:30.757Z</time>
      </trkpt>
      <trkpt lat="42.639" lon="23.95009">
        <ele>627.64433</ele>
        <time>2022-03-08T10:49:35.791Z</time>
      </trkpt>
      <trkpt lat="42.63905" lon="23.94996">
        <ele>627.874236</ele>
        <time>2022-03-08T10:49:40.778Z</time>
      </trkpt>
      <trkpt lat="42.6391" lon="23.94982">
        <ele>628.101721</ele>
        <time>2022-03-08T10:49:45.759Z</time>
      </trkpt>
      <trkpt lat="42.63914" lon="23.94971">
        <ele>628.297559</ele>
        <time>2022-03-08T10:49:49.756Z</time>
      </trkpt>
      <trkpt lat="42.63918" lon="23.9496">
        <ele>628.491399</ele>
        <time>2022-03-08T10:49:53.742Z</time>
      </trkpt>
      <trkpt lat="42.63924" lon="23.94947">
        <ele>628.714678</ele>
        <time>2022-03-08T10:49:58.758Z</time>
      </trkpt>
      <trkpt lat="42.63929" lon="23.94933">
        <ele>628.943078</ele>
        <time>2022-03-08T10:50:03.745Z</time>
      </trkpt>
      <trkpt lat="42.63933" lon="23.94922">
        <ele>629.129459</ele>
        <time>2022-03-08T10:50:07.764Z</time>
      </trkpt>
      <trkpt lat="42.63937" lon="23.94911">
        <ele>629.324</ele>
        <time>2022-03-08T10:50:11.769Z</time>
      </trkpt>
      <trkpt lat="42.63941" lon="23.94899">
        <ele>629.518963</ele>
        <time>2022-03-08T10:50:15.743Z</time>
      </trkpt>
      <trkpt lat="42.63945" lon="23.94887">
        <ele>629.714843</ele>
        <time>2022-03-08T10:50:19.743Z</time>
      </trkpt>
      <trkpt lat="42.63951" lon="23.94876">
        <ele>629.925936</ele>
        <time>2022-03-08T10:50:23.755Z</time>
      </trkpt>
      <trkpt lat="42.63956" lon="23.94863">
        <ele>630.149214</ele>
        <time>2022-03-08T10:50:27.751Z</time>
      </trkpt>
      <trkpt lat="42.63961" lon="23.94849">
        <ele>630.376461</ele>
        <time>2022-03-08T10:50:31.739Z</time>
      </trkpt>
      <trkpt lat="42.63968" lon="23.94836">
        <ele>630.616621</ele>
        <time>2022-03-08T10:50:35.788Z</time>
      </trkpt>
      <trkpt lat="42.63972" lon="23.94825">
        <ele>630.8125</ele>
        <time>2022-03-08T10:50:38.737Z</time>
      </trkpt>
      <trkpt lat="42.63977" lon="23.94814">
        <ele>630.998474</ele>
        <time>2022-03-08T10:50:41.753Z</time>
      </trkpt>
      <trkpt lat="42.63981" lon="23.94803">
        <ele>631.127279</ele>
        <time>2022-03-08T10:50:44.752Z</time>
      </trkpt>
      <trkpt lat="42.63986" lon="23.94792">
        <ele>631.090767</ele>
        <time>2022-03-08T10:50:47.784Z</time>
      </trkpt>
      <trkpt lat="42.63992" lon="23.9478">
        <ele>631.049497</ele>
        <time>2022-03-08T10:50:51.742Z</time>
      </trkpt>
      <trkpt lat="42.63998" lon="23.94765">
        <ele>631.00342</ele>
        <time>2022-03-08T10:50:55.738Z</time>
      </trkpt>
      <trkpt lat="42.64002" lon="23.94751">
        <ele>630.959714</ele>
        <time>2022-03-08T10:50:59.777Z</time>
      </trkpt>
      <trkpt lat="42.64008" lon="23.94737">
        <ele>630.914949</ele>
        <time>2022-03-08T10:51:03.786Z</time>
      </trkpt>
      <trkpt lat="42.64013" lon="23.94723">
        <ele>630.871524</ele>
        <time>2022-03-08T10:51:07.754Z</time>
      </trkpt>
      <trkpt lat="42.64018" lon="23.94709">
        <ele>630.827771</ele>
        <time>2022-03-08T10:51:11.749Z</time>
      </trkpt>
      <trkpt lat="42.64022" lon="23.94696">
        <ele>630.78679</ele>
        <time>2022-03-08T10:51:15.752Z</time>
      </trkpt>
      <trkpt lat="42.64028" lon="23.94683">
        <ele>630.743812</ele>
        <time>2022-03-08T10:51:19.756Z</time>
      </trkpt>
      <trkpt lat="42.64033" lon="23.94669">
        <ele>630.70046</ele>
        <time>2022-03-08T10:51:23.743Z</time>
      </trkpt>
      <trkpt lat="42.64039" lon="23.94657">
        <ele>630.657736</ele>
        <time>2022-03-08T10:51:27.755Z</time>
      </trkpt>
      <trkpt lat="42.64044" lon="23.94645">
        <ele>630.620973</ele>
        <time>2022-03-08T10:51:30.753Z</time>
      </trkpt>
      <trkpt lat="42.64049" lon="23.94635">
        <ele>630.586184</ele>
        <time>2022-03-08T10:51:33.748Z</time>
      </trkpt>
      <trkpt lat="42.64054" lon="23.94624">
        <ele>630.549761</ele>
        <time>2022-03-08T10:51:36.746Z</time>
      </trkpt>
      <trkpt lat="42.64059" lon="23.94612">
        <ele>630.51002</ele>
        <time>2022-03-08T10:51:40.747Z</time>
      </trkpt>
      <trkpt lat="42.64065" lon="23.946">
        <ele>630.470312</ele>
        <time>2022-03-08T10:51:44.755Z</time>
      </trkpt>
      <trkpt lat="42.64072" lon="23.94589">
        <ele>630.48268</ele>
        <time>2022-03-08T10:51:48.747Z</time>
      </trkpt>
      <trkpt lat="42.64079" lon="23.94578">
        <ele>630.553793</ele>
        <time>2022-03-08T10:51:52.756Z</time>
      </trkpt>
      <trkpt lat="42.64086" lon="23.94567">
        <ele>630.627176</ele>
        <time>2022-03-08T10:51:56.746Z</time>
      </trkpt>
      <trkpt lat="42.64093" lon="23.94555">
        <ele>630.702569</ele>
        <time>2022-03-08T10:52:00.736Z</time>
      </trkpt>
      <trkpt lat="42.64098" lon="23.94546">
        <ele>630.764518</ele>
        <time>2022-03-08T10:52:03.763Z</time>
      </trkpt>
      <trkpt lat="42.64106" lon="23.94534">
        <ele>630.843237</ele>
        <time>2022-03-08T10:52:07.739Z</time>
      </trkpt>
      <trkpt lat="42.64114" lon="23.94523">
        <ele>630.919442</ele>
        <time>2022-03-08T10:52:11.759Z</time>
      </trkpt>
      <trkpt lat="42.64121" lon="23.94513">
        <ele>630.991182</ele>
        <time>2022-03-08T10:52:15.743Z</time>
      </trkpt>
      <trkpt lat="42.64128" lon="23.94501">
        <ele>631.070559</ele>
        <time>2022-03-08T10:52:19.747Z</time>
      </trkpt>
      <trkpt lat="42.64136" lon="23.94489">
        <ele>631.151837</ele>
        <time>2022-03-08T10:52:23.745Z</time>
      </trkpt>
      <trkpt lat="42.64142" lon="23.9448">
        <ele>631.214086</ele>
        <time>2022-03-08T10:52:26.801Z</time>
      </trkpt>
      <trkpt lat="42.6415" lon="23.94469">
        <ele>631.291501</ele>
        <time>2022-03-08T10:52:30.783Z</time>
      </trkpt>
      <trkpt lat="42.64157" lon="23.94457">
        <ele>631.366971</ele>
        <time>2022-03-08T10:52:34.738Z</time>
      </trkpt>
      <trkpt lat="42.64164" lon="23.94446">
        <ele>631.442713</ele>
        <time>2022-03-08T10:52:38.738Z</time>
      </trkpt>
      <trkpt lat="42.64172" lon="23.94435">
        <ele>631.518547</ele>
        <time>2022-03-08T10:52:42.746Z</time>
      </trkpt>
      <trkpt lat="42.64179" lon="23.94424">
        <ele>631.595962</ele>
        <time>2022-03-08T10:52:46.745Z</time>
      </trkpt>
      <trkpt lat="42.64188" lon="23.94412">
        <ele>631.676345</ele>
        <time>2022-03-08T10:52:50.747Z</time>
      </trkpt>
      <trkpt lat="42.64195" lon="23.94402">
        <ele>631.851525</ele>
        <time>2022-03-08T10:52:54.732Z</time>
      </trkpt>
      <trkpt lat="42.64202" lon="23.94391">
        <ele>632.033546</ele>
        <time>2022-03-08T10:52:58.756Z</time>
      </trkpt>
      <trkpt lat="42.6421" lon="23.94379">
        <ele>632.230353</ele>
        <time>2022-03-08T10:53:02.749Z</time>
      </trkpt>
      <trkpt lat="42.64217" lon="23.94367">
        <ele>632.426217</ele>
        <time>2022-03-08T10:53:06.754Z</time>
      </trkpt>
      <trkpt lat="42.64224" lon="23.94355">
        <ele>632.627458</ele>
        <time>2022-03-08T10:53:10.755Z</time>
      </trkpt>
      <trkpt lat="42.6423" lon="23.94345">
        <ele>632.786052</ele>
        <time>2022-03-08T10:53:13.770Z</time>
      </trkpt>
      <trkpt lat="42.64237" lon="23.94335">
        <ele>632.958286</ele>
        <time>2022-03-08T10:53:16.772Z</time>
      </trkpt>
      <trkpt lat="42.64243" lon="23.94323">
        <ele>633.144155</ele>
        <time>2022-03-08T10:53:19.760Z</time>
      </trkpt>
      <trkpt lat="42.6425" lon="23.94312">
        <ele>633.323137</ele>
        <time>2022-03-08T10:53:22.744Z</time>
      </trkpt>
      <trkpt lat="42.64255" lon="23.94301">
        <ele>633.488835</ele>
        <time>2022-03-08T10:53:25.757Z</time>
      </trkpt>
      <trkpt lat="42.64261" lon="23.94288">
        <ele>633.679657</ele>
        <time>2022-03-08T10:53:29.758Z</time>
      </trkpt>
      <trkpt lat="42.64267" lon="23.94276">
        <ele>633.867603</ele>
        <time>2022-03-08T10:53:33.743Z</time>
      </trkpt>
      <trkpt lat="42.64273" lon="23.94264">
        <ele>634.03978</ele>
        <time>2022-03-08T10:53:37.781Z</time>
      </trkpt>
      <trkpt lat="42.64278" lon="23.94254">
        <ele>634.201319</ele>
        <time>2022-03-08T10:53:41.739Z</time>
      </trkpt>
      <trkpt lat="42.64283" lon="23.94242">
        <ele>634.365625</ele>
        <time>2022-03-08T10:53:45.766Z</time>
      </trkpt>
      <trkpt lat="42.6429" lon="23.9423">
        <ele>634.561856</ele>
        <time>2022-03-08T10:53:49.745Z</time>
      </trkpt>
      <trkpt lat="42.64296" lon="23.9422">
        <ele>634.73459</ele>
        <time>2022-03-08T10:53:52.758Z</time>
      </trkpt>
      <trkpt lat="42.64302" lon="23.94208">
        <ele>634.670558</ele>
        <time>2022-03-08T10:53:55.752Z</time>
      </trkpt>
      <trkpt lat="42.64307" lon="23.94196">
        <ele>634.548448</ele>
        <time>2022-03-08T10:53:58.749Z</time>
      </trkpt>
      <trkpt lat="42.64313" lon="23.94184">
        <ele>634.426104</ele>
        <time>2022-03-08T10:54:01.744Z</time>
      </trkpt>
      <trkpt lat="42.64319" lon="23.94172">
        <ele>634.298691</ele>
        <time>2022-03-08T10:54:04.761Z</time>
      </trkpt>
      <trkpt lat="42.64324" lon="23.94159">
        <ele>634.173228</ele>
        <time>2022-03-08T10:54:07.744Z</time>
      </trkpt>
      <trkpt lat="42.6433" lon="23.94146">
        <ele>634.042706</ele>
        <time>2022-03-08T10:54:10.760Z</time>
      </trkpt>
      <trkpt lat="42.64336" lon="23.94133">
        <ele>633.913402</ele>
        <time>2022-03-08T10:54:13.752Z</time>
      </trkpt>
      <trkpt lat="42.64341" lon="23.94121">
        <ele>633.787644</ele>
        <time>2022-03-08T10:54:16.778Z</time>
      </trkpt>
      <trkpt lat="42.64347" lon="23.94108">
        <ele>633.660271</ele>
        <time>2022-03-08T10:54:19.756Z</time>
      </trkpt>
      <trkpt lat="42.64353" lon="23.94095">
        <ele>633.534732</ele>
        <time>2022-03-08T10:54:22.764Z</time>
      </trkpt>
      <trkpt lat="42.64359" lon="23.94083">
        <ele>633.408559</ele>
        <time>2022-03-08T10:54:25.756Z</time>
      </trkpt>
      <trkpt lat="42.64365" lon="23.94071">
        <ele>633.279104</ele>
        <time>2022-03-08T10:54:28.753Z</time>
      </trkpt>
      <trkpt lat="42.64372" lon="23.94058">
        <ele>633.144117</ele>
        <time>2022-03-08T10:54:31.781Z</time>
      </trkpt>
      <trkpt lat="42.64379" lon="23.94045">
        <ele>633.00084</ele>
        <time>2022-03-08T10:54:34.753Z</time>
      </trkpt>
      <trkpt lat="42.64386" lon="23.94031">
        <ele>632.860332</ele>
        <time>2022-03-08T10:54:37.742Z</time>
      </trkpt>
      <trkpt lat="42.64393" lon="23.94019">
        <ele>632.72536</ele>
        <time>2022-03-08T10:54:40.752Z</time>
      </trkpt>
      <trkpt lat="42.644" lon="23.94007">
        <ele>632.527005</ele>
        <time>2022-03-08T10:54:43.729Z</time>
      </trkpt>
      <trkpt lat="42.64408" lon="23.93995">
        <ele>632.261269</ele>
        <time>2022-03-08T10:54:46.746Z</time>
      </trkpt>
      <trkpt lat="42.64416" lon="23.93983">
        <ele>631.990962</ele>
        <time>2022-03-08T10:54:49.752Z</time>
      </trkpt>
      <trkpt lat="42.64424" lon="23.93972">
        <ele>631.725512</ele>
        <time>2022-03-08T10:54:52.756Z</time>
      </trkpt>
      <trkpt lat="42.64432" lon="23.93961">
        <ele>631.469206</ele>
        <time>2022-03-08T10:54:55.782Z</time>
      </trkpt>
      <trkpt lat="42.6444" lon="23.9395">
        <ele>631.213275</ele>
        <time>2022-03-08T10:54:58.743Z</time>
      </trkpt>
      <trkpt lat="42.64448" lon="23.93938">
        <ele>630.954572</ele>
        <time>2022-03-08T10:55:01.752Z</time>
      </trkpt>
      <trkpt lat="42.64456" lon="23.93928">
        <ele>630.701531</ele>
        <time>2022-03-08T10:55:04.757Z</time>
      </trkpt>
      <trkpt lat="42.64465" lon="23.93918">
        <ele>630.43725</ele>
        <time>2022-03-08T10:55:07.750Z</time>
      </trkpt>
      <trkpt lat="42.64473" lon="23.93907">
        <ele>630.175819</ele>
        <time>2022-03-08T10:55:10.752Z</time>
      </trkpt>
      <trkpt lat="42.64482" lon="23.93896">
        <ele>629.907978</ele>
        <time>2022-03-08T10:55:13.751Z</time>
      </trkpt>
      <trkpt lat="42.6449" lon="23.93884">
        <ele>629.640111</ele>
        <time>2022-03-08T10:55:16.751Z</time>
      </trkpt>
      <trkpt lat="42.64498" lon="23.93873">
        <ele>629.373877</ele>
        <time>2022-03-08T10:55:19.734Z</time>
      </trkpt>
      <trkpt lat="42.64507" lon="23.93862">
        <ele>629.106247</ele>
        <time>2022-03-08T10:55:22.784Z</time>
      </trkpt>
      <trkpt lat="42.64515" lon="23.9385">
        <ele>628.834005</ele>
        <time>2022-03-08T10:55:25.786Z</time>
      </trkpt>
      <trkpt lat="42.64524" lon="23.93839">
        <ele>628.576341</ele>
        <time>2022-03-08T10:55:28.787Z</time>
      </trkpt>
      <trkpt lat="42.64532" lon="23.93828">
        <ele>628.383423</ele>
        <time>2022-03-08T10:55:31.769Z</time>
      </trkpt>
      <trkpt lat="42.64539" lon="23.93815">
        <ele>628.185911</ele>
        <time>2022-03-08T10:55:34.744Z</time>
      </trkpt>
      <trkpt lat="42.64547" lon="23.93803">
        <ele>627.99198</ele>
        <time>2022-03-08T10:55:37.752Z</time>
      </trkpt>
      <trkpt lat="42.64555" lon="23.9379">
        <ele>627.798049</ele>
        <time>2022-03-08T10:55:40.760Z</time>
      </trkpt>
      <trkpt lat="42.64561" lon="23.93777">
        <ele>627.608439</ele>
        <time>2022-03-08T10:55:43.758Z</time>
      </trkpt>
      <trkpt lat="42.64568" lon="23.93763">
        <ele>627.405183</ele>
        <time>2022-03-08T10:55:46.748Z</time>
      </trkpt>
      <trkpt lat="42.64575" lon="23.9375">
        <ele>627.201992</ele>
        <time>2022-03-08T10:55:49.824Z</time>
      </trkpt>
      <trkpt lat="42.64582" lon="23.93735">
        <ele>626.991452</ele>
        <time>2022-03-08T10:55:52.737Z</time>
      </trkpt>
      <trkpt lat="42.64587" lon="23.93724">
        <ele>626.845312</ele>
        <time>2022-03-08T10:55:54.757Z</time>
      </trkpt>
      <trkpt lat="42.64591" lon="23.93712">
        <ele>626.691079</ele>
        <time>2022-03-08T10:55:56.736Z</time>
      </trkpt>
      <trkpt lat="42.64594" lon="23.93701">
        <ele>626.540537</ele>
        <time>2022-03-08T10:55:58.756Z</time>
      </trkpt>
      <trkpt lat="42.64598" lon="23.93689">
        <ele>626.392214</ele>
        <time>2022-03-08T10:56:00.794Z</time>
      </trkpt>
      <trkpt lat="42.64601" lon="23.93678">
        <ele>626.237982</ele>
        <time>2022-03-08T10:56:02.742Z</time>
      </trkpt>
      <trkpt lat="42.64605" lon="23.93666">
        <ele>626.080012</ele>
        <time>2022-03-08T10:56:04.759Z</time>
      </trkpt>
      <trkpt lat="42.6461" lon="23.93654">
        <ele>625.927253</ele>
        <time>2022-03-08T10:56:06.751Z</time>
      </trkpt>
      <trkpt lat="42.64613" lon="23.93642">
        <ele>625.771025</ele>
        <time>2022-03-08T10:56:08.747Z</time>
      </trkpt>
      <trkpt lat="42.64617" lon="23.9363">
        <ele>625.651759</ele>
        <time>2022-03-08T10:56:10.745Z</time>
      </trkpt>
      <trkpt lat="42.6462" lon="23.93618">
        <ele>625.644882</ele>
        <time>2022-03-08T10:56:12.746Z</time>
      </trkpt>
      <trkpt lat="42.64624" lon="23.936">
        <ele>625.634998</ele>
        <time>2022-03-08T10:56:15.748Z</time>
      </trkpt>
      <trkpt lat="42.64628" lon="23.93588">
        <ele>625.627798</ele>
        <time>2022-03-08T10:56:17.790Z</time>
      </trkpt>
      <trkpt lat="42.64631" lon="23.93575">
        <ele>625.620624</ele>
        <time>2022-03-08T10:56:19.754Z</time>
      </trkpt>
      <trkpt lat="42.64635" lon="23.93563">
        <ele>625.613857</ele>
        <time>2022-03-08T10:56:21.748Z</time>
      </trkpt>
      <trkpt lat="42.64638" lon="23.93552">
        <ele>625.607251</ele>
        <time>2022-03-08T10:56:23.738Z</time>
      </trkpt>
      <trkpt lat="42.64642" lon="23.93539">
        <ele>625.600299</ele>
        <time>2022-03-08T10:56:25.753Z</time>
      </trkpt>
      <trkpt lat="42.64645" lon="23.93527">
        <ele>625.593497</ele>
        <time>2022-03-08T10:56:27.759Z</time>
      </trkpt>
      <trkpt lat="42.64648" lon="23.93515">
        <ele>625.586815</ele>
        <time>2022-03-08T10:56:29.741Z</time>
      </trkpt>
      <trkpt lat="42.64652" lon="23.93503">
        <ele>625.579988</ele>
        <time>2022-03-08T10:56:31.736Z</time>
      </trkpt>
      <trkpt lat="42.64655" lon="23.93491">
        <ele>625.572959</ele>
        <time>2022-03-08T10:56:33.734Z</time>
      </trkpt>
      <trkpt lat="42.64659" lon="23.93479">
        <ele>625.566018</ele>
        <time>2022-03-08T10:56:35.744Z</time>
      </trkpt>
      <trkpt lat="42.64663" lon="23.93467">
        <ele>625.559145</ele>
        <time>2022-03-08T10:56:37.756Z</time>
      </trkpt>
      <trkpt lat="42.64667" lon="23.93455">
        <ele>625.552175</ele>
        <time>2022-03-08T10:56:39.745Z</time>
      </trkpt>
      <trkpt lat="42.6467" lon="23.93443">
        <ele>625.545291</ele>
        <time>2022-03-08T10:56:41.735Z</time>
      </trkpt>
      <trkpt lat="42.64674" lon="23.93431">
        <ele>625.53831</ele>
        <time>2022-03-08T10:56:43.727Z</time>
      </trkpt>
      <trkpt lat="42.64677" lon="23.93419">
        <ele>625.531631</ele>
        <time>2022-03-08T10:56:45.792Z</time>
      </trkpt>
      <trkpt lat="42.6468" lon="23.93407">
        <ele>625.524912</ele>
        <time>2022-03-08T10:56:47.766Z</time>
      </trkpt>
      <trkpt lat="42.64684" lon="23.93393">
        <ele>625.405225</ele>
        <time>2022-03-08T10:56:49.753Z</time>
      </trkpt>
      <trkpt lat="42.64688" lon="23.9338">
        <ele>625.264397</ele>
        <time>2022-03-08T10:56:51.740Z</time>
      </trkpt>
      <trkpt lat="42.64694" lon="23.93367">
        <ele>625.121312</ele>
        <time>2022-03-08T10:56:53.767Z</time>
      </trkpt>
      <trkpt lat="42.64701" lon="23.93353">
        <ele>624.969803</ele>
        <time>2022-03-08T10:56:55.759Z</time>
      </trkpt>
      <trkpt lat="42.64706" lon="23.9334">
        <ele>624.820342</ele>
        <time>2022-03-08T10:56:57.753Z</time>
      </trkpt>
      <trkpt lat="42.64713" lon="23.93326">
        <ele>624.662079</ele>
        <time>2022-03-08T10:56:59.734Z</time>
      </trkpt>
      <trkpt lat="42.64721" lon="23.93312">
        <ele>624.504587</ele>
        <time>2022-03-08T10:57:01.743Z</time>
      </trkpt>
      <trkpt lat="42.64728" lon="23.93299">
        <ele>624.347835</ele>
        <time>2022-03-08T10:57:03.750Z</time>
      </trkpt>
      <trkpt lat="42.64735" lon="23.93286">
        <ele>624.194169</ele>
        <time>2022-03-08T10:57:05.763Z</time>
      </trkpt>
      <trkpt lat="42.64741" lon="23.93273">
        <ele>624.048094</ele>
        <time>2022-03-08T10:57:07.773Z</time>
      </trkpt>
      <trkpt lat="42.64748" lon="23.9326">
        <ele>623.896642</ele>
        <time>2022-03-08T10:57:09.755Z</time>
      </trkpt>
      <trkpt lat="42.64755" lon="23.93247">
        <ele>623.74825</ele>
        <time>2022-03-08T10:57:11.744Z</time>
      </trkpt>
      <trkpt lat="42.64761" lon="23.93235">
        <ele>623.60292</ele>
        <time>2022-03-08T10:57:13.752Z</time>
      </trkpt>
      <trkpt lat="42.64768" lon="23.93224">
        <ele>623.4695</ele>
        <time>2022-03-08T10:57:15.749Z</time>
      </trkpt>
      <trkpt lat="42.64775" lon="23.93213">
        <ele>623.33463</ele>
        <time>2022-03-08T10:57:17.733Z</time>
      </trkpt>
      <trkpt lat="42.64781" lon="23.93202">
        <ele>623.215513</ele>
        <time>2022-03-08T10:57:19.749Z</time>
      </trkpt>
      <trkpt lat="42.64787" lon="23.93191">
        <ele>623.224269</ele>
        <time>2022-03-08T10:57:21.758Z</time>
      </trkpt>
      <trkpt lat="42.64792" lon="23.9318">
        <ele>623.23316</ele>
        <time>2022-03-08T10:57:23.743Z</time>
      </trkpt>
      <trkpt lat="42.64796" lon="23.9317">
        <ele>623.241732</ele>
        <time>2022-03-08T10:57:25.746Z</time>
      </trkpt>
      <trkpt lat="42.64804" lon="23.93156">
        <ele>623.253178</ele>
        <time>2022-03-08T10:57:28.753Z</time>
      </trkpt>
      <trkpt lat="42.64811" lon="23.93141">
        <ele>623.265289</ele>
        <time>2022-03-08T10:57:31.760Z</time>
      </trkpt>
      <trkpt lat="42.64818" lon="23.93127">
        <ele>623.277015</ele>
        <time>2022-03-08T10:57:34.742Z</time>
      </trkpt>
      <trkpt lat="42.64825" lon="23.93112">
        <ele>623.289171</ele>
        <time>2022-03-08T10:57:37.786Z</time>
      </trkpt>
      <trkpt lat="42.64832" lon="23.93097">
        <ele>623.301151</ele>
        <time>2022-03-08T10:57:40.765Z</time>
      </trkpt>
      <trkpt lat="42.64837" lon="23.93082">
        <ele>623.31226</ele>
        <time>2022-03-08T10:57:43.763Z</time>
      </trkpt>
      <trkpt lat="42.64842" lon="23.93068">
        <ele>623.323087</ele>
        <time>2022-03-08T10:57:46.767Z</time>
      </trkpt>
      <trkpt lat="42.64846" lon="23.93053">
        <ele>623.33348</ele>
        <time>2022-03-08T10:57:49.760Z</time>
      </trkpt>
      <trkpt lat="42.64851" lon="23.9304">
        <ele>623.34375</ele>
        <time>2022-03-08T10:57:52.775Z</time>
      </trkpt>
      <trkpt lat="42.64855" lon="23.93026">
        <ele>623.353521</ele>
        <time>2022-03-08T10:57:55.764Z</time>
      </trkpt>
      <trkpt lat="42.64859" lon="23.93014">
        <ele>623.362751</ele>
        <time>2022-03-08T10:57:58.743Z</time>
      </trkpt>
      <trkpt lat="42.64864" lon="23.93002">
        <ele>623.371808</ele>
        <time>2022-03-08T10:58:01.766Z</time>
      </trkpt>
      <trkpt lat="42.64868" lon="23.9299">
        <ele>623.38248</ele>
        <time>2022-03-08T10:58:04.743Z</time>
      </trkpt>
      <trkpt lat="42.64872" lon="23.92978">
        <ele>623.552139</ele>
        <time>2022-03-08T10:58:07.736Z</time>
      </trkpt>
      <trkpt lat="42.64876" lon="23.92966">
        <ele>623.723174</ele>
        <time>2022-03-08T10:58:10.761Z</time>
      </trkpt>
      <trkpt lat="42.64881" lon="23.92955">
        <ele>623.896274</ele>
        <time>2022-03-08T10:58:13.745Z</time>
      </trkpt>
      <trkpt lat="42.64886" lon="23.92943">
        <ele>624.073668</ele>
        <time>2022-03-08T10:58:16.746Z</time>
      </trkpt>
      <trkpt lat="42.64891" lon="23.9293">
        <ele>624.263091</ele>
        <time>2022-03-08T10:58:19.753Z</time>
      </trkpt>
      <trkpt lat="42.64895" lon="23.92918">
        <ele>624.44528</ele>
        <time>2022-03-08T10:58:22.754Z</time>
      </trkpt>
      <trkpt lat="42.64899" lon="23.92905">
        <ele>624.627119</ele>
        <time>2022-03-08T10:58:25.772Z</time>
      </trkpt>
      <trkpt lat="42.64904" lon="23.92894">
        <ele>624.793243</ele>
        <time>2022-03-08T10:58:28.751Z</time>
      </trkpt>
      <trkpt lat="42.64907" lon="23.92883">
        <ele>624.953102</ele>
        <time>2022-03-08T10:58:31.772Z</time>
      </trkpt>
      <trkpt lat="42.64912" lon="23.92872">
        <ele>625.120772</ele>
        <time>2022-03-08T10:58:34.733Z</time>
      </trkpt>
      <trkpt lat="42.64917" lon="23.92861">
        <ele>625.285549</ele>
        <time>2022-03-08T10:58:37.778Z</time>
      </trkpt>
      <trkpt lat="42.64922" lon="23.9285">
        <ele>625.453902</ele>
        <time>2022-03-08T10:58:40.767Z</time>
      </trkpt>
      <trkpt lat="42.64927" lon="23.92838">
        <ele>625.63082</ele>
        <time>2022-03-08T10:58:43.737Z</time>
      </trkpt>
      <trkpt lat="42.64931" lon="23.92827">
        <ele>625.791859</ele>
        <time>2022-03-08T10:58:46.755Z</time>
      </trkpt>
      <trkpt lat="42.64935" lon="23.92816">
        <ele>625.956092</ele>
        <time>2022-03-08T10:58:49.785Z</time>
      </trkpt>
      <trkpt lat="42.64939" lon="23.92805">
        <ele>626.120604</ele>
        <time>2022-03-08T10:58:52.734Z</time>
      </trkpt>
      <trkpt lat="42.64944" lon="23.92794">
        <ele>626.28561</ele>
        <time>2022-03-08T10:58:55.774Z</time>
      </trkpt>
      <trkpt lat="42.64949" lon="23.92784">
        <ele>626.447856</ele>
        <time>2022-03-08T10:58:58.767Z</time>
      </trkpt>
      <trkpt lat="42.64953" lon="23.92773">
        <ele>626.606091</ele>
        <time>2022-03-08T10:59:01.735Z</time>
      </trkpt>
      <trkpt lat="42.64957" lon="23.92762">
        <ele>626.752958</ele>
        <time>2022-03-08T10:59:04.743Z</time>
      </trkpt>
      <trkpt lat="42.64962" lon="23.92751">
        <ele>626.900023</ele>
        <time>2022-03-08T10:59:07.760Z</time>
      </trkpt>
      <trkpt lat="42.64966" lon="23.9274">
        <ele>627.047781</ele>
        <time>2022-03-08T10:59:10.744Z</time>
      </trkpt>
      <trkpt lat="42.64971" lon="23.9273">
        <ele>627.193607</ele>
        <time>2022-03-08T10:59:13.755Z</time>
      </trkpt>
      <trkpt lat="42.64977" lon="23.92716">
        <ele>627.386291</ele>
        <time>2022-03-08T10:59:17.771Z</time>
      </trkpt>
      <trkpt lat="42.64983" lon="23.92706">
        <ele>627.532914</ele>
        <time>2022-03-08T10:59:20.780Z</time>
      </trkpt>
      <trkpt lat="42.6499" lon="23.92693">
        <ele>627.727446</ele>
        <time>2022-03-08T10:59:24.763Z</time>
      </trkpt>
      <trkpt lat="42.64996" lon="23.9268">
        <ele>627.910758</ele>
        <time>2022-03-08T10:59:28.771Z</time>
      </trkpt>
      <trkpt lat="42.65003" lon="23.92669">
        <ele>628.080781</ele>
        <time>2022-03-08T10:59:32.742Z</time>
      </trkpt>
      <trkpt lat="42.6501" lon="23.92658">
        <ele>628.252758</ele>
        <time>2022-03-08T10:59:36.743Z</time>
      </trkpt>
      <trkpt lat="42.65017" lon="23.92648">
        <ele>628.421336</ele>
        <time>2022-03-08T10:59:40.745Z</time>
      </trkpt>
      <trkpt lat="42.65024" lon="23.92637">
        <ele>628.592103</ele>
        <time>2022-03-08T10:59:44.761Z</time>
      </trkpt>
      <trkpt lat="42.65033" lon="23.92627">
        <ele>628.7759</ele>
        <time>2022-03-08T10:59:48.787Z</time>
      </trkpt>
      <trkpt lat="42.65041" lon="23.9262">
        <ele>628.933072</ele>
        <time>2022-03-08T10:59:52.752Z</time>
      </trkpt>
      <trkpt lat="42.65049" lon="23.92613">
        <ele>629.087988</ele>
        <time>2022-03-08T10:59:56.733Z</time>
      </trkpt>
      <trkpt lat="42.65058" lon="23.92607">
        <ele>629.259642</ele>
        <time>2022-03-08T11:00:00.743Z</time>
      </trkpt>
      <trkpt lat="42.65067" lon="23.926">
        <ele>629.427338</ele>
        <time>2022-03-08T11:00:04.758Z</time>
      </trkpt>
      <trkpt lat="42.65074" lon="23.92591">
        <ele>629.474664</ele>
        <time>2022-03-08T11:00:07.755Z</time>
      </trkpt>
      <trkpt lat="42.65081" lon="23.92583">
        <ele>629.444734</ele>
        <time>2022-03-08T11:00:10.743Z</time>
      </trkpt>
      <trkpt lat="42.65088" lon="23.92574">
        <ele>629.414729</ele>
        <time>2022-03-08T11:00:13.747Z</time>
      </trkpt>
      <trkpt lat="42.65096" lon="23.92564">
        <ele>629.378244</ele>
        <time>2022-03-08T11:00:17.751Z</time>
      </trkpt>
      <trkpt lat="42.65103" lon="23.92554">
        <ele>629.346181</ele>
        <time>2022-03-08T11:00:21.753Z</time>
      </trkpt>
      <trkpt lat="42.6511" lon="23.92544">
        <ele>629.313326</ele>
        <time>2022-03-08T11:00:25.760Z</time>
      </trkpt>
      <trkpt lat="42.65117" lon="23.92534">
        <ele>629.280919</ele>
        <time>2022-03-08T11:00:29.750Z</time>
      </trkpt>
      <trkpt lat="42.65124" lon="23.92524">
        <ele>629.247155</ele>
        <time>2022-03-08T11:00:33.758Z</time>
      </trkpt>
      <trkpt lat="42.6513" lon="23.92511">
        <ele>629.21149</ele>
        <time>2022-03-08T11:00:37.745Z</time>
      </trkpt>
      <trkpt lat="42.65135" lon="23.92498">
        <ele>629.175933</ele>
        <time>2022-03-08T11:00:41.767Z</time>
      </trkpt>
      <trkpt lat="42.6514" lon="23.92485">
        <ele>629.141794</ele>
        <time>2022-03-08T11:00:45.742Z</time>
      </trkpt>
      <trkpt lat="42.65144" lon="23.92473">
        <ele>629.109509</ele>
        <time>2022-03-08T11:00:49.747Z</time>
      </trkpt>
      <trkpt lat="42.65149" lon="23.9246">
        <ele>629.07509</ele>
        <time>2022-03-08T11:00:53.761Z</time>
      </trkpt>
      <trkpt lat="42.65153" lon="23.92446">
        <ele>629.038479</ele>
        <time>2022-03-08T11:00:57.747Z</time>
      </trkpt>
      <trkpt lat="42.65156" lon="23.9243">
        <ele>629.001</ele>
        <time>2022-03-08T11:01:01.757Z</time>
      </trkpt>
      <trkpt lat="42.65159" lon="23.92417">
        <ele>628.966715</ele>
        <time>2022-03-08T11:01:05.758Z</time>
      </trkpt>
      <trkpt lat="42.65163" lon="23.92404">
        <ele>628.933814</ele>
        <time>2022-03-08T11:01:09.753Z</time>
      </trkpt>
      <trkpt lat="42.65165" lon="23.92389">
        <ele>629.054584</ele>
        <time>2022-03-08T11:01:13.757Z</time>
      </trkpt>
      <trkpt lat="42.65167" lon="23.92375">
        <ele>629.506269</ele>
        <time>2022-03-08T11:01:17.745Z</time>
      </trkpt>
      <trkpt lat="42.65169" lon="23.92361">
        <ele>629.949149</ele>
        <time>2022-03-08T11:01:21.759Z</time>
      </trkpt>
      <trkpt lat="42.6517" lon="23.92346">
        <ele>630.433636</ele>
        <time>2022-03-08T11:01:25.753Z</time>
      </trkpt>
      <trkpt lat="42.65172" lon="23.92331">
        <ele>630.928481</ele>
        <time>2022-03-08T11:01:29.799Z</time>
      </trkpt>
      <trkpt lat="42.65175" lon="23.92316">
        <ele>631.417989</ele>
        <time>2022-03-08T11:01:33.748Z</time>
      </trkpt>
      <trkpt lat="42.65178" lon="23.92302">
        <ele>631.867625</ele>
        <time>2022-03-08T11:01:37.751Z</time>
      </trkpt>
      <trkpt lat="42.65181" lon="23.92289">
        <ele>632.308008</ele>
        <time>2022-03-08T11:01:41.752Z</time>
      </trkpt>
      <trkpt lat="42.65184" lon="23.92275">
        <ele>632.764135</ele>
        <time>2022-03-08T11:01:45.757Z</time>
      </trkpt>
      <trkpt lat="42.65188" lon="23.92263">
        <ele>633.173536</ele>
        <time>2022-03-08T11:01:49.768Z</time>
      </trkpt>
      <trkpt lat="42.65192" lon="23.9225">
        <ele>633.625939</ele>
        <time>2022-03-08T11:01:53.745Z</time>
      </trkpt>
      <trkpt lat="42.65197" lon="23.92236">
        <ele>634.097139</ele>
        <time>2022-03-08T11:01:57.774Z</time>
      </trkpt>
      <trkpt lat="42.65202" lon="23.92223">
        <ele>634.575884</ele>
        <time>2022-03-08T11:02:01.767Z</time>
      </trkpt>
      <trkpt lat="42.65207" lon="23.92209">
        <ele>635.046199</ele>
        <time>2022-03-08T11:02:05.751Z</time>
      </trkpt>
      <trkpt lat="42.65211" lon="23.92197">
        <ele>635.476638</ele>
        <time>2022-03-08T11:02:09.749Z</time>
      </trkpt>
      <trkpt lat="42.65214" lon="23.92183">
        <ele>635.921589</ele>
        <time>2022-03-08T11:02:13.727Z</time>
      </trkpt>
      <trkpt lat="42.65218" lon="23.92171">
        <ele>636.346799</ele>
        <time>2022-03-08T11:02:17.755Z</time>
      </trkpt>
      <trkpt lat="42.65222" lon="23.92158">
        <ele>636.752651</ele>
        <time>2022-03-08T11:02:21.746Z</time>
      </trkpt>
      <trkpt lat="42.65226" lon="23.92146">
        <ele>637.109873</ele>
        <time>2022-03-08T11:02:25.756Z</time>
      </trkpt>
      <trkpt lat="42.6523" lon="23.92132">
        <ele>637.490039</ele>
        <time>2022-03-08T11:02:29.776Z</time>
      </trkpt>
      <trkpt lat="42.65235" lon="23.92119">
        <ele>637.864661</ele>
        <time>2022-03-08T11:02:33.747Z</time>
      </trkpt>
      <trkpt lat="42.65239" lon="23.92106">
        <ele>638.233305</ele>
        <time>2022-03-08T11:02:37.758Z</time>
      </trkpt>
      <trkpt lat="42.65243" lon="23.92095">
        <ele>638.579768</ele>
        <time>2022-03-08T11:02:41.779Z</time>
      </trkpt>
      <trkpt lat="42.65248" lon="23.92082">
        <ele>638.948946</ele>
        <time>2022-03-08T11:02:45.760Z</time>
      </trkpt>
      <trkpt lat="42.65252" lon="23.92069">
        <ele>639.325783</ele>
        <time>2022-03-08T11:02:49.755Z</time>
      </trkpt>
      <trkpt lat="42.65256" lon="23.92056">
        <ele>639.677777</ele>
        <time>2022-03-08T11:02:53.742Z</time>
      </trkpt>
      <trkpt lat="42.6526" lon="23.92044">
        <ele>640.032591</ele>
        <time>2022-03-08T11:02:57.802Z</time>
      </trkpt>
      <trkpt lat="42.65266" lon="23.92031">
        <ele>640.427679</ele>
        <time>2022-03-08T11:03:02.740Z</time>
      </trkpt>
      <trkpt lat="42.65271" lon="23.9202">
        <ele>640.758943</ele>
        <time>2022-03-08T11:03:06.767Z</time>
      </trkpt>
      <trkpt lat="42.65277" lon="23.9201">
        <ele>641.115067</ele>
        <time>2022-03-08T11:03:10.742Z</time>
      </trkpt>
      <trkpt lat="42.65284" lon="23.92">
        <ele>641.457121</ele>
        <time>2022-03-08T11:03:14.762Z</time>
      </trkpt>
      <trkpt lat="42.65291" lon="23.91991">
        <ele>641.792468</ele>
        <time>2022-03-08T11:03:18.755Z</time>
      </trkpt>
      <trkpt lat="42.65298" lon="23.91984">
        <ele>642.118427</ele>
        <time>2022-03-08T11:03:22.745Z</time>
      </trkpt>
      <trkpt lat="42.65305" lon="23.91974">
        <ele>642.491641</ele>
        <time>2022-03-08T11:03:27.780Z</time>
      </trkpt>
      <trkpt lat="42.65314" lon="23.91965">
        <ele>642.875632</ele>
        <time>2022-03-08T11:03:32.758Z</time>
      </trkpt>
      <trkpt lat="42.65322" lon="23.91958">
        <ele>642.979085</ele>
        <time>2022-03-08T11:03:37.799Z</time>
      </trkpt>
      <trkpt lat="42.65331" lon="23.91951">
        <ele>642.943538</ele>
        <time>2022-03-08T11:03:42.737Z</time>
      </trkpt>
      <trkpt lat="42.65339" lon="23.91945">
        <ele>642.91159</ele>
        <time>2022-03-08T11:03:46.754Z</time>
      </trkpt>
      <trkpt lat="42.65347" lon="23.91936">
        <ele>642.874974</ele>
        <time>2022-03-08T11:03:51.751Z</time>
      </trkpt>
      <trkpt lat="42.65355" lon="23.91928">
        <ele>642.839818</ele>
        <time>2022-03-08T11:03:56.754Z</time>
      </trkpt>
      <trkpt lat="42.65363" lon="23.9192">
        <ele>642.804377</ele>
        <time>2022-03-08T11:04:01.753Z</time>
      </trkpt>
      <trkpt lat="42.65372" lon="23.91912">
        <ele>642.769068</ele>
        <time>2022-03-08T11:04:06.747Z</time>
      </trkpt>
      <trkpt lat="42.65379" lon="23.91905">
        <ele>642.737337</ele>
        <time>2022-03-08T11:04:11.800Z</time>
      </trkpt>
      <trkpt lat="42.65388" lon="23.91898">
        <ele>642.700498</ele>
        <time>2022-03-08T11:04:17.755Z</time>
      </trkpt>
      <trkpt lat="42.65396" lon="23.91892">
        <ele>642.66823</ele>
        <time>2022-03-08T11:04:22.793Z</time>
      </trkpt>
      <trkpt lat="42.65405" lon="23.91885">
        <ele>642.632253</ele>
        <time>2022-03-08T11:04:27.754Z</time>
      </trkpt>
      <trkpt lat="42.65413" lon="23.91878">
        <ele>642.598253</ele>
        <time>2022-03-08T11:04:32.775Z</time>
      </trkpt>
      <trkpt lat="42.65422" lon="23.91872">
        <ele>642.564857</ele>
        <time>2022-03-08T11:04:37.756Z</time>
      </trkpt>
      <trkpt lat="42.6543" lon="23.91867">
        <ele>642.532947</ele>
        <time>2022-03-08T11:04:42.762Z</time>
      </trkpt>
      <trkpt lat="42.65438" lon="23.9186">
        <ele>642.498952</ele>
        <time>2022-03-08T11:04:47.737Z</time>
      </trkpt>
      <trkpt lat="42.65447" lon="23.91854">
        <ele>642.462796</ele>
        <time>2022-03-08T11:04:52.775Z</time>
      </trkpt>
      <trkpt lat="42.65456" lon="23.91847">
        <ele>642.427505</ele>
        <time>2022-03-08T11:04:57.762Z</time>
      </trkpt>
      <trkpt lat="42.65464" lon="23.91839">
        <ele>642.392632</ele>
        <time>2022-03-08T11:05:02.760Z</time>
      </trkpt>
      <trkpt lat="42.65474" lon="23.91832">
        <ele>642.504188</ele>
        <time>2022-03-08T11:05:08.746Z</time>
      </trkpt>
      <trkpt lat="42.65482" lon="23.91827">
        <ele>642.801927</ele>
        <time>2022-03-08T11:05:13.737Z</time>
      </trkpt>
      <trkpt lat="42.65491" lon="23.9182">
        <ele>643.130718</ele>
        <time>2022-03-08T11:05:18.779Z</time>
      </trkpt>
      <trkpt lat="42.655" lon="23.91812">
        <ele>643.472382</ele>
        <time>2022-03-08T11:05:23.767Z</time>
      </trkpt>
      <trkpt lat="42.65508" lon="23.91807">
        <ele>643.772027</ele>
        <time>2022-03-08T11:05:28.792Z</time>
      </trkpt>
      <trkpt lat="42.65517" lon="23.91802">
        <ele>644.071649</ele>
        <time>2022-03-08T11:05:33.762Z</time>
      </trkpt>
      <trkpt lat="42.65525" lon="23.91796">
        <ele>644.374404</ele>
        <time>2022-03-08T11:05:38.752Z</time>
      </trkpt>
      <trkpt lat="42.65534" lon="23.91789">
        <ele>644.694631</ele>
        <time>2022-03-08T11:05:43.785Z</time>
      </trkpt>
      <trkpt lat="42.65543" lon="23.91782">
        <ele>645.04423</ele>
        <time>2022-03-08T11:05:48.751Z</time>
      </trkpt>
      <trkpt lat="42.65553" lon="23.91775">
        <ele>645.405871</ele>
        <time>2022-03-08T11:05:53.755Z</time>
      </trkpt>
      <trkpt lat="42.65563" lon="23.91768">
        <ele>645.77417</ele>
        <time>2022-03-08T11:05:58.749Z</time>
      </trkpt>
      <trkpt lat="42.65572" lon="23.91761">
        <ele>646.104571</ele>
        <time>2022-03-08T11:06:02.739Z</time>
      </trkpt>
      <trkpt lat="42.65581" lon="23.91754">
        <ele>646.428791</ele>
        <time>2022-03-08T11:06:06.759Z</time>
      </trkpt>
      <trkpt lat="42.65588" lon="23.91747">
        <ele>646.726187</ele>
        <time>2022-03-08T11:06:10.752Z</time>
      </trkpt>
      <trkpt lat="42.65596" lon="23.9174">
        <ele>647.027957</ele>
        <time>2022-03-08T11:06:14.738Z</time>
      </trkpt>
      <trkpt lat="42.65605" lon="23.91732">
        <ele>647.352052</ele>
        <time>2022-03-08T11:06:18.762Z</time>
      </trkpt>
      <trkpt lat="42.65612" lon="23.91724">
        <ele>647.682906</ele>
        <time>2022-03-08T11:06:22.781Z</time>
      </trkpt>
      <trkpt lat="42.6562" lon="23.91715">
        <ele>648.008819</ele>
        <time>2022-03-08T11:06:26.743Z</time>
      </trkpt>
      <trkpt lat="42.65627" lon="23.91703">
        <ele>648.136587</ele>
        <time>2022-03-08T11:06:30.770Z</time>
      </trkpt>
      <trkpt lat="42.65632" lon="23.91693">
        <ele>648.082839</ele>
        <time>2022-03-08T11:06:33.783Z</time>
      </trkpt>
      <trkpt lat="42.65637" lon="23.91681">
        <ele>648.021644</ele>
        <time>2022-03-08T11:06:37.766Z</time>
      </trkpt>
      <trkpt lat="42.65642" lon="23.91668">
        <ele>647.960469</ele>
        <time>2022-03-08T11:06:41.755Z</time>
      </trkpt>
      <trkpt lat="42.65647" lon="23.91656">
        <ele>647.904034</ele>
        <time>2022-03-08T11:06:45.764Z</time>
      </trkpt>
      <trkpt lat="42.65651" lon="23.91645">
        <ele>647.847228</ele>
        <time>2022-03-08T11:06:49.786Z</time>
      </trkpt>
      <trkpt lat="42.65656" lon="23.91633">
        <ele>647.788931</ele>
        <time>2022-03-08T11:06:53.753Z</time>
      </trkpt>
      <trkpt lat="42.6566" lon="23.91621">
        <ele>647.729656</ele>
        <time>2022-03-08T11:06:57.771Z</time>
      </trkpt>
      <trkpt lat="42.65664" lon="23.91608">
        <ele>647.670084</ele>
        <time>2022-03-08T11:07:01.740Z</time>
      </trkpt>
      <trkpt lat="42.65666" lon="23.91595">
        <ele>647.613109</ele>
        <time>2022-03-08T11:07:05.765Z</time>
      </trkpt>
      <trkpt lat="42.65668" lon="23.91582">
        <ele>647.554882</ele>
        <time>2022-03-08T11:07:09.769Z</time>
      </trkpt>
      <trkpt lat="42.65669" lon="23.91567">
        <ele>647.492458</ele>
        <time>2022-03-08T11:07:13.758Z</time>
      </trkpt>
      <trkpt lat="42.6567" lon="23.91554">
        <ele>647.435428</ele>
        <time>2022-03-08T11:07:17.759Z</time>
      </trkpt>
      <trkpt lat="42.6567" lon="23.9154">
        <ele>647.375188</ele>
        <time>2022-03-08T11:07:22.753Z</time>
      </trkpt>
      <trkpt lat="42.65669" lon="23.91527">
        <ele>647.31761</ele>
        <time>2022-03-08T11:07:26.752Z</time>
      </trkpt>
      <trkpt lat="42.65666" lon="23.91512">
        <ele>647.25312</ele>
        <time>2022-03-08T11:07:30.765Z</time>
      </trkpt>
      <trkpt lat="42.65663" lon="23.91497">
        <ele>647.188318</ele>
        <time>2022-03-08T11:07:34.756Z</time>
      </trkpt>
      <trkpt lat="42.65661" lon="23.91484">
        <ele>647.128961</ele>
        <time>2022-03-08T11:07:38.803Z</time>
      </trkpt>
      <trkpt lat="42.65657" lon="23.91472">
        <ele>647.109729</ele>
        <time>2022-03-08T11:07:42.755Z</time>
      </trkpt>
      <trkpt lat="42.65652" lon="23.91459">
        <ele>647.09911</ele>
        <time>2022-03-08T11:07:46.755Z</time>
      </trkpt>
      <trkpt lat="42.65647" lon="23.91446">
        <ele>647.088408</ele>
        <time>2022-03-08T11:07:50.751Z</time>
      </trkpt>
      <trkpt lat="42.65643" lon="23.91433">
        <ele>647.078426</ele>
        <time>2022-03-08T11:07:54.754Z</time>
      </trkpt>
      <trkpt lat="42.65638" lon="23.91421">
        <ele>647.068537</ele>
        <time>2022-03-08T11:07:58.750Z</time>
      </trkpt>
      <trkpt lat="42.65633" lon="23.91409">
        <ele>647.05841</ele>
        <time>2022-03-08T11:08:02.745Z</time>
      </trkpt>
      <trkpt lat="42.65628" lon="23.91397">
        <ele>647.04868</ele>
        <time>2022-03-08T11:08:06.753Z</time>
      </trkpt>
      <trkpt lat="42.65624" lon="23.91385">
        <ele>647.038937</ele>
        <time>2022-03-08T11:08:10.747Z</time>
      </trkpt>
      <trkpt lat="42.65619" lon="23.91373">
        <ele>647.029388</ele>
        <time>2022-03-08T11:08:14.765Z</time>
      </trkpt>
      <trkpt lat="42.65614" lon="23.91362">
        <ele>647.019266</ele>
        <time>2022-03-08T11:08:18.772Z</time>
      </trkpt>
      <trkpt lat="42.65609" lon="23.9135">
        <ele>647.009343</ele>
        <time>2022-03-08T11:08:22.760Z</time>
      </trkpt>
      <trkpt lat="42.65603" lon="23.91339">
        <ele>646.999179</ele>
        <time>2022-03-08T11:08:26.787Z</time>
      </trkpt>
      <trkpt lat="42.65597" lon="23.91327">
        <ele>646.989419</ele>
        <time>2022-03-08T11:08:30.758Z</time>
      </trkpt>
      <trkpt lat="42.65592" lon="23.91317">
        <ele>646.980059</ele>
        <time>2022-03-08T11:08:34.756Z</time>
      </trkpt>
      <trkpt lat="42.65586" lon="23.91304">
        <ele>646.969297</ele>
        <time>2022-03-08T11:08:39.752Z</time>
      </trkpt>
      <trkpt lat="42.6558" lon="23.91291">
        <ele>646.958548</ele>
        <time>2022-03-08T11:08:44.759Z</time>
      </trkpt>
      <trkpt lat="42.65574" lon="23.9128">
        <ele>646.948142</ele>
        <time>2022-03-08T11:08:49.836Z</time>
      </trkpt>
      <trkpt lat="42.65568" lon="23.9127">
        <ele>646.988561</ele>
        <time>2022-03-08T11:08:53.758Z</time>
      </trkpt>
      <trkpt lat="42.65562" lon="23.91259">
        <ele>647.30399</ele>
        <time>2022-03-08T11:08:57.759Z</time>
      </trkpt>
      <trkpt lat="42.65556" lon="23.91247">
        <ele>647.657331</ele>
        <time>2022-03-08T11:09:02.767Z</time>
      </trkpt>
      <trkpt lat="42.6555" lon="23.91237">
        <ele>647.949968</ele>
        <time>2022-03-08T11:09:06.746Z</time>
      </trkpt>
      <trkpt lat="42.65544" lon="23.91225">
        <ele>648.29736</ele>
        <time>2022-03-08T11:09:11.804Z</time>
      </trkpt>
      <trkpt lat="42.65538" lon="23.91212">
        <ele>648.644389</ele>
        <time>2022-03-08T11:09:16.758Z</time>
      </trkpt>
      <trkpt lat="42.65532" lon="23.91199">
        <ele>649.000116</ele>
        <time>2022-03-08T11:09:21.741Z</time>
      </trkpt>
      <trkpt lat="42.65527" lon="23.91188">
        <ele>649.319451</ele>
        <time>2022-03-08T11:09:25.755Z</time>
      </trkpt>
      <trkpt lat="42.65522" lon="23.91176">
        <ele>649.636178</ele>
        <time>2022-03-08T11:09:29.754Z</time>
      </trkpt>
      <trkpt lat="42.65517" lon="23.91166">
        <ele>649.92791</ele>
        <time>2022-03-08T11:09:33.790Z</time>
      </trkpt>
      <trkpt lat="42.65512" lon="23.91153">
        <ele>650.265295</ele>
        <time>2022-03-08T11:09:38.749Z</time>
      </trkpt>
      <trkpt lat="42.65508" lon="23.91142">
        <ele>650.552234</ele>
        <time>2022-03-08T11:09:42.758Z</time>
      </trkpt>
      <trkpt lat="42.65504" lon="23.91129">
        <ele>650.884441</ele>
        <time>2022-03-08T11:09:47.741Z</time>
      </trkpt>
      <trkpt lat="42.65502" lon="23.91117">
        <ele>651.176015</ele>
        <time>2022-03-08T11:09:51.775Z</time>
      </trkpt>
      <trkpt lat="42.65499" lon="23.91105">
        <ele>651.469194</ele>
        <time>2022-03-08T11:09:55.759Z</time>
      </trkpt>
      <trkpt lat="42.65497" lon="23.9109">
        <ele>651.816672</ele>
        <time>2022-03-08T11:10:00.764Z</time>
      </trkpt>
      <trkpt lat="42.65496" lon="23.91076">
        <ele>652.150434</ele>
        <time>2022-03-08T11:10:05.826Z</time>
      </trkpt>
      <trkpt lat="42.65495" lon="23.91061">
        <ele>652.493796</ele>
        <time>2022-03-08T11:10:10.753Z</time>
      </trkpt>
      <trkpt lat="42.65495" lon="23.91047">
        <ele>652.965716</ele>
        <time>2022-03-08T11:10:15.747Z</time>
      </trkpt>
      <trkpt lat="42.65494" lon="23.91033">
        <ele>653.585746</ele>
        <time>2022-03-08T11:10:20.752Z</time>
      </trkpt>
      <trkpt lat="42.65493" lon="23.91021">
        <ele>654.135823</ele>
        <time>2022-03-08T11:10:25.756Z</time>
      </trkpt>
      <trkpt lat="42.65494" lon="23.91008">
        <ele>654.710513</ele>
        <time>2022-03-08T11:10:31.760Z</time>
      </trkpt>
      <trkpt lat="42.65495" lon="23.90995">
        <ele>655.271406</ele>
        <time>2022-03-08T11:10:37.758Z</time>
      </trkpt>
      <trkpt lat="42.65496" lon="23.90983">
        <ele>655.834145</ele>
        <time>2022-03-08T11:10:43.790Z</time>
      </trkpt>
      <trkpt lat="42.65497" lon="23.90969">
        <ele>656.438786</ele>
        <time>2022-03-08T11:10:50.756Z</time>
      </trkpt>
      <trkpt lat="42.65499" lon="23.90957">
        <ele>656.982975</ele>
        <time>2022-03-08T11:10:56.731Z</time>
      </trkpt>
      <trkpt lat="42.655" lon="23.90944">
        <ele>657.576554</ele>
        <time>2022-03-08T11:11:03.732Z</time>
      </trkpt>
      <trkpt lat="42.65502" lon="23.9093">
        <ele>658.197989</ele>
        <time>2022-03-08T11:11:10.761Z</time>
      </trkpt>
      <trkpt lat="42.65503" lon="23.90917">
        <ele>658.78716</ele>
        <time>2022-03-08T11:11:16.796Z</time>
      </trkpt>
      <trkpt lat="42.65503" lon="23.90904">
        <ele>659.364849</ele>
        <time>2022-03-08T11:11:22.772Z</time>
      </trkpt>
      <trkpt lat="42.65505" lon="23.90892">
        <ele>659.921053</ele>
        <time>2022-03-08T11:11:28.758Z</time>
      </trkpt>
      <trkpt lat="42.65506" lon="23.90878">
        <ele>660.538584</ele>
        <time>2022-03-08T11:11:36.767Z</time>
      </trkpt>
      <trkpt lat="42.65507" lon="23.90865">
        <ele>661.105052</ele>
        <time>2022-03-08T11:11:42.734Z</time>
      </trkpt>
      <trkpt lat="42.65507" lon="23.90853">
        <ele>661.652192</ele>
        <time>2022-03-08T11:11:48.756Z</time>
      </trkpt>
      <trkpt lat="42.65507" lon="23.90839">
        <ele>662.256832</ele>
        <time>2022-03-08T11:11:55.767Z</time>
      </trkpt>
      <trkpt lat="42.65505" lon="23.90825">
        <ele>662.868647</ele>
        <time>2022-03-08T11:12:01.755Z</time>
      </trkpt>
      <trkpt lat="42.65504" lon="23.90812">
        <ele>663.459615</ele>
        <time>2022-03-08T11:12:07.756Z</time>
      </trkpt>
      <trkpt lat="42.65504" lon="23.90798">
        <ele>663.782578</ele>
        <time>2022-03-08T11:12:14.771Z</time>
      </trkpt>
      <trkpt lat="42.65503" lon="23.90785">
        <ele>664.073965</ele>
        <time>2022-03-08T11:12:21.755Z</time>
      </trkpt>
      <trkpt lat="42.65502" lon="23.90771">
        <ele>664.365158</ele>
        <time>2022-03-08T11:12:28.761Z</time>
      </trkpt>
      <trkpt lat="42.655" lon="23.90759">
        <ele>664.626886</ele>
        <time>2022-03-08T11:12:34.761Z</time>
      </trkpt>
      <trkpt lat="42.65497" lon="23.90746">
        <ele>664.899828</ele>
        <time>2022-03-08T11:12:40.753Z</time>
      </trkpt>
      <trkpt lat="42.65495" lon="23.90734">
        <ele>665.169047</ele>
        <time>2022-03-08T11:12:46.758Z</time>
      </trkpt>
      <trkpt lat="42.65493" lon="23.90721">
        <ele>665.455001</ele>
        <time>2022-03-08T11:12:53.760Z</time>
      </trkpt>
      <trkpt lat="42.65491" lon="23.90708">
        <ele>665.738883</ele>
        <time>2022-03-08T11:13:00.766Z</time>
      </trkpt>
      <trkpt lat="42.65489" lon="23.90695">
        <ele>666.004001</ele>
        <time>2022-03-08T11:13:06.762Z</time>
      </trkpt>
      <trkpt lat="42.65486" lon="23.90683">
        <ele>666.285048</ele>
        <time>2022-03-08T11:13:13.769Z</time>
      </trkpt>
      <trkpt lat="42.65483" lon="23.9067">
        <ele>666.55548</ele>
        <time>2022-03-08T11:13:19.743Z</time>
      </trkpt>
      <trkpt lat="42.65481" lon="23.90658">
        <ele>666.814553</ele>
        <time>2022-03-08T11:13:25.757Z</time>
      </trkpt>
      <trkpt lat="42.65479" lon="23.90646">
        <ele>667.096113</ele>
        <time>2022-03-08T11:13:32.771Z</time>
      </trkpt>
      <trkpt lat="42.65478" lon="23.90632">
        <ele>667.37859</ele>
        <time>2022-03-08T11:13:39.759Z</time>
      </trkpt>
      <trkpt lat="42.65476" lon="23.9062">
        <ele>667.642737</ele>
        <time>2022-03-08T11:13:45.769Z</time>
      </trkpt>
      <trkpt lat="42.65474" lon="23.90607">
        <ele>667.927778</ele>
        <time>2022-03-08T11:13:52.758Z</time>
      </trkpt>
      <trkpt lat="42.65471" lon="23.90595">
        <ele>668.190253</ele>
        <time>2022-03-08T11:13:58.761Z</time>
      </trkpt>
      <trkpt lat="42.6547" lon="23.90581">
        <ele>668.480555</ele>
        <time>2022-03-08T11:14:05.758Z</time>
      </trkpt>
      <trkpt lat="42.65467" lon="23.90569">
        <ele>668.897951</ele>
        <time>2022-03-08T11:14:12.763Z</time>
      </trkpt>
      <trkpt lat="42.65466" lon="23.90555">
        <ele>669.697065</ele>
        <time>2022-03-08T11:14:19.761Z</time>
      </trkpt>
      <trkpt lat="42.65466" lon="23.90542">
        <ele>670.474703</ele>
        <time>2022-03-08T11:14:26.755Z</time>
      </trkpt>
      <trkpt lat="42.65465" lon="23.90529">
        <ele>671.182952</ele>
        <time>2022-03-08T11:14:32.743Z</time>
      </trkpt>
      <trkpt lat="42.65466" lon="23.90516">
        <ele>671.95499</ele>
        <time>2022-03-08T11:14:39.782Z</time>
      </trkpt>
      <trkpt lat="42.65465" lon="23.90502">
        <ele>672.751283</ele>
        <time>2022-03-08T11:14:47.767Z</time>
      </trkpt>
      <trkpt lat="42.65465" lon="23.90489">
        <ele>673.535198</ele>
        <time>2022-03-08T11:14:54.757Z</time>
      </trkpt>
      <trkpt lat="42.65465" lon="23.90475">
        <ele>674.312716</ele>
        <time>2022-03-08T11:15:01.753Z</time>
      </trkpt>
      <trkpt lat="42.65465" lon="23.90463">
        <ele>675.055549</ele>
        <time>2022-03-08T11:15:08.766Z</time>
      </trkpt>
      <trkpt lat="42.65467" lon="23.90451">
        <ele>675.776883</ele>
        <time>2022-03-08T11:15:14.794Z</time>
      </trkpt>
      <trkpt lat="42.65469" lon="23.90438">
        <ele>676.508294</ele>
        <time>2022-03-08T11:15:21.743Z</time>
      </trkpt>
      <trkpt lat="42.6547" lon="23.90424">
        <ele>677.311938</ele>
        <time>2022-03-08T11:15:28.754Z</time>
      </trkpt>
      <trkpt lat="42.65472" lon="23.90412">
        <ele>678.041062</ele>
        <time>2022-03-08T11:15:34.752Z</time>
      </trkpt>
      <trkpt lat="42.65473" lon="23.90398">
        <ele>678.852902</ele>
        <time>2022-03-08T11:15:41.748Z</time>
      </trkpt>
      <trkpt lat="42.65475" lon="23.90386">
        <ele>679.565102</ele>
        <time>2022-03-08T11:15:47.767Z</time>
      </trkpt>
      <trkpt lat="42.65478" lon="23.90373">
        <ele>680.371229</ele>
        <time>2022-03-08T11:15:54.765Z</time>
      </trkpt>
      <trkpt lat="42.65479" lon="23.90361">
        <ele>681.086472</ele>
        <time>2022-03-08T11:16:00.742Z</time>
      </trkpt>
      <trkpt lat="42.65481" lon="23.90347">
        <ele>681.868402</ele>
        <time>2022-03-08T11:16:06.757Z</time>
      </trkpt>
      <trkpt lat="42.65481" lon="23.90334">
        <ele>682.617906</ele>
        <time>2022-03-08T11:16:12.764Z</time>
      </trkpt>
      <trkpt lat="42.65483" lon="23.90321">
        <ele>683.298947</ele>
        <time>2022-03-08T11:16:18.762Z</time>
      </trkpt>
      <trkpt lat="42.65486" lon="23.90308">
        <ele>683.886133</ele>
        <time>2022-03-08T11:16:24.766Z</time>
      </trkpt>
      <trkpt lat="42.65488" lon="23.90295">
        <ele>684.48952</ele>
        <time>2022-03-08T11:16:30.762Z</time>
      </trkpt>
      <trkpt lat="42.65492" lon="23.90283">
        <ele>685.099897</ele>
        <time>2022-03-08T11:16:36.756Z</time>
      </trkpt>
      <trkpt lat="42.65494" lon="23.90269">
        <ele>685.726882</ele>
        <time>2022-03-08T11:16:42.767Z</time>
      </trkpt>
      <trkpt lat="42.65498" lon="23.90257">
        <ele>686.318234</ele>
        <time>2022-03-08T11:16:48.737Z</time>
      </trkpt>
      <trkpt lat="42.655" lon="23.90245">
        <ele>686.873488</ele>
        <time>2022-03-08T11:16:54.755Z</time>
      </trkpt>
      <trkpt lat="42.65503" lon="23.90231">
        <ele>687.523855</ele>
        <time>2022-03-08T11:17:01.753Z</time>
      </trkpt>
      <trkpt lat="42.65506" lon="23.90218">
        <ele>688.141216</ele>
        <time>2022-03-08T11:17:08.754Z</time>
      </trkpt>
      <trkpt lat="42.65509" lon="23.90205">
        <ele>688.782882</ele>
        <time>2022-03-08T11:17:14.762Z</time>
      </trkpt>
      <trkpt lat="42.65511" lon="23.90192">
        <ele>689.350053</ele>
        <time>2022-03-08T11:17:20.796Z</time>
      </trkpt>
      <trkpt lat="42.65514" lon="23.90179">
        <ele>689.964904</ele>
        <time>2022-03-08T11:17:26.746Z</time>
      </trkpt>
      <trkpt lat="42.65517" lon="23.90166">
        <ele>690.60312</ele>
        <time>2022-03-08T11:17:32.754Z</time>
      </trkpt>
      <trkpt lat="42.6552" lon="23.90153">
        <ele>691.217477</ele>
        <time>2022-03-08T11:17:38.759Z</time>
      </trkpt>
      <trkpt lat="42.65524" lon="23.90141">
        <ele>691.782296</ele>
        <time>2022-03-08T11:17:44.748Z</time>
      </trkpt>
      <trkpt lat="42.65527" lon="23.9013">
        <ele>692.361168</ele>
        <time>2022-03-08T11:17:50.771Z</time>
      </trkpt>
      <trkpt lat="42.65532" lon="23.90119">
        <ele>692.916471</ele>
        <time>2022-03-08T11:17:56.790Z</time>
      </trkpt>
      <trkpt lat="42.65535" lon="23.90106">
        <ele>693.532909</ele>
        <time>2022-03-08T11:18:03.756Z</time>
      </trkpt>
      <trkpt lat="42.65539" lon="23.90094">
        <ele>694.052072</ele>
        <time>2022-03-08T11:18:09.770Z</time>
      </trkpt>
      <trkpt lat="42.65543" lon="23.90082">
        <ele>694.449544</ele>
        <time>2022-03-08T11:18:16.773Z</time>
      </trkpt>
      <trkpt lat="42.65548" lon="23.90071">
        <ele>694.833273</ele>
        <time>2022-03-08T11:18:22.760Z</time>
      </trkpt>
      <trkpt lat="42.65552" lon="23.90059">
        <ele>695.230721</ele>
        <time>2022-03-08T11:18:28.762Z</time>
      </trkpt>
      <trkpt lat="42.65555" lon="23.90046">
        <ele>695.625934</ele>
        <time>2022-03-08T11:18:35.755Z</time>
      </trkpt>
      <trkpt lat="42.6556" lon="23.90034">
        <ele>696.043868</ele>
        <time>2022-03-08T11:18:41.764Z</time>
      </trkpt>
      <trkpt lat="42.65563" lon="23.90021">
        <ele>696.46311</ele>
        <time>2022-03-08T11:18:47.782Z</time>
      </trkpt>
      <trkpt lat="42.65568" lon="23.90009">
        <ele>696.876942</ele>
        <time>2022-03-08T11:18:53.744Z</time>
      </trkpt>
      <trkpt lat="42.65572" lon="23.89998">
        <ele>697.243734</ele>
        <time>2022-03-08T11:18:59.761Z</time>
      </trkpt>
      <trkpt lat="42.65576" lon="23.89985">
        <ele>697.652633</ele>
        <time>2022-03-08T11:19:06.767Z</time>
      </trkpt>
      <trkpt lat="42.65581" lon="23.89973">
        <ele>698.078932</ele>
        <time>2022-03-08T11:19:13.764Z</time>
      </trkpt>
      <trkpt lat="42.65584" lon="23.8996">
        <ele>698.486521</ele>
        <time>2022-03-08T11:19:19.766Z</time>
      </trkpt>
      <trkpt lat="42.65586" lon="23.89947">
        <ele>698.888725</ele>
        <time>2022-03-08T11:19:25.766Z</time>
      </trkpt>
      <trkpt lat="42.65589" lon="23.89934">
        <ele>699.295233</ele>
        <time>2022-03-08T11:19:31.736Z</time>
      </trkpt>
      <trkpt lat="42.65592" lon="23.8992">
        <ele>699.711627</ele>
        <time>2022-03-08T11:19:37.757Z</time>
      </trkpt>
      <trkpt lat="42.65592" lon="23.89906">
        <ele>700.129037</ele>
        <time>2022-03-08T11:19:43.762Z</time>
      </trkpt>
      <trkpt lat="42.65592" lon="23.89894">
        <ele>700.49454</ele>
        <time>2022-03-08T11:19:48.744Z</time>
      </trkpt>
      <trkpt lat="42.65593" lon="23.89882">
        <ele>700.869828</ele>
        <time>2022-03-08T11:19:53.760Z</time>
      </trkpt>
      <trkpt lat="42.65593" lon="23.89869">
        <ele>701.221748</ele>
        <time>2022-03-08T11:19:58.748Z</time>
      </trkpt>
      <trkpt lat="42.65593" lon="23.89854">
        <ele>700.74014</ele>
        <time>2022-03-08T11:20:03.793Z</time>
      </trkpt>
      <trkpt lat="42.65593" lon="23.8984">
        <ele>700.33299</ele>
        <time>2022-03-08T11:20:07.759Z</time>
      </trkpt>
      <trkpt lat="42.65592" lon="23.89826">
        <ele>699.893395</ele>
        <time>2022-03-08T11:20:11.799Z</time>
      </trkpt>
      <trkpt lat="42.65591" lon="23.89812">
        <ele>699.464164</ele>
        <time>2022-03-08T11:20:15.756Z</time>
      </trkpt>
      <trkpt lat="42.65591" lon="23.89798">
        <ele>699.01046</ele>
        <time>2022-03-08T11:20:19.766Z</time>
      </trkpt>
      <trkpt lat="42.6559" lon="23.89782">
        <ele>698.510903</ele>
        <time>2022-03-08T11:20:23.775Z</time>
      </trkpt>
      <trkpt lat="42.65589" lon="23.89769">
        <ele>698.127874</ele>
        <time>2022-03-08T11:20:26.757Z</time>
      </trkpt>
      <trkpt lat="42.65589" lon="23.89754">
        <ele>697.655677</ele>
        <time>2022-03-08T11:20:30.753Z</time>
      </trkpt>
      <trkpt lat="42.65589" lon="23.89741">
        <ele>697.25463</ele>
        <time>2022-03-08T11:20:34.765Z</time>
      </trkpt>
      <trkpt lat="42.65588" lon="23.89728">
        <ele>696.860215</ele>
        <time>2022-03-08T11:20:39.756Z</time>
      </trkpt>
      <trkpt lat="42.65587" lon="23.89715">
        <ele>696.45478</ele>
        <time>2022-03-08T11:20:43.777Z</time>
      </trkpt>
      <trkpt lat="42.65587" lon="23.897">
        <ele>695.976253</ele>
        <time>2022-03-08T11:20:47.758Z</time>
      </trkpt>
      <trkpt lat="42.65585" lon="23.89687">
        <ele>695.596617</ele>
        <time>2022-03-08T11:20:50.794Z</time>
      </trkpt>
      <trkpt lat="42.65585" lon="23.89675">
        <ele>695.206165</ele>
        <time>2022-03-08T11:20:53.752Z</time>
      </trkpt>
      <trkpt lat="42.65583" lon="23.89662">
        <ele>694.801952</ele>
        <time>2022-03-08T11:20:56.755Z</time>
      </trkpt>
      <trkpt lat="42.65581" lon="23.89649">
        <ele>694.405868</ele>
        <time>2022-03-08T11:20:59.761Z</time>
      </trkpt>
      <trkpt lat="42.65579" lon="23.89636">
        <ele>693.989322</ele>
        <time>2022-03-08T11:21:02.747Z</time>
      </trkpt>
      <trkpt lat="42.65577" lon="23.89622">
        <ele>693.602333</ele>
        <time>2022-03-08T11:21:05.792Z</time>
      </trkpt>
      <trkpt lat="42.65574" lon="23.8961">
        <ele>693.343687</ele>
        <time>2022-03-08T11:21:08.765Z</time>
      </trkpt>
      <trkpt lat="42.65571" lon="23.89598">
        <ele>693.090844</ele>
        <time>2022-03-08T11:21:11.741Z</time>
      </trkpt>
      <trkpt lat="42.65567" lon="23.89585">
        <ele>692.831444</ele>
        <time>2022-03-08T11:21:14.764Z</time>
      </trkpt>
      <trkpt lat="42.65564" lon="23.89573">
        <ele>692.563816</ele>
        <time>2022-03-08T11:21:17.804Z</time>
      </trkpt>
      <trkpt lat="42.65561" lon="23.89561">
        <ele>692.309156</ele>
        <time>2022-03-08T11:21:20.754Z</time>
      </trkpt>
      <trkpt lat="42.65558" lon="23.89547">
        <ele>692.039195</ele>
        <time>2022-03-08T11:21:23.761Z</time>
      </trkpt>
      <trkpt lat="42.65555" lon="23.89534">
        <ele>691.761666</ele>
        <time>2022-03-08T11:21:26.775Z</time>
      </trkpt>
      <trkpt lat="42.65552" lon="23.89521">
        <ele>691.488673</ele>
        <time>2022-03-08T11:21:29.763Z</time>
      </trkpt>
      <trkpt lat="42.6555" lon="23.89508">
        <ele>691.23565</ele>
        <time>2022-03-08T11:21:32.776Z</time>
      </trkpt>
      <trkpt lat="42.65548" lon="23.89495">
        <ele>690.969148</ele>
        <time>2022-03-08T11:21:35.762Z</time>
      </trkpt>
      <trkpt lat="42.65546" lon="23.89482">
        <ele>690.707064</ele>
        <time>2022-03-08T11:21:38.754Z</time>
      </trkpt>
      <trkpt lat="42.65544" lon="23.89466">
        <ele>690.38766</ele>
        <time>2022-03-08T11:21:42.759Z</time>
      </trkpt>
      <trkpt lat="42.65541" lon="23.89452">
        <ele>690.102661</ele>
        <time>2022-03-08T11:21:46.758Z</time>
      </trkpt>
      <trkpt lat="42.65539" lon="23.89437">
        <ele>689.803594</ele>
        <time>2022-03-08T11:21:50.751Z</time>
      </trkpt>
      <trkpt lat="42.65537" lon="23.89423">
        <ele>689.514413</ele>
        <time>2022-03-08T11:21:54.743Z</time>
      </trkpt>
      <trkpt lat="42.65536" lon="23.8941">
        <ele>689.265988</ele>
        <time>2022-03-08T11:21:58.755Z</time>
      </trkpt>
      <trkpt lat="42.65536" lon="23.89397">
        <ele>689.011416</ele>
        <time>2022-03-08T11:22:02.798Z</time>
      </trkpt>
      <trkpt lat="42.65535" lon="23.89382">
        <ele>689.287424</ele>
        <time>2022-03-08T11:22:07.781Z</time>
      </trkpt>
      <trkpt lat="42.65534" lon="23.8937">
        <ele>689.999848</ele>
        <time>2022-03-08T11:22:11.753Z</time>
      </trkpt>
      <trkpt lat="42.65533" lon="23.89358">
        <ele>690.715024</ele>
        <time>2022-03-08T11:22:15.756Z</time>
      </trkpt>
      <trkpt lat="42.65532" lon="23.89345">
        <ele>691.412963</ele>
        <time>2022-03-08T11:22:19.742Z</time>
      </trkpt>
      <trkpt lat="42.6553" lon="23.89331">
        <ele>692.254977</ele>
        <time>2022-03-08T11:22:24.785Z</time>
      </trkpt>
      <trkpt lat="42.65528" lon="23.89319">
        <ele>692.949281</ele>
        <time>2022-03-08T11:22:28.766Z</time>
      </trkpt>
      <trkpt lat="42.65526" lon="23.89305">
        <ele>693.752435</ele>
        <time>2022-03-08T11:22:33.757Z</time>
      </trkpt>
      <trkpt lat="42.65523" lon="23.89293">
        <ele>694.481745</ele>
        <time>2022-03-08T11:22:37.751Z</time>
      </trkpt>
      <trkpt lat="42.6552" lon="23.89279">
        <ele>695.30712</ele>
        <time>2022-03-08T11:22:42.754Z</time>
      </trkpt>
      <trkpt lat="42.65514" lon="23.89267">
        <ele>696.087369</ele>
        <time>2022-03-08T11:22:47.779Z</time>
      </trkpt>
      <trkpt lat="42.65511" lon="23.89256">
        <ele>696.784774</ele>
        <time>2022-03-08T11:22:51.765Z</time>
      </trkpt>
      <trkpt lat="42.65507" lon="23.89245">
        <ele>697.500906</ele>
        <time>2022-03-08T11:22:55.756Z</time>
      </trkpt>
      <trkpt lat="42.65505" lon="23.89232">
        <ele>698.224661</ele>
        <time>2022-03-08T11:22:59.760Z</time>
      </trkpt>
      <trkpt lat="42.65502" lon="23.89218">
        <ele>699.054077</ele>
        <time>2022-03-08T11:23:04.762Z</time>
      </trkpt>
      <trkpt lat="42.65501" lon="23.89206">
        <ele>699.747749</ele>
        <time>2022-03-08T11:23:08.767Z</time>
      </trkpt>
      <trkpt lat="42.65498" lon="23.89194">
        <ele>700.475132</ele>
        <time>2022-03-08T11:23:13.752Z</time>
      </trkpt>
      <trkpt lat="42.65495" lon="23.8918">
        <ele>701.289311</ele>
        <time>2022-03-08T11:23:18.796Z</time>
      </trkpt>
      <trkpt lat="42.65491" lon="23.89167">
        <ele>702.117151</ele>
        <time>2022-03-08T11:23:23.751Z</time>
      </trkpt>
      <trkpt lat="42.65485" lon="23.89155">
        <ele>702.916321</ele>
        <time>2022-03-08T11:23:28.760Z</time>
      </trkpt>
      <trkpt lat="42.6548" lon="23.89145">
        <ele>703.548435</ele>
        <time>2022-03-08T11:23:32.762Z</time>
      </trkpt>
      <trkpt lat="42.65474" lon="23.89135">
        <ele>704.212535</ele>
        <time>2022-03-08T11:23:36.764Z</time>
      </trkpt>
      <trkpt lat="42.65469" lon="23.89125">
        <ele>704.847682</ele>
        <time>2022-03-08T11:23:40.806Z</time>
      </trkpt>
      <trkpt lat="42.65462" lon="23.89113">
        <ele>705.628688</ele>
        <time>2022-03-08T11:23:45.756Z</time>
      </trkpt>
      <trkpt lat="42.65455" lon="23.89101">
        <ele>706.405692</ele>
        <time>2022-03-08T11:23:50.755Z</time>
      </trkpt>
      <trkpt lat="42.65449" lon="23.89091">
        <ele>707.044817</ele>
        <time>2022-03-08T11:23:54.759Z</time>
      </trkpt>
      <trkpt lat="42.65443" lon="23.8908">
        <ele>707.785716</ele>
        <time>2022-03-08T11:23:59.764Z</time>
      </trkpt>
      <trkpt lat="42.65435" lon="23.8907">
        <ele>708.530085</ele>
        <time>2022-03-08T11:24:04.750Z</time>
      </trkpt>
      <trkpt lat="42.65428" lon="23.8906">
        <ele>709.235113</ele>
        <time>2022-03-08T11:24:09.773Z</time>
      </trkpt>
      <trkpt lat="42.65421" lon="23.8905">
        <ele>709.960979</ele>
        <time>2022-03-08T11:24:14.770Z</time>
      </trkpt>
      <trkpt lat="42.65414" lon="23.8904">
        <ele>710.694195</ele>
        <time>2022-03-08T11:24:20.757Z</time>
      </trkpt>
      <trkpt lat="42.65407" lon="23.89031">
        <ele>711.350311</ele>
        <time>2022-03-08T11:24:25.770Z</time>
      </trkpt>
      <trkpt lat="42.65399" lon="23.89022">
        <ele>712.061576</ele>
        <time>2022-03-08T11:24:30.753Z</time>
      </trkpt>
      <trkpt lat="42.65391" lon="23.89014">
        <ele>712.771269</ele>
        <time>2022-03-08T11:24:35.783Z</time>
      </trkpt>
      <trkpt lat="42.65383" lon="23.89004">
        <ele>713.530854</ele>
        <time>2022-03-08T11:24:40.759Z</time>
      </trkpt>
      <trkpt lat="42.65376" lon="23.88994">
        <ele>714.244479</ele>
        <time>2022-03-08T11:24:45.759Z</time>
      </trkpt>
      <trkpt lat="42.65368" lon="23.88986">
        <ele>714.951436</ele>
        <time>2022-03-08T11:24:50.757Z</time>
      </trkpt>
      <trkpt lat="42.65358" lon="23.88979">
        <ele>715.302314</ele>
        <time>2022-03-08T11:24:55.778Z</time>
      </trkpt>
      <trkpt lat="42.65349" lon="23.8897">
        <ele>715.133196</ele>
        <time>2022-03-08T11:25:00.754Z</time>
      </trkpt>
      <trkpt lat="42.6534" lon="23.88963">
        <ele>714.970388</ele>
        <time>2022-03-08T11:25:05.766Z</time>
      </trkpt>
      <trkpt lat="42.65332" lon="23.88955">
        <ele>714.808183</ele>
        <time>2022-03-08T11:25:10.764Z</time>
      </trkpt>
      <trkpt lat="42.65323" lon="23.88947">
        <ele>714.645834</ele>
        <time>2022-03-08T11:25:15.741Z</time>
      </trkpt>
      <trkpt lat="42.65315" lon="23.88939">
        <ele>714.485689</ele>
        <time>2022-03-08T11:25:20.765Z</time>
      </trkpt>
      <trkpt lat="42.65306" lon="23.8893">
        <ele>714.317387</ele>
        <time>2022-03-08T11:25:25.795Z</time>
      </trkpt>
      <trkpt lat="42.65298" lon="23.8892">
        <ele>714.149317</ele>
        <time>2022-03-08T11:25:30.762Z</time>
      </trkpt>
      <trkpt lat="42.6529" lon="23.88912">
        <ele>713.99615</ele>
        <time>2022-03-08T11:25:35.753Z</time>
      </trkpt>
      <trkpt lat="42.65283" lon="23.88902">
        <ele>713.83723</ele>
        <time>2022-03-08T11:25:40.756Z</time>
      </trkpt>
      <trkpt lat="42.65277" lon="23.88892">
        <ele>713.693085</ele>
        <time>2022-03-08T11:25:44.768Z</time>
      </trkpt>
      <trkpt lat="42.6527" lon="23.88882">
        <ele>713.530951</ele>
        <time>2022-03-08T11:25:49.759Z</time>
      </trkpt>
      <trkpt lat="42.65263" lon="23.88872">
        <ele>713.380729</ele>
        <time>2022-03-08T11:25:55.749Z</time>
      </trkpt>
      <trkpt lat="42.65256" lon="23.88861">
        <ele>713.217736</ele>
        <time>2022-03-08T11:26:01.758Z</time>
      </trkpt>
      <trkpt lat="42.65249" lon="23.88853">
        <ele>713.065516</ele>
        <time>2022-03-08T11:26:08.755Z</time>
      </trkpt>
      <trkpt lat="42.65241" lon="23.88843">
        <ele>712.901464</ele>
        <time>2022-03-08T11:26:15.755Z</time>
      </trkpt>
      <trkpt lat="42.65235" lon="23.88833">
        <ele>712.748555</ele>
        <time>2022-03-08T11:26:21.756Z</time>
      </trkpt>
      <trkpt lat="42.65227" lon="23.88823">
        <ele>712.592017</ele>
        <time>2022-03-08T11:26:28.759Z</time>
      </trkpt>
      <trkpt lat="42.6522" lon="23.88814">
        <ele>713.332097</ele>
        <time>2022-03-08T11:26:36.758Z</time>
      </trkpt>
      <trkpt lat="42.65214" lon="23.88805">
        <ele>714.063141</ele>
        <time>2022-03-08T11:26:43.767Z</time>
      </trkpt>
      <trkpt lat="42.65206" lon="23.88796">
        <ele>714.802948</ele>
        <time>2022-03-08T11:26:50.743Z</time>
      </trkpt>
      <trkpt lat="42.65199" lon="23.88788">
        <ele>715.514768</ele>
        <time>2022-03-08T11:26:56.776Z</time>
      </trkpt>
      <trkpt lat="42.65192" lon="23.88778">
        <ele>716.320158</ele>
        <time>2022-03-08T11:27:03.753Z</time>
      </trkpt>
      <trkpt lat="42.65185" lon="23.88769">
        <ele>717.063855</ele>
        <time>2022-03-08T11:27:10.750Z</time>
      </trkpt>
      <trkpt lat="42.65179" lon="23.88759">
        <ele>717.829395</ele>
        <time>2022-03-08T11:27:18.766Z</time>
      </trkpt>
      <trkpt lat="42.65171" lon="23.88751">
        <ele>718.530471</ele>
        <time>2022-03-08T11:27:25.767Z</time>
      </trkpt>
      <trkpt lat="42.65165" lon="23.88742">
        <ele>719.275009</ele>
        <time>2022-03-08T11:27:32.775Z</time>
      </trkpt>
      <trkpt lat="42.65158" lon="23.88733">
        <ele>719.984226</ele>
        <time>2022-03-08T11:27:39.763Z</time>
      </trkpt>
      <trkpt lat="42.65151" lon="23.88724">
        <ele>720.737435</ele>
        <time>2022-03-08T11:27:46.804Z</time>
      </trkpt>
      <trkpt lat="42.65142" lon="23.88717">
        <ele>721.523082</ele>
        <time>2022-03-08T11:27:53.755Z</time>
      </trkpt>
      <trkpt lat="42.65136" lon="23.88707">
        <ele>722.255795</ele>
        <time>2022-03-08T11:27:59.756Z</time>
      </trkpt>
      <trkpt lat="42.65129" lon="23.88697">
        <ele>723.043207</ele>
        <time>2022-03-08T11:28:05.777Z</time>
      </trkpt>
      <trkpt lat="42.65122" lon="23.88688">
        <ele>723.786907</ele>
        <time>2022-03-08T11:28:11.764Z</time>
      </trkpt>
      <trkpt lat="42.65115" lon="23.88678">
        <ele>724.545528</ele>
        <time>2022-03-08T11:28:17.766Z</time>
      </trkpt>
      <trkpt lat="42.65108" lon="23.88668">
        <ele>725.349205</ele>
        <time>2022-03-08T11:28:23.764Z</time>
      </trkpt>
      <trkpt lat="42.65101" lon="23.88659">
        <ele>726.096819</ele>
        <time>2022-03-08T11:28:30.798Z</time>
      </trkpt>
      <trkpt lat="42.65094" lon="23.8865">
        <ele>726.645992</ele>
        <time>2022-03-08T11:28:37.759Z</time>
      </trkpt>
      <trkpt lat="42.65088" lon="23.88641">
        <ele>726.996007</ele>
        <time>2022-03-08T11:28:43.750Z</time>
      </trkpt>
      <trkpt lat="42.65081" lon="23.88631">
        <ele>727.360367</ele>
        <time>2022-03-08T11:28:50.754Z</time>
      </trkpt>
      <trkpt lat="42.65073" lon="23.88622">
        <ele>727.748298</ele>
        <time>2022-03-08T11:28:56.755Z</time>
      </trkpt>
      <trkpt lat="42.65066" lon="23.88613">
        <ele>728.125184</ele>
        <time>2022-03-08T11:29:03.807Z</time>
      </trkpt>
      <trkpt lat="42.65059" lon="23.88603">
        <ele>728.494345</ele>
        <time>2022-03-08T11:29:09.762Z</time>
      </trkpt>
      <trkpt lat="42.65052" lon="23.88594">
        <ele>728.859343</ele>
        <time>2022-03-08T11:29:15.757Z</time>
      </trkpt>
      <trkpt lat="42.65046" lon="23.88584">
        <ele>729.228072</ele>
        <time>2022-03-08T11:29:21.784Z</time>
      </trkpt>
      <trkpt lat="42.65039" lon="23.88574">
        <ele>729.603012</ele>
        <time>2022-03-08T11:29:26.762Z</time>
      </trkpt>
      <trkpt lat="42.65032" lon="23.88566">
        <ele>729.952601</ele>
        <time>2022-03-08T11:29:31.758Z</time>
      </trkpt>
      <trkpt lat="42.65024" lon="23.88557">
        <ele>730.33992</ele>
        <time>2022-03-08T11:29:37.763Z</time>
      </trkpt>
      <trkpt lat="42.65015" lon="23.88551">
        <ele>730.705632</ele>
        <time>2022-03-08T11:29:43.779Z</time>
      </trkpt>
      <trkpt lat="42.65007" lon="23.88545">
        <ele>731.045185</ele>
        <time>2022-03-08T11:29:49.738Z</time>
      </trkpt>
      <trkpt lat="42.64998" lon="23.88544">
        <ele>731.385841</ele>
        <time>2022-03-08T11:29:57.759Z</time>
      </trkpt>
      <trkpt lat="42.64988" lon="23.88543">
        <ele>731.774153</ele>
        <time>2022-03-08T11:30:05.777Z</time>
      </trkpt>
      <trkpt lat="42.64978" lon="23.88545">
        <ele>732.16002</ele>
        <time>2022-03-08T11:30:12.813Z</time>
      </trkpt>
      <trkpt lat="42.64968" lon="23.88542">
        <ele>732.532054</ele>
        <time>2022-03-08T11:30:19.814Z</time>
      </trkpt>
      <trkpt lat="42.64959" lon="23.88538">
        <ele>732.883637</ele>
        <time>2022-03-08T11:30:24.806Z</time>
      </trkpt>
      <trkpt lat="42.6495" lon="23.88534">
        <ele>733.277606</ele>
        <time>2022-03-08T11:30:30.810Z</time>
      </trkpt>
      <trkpt lat="42.64941" lon="23.88529">
        <ele>734.009706</ele>
        <time>2022-03-08T11:30:36.744Z</time>
      </trkpt>
      <trkpt lat="42.64932" lon="23.88526">
        <ele>734.690292</ele>
        <time>2022-03-08T11:30:42.748Z</time>
      </trkpt>
      <trkpt lat="42.64923" lon="23.88521">
        <ele>735.445427</ele>
        <time>2022-03-08T11:30:48.747Z</time>
      </trkpt>
      <trkpt lat="42.64914" lon="23.88516">
        <ele>736.170589</ele>
        <time>2022-03-08T11:30:54.760Z</time>
      </trkpt>
      <trkpt lat="42.64905" lon="23.8851">
        <ele>736.898595</ele>
        <time>2022-03-08T11:31:00.753Z</time>
      </trkpt>
      <trkpt lat="42.64897" lon="23.88504">
        <ele>737.619863</ele>
        <time>2022-03-08T11:31:06.767Z</time>
      </trkpt>
      <trkpt lat="42.64888" lon="23.88499">
        <ele>738.347259</ele>
        <time>2022-03-08T11:31:12.764Z</time>
      </trkpt>
      <trkpt lat="42.64879" lon="23.88491">
        <ele>739.138153</ele>
        <time>2022-03-08T11:31:19.767Z</time>
      </trkpt>
      <trkpt lat="42.64871" lon="23.88483">
        <ele>739.891336</ele>
        <time>2022-03-08T11:31:25.761Z</time>
      </trkpt>
      <trkpt lat="42.64864" lon="23.88475">
        <ele>740.602638</ele>
        <time>2022-03-08T11:31:31.764Z</time>
      </trkpt>
      <trkpt lat="42.64857" lon="23.88467">
        <ele>741.280228</ele>
        <time>2022-03-08T11:31:37.795Z</time>
      </trkpt>
      <trkpt lat="42.64849" lon="23.88457">
        <ele>742.096597</ele>
        <time>2022-03-08T11:31:43.795Z</time>
      </trkpt>
      <trkpt lat="42.64843" lon="23.88448">
        <ele>742.779854</ele>
        <time>2022-03-08T11:31:48.759Z</time>
      </trkpt>
      <trkpt lat="42.64834" lon="23.8844">
        <ele>743.571223</ele>
        <time>2022-03-08T11:31:54.785Z</time>
      </trkpt>
      <trkpt lat="42.64827" lon="23.88432">
        <ele>744.304486</ele>
        <time>2022-03-08T11:32:00.739Z</time>
      </trkpt>
      <trkpt lat="42.64819" lon="23.88424">
        <ele>745.008742</ele>
        <time>2022-03-08T11:32:06.748Z</time>
      </trkpt>
      <trkpt lat="42.64811" lon="23.88416">
        <ele>745.768661</ele>
        <time>2022-03-08T11:32:12.744Z</time>
      </trkpt>
      <trkpt lat="42.64802" lon="23.88409">
        <ele>746.53751</ele>
        <time>2022-03-08T11:32:18.737Z</time>
      </trkpt>
      <trkpt lat="42.64794" lon="23.88404">
        <ele>747.100871</ele>
        <time>2022-03-08T11:32:23.795Z</time>
      </trkpt>
      <trkpt lat="42.64784" lon="23.88398">
        <ele>747.621205</ele>
        <time>2022-03-08T11:32:30.751Z</time>
      </trkpt>
      <trkpt lat="42.64774" lon="23.88393">
        <ele>748.122663</ele>
        <time>2022-03-08T11:32:36.744Z</time>
      </trkpt>
      <trkpt lat="42.64766" lon="23.88389">
        <ele>748.568709</ele>
        <time>2022-03-08T11:32:41.758Z</time>
      </trkpt>
      <trkpt lat="42.64756" lon="23.88386">
        <ele>749.06158</ele>
        <time>2022-03-08T11:32:47.755Z</time>
      </trkpt>
      <trkpt lat="42.64746" lon="23.88382">
        <ele>749.559637</ele>
        <time>2022-03-08T11:32:53.766Z</time>
      </trkpt>
      <trkpt lat="42.64736" lon="23.88377">
        <ele>750.069323</ele>
        <time>2022-03-08T11:32:59.786Z</time>
      </trkpt>
      <trkpt lat="42.64728" lon="23.88373">
        <ele>750.520579</ele>
        <time>2022-03-08T11:33:04.759Z</time>
      </trkpt>
      <trkpt lat="42.64717" lon="23.88371">
        <ele>751.032608</ele>
        <time>2022-03-08T11:33:10.759Z</time>
      </trkpt>
      <trkpt lat="42.64708" lon="23.88365">
        <ele>751.539498</ele>
        <time>2022-03-08T11:33:16.763Z</time>
      </trkpt>
      <trkpt lat="42.64699" lon="23.88359">
        <ele>752.018252</ele>
        <time>2022-03-08T11:33:21.752Z</time>
      </trkpt>
      <trkpt lat="42.64689" lon="23.88353">
        <ele>752.532632</ele>
        <time>2022-03-08T11:33:27.746Z</time>
      </trkpt>
      <trkpt lat="42.64681" lon="23.88347">
        <ele>753.008668</ele>
        <time>2022-03-08T11:33:34.756Z</time>
      </trkpt>
      <trkpt lat="42.64673" lon="23.88339">
        <ele>753.497173</ele>
        <time>2022-03-08T11:33:40.758Z</time>
      </trkpt>
      <trkpt lat="42.64664" lon="23.88331">
        <ele>753.989686</ele>
        <time>2022-03-08T11:33:46.764Z</time>
      </trkpt>
      <trkpt lat="42.64656" lon="23.88324">
        <ele>754.470103</ele>
        <time>2022-03-08T11:33:52.775Z</time>
      </trkpt>
      <trkpt lat="42.64648" lon="23.88315">
        <ele>754.976219</ele>
        <time>2022-03-08T11:33:58.753Z</time>
      </trkpt>
      <trkpt lat="42.64639" lon="23.88307">
        <ele>755.491027</ele>
        <time>2022-03-08T11:34:05.755Z</time>
      </trkpt>
      <trkpt lat="42.64631" lon="23.88299">
        <ele>756.185835</ele>
        <time>2022-03-08T11:34:11.761Z</time>
      </trkpt>
      <trkpt lat="42.64623" lon="23.88292">
        <ele>756.971599</ele>
        <time>2022-03-08T11:34:18.751Z</time>
      </trkpt>
      <trkpt lat="42.64615" lon="23.88284">
        <ele>757.724615</ele>
        <time>2022-03-08T11:34:25.749Z</time>
      </trkpt>
      <trkpt lat="42.64606" lon="23.88277">
        <ele>758.497651</ele>
        <time>2022-03-08T11:34:32.775Z</time>
      </trkpt>
      <trkpt lat="42.64599" lon="23.88269">
        <ele>759.252585</ele>
        <time>2022-03-08T11:34:40.823Z</time>
      </trkpt>
      <trkpt lat="42.6459" lon="23.88262">
        <ele>760.04563</ele>
        <time>2022-03-08T11:34:47.770Z</time>
      </trkpt>
      <trkpt lat="42.64583" lon="23.88254">
        <ele>760.772899</ele>
        <time>2022-03-08T11:34:56.745Z</time>
      </trkpt>
      <trkpt lat="42.64575" lon="23.88248">
        <ele>761.510283</ele>
        <time>2022-03-08T11:35:04.749Z</time>
      </trkpt>
      <trkpt lat="42.64568" lon="23.8824">
        <ele>762.233402</ele>
        <time>2022-03-08T11:35:11.762Z</time>
      </trkpt>
      <trkpt lat="42.64559" lon="23.88233">
        <ele>762.983175</ele>
        <time>2022-03-08T11:35:19.775Z</time>
      </trkpt>
      <trkpt lat="42.64551" lon="23.88226">
        <ele>763.730236</ele>
        <time>2022-03-08T11:35:27.762Z</time>
      </trkpt>
      <trkpt lat="42.64543" lon="23.88219">
        <ele>764.470376</ele>
        <time>2022-03-08T11:35:35.775Z</time>
      </trkpt>
      <trkpt lat="42.64536" lon="23.88211">
        <ele>765.188798</ele>
        <time>2022-03-08T11:35:42.759Z</time>
      </trkpt>
      <trkpt lat="42.64528" lon="23.88206">
        <ele>765.893869</ele>
        <time>2022-03-08T11:35:49.759Z</time>
      </trkpt>
      <trkpt lat="42.6452" lon="23.88196">
        <ele>766.71618</ele>
        <time>2022-03-08T11:35:57.783Z</time>
      </trkpt>
      <trkpt lat="42.64512" lon="23.88189">
        <ele>767.488645</ele>
        <time>2022-03-08T11:36:04.778Z</time>
      </trkpt>
      <trkpt lat="42.64505" lon="23.88179">
        <ele>768.25522</ele>
        <time>2022-03-08T11:36:11.768Z</time>
      </trkpt>
      <trkpt lat="42.64498" lon="23.88171">
        <ele>768.997726</ele>
        <time>2022-03-08T11:36:18.806Z</time>
      </trkpt>
      <trkpt lat="42.64491" lon="23.88162">
        <ele>769.710265</ele>
        <time>2022-03-08T11:36:25.772Z</time>
      </trkpt>
      <trkpt lat="42.64484" lon="23.88153">
        <ele>770.466665</ele>
        <time>2022-03-08T11:36:33.782Z</time>
      </trkpt>
      <trkpt lat="42.64476" lon="23.88146">
        <ele>771.181678</ele>
        <time>2022-03-08T11:36:41.767Z</time>
      </trkpt>
      <trkpt lat="42.64469" lon="23.88136">
        <ele>771.935431</ele>
        <time>2022-03-08T11:36:48.755Z</time>
      </trkpt>
      <trkpt lat="42.64462" lon="23.88127">
        <ele>772.684162</ele>
        <time>2022-03-08T11:36:56.768Z</time>
      </trkpt>
      <trkpt lat="42.64455" lon="23.88117">
        <ele>773.40973</ele>
        <time>2022-03-08T11:37:03.768Z</time>
      </trkpt>
      <trkpt lat="42.6445" lon="23.88106">
        <ele>774.123714</ele>
        <time>2022-03-08T11:37:10.767Z</time>
      </trkpt>
      <trkpt lat="42.64444" lon="23.88095">
        <ele>774.886483</ele>
        <time>2022-03-08T11:37:17.776Z</time>
      </trkpt>
      <trkpt lat="42.64439" lon="23.88085">
        <ele>775.57507</ele>
        <time>2022-03-08T11:37:23.766Z</time>
      </trkpt>
      <trkpt lat="42.64433" lon="23.88074">
        <ele>776.316896</ele>
        <time>2022-03-08T11:37:30.760Z</time>
      </trkpt>
      <trkpt lat="42.64428" lon="23.88062">
        <ele>777.085931</ele>
        <time>2022-03-08T11:37:39.758Z</time>
      </trkpt>
      <trkpt lat="42.64424" lon="23.8805">
        <ele>777.771067</ele>
        <time>2022-03-08T11:37:47.766Z</time>
      </trkpt>
      <trkpt lat="42.64419" lon="23.88039">
        <ele>778.485705</ele>
        <time>2022-03-08T11:37:56.754Z</time>
      </trkpt>
      <trkpt lat="42.64415" lon="23.88026">
        <ele>779.256382</ele>
        <time>2022-03-08T11:38:05.765Z</time>
      </trkpt>
      <trkpt lat="42.64411" lon="23.88015">
        <ele>779.969043</ele>
        <time>2022-03-08T11:38:12.752Z</time>
      </trkpt>
      <trkpt lat="42.64406" lon="23.88004">
        <ele>780.656216</ele>
        <time>2022-03-08T11:38:19.767Z</time>
      </trkpt>
      <trkpt lat="42.64402" lon="23.87993">
        <ele>781.334743</ele>
        <time>2022-03-08T11:38:27.778Z</time>
      </trkpt>
      <trkpt lat="42.64399" lon="23.87981">
        <ele>782.01814</ele>
        <time>2022-03-08T11:38:35.778Z</time>
      </trkpt>
      <trkpt lat="42.64396" lon="23.87969">
        <ele>782.75963</ele>
        <time>2022-03-08T11:38:43.787Z</time>
      </trkpt>
      <trkpt lat="42.64391" lon="23.87957">
        <ele>783.168782</ele>
        <time>2022-03-08T11:38:51.745Z</time>
      </trkpt>
      <trkpt lat="42.64386" lon="23.87946">
        <ele>783.238209</ele>
        <time>2022-03-08T11:38:58.770Z</time>
      </trkpt>
      <trkpt lat="42.64382" lon="23.87935">
        <ele>783.303022</ele>
        <time>2022-03-08T11:39:04.768Z</time>
      </trkpt>
      <trkpt lat="42.64378" lon="23.87924">
        <ele>783.370303</ele>
        <time>2022-03-08T11:39:11.796Z</time>
      </trkpt>
      <trkpt lat="42.64375" lon="23.87911">
        <ele>783.441667</ele>
        <time>2022-03-08T11:39:19.770Z</time>
      </trkpt>
      <trkpt lat="42.64373" lon="23.87898">
        <ele>783.51263</ele>
        <time>2022-03-08T11:39:26.773Z</time>
      </trkpt>
      <trkpt lat="42.64369" lon="23.87885">
        <ele>783.584138</ele>
        <time>2022-03-08T11:39:33.804Z</time>
      </trkpt>
      <trkpt lat="42.64365" lon="23.87873">
        <ele>783.65931</ele>
        <time>2022-03-08T11:39:40.754Z</time>
      </trkpt>
      <trkpt lat="42.6436" lon="23.87861">
        <ele>783.732573</ele>
        <time>2022-03-08T11:39:47.781Z</time>
      </trkpt>
      <trkpt lat="42.64357" lon="23.87849">
        <ele>783.801614</ele>
        <time>2022-03-08T11:39:54.786Z</time>
      </trkpt>
      <trkpt lat="42.64352" lon="23.87838">
        <ele>783.867844</ele>
        <time>2022-03-08T11:40:00.775Z</time>
      </trkpt>
      <trkpt lat="42.64348" lon="23.87825">
        <ele>783.944359</ele>
        <time>2022-03-08T11:40:07.758Z</time>
      </trkpt>
      <trkpt lat="42.64344" lon="23.87814">
        <ele>784.011214</ele>
        <time>2022-03-08T11:40:13.764Z</time>
      </trkpt>
      <trkpt lat="42.64341" lon="23.878">
        <ele>784.088628</ele>
        <time>2022-03-08T11:40:19.765Z</time>
      </trkpt>
      <trkpt lat="42.64337" lon="23.87786">
        <ele>784.165873</ele>
        <time>2022-03-08T11:40:25.771Z</time>
      </trkpt>
      <trkpt lat="42.64334" lon="23.87774">
        <ele>784.23735</ele>
        <time>2022-03-08T11:40:30.766Z</time>
      </trkpt>
      <trkpt lat="42.6433" lon="23.87762">
        <ele>784.305343</ele>
        <time>2022-03-08T11:40:35.763Z</time>
      </trkpt>
      <trkpt lat="42.64327" lon="23.87749">
        <ele>784.379075</ele>
        <time>2022-03-08T11:40:41.749Z</time>
      </trkpt>
      <trkpt lat="42.64322" lon="23.87737">
        <ele>784.479956</ele>
        <time>2022-03-08T11:40:47.770Z</time>
      </trkpt>
      <trkpt lat="42.64317" lon="23.87725">
        <ele>784.710461</ele>
        <time>2022-03-08T11:40:54.758Z</time>
      </trkpt>
      <trkpt lat="42.64312" lon="23.87715">
        <ele>784.924447</ele>
        <time>2022-03-08T11:40:59.783Z</time>
      </trkpt>
      <trkpt lat="42.64307" lon="23.87704">
        <ele>785.137082</ele>
        <time>2022-03-08T11:41:05.746Z</time>
      </trkpt>
      <trkpt lat="42.64302" lon="23.87693">
        <ele>785.367588</ele>
        <time>2022-03-08T11:41:11.764Z</time>
      </trkpt>
      <trkpt lat="42.64296" lon="23.87683">
        <ele>785.595158</ele>
        <time>2022-03-08T11:41:17.784Z</time>
      </trkpt>
      <trkpt lat="42.6429" lon="23.87673">
        <ele>785.807463</ele>
        <time>2022-03-08T11:41:23.785Z</time>
      </trkpt>
      <trkpt lat="42.64284" lon="23.87663">
        <ele>786.031399</ele>
        <time>2022-03-08T11:41:29.757Z</time>
      </trkpt>
      <trkpt lat="42.64278" lon="23.87653">
        <ele>786.251697</ele>
        <time>2022-03-08T11:41:35.768Z</time>
      </trkpt>
      <trkpt lat="42.6427" lon="23.87645">
        <ele>786.488161</ele>
        <time>2022-03-08T11:41:41.780Z</time>
      </trkpt>
      <trkpt lat="42.64261" lon="23.87637">
        <ele>786.731305</ele>
        <time>2022-03-08T11:41:48.766Z</time>
      </trkpt>
      <trkpt lat="42.64253" lon="23.8763">
        <ele>786.963708</ele>
        <time>2022-03-08T11:41:55.767Z</time>
      </trkpt>
      <trkpt lat="42.64246" lon="23.87623">
        <ele>787.178653</ele>
        <time>2022-03-08T11:42:01.767Z</time>
      </trkpt>
      <trkpt lat="42.64238" lon="23.87616">
        <ele>787.389733</ele>
        <time>2022-03-08T11:42:08.781Z</time>
      </trkpt>
      <trkpt lat="42.6423" lon="23.87608">
        <ele>787.63082</ele>
        <time>2022-03-08T11:42:15.767Z</time>
      </trkpt>
      <trkpt lat="42.64222" lon="23.876">
        <ele>787.858565</ele>
        <time>2022-03-08T11:42:21.770Z</time>
      </trkpt>
      <trkpt lat="42.64214" lon="23.87592">
        <ele>788.09025</ele>
        <time>2022-03-08T11:42:27.766Z</time>
      </trkpt>
      <trkpt lat="42.64206" lon="23.87584">
        <ele>788.317433</ele>
        <time>2022-03-08T11:42:33.773Z</time>
      </trkpt>
      <trkpt lat="42.64199" lon="23.87574">
        <ele>788.557455</ele>
        <time>2022-03-08T11:42:40.773Z</time>
      </trkpt>
      <trkpt lat="42.64192" lon="23.87565">
        <ele>789.217865</ele>
        <time>2022-03-08T11:42:47.769Z</time>
      </trkpt>
      <trkpt lat="42.64185" lon="23.87555">
        <ele>790.202787</ele>
        <time>2022-03-08T11:42:54.766Z</time>
      </trkpt>
      <trkpt lat="42.64178" lon="23.87545">
        <ele>791.179958</ele>
        <time>2022-03-08T11:43:02.760Z</time>
      </trkpt>
      <trkpt lat="42.64172" lon="23.87536">
        <ele>792.117972</ele>
        <time>2022-03-08T11:43:09.833Z</time>
      </trkpt>
      <trkpt lat="42.64166" lon="23.87525">
        <ele>793.109284</ele>
        <time>2022-03-08T11:43:17.778Z</time>
      </trkpt>
      <trkpt lat="42.64161" lon="23.87513">
        <ele>794.082001</ele>
        <time>2022-03-08T11:43:25.775Z</time>
      </trkpt>
      <trkpt lat="42.64156" lon="23.87502">
        <ele>795.04221</ele>
        <time>2022-03-08T11:43:33.759Z</time>
      </trkpt>
      <trkpt lat="42.64152" lon="23.8749">
        <ele>795.948437</ele>
        <time>2022-03-08T11:43:40.768Z</time>
      </trkpt>
      <trkpt lat="42.64148" lon="23.87478">
        <ele>796.947714</ele>
        <time>2022-03-08T11:43:48.797Z</time>
      </trkpt>
      <trkpt lat="42.64145" lon="23.87466">
        <ele>797.908028</ele>
        <time>2022-03-08T11:43:55.780Z</time>
      </trkpt>
      <trkpt lat="42.64142" lon="23.87453">
        <ele>798.851197</ele>
        <time>2022-03-08T11:44:03.755Z</time>
      </trkpt>
      <trkpt lat="42.6414" lon="23.87439">
        <ele>799.882855</ele>
        <time>2022-03-08T11:44:11.776Z</time>
      </trkpt>
      <trkpt lat="42.64138" lon="23.87427">
        <ele>800.815645</ele>
        <time>2022-03-08T11:44:18.767Z</time>
      </trkpt>
      <trkpt lat="42.64136" lon="23.87415">
        <ele>801.721161</ele>
        <time>2022-03-08T11:44:25.764Z</time>
      </trkpt>
      <trkpt lat="42.64134" lon="23.87403">
        <ele>802.631179</ele>
        <time>2022-03-08T11:44:32.791Z</time>
      </trkpt>
      <trkpt lat="42.64131" lon="23.87391">
        <ele>803.545842</ele>
        <time>2022-03-08T11:44:39.759Z</time>
      </trkpt>
      <trkpt lat="42.6413" lon="23.87377">
        <ele>804.547214</ele>
        <time>2022-03-08T11:44:47.770Z</time>
      </trkpt>
      <trkpt lat="42.64128" lon="23.87364">
        <ele>805.503296</ele>
        <time>2022-03-08T11:44:55.769Z</time>
      </trkpt>
      <trkpt lat="42.64126" lon="23.87352">
        <ele>806.400301</ele>
        <time>2022-03-08T11:45:02.759Z</time>
      </trkpt>
      <trkpt lat="42.64125" lon="23.87339">
        <ele>807.187399</ele>
        <time>2022-03-08T11:45:09.766Z</time>
      </trkpt>
      <trkpt lat="42.64124" lon="23.87326">
        <ele>807.92946</ele>
        <time>2022-03-08T11:45:16.776Z</time>
      </trkpt>
      <trkpt lat="42.64122" lon="23.87313">
        <ele>808.723557</ele>
        <time>2022-03-08T11:45:24.773Z</time>
      </trkpt>
      <trkpt lat="42.6412" lon="23.873">
        <ele>809.522326</ele>
        <time>2022-03-08T11:45:33.769Z</time>
      </trkpt>
      <trkpt lat="42.64117" lon="23.87287">
        <ele>810.29913</ele>
        <time>2022-03-08T11:45:41.773Z</time>
      </trkpt>
      <trkpt lat="42.64115" lon="23.87276">
        <ele>811.028443</ele>
        <time>2022-03-08T11:45:48.763Z</time>
      </trkpt>
      <trkpt lat="42.64112" lon="23.87264">
        <ele>811.748955</ele>
        <time>2022-03-08T11:45:55.797Z</time>
      </trkpt>
      <trkpt lat="42.64108" lon="23.87252">
        <ele>812.529951</ele>
        <time>2022-03-08T11:46:02.768Z</time>
      </trkpt>
      <trkpt lat="42.64106" lon="23.87239">
        <ele>813.313315</ele>
        <time>2022-03-08T11:46:09.762Z</time>
      </trkpt>
      <trkpt lat="42.64103" lon="23.87226">
        <ele>814.116556</ele>
        <time>2022-03-08T11:46:17.765Z</time>
      </trkpt>
      <trkpt lat="42.64099" lon="23.87213">
        <ele>814.92801</ele>
        <time>2022-03-08T11:46:25.784Z</time>
      </trkpt>
      <trkpt lat="42.64096" lon="23.872">
        <ele>815.717715</ele>
        <time>2022-03-08T11:46:33.795Z</time>
      </trkpt>
      <trkpt lat="42.64092" lon="23.87189">
        <ele>816.471924</ele>
        <time>2022-03-08T11:46:40.765Z</time>
      </trkpt>
      <trkpt lat="42.64088" lon="23.87177">
        <ele>817.217337</ele>
        <time>2022-03-08T11:46:48.772Z</time>
      </trkpt>
      <trkpt lat="42.64085" lon="23.87165">
        <ele>817.979801</ele>
        <time>2022-03-08T11:46:56.792Z</time>
      </trkpt>
      <trkpt lat="42.64081" lon="23.87154">
        <ele>818.734612</ele>
        <time>2022-03-08T11:47:03.770Z</time>
      </trkpt>
      <trkpt lat="42.64077" lon="23.87141">
        <ele>819.519671</ele>
        <time>2022-03-08T11:47:11.764Z</time>
      </trkpt>
      <trkpt lat="42.64073" lon="23.8713">
        <ele>820.293313</ele>
        <time>2022-03-08T11:47:19.771Z</time>
      </trkpt>
      <trkpt lat="42.64068" lon="23.87118">
        <ele>820.959106</ele>
        <time>2022-03-08T11:47:26.764Z</time>
      </trkpt>
      <trkpt lat="42.64064" lon="23.87107">
        <ele>821.340458</ele>
        <time>2022-03-08T11:47:34.771Z</time>
      </trkpt>
      <trkpt lat="42.64061" lon="23.87095">
        <ele>821.711528</ele>
        <time>2022-03-08T11:47:41.776Z</time>
      </trkpt>
      <trkpt lat="42.64057" lon="23.87083">
        <ele>822.080428</ele>
        <time>2022-03-08T11:47:48.777Z</time>
      </trkpt>
      <trkpt lat="42.64053" lon="23.87071">
        <ele>822.468833</ele>
        <time>2022-03-08T11:47:55.773Z</time>
      </trkpt>
      <trkpt lat="42.6405" lon="23.87059">
        <ele>822.84183</ele>
        <time>2022-03-08T11:48:02.804Z</time>
      </trkpt>
      <trkpt lat="42.64046" lon="23.87048">
        <ele>823.205653</ele>
        <time>2022-03-08T11:48:09.789Z</time>
      </trkpt>
      <trkpt lat="42.64041" lon="23.87037">
        <ele>823.579273</ele>
        <time>2022-03-08T11:48:18.806Z</time>
      </trkpt>
      <trkpt lat="42.64037" lon="23.87024">
        <ele>823.97874</ele>
        <time>2022-03-08T11:48:27.767Z</time>
      </trkpt>
      <trkpt lat="42.64034" lon="23.87013">
        <ele>824.339725</ele>
        <time>2022-03-08T11:48:34.778Z</time>
      </trkpt>
      <trkpt lat="42.6403" lon="23.87001">
        <ele>824.713468</ele>
        <time>2022-03-08T11:48:43.754Z</time>
      </trkpt>
      <trkpt lat="42.64025" lon="23.86991">
        <ele>825.07898</ele>
        <time>2022-03-08T11:48:51.807Z</time>
      </trkpt>
      <trkpt lat="42.64022" lon="23.86978">
        <ele>825.458926</ele>
        <time>2022-03-08T11:49:00.778Z</time>
      </trkpt>
      <trkpt lat="42.64018" lon="23.86966">
        <ele>825.858097</ele>
        <time>2022-03-08T11:49:08.791Z</time>
      </trkpt>
      <trkpt lat="42.64015" lon="23.86954">
        <ele>826.216008</ele>
        <time>2022-03-08T11:49:16.759Z</time>
      </trkpt>
      <trkpt lat="42.64012" lon="23.86942">
        <ele>826.589063</ele>
        <time>2022-03-08T11:49:24.781Z</time>
      </trkpt>
      <trkpt lat="42.64009" lon="23.8693">
        <ele>826.950714</ele>
        <time>2022-03-08T11:49:31.775Z</time>
      </trkpt>
      <trkpt lat="42.64007" lon="23.86918">
        <ele>827.334897</ele>
        <time>2022-03-08T11:49:39.776Z</time>
      </trkpt>
      <trkpt lat="42.64006" lon="23.86905">
        <ele>827.715537</ele>
        <time>2022-03-08T11:49:47.802Z</time>
      </trkpt>
      <trkpt lat="42.64005" lon="23.86891">
        <ele>828.112813</ele>
        <time>2022-03-08T11:49:56.764Z</time>
      </trkpt>
      <trkpt lat="42.64004" lon="23.86879">
        <ele>828.51451</ele>
        <time>2022-03-08T11:50:04.772Z</time>
      </trkpt>
      <trkpt lat="42.64005" lon="23.86865">
        <ele>828.934425</ele>
        <time>2022-03-08T11:50:12.762Z</time>
      </trkpt>
      <trkpt lat="42.64004" lon="23.86852">
        <ele>829.350865</ele>
        <time>2022-03-08T11:50:21.810Z</time>
      </trkpt>
      <trkpt lat="42.64005" lon="23.8684">
        <ele>829.740151</ele>
        <time>2022-03-08T11:50:30.776Z</time>
      </trkpt>
      <trkpt lat="42.64005" lon="23.86827">
        <ele>830.124092</ele>
        <time>2022-03-08T11:50:39.775Z</time>
      </trkpt>
      <trkpt lat="42.64005" lon="23.86814">
        <ele>830.529873</ele>
        <time>2022-03-08T11:50:47.772Z</time>
      </trkpt>
      <trkpt lat="42.64005" lon="23.86801">
        <ele>830.932467</ele>
        <time>2022-03-08T11:50:55.777Z</time>
      </trkpt>
      <trkpt lat="42.64004" lon="23.86788">
        <ele>831.348907</ele>
        <time>2022-03-08T11:51:03.772Z</time>
      </trkpt>
      <trkpt lat="42.64004" lon="23.86775">
        <ele>831.754621</ele>
        <time>2022-03-08T11:51:11.819Z</time>
      </trkpt>
      <trkpt lat="42.64005" lon="23.86763">
        <ele>832.145286</ele>
        <time>2022-03-08T11:51:20.781Z</time>
      </trkpt>
      <trkpt lat="42.64004" lon="23.8675">
        <ele>832.539958</ele>
        <time>2022-03-08T11:51:28.774Z</time>
      </trkpt>
      <trkpt lat="42.64004" lon="23.86737">
        <ele>832.958219</ele>
        <time>2022-03-08T11:51:36.757Z</time>
      </trkpt>
      <trkpt lat="42.64003" lon="23.86724">
        <ele>833.352</ele>
        <time>2022-03-08T11:51:43.768Z</time>
      </trkpt>
      <trkpt lat="42.64005" lon="23.8671">
        <ele>833.782558</ele>
        <time>2022-03-08T11:51:51.773Z</time>
      </trkpt>
      <trkpt lat="42.64006" lon="23.86697">
        <ele>834.190925</ele>
        <time>2022-03-08T11:52:00.803Z</time>
      </trkpt>
      <trkpt lat="42.64006" lon="23.86684">
        <ele>834.590466</ele>
        <time>2022-03-08T11:52:08.754Z</time>
      </trkpt>
      <trkpt lat="42.64004" lon="23.86671">
        <ele>835.006659</ele>
        <time>2022-03-08T11:52:17.783Z</time>
      </trkpt>
      <trkpt lat="42.64003" lon="23.86658">
        <ele>835.407549</ele>
        <time>2022-03-08T11:52:26.771Z</time>
      </trkpt>
      <trkpt lat="42.64003" lon="23.86645">
        <ele>835.809297</ele>
        <time>2022-03-08T11:52:34.764Z</time>
      </trkpt>
      <trkpt lat="42.64002" lon="23.86632">
        <ele>836.192938</ele>
        <time>2022-03-08T11:52:43.752Z</time>
      </trkpt>
      <trkpt lat="42.63999" lon="23.8662">
        <ele>836.558804</ele>
        <time>2022-03-08T11:52:51.819Z</time>
      </trkpt>
      <trkpt lat="42.63996" lon="23.86607">
        <ele>836.93401</ele>
        <time>2022-03-08T11:52:59.764Z</time>
      </trkpt>
      <trkpt lat="42.63993" lon="23.86595">
        <ele>837.315677</ele>
        <time>2022-03-08T11:53:07.810Z</time>
      </trkpt>
      <trkpt lat="42.63989" lon="23.86583">
        <ele>837.676101</ele>
        <time>2022-03-08T11:53:14.766Z</time>
      </trkpt>
      <trkpt lat="42.63985" lon="23.8657">
        <ele>838.070331</ele>
        <time>2022-03-08T11:53:23.770Z</time>
      </trkpt>
      <trkpt lat="42.6398" lon="23.86559">
        <ele>838.452044</ele>
        <time>2022-03-08T11:53:30.760Z</time>
      </trkpt>
      <trkpt lat="42.63975" lon="23.86547">
        <ele>838.844143</ele>
        <time>2022-03-08T11:53:37.784Z</time>
      </trkpt>
      <trkpt lat="42.63971" lon="23.86536">
        <ele>839.193949</ele>
        <time>2022-03-08T11:53:43.760Z</time>
      </trkpt>
      <trkpt lat="42.63965" lon="23.86525">
        <ele>839.559901</ele>
        <time>2022-03-08T11:53:49.778Z</time>
      </trkpt>
      <trkpt lat="42.6396" lon="23.86513">
        <ele>839.961326</ele>
        <time>2022-03-08T11:53:55.771Z</time>
      </trkpt>
      <trkpt lat="42.63955" lon="23.86503">
        <ele>840.317811</ele>
        <time>2022-03-08T11:54:01.772Z</time>
      </trkpt>
      <trkpt lat="42.63949" lon="23.86492">
        <ele>840.695188</ele>
        <time>2022-03-08T11:54:07.765Z</time>
      </trkpt>
      <trkpt lat="42.63945" lon="23.86481">
        <ele>841.066228</ele>
        <time>2022-03-08T11:54:12.804Z</time>
      </trkpt>
      <trkpt lat="42.6394" lon="23.86469">
        <ele>841.462266</ele>
        <time>2022-03-08T11:54:18.808Z</time>
      </trkpt>
      <trkpt lat="42.63934" lon="23.86456">
        <ele>841.877478</ele>
        <time>2022-03-08T11:54:24.761Z</time>
      </trkpt>
      <trkpt lat="42.63929" lon="23.86444">
        <ele>842.290675</ele>
        <time>2022-03-08T11:54:29.807Z</time>
      </trkpt>
      <trkpt lat="42.63923" lon="23.86432">
        <ele>842.570662</ele>
        <time>2022-03-08T11:54:34.764Z</time>
      </trkpt>
      <trkpt lat="42.63917" lon="23.86419">
        <ele>842.186777</ele>
        <time>2022-03-08T11:54:39.778Z</time>
      </trkpt>
      <trkpt lat="42.63912" lon="23.86409">
        <ele>841.848324</ele>
        <time>2022-03-08T11:54:43.763Z</time>
      </trkpt>
      <trkpt lat="42.63907" lon="23.86395">
        <ele>841.422872</ele>
        <time>2022-03-08T11:54:47.759Z</time>
      </trkpt>
      <trkpt lat="42.63902" lon="23.86381">
        <ele>840.994394</ele>
        <time>2022-03-08T11:54:51.766Z</time>
      </trkpt>
      <trkpt lat="42.63898" lon="23.86367">
        <ele>840.584394</ele>
        <time>2022-03-08T11:54:55.777Z</time>
      </trkpt>
      <trkpt lat="42.63894" lon="23.86354">
        <ele>840.206934</ele>
        <time>2022-03-08T11:54:59.788Z</time>
      </trkpt>
      <trkpt lat="42.63892" lon="23.86341">
        <ele>839.822155</ele>
        <time>2022-03-08T11:55:03.751Z</time>
      </trkpt>
      <trkpt lat="42.6389" lon="23.86324">
        <ele>839.373377</ele>
        <time>2022-03-08T11:55:07.771Z</time>
      </trkpt>
      <trkpt lat="42.63889" lon="23.8631">
        <ele>838.993</ele>
        <time>2022-03-08T11:55:10.776Z</time>
      </trkpt>
      <trkpt lat="42.63888" lon="23.86295">
        <ele>838.585141</ele>
        <time>2022-03-08T11:55:13.775Z</time>
      </trkpt>
      <trkpt lat="42.63888" lon="23.86281">
        <ele>838.183993</ele>
        <time>2022-03-08T11:55:16.769Z</time>
      </trkpt>
      <trkpt lat="42.63888" lon="23.86266">
        <ele>837.78593</ele>
        <time>2022-03-08T11:55:19.776Z</time>
      </trkpt>
      <trkpt lat="42.63888" lon="23.8625">
        <ele>837.338853</ele>
        <time>2022-03-08T11:55:22.774Z</time>
      </trkpt>
      <trkpt lat="42.63889" lon="23.86233">
        <ele>836.868522</ele>
        <time>2022-03-08T11:55:25.764Z</time>
      </trkpt>
      <trkpt lat="42.6389" lon="23.86214">
        <ele>836.365287</ele>
        <time>2022-03-08T11:55:28.781Z</time>
      </trkpt>
      <trkpt lat="42.63891" lon="23.86201">
        <ele>836.007242</ele>
        <time>2022-03-08T11:55:30.774Z</time>
      </trkpt>
      <trkpt lat="42.63892" lon="23.86188">
        <ele>835.576971</ele>
        <time>2022-03-08T11:55:32.759Z</time>
      </trkpt>
      <trkpt lat="42.63893" lon="23.86175">
        <ele>835.154015</ele>
        <time>2022-03-08T11:55:34.764Z</time>
      </trkpt>
      <trkpt lat="42.63894" lon="23.8616">
        <ele>834.695551</ele>
        <time>2022-03-08T11:55:36.760Z</time>
      </trkpt>
      <trkpt lat="42.63894" lon="23.86144">
        <ele>834.167531</ele>
        <time>2022-03-08T11:55:38.777Z</time>
      </trkpt>
      <trkpt lat="42.63894" lon="23.86127">
        <ele>833.616197</ele>
        <time>2022-03-08T11:55:40.777Z</time>
      </trkpt>
      <trkpt lat="42.63895" lon="23.86109">
        <ele>833.028982</ele>
        <time>2022-03-08T11:55:42.815Z</time>
      </trkpt>
      <trkpt lat="42.63897" lon="23.8609">
        <ele>832.418293</ele>
        <time>2022-03-08T11:55:44.767Z</time>
      </trkpt>
      <trkpt lat="42.63897" lon="23.86071">
        <ele>831.821955</ele>
        <time>2022-03-08T11:55:46.776Z</time>
      </trkpt>
      <trkpt lat="42.63898" lon="23.86054">
        <ele>831.251554</ele>
        <time>2022-03-08T11:55:48.807Z</time>
      </trkpt>
      <trkpt lat="42.63899" lon="23.86035">
        <ele>830.661127</ele>
        <time>2022-03-08T11:55:50.769Z</time>
      </trkpt>
      <trkpt lat="42.639" lon="23.86016">
        <ele>830.047231</ele>
        <time>2022-03-08T11:55:52.757Z</time>
      </trkpt>
      <trkpt lat="42.63901" lon="23.85996">
        <ele>829.402189</ele>
        <time>2022-03-08T11:55:54.756Z</time>
      </trkpt>
      <trkpt lat="42.63902" lon="23.85975">
        <ele>828.726184</ele>
        <time>2022-03-08T11:55:56.776Z</time>
      </trkpt>
      <trkpt lat="42.63904" lon="23.85955">
        <ele>828.03727</ele>
        <time>2022-03-08T11:55:58.763Z</time>
      </trkpt>
      <trkpt lat="42.63905" lon="23.85933">
        <ele>827.149562</ele>
        <time>2022-03-08T11:56:00.795Z</time>
      </trkpt>
      <trkpt lat="42.63907" lon="23.85912">
        <ele>826.24324</ele>
        <time>2022-03-08T11:56:02.758Z</time>
      </trkpt>
      <trkpt lat="42.63909" lon="23.85889">
        <ele>825.278214</ele>
        <time>2022-03-08T11:56:04.765Z</time>
      </trkpt>
      <trkpt lat="42.63911" lon="23.85867">
        <ele>824.328254</ele>
        <time>2022-03-08T11:56:06.777Z</time>
      </trkpt>
      <trkpt lat="42.63915" lon="23.85845">
        <ele>823.411086</ele>
        <time>2022-03-08T11:56:08.764Z</time>
      </trkpt>
      <trkpt lat="42.6392" lon="23.85825">
        <ele>822.497289</ele>
        <time>2022-03-08T11:56:10.779Z</time>
      </trkpt>
      <trkpt lat="42.63927" lon="23.85805">
        <ele>821.561565</ele>
        <time>2022-03-08T11:56:12.761Z</time>
      </trkpt>
      <trkpt lat="42.63935" lon="23.85785">
        <ele>820.617231</ele>
        <time>2022-03-08T11:56:14.768Z</time>
      </trkpt>
      <trkpt lat="42.63944" lon="23.85766">
        <ele>819.660755</ele>
        <time>2022-03-08T11:56:16.777Z</time>
      </trkpt>
      <trkpt lat="42.63953" lon="23.85747">
        <ele>818.733778</ele>
        <time>2022-03-08T11:56:18.772Z</time>
      </trkpt>
      <trkpt lat="42.63963" lon="23.8573">
        <ele>817.819459</ele>
        <time>2022-03-08T11:56:20.774Z</time>
      </trkpt>
      <trkpt lat="42.63972" lon="23.85713">
        <ele>817.002528</ele>
        <time>2022-03-08T11:56:22.769Z</time>
      </trkpt>
      <trkpt lat="42.63981" lon="23.85696">
        <ele>816.182433</ele>
        <time>2022-03-08T11:56:24.779Z</time>
      </trkpt>
      <trkpt lat="42.6399" lon="23.85678">
        <ele>815.349335</ele>
        <time>2022-03-08T11:56:26.770Z</time>
      </trkpt>
      <trkpt lat="42.63999" lon="23.8566">
        <ele>814.494548</ele>
        <time>2022-03-08T11:56:28.771Z</time>
      </trkpt>
      <trkpt lat="42.64008" lon="23.85642">
        <ele>813.667843</ele>
        <time>2022-03-08T11:56:30.757Z</time>
      </trkpt>
      <trkpt lat="42.64017" lon="23.85624">
        <ele>812.822418</ele>
        <time>2022-03-08T11:56:32.768Z</time>
      </trkpt>
      <trkpt lat="42.64028" lon="23.85607">
        <ele>811.93562</ele>
        <time>2022-03-08T11:56:34.813Z</time>
      </trkpt>
      <trkpt lat="42.64039" lon="23.85591">
        <ele>811.091847</ele>
        <time>2022-03-08T11:56:36.786Z</time>
      </trkpt>
      <trkpt lat="42.64052" lon="23.85578">
        <ele>810.247209</ele>
        <time>2022-03-08T11:56:38.776Z</time>
      </trkpt>
      <trkpt lat="42.64067" lon="23.85568">
        <ele>809.364092</ele>
        <time>2022-03-08T11:56:40.782Z</time>
      </trkpt>
      <trkpt lat="42.64083" lon="23.85558">
        <ele>808.44225</ele>
        <time>2022-03-08T11:56:42.753Z</time>
      </trkpt>
      <trkpt lat="42.64099" lon="23.85549">
        <ele>807.872594</ele>
        <time>2022-03-08T11:56:44.771Z</time>
      </trkpt>
      <trkpt lat="42.64115" lon="23.85539">
        <ele>807.336946</ele>
        <time>2022-03-08T11:56:46.788Z</time>
      </trkpt>
      <trkpt lat="42.64123" lon="23.85534">
        <ele>807.054031</ele>
        <time>2022-03-08T11:56:47.775Z</time>
      </trkpt>
      <trkpt lat="42.64131" lon="23.85529">
        <ele>806.770087</ele>
        <time>2022-03-08T11:56:48.755Z</time>
      </trkpt>
      <trkpt lat="42.64147" lon="23.85519">
        <ele>806.220217</ele>
        <time>2022-03-08T11:56:50.775Z</time>
      </trkpt>
      <trkpt lat="42.64163" lon="23.85509">
        <ele>805.700768</ele>
        <time>2022-03-08T11:56:52.772Z</time>
      </trkpt>
      <trkpt lat="42.64177" lon="23.85501">
        <ele>805.22463</ele>
        <time>2022-03-08T11:56:54.762Z</time>
      </trkpt>
      <trkpt lat="42.64191" lon="23.85498">
        <ele>804.769546</ele>
        <time>2022-03-08T11:56:56.768Z</time>
      </trkpt>
      <trkpt lat="42.64207" lon="23.85498">
        <ele>804.286509</ele>
        <time>2022-03-08T11:56:58.765Z</time>
      </trkpt>
      <trkpt lat="42.64223" lon="23.85501">
        <ele>803.783175</ele>
        <time>2022-03-08T11:57:00.780Z</time>
      </trkpt>
      <trkpt lat="42.64238" lon="23.85509">
        <ele>803.25322</ele>
        <time>2022-03-08T11:57:02.766Z</time>
      </trkpt>
      <trkpt lat="42.64247" lon="23.85516">
        <ele>802.955076</ele>
        <time>2022-03-08T11:57:03.775Z</time>
      </trkpt>
      <trkpt lat="42.64255" lon="23.85522">
        <ele>802.664703</ele>
        <time>2022-03-08T11:57:04.769Z</time>
      </trkpt>
      <trkpt lat="42.64264" lon="23.85529">
        <ele>802.391173</ele>
        <time>2022-03-08T11:57:05.764Z</time>
      </trkpt>
      <trkpt lat="42.64272" lon="23.85536">
        <ele>802.124761</ele>
        <time>2022-03-08T11:57:06.762Z</time>
      </trkpt>
      <trkpt lat="42.6428" lon="23.85542">
        <ele>801.864123</ele>
        <time>2022-03-08T11:57:07.765Z</time>
      </trkpt>
      <trkpt lat="42.64289" lon="23.85548">
        <ele>801.610237</ele>
        <time>2022-03-08T11:57:08.763Z</time>
      </trkpt>
      <trkpt lat="42.64304" lon="23.85559">
        <ele>801.12504</ele>
        <time>2022-03-08T11:57:10.759Z</time>
      </trkpt>
      <trkpt lat="42.64319" lon="23.85569">
        <ele>800.673851</ele>
        <time>2022-03-08T11:57:12.764Z</time>
      </trkpt>
      <trkpt lat="42.64334" lon="23.85575">
        <ele>800.247414</ele>
        <time>2022-03-08T11:57:14.773Z</time>
      </trkpt>
      <trkpt lat="42.64349" lon="23.85577">
        <ele>799.846917</ele>
        <time>2022-03-08T11:57:16.771Z</time>
      </trkpt>
      <trkpt lat="42.64362" lon="23.85575">
        <ele>799.462216</ele>
        <time>2022-03-08T11:57:18.811Z</time>
      </trkpt>
      <trkpt lat="42.64375" lon="23.85568">
        <ele>799.097391</ele>
        <time>2022-03-08T11:57:20.756Z</time>
      </trkpt>
      <trkpt lat="42.64383" lon="23.85558">
        <ele>798.800686</ele>
        <time>2022-03-08T11:57:22.759Z</time>
      </trkpt>
      <trkpt lat="42.64389" lon="23.85548">
        <ele>798.540731</ele>
        <time>2022-03-08T11:57:24.771Z</time>
      </trkpt>
      <trkpt lat="42.64395" lon="23.85534">
        <ele>798.215321</ele>
        <time>2022-03-08T11:57:27.767Z</time>
      </trkpt>
      <trkpt lat="42.64399" lon="23.85522">
        <ele>797.94954</ele>
        <time>2022-03-08T11:57:30.763Z</time>
      </trkpt>
      <trkpt lat="42.64402" lon="23.85509">
        <ele>797.800271</ele>
        <time>2022-03-08T11:57:34.771Z</time>
      </trkpt>
      <trkpt lat="42.64404" lon="23.85493">
        <ele>797.731349</ele>
        <time>2022-03-08T11:57:39.789Z</time>
      </trkpt>
      <trkpt lat="42.64403" lon="23.85478">
        <ele>797.664518</ele>
        <time>2022-03-08T11:57:43.771Z</time>
      </trkpt>
      <trkpt lat="42.64402" lon="23.85463">
        <ele>797.597396</ele>
        <time>2022-03-08T11:57:47.780Z</time>
      </trkpt>
      <trkpt lat="42.64404" lon="23.8545">
        <ele>797.538749</ele>
        <time>2022-03-08T11:57:51.791Z</time>
      </trkpt>
      <trkpt lat="42.64405" lon="23.85437">
        <ele>797.478985</ele>
        <time>2022-03-08T11:57:55.773Z</time>
      </trkpt>
      <trkpt lat="42.64405" lon="23.85422">
        <ele>797.411832</ele>
        <time>2022-03-08T11:57:59.781Z</time>
      </trkpt>
      <trkpt lat="42.64405" lon="23.85407">
        <ele>797.345223</ele>
        <time>2022-03-08T11:58:03.760Z</time>
      </trkpt>
      <trkpt lat="42.64404" lon="23.85393">
        <ele>797.279283</ele>
        <time>2022-03-08T11:58:07.783Z</time>
      </trkpt>
      <trkpt lat="42.64404" lon="23.85377">
        <ele>797.210375</ele>
        <time>2022-03-08T11:58:11.762Z</time>
      </trkpt>
      <trkpt lat="42.64403" lon="23.85364">
        <ele>797.152233</ele>
        <time>2022-03-08T11:58:14.794Z</time>
      </trkpt>
      <trkpt lat="42.64404" lon="23.8535">
        <ele>797.087836</ele>
        <time>2022-03-08T11:58:17.775Z</time>
      </trkpt>
      <trkpt lat="42.64404" lon="23.85334">
        <ele>797.017971</ele>
        <time>2022-03-08T11:58:20.755Z</time>
      </trkpt>
      <trkpt lat="42.64404" lon="23.85317">
        <ele>796.940037</ele>
        <time>2022-03-08T11:58:23.758Z</time>
      </trkpt>
      <trkpt lat="42.64403" lon="23.85305">
        <ele>796.885497</ele>
        <time>2022-03-08T11:58:25.779Z</time>
      </trkpt>
      <trkpt lat="42.64405" lon="23.85287">
        <ele>796.807251</ele>
        <time>2022-03-08T11:58:28.764Z</time>
      </trkpt>
      <trkpt lat="42.64405" lon="23.85275">
        <ele>796.750808</ele>
        <time>2022-03-08T11:58:30.813Z</time>
      </trkpt>
      <trkpt lat="42.64406" lon="23.85256">
        <ele>796.758717</ele>
        <time>2022-03-08T11:58:33.753Z</time>
      </trkpt>
      <trkpt lat="42.64407" lon="23.85244">
        <ele>796.766541</ele>
        <time>2022-03-08T11:58:35.763Z</time>
      </trkpt>
      <trkpt lat="42.64408" lon="23.85231">
        <ele>796.774874</ele>
        <time>2022-03-08T11:58:37.767Z</time>
      </trkpt>
      <trkpt lat="42.64411" lon="23.85218">
        <ele>796.78364</ele>
        <time>2022-03-08T11:58:39.783Z</time>
      </trkpt>
      <trkpt lat="42.64415" lon="23.85204">
        <ele>796.793237</ele>
        <time>2022-03-08T11:58:41.799Z</time>
      </trkpt>
      <trkpt lat="42.64421" lon="23.85192">
        <ele>796.802553</ele>
        <time>2022-03-08T11:58:43.762Z</time>
      </trkpt>
      <trkpt lat="42.64427" lon="23.8518">
        <ele>796.811704</ele>
        <time>2022-03-08T11:58:45.784Z</time>
      </trkpt>
      <trkpt lat="42.64435" lon="23.85169">
        <ele>796.821412</ele>
        <time>2022-03-08T11:58:47.773Z</time>
      </trkpt>
      <trkpt lat="42.64445" lon="23.85161">
        <ele>796.83152</ele>
        <time>2022-03-08T11:58:49.759Z</time>
      </trkpt>
      <trkpt lat="42.64457" lon="23.85154">
        <ele>796.842687</ele>
        <time>2022-03-08T11:58:51.761Z</time>
      </trkpt>
      <trkpt lat="42.6447" lon="23.85147">
        <ele>796.85529</ele>
        <time>2022-03-08T11:58:53.785Z</time>
      </trkpt>
      <trkpt lat="42.64484" lon="23.85139">
        <ele>796.868206</ele>
        <time>2022-03-08T11:58:55.792Z</time>
      </trkpt>
      <trkpt lat="42.64499" lon="23.85131">
        <ele>796.882118</ele>
        <time>2022-03-08T11:58:57.782Z</time>
      </trkpt>
      <trkpt lat="42.64514" lon="23.85123">
        <ele>796.896603</ele>
        <time>2022-03-08T11:58:59.770Z</time>
      </trkpt>
      <trkpt lat="42.64531" lon="23.85114">
        <ele>796.3009</ele>
        <time>2022-03-08T11:59:01.779Z</time>
      </trkpt>
      <trkpt lat="42.64539" lon="23.85108">
        <ele>795.733461</ele>
        <time>2022-03-08T11:59:02.777Z</time>
      </trkpt>
      <trkpt lat="42.64547" lon="23.85101">
        <ele>795.157612</ele>
        <time>2022-03-08T11:59:03.791Z</time>
      </trkpt>
      <trkpt lat="42.64554" lon="23.85092">
        <ele>794.565418</ele>
        <time>2022-03-08T11:59:04.777Z</time>
      </trkpt>
      <trkpt lat="42.64561" lon="23.85083">
        <ele>793.963571</ele>
        <time>2022-03-08T11:59:05.779Z</time>
      </trkpt>
      <trkpt lat="42.64567" lon="23.85073">
        <ele>793.381753</ele>
        <time>2022-03-08T11:59:06.772Z</time>
      </trkpt>
      <trkpt lat="42.64572" lon="23.85063">
        <ele>792.808355</ele>
        <time>2022-03-08T11:59:07.757Z</time>
      </trkpt>
      <trkpt lat="42.64577" lon="23.85052">
        <ele>792.241885</ele>
        <time>2022-03-08T11:59:08.785Z</time>
      </trkpt>
      <trkpt lat="42.64586" lon="23.85032">
        <ele>791.171576</ele>
        <time>2022-03-08T11:59:10.775Z</time>
      </trkpt>
      <trkpt lat="42.64595" lon="23.85012">
        <ele>790.113826</ele>
        <time>2022-03-08T11:59:12.772Z</time>
      </trkpt>
      <trkpt lat="42.64604" lon="23.84991">
        <ele>789.019362</ele>
        <time>2022-03-08T11:59:14.779Z</time>
      </trkpt>
      <trkpt lat="42.64613" lon="23.8497">
        <ele>787.934963</ele>
        <time>2022-03-08T11:59:16.765Z</time>
      </trkpt>
      <trkpt lat="42.64621" lon="23.8495">
        <ele>786.902149</ele>
        <time>2022-03-08T11:59:18.757Z</time>
      </trkpt>
      <trkpt lat="42.64628" lon="23.84931">
        <ele>785.916072</ele>
        <time>2022-03-08T11:59:20.796Z</time>
      </trkpt>
      <trkpt lat="42.64633" lon="23.8491">
        <ele>784.670426</ele>
        <time>2022-03-08T11:59:22.755Z</time>
      </trkpt>
      <trkpt lat="42.64638" lon="23.8489">
        <ele>783.429012</ele>
        <time>2022-03-08T11:59:24.763Z</time>
      </trkpt>
      <trkpt lat="42.64641" lon="23.84871">
        <ele>782.27156</ele>
        <time>2022-03-08T11:59:26.778Z</time>
      </trkpt>
      <trkpt lat="42.64644" lon="23.84853">
        <ele>781.180279</ele>
        <time>2022-03-08T11:59:28.760Z</time>
      </trkpt>
      <trkpt lat="42.64648" lon="23.84835">
        <ele>780.12525</ele>
        <time>2022-03-08T11:59:30.775Z</time>
      </trkpt>
      <trkpt lat="42.64651" lon="23.84818">
        <ele>779.094195</ele>
        <time>2022-03-08T11:59:32.766Z</time>
      </trkpt>
      <trkpt lat="42.64654" lon="23.84802">
        <ele>778.13227</ele>
        <time>2022-03-08T11:59:34.783Z</time>
      </trkpt>
      <trkpt lat="42.64656" lon="23.84787">
        <ele>777.2302</ele>
        <time>2022-03-08T11:59:36.769Z</time>
      </trkpt>
      <trkpt lat="42.64659" lon="23.84773">
        <ele>776.361292</ele>
        <time>2022-03-08T11:59:38.760Z</time>
      </trkpt>
      <trkpt lat="42.64662" lon="23.84758">
        <ele>775.477112</ele>
        <time>2022-03-08T11:59:40.771Z</time>
      </trkpt>
      <trkpt lat="42.64664" lon="23.84745">
        <ele>774.649641</ele>
        <time>2022-03-08T11:59:42.776Z</time>
      </trkpt>
      <trkpt lat="42.64666" lon="23.84732">
        <ele>773.867889</ele>
        <time>2022-03-08T11:59:44.767Z</time>
      </trkpt>
      <trkpt lat="42.64669" lon="23.8472">
        <ele>773.134802</ele>
        <time>2022-03-08T11:59:46.776Z</time>
      </trkpt>
      <trkpt lat="42.64673" lon="23.84702">
        <ele>772.052991</ele>
        <time>2022-03-08T11:59:49.780Z</time>
      </trkpt>
      <trkpt lat="42.64676" lon="23.84686">
        <ele>771.523103</ele>
        <time>2022-03-08T11:59:52.793Z</time>
      </trkpt>
      <trkpt lat="42.64678" lon="23.8467">
        <ele>771.59151</ele>
        <time>2022-03-08T11:59:55.777Z</time>
      </trkpt>
      <trkpt lat="42.6468" lon="23.84654">
        <ele>771.662025</ele>
        <time>2022-03-08T11:59:58.757Z</time>
      </trkpt>
      <trkpt lat="42.64683" lon="23.84638">
        <ele>771.736361</ele>
        <time>2022-03-08T12:00:01.780Z</time>
      </trkpt>
      <trkpt lat="42.64685" lon="23.8462">
        <ele>771.813187</ele>
        <time>2022-03-08T12:00:04.785Z</time>
      </trkpt>
      <trkpt lat="42.64687" lon="23.84602">
        <ele>771.890087</ele>
        <time>2022-03-08T12:00:07.762Z</time>
      </trkpt>
      <trkpt lat="42.64687" lon="23.84586">
        <ele>771.962493</ele>
        <time>2022-03-08T12:00:10.765Z</time>
      </trkpt>
      <trkpt lat="42.64686" lon="23.84568">
        <ele>772.039317</ele>
        <time>2022-03-08T12:00:13.801Z</time>
      </trkpt>
      <trkpt lat="42.64686" lon="23.84555">
        <ele>772.095647</ele>
        <time>2022-03-08T12:00:15.813Z</time>
      </trkpt>
      <trkpt lat="42.64686" lon="23.84542">
        <ele>772.153745</ele>
        <time>2022-03-08T12:00:17.774Z</time>
      </trkpt>
      <trkpt lat="42.64685" lon="23.84528">
        <ele>772.211942</ele>
        <time>2022-03-08T12:00:19.796Z</time>
      </trkpt>
      <trkpt lat="42.64684" lon="23.84515">
        <ele>772.267506</ele>
        <time>2022-03-08T12:00:21.787Z</time>
      </trkpt>
      <trkpt lat="42.64684" lon="23.84503">
        <ele>772.321737</ele>
        <time>2022-03-08T12:00:23.771Z</time>
      </trkpt>
      <trkpt lat="42.64684" lon="23.8449">
        <ele>772.375456</ele>
        <time>2022-03-08T12:00:25.760Z</time>
      </trkpt>
      <trkpt lat="42.64683" lon="23.84477">
        <ele>772.432402</ele>
        <time>2022-03-08T12:00:27.752Z</time>
      </trkpt>
      <trkpt lat="42.64682" lon="23.84464">
        <ele>772.488809</ele>
        <time>2022-03-08T12:00:29.773Z</time>
      </trkpt>
      <trkpt lat="42.64681" lon="23.84451">
        <ele>772.545645</ele>
        <time>2022-03-08T12:00:31.813Z</time>
      </trkpt>
      <trkpt lat="42.6468" lon="23.84439">
        <ele>772.724408</ele>
        <time>2022-03-08T12:00:33.766Z</time>
      </trkpt>
      <trkpt lat="42.64679" lon="23.84426">
        <ele>772.908404</ele>
        <time>2022-03-08T12:00:35.782Z</time>
      </trkpt>
      <trkpt lat="42.64679" lon="23.84414">
        <ele>773.093826</ele>
        <time>2022-03-08T12:00:37.796Z</time>
      </trkpt>
      <trkpt lat="42.64679" lon="23.84401">
        <ele>773.28518</ele>
        <time>2022-03-08T12:00:39.763Z</time>
      </trkpt>
      <trkpt lat="42.64679" lon="23.84388">
        <ele>773.472042</ele>
        <time>2022-03-08T12:00:41.776Z</time>
      </trkpt>
      <trkpt lat="42.6468" lon="23.84376">
        <ele>773.659296</ele>
        <time>2022-03-08T12:00:43.767Z</time>
      </trkpt>
      <trkpt lat="42.64681" lon="23.84362">
        <ele>773.858273</ele>
        <time>2022-03-08T12:00:45.758Z</time>
      </trkpt>
      <trkpt lat="42.64683" lon="23.84348">
        <ele>774.067683</ele>
        <time>2022-03-08T12:00:47.775Z</time>
      </trkpt>
      <trkpt lat="42.64686" lon="23.84334">
        <ele>774.28376</ele>
        <time>2022-03-08T12:00:49.777Z</time>
      </trkpt>
      <trkpt lat="42.64689" lon="23.84321">
        <ele>774.496784</ele>
        <time>2022-03-08T12:00:51.774Z</time>
      </trkpt>
      <trkpt lat="42.64694" lon="23.84308">
        <ele>774.706726</ele>
        <time>2022-03-08T12:00:53.773Z</time>
      </trkpt>
      <trkpt lat="42.64699" lon="23.84295">
        <ele>774.923921</ele>
        <time>2022-03-08T12:00:55.768Z</time>
      </trkpt>
      <trkpt lat="42.64704" lon="23.84282">
        <ele>775.13981</ele>
        <time>2022-03-08T12:00:57.764Z</time>
      </trkpt>
      <trkpt lat="42.6471" lon="23.84268">
        <ele>775.383008</ele>
        <time>2022-03-08T12:00:59.823Z</time>
      </trkpt>
      <trkpt lat="42.64718" lon="23.84253">
        <ele>775.653219</ele>
        <time>2022-03-08T12:01:01.780Z</time>
      </trkpt>
      <trkpt lat="42.64726" lon="23.84236">
        <ele>775.959687</ele>
        <time>2022-03-08T12:01:03.753Z</time>
      </trkpt>
      <trkpt lat="42.64734" lon="23.84216">
        <ele>776.133353</ele>
        <time>2022-03-08T12:01:05.762Z</time>
      </trkpt>
      <trkpt lat="42.64738" lon="23.84205">
        <ele>776.06692</ele>
        <time>2022-03-08T12:01:06.773Z</time>
      </trkpt>
      <trkpt lat="42.64741" lon="23.84193">
        <ele>775.996825</ele>
        <time>2022-03-08T12:01:07.767Z</time>
      </trkpt>
      <trkpt lat="42.64743" lon="23.8418">
        <ele>775.926397</ele>
        <time>2022-03-08T12:01:08.807Z</time>
      </trkpt>
      <trkpt lat="42.64745" lon="23.84168">
        <ele>775.858549</ele>
        <time>2022-03-08T12:01:09.778Z</time>
      </trkpt>
      <trkpt lat="42.64746" lon="23.84155">
        <ele>775.787911</ele>
        <time>2022-03-08T12:01:10.802Z</time>
      </trkpt>
      <trkpt lat="42.64746" lon="23.84143">
        <ele>775.720214</ele>
        <time>2022-03-08T12:01:11.796Z</time>
      </trkpt>
      <trkpt lat="42.64746" lon="23.84119">
        <ele>775.59101</ele>
        <time>2022-03-08T12:01:13.779Z</time>
      </trkpt>
      <trkpt lat="42.64743" lon="23.84097">
        <ele>775.467503</ele>
        <time>2022-03-08T12:01:15.771Z</time>
      </trkpt>
      <trkpt lat="42.64739" lon="23.84077">
        <ele>775.357711</ele>
        <time>2022-03-08T12:01:17.763Z</time>
      </trkpt>
      <trkpt lat="42.64733" lon="23.84062">
        <ele>775.264532</ele>
        <time>2022-03-08T12:01:19.754Z</time>
      </trkpt>
      <trkpt lat="42.64729" lon="23.84049">
        <ele>775.188338</ele>
        <time>2022-03-08T12:01:21.775Z</time>
      </trkpt>
      <trkpt lat="42.64724" lon="23.84034">
        <ele>775.095276</ele>
        <time>2022-03-08T12:01:24.769Z</time>
      </trkpt>
      <trkpt lat="42.64721" lon="23.84021">
        <ele>775.018993</ele>
        <time>2022-03-08T12:01:27.758Z</time>
      </trkpt>
      <trkpt lat="42.64717" lon="23.84009">
        <ele>774.950174</ele>
        <time>2022-03-08T12:01:30.782Z</time>
      </trkpt>
      <trkpt lat="42.64713" lon="23.83995">
        <ele>774.867386</ele>
        <time>2022-03-08T12:01:34.765Z</time>
      </trkpt>
      <trkpt lat="42.64708" lon="23.83982">
        <ele>774.830461</ele>
        <time>2022-03-08T12:01:38.772Z</time>
      </trkpt>
      <trkpt lat="42.64703" lon="23.83968">
        <ele>774.810471</ele>
        <time>2022-03-08T12:01:42.766Z</time>
      </trkpt>
      <trkpt lat="42.64699" lon="23.83955">
        <ele>774.791164</ele>
        <time>2022-03-08T12:01:46.769Z</time>
      </trkpt>
      <trkpt lat="42.64696" lon="23.8394">
        <ele>774.770337</ele>
        <time>2022-03-08T12:01:50.766Z</time>
      </trkpt>
      <trkpt lat="42.64692" lon="23.83928">
        <ele>774.753376</ele>
        <time>2022-03-08T12:01:53.767Z</time>
      </trkpt>
      <trkpt lat="42.6469" lon="23.83915">
        <ele>774.735836</ele>
        <time>2022-03-08T12:01:57.767Z</time>
      </trkpt>
      <trkpt lat="42.64689" lon="23.83901">
        <ele>774.716581</ele>
        <time>2022-03-08T12:02:01.765Z</time>
      </trkpt>
      <trkpt lat="42.64688" lon="23.83887">
        <ele>774.697222</ele>
        <time>2022-03-08T12:02:05.816Z</time>
      </trkpt>
      <trkpt lat="42.64687" lon="23.83872">
        <ele>774.677518</ele>
        <time>2022-03-08T12:02:09.772Z</time>
      </trkpt>
      <trkpt lat="42.64687" lon="23.83858">
        <ele>774.657964</ele>
        <time>2022-03-08T12:02:13.766Z</time>
      </trkpt>
      <trkpt lat="42.64688" lon="23.83843">
        <ele>774.639005</ele>
        <time>2022-03-08T12:02:17.780Z</time>
      </trkpt>
      <trkpt lat="42.64689" lon="23.83829">
        <ele>774.61901</ele>
        <time>2022-03-08T12:02:21.800Z</time>
      </trkpt>
      <trkpt lat="42.64691" lon="23.83814">
        <ele>774.599755</ele>
        <time>2022-03-08T12:02:25.763Z</time>
      </trkpt>
      <trkpt lat="42.64692" lon="23.838">
        <ele>774.580205</ele>
        <time>2022-03-08T12:02:29.790Z</time>
      </trkpt>
      <trkpt lat="42.64694" lon="23.83785">
        <ele>774.560475</ele>
        <time>2022-03-08T12:02:33.776Z</time>
      </trkpt>
      <trkpt lat="42.64696" lon="23.83771">
        <ele>774.540266</ele>
        <time>2022-03-08T12:02:37.786Z</time>
      </trkpt>
      <trkpt lat="42.64698" lon="23.83755">
        <ele>774.519628</ele>
        <time>2022-03-08T12:02:41.758Z</time>
      </trkpt>
      <trkpt lat="42.647" lon="23.83741">
        <ele>774.513444</ele>
        <time>2022-03-08T12:02:45.774Z</time>
      </trkpt>
      <trkpt lat="42.64701" lon="23.83728">
        <ele>774.50919</ele>
        <time>2022-03-08T12:02:49.781Z</time>
      </trkpt>
      <trkpt lat="42.64701" lon="23.83712">
        <ele>774.504338</ele>
        <time>2022-03-08T12:02:53.802Z</time>
      </trkpt>
      <trkpt lat="42.64703" lon="23.83698">
        <ele>774.499992</ele>
        <time>2022-03-08T12:02:57.762Z</time>
      </trkpt>
      <trkpt lat="42.64705" lon="23.83684">
        <ele>774.495411</ele>
        <time>2022-03-08T12:03:01.776Z</time>
      </trkpt>
      <trkpt lat="42.64707" lon="23.83668">
        <ele>774.490636</ele>
        <time>2022-03-08T12:03:05.783Z</time>
      </trkpt>
      <trkpt lat="42.64708" lon="23.83654">
        <ele>774.486044</ele>
        <time>2022-03-08T12:03:09.778Z</time>
      </trkpt>
      <trkpt lat="42.6471" lon="23.83638">
        <ele>774.481287</ele>
        <time>2022-03-08T12:03:13.779Z</time>
      </trkpt>
      <trkpt lat="42.64712" lon="23.83624">
        <ele>774.476695</ele>
        <time>2022-03-08T12:03:17.799Z</time>
      </trkpt>
      <trkpt lat="42.64713" lon="23.8361">
        <ele>774.472355</ele>
        <time>2022-03-08T12:03:21.765Z</time>
      </trkpt>
      <trkpt lat="42.64715" lon="23.83597">
        <ele>774.468168</ele>
        <time>2022-03-08T12:03:25.780Z</time>
      </trkpt>
      <trkpt lat="42.64716" lon="23.83583">
        <ele>774.463961</ele>
        <time>2022-03-08T12:03:29.746Z</time>
      </trkpt>
      <trkpt lat="42.64718" lon="23.8357">
        <ele>774.459754</ele>
        <time>2022-03-08T12:03:33.782Z</time>
      </trkpt>
      <trkpt lat="42.64719" lon="23.83555">
        <ele>774.455126</ele>
        <time>2022-03-08T12:03:37.781Z</time>
      </trkpt>
      <trkpt lat="42.6472" lon="23.83539">
        <ele>774.450191</ele>
        <time>2022-03-08T12:03:41.770Z</time>
      </trkpt>
      <trkpt lat="42.64722" lon="23.83526">
        <ele>774.446217</ele>
        <time>2022-03-08T12:03:44.786Z</time>
      </trkpt>
      <trkpt lat="42.64725" lon="23.83513">
        <ele>774.441883</ele>
        <time>2022-03-08T12:03:47.768Z</time>
      </trkpt>
      <trkpt lat="42.64729" lon="23.83498">
        <ele>774.190316</ele>
        <time>2022-03-08T12:03:50.773Z</time>
      </trkpt>
      <trkpt lat="42.64736" lon="23.83481">
        <ele>773.886261</ele>
        <time>2022-03-08T12:03:53.775Z</time>
      </trkpt>
      <trkpt lat="42.64741" lon="23.83467">
        <ele>773.644245</ele>
        <time>2022-03-08T12:03:55.767Z</time>
      </trkpt>
      <trkpt lat="42.64748" lon="23.83454">
        <ele>773.379161</ele>
        <time>2022-03-08T12:03:57.765Z</time>
      </trkpt>
      <trkpt lat="42.64757" lon="23.83441">
        <ele>773.094867</ele>
        <time>2022-03-08T12:03:59.763Z</time>
      </trkpt>
      <trkpt lat="42.64767" lon="23.83427">
        <ele>772.784179</ele>
        <time>2022-03-08T12:04:01.763Z</time>
      </trkpt>
      <trkpt lat="42.64779" lon="23.83413">
        <ele>772.444666</ele>
        <time>2022-03-08T12:04:03.766Z</time>
      </trkpt>
      <trkpt lat="42.64791" lon="23.83399">
        <ele>772.094254</ele>
        <time>2022-03-08T12:04:05.782Z</time>
      </trkpt>
      <trkpt lat="42.64804" lon="23.83384">
        <ele>771.727705</ele>
        <time>2022-03-08T12:04:07.798Z</time>
      </trkpt>
      <trkpt lat="42.64817" lon="23.83368">
        <ele>771.34742</ele>
        <time>2022-03-08T12:04:09.796Z</time>
      </trkpt>
      <trkpt lat="42.64829" lon="23.83353">
        <ele>770.992346</ele>
        <time>2022-03-08T12:04:11.772Z</time>
      </trkpt>
      <trkpt lat="42.64841" lon="23.83337">
        <ele>770.631584</ele>
        <time>2022-03-08T12:04:13.804Z</time>
      </trkpt>
      <trkpt lat="42.64851" lon="23.83317">
        <ele>769.906586</ele>
        <time>2022-03-08T12:04:15.767Z</time>
      </trkpt>
      <trkpt lat="42.64858" lon="23.83296">
        <ele>769.086695</ele>
        <time>2022-03-08T12:04:17.764Z</time>
      </trkpt>
      <trkpt lat="42.64861" lon="23.83285">
        <ele>768.651144</ele>
        <time>2022-03-08T12:04:18.772Z</time>
      </trkpt>
      <trkpt lat="42.64864" lon="23.83272">
        <ele>768.19054</ele>
        <time>2022-03-08T12:04:19.814Z</time>
      </trkpt>
      <trkpt lat="42.64867" lon="23.8326">
        <ele>767.731217</ele>
        <time>2022-03-08T12:04:20.759Z</time>
      </trkpt>
      <trkpt lat="42.6487" lon="23.83248">
        <ele>767.263146</ele>
        <time>2022-03-08T12:04:21.765Z</time>
      </trkpt>
      <trkpt lat="42.64872" lon="23.83235">
        <ele>766.789617</ele>
        <time>2022-03-08T12:04:22.768Z</time>
      </trkpt>
      <trkpt lat="42.64875" lon="23.83222">
        <ele>766.323326</ele>
        <time>2022-03-08T12:04:23.781Z</time>
      </trkpt>
      <trkpt lat="42.64877" lon="23.83209">
        <ele>765.857989</ele>
        <time>2022-03-08T12:04:24.765Z</time>
      </trkpt>
      <trkpt lat="42.64879" lon="23.83197">
        <ele>765.399607</ele>
        <time>2022-03-08T12:04:25.772Z</time>
      </trkpt>
      <trkpt lat="42.64881" lon="23.83184">
        <ele>764.950579</ele>
        <time>2022-03-08T12:04:26.759Z</time>
      </trkpt>
      <trkpt lat="42.64883" lon="23.83173">
        <ele>764.51769</ele>
        <time>2022-03-08T12:04:27.769Z</time>
      </trkpt>
      <trkpt lat="42.64887" lon="23.8315">
        <ele>763.67941</ele>
        <time>2022-03-08T12:04:29.775Z</time>
      </trkpt>
      <trkpt lat="42.64891" lon="23.83128">
        <ele>762.882711</ele>
        <time>2022-03-08T12:04:31.780Z</time>
      </trkpt>
      <trkpt lat="42.64894" lon="23.83107">
        <ele>762.106759</ele>
        <time>2022-03-08T12:04:33.768Z</time>
      </trkpt>
      <trkpt lat="42.64898" lon="23.83087">
        <ele>761.25417</ele>
        <time>2022-03-08T12:04:35.753Z</time>
      </trkpt>
      <trkpt lat="42.64901" lon="23.83068">
        <ele>760.359905</ele>
        <time>2022-03-08T12:04:37.774Z</time>
      </trkpt>
      <trkpt lat="42.64904" lon="23.83049">
        <ele>759.470161</ele>
        <time>2022-03-08T12:04:39.778Z</time>
      </trkpt>
      <trkpt lat="42.64907" lon="23.8303">
        <ele>758.568652</ele>
        <time>2022-03-08T12:04:41.816Z</time>
      </trkpt>
      <trkpt lat="42.6491" lon="23.83011">
        <ele>757.671165</ele>
        <time>2022-03-08T12:04:43.798Z</time>
      </trkpt>
      <trkpt lat="42.64914" lon="23.82991">
        <ele>756.688893</ele>
        <time>2022-03-08T12:04:45.763Z</time>
      </trkpt>
      <trkpt lat="42.64918" lon="23.82969">
        <ele>755.678173</ele>
        <time>2022-03-08T12:04:47.763Z</time>
      </trkpt>
      <trkpt lat="42.64922" lon="23.82947">
        <ele>754.615048</ele>
        <time>2022-03-08T12:04:49.779Z</time>
      </trkpt>
      <trkpt lat="42.64927" lon="23.82924">
        <ele>753.488038</ele>
        <time>2022-03-08T12:04:51.778Z</time>
      </trkpt>
      <trkpt lat="42.64929" lon="23.82912">
        <ele>752.903218</ele>
        <time>2022-03-08T12:04:52.813Z</time>
      </trkpt>
      <trkpt lat="42.64932" lon="23.82899">
        <ele>752.297007</ele>
        <time>2022-03-08T12:04:53.776Z</time>
      </trkpt>
      <trkpt lat="42.64936" lon="23.82887">
        <ele>751.680487</ele>
        <time>2022-03-08T12:04:54.781Z</time>
      </trkpt>
      <trkpt lat="42.64939" lon="23.82874">
        <ele>751.044428</ele>
        <time>2022-03-08T12:04:55.758Z</time>
      </trkpt>
      <trkpt lat="42.64942" lon="23.8286">
        <ele>750.500181</ele>
        <time>2022-03-08T12:04:56.772Z</time>
      </trkpt>
      <trkpt lat="42.64946" lon="23.82847">
        <ele>750.359968</ele>
        <time>2022-03-08T12:04:57.770Z</time>
      </trkpt>
      <trkpt lat="42.64949" lon="23.82834">
        <ele>750.218839</ele>
        <time>2022-03-08T12:04:58.772Z</time>
      </trkpt>
      <trkpt lat="42.64953" lon="23.82821">
        <ele>750.074853</ele>
        <time>2022-03-08T12:04:59.776Z</time>
      </trkpt>
      <trkpt lat="42.64957" lon="23.82807">
        <ele>749.928485</ele>
        <time>2022-03-08T12:05:00.783Z</time>
      </trkpt>
      <trkpt lat="42.6496" lon="23.82794">
        <ele>749.782604</ele>
        <time>2022-03-08T12:05:01.771Z</time>
      </trkpt>
      <trkpt lat="42.64964" lon="23.8278">
        <ele>749.63815</ele>
        <time>2022-03-08T12:05:02.768Z</time>
      </trkpt>
      <trkpt lat="42.64967" lon="23.82767">
        <ele>749.497021</ele>
        <time>2022-03-08T12:05:03.794Z</time>
      </trkpt>
      <trkpt lat="42.64971" lon="23.82755">
        <ele>749.360639</ele>
        <time>2022-03-08T12:05:04.755Z</time>
      </trkpt>
      <trkpt lat="42.64975" lon="23.82742">
        <ele>749.22514</ele>
        <time>2022-03-08T12:05:05.757Z</time>
      </trkpt>
      <trkpt lat="42.64978" lon="23.8273">
        <ele>749.095366</ele>
        <time>2022-03-08T12:05:06.765Z</time>
      </trkpt>
      <trkpt lat="42.64984" lon="23.82709">
        <ele>748.860622</ele>
        <time>2022-03-08T12:05:08.753Z</time>
      </trkpt>
      <trkpt lat="42.64989" lon="23.82691">
        <ele>748.668651</ele>
        <time>2022-03-08T12:05:10.760Z</time>
      </trkpt>
      <trkpt lat="42.64993" lon="23.82676">
        <ele>748.510405</ele>
        <time>2022-03-08T12:05:12.763Z</time>
      </trkpt>
      <trkpt lat="42.64996" lon="23.82665">
        <ele>748.38448</ele>
        <time>2022-03-08T12:05:14.770Z</time>
      </trkpt>
      <trkpt lat="42.65" lon="23.82651">
        <ele>748.237627</ele>
        <time>2022-03-08T12:05:17.757Z</time>
      </trkpt>
      <trkpt lat="42.65003" lon="23.82639">
        <ele>748.103472</ele>
        <time>2022-03-08T12:05:21.761Z</time>
      </trkpt>
      <trkpt lat="42.65007" lon="23.82627">
        <ele>748.453366</ele>
        <time>2022-03-08T12:05:26.764Z</time>
      </trkpt>
      <trkpt lat="42.6501" lon="23.82614">
        <ele>749.162804</ele>
        <time>2022-03-08T12:05:32.768Z</time>
      </trkpt>
      <trkpt lat="42.65012" lon="23.82602">
        <ele>749.77827</ele>
        <time>2022-03-08T12:05:38.756Z</time>
      </trkpt>
      <trkpt lat="42.65015" lon="23.82589">
        <ele>750.462086</ele>
        <time>2022-03-08T12:05:44.746Z</time>
      </trkpt>
      <trkpt lat="42.65018" lon="23.82576">
        <ele>751.128379</ele>
        <time>2022-03-08T12:05:50.784Z</time>
      </trkpt>
      <trkpt lat="42.65021" lon="23.82564">
        <ele>751.790847</ele>
        <time>2022-03-08T12:05:56.778Z</time>
      </trkpt>
      <trkpt lat="42.65024" lon="23.82551">
        <ele>752.481571</ele>
        <time>2022-03-08T12:06:02.754Z</time>
      </trkpt>
      <trkpt lat="42.65027" lon="23.82538">
        <ele>753.127513</ele>
        <time>2022-03-08T12:06:08.767Z</time>
      </trkpt>
      <trkpt lat="42.6503" lon="23.82526">
        <ele>753.782536</ele>
        <time>2022-03-08T12:06:15.792Z</time>
      </trkpt>
      <trkpt lat="42.65034" lon="23.82514">
        <ele>754.456322</ele>
        <time>2022-03-08T12:06:22.779Z</time>
      </trkpt>
      <trkpt lat="42.65037" lon="23.82502">
        <ele>755.080231</ele>
        <time>2022-03-08T12:06:29.780Z</time>
      </trkpt>
      <trkpt lat="42.65041" lon="23.82489">
        <ele>755.801267</ele>
        <time>2022-03-08T12:06:36.775Z</time>
      </trkpt>
      <trkpt lat="42.65044" lon="23.82477">
        <ele>756.434571</ele>
        <time>2022-03-08T12:06:42.813Z</time>
      </trkpt>
      <trkpt lat="42.65048" lon="23.82466">
        <ele>757.077528</ele>
        <time>2022-03-08T12:06:48.749Z</time>
      </trkpt>
      <trkpt lat="42.65052" lon="23.82454">
        <ele>757.735989</ele>
        <time>2022-03-08T12:06:54.784Z</time>
      </trkpt>
      <trkpt lat="42.65056" lon="23.82441">
        <ele>758.453635</ele>
        <time>2022-03-08T12:07:00.755Z</time>
      </trkpt>
      <trkpt lat="42.6506" lon="23.82427">
        <ele>759.222116</ele>
        <time>2022-03-08T12:07:05.796Z</time>
      </trkpt>
      <trkpt lat="42.65063" lon="23.82414">
        <ele>759.881532</ele>
        <time>2022-03-08T12:07:09.774Z</time>
      </trkpt>
      <trkpt lat="42.65067" lon="23.824">
        <ele>760.474828</ele>
        <time>2022-03-08T12:07:13.770Z</time>
      </trkpt>
      <trkpt lat="42.6507" lon="23.82389">
        <ele>760.657708</ele>
        <time>2022-03-08T12:07:16.780Z</time>
      </trkpt>
      <trkpt lat="42.65073" lon="23.82377">
        <ele>760.841962</ele>
        <time>2022-03-08T12:07:19.785Z</time>
      </trkpt>
      <trkpt lat="42.65077" lon="23.82363">
        <ele>761.054385</ele>
        <time>2022-03-08T12:07:22.773Z</time>
      </trkpt>
      <trkpt lat="42.65081" lon="23.82349">
        <ele>761.277012</ele>
        <time>2022-03-08T12:07:25.778Z</time>
      </trkpt>
      <trkpt lat="42.65085" lon="23.82333">
        <ele>761.515382</ele>
        <time>2022-03-08T12:07:28.773Z</time>
      </trkpt>
      <trkpt lat="42.65089" lon="23.82318">
        <ele>761.764753</ele>
        <time>2022-03-08T12:07:31.772Z</time>
      </trkpt>
      <trkpt lat="42.65093" lon="23.82301">
        <ele>762.020967</ele>
        <time>2022-03-08T12:07:34.801Z</time>
      </trkpt>
      <trkpt lat="42.65099" lon="23.82284">
        <ele>762.284306</ele>
        <time>2022-03-08T12:07:37.786Z</time>
      </trkpt>
      <trkpt lat="42.65103" lon="23.82274">
        <ele>762.464501</ele>
        <time>2022-03-08T12:07:39.774Z</time>
      </trkpt>
      <trkpt lat="42.65111" lon="23.82259">
        <ele>762.72553</ele>
        <time>2022-03-08T12:07:42.760Z</time>
      </trkpt>
      <trkpt lat="42.6512" lon="23.8225">
        <ele>762.960415</ele>
        <time>2022-03-08T12:07:45.780Z</time>
      </trkpt>
      <trkpt lat="42.65133" lon="23.82245">
        <ele>763.212435</ele>
        <time>2022-03-08T12:07:48.832Z</time>
      </trkpt>
      <trkpt lat="42.65144" lon="23.82248">
        <ele>763.435067</ele>
        <time>2022-03-08T12:07:51.776Z</time>
      </trkpt>
      <trkpt lat="42.65154" lon="23.82253">
        <ele>763.657324</ele>
        <time>2022-03-08T12:07:54.793Z</time>
      </trkpt>
      <trkpt lat="42.65165" lon="23.82258">
        <ele>763.88046</ele>
        <time>2022-03-08T12:07:57.783Z</time>
      </trkpt>
      <trkpt lat="42.65176" lon="23.82263">
        <ele>764.001523</ele>
        <time>2022-03-08T12:08:00.776Z</time>
      </trkpt>
      <trkpt lat="42.65186" lon="23.82267">
        <ele>764.03411</ele>
        <time>2022-03-08T12:08:03.785Z</time>
      </trkpt>
      <trkpt lat="42.65195" lon="23.82271">
        <ele>764.061963</ele>
        <time>2022-03-08T12:08:06.776Z</time>
      </trkpt>
      <trkpt lat="42.65206" lon="23.82278">
        <ele>764.097147</ele>
        <time>2022-03-08T12:08:10.780Z</time>
      </trkpt>
      <trkpt lat="42.65217" lon="23.82283">
        <ele>764.130437</ele>
        <time>2022-03-08T12:08:14.775Z</time>
      </trkpt>
      <trkpt lat="42.65226" lon="23.82285">
        <ele>764.158003</ele>
        <time>2022-03-08T12:08:17.774Z</time>
      </trkpt>
      <trkpt lat="42.65237" lon="23.8229">
        <ele>764.193132</ele>
        <time>2022-03-08T12:08:21.816Z</time>
      </trkpt>
      <trkpt lat="42.65248" lon="23.82294">
        <ele>764.229048</ele>
        <time>2022-03-08T12:08:25.776Z</time>
      </trkpt>
      <trkpt lat="42.65259" lon="23.82298">
        <ele>764.260715</ele>
        <time>2022-03-08T12:08:29.786Z</time>
      </trkpt>
      <trkpt lat="42.65269" lon="23.82303">
        <ele>764.292535</ele>
        <time>2022-03-08T12:08:33.775Z</time>
      </trkpt>
      <trkpt lat="42.65279" lon="23.82307">
        <ele>764.323884</ele>
        <time>2022-03-08T12:08:37.807Z</time>
      </trkpt>
      <trkpt lat="42.6529" lon="23.82312">
        <ele>764.358447</ele>
        <time>2022-03-08T12:08:41.772Z</time>
      </trkpt>
      <trkpt lat="42.65299" lon="23.82317">
        <ele>764.38828</ele>
        <time>2022-03-08T12:08:44.779Z</time>
      </trkpt>
      <trkpt lat="42.65308" lon="23.82322">
        <ele>764.418776</ele>
        <time>2022-03-08T12:08:47.781Z</time>
      </trkpt>
      <trkpt lat="42.65318" lon="23.82327">
        <ele>764.449731</ele>
        <time>2022-03-08T12:08:50.775Z</time>
      </trkpt>
      <trkpt lat="42.65328" lon="23.82331">
        <ele>764.47936</ele>
        <time>2022-03-08T12:08:53.808Z</time>
      </trkpt>
      <trkpt lat="42.65339" lon="23.82334">
        <ele>764.514161</ele>
        <time>2022-03-08T12:08:57.783Z</time>
      </trkpt>
      <trkpt lat="42.65349" lon="23.82333">
        <ele>764.140184</ele>
        <time>2022-03-08T12:09:00.778Z</time>
      </trkpt>
      <trkpt lat="42.65358" lon="23.82324">
        <ele>763.610657</ele>
        <time>2022-03-08T12:09:03.773Z</time>
      </trkpt>
      <trkpt lat="42.65367" lon="23.82314">
        <ele>763.016926</ele>
        <time>2022-03-08T12:09:06.788Z</time>
      </trkpt>
      <trkpt lat="42.65377" lon="23.82303">
        <ele>762.416319</ele>
        <time>2022-03-08T12:09:09.828Z</time>
      </trkpt>
      <trkpt lat="42.65388" lon="23.82295">
        <ele>761.81443</ele>
        <time>2022-03-08T12:09:12.785Z</time>
      </trkpt>
      <trkpt lat="42.65396" lon="23.8229">
        <ele>761.375016</ele>
        <time>2022-03-08T12:09:14.776Z</time>
      </trkpt>
      <trkpt lat="42.65406" lon="23.82287">
        <ele>760.913234</ele>
        <time>2022-03-08T12:09:16.798Z</time>
      </trkpt>
      <trkpt lat="42.65416" lon="23.82287">
        <ele>760.430091</ele>
        <time>2022-03-08T12:09:18.784Z</time>
      </trkpt>
      <trkpt lat="42.65427" lon="23.8229">
        <ele>759.879916</ele>
        <time>2022-03-08T12:09:20.812Z</time>
      </trkpt>
      <trkpt lat="42.65438" lon="23.82294">
        <ele>759.303692</ele>
        <time>2022-03-08T12:09:22.778Z</time>
      </trkpt>
      <trkpt lat="42.6545" lon="23.823">
        <ele>758.726188</ele>
        <time>2022-03-08T12:09:24.793Z</time>
      </trkpt>
      <trkpt lat="42.65461" lon="23.82307">
        <ele>758.126263</ele>
        <time>2022-03-08T12:09:26.768Z</time>
      </trkpt>
      <trkpt lat="42.65473" lon="23.82316">
        <ele>757.455399</ele>
        <time>2022-03-08T12:09:28.785Z</time>
      </trkpt>
      <trkpt lat="42.65485" lon="23.82325">
        <ele>756.812829</ele>
        <time>2022-03-08T12:09:30.781Z</time>
      </trkpt>
      <trkpt lat="42.65496" lon="23.82331">
        <ele>756.208376</ele>
        <time>2022-03-08T12:09:32.779Z</time>
      </trkpt>
      <trkpt lat="42.65508" lon="23.82333">
        <ele>756.039364</ele>
        <time>2022-03-08T12:09:34.772Z</time>
      </trkpt>
      <trkpt lat="42.65519" lon="23.82327">
        <ele>756.61559</ele>
        <time>2022-03-08T12:09:36.815Z</time>
      </trkpt>
      <trkpt lat="42.65525" lon="23.82316">
        <ele>757.160965</ele>
        <time>2022-03-08T12:09:38.769Z</time>
      </trkpt>
      <trkpt lat="42.65531" lon="23.82303">
        <ele>757.717971</ele>
        <time>2022-03-08T12:09:40.777Z</time>
      </trkpt>
      <trkpt lat="42.65533" lon="23.82291">
        <ele>758.179002</ele>
        <time>2022-03-08T12:09:42.831Z</time>
      </trkpt>
      <trkpt lat="42.65534" lon="23.82275">
        <ele>758.773449</ele>
        <time>2022-03-08T12:09:45.780Z</time>
      </trkpt>
      <trkpt lat="42.65535" lon="23.82262">
        <ele>759.278265</ele>
        <time>2022-03-08T12:09:48.797Z</time>
      </trkpt>
      <trkpt lat="42.65538" lon="23.82246">
        <ele>759.88526</ele>
        <time>2022-03-08T12:09:52.778Z</time>
      </trkpt>
      <trkpt lat="42.65543" lon="23.82234">
        <ele>760.428799</ele>
        <time>2022-03-08T12:09:56.761Z</time>
      </trkpt>
      <trkpt lat="42.65548" lon="23.82223">
        <ele>760.906843</ele>
        <time>2022-03-08T12:10:00.823Z</time>
      </trkpt>
      <trkpt lat="42.65553" lon="23.82212">
        <ele>761.376504</ele>
        <time>2022-03-08T12:10:05.777Z</time>
      </trkpt>
      <trkpt lat="42.65558" lon="23.822">
        <ele>761.910491</ele>
        <time>2022-03-08T12:10:11.775Z</time>
      </trkpt>
      <trkpt lat="42.65564" lon="23.82189">
        <ele>762.407412</ele>
        <time>2022-03-08T12:10:17.766Z</time>
      </trkpt>
      <trkpt lat="42.65569" lon="23.82178">
        <ele>762.902907</ele>
        <time>2022-03-08T12:10:23.768Z</time>
      </trkpt>
      <trkpt lat="42.65574" lon="23.82167">
        <ele>763.402487</ele>
        <time>2022-03-08T12:10:29.792Z</time>
      </trkpt>
      <trkpt lat="42.6558" lon="23.82157">
        <ele>763.871898</ele>
        <time>2022-03-08T12:10:35.770Z</time>
      </trkpt>
      <trkpt lat="42.65586" lon="23.82146">
        <ele>764.399158</ele>
        <time>2022-03-08T12:10:42.774Z</time>
      </trkpt>
      <trkpt lat="42.65591" lon="23.82136">
        <ele>764.859258</ele>
        <time>2022-03-08T12:10:48.792Z</time>
      </trkpt>
      <trkpt lat="42.65592" lon="23.82161">
        <ele>765.920557</ele>
        <time>2022-03-08T12:12:54.759Z</time>
      </trkpt>
      <trkpt lat="42.65571" lon="23.82108">
        <ele>768.526939</ele>
        <time>2022-03-08T12:28:09.776Z</time>
      </trkpt>
      <trkpt lat="42.65585" lon="23.82124">
        <ele>769.609428</ele>
        <time>2022-03-08T12:28:15.775Z</time>
      </trkpt>
      <trkpt lat="42.65595" lon="23.82144">
        <ele>770.669083</ele>
        <time>2022-03-08T12:28:35.764Z</time>
      </trkpt>
      <trkpt lat="42.65586" lon="23.82123">
        <ele>771.726822</ele>
        <time>2022-03-08T12:29:45.767Z</time>
      </trkpt>
      <trkpt lat="42.6559" lon="23.82149">
        <ele>772.867234</ele>
        <time>2022-03-08T12:32:03.801Z</time>
      </trkpt>
      <trkpt lat="42.65586" lon="23.82169">
        <ele>773.73823</ele>
        <time>2022-03-08T12:34:44.775Z</time>
      </trkpt>
      <trkpt lat="42.65588" lon="23.82157">
        <ele>774.265358</ele>
        <time>2022-03-08T12:34:55.784Z</time>
      </trkpt>
      <trkpt lat="42.65601" lon="23.82133">
        <ele>775.523563</ele>
        <time>2022-03-08T12:38:40.777Z</time>
      </trkpt>
      <trkpt lat="42.65608" lon="23.82123">
        <ele>775.421849</ele>
        <time>2022-03-08T12:38:45.766Z</time>
      </trkpt>
      <trkpt lat="42.65615" lon="23.82114">
        <ele>775.300825</ele>
        <time>2022-03-08T12:38:51.771Z</time>
      </trkpt>
      <trkpt lat="42.65624" lon="23.82105">
        <ele>775.16651</ele>
        <time>2022-03-08T12:38:56.787Z</time>
      </trkpt>
      <trkpt lat="42.65633" lon="23.82097">
        <ele>775.035478</ele>
        <time>2022-03-08T12:39:01.899Z</time>
      </trkpt>
      <trkpt lat="42.6564" lon="23.82088">
        <ele>774.911736</ele>
        <time>2022-03-08T12:39:06.779Z</time>
      </trkpt>
      <trkpt lat="42.65649" lon="23.82078">
        <ele>774.782177</ele>
        <time>2022-03-08T12:39:11.772Z</time>
      </trkpt>
      <trkpt lat="42.65654" lon="23.82066">
        <ele>774.652082</ele>
        <time>2022-03-08T12:39:16.786Z</time>
      </trkpt>
      <trkpt lat="42.65657" lon="23.82051">
        <ele>774.516217</ele>
        <time>2022-03-08T12:39:20.774Z</time>
      </trkpt>
      <trkpt lat="42.65659" lon="23.82037">
        <ele>774.38835</ele>
        <time>2022-03-08T12:39:23.818Z</time>
      </trkpt>
      <trkpt lat="42.6566" lon="23.8202">
        <ele>774.235165</ele>
        <time>2022-03-08T12:39:26.773Z</time>
      </trkpt>
      <trkpt lat="42.6566" lon="23.82005">
        <ele>774.096053</ele>
        <time>2022-03-08T12:39:29.794Z</time>
      </trkpt>
      <trkpt lat="42.65659" lon="23.8199">
        <ele>773.969095</ele>
        <time>2022-03-08T12:39:32.768Z</time>
      </trkpt>
      <trkpt lat="42.65658" lon="23.81976">
        <ele>773.837859</ele>
        <time>2022-03-08T12:39:35.771Z</time>
      </trkpt>
      <trkpt lat="42.65654" lon="23.81964">
        <ele>773.719026</ele>
        <time>2022-03-08T12:39:39.784Z</time>
      </trkpt>
      <trkpt lat="42.65646" lon="23.81953">
        <ele>773.583665</ele>
        <time>2022-03-08T12:39:43.785Z</time>
      </trkpt>
      <trkpt lat="42.65638" lon="23.81944">
        <ele>773.450443</ele>
        <time>2022-03-08T12:39:46.782Z</time>
      </trkpt>
      <trkpt lat="42.65629" lon="23.81933">
        <ele>773.145498</ele>
        <time>2022-03-08T12:39:49.773Z</time>
      </trkpt>
      <trkpt lat="42.65623" lon="23.81924">
        <ele>772.587542</ele>
        <time>2022-03-08T12:39:51.778Z</time>
      </trkpt>
      <trkpt lat="42.65617" lon="23.81913">
        <ele>771.959502</ele>
        <time>2022-03-08T12:39:53.768Z</time>
      </trkpt>
      <trkpt lat="42.65613" lon="23.819">
        <ele>771.314097</ele>
        <time>2022-03-08T12:39:55.796Z</time>
      </trkpt>
      <trkpt lat="42.65608" lon="23.81886">
        <ele>770.616549</ele>
        <time>2022-03-08T12:39:57.783Z</time>
      </trkpt>
      <trkpt lat="42.65604" lon="23.81868">
        <ele>769.798177</ele>
        <time>2022-03-08T12:39:59.775Z</time>
      </trkpt>
      <trkpt lat="42.65601" lon="23.81849">
        <ele>768.923891</ele>
        <time>2022-03-08T12:40:01.772Z</time>
      </trkpt>
      <trkpt lat="42.65598" lon="23.8183">
        <ele>768.03681</ele>
        <time>2022-03-08T12:40:03.774Z</time>
      </trkpt>
      <trkpt lat="42.65594" lon="23.81811">
        <ele>767.167242</ele>
        <time>2022-03-08T12:40:05.774Z</time>
      </trkpt>
      <trkpt lat="42.65591" lon="23.81794">
        <ele>766.349698</ele>
        <time>2022-03-08T12:40:07.775Z</time>
      </trkpt>
      <trkpt lat="42.65586" lon="23.81775">
        <ele>765.474942</ele>
        <time>2022-03-08T12:40:09.783Z</time>
      </trkpt>
      <trkpt lat="42.65582" lon="23.81755">
        <ele>764.506369</ele>
        <time>2022-03-08T12:40:11.809Z</time>
      </trkpt>
      <trkpt lat="42.65577" lon="23.81734">
        <ele>763.542967</ele>
        <time>2022-03-08T12:40:13.791Z</time>
      </trkpt>
      <trkpt lat="42.65573" lon="23.81714">
        <ele>762.605016</ele>
        <time>2022-03-08T12:40:15.758Z</time>
      </trkpt>
      <trkpt lat="42.65567" lon="23.81696">
        <ele>761.432443</ele>
        <time>2022-03-08T12:40:17.809Z</time>
      </trkpt>
      <trkpt lat="42.65563" lon="23.81678">
        <ele>760.172419</ele>
        <time>2022-03-08T12:40:19.765Z</time>
      </trkpt>
      <trkpt lat="42.65558" lon="23.81661">
        <ele>758.983338</ele>
        <time>2022-03-08T12:40:21.764Z</time>
      </trkpt>
      <trkpt lat="42.65553" lon="23.81644">
        <ele>757.756871</ele>
        <time>2022-03-08T12:40:23.760Z</time>
      </trkpt>
      <trkpt lat="42.65548" lon="23.81626">
        <ele>756.521246</ele>
        <time>2022-03-08T12:40:25.785Z</time>
      </trkpt>
      <trkpt lat="42.65544" lon="23.81608">
        <ele>755.254772</ele>
        <time>2022-03-08T12:40:27.777Z</time>
      </trkpt>
      <trkpt lat="42.65539" lon="23.81589">
        <ele>753.938178</ele>
        <time>2022-03-08T12:40:29.757Z</time>
      </trkpt>
      <trkpt lat="42.65534" lon="23.81568">
        <ele>752.486485</ele>
        <time>2022-03-08T12:40:31.789Z</time>
      </trkpt>
      <trkpt lat="42.65529" lon="23.81546">
        <ele>750.961756</ele>
        <time>2022-03-08T12:40:33.783Z</time>
      </trkpt>
      <trkpt lat="42.65523" lon="23.81525">
        <ele>749.465217</ele>
        <time>2022-03-08T12:40:35.767Z</time>
      </trkpt>
      <trkpt lat="42.65516" lon="23.81504">
        <ele>747.918341</ele>
        <time>2022-03-08T12:40:37.779Z</time>
      </trkpt>
      <trkpt lat="42.65512" lon="23.81492">
        <ele>747.09059</ele>
        <time>2022-03-08T12:40:38.756Z</time>
      </trkpt>
      <trkpt lat="42.65509" lon="23.81481">
        <ele>746.242242</ele>
        <time>2022-03-08T12:40:39.804Z</time>
      </trkpt>
      <trkpt lat="42.65505" lon="23.81469">
        <ele>745.670465</ele>
        <time>2022-03-08T12:40:40.771Z</time>
      </trkpt>
      <trkpt lat="42.65502" lon="23.81456">
        <ele>745.128623</ele>
        <time>2022-03-08T12:40:41.750Z</time>
      </trkpt>
      <trkpt lat="42.65498" lon="23.81444">
        <ele>744.57693</ele>
        <time>2022-03-08T12:40:42.778Z</time>
      </trkpt>
      <trkpt lat="42.65495" lon="23.81432">
        <ele>744.013515</ele>
        <time>2022-03-08T12:40:43.769Z</time>
      </trkpt>
      <trkpt lat="42.65491" lon="23.81419">
        <ele>743.440259</ele>
        <time>2022-03-08T12:40:44.783Z</time>
      </trkpt>
      <trkpt lat="42.65487" lon="23.81406">
        <ele>742.861051</ele>
        <time>2022-03-08T12:40:45.772Z</time>
      </trkpt>
      <trkpt lat="42.65484" lon="23.81393">
        <ele>742.285738</ele>
        <time>2022-03-08T12:40:46.796Z</time>
      </trkpt>
      <trkpt lat="42.6548" lon="23.8138">
        <ele>741.70832</ele>
        <time>2022-03-08T12:40:47.780Z</time>
      </trkpt>
      <trkpt lat="42.65476" lon="23.81367">
        <ele>741.124882</ele>
        <time>2022-03-08T12:40:48.783Z</time>
      </trkpt>
      <trkpt lat="42.65472" lon="23.81355">
        <ele>740.54531</ele>
        <time>2022-03-08T12:40:49.793Z</time>
      </trkpt>
      <trkpt lat="42.65468" lon="23.81342">
        <ele>739.965738</ele>
        <time>2022-03-08T12:40:50.767Z</time>
      </trkpt>
      <trkpt lat="42.65464" lon="23.81329">
        <ele>739.382299</ele>
        <time>2022-03-08T12:40:51.790Z</time>
      </trkpt>
      <trkpt lat="42.6546" lon="23.81316">
        <ele>738.800525</ele>
        <time>2022-03-08T12:40:52.774Z</time>
      </trkpt>
      <trkpt lat="42.65456" lon="23.81303">
        <ele>738.210387</ele>
        <time>2022-03-08T12:40:53.767Z</time>
      </trkpt>
      <trkpt lat="42.65452" lon="23.8129">
        <ele>737.617042</ele>
        <time>2022-03-08T12:40:54.766Z</time>
      </trkpt>
      <trkpt lat="42.65448" lon="23.81277">
        <ele>737.029731</ele>
        <time>2022-03-08T12:40:55.814Z</time>
      </trkpt>
      <trkpt lat="42.65445" lon="23.81264">
        <ele>736.464277</ele>
        <time>2022-03-08T12:40:56.763Z</time>
      </trkpt>
      <trkpt lat="42.65441" lon="23.81252">
        <ele>735.900778</ele>
        <time>2022-03-08T12:40:57.775Z</time>
      </trkpt>
      <trkpt lat="42.65437" lon="23.8124">
        <ele>735.335332</ele>
        <time>2022-03-08T12:40:58.787Z</time>
      </trkpt>
      <trkpt lat="42.65431" lon="23.81218">
        <ele>734.312877</ele>
        <time>2022-03-08T12:41:00.783Z</time>
      </trkpt>
      <trkpt lat="42.65426" lon="23.81198">
        <ele>733.396418</ele>
        <time>2022-03-08T12:41:02.759Z</time>
      </trkpt>
      <trkpt lat="42.65422" lon="23.8118">
        <ele>732.573945</ele>
        <time>2022-03-08T12:41:04.788Z</time>
      </trkpt>
      <trkpt lat="42.65418" lon="23.81163">
        <ele>731.787042</ele>
        <time>2022-03-08T12:41:06.773Z</time>
      </trkpt>
      <trkpt lat="42.65414" lon="23.81145">
        <ele>731.00255</ele>
        <time>2022-03-08T12:41:08.765Z</time>
      </trkpt>
      <trkpt lat="42.65411" lon="23.81128">
        <ele>730.227999</ele>
        <time>2022-03-08T12:41:10.771Z</time>
      </trkpt>
      <trkpt lat="42.65407" lon="23.81111">
        <ele>729.430298</ele>
        <time>2022-03-08T12:41:12.807Z</time>
      </trkpt>
      <trkpt lat="42.65403" lon="23.81093">
        <ele>728.641641</ele>
        <time>2022-03-08T12:41:14.764Z</time>
      </trkpt>
      <trkpt lat="42.65399" lon="23.81076">
        <ele>727.843362</ele>
        <time>2022-03-08T12:41:16.774Z</time>
      </trkpt>
      <trkpt lat="42.65394" lon="23.81059">
        <ele>727.045339</ele>
        <time>2022-03-08T12:41:18.779Z</time>
      </trkpt>
      <trkpt lat="42.65389" lon="23.81042">
        <ele>726.231289</ele>
        <time>2022-03-08T12:41:20.759Z</time>
      </trkpt>
      <trkpt lat="42.65381" lon="23.81024">
        <ele>725.363897</ele>
        <time>2022-03-08T12:41:22.788Z</time>
      </trkpt>
      <trkpt lat="42.65372" lon="23.81007">
        <ele>725.052143</ele>
        <time>2022-03-08T12:41:24.785Z</time>
      </trkpt>
      <trkpt lat="42.65362" lon="23.8099">
        <ele>724.766503</ele>
        <time>2022-03-08T12:41:26.762Z</time>
      </trkpt>
      <trkpt lat="42.65352" lon="23.80971">
        <ele>724.469385</ele>
        <time>2022-03-08T12:41:28.764Z</time>
      </trkpt>
      <trkpt lat="42.65341" lon="23.80953">
        <ele>724.173126</ele>
        <time>2022-03-08T12:41:30.780Z</time>
      </trkpt>
      <trkpt lat="42.65331" lon="23.80936">
        <ele>723.87787</ele>
        <time>2022-03-08T12:41:32.769Z</time>
      </trkpt>
      <trkpt lat="42.6532" lon="23.80918">
        <ele>723.590822</ele>
        <time>2022-03-08T12:41:34.792Z</time>
      </trkpt>
      <trkpt lat="42.6531" lon="23.80902">
        <ele>723.310517</ele>
        <time>2022-03-08T12:41:36.787Z</time>
      </trkpt>
      <trkpt lat="42.653" lon="23.80887">
        <ele>723.050479</ele>
        <time>2022-03-08T12:41:38.756Z</time>
      </trkpt>
      <trkpt lat="42.65291" lon="23.80873">
        <ele>722.81132</ele>
        <time>2022-03-08T12:41:40.791Z</time>
      </trkpt>
      <trkpt lat="42.65283" lon="23.8086">
        <ele>722.59082</ele>
        <time>2022-03-08T12:41:42.791Z</time>
      </trkpt>
      <trkpt lat="42.65276" lon="23.80846">
        <ele>722.368298</ele>
        <time>2022-03-08T12:41:44.764Z</time>
      </trkpt>
      <trkpt lat="42.65269" lon="23.80832">
        <ele>722.153599</ele>
        <time>2022-03-08T12:41:46.772Z</time>
      </trkpt>
      <trkpt lat="42.65264" lon="23.80818">
        <ele>721.803245</ele>
        <time>2022-03-08T12:41:48.772Z</time>
      </trkpt>
      <trkpt lat="42.65259" lon="23.80804">
        <ele>721.460996</ele>
        <time>2022-03-08T12:41:50.803Z</time>
      </trkpt>
      <trkpt lat="42.65255" lon="23.8079">
        <ele>721.119666</ele>
        <time>2022-03-08T12:41:52.777Z</time>
      </trkpt>
      <trkpt lat="42.65251" lon="23.80775">
        <ele>720.761635</ele>
        <time>2022-03-08T12:41:54.805Z</time>
      </trkpt>
      <trkpt lat="42.65246" lon="23.80759">
        <ele>720.382605</ele>
        <time>2022-03-08T12:41:56.817Z</time>
      </trkpt>
      <trkpt lat="42.65241" lon="23.80742">
        <ele>719.987069</ele>
        <time>2022-03-08T12:41:58.790Z</time>
      </trkpt>
      <trkpt lat="42.65237" lon="23.80725">
        <ele>719.5798</ele>
        <time>2022-03-08T12:42:00.785Z</time>
      </trkpt>
      <trkpt lat="42.65233" lon="23.80708">
        <ele>719.188012</ele>
        <time>2022-03-08T12:42:02.797Z</time>
      </trkpt>
      <trkpt lat="42.65229" lon="23.80691">
        <ele>718.796649</ele>
        <time>2022-03-08T12:42:04.763Z</time>
      </trkpt>
      <trkpt lat="42.65223" lon="23.80675">
        <ele>718.395013</ele>
        <time>2022-03-08T12:42:06.779Z</time>
      </trkpt>
      <trkpt lat="42.65218" lon="23.80659">
        <ele>717.997436</ele>
        <time>2022-03-08T12:42:08.774Z</time>
      </trkpt>
      <trkpt lat="42.65212" lon="23.80643">
        <ele>717.614301</ele>
        <time>2022-03-08T12:42:10.775Z</time>
      </trkpt>
      <trkpt lat="42.65205" lon="23.80629">
        <ele>717.239105</ele>
        <time>2022-03-08T12:42:12.779Z</time>
      </trkpt>
      <trkpt lat="42.65198" lon="23.80616">
        <ele>716.871535</ele>
        <time>2022-03-08T12:42:14.781Z</time>
      </trkpt>
      <trkpt lat="42.65191" lon="23.80603">
        <ele>716.588394</ele>
        <time>2022-03-08T12:42:16.783Z</time>
      </trkpt>
      <trkpt lat="42.65184" lon="23.8059">
        <ele>716.363975</ele>
        <time>2022-03-08T12:42:18.825Z</time>
      </trkpt>
      <trkpt lat="42.65177" lon="23.80577">
        <ele>716.132805</ele>
        <time>2022-03-08T12:42:20.780Z</time>
      </trkpt>
      <trkpt lat="42.6517" lon="23.80564">
        <ele>715.911833</ele>
        <time>2022-03-08T12:42:22.777Z</time>
      </trkpt>
      <trkpt lat="42.65163" lon="23.80553">
        <ele>715.699238</ele>
        <time>2022-03-08T12:42:24.769Z</time>
      </trkpt>
      <trkpt lat="42.65156" lon="23.80542">
        <ele>715.493749</ele>
        <time>2022-03-08T12:42:26.771Z</time>
      </trkpt>
      <trkpt lat="42.65149" lon="23.80531">
        <ele>715.291477</ele>
        <time>2022-03-08T12:42:28.775Z</time>
      </trkpt>
      <trkpt lat="42.65142" lon="23.80519">
        <ele>715.079347</ele>
        <time>2022-03-08T12:42:30.776Z</time>
      </trkpt>
      <trkpt lat="42.65135" lon="23.80507">
        <ele>714.869609</ele>
        <time>2022-03-08T12:42:32.775Z</time>
      </trkpt>
      <trkpt lat="42.65128" lon="23.80496">
        <ele>714.65518</ele>
        <time>2022-03-08T12:42:34.775Z</time>
      </trkpt>
      <trkpt lat="42.65121" lon="23.80483">
        <ele>714.435176</ele>
        <time>2022-03-08T12:42:36.774Z</time>
      </trkpt>
      <trkpt lat="42.65114" lon="23.80471">
        <ele>714.218754</ele>
        <time>2022-03-08T12:42:38.775Z</time>
      </trkpt>
      <trkpt lat="42.65107" lon="23.80459">
        <ele>713.998898</ele>
        <time>2022-03-08T12:42:40.790Z</time>
      </trkpt>
      <trkpt lat="42.651" lon="23.80446">
        <ele>713.769818</ele>
        <time>2022-03-08T12:42:42.764Z</time>
      </trkpt>
      <trkpt lat="42.65092" lon="23.80432">
        <ele>713.527251</ele>
        <time>2022-03-08T12:42:44.768Z</time>
      </trkpt>
      <trkpt lat="42.65084" lon="23.80418">
        <ele>713.280245</ele>
        <time>2022-03-08T12:42:46.813Z</time>
      </trkpt>
      <trkpt lat="42.65076" lon="23.80405">
        <ele>712.790901</ele>
        <time>2022-03-08T12:42:48.763Z</time>
      </trkpt>
      <trkpt lat="42.65068" lon="23.8039">
        <ele>712.257278</ele>
        <time>2022-03-08T12:42:50.790Z</time>
      </trkpt>
      <trkpt lat="42.65059" lon="23.80374">
        <ele>711.677273</ele>
        <time>2022-03-08T12:42:52.775Z</time>
      </trkpt>
      <trkpt lat="42.65051" lon="23.80358">
        <ele>711.113218</ele>
        <time>2022-03-08T12:42:54.778Z</time>
      </trkpt>
      <trkpt lat="42.65043" lon="23.80341">
        <ele>710.553831</ele>
        <time>2022-03-08T12:42:56.776Z</time>
      </trkpt>
      <trkpt lat="42.65037" lon="23.80324">
        <ele>709.983185</ele>
        <time>2022-03-08T12:42:58.788Z</time>
      </trkpt>
      <trkpt lat="42.65031" lon="23.80306">
        <ele>709.411512</ele>
        <time>2022-03-08T12:43:00.786Z</time>
      </trkpt>
      <trkpt lat="42.65025" lon="23.80288">
        <ele>708.850542</ele>
        <time>2022-03-08T12:43:02.759Z</time>
      </trkpt>
      <trkpt lat="42.65021" lon="23.80269">
        <ele>708.28003</ele>
        <time>2022-03-08T12:43:04.764Z</time>
      </trkpt>
      <trkpt lat="42.65017" lon="23.80249">
        <ele>707.682797</ele>
        <time>2022-03-08T12:43:06.781Z</time>
      </trkpt>
      <trkpt lat="42.65013" lon="23.80229">
        <ele>707.089906</ele>
        <time>2022-03-08T12:43:08.812Z</time>
      </trkpt>
      <trkpt lat="42.6501" lon="23.80209">
        <ele>706.497233</ele>
        <time>2022-03-08T12:43:10.788Z</time>
      </trkpt>
      <trkpt lat="42.65009" lon="23.80188">
        <ele>705.694363</ele>
        <time>2022-03-08T12:43:12.778Z</time>
      </trkpt>
      <trkpt lat="42.6501" lon="23.80167">
        <ele>704.739244</ele>
        <time>2022-03-08T12:43:14.786Z</time>
      </trkpt>
      <trkpt lat="42.6501" lon="23.80146">
        <ele>703.769309</ele>
        <time>2022-03-08T12:43:16.774Z</time>
      </trkpt>
      <trkpt lat="42.65012" lon="23.80125">
        <ele>702.782032</ele>
        <time>2022-03-08T12:43:18.789Z</time>
      </trkpt>
      <trkpt lat="42.65014" lon="23.80102">
        <ele>701.71385</ele>
        <time>2022-03-08T12:43:20.767Z</time>
      </trkpt>
      <trkpt lat="42.65017" lon="23.80078">
        <ele>700.624576</ele>
        <time>2022-03-08T12:43:22.768Z</time>
      </trkpt>
      <trkpt lat="42.65019" lon="23.80055">
        <ele>699.531538</ele>
        <time>2022-03-08T12:43:24.776Z</time>
      </trkpt>
      <trkpt lat="42.6502" lon="23.80032">
        <ele>698.472682</ele>
        <time>2022-03-08T12:43:26.772Z</time>
      </trkpt>
      <trkpt lat="42.65021" lon="23.8001">
        <ele>697.469482</ele>
        <time>2022-03-08T12:43:28.784Z</time>
      </trkpt>
      <trkpt lat="42.65022" lon="23.7999">
        <ele>696.545827</ele>
        <time>2022-03-08T12:43:30.764Z</time>
      </trkpt>
      <trkpt lat="42.65024" lon="23.79972">
        <ele>695.675136</ele>
        <time>2022-03-08T12:43:32.779Z</time>
      </trkpt>
      <trkpt lat="42.65024" lon="23.79953">
        <ele>694.891037</ele>
        <time>2022-03-08T12:43:34.770Z</time>
      </trkpt>
      <trkpt lat="42.65025" lon="23.79936">
        <ele>694.472927</ele>
        <time>2022-03-08T12:43:36.774Z</time>
      </trkpt>
      <trkpt lat="42.65026" lon="23.79919">
        <ele>694.085066</ele>
        <time>2022-03-08T12:43:38.772Z</time>
      </trkpt>
      <trkpt lat="42.65027" lon="23.79903">
        <ele>693.712808</ele>
        <time>2022-03-08T12:43:40.759Z</time>
      </trkpt>
      <trkpt lat="42.65029" lon="23.79887">
        <ele>693.320514</ele>
        <time>2022-03-08T12:43:42.819Z</time>
      </trkpt>
      <trkpt lat="42.6503" lon="23.7987">
        <ele>692.923564</ele>
        <time>2022-03-08T12:43:44.771Z</time>
      </trkpt>
      <trkpt lat="42.65032" lon="23.79853">
        <ele>692.525044</ele>
        <time>2022-03-08T12:43:46.783Z</time>
      </trkpt>
      <trkpt lat="42.65035" lon="23.79836">
        <ele>692.107493</ele>
        <time>2022-03-08T12:43:48.776Z</time>
      </trkpt>
      <trkpt lat="42.65037" lon="23.79819">
        <ele>691.696858</ele>
        <time>2022-03-08T12:43:50.780Z</time>
      </trkpt>
      <trkpt lat="42.6504" lon="23.79801">
        <ele>691.282986</ele>
        <time>2022-03-08T12:43:52.774Z</time>
      </trkpt>
      <trkpt lat="42.65044" lon="23.79784">
        <ele>690.860014</ele>
        <time>2022-03-08T12:43:54.764Z</time>
      </trkpt>
      <trkpt lat="42.65047" lon="23.79767">
        <ele>690.442259</ele>
        <time>2022-03-08T12:43:56.788Z</time>
      </trkpt>
      <trkpt lat="42.6505" lon="23.79749">
        <ele>690.021404</ele>
        <time>2022-03-08T12:43:58.772Z</time>
      </trkpt>
      <trkpt lat="42.65054" lon="23.79732">
        <ele>689.60147</ele>
        <time>2022-03-08T12:44:00.762Z</time>
      </trkpt>
      <trkpt lat="42.65058" lon="23.79716">
        <ele>689.211057</ele>
        <time>2022-03-08T12:44:02.767Z</time>
      </trkpt>
      <trkpt lat="42.65061" lon="23.797">
        <ele>689.100439</ele>
        <time>2022-03-08T12:44:04.766Z</time>
      </trkpt>
      <trkpt lat="42.65065" lon="23.79683">
        <ele>688.988322</ele>
        <time>2022-03-08T12:44:06.782Z</time>
      </trkpt>
      <trkpt lat="42.65068" lon="23.79667">
        <ele>688.880919</ele>
        <time>2022-03-08T12:44:08.779Z</time>
      </trkpt>
      <trkpt lat="42.65071" lon="23.79651">
        <ele>688.770301</ele>
        <time>2022-03-08T12:44:10.802Z</time>
      </trkpt>
      <trkpt lat="42.65074" lon="23.79634">
        <ele>688.65518</ele>
        <time>2022-03-08T12:44:12.776Z</time>
      </trkpt>
      <trkpt lat="42.65078" lon="23.79618">
        <ele>688.542433</ele>
        <time>2022-03-08T12:44:14.785Z</time>
      </trkpt>
      <trkpt lat="42.65082" lon="23.79601">
        <ele>688.43028</ele>
        <time>2022-03-08T12:44:16.783Z</time>
      </trkpt>
      <trkpt lat="42.65085" lon="23.79585">
        <ele>688.316788</ele>
        <time>2022-03-08T12:44:18.778Z</time>
      </trkpt>
      <trkpt lat="42.65089" lon="23.79569">
        <ele>688.208075</ele>
        <time>2022-03-08T12:44:20.777Z</time>
      </trkpt>
      <trkpt lat="42.65093" lon="23.79554">
        <ele>688.103592</ele>
        <time>2022-03-08T12:44:22.765Z</time>
      </trkpt>
      <trkpt lat="42.65096" lon="23.79539">
        <ele>688.00339</ele>
        <time>2022-03-08T12:44:24.783Z</time>
      </trkpt>
      <trkpt lat="42.651" lon="23.79525">
        <ele>687.906216</ele>
        <time>2022-03-08T12:44:26.776Z</time>
      </trkpt>
      <trkpt lat="42.65103" lon="23.79511">
        <ele>687.81231</ele>
        <time>2022-03-08T12:44:28.779Z</time>
      </trkpt>
      <trkpt lat="42.65105" lon="23.79498">
        <ele>687.722798</ele>
        <time>2022-03-08T12:44:30.776Z</time>
      </trkpt>
      <trkpt lat="42.65108" lon="23.79486">
        <ele>687.638433</ele>
        <time>2022-03-08T12:44:32.809Z</time>
      </trkpt>
      <trkpt lat="42.65111" lon="23.79473">
        <ele>687.6811</ele>
        <time>2022-03-08T12:44:34.796Z</time>
      </trkpt>
      <trkpt lat="42.65114" lon="23.7946">
        <ele>687.774823</ele>
        <time>2022-03-08T12:44:36.787Z</time>
      </trkpt>
      <trkpt lat="42.65118" lon="23.79443">
        <ele>687.901593</ele>
        <time>2022-03-08T12:44:39.783Z</time>
      </trkpt>
      <trkpt lat="42.65121" lon="23.79427">
        <ele>688.024208</ele>
        <time>2022-03-08T12:44:42.775Z</time>
      </trkpt>
      <trkpt lat="42.65125" lon="23.79412">
        <ele>688.132988</ele>
        <time>2022-03-08T12:44:45.794Z</time>
      </trkpt>
      <trkpt lat="42.65128" lon="23.79397">
        <ele>688.242987</ele>
        <time>2022-03-08T12:44:48.772Z</time>
      </trkpt>
      <trkpt lat="42.65131" lon="23.79382">
        <ele>688.35611</ele>
        <time>2022-03-08T12:44:51.782Z</time>
      </trkpt>
      <trkpt lat="42.65134" lon="23.79366">
        <ele>688.466931</ele>
        <time>2022-03-08T12:44:54.788Z</time>
      </trkpt>
      <trkpt lat="42.65137" lon="23.79352">
        <ele>688.569926</ele>
        <time>2022-03-08T12:44:57.786Z</time>
      </trkpt>
      <trkpt lat="42.65139" lon="23.79339">
        <ele>688.668792</ele>
        <time>2022-03-08T12:45:00.785Z</time>
      </trkpt>
      <trkpt lat="42.65142" lon="23.79326">
        <ele>688.762622</ele>
        <time>2022-03-08T12:45:03.787Z</time>
      </trkpt>
      <trkpt lat="42.65143" lon="23.79313">
        <ele>688.857702</ele>
        <time>2022-03-08T12:45:06.811Z</time>
      </trkpt>
      <trkpt lat="42.65146" lon="23.79301">
        <ele>688.944678</ele>
        <time>2022-03-08T12:45:09.787Z</time>
      </trkpt>
      <trkpt lat="42.65148" lon="23.79286">
        <ele>689.05409</ele>
        <time>2022-03-08T12:45:13.775Z</time>
      </trkpt>
      <trkpt lat="42.6515" lon="23.79273">
        <ele>689.142048</ele>
        <time>2022-03-08T12:45:16.773Z</time>
      </trkpt>
      <trkpt lat="42.65152" lon="23.79261">
        <ele>689.231585</ele>
        <time>2022-03-08T12:45:19.795Z</time>
      </trkpt>
      <trkpt lat="42.65154" lon="23.79249">
        <ele>689.321813</ele>
        <time>2022-03-08T12:45:22.779Z</time>
      </trkpt>
      <trkpt lat="42.65157" lon="23.79235">
        <ele>689.096055</ele>
        <time>2022-03-08T12:45:25.789Z</time>
      </trkpt>
      <trkpt lat="42.6516" lon="23.79221">
        <ele>688.780209</ele>
        <time>2022-03-08T12:45:28.776Z</time>
      </trkpt>
      <trkpt lat="42.65163" lon="23.79207">
        <ele>688.459572</ele>
        <time>2022-03-08T12:45:31.772Z</time>
      </trkpt>
      <trkpt lat="42.65167" lon="23.79193">
        <ele>688.122299</ele>
        <time>2022-03-08T12:45:34.827Z</time>
      </trkpt>
      <trkpt lat="42.65172" lon="23.79177">
        <ele>687.741379</ele>
        <time>2022-03-08T12:45:37.772Z</time>
      </trkpt>
      <trkpt lat="42.65176" lon="23.79165">
        <ele>687.432046</ele>
        <time>2022-03-08T12:45:39.777Z</time>
      </trkpt>
      <trkpt lat="42.65181" lon="23.79151">
        <ele>687.100516</ele>
        <time>2022-03-08T12:45:41.788Z</time>
      </trkpt>
      <trkpt lat="42.65185" lon="23.79136">
        <ele>686.74753</ele>
        <time>2022-03-08T12:45:43.779Z</time>
      </trkpt>
      <trkpt lat="42.6519" lon="23.79121">
        <ele>686.388105</ele>
        <time>2022-03-08T12:45:45.779Z</time>
      </trkpt>
      <trkpt lat="42.65195" lon="23.79106">
        <ele>686.011673</ele>
        <time>2022-03-08T12:45:47.783Z</time>
      </trkpt>
      <trkpt lat="42.652" lon="23.7909">
        <ele>685.637694</ele>
        <time>2022-03-08T12:45:49.808Z</time>
      </trkpt>
      <trkpt lat="42.65205" lon="23.79075">
        <ele>685.264277</ele>
        <time>2022-03-08T12:45:51.783Z</time>
      </trkpt>
      <trkpt lat="42.6521" lon="23.79059">
        <ele>684.884219</ele>
        <time>2022-03-08T12:45:53.790Z</time>
      </trkpt>
      <trkpt lat="42.65215" lon="23.79043">
        <ele>684.495686</ele>
        <time>2022-03-08T12:45:55.775Z</time>
      </trkpt>
      <trkpt lat="42.6522" lon="23.79026">
        <ele>684.10978</ele>
        <time>2022-03-08T12:45:57.789Z</time>
      </trkpt>
      <trkpt lat="42.65224" lon="23.79011">
        <ele>683.798489</ele>
        <time>2022-03-08T12:45:59.768Z</time>
      </trkpt>
      <trkpt lat="42.65229" lon="23.78995">
        <ele>683.529874</ele>
        <time>2022-03-08T12:46:01.809Z</time>
      </trkpt>
      <trkpt lat="42.65234" lon="23.78981">
        <ele>683.276975</ele>
        <time>2022-03-08T12:46:03.773Z</time>
      </trkpt>
      <trkpt lat="42.65238" lon="23.78967">
        <ele>683.034553</ele>
        <time>2022-03-08T12:46:05.768Z</time>
      </trkpt>
      <trkpt lat="42.65243" lon="23.78955">
        <ele>682.816514</ele>
        <time>2022-03-08T12:46:07.827Z</time>
      </trkpt>
      <trkpt lat="42.65248" lon="23.78939">
        <ele>682.53326</ele>
        <time>2022-03-08T12:46:10.789Z</time>
      </trkpt>
      <trkpt lat="42.65253" lon="23.78923">
        <ele>682.26661</ele>
        <time>2022-03-08T12:46:13.771Z</time>
      </trkpt>
      <trkpt lat="42.65258" lon="23.78907">
        <ele>681.987807</ele>
        <time>2022-03-08T12:46:16.778Z</time>
      </trkpt>
      <trkpt lat="42.65262" lon="23.78895">
        <ele>681.787294</ele>
        <time>2022-03-08T12:46:18.825Z</time>
      </trkpt>
      <trkpt lat="42.65266" lon="23.78883">
        <ele>681.573063</ele>
        <time>2022-03-08T12:46:20.775Z</time>
      </trkpt>
      <trkpt lat="42.65271" lon="23.78871">
        <ele>681.3536</ele>
        <time>2022-03-08T12:46:22.774Z</time>
      </trkpt>
      <trkpt lat="42.65277" lon="23.78859">
        <ele>681.11833</ele>
        <time>2022-03-08T12:46:24.775Z</time>
      </trkpt>
      <trkpt lat="42.65283" lon="23.78846">
        <ele>680.881065</ele>
        <time>2022-03-08T12:46:26.779Z</time>
      </trkpt>
      <trkpt lat="42.65289" lon="23.78834">
        <ele>680.65017</ele>
        <time>2022-03-08T12:46:28.780Z</time>
      </trkpt>
      <trkpt lat="42.65295" lon="23.78823">
        <ele>680.420756</ele>
        <time>2022-03-08T12:46:30.788Z</time>
      </trkpt>
      <trkpt lat="42.65302" lon="23.78812">
        <ele>680.204684</ele>
        <time>2022-03-08T12:46:32.780Z</time>
      </trkpt>
      <trkpt lat="42.65308" lon="23.78803">
        <ele>680.032826</ele>
        <time>2022-03-08T12:46:34.767Z</time>
      </trkpt>
      <trkpt lat="42.65315" lon="23.78793">
        <ele>679.972981</ele>
        <time>2022-03-08T12:46:36.778Z</time>
      </trkpt>
      <trkpt lat="42.65323" lon="23.7878">
        <ele>679.88819</ele>
        <time>2022-03-08T12:46:39.787Z</time>
      </trkpt>
      <trkpt lat="42.65331" lon="23.78767">
        <ele>679.808937</ele>
        <time>2022-03-08T12:46:42.793Z</time>
      </trkpt>
      <trkpt lat="42.65339" lon="23.78754">
        <ele>679.726651</ele>
        <time>2022-03-08T12:46:45.766Z</time>
      </trkpt>
      <trkpt lat="42.65347" lon="23.7874">
        <ele>679.642759</ele>
        <time>2022-03-08T12:46:48.793Z</time>
      </trkpt>
      <trkpt lat="42.65353" lon="23.7873">
        <ele>679.583967</ele>
        <time>2022-03-08T12:46:50.782Z</time>
      </trkpt>
      <trkpt lat="42.65361" lon="23.78717">
        <ele>679.498092</ele>
        <time>2022-03-08T12:46:53.779Z</time>
      </trkpt>
      <trkpt lat="42.65369" lon="23.78704">
        <ele>679.418007</ele>
        <time>2022-03-08T12:46:56.779Z</time>
      </trkpt>
      <trkpt lat="42.65378" lon="23.78692">
        <ele>679.339999</ele>
        <time>2022-03-08T12:46:59.794Z</time>
      </trkpt>
      <trkpt lat="42.65385" lon="23.78679">
        <ele>679.262206</ele>
        <time>2022-03-08T12:47:02.814Z</time>
      </trkpt>
      <trkpt lat="42.65394" lon="23.78668">
        <ele>679.186182</ele>
        <time>2022-03-08T12:47:05.782Z</time>
      </trkpt>
      <trkpt lat="42.65401" lon="23.78655">
        <ele>679.109306</ele>
        <time>2022-03-08T12:47:08.777Z</time>
      </trkpt>
      <trkpt lat="42.65408" lon="23.78644">
        <ele>679.037834</ele>
        <time>2022-03-08T12:47:11.768Z</time>
      </trkpt>
      <trkpt lat="42.65414" lon="23.78633">
        <ele>678.970521</ele>
        <time>2022-03-08T12:47:14.775Z</time>
      </trkpt>
      <trkpt lat="42.65423" lon="23.78622">
        <ele>678.897828</ele>
        <time>2022-03-08T12:47:17.788Z</time>
      </trkpt>
      <trkpt lat="42.65431" lon="23.78611">
        <ele>678.572753</ele>
        <time>2022-03-08T12:47:20.768Z</time>
      </trkpt>
      <trkpt lat="42.6544" lon="23.78598">
        <ele>678.173875</ele>
        <time>2022-03-08T12:47:23.783Z</time>
      </trkpt>
      <trkpt lat="42.65446" lon="23.78588">
        <ele>677.89544</ele>
        <time>2022-03-08T12:47:25.781Z</time>
      </trkpt>
      <trkpt lat="42.65452" lon="23.78579">
        <ele>677.615267</ele>
        <time>2022-03-08T12:47:27.774Z</time>
      </trkpt>
      <trkpt lat="42.65458" lon="23.7857">
        <ele>677.335526</ele>
        <time>2022-03-08T12:47:29.787Z</time>
      </trkpt>
      <trkpt lat="42.65468" lon="23.78556">
        <ele>676.914723</ele>
        <time>2022-03-08T12:47:32.781Z</time>
      </trkpt>
      <trkpt lat="42.65474" lon="23.78547">
        <ele>676.618372</ele>
        <time>2022-03-08T12:47:34.785Z</time>
      </trkpt>
      <trkpt lat="42.65482" lon="23.78537">
        <ele>676.302784</ele>
        <time>2022-03-08T12:47:36.774Z</time>
      </trkpt>
      <trkpt lat="42.65489" lon="23.78526">
        <ele>675.966799</ele>
        <time>2022-03-08T12:47:38.791Z</time>
      </trkpt>
      <trkpt lat="42.65498" lon="23.78515">
        <ele>675.609202</ele>
        <time>2022-03-08T12:47:40.781Z</time>
      </trkpt>
      <trkpt lat="42.65507" lon="23.78503">
        <ele>675.223286</ele>
        <time>2022-03-08T12:47:42.771Z</time>
      </trkpt>
      <trkpt lat="42.65516" lon="23.78491">
        <ele>674.83771</ele>
        <time>2022-03-08T12:47:44.800Z</time>
      </trkpt>
      <trkpt lat="42.65525" lon="23.78479">
        <ele>674.43633</ele>
        <time>2022-03-08T12:47:46.795Z</time>
      </trkpt>
      <trkpt lat="42.65534" lon="23.78467">
        <ele>674.038611</ele>
        <time>2022-03-08T12:47:48.783Z</time>
      </trkpt>
      <trkpt lat="42.65543" lon="23.78454">
        <ele>673.638759</ele>
        <time>2022-03-08T12:47:50.767Z</time>
      </trkpt>
      <trkpt lat="42.65552" lon="23.78441">
        <ele>673.324115</ele>
        <time>2022-03-08T12:47:52.796Z</time>
      </trkpt>
      <trkpt lat="42.6556" lon="23.78429">
        <ele>673.188034</ele>
        <time>2022-03-08T12:47:54.788Z</time>
      </trkpt>
      <trkpt lat="42.65567" lon="23.78417">
        <ele>673.060327</ele>
        <time>2022-03-08T12:47:56.783Z</time>
      </trkpt>
      <trkpt lat="42.65574" lon="23.78405">
        <ele>672.939468</ele>
        <time>2022-03-08T12:47:58.777Z</time>
      </trkpt>
      <trkpt lat="42.6558" lon="23.78394">
        <ele>672.823962</ele>
        <time>2022-03-08T12:48:00.784Z</time>
      </trkpt>
      <trkpt lat="42.65586" lon="23.78383">
        <ele>672.71313</ele>
        <time>2022-03-08T12:48:02.783Z</time>
      </trkpt>
      <trkpt lat="42.65591" lon="23.78373">
        <ele>672.6043</ele>
        <time>2022-03-08T12:48:04.778Z</time>
      </trkpt>
      <trkpt lat="42.65597" lon="23.78363">
        <ele>672.500814</ele>
        <time>2022-03-08T12:48:06.781Z</time>
      </trkpt>
      <trkpt lat="42.65604" lon="23.78349">
        <ele>672.361939</ele>
        <time>2022-03-08T12:48:09.780Z</time>
      </trkpt>
      <trkpt lat="42.65611" lon="23.78335">
        <ele>672.222817</ele>
        <time>2022-03-08T12:48:12.775Z</time>
      </trkpt>
      <trkpt lat="42.65619" lon="23.7832">
        <ele>672.073181</ele>
        <time>2022-03-08T12:48:15.785Z</time>
      </trkpt>
      <trkpt lat="42.65624" lon="23.7831">
        <ele>671.970357</ele>
        <time>2022-03-08T12:48:17.799Z</time>
      </trkpt>
      <trkpt lat="42.65629" lon="23.783">
        <ele>671.864816</ele>
        <time>2022-03-08T12:48:19.785Z</time>
      </trkpt>
      <trkpt lat="42.65635" lon="23.78289">
        <ele>671.755322</ele>
        <time>2022-03-08T12:48:21.775Z</time>
      </trkpt>
      <trkpt lat="42.65641" lon="23.78279">
        <ele>671.646454</ele>
        <time>2022-03-08T12:48:23.791Z</time>
      </trkpt>
      <trkpt lat="42.65646" lon="23.78268">
        <ele>671.538781</ele>
        <time>2022-03-08T12:48:25.820Z</time>
      </trkpt>
      <trkpt lat="42.65651" lon="23.78257">
        <ele>671.432494</ele>
        <time>2022-03-08T12:48:27.780Z</time>
      </trkpt>
      <trkpt lat="42.65656" lon="23.78246">
        <ele>671.320096</ele>
        <time>2022-03-08T12:48:29.789Z</time>
      </trkpt>
      <trkpt lat="42.65661" lon="23.78236">
        <ele>671.172908</ele>
        <time>2022-03-08T12:48:31.777Z</time>
      </trkpt>
      <trkpt lat="42.65666" lon="23.78225">
        <ele>671.029892</ele>
        <time>2022-03-08T12:48:33.768Z</time>
      </trkpt>
      <trkpt lat="42.65671" lon="23.78214">
        <ele>670.883864</ele>
        <time>2022-03-08T12:48:35.790Z</time>
      </trkpt>
      <trkpt lat="42.65676" lon="23.78203">
        <ele>670.731781</ele>
        <time>2022-03-08T12:48:37.783Z</time>
      </trkpt>
      <trkpt lat="42.65681" lon="23.78192">
        <ele>670.577722</ele>
        <time>2022-03-08T12:48:39.787Z</time>
      </trkpt>
      <trkpt lat="42.65686" lon="23.7818">
        <ele>670.42429</ele>
        <time>2022-03-08T12:48:41.783Z</time>
      </trkpt>
      <trkpt lat="42.65691" lon="23.78169">
        <ele>670.26924</ele>
        <time>2022-03-08T12:48:43.782Z</time>
      </trkpt>
      <trkpt lat="42.65696" lon="23.78158">
        <ele>670.119402</ele>
        <time>2022-03-08T12:48:45.776Z</time>
      </trkpt>
      <trkpt lat="42.657" lon="23.78147">
        <ele>669.969965</ele>
        <time>2022-03-08T12:48:47.767Z</time>
      </trkpt>
      <trkpt lat="42.65706" lon="23.78136">
        <ele>669.816058</ele>
        <time>2022-03-08T12:48:49.794Z</time>
      </trkpt>
      <trkpt lat="42.65711" lon="23.78124">
        <ele>669.660014</ele>
        <time>2022-03-08T12:48:51.772Z</time>
      </trkpt>
      <trkpt lat="42.65716" lon="23.78113">
        <ele>669.51157</ele>
        <time>2022-03-08T12:48:53.806Z</time>
      </trkpt>
      <trkpt lat="42.65721" lon="23.78103">
        <ele>669.361667</ele>
        <time>2022-03-08T12:48:55.784Z</time>
      </trkpt>
      <trkpt lat="42.65727" lon="23.78092">
        <ele>669.209044</ele>
        <time>2022-03-08T12:48:57.763Z</time>
      </trkpt>
      <trkpt lat="42.65733" lon="23.78082">
        <ele>669.050304</ele>
        <time>2022-03-08T12:48:59.756Z</time>
      </trkpt>
      <trkpt lat="42.65741" lon="23.78072">
        <ele>668.880922</ele>
        <time>2022-03-08T12:49:01.777Z</time>
      </trkpt>
      <trkpt lat="42.6575" lon="23.78062">
        <ele>668.704623</ele>
        <time>2022-03-08T12:49:03.795Z</time>
      </trkpt>
      <trkpt lat="42.65758" lon="23.78053">
        <ele>668.534408</ele>
        <time>2022-03-08T12:49:05.771Z</time>
      </trkpt>
      <trkpt lat="42.65767" lon="23.78045">
        <ele>668.283273</ele>
        <time>2022-03-08T12:49:07.780Z</time>
      </trkpt>
      <trkpt lat="42.65775" lon="23.78036">
        <ele>668.015682</ele>
        <time>2022-03-08T12:49:09.788Z</time>
      </trkpt>
      <trkpt lat="42.65783" lon="23.78029">
        <ele>667.756069</ele>
        <time>2022-03-08T12:49:11.778Z</time>
      </trkpt>
      <trkpt lat="42.65791" lon="23.78021">
        <ele>667.501909</ele>
        <time>2022-03-08T12:49:13.786Z</time>
      </trkpt>
      <trkpt lat="42.65799" lon="23.78014">
        <ele>667.249917</ele>
        <time>2022-03-08T12:49:15.808Z</time>
      </trkpt>
      <trkpt lat="42.65806" lon="23.78007">
        <ele>667.009766</ele>
        <time>2022-03-08T12:49:17.777Z</time>
      </trkpt>
      <trkpt lat="42.65817" lon="23.77996">
        <ele>666.667189</ele>
        <time>2022-03-08T12:49:20.773Z</time>
      </trkpt>
      <trkpt lat="42.65827" lon="23.77985">
        <ele>666.328475</ele>
        <time>2022-03-08T12:49:23.777Z</time>
      </trkpt>
      <trkpt lat="42.65836" lon="23.77973">
        <ele>665.983898</ele>
        <time>2022-03-08T12:49:26.768Z</time>
      </trkpt>
      <trkpt lat="42.65843" lon="23.77964">
        <ele>665.738367</ele>
        <time>2022-03-08T12:49:28.783Z</time>
      </trkpt>
      <trkpt lat="42.65849" lon="23.77954">
        <ele>665.489113</ele>
        <time>2022-03-08T12:49:30.793Z</time>
      </trkpt>
      <trkpt lat="42.65856" lon="23.77944">
        <ele>665.234174</ele>
        <time>2022-03-08T12:49:32.775Z</time>
      </trkpt>
      <trkpt lat="42.65862" lon="23.77935">
        <ele>664.982724</ele>
        <time>2022-03-08T12:49:34.781Z</time>
      </trkpt>
      <trkpt lat="42.65868" lon="23.77924">
        <ele>664.735265</ele>
        <time>2022-03-08T12:49:36.775Z</time>
      </trkpt>
      <trkpt lat="42.65873" lon="23.77914">
        <ele>664.487819</ele>
        <time>2022-03-08T12:49:38.782Z</time>
      </trkpt>
      <trkpt lat="42.6588" lon="23.77904">
        <ele>664.218668</ele>
        <time>2022-03-08T12:49:40.785Z</time>
      </trkpt>
      <trkpt lat="42.65887" lon="23.77893">
        <ele>663.949223</ele>
        <time>2022-03-08T12:49:42.789Z</time>
      </trkpt>
      <trkpt lat="42.65892" lon="23.77881">
        <ele>663.685142</ele>
        <time>2022-03-08T12:49:44.827Z</time>
      </trkpt>
      <trkpt lat="42.65897" lon="23.77868">
        <ele>663.41469</ele>
        <time>2022-03-08T12:49:46.775Z</time>
      </trkpt>
      <trkpt lat="42.65901" lon="23.77855">
        <ele>663.13794</ele>
        <time>2022-03-08T12:49:48.777Z</time>
      </trkpt>
      <trkpt lat="42.65906" lon="23.77842">
        <ele>662.864762</ele>
        <time>2022-03-08T12:49:50.756Z</time>
      </trkpt>
      <trkpt lat="42.6591" lon="23.77828">
        <ele>662.593721</ele>
        <time>2022-03-08T12:49:52.773Z</time>
      </trkpt>
      <trkpt lat="42.65915" lon="23.77815">
        <ele>662.313165</ele>
        <time>2022-03-08T12:49:54.779Z</time>
      </trkpt>
      <trkpt lat="42.65918" lon="23.778">
        <ele>662.032482</ele>
        <time>2022-03-08T12:49:56.792Z</time>
      </trkpt>
      <trkpt lat="42.65922" lon="23.77786">
        <ele>661.75275</ele>
        <time>2022-03-08T12:49:58.778Z</time>
      </trkpt>
      <trkpt lat="42.65926" lon="23.77773">
        <ele>661.468785</ele>
        <time>2022-03-08T12:50:00.813Z</time>
      </trkpt>
      <trkpt lat="42.6593" lon="23.77758">
        <ele>661.18558</ele>
        <time>2022-03-08T12:50:02.788Z</time>
      </trkpt>
      <trkpt lat="42.65934" lon="23.77744">
        <ele>660.893505</ele>
        <time>2022-03-08T12:50:04.772Z</time>
      </trkpt>
      <trkpt lat="42.65939" lon="23.7773">
        <ele>660.596748</ele>
        <time>2022-03-08T12:50:06.767Z</time>
      </trkpt>
      <trkpt lat="42.65945" lon="23.77716">
        <ele>660.304219</ele>
        <time>2022-03-08T12:50:08.780Z</time>
      </trkpt>
      <trkpt lat="42.65951" lon="23.77703">
        <ele>660.009093</ele>
        <time>2022-03-08T12:50:10.778Z</time>
      </trkpt>
      <trkpt lat="42.65957" lon="23.7769">
        <ele>659.715896</ele>
        <time>2022-03-08T12:50:12.768Z</time>
      </trkpt>
      <trkpt lat="42.65965" lon="23.77677">
        <ele>659.413796</ele>
        <time>2022-03-08T12:50:14.768Z</time>
      </trkpt>
      <trkpt lat="42.65972" lon="23.77664">
        <ele>659.150474</ele>
        <time>2022-03-08T12:50:16.778Z</time>
      </trkpt>
      <trkpt lat="42.65979" lon="23.77653">
        <ele>658.999368</ele>
        <time>2022-03-08T12:50:18.770Z</time>
      </trkpt>
      <trkpt lat="42.65986" lon="23.77641">
        <ele>658.852689</ele>
        <time>2022-03-08T12:50:20.776Z</time>
      </trkpt>
      <trkpt lat="42.65993" lon="23.7763">
        <ele>658.703019</ele>
        <time>2022-03-08T12:50:22.776Z</time>
      </trkpt>
      <trkpt lat="42.65999" lon="23.77618">
        <ele>658.560572</ele>
        <time>2022-03-08T12:50:24.756Z</time>
      </trkpt>
      <trkpt lat="42.66004" lon="23.77606">
        <ele>658.424746</ele>
        <time>2022-03-08T12:50:26.775Z</time>
      </trkpt>
      <trkpt lat="42.6601" lon="23.77595">
        <ele>658.286363</ele>
        <time>2022-03-08T12:50:28.821Z</time>
      </trkpt>
      <trkpt lat="42.66017" lon="23.77585">
        <ele>658.148692</ele>
        <time>2022-03-08T12:50:30.785Z</time>
      </trkpt>
      <trkpt lat="42.66024" lon="23.77575">
        <ele>658.012258</ele>
        <time>2022-03-08T12:50:32.777Z</time>
      </trkpt>
      <trkpt lat="42.66031" lon="23.77565">
        <ele>657.874384</ele>
        <time>2022-03-08T12:50:34.774Z</time>
      </trkpt>
      <trkpt lat="42.66038" lon="23.77555">
        <ele>657.738368</ele>
        <time>2022-03-08T12:50:36.799Z</time>
      </trkpt>
      <trkpt lat="42.66044" lon="23.77545">
        <ele>657.608378</ele>
        <time>2022-03-08T12:50:38.767Z</time>
      </trkpt>
      <trkpt lat="42.6605" lon="23.77536">
        <ele>657.481181</ele>
        <time>2022-03-08T12:50:40.790Z</time>
      </trkpt>
      <trkpt lat="42.6606" lon="23.77525">
        <ele>657.310479</ele>
        <time>2022-03-08T12:50:43.794Z</time>
      </trkpt>
      <trkpt lat="42.66069" lon="23.77515">
        <ele>657.149629</ele>
        <time>2022-03-08T12:50:46.778Z</time>
      </trkpt>
      <trkpt lat="42.66078" lon="23.77504">
        <ele>656.987286</ele>
        <time>2022-03-08T12:50:49.799Z</time>
      </trkpt>
      <trkpt lat="42.66087" lon="23.77492">
        <ele>656.814714</ele>
        <time>2022-03-08T12:50:52.783Z</time>
      </trkpt>
      <trkpt lat="42.66093" lon="23.77482">
        <ele>656.691905</ele>
        <time>2022-03-08T12:50:54.781Z</time>
      </trkpt>
      <trkpt lat="42.66099" lon="23.77471">
        <ele>656.555306</ele>
        <time>2022-03-08T12:50:56.777Z</time>
      </trkpt>
      <trkpt lat="42.66106" lon="23.77459">
        <ele>656.405885</ele>
        <time>2022-03-08T12:50:58.776Z</time>
      </trkpt>
      <trkpt lat="42.66112" lon="23.77447">
        <ele>656.254104</ele>
        <time>2022-03-08T12:51:00.778Z</time>
      </trkpt>
      <trkpt lat="42.66119" lon="23.77435">
        <ele>656.10146</ele>
        <time>2022-03-08T12:51:02.774Z</time>
      </trkpt>
      <trkpt lat="42.66126" lon="23.77423">
        <ele>655.946467</ele>
        <time>2022-03-08T12:51:04.761Z</time>
      </trkpt>
      <trkpt lat="42.66133" lon="23.7741">
        <ele>655.792259</ele>
        <time>2022-03-08T12:51:06.778Z</time>
      </trkpt>
      <trkpt lat="42.66141" lon="23.77397">
        <ele>655.63169</ele>
        <time>2022-03-08T12:51:08.778Z</time>
      </trkpt>
      <trkpt lat="42.66147" lon="23.77384">
        <ele>655.471701</ele>
        <time>2022-03-08T12:51:10.784Z</time>
      </trkpt>
      <trkpt lat="42.66153" lon="23.77371">
        <ele>655.31987</ele>
        <time>2022-03-08T12:51:12.825Z</time>
      </trkpt>
      <trkpt lat="42.6616" lon="23.77359">
        <ele>655.175233</ele>
        <time>2022-03-08T12:51:14.776Z</time>
      </trkpt>
      <trkpt lat="42.66166" lon="23.77348">
        <ele>655.039426</ele>
        <time>2022-03-08T12:51:16.785Z</time>
      </trkpt>
      <trkpt lat="42.66172" lon="23.77338">
        <ele>654.903655</ele>
        <time>2022-03-08T12:51:18.797Z</time>
      </trkpt>
      <trkpt lat="42.66179" lon="23.77328">
        <ele>654.76507</ele>
        <time>2022-03-08T12:51:20.781Z</time>
      </trkpt>
      <trkpt lat="42.66187" lon="23.77318">
        <ele>654.623452</ele>
        <time>2022-03-08T12:51:22.776Z</time>
      </trkpt>
      <trkpt lat="42.66195" lon="23.77308">
        <ele>654.475512</ele>
        <time>2022-03-08T12:51:24.784Z</time>
      </trkpt>
      <trkpt lat="42.66203" lon="23.773">
        <ele>654.341516</ele>
        <time>2022-03-08T12:51:26.765Z</time>
      </trkpt>
      <trkpt lat="42.66211" lon="23.77294">
        <ele>654.314505</ele>
        <time>2022-03-08T12:51:28.788Z</time>
      </trkpt>
      <trkpt lat="42.6622" lon="23.77289">
        <ele>654.304433</ele>
        <time>2022-03-08T12:51:30.788Z</time>
      </trkpt>
      <trkpt lat="42.66229" lon="23.77285">
        <ele>654.294212</ele>
        <time>2022-03-08T12:51:32.771Z</time>
      </trkpt>
      <trkpt lat="42.66242" lon="23.77281">
        <ele>654.279313</ele>
        <time>2022-03-08T12:51:35.784Z</time>
      </trkpt>
      <trkpt lat="42.66251" lon="23.77278">
        <ele>654.269078</ele>
        <time>2022-03-08T12:51:37.772Z</time>
      </trkpt>
      <trkpt lat="42.6626" lon="23.77276">
        <ele>654.258655</ele>
        <time>2022-03-08T12:51:39.792Z</time>
      </trkpt>
      <trkpt lat="42.66269" lon="23.77274">
        <ele>654.248245</ele>
        <time>2022-03-08T12:51:41.775Z</time>
      </trkpt>
      <trkpt lat="42.66279" lon="23.77272">
        <ele>654.237265</ele>
        <time>2022-03-08T12:51:43.795Z</time>
      </trkpt>
      <trkpt lat="42.66289" lon="23.77269">
        <ele>654.225712</ele>
        <time>2022-03-08T12:51:45.785Z</time>
      </trkpt>
      <trkpt lat="42.663" lon="23.77266">
        <ele>654.214046</ele>
        <time>2022-03-08T12:51:47.797Z</time>
      </trkpt>
      <trkpt lat="42.66309" lon="23.77262">
        <ele>654.203405</ele>
        <time>2022-03-08T12:51:49.791Z</time>
      </trkpt>
      <trkpt lat="42.66317" lon="23.77257">
        <ele>654.19308</ele>
        <time>2022-03-08T12:51:51.807Z</time>
      </trkpt>
      <trkpt lat="42.66326" lon="23.77251">
        <ele>654.182777</ele>
        <time>2022-03-08T12:51:53.773Z</time>
      </trkpt>
      <trkpt lat="42.66333" lon="23.77244">
        <ele>654.172595</ele>
        <time>2022-03-08T12:51:55.771Z</time>
      </trkpt>
      <trkpt lat="42.66344" lon="23.77234">
        <ele>654.158147</ele>
        <time>2022-03-08T12:51:58.782Z</time>
      </trkpt>
      <trkpt lat="42.66355" lon="23.77225">
        <ele>654.144536</ele>
        <time>2022-03-08T12:52:01.785Z</time>
      </trkpt>
      <trkpt lat="42.66364" lon="23.77217">
        <ele>654.132117</ele>
        <time>2022-03-08T12:52:04.777Z</time>
      </trkpt>
      <trkpt lat="42.66373" lon="23.77209">
        <ele>654.207867</ele>
        <time>2022-03-08T12:52:07.823Z</time>
      </trkpt>
      <trkpt lat="42.66382" lon="23.77202">
        <ele>654.421663</ele>
        <time>2022-03-08T12:52:10.779Z</time>
      </trkpt>
      <trkpt lat="42.6639" lon="23.77195">
        <ele>654.635459</ele>
        <time>2022-03-08T12:52:13.779Z</time>
      </trkpt>
      <trkpt lat="42.66398" lon="23.77188">
        <ele>654.839533</ele>
        <time>2022-03-08T12:52:16.779Z</time>
      </trkpt>
      <trkpt lat="42.66407" lon="23.7718">
        <ele>655.050719</ele>
        <time>2022-03-08T12:52:19.811Z</time>
      </trkpt>
      <trkpt lat="42.66415" lon="23.77173">
        <ele>655.251366</ele>
        <time>2022-03-08T12:52:22.774Z</time>
      </trkpt>
      <trkpt lat="42.66423" lon="23.77165">
        <ele>655.458022</ele>
        <time>2022-03-08T12:52:25.780Z</time>
      </trkpt>
      <trkpt lat="42.66431" lon="23.77157">
        <ele>655.672566</ele>
        <time>2022-03-08T12:52:28.789Z</time>
      </trkpt>
      <trkpt lat="42.66439" lon="23.7715">
        <ele>655.872306</ele>
        <time>2022-03-08T12:52:31.795Z</time>
      </trkpt>
      <trkpt lat="42.66447" lon="23.77142">
        <ele>656.078998</ele>
        <time>2022-03-08T12:52:34.803Z</time>
      </trkpt>
      <trkpt lat="42.66454" lon="23.77133">
        <ele>656.296742</ele>
        <time>2022-03-08T12:52:37.794Z</time>
      </trkpt>
      <trkpt lat="42.66463" lon="23.77125">
        <ele>656.510375</ele>
        <time>2022-03-08T12:52:40.766Z</time>
      </trkpt>
      <trkpt lat="42.66471" lon="23.77117">
        <ele>656.724919</ele>
        <time>2022-03-08T12:52:43.788Z</time>
      </trkpt>
      <trkpt lat="42.6648" lon="23.77108">
        <ele>656.957932</ele>
        <time>2022-03-08T12:52:46.822Z</time>
      </trkpt>
      <trkpt lat="42.66489" lon="23.77096">
        <ele>657.21471</ele>
        <time>2022-03-08T12:52:49.791Z</time>
      </trkpt>
      <trkpt lat="42.66498" lon="23.77084">
        <ele>657.489203</ele>
        <time>2022-03-08T12:52:52.766Z</time>
      </trkpt>
      <trkpt lat="42.66509" lon="23.77073">
        <ele>657.773519</ele>
        <time>2022-03-08T12:52:55.775Z</time>
      </trkpt>
      <trkpt lat="42.66516" lon="23.77065">
        <ele>657.871695</ele>
        <time>2022-03-08T12:52:57.801Z</time>
      </trkpt>
      <trkpt lat="42.66524" lon="23.77058">
        <ele>657.701428</ele>
        <time>2022-03-08T12:52:59.804Z</time>
      </trkpt>
      <trkpt lat="42.66534" lon="23.77047">
        <ele>657.46334</ele>
        <time>2022-03-08T12:53:02.773Z</time>
      </trkpt>
      <trkpt lat="42.66544" lon="23.77037">
        <ele>657.228802</ele>
        <time>2022-03-08T12:53:05.775Z</time>
      </trkpt>
      <trkpt lat="42.66554" lon="23.77026">
        <ele>656.985906</ele>
        <time>2022-03-08T12:53:08.804Z</time>
      </trkpt>
      <trkpt lat="42.66565" lon="23.77016">
        <ele>656.738962</ele>
        <time>2022-03-08T12:53:11.778Z</time>
      </trkpt>
      <trkpt lat="42.66573" lon="23.77009">
        <ele>656.571782</ele>
        <time>2022-03-08T12:53:13.768Z</time>
      </trkpt>
      <trkpt lat="42.6658" lon="23.77002">
        <ele>656.399205</ele>
        <time>2022-03-08T12:53:15.784Z</time>
      </trkpt>
      <trkpt lat="42.66592" lon="23.76993">
        <ele>656.158079</ele>
        <time>2022-03-08T12:53:18.767Z</time>
      </trkpt>
      <trkpt lat="42.66603" lon="23.76987">
        <ele>655.934471</ele>
        <time>2022-03-08T12:53:21.792Z</time>
      </trkpt>
      <trkpt lat="42.66615" lon="23.76981">
        <ele>655.687699</ele>
        <time>2022-03-08T12:53:24.773Z</time>
      </trkpt>
      <trkpt lat="42.66624" lon="23.76976">
        <ele>655.511593</ele>
        <time>2022-03-08T12:53:26.778Z</time>
      </trkpt>
      <trkpt lat="42.66633" lon="23.76972">
        <ele>655.332006</ele>
        <time>2022-03-08T12:53:28.779Z</time>
      </trkpt>
      <trkpt lat="42.66642" lon="23.76967">
        <ele>655.153202</ele>
        <time>2022-03-08T12:53:30.774Z</time>
      </trkpt>
      <trkpt lat="42.66651" lon="23.76962">
        <ele>654.976127</ele>
        <time>2022-03-08T12:53:32.802Z</time>
      </trkpt>
      <trkpt lat="42.66661" lon="23.76958">
        <ele>654.793503</ele>
        <time>2022-03-08T12:53:34.781Z</time>
      </trkpt>
      <trkpt lat="42.66669" lon="23.76953">
        <ele>654.617653</ele>
        <time>2022-03-08T12:53:36.807Z</time>
      </trkpt>
      <trkpt lat="42.66678" lon="23.76948">
        <ele>654.466017</ele>
        <time>2022-03-08T12:53:38.777Z</time>
      </trkpt>
      <trkpt lat="42.66687" lon="23.76943">
        <ele>654.318771</ele>
        <time>2022-03-08T12:53:40.789Z</time>
      </trkpt>
      <trkpt lat="42.66696" lon="23.76939">
        <ele>654.175626</ele>
        <time>2022-03-08T12:53:42.777Z</time>
      </trkpt>
      <trkpt lat="42.66708" lon="23.76932">
        <ele>653.972011</ele>
        <time>2022-03-08T12:53:45.764Z</time>
      </trkpt>
      <trkpt lat="42.66716" lon="23.76927">
        <ele>653.834096</ele>
        <time>2022-03-08T12:53:47.810Z</time>
      </trkpt>
      <trkpt lat="42.66729" lon="23.7692">
        <ele>653.632484</ele>
        <time>2022-03-08T12:53:50.776Z</time>
      </trkpt>
      <trkpt lat="42.66741" lon="23.76914">
        <ele>653.435546</ele>
        <time>2022-03-08T12:53:53.779Z</time>
      </trkpt>
      <trkpt lat="42.66752" lon="23.76907">
        <ele>653.248924</ele>
        <time>2022-03-08T12:53:56.773Z</time>
      </trkpt>
      <trkpt lat="42.66762" lon="23.76901">
        <ele>653.071123</ele>
        <time>2022-03-08T12:53:59.792Z</time>
      </trkpt>
      <trkpt lat="42.66772" lon="23.76895">
        <ele>652.903991</ele>
        <time>2022-03-08T12:54:02.789Z</time>
      </trkpt>
      <trkpt lat="42.66782" lon="23.7689">
        <ele>652.745136</ele>
        <time>2022-03-08T12:54:05.771Z</time>
      </trkpt>
      <trkpt lat="42.66793" lon="23.76883">
        <ele>652.566395</ele>
        <time>2022-03-08T12:54:08.791Z</time>
      </trkpt>
      <trkpt lat="42.66804" lon="23.76875">
        <ele>652.37618</ele>
        <time>2022-03-08T12:54:11.774Z</time>
      </trkpt>
      <trkpt lat="42.66814" lon="23.76866">
        <ele>652.189657</ele>
        <time>2022-03-08T12:54:14.770Z</time>
      </trkpt>
      <trkpt lat="42.66822" lon="23.76852">
        <ele>651.986266</ele>
        <time>2022-03-08T12:54:17.785Z</time>
      </trkpt>
      <trkpt lat="42.66828" lon="23.76842">
        <ele>651.843114</ele>
        <time>2022-03-08T12:54:19.827Z</time>
      </trkpt>
      <trkpt lat="42.66834" lon="23.76832">
        <ele>651.825704</ele>
        <time>2022-03-08T12:54:21.776Z</time>
      </trkpt>
      <trkpt lat="42.66841" lon="23.76822">
        <ele>651.818628</ele>
        <time>2022-03-08T12:54:23.770Z</time>
      </trkpt>
      <trkpt lat="42.66848" lon="23.76811">
        <ele>651.811485</ele>
        <time>2022-03-08T12:54:25.777Z</time>
      </trkpt>
      <trkpt lat="42.66853" lon="23.768">
        <ele>651.804639</ele>
        <time>2022-03-08T12:54:27.784Z</time>
      </trkpt>
      <trkpt lat="42.66859" lon="23.7679">
        <ele>651.798289</ele>
        <time>2022-03-08T12:54:29.790Z</time>
      </trkpt>
      <trkpt lat="42.66864" lon="23.76775">
        <ele>651.789738</ele>
        <time>2022-03-08T12:54:32.775Z</time>
      </trkpt>
      <trkpt lat="42.66869" lon="23.7676">
        <ele>651.78115</ele>
        <time>2022-03-08T12:54:35.784Z</time>
      </trkpt>
      <trkpt lat="42.66873" lon="23.76744">
        <ele>651.772719</ele>
        <time>2022-03-08T12:54:38.794Z</time>
      </trkpt>
      <trkpt lat="42.66878" lon="23.76729">
        <ele>651.764433</ele>
        <time>2022-03-08T12:54:41.812Z</time>
      </trkpt>
      <trkpt lat="42.66882" lon="23.76715">
        <ele>651.75662</ele>
        <time>2022-03-08T12:54:44.778Z</time>
      </trkpt>
      <trkpt lat="42.66886" lon="23.767">
        <ele>651.748622</ele>
        <time>2022-03-08T12:54:47.786Z</time>
      </trkpt>
      <trkpt lat="42.6689" lon="23.76686">
        <ele>651.74052</ele>
        <time>2022-03-08T12:54:50.774Z</time>
      </trkpt>
      <trkpt lat="42.66895" lon="23.76671">
        <ele>651.732344</ele>
        <time>2022-03-08T12:54:53.788Z</time>
      </trkpt>
      <trkpt lat="42.66899" lon="23.76657">
        <ele>651.724457</ele>
        <time>2022-03-08T12:54:56.778Z</time>
      </trkpt>
      <trkpt lat="42.66905" lon="23.76644">
        <ele>651.716869</ele>
        <time>2022-03-08T12:54:59.794Z</time>
      </trkpt>
      <trkpt lat="42.66912" lon="23.76632">
        <ele>651.708906</ele>
        <time>2022-03-08T12:55:02.786Z</time>
      </trkpt>
      <trkpt lat="42.6692" lon="23.7662">
        <ele>651.643274</ele>
        <time>2022-03-08T12:55:05.782Z</time>
      </trkpt>
      <trkpt lat="42.66929" lon="23.76611">
        <ele>651.559043</ele>
        <time>2022-03-08T12:55:08.783Z</time>
      </trkpt>
      <trkpt lat="42.66938" lon="23.76602">
        <ele>651.475403</ele>
        <time>2022-03-08T12:55:11.788Z</time>
      </trkpt>
      <trkpt lat="42.66947" lon="23.76592">
        <ele>651.385628</ele>
        <time>2022-03-08T12:55:14.775Z</time>
      </trkpt>
      <trkpt lat="42.66956" lon="23.76585">
        <ele>651.312213</ele>
        <time>2022-03-08T12:55:16.771Z</time>
      </trkpt>
      <trkpt lat="42.66965" lon="23.76576">
        <ele>651.226715</ele>
        <time>2022-03-08T12:55:18.783Z</time>
      </trkpt>
      <trkpt lat="42.66974" lon="23.76566">
        <ele>651.138536</ele>
        <time>2022-03-08T12:55:20.812Z</time>
      </trkpt>
      <trkpt lat="42.66982" lon="23.76556">
        <ele>651.055133</ele>
        <time>2022-03-08T12:55:22.780Z</time>
      </trkpt>
      <trkpt lat="42.6699" lon="23.76545">
        <ele>650.972547</ele>
        <time>2022-03-08T12:55:24.768Z</time>
      </trkpt>
      <trkpt lat="42.66996" lon="23.76534">
        <ele>650.89759</ele>
        <time>2022-03-08T12:55:26.779Z</time>
      </trkpt>
      <trkpt lat="42.67002" lon="23.76524">
        <ele>650.829968</ele>
        <time>2022-03-08T12:55:28.779Z</time>
      </trkpt>
      <trkpt lat="42.6701" lon="23.76512">
        <ele>650.735094</ele>
        <time>2022-03-08T12:55:31.815Z</time>
      </trkpt>
      <trkpt lat="42.67018" lon="23.765">
        <ele>650.650469</ele>
        <time>2022-03-08T12:55:34.765Z</time>
      </trkpt>
      <trkpt lat="42.67025" lon="23.76489">
        <ele>650.565017</ele>
        <time>2022-03-08T12:55:37.784Z</time>
      </trkpt>
      <trkpt lat="42.67035" lon="23.76477">
        <ele>650.470335</ele>
        <time>2022-03-08T12:55:40.777Z</time>
      </trkpt>
      <trkpt lat="42.67043" lon="23.76465">
        <ele>650.375724</ele>
        <time>2022-03-08T12:55:43.770Z</time>
      </trkpt>
      <trkpt lat="42.67053" lon="23.76452">
        <ele>649.997958</ele>
        <time>2022-03-08T12:55:46.796Z</time>
      </trkpt>
      <trkpt lat="42.67059" lon="23.76443">
        <ele>649.706997</ele>
        <time>2022-03-08T12:55:48.776Z</time>
      </trkpt>
      <trkpt lat="42.67065" lon="23.76434">
        <ele>649.421623</ele>
        <time>2022-03-08T12:55:50.770Z</time>
      </trkpt>
      <trkpt lat="42.67075" lon="23.76421">
        <ele>648.994122</ele>
        <time>2022-03-08T12:55:53.815Z</time>
      </trkpt>
      <trkpt lat="42.67084" lon="23.76408">
        <ele>648.585516</ele>
        <time>2022-03-08T12:55:56.788Z</time>
      </trkpt>
      <trkpt lat="42.67092" lon="23.76395">
        <ele>648.190823</ele>
        <time>2022-03-08T12:55:59.853Z</time>
      </trkpt>
      <trkpt lat="42.67099" lon="23.76382">
        <ele>647.800223</ele>
        <time>2022-03-08T12:56:02.787Z</time>
      </trkpt>
      <trkpt lat="42.67108" lon="23.7637">
        <ele>647.399391</ele>
        <time>2022-03-08T12:56:05.772Z</time>
      </trkpt>
      <trkpt lat="42.67117" lon="23.76357">
        <ele>646.971892</ele>
        <time>2022-03-08T12:56:08.768Z</time>
      </trkpt>
      <trkpt lat="42.67123" lon="23.76347">
        <ele>646.663552</ele>
        <time>2022-03-08T12:56:10.836Z</time>
      </trkpt>
      <trkpt lat="42.6713" lon="23.76336">
        <ele>646.330628</ele>
        <time>2022-03-08T12:56:12.778Z</time>
      </trkpt>
      <trkpt lat="42.67137" lon="23.76325">
        <ele>645.994367</ele>
        <time>2022-03-08T12:56:14.763Z</time>
      </trkpt>
      <trkpt lat="42.67142" lon="23.76312">
        <ele>645.653284</ele>
        <time>2022-03-08T12:56:16.769Z</time>
      </trkpt>
      <trkpt lat="42.67148" lon="23.763">
        <ele>645.310874</ele>
        <time>2022-03-08T12:56:18.787Z</time>
      </trkpt>
      <trkpt lat="42.67154" lon="23.76288">
        <ele>644.983747</ele>
        <time>2022-03-08T12:56:20.783Z</time>
      </trkpt>
      <trkpt lat="42.67159" lon="23.76277">
        <ele>644.671298</ele>
        <time>2022-03-08T12:56:22.784Z</time>
      </trkpt>
      <trkpt lat="42.67164" lon="23.76265">
        <ele>644.321619</ele>
        <time>2022-03-08T12:56:24.776Z</time>
      </trkpt>
      <trkpt lat="42.67169" lon="23.76255">
        <ele>643.968624</ele>
        <time>2022-03-08T12:56:26.780Z</time>
      </trkpt>
      <trkpt lat="42.67175" lon="23.76239">
        <ele>643.483155</ele>
        <time>2022-03-08T12:56:29.796Z</time>
      </trkpt>
      <trkpt lat="42.67181" lon="23.76224">
        <ele>642.999151</ele>
        <time>2022-03-08T12:56:32.818Z</time>
      </trkpt>
      <trkpt lat="42.67187" lon="23.76208">
        <ele>642.524999</ele>
        <time>2022-03-08T12:56:35.834Z</time>
      </trkpt>
      <trkpt lat="42.67193" lon="23.76192">
        <ele>642.033504</ele>
        <time>2022-03-08T12:56:38.794Z</time>
      </trkpt>
      <trkpt lat="42.67197" lon="23.76181">
        <ele>641.683589</ele>
        <time>2022-03-08T12:56:40.776Z</time>
      </trkpt>
      <trkpt lat="42.67203" lon="23.76165">
        <ele>641.197116</ele>
        <time>2022-03-08T12:56:43.772Z</time>
      </trkpt>
      <trkpt lat="42.67209" lon="23.76149">
        <ele>640.690181</ele>
        <time>2022-03-08T12:56:46.783Z</time>
      </trkpt>
      <trkpt lat="42.67214" lon="23.76138">
        <ele>640.351682</ele>
        <time>2022-03-08T12:56:48.775Z</time>
      </trkpt>
      <trkpt lat="42.6722" lon="23.76123">
        <ele>639.861885</ele>
        <time>2022-03-08T12:56:51.773Z</time>
      </trkpt>
      <trkpt lat="42.67225" lon="23.76106">
        <ele>639.371168</ele>
        <time>2022-03-08T12:56:54.776Z</time>
      </trkpt>
      <trkpt lat="42.6723" lon="23.76089">
        <ele>638.872931</ele>
        <time>2022-03-08T12:56:57.769Z</time>
      </trkpt>
      <trkpt lat="42.67235" lon="23.76073">
        <ele>638.379239</ele>
        <time>2022-03-08T12:57:00.790Z</time>
      </trkpt>
      <trkpt lat="42.6724" lon="23.76056">
        <ele>637.908727</ele>
        <time>2022-03-08T12:57:03.824Z</time>
      </trkpt>
      <trkpt lat="42.67245" lon="23.7604">
        <ele>638.003319</ele>
        <time>2022-03-08T12:57:06.788Z</time>
      </trkpt>
      <trkpt lat="42.67249" lon="23.76028">
        <ele>638.070256</ele>
        <time>2022-03-08T12:57:08.776Z</time>
      </trkpt>
      <trkpt lat="42.67254" lon="23.76017">
        <ele>638.136185</ele>
        <time>2022-03-08T12:57:10.787Z</time>
      </trkpt>
      <trkpt lat="42.67258" lon="23.76006">
        <ele>638.20236</ele>
        <time>2022-03-08T12:57:12.782Z</time>
      </trkpt>
      <trkpt lat="42.67262" lon="23.75995">
        <ele>638.267742</ele>
        <time>2022-03-08T12:57:14.806Z</time>
      </trkpt>
      <trkpt lat="42.67268" lon="23.75979">
        <ele>638.357881</ele>
        <time>2022-03-08T12:57:17.767Z</time>
      </trkpt>
      <trkpt lat="42.67274" lon="23.75964">
        <ele>638.449586</ele>
        <time>2022-03-08T12:57:20.814Z</time>
      </trkpt>
      <trkpt lat="42.6728" lon="23.75947">
        <ele>638.545569</ele>
        <time>2022-03-08T12:57:23.779Z</time>
      </trkpt>
      <trkpt lat="42.67286" lon="23.75931">
        <ele>638.640293</ele>
        <time>2022-03-08T12:57:26.814Z</time>
      </trkpt>
      <trkpt lat="42.67292" lon="23.75917">
        <ele>638.726826</ele>
        <time>2022-03-08T12:57:29.803Z</time>
      </trkpt>
      <trkpt lat="42.67297" lon="23.75903">
        <ele>638.808974</ele>
        <time>2022-03-08T12:57:32.768Z</time>
      </trkpt>
      <trkpt lat="42.67301" lon="23.7589">
        <ele>638.883122</ele>
        <time>2022-03-08T12:57:35.766Z</time>
      </trkpt>
      <trkpt lat="42.67306" lon="23.75877">
        <ele>638.957587</ele>
        <time>2022-03-08T12:57:38.788Z</time>
      </trkpt>
      <trkpt lat="42.6731" lon="23.75864">
        <ele>639.033553</ele>
        <time>2022-03-08T12:57:41.784Z</time>
      </trkpt>
      <trkpt lat="42.67314" lon="23.7585">
        <ele>639.109085</ele>
        <time>2022-03-08T12:57:44.781Z</time>
      </trkpt>
      <trkpt lat="42.67319" lon="23.75837">
        <ele>639.189104</ele>
        <time>2022-03-08T12:57:47.776Z</time>
      </trkpt>
      <trkpt lat="42.67325" lon="23.75824">
        <ele>639.396879</ele>
        <time>2022-03-08T12:57:50.795Z</time>
      </trkpt>
      <trkpt lat="42.6733" lon="23.7581">
        <ele>639.604214</ele>
        <time>2022-03-08T12:57:53.779Z</time>
      </trkpt>
      <trkpt lat="42.67335" lon="23.75797">
        <ele>639.806328</ele>
        <time>2022-03-08T12:57:56.780Z</time>
      </trkpt>
      <trkpt lat="42.6734" lon="23.75783">
        <ele>640.005603</ele>
        <time>2022-03-08T12:57:59.792Z</time>
      </trkpt>
      <trkpt lat="42.67345" lon="23.7577">
        <ele>640.209722</ele>
        <time>2022-03-08T12:58:02.786Z</time>
      </trkpt>
      <trkpt lat="42.6735" lon="23.75757">
        <ele>640.409095</ele>
        <time>2022-03-08T12:58:05.813Z</time>
      </trkpt>
      <trkpt lat="42.67354" lon="23.75743">
        <ele>640.606691</ele>
        <time>2022-03-08T12:58:08.781Z</time>
      </trkpt>
      <trkpt lat="42.67358" lon="23.7573">
        <ele>640.797195</ele>
        <time>2022-03-08T12:58:11.810Z</time>
      </trkpt>
      <trkpt lat="42.67363" lon="23.75717">
        <ele>640.990031</ele>
        <time>2022-03-08T12:58:14.799Z</time>
      </trkpt>
      <trkpt lat="42.67368" lon="23.75704">
        <ele>641.188554</ele>
        <time>2022-03-08T12:58:17.785Z</time>
      </trkpt>
      <trkpt lat="42.67373" lon="23.75691">
        <ele>641.388788</ele>
        <time>2022-03-08T12:58:20.779Z</time>
      </trkpt>
      <trkpt lat="42.67378" lon="23.75678">
        <ele>641.586973</ele>
        <time>2022-03-08T12:58:23.778Z</time>
      </trkpt>
      <trkpt lat="42.67383" lon="23.75665">
        <ele>641.783836</ele>
        <time>2022-03-08T12:58:26.764Z</time>
      </trkpt>
      <trkpt lat="42.67387" lon="23.75651">
        <ele>641.984319</ele>
        <time>2022-03-08T12:58:29.785Z</time>
      </trkpt>
      <trkpt lat="42.67392" lon="23.75638">
        <ele>642.178796</ele>
        <time>2022-03-08T12:58:32.787Z</time>
      </trkpt>
      <trkpt lat="42.67396" lon="23.75626">
        <ele>642.363196</ele>
        <time>2022-03-08T12:58:35.778Z</time>
      </trkpt>
      <trkpt lat="42.67401" lon="23.75614">
        <ele>642.476608</ele>
        <time>2022-03-08T12:58:38.830Z</time>
      </trkpt>
      <trkpt lat="42.67405" lon="23.75601">
        <ele>642.477862</ele>
        <time>2022-03-08T12:58:41.770Z</time>
      </trkpt>
      <trkpt lat="42.67409" lon="23.75588">
        <ele>642.479114</ele>
        <time>2022-03-08T12:58:44.784Z</time>
      </trkpt>
      <trkpt lat="42.67414" lon="23.75576">
        <ele>642.480355</ele>
        <time>2022-03-08T12:58:47.793Z</time>
      </trkpt>
      <trkpt lat="42.67418" lon="23.75563">
        <ele>642.481638</ele>
        <time>2022-03-08T12:58:50.787Z</time>
      </trkpt>
      <trkpt lat="42.67423" lon="23.7555">
        <ele>642.482906</ele>
        <time>2022-03-08T12:58:53.776Z</time>
      </trkpt>
      <trkpt lat="42.67427" lon="23.75538">
        <ele>642.484102</ele>
        <time>2022-03-08T12:58:56.778Z</time>
      </trkpt>
      <trkpt lat="42.67431" lon="23.75526">
        <ele>642.485304</ele>
        <time>2022-03-08T12:58:59.783Z</time>
      </trkpt>
      <trkpt lat="42.67435" lon="23.75513">
        <ele>642.486529</ele>
        <time>2022-03-08T12:59:02.767Z</time>
      </trkpt>
      <trkpt lat="42.67439" lon="23.755">
        <ele>642.487848</ele>
        <time>2022-03-08T12:59:05.822Z</time>
      </trkpt>
      <trkpt lat="42.67444" lon="23.75486">
        <ele>642.489162</ele>
        <time>2022-03-08T12:59:08.778Z</time>
      </trkpt>
      <trkpt lat="42.67448" lon="23.75473">
        <ele>642.490491</ele>
        <time>2022-03-08T12:59:11.783Z</time>
      </trkpt>
      <trkpt lat="42.67453" lon="23.75459">
        <ele>642.491823</ele>
        <time>2022-03-08T12:59:14.779Z</time>
      </trkpt>
      <trkpt lat="42.67457" lon="23.75445">
        <ele>642.493203</ele>
        <time>2022-03-08T12:59:17.777Z</time>
      </trkpt>
      <trkpt lat="42.67462" lon="23.75431">
        <ele>642.494589</ele>
        <time>2022-03-08T12:59:20.790Z</time>
      </trkpt>
      <trkpt lat="42.67467" lon="23.75417">
        <ele>642.495988</ele>
        <time>2022-03-08T12:59:23.789Z</time>
      </trkpt>
      <trkpt lat="42.67472" lon="23.75404">
        <ele>642.497331</ele>
        <time>2022-03-08T12:59:26.771Z</time>
      </trkpt>
      <trkpt lat="42.67477" lon="23.7539">
        <ele>642.465349</ele>
        <time>2022-03-08T12:59:29.783Z</time>
      </trkpt>
      <trkpt lat="42.67482" lon="23.75376">
        <ele>642.394079</ele>
        <time>2022-03-08T12:59:32.780Z</time>
      </trkpt>
      <trkpt lat="42.67487" lon="23.75361">
        <ele>642.317872</ele>
        <time>2022-03-08T12:59:35.773Z</time>
      </trkpt>
      <trkpt lat="42.67492" lon="23.75346">
        <ele>642.239595</ele>
        <time>2022-03-08T12:59:38.825Z</time>
      </trkpt>
      <trkpt lat="42.67498" lon="23.75331">
        <ele>642.163938</ele>
        <time>2022-03-08T12:59:41.793Z</time>
      </trkpt>
      <trkpt lat="42.67504" lon="23.75315">
        <ele>642.084706</ele>
        <time>2022-03-08T12:59:44.770Z</time>
      </trkpt>
      <trkpt lat="42.67509" lon="23.753">
        <ele>642.006855</ele>
        <time>2022-03-08T12:59:47.787Z</time>
      </trkpt>
      <trkpt lat="42.67515" lon="23.75286">
        <ele>641.932017</ele>
        <time>2022-03-08T12:59:50.779Z</time>
      </trkpt>
      <trkpt lat="42.6752" lon="23.75271">
        <ele>641.856492</ele>
        <time>2022-03-08T12:59:53.786Z</time>
      </trkpt>
      <trkpt lat="42.67525" lon="23.75255">
        <ele>641.778813</ele>
        <time>2022-03-08T12:59:56.795Z</time>
      </trkpt>
      <trkpt lat="42.6753" lon="23.75239">
        <ele>641.699178</ele>
        <time>2022-03-08T12:59:59.785Z</time>
      </trkpt>
      <trkpt lat="42.67536" lon="23.75224">
        <ele>641.619272</ele>
        <time>2022-03-08T13:00:02.808Z</time>
      </trkpt>
      <trkpt lat="42.67542" lon="23.75208">
        <ele>641.540448</ele>
        <time>2022-03-08T13:00:05.765Z</time>
      </trkpt>
      <trkpt lat="42.67547" lon="23.75193">
        <ele>641.460118</ele>
        <time>2022-03-08T13:00:08.760Z</time>
      </trkpt>
      <trkpt lat="42.67553" lon="23.75177">
        <ele>641.3795</ele>
        <time>2022-03-08T13:00:11.774Z</time>
      </trkpt>
      <trkpt lat="42.67559" lon="23.75161">
        <ele>641.332933</ele>
        <time>2022-03-08T13:00:14.779Z</time>
      </trkpt>
      <trkpt lat="42.67565" lon="23.75145">
        <ele>641.287111</ele>
        <time>2022-03-08T13:00:17.812Z</time>
      </trkpt>
      <trkpt lat="42.6757" lon="23.75129">
        <ele>641.241447</ele>
        <time>2022-03-08T13:00:20.773Z</time>
      </trkpt>
      <trkpt lat="42.67575" lon="23.75114">
        <ele>641.197901</ele>
        <time>2022-03-08T13:00:23.779Z</time>
      </trkpt>
      <trkpt lat="42.67581" lon="23.75099">
        <ele>641.155468</ele>
        <time>2022-03-08T13:00:26.782Z</time>
      </trkpt>
      <trkpt lat="42.67585" lon="23.75084">
        <ele>641.113617</ele>
        <time>2022-03-08T13:00:29.778Z</time>
      </trkpt>
      <trkpt lat="42.67591" lon="23.75069">
        <ele>641.070242</ele>
        <time>2022-03-08T13:00:32.784Z</time>
      </trkpt>
      <trkpt lat="42.67597" lon="23.75054">
        <ele>641.027259</ele>
        <time>2022-03-08T13:00:35.778Z</time>
      </trkpt>
      <trkpt lat="42.67602" lon="23.75039">
        <ele>640.984982</ele>
        <time>2022-03-08T13:00:38.775Z</time>
      </trkpt>
      <trkpt lat="42.67608" lon="23.75024">
        <ele>640.941771</ele>
        <time>2022-03-08T13:00:41.786Z</time>
      </trkpt>
      <trkpt lat="42.67613" lon="23.7501">
        <ele>640.900186</ele>
        <time>2022-03-08T13:00:44.778Z</time>
      </trkpt>
      <trkpt lat="42.67618" lon="23.74995">
        <ele>640.857669</ele>
        <time>2022-03-08T13:00:47.781Z</time>
      </trkpt>
      <trkpt lat="42.67623" lon="23.7498">
        <ele>640.815346</ele>
        <time>2022-03-08T13:00:50.828Z</time>
      </trkpt>
      <trkpt lat="42.67628" lon="23.74965">
        <ele>640.772609</ele>
        <time>2022-03-08T13:00:53.783Z</time>
      </trkpt>
      <trkpt lat="42.67634" lon="23.7495">
        <ele>640.677288</ele>
        <time>2022-03-08T13:00:56.794Z</time>
      </trkpt>
      <trkpt lat="42.67639" lon="23.74935">
        <ele>640.512352</ele>
        <time>2022-03-08T13:00:59.775Z</time>
      </trkpt>
      <trkpt lat="42.67644" lon="23.74919">
        <ele>640.34853</ele>
        <time>2022-03-08T13:01:02.779Z</time>
      </trkpt>
      <trkpt lat="42.6765" lon="23.74905">
        <ele>640.188551</ele>
        <time>2022-03-08T13:01:05.773Z</time>
      </trkpt>
      <trkpt lat="42.67656" lon="23.7489">
        <ele>640.026718</ele>
        <time>2022-03-08T13:01:08.776Z</time>
      </trkpt>
      <trkpt lat="42.67661" lon="23.74874">
        <ele>639.856241</ele>
        <time>2022-03-08T13:01:11.798Z</time>
      </trkpt>
      <trkpt lat="42.67666" lon="23.74859">
        <ele>639.689857</ele>
        <time>2022-03-08T13:01:14.783Z</time>
      </trkpt>
      <trkpt lat="42.67672" lon="23.74844">
        <ele>639.526923</ele>
        <time>2022-03-08T13:01:17.806Z</time>
      </trkpt>
      <trkpt lat="42.67677" lon="23.74829">
        <ele>639.366646</ele>
        <time>2022-03-08T13:01:20.764Z</time>
      </trkpt>
      <trkpt lat="42.67682" lon="23.74814">
        <ele>639.202313</ele>
        <time>2022-03-08T13:01:23.788Z</time>
      </trkpt>
      <trkpt lat="42.67688" lon="23.74799">
        <ele>639.039126</ele>
        <time>2022-03-08T13:01:26.766Z</time>
      </trkpt>
      <trkpt lat="42.67693" lon="23.74783">
        <ele>638.873867</ele>
        <time>2022-03-08T13:01:29.798Z</time>
      </trkpt>
      <trkpt lat="42.67698" lon="23.74768">
        <ele>638.707483</ele>
        <time>2022-03-08T13:01:32.794Z</time>
      </trkpt>
      <trkpt lat="42.67704" lon="23.74752">
        <ele>638.540219</ele>
        <time>2022-03-08T13:01:35.823Z</time>
      </trkpt>
      <trkpt lat="42.6771" lon="23.74737">
        <ele>638.373217</ele>
        <time>2022-03-08T13:01:38.775Z</time>
      </trkpt>
      <trkpt lat="42.67715" lon="23.74722">
        <ele>638.267586</ele>
        <time>2022-03-08T13:01:41.809Z</time>
      </trkpt>
      <trkpt lat="42.6772" lon="23.74708">
        <ele>638.169295</ele>
        <time>2022-03-08T13:01:44.787Z</time>
      </trkpt>
      <trkpt lat="42.67724" lon="23.74693">
        <ele>638.068745</ele>
        <time>2022-03-08T13:01:47.788Z</time>
      </trkpt>
      <trkpt lat="42.6773" lon="23.74679">
        <ele>637.970506</ele>
        <time>2022-03-08T13:01:50.785Z</time>
      </trkpt>
      <trkpt lat="42.67734" lon="23.74666">
        <ele>637.880589</ele>
        <time>2022-03-08T13:01:53.791Z</time>
      </trkpt>
      <trkpt lat="42.67739" lon="23.74652">
        <ele>637.785121</ele>
        <time>2022-03-08T13:01:56.787Z</time>
      </trkpt>
      <trkpt lat="42.67745" lon="23.74638">
        <ele>637.68904</ele>
        <time>2022-03-08T13:01:59.795Z</time>
      </trkpt>
      <trkpt lat="42.6775" lon="23.74624">
        <ele>637.58819</ele>
        <time>2022-03-08T13:02:02.787Z</time>
      </trkpt>
      <trkpt lat="42.67755" lon="23.7461">
        <ele>637.490874</ele>
        <time>2022-03-08T13:02:05.758Z</time>
      </trkpt>
      <trkpt lat="42.6776" lon="23.74594">
        <ele>637.387558</ele>
        <time>2022-03-08T13:02:08.784Z</time>
      </trkpt>
      <trkpt lat="42.67764" lon="23.74579">
        <ele>637.284554</ele>
        <time>2022-03-08T13:02:11.779Z</time>
      </trkpt>
      <trkpt lat="42.67769" lon="23.74563">
        <ele>637.182632</ele>
        <time>2022-03-08T13:02:14.770Z</time>
      </trkpt>
      <trkpt lat="42.67774" lon="23.74549">
        <ele>637.08308</ele>
        <time>2022-03-08T13:02:17.795Z</time>
      </trkpt>
      <trkpt lat="42.67779" lon="23.74533">
        <ele>636.974483</ele>
        <time>2022-03-08T13:02:20.792Z</time>
      </trkpt>
      <trkpt lat="42.67785" lon="23.74518">
        <ele>636.868659</ele>
        <time>2022-03-08T13:02:23.773Z</time>
      </trkpt>
      <trkpt lat="42.67791" lon="23.74501">
        <ele>636.761881</ele>
        <time>2022-03-08T13:02:26.799Z</time>
      </trkpt>
      <trkpt lat="42.67796" lon="23.74486">
        <ele>636.662836</ele>
        <time>2022-03-08T13:02:29.826Z</time>
      </trkpt>
      <trkpt lat="42.67802" lon="23.74472">
        <ele>636.566072</ele>
        <time>2022-03-08T13:02:32.776Z</time>
      </trkpt>
      <trkpt lat="42.67808" lon="23.74457">
        <ele>636.466372</ele>
        <time>2022-03-08T13:02:35.779Z</time>
      </trkpt>
      <trkpt lat="42.67813" lon="23.74443">
        <ele>636.37473</ele>
        <time>2022-03-08T13:02:38.781Z</time>
      </trkpt>
      <trkpt lat="42.67818" lon="23.74428">
        <ele>636.277953</ele>
        <time>2022-03-08T13:02:41.788Z</time>
      </trkpt>
      <trkpt lat="42.67822" lon="23.74416">
        <ele>636.204508</ele>
        <time>2022-03-08T13:02:43.786Z</time>
      </trkpt>
      <trkpt lat="42.67827" lon="23.744">
        <ele>636.101593</ele>
        <time>2022-03-08T13:02:46.818Z</time>
      </trkpt>
      <trkpt lat="42.67832" lon="23.74385">
        <ele>636.004281</ele>
        <time>2022-03-08T13:02:49.792Z</time>
      </trkpt>
      <trkpt lat="42.67837" lon="23.7437">
        <ele>635.903149</ele>
        <time>2022-03-08T13:02:52.767Z</time>
      </trkpt>
      <trkpt lat="42.67843" lon="23.74354">
        <ele>635.801667</ele>
        <time>2022-03-08T13:02:55.784Z</time>
      </trkpt>
      <trkpt lat="42.67849" lon="23.74339">
        <ele>635.700536</ele>
        <time>2022-03-08T13:02:58.774Z</time>
      </trkpt>
      <trkpt lat="42.67854" lon="23.74324">
        <ele>635.604501</ele>
        <time>2022-03-08T13:03:01.768Z</time>
      </trkpt>
      <trkpt lat="42.67859" lon="23.74308">
        <ele>635.502453</ele>
        <time>2022-03-08T13:03:04.821Z</time>
      </trkpt>
      <trkpt lat="42.67865" lon="23.74292">
        <ele>635.405163</ele>
        <time>2022-03-08T13:03:07.790Z</time>
      </trkpt>
      <trkpt lat="42.67871" lon="23.74277">
        <ele>635.360326</ele>
        <time>2022-03-08T13:03:10.788Z</time>
      </trkpt>
      <trkpt lat="42.67877" lon="23.74262">
        <ele>635.315185</ele>
        <time>2022-03-08T13:03:13.816Z</time>
      </trkpt>
      <trkpt lat="42.67882" lon="23.74247">
        <ele>635.271386</ele>
        <time>2022-03-08T13:03:16.799Z</time>
      </trkpt>
      <trkpt lat="42.67887" lon="23.74231">
        <ele>635.226454</ele>
        <time>2022-03-08T13:03:19.824Z</time>
      </trkpt>
      <trkpt lat="42.67892" lon="23.74217">
        <ele>635.184777</ele>
        <time>2022-03-08T13:03:22.795Z</time>
      </trkpt>
      <trkpt lat="42.67897" lon="23.74203">
        <ele>635.144599</ele>
        <time>2022-03-08T13:03:25.770Z</time>
      </trkpt>
      <trkpt lat="42.67902" lon="23.74189">
        <ele>635.103554</ele>
        <time>2022-03-08T13:03:28.777Z</time>
      </trkpt>
      <trkpt lat="42.67908" lon="23.74175">
        <ele>635.062474</ele>
        <time>2022-03-08T13:03:31.775Z</time>
      </trkpt>
      <trkpt lat="42.67913" lon="23.7416">
        <ele>635.018124</ele>
        <time>2022-03-08T13:03:34.777Z</time>
      </trkpt>
      <trkpt lat="42.67919" lon="23.74146">
        <ele>634.975036</ele>
        <time>2022-03-08T13:03:37.785Z</time>
      </trkpt>
      <trkpt lat="42.67924" lon="23.74131">
        <ele>634.933285</ele>
        <time>2022-03-08T13:03:40.791Z</time>
      </trkpt>
      <trkpt lat="42.67929" lon="23.74117">
        <ele>634.890116</ele>
        <time>2022-03-08T13:03:43.788Z</time>
      </trkpt>
      <trkpt lat="42.67934" lon="23.74102">
        <ele>634.846709</ele>
        <time>2022-03-08T13:03:46.820Z</time>
      </trkpt>
      <trkpt lat="42.67939" lon="23.74087">
        <ele>634.804281</ele>
        <time>2022-03-08T13:03:49.790Z</time>
      </trkpt>
      <trkpt lat="42.67943" lon="23.74071">
        <ele>634.784833</ele>
        <time>2022-03-08T13:03:52.786Z</time>
      </trkpt>
      <trkpt lat="42.67949" lon="23.74056">
        <ele>634.860615</ele>
        <time>2022-03-08T13:03:55.780Z</time>
      </trkpt>
      <trkpt lat="42.67955" lon="23.74041">
        <ele>634.932599</ele>
        <time>2022-03-08T13:03:58.777Z</time>
      </trkpt>
      <trkpt lat="42.6796" lon="23.74026">
        <ele>635.006812</ele>
        <time>2022-03-08T13:04:01.773Z</time>
      </trkpt>
      <trkpt lat="42.67965" lon="23.74011">
        <ele>635.076294</ele>
        <time>2022-03-08T13:04:04.782Z</time>
      </trkpt>
      <trkpt lat="42.67971" lon="23.73998">
        <ele>635.145367</ele>
        <time>2022-03-08T13:04:07.780Z</time>
      </trkpt>
      <trkpt lat="42.67976" lon="23.73984">
        <ele>635.21314</ele>
        <time>2022-03-08T13:04:10.777Z</time>
      </trkpt>
      <trkpt lat="42.67981" lon="23.7397">
        <ele>635.279596</ele>
        <time>2022-03-08T13:04:13.838Z</time>
      </trkpt>
      <trkpt lat="42.67985" lon="23.73956">
        <ele>635.346584</ele>
        <time>2022-03-08T13:04:16.792Z</time>
      </trkpt>
      <trkpt lat="42.6799" lon="23.73943">
        <ele>635.41267</ele>
        <time>2022-03-08T13:04:19.786Z</time>
      </trkpt>
      <trkpt lat="42.67995" lon="23.73929">
        <ele>635.478213</ele>
        <time>2022-03-08T13:04:22.780Z</time>
      </trkpt>
      <trkpt lat="42.67999" lon="23.73916">
        <ele>635.543653</ele>
        <time>2022-03-08T13:04:25.792Z</time>
      </trkpt>
      <trkpt lat="42.68004" lon="23.73903">
        <ele>635.606826</ele>
        <time>2022-03-08T13:04:28.776Z</time>
      </trkpt>
      <trkpt lat="42.68008" lon="23.7389">
        <ele>635.669376</ele>
        <time>2022-03-08T13:04:31.778Z</time>
      </trkpt>
      <trkpt lat="42.68013" lon="23.73877">
        <ele>635.730201</ele>
        <time>2022-03-08T13:04:34.787Z</time>
      </trkpt>
      <trkpt lat="42.68018" lon="23.73865">
        <ele>635.793374</ele>
        <time>2022-03-08T13:04:37.760Z</time>
      </trkpt>
      <trkpt lat="42.68022" lon="23.73852">
        <ele>635.845315</ele>
        <time>2022-03-08T13:04:40.802Z</time>
      </trkpt>
      <trkpt lat="42.68027" lon="23.73838">
        <ele>635.860127</ele>
        <time>2022-03-08T13:04:43.775Z</time>
      </trkpt>
      <trkpt lat="42.68032" lon="23.73824">
        <ele>635.875449</ele>
        <time>2022-03-08T13:04:46.819Z</time>
      </trkpt>
      <trkpt lat="42.68036" lon="23.73811">
        <ele>635.890469</ele>
        <time>2022-03-08T13:04:49.788Z</time>
      </trkpt>
      <trkpt lat="42.68041" lon="23.73797">
        <ele>635.905229</ele>
        <time>2022-03-08T13:04:52.784Z</time>
      </trkpt>
      <trkpt lat="42.68045" lon="23.73784">
        <ele>635.91933</ele>
        <time>2022-03-08T13:04:55.798Z</time>
      </trkpt>
      <trkpt lat="42.6805" lon="23.73772">
        <ele>635.932364</ele>
        <time>2022-03-08T13:04:58.788Z</time>
      </trkpt>
      <trkpt lat="42.68054" lon="23.7376">
        <ele>635.946465</ele>
        <time>2022-03-08T13:05:01.786Z</time>
      </trkpt>
      <trkpt lat="42.68059" lon="23.73747">
        <ele>635.960744</ele>
        <time>2022-03-08T13:05:04.796Z</time>
      </trkpt>
      <trkpt lat="42.68064" lon="23.73733">
        <ele>635.97597</ele>
        <time>2022-03-08T13:05:07.782Z</time>
      </trkpt>
      <trkpt lat="42.68068" lon="23.7372">
        <ele>635.990192</ele>
        <time>2022-03-08T13:05:10.778Z</time>
      </trkpt>
      <trkpt lat="42.68073" lon="23.73707">
        <ele>636.004474</ele>
        <time>2022-03-08T13:05:13.800Z</time>
      </trkpt>
      <trkpt lat="42.68077" lon="23.73694">
        <ele>636.018516</ele>
        <time>2022-03-08T13:05:16.779Z</time>
      </trkpt>
      <trkpt lat="42.68082" lon="23.73681">
        <ele>636.032558</ele>
        <time>2022-03-08T13:05:19.794Z</time>
      </trkpt>
      <trkpt lat="42.68086" lon="23.73669">
        <ele>636.045362</ele>
        <time>2022-03-08T13:05:22.782Z</time>
      </trkpt>
      <trkpt lat="42.6809" lon="23.73657">
        <ele>636.058818</ele>
        <time>2022-03-08T13:05:25.813Z</time>
      </trkpt>
      <trkpt lat="42.68095" lon="23.73645">
        <ele>636.072626</ele>
        <time>2022-03-08T13:05:28.767Z</time>
      </trkpt>
      <trkpt lat="42.68099" lon="23.73632">
        <ele>636.118831</ele>
        <time>2022-03-08T13:05:31.774Z</time>
      </trkpt>
      <trkpt lat="42.68104" lon="23.7362">
        <ele>636.407012</ele>
        <time>2022-03-08T13:05:34.777Z</time>
      </trkpt>
      <trkpt lat="42.68108" lon="23.73608">
        <ele>636.684031</ele>
        <time>2022-03-08T13:05:37.776Z</time>
      </trkpt>
      <trkpt lat="42.68113" lon="23.73596">
        <ele>636.981</ele>
        <time>2022-03-08T13:05:40.768Z</time>
      </trkpt>
      <trkpt lat="42.68117" lon="23.73583">
        <ele>637.282346</ele>
        <time>2022-03-08T13:05:43.791Z</time>
      </trkpt>
      <trkpt lat="42.68122" lon="23.73571">
        <ele>637.564194</ele>
        <time>2022-03-08T13:05:46.774Z</time>
      </trkpt>
      <trkpt lat="42.68126" lon="23.73559">
        <ele>637.83229</ele>
        <time>2022-03-08T13:05:49.799Z</time>
      </trkpt>
      <trkpt lat="42.6813" lon="23.73548">
        <ele>638.089646</ele>
        <time>2022-03-08T13:05:52.808Z</time>
      </trkpt>
      <trkpt lat="42.68133" lon="23.73537">
        <ele>638.350819</ele>
        <time>2022-03-08T13:05:55.767Z</time>
      </trkpt>
      <trkpt lat="42.68138" lon="23.73525">
        <ele>638.62071</ele>
        <time>2022-03-08T13:05:58.786Z</time>
      </trkpt>
      <trkpt lat="42.68142" lon="23.73514">
        <ele>638.878054</ele>
        <time>2022-03-08T13:06:01.792Z</time>
      </trkpt>
      <trkpt lat="42.68146" lon="23.73499">
        <ele>639.218404</ele>
        <time>2022-03-08T13:06:05.779Z</time>
      </trkpt>
      <trkpt lat="42.6815" lon="23.73488">
        <ele>639.477062</ele>
        <time>2022-03-08T13:06:08.776Z</time>
      </trkpt>
      <trkpt lat="42.68154" lon="23.73477">
        <ele>639.735637</ele>
        <time>2022-03-08T13:06:11.792Z</time>
      </trkpt>
      <trkpt lat="42.68159" lon="23.73466">
        <ele>639.998387</ele>
        <time>2022-03-08T13:06:14.796Z</time>
      </trkpt>
      <trkpt lat="42.68164" lon="23.73452">
        <ele>640.334337</ele>
        <time>2022-03-08T13:06:18.767Z</time>
      </trkpt>
      <trkpt lat="42.68169" lon="23.73437">
        <ele>640.675492</ele>
        <time>2022-03-08T13:06:22.786Z</time>
      </trkpt>
      <trkpt lat="42.68174" lon="23.73423">
        <ele>641.00074</ele>
        <time>2022-03-08T13:06:26.780Z</time>
      </trkpt>
      <trkpt lat="42.68179" lon="23.73409">
        <ele>641.235887</ele>
        <time>2022-03-08T13:06:30.788Z</time>
      </trkpt>
      <trkpt lat="42.68182" lon="23.73397">
        <ele>641.258178</ele>
        <time>2022-03-08T13:06:33.764Z</time>
      </trkpt>
      <trkpt lat="42.68186" lon="23.73386">
        <ele>641.280034</ele>
        <time>2022-03-08T13:06:36.818Z</time>
      </trkpt>
      <trkpt lat="42.6819" lon="23.73374">
        <ele>641.303699</ele>
        <time>2022-03-08T13:06:39.801Z</time>
      </trkpt>
      <trkpt lat="42.68195" lon="23.73364">
        <ele>641.326061</ele>
        <time>2022-03-08T13:06:42.791Z</time>
      </trkpt>
      <trkpt lat="42.68201" lon="23.73349">
        <ele>641.354656</ele>
        <time>2022-03-08T13:06:46.782Z</time>
      </trkpt>
      <trkpt lat="42.68206" lon="23.73335">
        <ele>641.383167</ele>
        <time>2022-03-08T13:06:50.779Z</time>
      </trkpt>
      <trkpt lat="42.68212" lon="23.73321">
        <ele>641.411593</ele>
        <time>2022-03-08T13:06:54.775Z</time>
      </trkpt>
      <trkpt lat="42.68217" lon="23.73306">
        <ele>641.439971</ele>
        <time>2022-03-08T13:06:58.846Z</time>
      </trkpt>
      <trkpt lat="42.68221" lon="23.73296">
        <ele>641.461506</ele>
        <time>2022-03-08T13:07:01.776Z</time>
      </trkpt>
      <trkpt lat="42.68224" lon="23.73284">
        <ele>641.483797</ele>
        <time>2022-03-08T13:07:04.779Z</time>
      </trkpt>
      <trkpt lat="42.68228" lon="23.73272">
        <ele>641.506342</ele>
        <time>2022-03-08T13:07:07.787Z</time>
      </trkpt>
      <trkpt lat="42.68231" lon="23.7326">
        <ele>641.529216</ele>
        <time>2022-03-08T13:07:10.787Z</time>
      </trkpt>
      <trkpt lat="42.68237" lon="23.73246">
        <ele>641.557301</ele>
        <time>2022-03-08T13:07:14.819Z</time>
      </trkpt>
      <trkpt lat="42.68241" lon="23.73235">
        <ele>641.579479</ele>
        <time>2022-03-08T13:07:17.772Z</time>
      </trkpt>
      <trkpt lat="42.68245" lon="23.73223">
        <ele>641.603239</ele>
        <time>2022-03-08T13:07:20.820Z</time>
      </trkpt>
      <trkpt lat="42.6825" lon="23.73212">
        <ele>641.62597</ele>
        <time>2022-03-08T13:07:23.784Z</time>
      </trkpt>
      <trkpt lat="42.68254" lon="23.732">
        <ele>641.648783</ele>
        <time>2022-03-08T13:07:26.779Z</time>
      </trkpt>
      <trkpt lat="42.68258" lon="23.73189">
        <ele>641.618534</ele>
        <time>2022-03-08T13:07:29.805Z</time>
      </trkpt>
      <trkpt lat="42.68262" lon="23.73178">
        <ele>641.526696</ele>
        <time>2022-03-08T13:07:32.793Z</time>
      </trkpt>
      <trkpt lat="42.68266" lon="23.73167">
        <ele>641.438712</ele>
        <time>2022-03-08T13:07:35.816Z</time>
      </trkpt>
      <trkpt lat="42.68271" lon="23.73155">
        <ele>641.341274</ele>
        <time>2022-03-08T13:07:38.794Z</time>
      </trkpt>
      <trkpt lat="42.68275" lon="23.73142">
        <ele>641.242939</ele>
        <time>2022-03-08T13:07:41.788Z</time>
      </trkpt>
      <trkpt lat="42.68279" lon="23.7313">
        <ele>641.14432</ele>
        <time>2022-03-08T13:07:44.771Z</time>
      </trkpt>
      <trkpt lat="42.68283" lon="23.73118">
        <ele>641.049386</ele>
        <time>2022-03-08T13:07:47.787Z</time>
      </trkpt>
      <trkpt lat="42.68287" lon="23.73106">
        <ele>640.956159</ele>
        <time>2022-03-08T13:07:50.787Z</time>
      </trkpt>
      <trkpt lat="42.68292" lon="23.73095">
        <ele>640.86139</ele>
        <time>2022-03-08T13:07:53.807Z</time>
      </trkpt>
      <trkpt lat="42.68296" lon="23.73082">
        <ele>640.765001</ele>
        <time>2022-03-08T13:07:56.788Z</time>
      </trkpt>
      <trkpt lat="42.68301" lon="23.73071">
        <ele>640.671652</ele>
        <time>2022-03-08T13:07:59.814Z</time>
      </trkpt>
      <trkpt lat="42.68305" lon="23.73058">
        <ele>640.57185</ele>
        <time>2022-03-08T13:08:02.767Z</time>
      </trkpt>
      <trkpt lat="42.6831" lon="23.73047">
        <ele>640.477604</ele>
        <time>2022-03-08T13:08:05.802Z</time>
      </trkpt>
      <trkpt lat="42.68314" lon="23.73035">
        <ele>640.382753</ele>
        <time>2022-03-08T13:08:08.779Z</time>
      </trkpt>
      <trkpt lat="42.68318" lon="23.73023">
        <ele>640.286767</ele>
        <time>2022-03-08T13:08:11.770Z</time>
      </trkpt>
      <trkpt lat="42.68322" lon="23.7301">
        <ele>640.188664</ele>
        <time>2022-03-08T13:08:14.783Z</time>
      </trkpt>
      <trkpt lat="42.68326" lon="23.72998">
        <ele>640.091752</ele>
        <time>2022-03-08T13:08:17.782Z</time>
      </trkpt>
      <trkpt lat="42.6833" lon="23.72985">
        <ele>639.994841</ele>
        <time>2022-03-08T13:08:20.773Z</time>
      </trkpt>
      <trkpt lat="42.68335" lon="23.72974">
        <ele>639.905187</ele>
        <time>2022-03-08T13:08:23.782Z</time>
      </trkpt>
      <trkpt lat="42.68339" lon="23.72961">
        <ele>640.207135</ele>
        <time>2022-03-08T13:08:27.773Z</time>
      </trkpt>
      <trkpt lat="42.68344" lon="23.72946">
        <ele>640.543546</ele>
        <time>2022-03-08T13:08:31.785Z</time>
      </trkpt>
      <trkpt lat="42.68348" lon="23.72936">
        <ele>640.798201</ele>
        <time>2022-03-08T13:08:34.787Z</time>
      </trkpt>
      <trkpt lat="42.68353" lon="23.72924">
        <ele>641.066564</ele>
        <time>2022-03-08T13:08:37.782Z</time>
      </trkpt>
      <trkpt lat="42.68357" lon="23.72913">
        <ele>641.331728</ele>
        <time>2022-03-08T13:08:40.801Z</time>
      </trkpt>
      <trkpt lat="42.68362" lon="23.72898">
        <ele>641.671107</ele>
        <time>2022-03-08T13:08:44.787Z</time>
      </trkpt>
      <trkpt lat="42.68366" lon="23.72887">
        <ele>641.929407</ele>
        <time>2022-03-08T13:08:47.768Z</time>
      </trkpt>
      <trkpt lat="42.6837" lon="23.72876">
        <ele>642.183323</ele>
        <time>2022-03-08T13:08:50.780Z</time>
      </trkpt>
      <trkpt lat="42.68374" lon="23.72865">
        <ele>642.447234</ele>
        <time>2022-03-08T13:08:53.789Z</time>
      </trkpt>
      <trkpt lat="42.68378" lon="23.72854">
        <ele>642.702441</ele>
        <time>2022-03-08T13:08:56.780Z</time>
      </trkpt>
      <trkpt lat="42.68383" lon="23.72839">
        <ele>643.033166</ele>
        <time>2022-03-08T13:09:00.783Z</time>
      </trkpt>
      <trkpt lat="42.68388" lon="23.72825">
        <ele>643.36009</ele>
        <time>2022-03-08T13:09:04.791Z</time>
      </trkpt>
      <trkpt lat="42.68393" lon="23.72812">
        <ele>643.675155</ele>
        <time>2022-03-08T13:09:08.791Z</time>
      </trkpt>
      <trkpt lat="42.68399" lon="23.72798">
        <ele>644.007348</ele>
        <time>2022-03-08T13:09:12.815Z</time>
      </trkpt>
      <trkpt lat="42.68404" lon="23.72785">
        <ele>644.316841</ele>
        <time>2022-03-08T13:09:16.794Z</time>
      </trkpt>
      <trkpt lat="42.68409" lon="23.72771">
        <ele>644.638196</ele>
        <time>2022-03-08T13:09:20.784Z</time>
      </trkpt>
      <trkpt lat="42.68414" lon="23.72757">
        <ele>644.956391</ele>
        <time>2022-03-08T13:09:24.784Z</time>
      </trkpt>
      <trkpt lat="42.68419" lon="23.72743">
        <ele>645.086623</ele>
        <time>2022-03-08T13:09:28.794Z</time>
      </trkpt>
      <trkpt lat="42.68423" lon="23.72731">
        <ele>645.164681</ele>
        <time>2022-03-08T13:09:31.788Z</time>
      </trkpt>
      <trkpt lat="42.68427" lon="23.7272">
        <ele>645.243421</ele>
        <time>2022-03-08T13:09:34.797Z</time>
      </trkpt>
      <trkpt lat="42.68432" lon="23.72709">
        <ele>645.321348</ele>
        <time>2022-03-08T13:09:37.785Z</time>
      </trkpt>
      <trkpt lat="42.68435" lon="23.72697">
        <ele>645.399155</ele>
        <time>2022-03-08T13:09:40.784Z</time>
      </trkpt>
      <trkpt lat="42.68439" lon="23.72686">
        <ele>645.475379</ele>
        <time>2022-03-08T13:09:43.784Z</time>
      </trkpt>
      <trkpt lat="42.68444" lon="23.72672">
        <ele>645.573789</ele>
        <time>2022-03-08T13:09:47.784Z</time>
      </trkpt>
      <trkpt lat="42.68449" lon="23.72658">
        <ele>645.672004</ele>
        <time>2022-03-08T13:09:51.784Z</time>
      </trkpt>
      <trkpt lat="42.68455" lon="23.72644">
        <ele>645.771185</ele>
        <time>2022-03-08T13:09:55.782Z</time>
      </trkpt>
      <trkpt lat="42.6846" lon="23.7263">
        <ele>645.866443</ele>
        <time>2022-03-08T13:09:59.810Z</time>
      </trkpt>
      <trkpt lat="42.68465" lon="23.72615">
        <ele>645.963022</ele>
        <time>2022-03-08T13:10:03.786Z</time>
      </trkpt>
      <trkpt lat="42.68468" lon="23.72604">
        <ele>646.039363</ele>
        <time>2022-03-08T13:10:06.792Z</time>
      </trkpt>
      <trkpt lat="42.68472" lon="23.72593">
        <ele>646.116307</ele>
        <time>2022-03-08T13:10:09.799Z</time>
      </trkpt>
      <trkpt lat="42.68476" lon="23.72582">
        <ele>646.193251</ele>
        <time>2022-03-08T13:10:12.790Z</time>
      </trkpt>
      <trkpt lat="42.6848" lon="23.7257">
        <ele>646.271722</ele>
        <time>2022-03-08T13:10:15.784Z</time>
      </trkpt>
      <trkpt lat="42.68485" lon="23.72556">
        <ele>646.368516</ele>
        <time>2022-03-08T13:10:19.800Z</time>
      </trkpt>
      <trkpt lat="42.68489" lon="23.72542">
        <ele>646.465706</ele>
        <time>2022-03-08T13:10:23.777Z</time>
      </trkpt>
      <trkpt lat="42.68491" lon="23.72526">
        <ele>646.621539</ele>
        <time>2022-03-08T13:10:27.789Z</time>
      </trkpt>
      <trkpt lat="42.68492" lon="23.7251">
        <ele>646.853186</ele>
        <time>2022-03-08T13:10:31.789Z</time>
      </trkpt>
      <trkpt lat="42.68492" lon="23.72495">
        <ele>647.075558</ele>
        <time>2022-03-08T13:10:35.786Z</time>
      </trkpt>
      <trkpt lat="42.68492" lon="23.72482">
        <ele>647.253467</ele>
        <time>2022-03-08T13:10:38.775Z</time>
      </trkpt>
      <trkpt lat="42.68492" lon="23.7247">
        <ele>647.429941</ele>
        <time>2022-03-08T13:10:41.784Z</time>
      </trkpt>
      <trkpt lat="42.68492" lon="23.72458">
        <ele>647.60498</ele>
        <time>2022-03-08T13:10:44.776Z</time>
      </trkpt>
      <trkpt lat="42.68492" lon="23.72442">
        <ele>647.83769</ele>
        <time>2022-03-08T13:10:48.799Z</time>
      </trkpt>
      <trkpt lat="42.68492" lon="23.7243">
        <ele>648.012762</ele>
        <time>2022-03-08T13:10:51.812Z</time>
      </trkpt>
      <trkpt lat="42.68492" lon="23.72414">
        <ele>648.235349</ele>
        <time>2022-03-08T13:10:55.782Z</time>
      </trkpt>
      <trkpt lat="42.68493" lon="23.72402">
        <ele>648.411985</ele>
        <time>2022-03-08T13:10:58.790Z</time>
      </trkpt>
      <trkpt lat="42.68493" lon="23.72389">
        <ele>648.588459</ele>
        <time>2022-03-08T13:11:01.788Z</time>
      </trkpt>
      <trkpt lat="42.68492" lon="23.72376">
        <ele>648.775128</ele>
        <time>2022-03-08T13:11:04.799Z</time>
      </trkpt>
      <trkpt lat="42.68492" lon="23.72363">
        <ele>648.962286</ele>
        <time>2022-03-08T13:11:07.783Z</time>
      </trkpt>
      <trkpt lat="42.68491" lon="23.7235">
        <ele>649.148884</ele>
        <time>2022-03-08T13:11:10.793Z</time>
      </trkpt>
      <trkpt lat="42.68491" lon="23.72337">
        <ele>649.341287</ele>
        <time>2022-03-08T13:11:13.852Z</time>
      </trkpt>
      <trkpt lat="42.6849" lon="23.72324">
        <ele>649.526523</ele>
        <time>2022-03-08T13:11:16.794Z</time>
      </trkpt>
      <trkpt lat="42.6849" lon="23.72311">
        <ele>649.711604</ele>
        <time>2022-03-08T13:11:19.813Z</time>
      </trkpt>
      <trkpt lat="42.6849" lon="23.72299">
        <ele>649.8939</ele>
        <time>2022-03-08T13:11:22.793Z</time>
      </trkpt>
      <trkpt lat="42.6849" lon="23.72286">
        <ele>650.040496</ele>
        <time>2022-03-08T13:11:25.795Z</time>
      </trkpt>
      <trkpt lat="42.68489" lon="23.72274">
        <ele>650.103948</ele>
        <time>2022-03-08T13:11:28.791Z</time>
      </trkpt>
      <trkpt lat="42.68489" lon="23.7226">
        <ele>650.174123</ele>
        <time>2022-03-08T13:11:31.776Z</time>
      </trkpt>
      <trkpt lat="42.68489" lon="23.72246">
        <ele>650.243797</ele>
        <time>2022-03-08T13:11:34.789Z</time>
      </trkpt>
      <trkpt lat="42.68489" lon="23.72232">
        <ele>650.314484</ele>
        <time>2022-03-08T13:11:37.811Z</time>
      </trkpt>
      <trkpt lat="42.6849" lon="23.72218">
        <ele>650.383774</ele>
        <time>2022-03-08T13:11:40.793Z</time>
      </trkpt>
      <trkpt lat="42.6849" lon="23.72204">
        <ele>650.455452</ele>
        <time>2022-03-08T13:11:43.775Z</time>
      </trkpt>
      <trkpt lat="42.6849" lon="23.72188">
        <ele>650.532669</ele>
        <time>2022-03-08T13:11:46.796Z</time>
      </trkpt>
      <trkpt lat="42.6849" lon="23.72173">
        <ele>650.610362</ele>
        <time>2022-03-08T13:11:49.791Z</time>
      </trkpt>
      <trkpt lat="42.6849" lon="23.72157">
        <ele>650.688052</ele>
        <time>2022-03-08T13:11:52.807Z</time>
      </trkpt>
      <trkpt lat="42.6849" lon="23.72142">
        <ele>650.762735</ele>
        <time>2022-03-08T13:11:55.789Z</time>
      </trkpt>
      <trkpt lat="42.6849" lon="23.72127">
        <ele>650.839927</ele>
        <time>2022-03-08T13:11:58.779Z</time>
      </trkpt>
      <trkpt lat="42.6849" lon="23.72112">
        <ele>650.915612</ele>
        <time>2022-03-08T13:12:01.778Z</time>
      </trkpt>
      <trkpt lat="42.6849" lon="23.72096">
        <ele>650.993806</ele>
        <time>2022-03-08T13:12:04.770Z</time>
      </trkpt>
      <trkpt lat="42.6849" lon="23.7208">
        <ele>651.073106</ele>
        <time>2022-03-08T13:12:07.789Z</time>
      </trkpt>
      <trkpt lat="42.68491" lon="23.72064">
        <ele>651.153907</ele>
        <time>2022-03-08T13:12:10.771Z</time>
      </trkpt>
      <trkpt lat="42.68491" lon="23.72048">
        <ele>651.233148</ele>
        <time>2022-03-08T13:12:13.774Z</time>
      </trkpt>
      <trkpt lat="42.68493" lon="23.72033">
        <ele>651.154996</ele>
        <time>2022-03-08T13:12:16.796Z</time>
      </trkpt>
      <trkpt lat="42.68495" lon="23.72017">
        <ele>651.033444</ele>
        <time>2022-03-08T13:12:19.778Z</time>
      </trkpt>
      <trkpt lat="42.68497" lon="23.72002">
        <ele>650.911127</ele>
        <time>2022-03-08T13:12:22.773Z</time>
      </trkpt>
      <trkpt lat="42.68498" lon="23.71986">
        <ele>650.790517</ele>
        <time>2022-03-08T13:12:25.795Z</time>
      </trkpt>
      <trkpt lat="42.68501" lon="23.71971">
        <ele>650.67163</ele>
        <time>2022-03-08T13:12:28.787Z</time>
      </trkpt>
      <trkpt lat="42.68504" lon="23.71958">
        <ele>650.559324</ele>
        <time>2022-03-08T13:12:31.787Z</time>
      </trkpt>
      <trkpt lat="42.68506" lon="23.71944">
        <ele>650.453364</ele>
        <time>2022-03-08T13:12:34.804Z</time>
      </trkpt>
      <trkpt lat="42.68508" lon="23.71928">
        <ele>650.327554</ele>
        <time>2022-03-08T13:12:38.790Z</time>
      </trkpt>
      <trkpt lat="42.6851" lon="23.71916">
        <ele>650.226603</ele>
        <time>2022-03-08T13:12:41.788Z</time>
      </trkpt>
      <trkpt lat="42.68511" lon="23.71903">
        <ele>650.124322</ele>
        <time>2022-03-08T13:12:44.779Z</time>
      </trkpt>
      <trkpt lat="42.68513" lon="23.71889">
        <ele>650.019737</ele>
        <time>2022-03-08T13:12:47.765Z</time>
      </trkpt>
      <trkpt lat="42.68514" lon="23.71876">
        <ele>649.916916</ele>
        <time>2022-03-08T13:12:50.784Z</time>
      </trkpt>
      <trkpt lat="42.68516" lon="23.71863">
        <ele>649.812332</ele>
        <time>2022-03-08T13:12:53.774Z</time>
      </trkpt>
      <trkpt lat="42.68517" lon="23.71849">
        <ele>649.7031</ele>
        <time>2022-03-08T13:12:56.808Z</time>
      </trkpt>
      <trkpt lat="42.68519" lon="23.71833">
        <ele>649.574218</ele>
        <time>2022-03-08T13:12:59.796Z</time>
      </trkpt>
      <trkpt lat="42.68522" lon="23.71816">
        <ele>649.445009</ele>
        <time>2022-03-08T13:13:02.783Z</time>
      </trkpt>
      <trkpt lat="42.68525" lon="23.71799">
        <ele>649.23574</ele>
        <time>2022-03-08T13:13:05.795Z</time>
      </trkpt>
      <trkpt lat="42.68527" lon="23.71782">
        <ele>648.875701</ele>
        <time>2022-03-08T13:13:08.791Z</time>
      </trkpt>
      <trkpt lat="42.68529" lon="23.7177">
        <ele>648.623145</ele>
        <time>2022-03-08T13:13:10.779Z</time>
      </trkpt>
      <trkpt lat="42.68531" lon="23.71752">
        <ele>648.250509</ele>
        <time>2022-03-08T13:13:13.776Z</time>
      </trkpt>
      <trkpt lat="42.68534" lon="23.71734">
        <ele>647.869315</ele>
        <time>2022-03-08T13:13:16.791Z</time>
      </trkpt>
      <trkpt lat="42.68536" lon="23.71722">
        <ele>647.608151</ele>
        <time>2022-03-08T13:13:18.820Z</time>
      </trkpt>
      <trkpt lat="42.68538" lon="23.71708">
        <ele>647.331511</ele>
        <time>2022-03-08T13:13:20.778Z</time>
      </trkpt>
      <trkpt lat="42.68539" lon="23.71696">
        <ele>647.060783</ele>
        <time>2022-03-08T13:13:22.769Z</time>
      </trkpt>
      <trkpt lat="42.68541" lon="23.71683">
        <ele>646.797018</ele>
        <time>2022-03-08T13:13:24.790Z</time>
      </trkpt>
      <trkpt lat="42.68543" lon="23.7167">
        <ele>646.531345</ele>
        <time>2022-03-08T13:13:26.789Z</time>
      </trkpt>
      <trkpt lat="42.68545" lon="23.71657">
        <ele>646.252511</ele>
        <time>2022-03-08T13:13:28.783Z</time>
      </trkpt>
      <trkpt lat="42.68547" lon="23.71644">
        <ele>645.972806</ele>
        <time>2022-03-08T13:13:30.793Z</time>
      </trkpt>
      <trkpt lat="42.68549" lon="23.71631">
        <ele>645.691723</ele>
        <time>2022-03-08T13:13:32.784Z</time>
      </trkpt>
      <trkpt lat="42.68551" lon="23.71617">
        <ele>645.409227</ele>
        <time>2022-03-08T13:13:34.819Z</time>
      </trkpt>
      <trkpt lat="42.68553" lon="23.71604">
        <ele>645.128855</ele>
        <time>2022-03-08T13:13:36.796Z</time>
      </trkpt>
      <trkpt lat="42.68555" lon="23.7159">
        <ele>644.847144</ele>
        <time>2022-03-08T13:13:38.794Z</time>
      </trkpt>
      <trkpt lat="42.68558" lon="23.71577">
        <ele>644.565379</ele>
        <time>2022-03-08T13:13:40.798Z</time>
      </trkpt>
      <trkpt lat="42.68561" lon="23.71564">
        <ele>644.299887</ele>
        <time>2022-03-08T13:13:42.785Z</time>
      </trkpt>
      <trkpt lat="42.68563" lon="23.71551">
        <ele>644.207003</ele>
        <time>2022-03-08T13:13:44.792Z</time>
      </trkpt>
      <trkpt lat="42.68566" lon="23.71539">
        <ele>644.119906</ele>
        <time>2022-03-08T13:13:46.786Z</time>
      </trkpt>
      <trkpt lat="42.68569" lon="23.71527">
        <ele>644.030684</ele>
        <time>2022-03-08T13:13:48.795Z</time>
      </trkpt>
      <trkpt lat="42.68572" lon="23.71514">
        <ele>643.94174</ele>
        <time>2022-03-08T13:13:50.795Z</time>
      </trkpt>
      <trkpt lat="42.68575" lon="23.71502">
        <ele>643.85163</ele>
        <time>2022-03-08T13:13:52.801Z</time>
      </trkpt>
      <trkpt lat="42.68578" lon="23.7149">
        <ele>643.759578</ele>
        <time>2022-03-08T13:13:54.792Z</time>
      </trkpt>
      <trkpt lat="42.68583" lon="23.71477">
        <ele>643.664471</ele>
        <time>2022-03-08T13:13:56.790Z</time>
      </trkpt>
      <trkpt lat="42.68587" lon="23.71464">
        <ele>643.569651</ele>
        <time>2022-03-08T13:13:58.778Z</time>
      </trkpt>
      <trkpt lat="42.68592" lon="23.71452">
        <ele>643.474475</ele>
        <time>2022-03-08T13:14:00.794Z</time>
      </trkpt>
      <trkpt lat="42.68597" lon="23.71441">
        <ele>643.381549</ele>
        <time>2022-03-08T13:14:02.806Z</time>
      </trkpt>
      <trkpt lat="42.68602" lon="23.71429">
        <ele>643.289079</ele>
        <time>2022-03-08T13:14:04.787Z</time>
      </trkpt>
      <trkpt lat="42.68607" lon="23.71417">
        <ele>643.197207</ele>
        <time>2022-03-08T13:14:06.800Z</time>
      </trkpt>
      <trkpt lat="42.68612" lon="23.71406">
        <ele>643.105299</ele>
        <time>2022-03-08T13:14:08.790Z</time>
      </trkpt>
      <trkpt lat="42.68618" lon="23.71396">
        <ele>643.016304</ele>
        <time>2022-03-08T13:14:10.788Z</time>
      </trkpt>
      <trkpt lat="42.68623" lon="23.71386">
        <ele>642.931735</ele>
        <time>2022-03-08T13:14:12.792Z</time>
      </trkpt>
      <trkpt lat="42.68629" lon="23.71376">
        <ele>642.844932</ele>
        <time>2022-03-08T13:14:14.800Z</time>
      </trkpt>
      <trkpt lat="42.68635" lon="23.71366">
        <ele>642.758708</ele>
        <time>2022-03-08T13:14:16.790Z</time>
      </trkpt>
      <trkpt lat="42.68641" lon="23.71356">
        <ele>642.672974</ele>
        <time>2022-03-08T13:14:18.781Z</time>
      </trkpt>
      <trkpt lat="42.68646" lon="23.71346">
        <ele>642.622088</ele>
        <time>2022-03-08T13:14:20.775Z</time>
      </trkpt>
      <trkpt lat="42.68653" lon="23.71331">
        <ele>642.609236</ele>
        <time>2022-03-08T13:14:23.807Z</time>
      </trkpt>
      <trkpt lat="42.68658" lon="23.7132">
        <ele>642.600463</ele>
        <time>2022-03-08T13:14:25.789Z</time>
      </trkpt>
      <trkpt lat="42.68663" lon="23.7131">
        <ele>642.591399</ele>
        <time>2022-03-08T13:14:27.782Z</time>
      </trkpt>
      <trkpt lat="42.68669" lon="23.71299">
        <ele>642.582236</ele>
        <time>2022-03-08T13:14:29.792Z</time>
      </trkpt>
      <trkpt lat="42.68675" lon="23.71289">
        <ele>642.572541</ele>
        <time>2022-03-08T13:14:31.796Z</time>
      </trkpt>
      <trkpt lat="42.68681" lon="23.71278">
        <ele>642.562633</ele>
        <time>2022-03-08T13:14:33.789Z</time>
      </trkpt>
      <trkpt lat="42.68687" lon="23.71266">
        <ele>642.553</ele>
        <time>2022-03-08T13:14:35.827Z</time>
      </trkpt>
      <trkpt lat="42.68693" lon="23.71255">
        <ele>642.543265</ele>
        <time>2022-03-08T13:14:37.782Z</time>
      </trkpt>
      <trkpt lat="42.68699" lon="23.71244">
        <ele>642.533122</ele>
        <time>2022-03-08T13:14:39.792Z</time>
      </trkpt>
      <trkpt lat="42.68705" lon="23.71233">
        <ele>642.523615</ele>
        <time>2022-03-08T13:14:41.789Z</time>
      </trkpt>
      <trkpt lat="42.68711" lon="23.71222">
        <ele>642.514278</ele>
        <time>2022-03-08T13:14:43.779Z</time>
      </trkpt>
      <trkpt lat="42.68716" lon="23.71212">
        <ele>642.505167</ele>
        <time>2022-03-08T13:14:45.780Z</time>
      </trkpt>
      <trkpt lat="42.68721" lon="23.71201">
        <ele>642.496114</ele>
        <time>2022-03-08T13:14:47.785Z</time>
      </trkpt>
      <trkpt lat="42.68727" lon="23.71191">
        <ele>642.487006</ele>
        <time>2022-03-08T13:14:49.773Z</time>
      </trkpt>
      <trkpt lat="42.68733" lon="23.71181">
        <ele>642.477825</ele>
        <time>2022-03-08T13:14:51.828Z</time>
      </trkpt>
      <trkpt lat="42.68739" lon="23.71172">
        <ele>642.468739</ele>
        <time>2022-03-08T13:14:53.783Z</time>
      </trkpt>
      <trkpt lat="42.68746" lon="23.71162">
        <ele>642.459422</ele>
        <time>2022-03-08T13:14:55.788Z</time>
      </trkpt>
      <trkpt lat="42.68752" lon="23.71152">
        <ele>642.437806</ele>
        <time>2022-03-08T13:14:57.819Z</time>
      </trkpt>
      <trkpt lat="42.68759" lon="23.71143">
        <ele>642.379717</ele>
        <time>2022-03-08T13:14:59.805Z</time>
      </trkpt>
      <trkpt lat="42.68766" lon="23.71133">
        <ele>642.318959</ele>
        <time>2022-03-08T13:15:01.793Z</time>
      </trkpt>
      <trkpt lat="42.68773" lon="23.71123">
        <ele>642.25803</ele>
        <time>2022-03-08T13:15:03.787Z</time>
      </trkpt>
      <trkpt lat="42.68779" lon="23.71113">
        <ele>642.200441</ele>
        <time>2022-03-08T13:15:05.777Z</time>
      </trkpt>
      <trkpt lat="42.68786" lon="23.71103">
        <ele>642.143176</ele>
        <time>2022-03-08T13:15:07.785Z</time>
      </trkpt>
      <trkpt lat="42.68793" lon="23.71094">
        <ele>642.08561</ele>
        <time>2022-03-08T13:15:09.796Z</time>
      </trkpt>
      <trkpt lat="42.68799" lon="23.71085">
        <ele>642.028345</ele>
        <time>2022-03-08T13:15:11.783Z</time>
      </trkpt>
      <trkpt lat="42.68805" lon="23.71074">
        <ele>641.969264</ele>
        <time>2022-03-08T13:15:13.768Z</time>
      </trkpt>
      <trkpt lat="42.68812" lon="23.71065">
        <ele>641.910534</ele>
        <time>2022-03-08T13:15:15.884Z</time>
      </trkpt>
      <trkpt lat="42.68818" lon="23.71055">
        <ele>641.853023</ele>
        <time>2022-03-08T13:15:17.786Z</time>
      </trkpt>
      <trkpt lat="42.68825" lon="23.71046">
        <ele>641.795457</ele>
        <time>2022-03-08T13:15:19.804Z</time>
      </trkpt>
      <trkpt lat="42.68833" lon="23.71037">
        <ele>641.733308</ele>
        <time>2022-03-08T13:15:21.775Z</time>
      </trkpt>
      <trkpt lat="42.68842" lon="23.7103">
        <ele>641.672253</ele>
        <time>2022-03-08T13:15:23.783Z</time>
      </trkpt>
      <trkpt lat="42.6885" lon="23.71023">
        <ele>641.613623</ele>
        <time>2022-03-08T13:15:25.775Z</time>
      </trkpt>
      <trkpt lat="42.6886" lon="23.71018">
        <ele>641.554477</ele>
        <time>2022-03-08T13:15:27.772Z</time>
      </trkpt>
      <trkpt lat="42.68869" lon="23.71014">
        <ele>641.493528</ele>
        <time>2022-03-08T13:15:29.795Z</time>
      </trkpt>
      <trkpt lat="42.68879" lon="23.71009">
        <ele>641.432011</ele>
        <time>2022-03-08T13:15:31.779Z</time>
      </trkpt>
      <trkpt lat="42.68889" lon="23.71005">
        <ele>641.369496</ele>
        <time>2022-03-08T13:15:33.775Z</time>
      </trkpt>
      <trkpt lat="42.68899" lon="23.71">
        <ele>641.30887</ele>
        <time>2022-03-08T13:15:35.797Z</time>
      </trkpt>
      <trkpt lat="42.68909" lon="23.70997">
        <ele>641.249561</ele>
        <time>2022-03-08T13:15:37.795Z</time>
      </trkpt>
      <trkpt lat="42.68919" lon="23.70993">
        <ele>641.192346</ele>
        <time>2022-03-08T13:15:39.780Z</time>
      </trkpt>
      <trkpt lat="42.68929" lon="23.70989">
        <ele>641.131869</ele>
        <time>2022-03-08T13:15:41.809Z</time>
      </trkpt>
      <trkpt lat="42.68939" lon="23.70983">
        <ele>641.070116</ele>
        <time>2022-03-08T13:15:43.798Z</time>
      </trkpt>
      <trkpt lat="42.68948" lon="23.70979">
        <ele>641.012874</ele>
        <time>2022-03-08T13:15:45.774Z</time>
      </trkpt>
      <trkpt lat="42.68958" lon="23.70974">
        <ele>640.952531</ele>
        <time>2022-03-08T13:15:47.771Z</time>
      </trkpt>
      <trkpt lat="42.68969" lon="23.70969">
        <ele>640.891226</ele>
        <time>2022-03-08T13:15:49.854Z</time>
      </trkpt>
      <trkpt lat="42.68979" lon="23.70963">
        <ele>640.829003</ele>
        <time>2022-03-08T13:15:51.790Z</time>
      </trkpt>
      <trkpt lat="42.68988" lon="23.70958">
        <ele>640.773204</ele>
        <time>2022-03-08T13:15:53.790Z</time>
      </trkpt>
      <trkpt lat="42.68997" lon="23.70953">
        <ele>640.71607</ele>
        <time>2022-03-08T13:15:55.788Z</time>
      </trkpt>
      <trkpt lat="42.69007" lon="23.70948">
        <ele>640.65651</ele>
        <time>2022-03-08T13:15:57.777Z</time>
      </trkpt>
      <trkpt lat="42.69016" lon="23.70942">
        <ele>640.599494</ele>
        <time>2022-03-08T13:15:59.800Z</time>
      </trkpt>
      <trkpt lat="42.69025" lon="23.70937">
        <ele>640.54214</ele>
        <time>2022-03-08T13:16:01.825Z</time>
      </trkpt>
      <trkpt lat="42.69034" lon="23.70931">
        <ele>640.484096</ele>
        <time>2022-03-08T13:16:03.786Z</time>
      </trkpt>
      <trkpt lat="42.69044" lon="23.70926">
        <ele>640.424983</ele>
        <time>2022-03-08T13:16:05.772Z</time>
      </trkpt>
      <trkpt lat="42.69053" lon="23.7092">
        <ele>640.36846</ele>
        <time>2022-03-08T13:16:07.783Z</time>
      </trkpt>
      <trkpt lat="42.69062" lon="23.70913">
        <ele>640.218852</ele>
        <time>2022-03-08T13:16:09.790Z</time>
      </trkpt>
      <trkpt lat="42.69071" lon="23.70906">
        <ele>640.021785</ele>
        <time>2022-03-08T13:16:11.793Z</time>
      </trkpt>
      <trkpt lat="42.6908" lon="23.70897">
        <ele>639.816243</ele>
        <time>2022-03-08T13:16:13.783Z</time>
      </trkpt>
      <trkpt lat="42.69088" lon="23.70888">
        <ele>639.605481</ele>
        <time>2022-03-08T13:16:15.771Z</time>
      </trkpt>
      <trkpt lat="42.69097" lon="23.70878">
        <ele>639.394694</ele>
        <time>2022-03-08T13:16:17.792Z</time>
      </trkpt>
      <trkpt lat="42.69105" lon="23.70869">
        <ele>639.19713</ele>
        <time>2022-03-08T13:16:19.803Z</time>
      </trkpt>
      <trkpt lat="42.69112" lon="23.70859">
        <ele>638.993771</ele>
        <time>2022-03-08T13:16:21.780Z</time>
      </trkpt>
      <trkpt lat="42.6912" lon="23.70849">
        <ele>638.790571</ele>
        <time>2022-03-08T13:16:23.779Z</time>
      </trkpt>
      <trkpt lat="42.69129" lon="23.7084">
        <ele>638.583892</ele>
        <time>2022-03-08T13:16:25.788Z</time>
      </trkpt>
      <trkpt lat="42.69136" lon="23.70832">
        <ele>638.40281</ele>
        <time>2022-03-08T13:16:27.766Z</time>
      </trkpt>
      <trkpt lat="42.69143" lon="23.70823">
        <ele>638.220305</ele>
        <time>2022-03-08T13:16:29.788Z</time>
      </trkpt>
      <trkpt lat="42.69149" lon="23.70813">
        <ele>638.036259</ele>
        <time>2022-03-08T13:16:31.798Z</time>
      </trkpt>
      <trkpt lat="42.69157" lon="23.70804">
        <ele>637.844831</ele>
        <time>2022-03-08T13:16:33.770Z</time>
      </trkpt>
      <trkpt lat="42.69164" lon="23.70795">
        <ele>637.656686</ele>
        <time>2022-03-08T13:16:35.805Z</time>
      </trkpt>
      <trkpt lat="42.69171" lon="23.70786">
        <ele>637.473222</ele>
        <time>2022-03-08T13:16:37.789Z</time>
      </trkpt>
      <trkpt lat="42.69178" lon="23.70778">
        <ele>637.298504</ele>
        <time>2022-03-08T13:16:39.782Z</time>
      </trkpt>
      <trkpt lat="42.69188" lon="23.70767">
        <ele>637.053418</ele>
        <time>2022-03-08T13:16:42.773Z</time>
      </trkpt>
      <trkpt lat="42.69195" lon="23.70758">
        <ele>636.902817</ele>
        <time>2022-03-08T13:16:44.788Z</time>
      </trkpt>
      <trkpt lat="42.69202" lon="23.70748">
        <ele>636.816767</ele>
        <time>2022-03-08T13:16:46.788Z</time>
      </trkpt>
      <trkpt lat="42.69208" lon="23.70738">
        <ele>636.731413</ele>
        <time>2022-03-08T13:16:48.782Z</time>
      </trkpt>
      <trkpt lat="42.69215" lon="23.70728">
        <ele>636.646378</ele>
        <time>2022-03-08T13:16:50.857Z</time>
      </trkpt>
      <trkpt lat="42.69221" lon="23.70718">
        <ele>636.56593</ele>
        <time>2022-03-08T13:16:52.783Z</time>
      </trkpt>
      <trkpt lat="42.69226" lon="23.70707">
        <ele>636.484541</ele>
        <time>2022-03-08T13:16:54.769Z</time>
      </trkpt>
      <trkpt lat="42.69232" lon="23.70696">
        <ele>636.400617</ele>
        <time>2022-03-08T13:16:56.776Z</time>
      </trkpt>
      <trkpt lat="42.69238" lon="23.70685">
        <ele>636.316703</ele>
        <time>2022-03-08T13:16:58.784Z</time>
      </trkpt>
      <trkpt lat="42.69244" lon="23.70674">
        <ele>636.228239</ele>
        <time>2022-03-08T13:17:00.788Z</time>
      </trkpt>
      <trkpt lat="42.6925" lon="23.70662">
        <ele>636.13775</ele>
        <time>2022-03-08T13:17:02.827Z</time>
      </trkpt>
      <trkpt lat="42.69257" lon="23.70651">
        <ele>636.048253</ele>
        <time>2022-03-08T13:17:04.800Z</time>
      </trkpt>
      <trkpt lat="42.69263" lon="23.7064">
        <ele>635.957737</ele>
        <time>2022-03-08T13:17:06.772Z</time>
      </trkpt>
      <trkpt lat="42.6927" lon="23.70628">
        <ele>635.864211</ele>
        <time>2022-03-08T13:17:08.790Z</time>
      </trkpt>
      <trkpt lat="42.69277" lon="23.70616">
        <ele>635.767637</ele>
        <time>2022-03-08T13:17:10.776Z</time>
      </trkpt>
      <trkpt lat="42.69283" lon="23.70603">
        <ele>635.674069</ele>
        <time>2022-03-08T13:17:12.773Z</time>
      </trkpt>
      <trkpt lat="42.69289" lon="23.70591">
        <ele>635.578519</ele>
        <time>2022-03-08T13:17:14.804Z</time>
      </trkpt>
      <trkpt lat="42.69296" lon="23.70578">
        <ele>635.480954</ele>
        <time>2022-03-08T13:17:16.819Z</time>
      </trkpt>
      <trkpt lat="42.69302" lon="23.70566">
        <ele>635.387903</ele>
        <time>2022-03-08T13:17:18.812Z</time>
      </trkpt>
      <trkpt lat="42.69309" lon="23.70554">
        <ele>635.253812</ele>
        <time>2022-03-08T13:17:20.801Z</time>
      </trkpt>
      <trkpt lat="42.69316" lon="23.70543">
        <ele>635.115556</ele>
        <time>2022-03-08T13:17:22.844Z</time>
      </trkpt>
      <trkpt lat="42.69323" lon="23.70532">
        <ele>634.978688</ele>
        <time>2022-03-08T13:17:24.783Z</time>
      </trkpt>
      <trkpt lat="42.69332" lon="23.70522">
        <ele>634.839643</ele>
        <time>2022-03-08T13:17:26.784Z</time>
      </trkpt>
      <trkpt lat="42.69339" lon="23.70512">
        <ele>634.707085</ele>
        <time>2022-03-08T13:17:28.766Z</time>
      </trkpt>
      <trkpt lat="42.69348" lon="23.70503">
        <ele>634.573279</ele>
        <time>2022-03-08T13:17:30.778Z</time>
      </trkpt>
      <trkpt lat="42.69356" lon="23.70494">
        <ele>634.445288</ele>
        <time>2022-03-08T13:17:32.788Z</time>
      </trkpt>
      <trkpt lat="42.69364" lon="23.70486">
        <ele>634.31783</ele>
        <time>2022-03-08T13:17:34.789Z</time>
      </trkpt>
      <trkpt lat="42.69372" lon="23.70477">
        <ele>634.185576</ele>
        <time>2022-03-08T13:17:36.782Z</time>
      </trkpt>
      <trkpt lat="42.6938" lon="23.70469">
        <ele>634.063037</ele>
        <time>2022-03-08T13:17:38.796Z</time>
      </trkpt>
      <trkpt lat="42.69387" lon="23.70459">
        <ele>633.937252</ele>
        <time>2022-03-08T13:17:40.815Z</time>
      </trkpt>
      <trkpt lat="42.69394" lon="23.70448">
        <ele>633.802452</ele>
        <time>2022-03-08T13:17:42.788Z</time>
      </trkpt>
      <trkpt lat="42.69401" lon="23.70437">
        <ele>633.666614</ele>
        <time>2022-03-08T13:17:44.791Z</time>
      </trkpt>
      <trkpt lat="42.69407" lon="23.70426">
        <ele>633.536166</ele>
        <time>2022-03-08T13:17:46.783Z</time>
      </trkpt>
      <trkpt lat="42.69413" lon="23.70413">
        <ele>633.39822</ele>
        <time>2022-03-08T13:17:48.786Z</time>
      </trkpt>
      <trkpt lat="42.6942" lon="23.70401">
        <ele>633.25885</ele>
        <time>2022-03-08T13:17:50.786Z</time>
      </trkpt>
      <trkpt lat="42.69426" lon="23.70387">
        <ele>633.070026</ele>
        <time>2022-03-08T13:17:52.789Z</time>
      </trkpt>
      <trkpt lat="42.69433" lon="23.70374">
        <ele>632.7217</ele>
        <time>2022-03-08T13:17:54.771Z</time>
      </trkpt>
      <trkpt lat="42.6944" lon="23.70361">
        <ele>632.380331</ele>
        <time>2022-03-08T13:17:56.785Z</time>
      </trkpt>
      <trkpt lat="42.69448" lon="23.70349">
        <ele>632.033626</ele>
        <time>2022-03-08T13:17:58.779Z</time>
      </trkpt>
      <trkpt lat="42.69455" lon="23.70336">
        <ele>631.697301</ele>
        <time>2022-03-08T13:18:00.786Z</time>
      </trkpt>
      <trkpt lat="42.69462" lon="23.70324">
        <ele>631.348786</ele>
        <time>2022-03-08T13:18:02.813Z</time>
      </trkpt>
      <trkpt lat="42.69469" lon="23.70311">
        <ele>631.010788</ele>
        <time>2022-03-08T13:18:04.798Z</time>
      </trkpt>
      <trkpt lat="42.69474" lon="23.70298">
        <ele>630.693801</ele>
        <time>2022-03-08T13:18:06.789Z</time>
      </trkpt>
      <trkpt lat="42.69479" lon="23.70286">
        <ele>630.395689</ele>
        <time>2022-03-08T13:18:08.787Z</time>
      </trkpt>
      <trkpt lat="42.69484" lon="23.7027">
        <ele>630.030029</ele>
        <time>2022-03-08T13:18:10.794Z</time>
      </trkpt>
      <trkpt lat="42.69489" lon="23.70255">
        <ele>629.674273</ele>
        <time>2022-03-08T13:18:12.778Z</time>
      </trkpt>
      <trkpt lat="42.69494" lon="23.70239">
        <ele>629.313004</ele>
        <time>2022-03-08T13:18:14.784Z</time>
      </trkpt>
      <trkpt lat="42.69499" lon="23.70224">
        <ele>628.947333</ele>
        <time>2022-03-08T13:18:16.786Z</time>
      </trkpt>
      <trkpt lat="42.69504" lon="23.70209">
        <ele>628.591857</ele>
        <time>2022-03-08T13:18:18.773Z</time>
      </trkpt>
      <trkpt lat="42.69509" lon="23.70194">
        <ele>628.232547</ele>
        <time>2022-03-08T13:18:20.772Z</time>
      </trkpt>
      <trkpt lat="42.69515" lon="23.70179">
        <ele>627.873244</ele>
        <time>2022-03-08T13:18:22.779Z</time>
      </trkpt>
      <trkpt lat="42.69522" lon="23.70165">
        <ele>627.648348</ele>
        <time>2022-03-08T13:18:24.784Z</time>
      </trkpt>
      <trkpt lat="42.69531" lon="23.70151">
        <ele>627.418815</ele>
        <time>2022-03-08T13:18:26.799Z</time>
      </trkpt>
      <trkpt lat="42.69541" lon="23.70138">
        <ele>627.18422</ele>
        <time>2022-03-08T13:18:28.772Z</time>
      </trkpt>
      <trkpt lat="42.69551" lon="23.70126">
        <ele>626.948834</ele>
        <time>2022-03-08T13:18:30.827Z</time>
      </trkpt>
      <trkpt lat="42.69561" lon="23.70113">
        <ele>626.712475</ele>
        <time>2022-03-08T13:18:32.779Z</time>
      </trkpt>
      <trkpt lat="42.6957" lon="23.70101">
        <ele>626.495057</ele>
        <time>2022-03-08T13:18:34.785Z</time>
      </trkpt>
      <trkpt lat="42.69579" lon="23.7009">
        <ele>626.275854</ele>
        <time>2022-03-08T13:18:36.788Z</time>
      </trkpt>
      <trkpt lat="42.69589" lon="23.70078">
        <ele>626.052022</ele>
        <time>2022-03-08T13:18:38.782Z</time>
      </trkpt>
      <trkpt lat="42.69598" lon="23.70066">
        <ele>625.832705</ele>
        <time>2022-03-08T13:18:40.776Z</time>
      </trkpt>
      <trkpt lat="42.69606" lon="23.70054">
        <ele>625.617145</ele>
        <time>2022-03-08T13:18:42.769Z</time>
      </trkpt>
      <trkpt lat="42.69614" lon="23.7004">
        <ele>625.397374</ele>
        <time>2022-03-08T13:18:44.796Z</time>
      </trkpt>
      <trkpt lat="42.69621" lon="23.70026">
        <ele>625.177596</ele>
        <time>2022-03-08T13:18:46.791Z</time>
      </trkpt>
      <trkpt lat="42.69628" lon="23.70011">
        <ele>624.959395</ele>
        <time>2022-03-08T13:18:48.803Z</time>
      </trkpt>
      <trkpt lat="42.69635" lon="23.69997">
        <ele>624.740731</ele>
        <time>2022-03-08T13:18:50.784Z</time>
      </trkpt>
      <trkpt lat="42.69642" lon="23.69982">
        <ele>624.527877</ele>
        <time>2022-03-08T13:18:52.827Z</time>
      </trkpt>
      <trkpt lat="42.69648" lon="23.69968">
        <ele>624.316053</ele>
        <time>2022-03-08T13:18:54.788Z</time>
      </trkpt>
      <trkpt lat="42.69655" lon="23.69954">
        <ele>624.116841</ele>
        <time>2022-03-08T13:18:56.792Z</time>
      </trkpt>
      <trkpt lat="42.69661" lon="23.69941">
        <ele>623.929638</ele>
        <time>2022-03-08T13:18:58.793Z</time>
      </trkpt>
      <trkpt lat="42.69666" lon="23.69928">
        <ele>623.747161</ele>
        <time>2022-03-08T13:19:00.771Z</time>
      </trkpt>
      <trkpt lat="42.69672" lon="23.69915">
        <ele>623.560481</ele>
        <time>2022-03-08T13:19:02.779Z</time>
      </trkpt>
      <trkpt lat="42.69677" lon="23.69902">
        <ele>623.379471</ele>
        <time>2022-03-08T13:19:04.784Z</time>
      </trkpt>
      <trkpt lat="42.69682" lon="23.69888">
        <ele>623.187106</ele>
        <time>2022-03-08T13:19:06.798Z</time>
      </trkpt>
      <trkpt lat="42.69687" lon="23.69873">
        <ele>622.992316</ele>
        <time>2022-03-08T13:19:08.879Z</time>
      </trkpt>
      <trkpt lat="42.69691" lon="23.69858">
        <ele>622.794335</ele>
        <time>2022-03-08T13:19:10.786Z</time>
      </trkpt>
      <trkpt lat="42.69695" lon="23.69842">
        <ele>622.581971</ele>
        <time>2022-03-08T13:19:12.793Z</time>
      </trkpt>
      <trkpt lat="42.69699" lon="23.69825">
        <ele>622.36955</ele>
        <time>2022-03-08T13:19:14.788Z</time>
      </trkpt>
      <trkpt lat="42.69704" lon="23.6981">
        <ele>622.164095</ele>
        <time>2022-03-08T13:19:16.783Z</time>
      </trkpt>
      <trkpt lat="42.69708" lon="23.69795">
        <ele>621.970084</ele>
        <time>2022-03-08T13:19:18.796Z</time>
      </trkpt>
      <trkpt lat="42.69711" lon="23.6978">
        <ele>621.774287</ele>
        <time>2022-03-08T13:19:20.779Z</time>
      </trkpt>
      <trkpt lat="42.69714" lon="23.69765">
        <ele>621.273331</ele>
        <time>2022-03-08T13:19:22.785Z</time>
      </trkpt>
      <trkpt lat="42.69717" lon="23.69751">
        <ele>620.788077</ele>
        <time>2022-03-08T13:19:24.790Z</time>
      </trkpt>
      <trkpt lat="42.69718" lon="23.69737">
        <ele>620.312706</ele>
        <time>2022-03-08T13:19:26.795Z</time>
      </trkpt>
      <trkpt lat="42.69718" lon="23.69723">
        <ele>619.819803</ele>
        <time>2022-03-08T13:19:28.794Z</time>
      </trkpt>
      <trkpt lat="42.69718" lon="23.69708">
        <ele>619.309787</ele>
        <time>2022-03-08T13:19:30.836Z</time>
      </trkpt>
      <trkpt lat="42.69719" lon="23.69693">
        <ele>618.783981</ele>
        <time>2022-03-08T13:19:32.786Z</time>
      </trkpt>
      <trkpt lat="42.69722" lon="23.69678">
        <ele>618.259049</ele>
        <time>2022-03-08T13:19:34.793Z</time>
      </trkpt>
      <trkpt lat="42.69727" lon="23.69664">
        <ele>617.700954</ele>
        <time>2022-03-08T13:19:36.791Z</time>
      </trkpt>
      <trkpt lat="42.69733" lon="23.69649">
        <ele>617.119139</ele>
        <time>2022-03-08T13:19:38.799Z</time>
      </trkpt>
      <trkpt lat="42.6974" lon="23.69634">
        <ele>616.524518</ele>
        <time>2022-03-08T13:19:40.775Z</time>
      </trkpt>
      <trkpt lat="42.69746" lon="23.69619">
        <ele>615.932249</ele>
        <time>2022-03-08T13:19:42.786Z</time>
      </trkpt>
      <trkpt lat="42.69752" lon="23.69603">
        <ele>615.317383</ele>
        <time>2022-03-08T13:19:44.773Z</time>
      </trkpt>
      <trkpt lat="42.69759" lon="23.69587">
        <ele>614.678889</ele>
        <time>2022-03-08T13:19:46.798Z</time>
      </trkpt>
      <trkpt lat="42.69765" lon="23.69571">
        <ele>614.055715</ele>
        <time>2022-03-08T13:19:48.799Z</time>
      </trkpt>
      <trkpt lat="42.69771" lon="23.69556">
        <ele>613.456435</ele>
        <time>2022-03-08T13:19:50.787Z</time>
      </trkpt>
      <trkpt lat="42.69776" lon="23.69541">
        <ele>613.008235</ele>
        <time>2022-03-08T13:19:52.809Z</time>
      </trkpt>
      <trkpt lat="42.69781" lon="23.69525">
        <ele>612.603171</ele>
        <time>2022-03-08T13:19:54.799Z</time>
      </trkpt>
      <trkpt lat="42.69786" lon="23.6951">
        <ele>612.193196</ele>
        <time>2022-03-08T13:19:56.792Z</time>
      </trkpt>
      <trkpt lat="42.69791" lon="23.69495">
        <ele>611.785692</ele>
        <time>2022-03-08T13:19:58.835Z</time>
      </trkpt>
      <trkpt lat="42.69796" lon="23.69479">
        <ele>611.373168</ele>
        <time>2022-03-08T13:20:00.786Z</time>
      </trkpt>
      <trkpt lat="42.69801" lon="23.69464">
        <ele>610.975728</ele>
        <time>2022-03-08T13:20:02.789Z</time>
      </trkpt>
      <trkpt lat="42.69805" lon="23.69451">
        <ele>610.611281</ele>
        <time>2022-03-08T13:20:04.783Z</time>
      </trkpt>
      <trkpt lat="42.69808" lon="23.69438">
        <ele>610.292984</ele>
        <time>2022-03-08T13:20:06.799Z</time>
      </trkpt>
      <trkpt lat="42.69812" lon="23.69425">
        <ele>609.925988</ele>
        <time>2022-03-08T13:20:08.785Z</time>
      </trkpt>
      <trkpt lat="42.69817" lon="23.6941">
        <ele>609.533485</ele>
        <time>2022-03-08T13:20:10.810Z</time>
      </trkpt>
      <trkpt lat="42.69822" lon="23.69396">
        <ele>609.162474</ele>
        <time>2022-03-08T13:20:12.805Z</time>
      </trkpt>
      <trkpt lat="42.69826" lon="23.69383">
        <ele>608.79749</ele>
        <time>2022-03-08T13:20:14.821Z</time>
      </trkpt>
      <trkpt lat="42.69831" lon="23.69369">
        <ele>608.438145</ele>
        <time>2022-03-08T13:20:16.824Z</time>
      </trkpt>
      <trkpt lat="42.69836" lon="23.69354">
        <ele>608.035707</ele>
        <time>2022-03-08T13:20:18.804Z</time>
      </trkpt>
      <trkpt lat="42.6984" lon="23.6934">
        <ele>607.654838</ele>
        <time>2022-03-08T13:20:20.762Z</time>
      </trkpt>
      <trkpt lat="42.69844" lon="23.69327">
        <ele>607.33822</ele>
        <time>2022-03-08T13:20:22.773Z</time>
      </trkpt>
      <trkpt lat="42.69849" lon="23.69314">
        <ele>607.416197</ele>
        <time>2022-03-08T13:20:24.794Z</time>
      </trkpt>
      <trkpt lat="42.69853" lon="23.69302">
        <ele>607.493015</ele>
        <time>2022-03-08T13:20:26.815Z</time>
      </trkpt>
      <trkpt lat="42.69858" lon="23.69289">
        <ele>607.57</ele>
        <time>2022-03-08T13:20:28.793Z</time>
      </trkpt>
      <trkpt lat="42.69868" lon="23.69279">
        <ele>607.664921</ele>
        <time>2022-03-08T13:20:31.783Z</time>
      </trkpt>
      <trkpt lat="42.69878" lon="23.69284">
        <ele>607.744559</ele>
        <time>2022-03-08T13:20:34.788Z</time>
      </trkpt>
      <trkpt lat="42.69884" lon="23.69297">
        <ele>607.828301</ele>
        <time>2022-03-08T13:20:37.797Z</time>
      </trkpt>
      <trkpt lat="42.69889" lon="23.6931">
        <ele>607.911446</ele>
        <time>2022-03-08T13:20:40.784Z</time>
      </trkpt>
      <trkpt lat="42.69893" lon="23.69323">
        <ele>607.989423</ele>
        <time>2022-03-08T13:20:43.798Z</time>
      </trkpt>
      <trkpt lat="42.69899" lon="23.69335">
        <ele>608.073239</ele>
        <time>2022-03-08T13:20:46.799Z</time>
      </trkpt>
      <trkpt lat="42.69905" lon="23.69348">
        <ele>608.155243</ele>
        <time>2022-03-08T13:20:49.794Z</time>
      </trkpt>
      <trkpt lat="42.69911" lon="23.69361">
        <ele>608.240728</ele>
        <time>2022-03-08T13:20:52.787Z</time>
      </trkpt>
      <trkpt lat="42.69917" lon="23.69375">
        <ele>608.328258</ele>
        <time>2022-03-08T13:20:55.807Z</time>
      </trkpt>
      <trkpt lat="42.69922" lon="23.69388">
        <ele>608.41478</ele>
        <time>2022-03-08T13:20:58.783Z</time>
      </trkpt>
      <trkpt lat="42.69928" lon="23.69403">
        <ele>608.504097</ele>
        <time>2022-03-08T13:21:01.798Z</time>
      </trkpt>
      <trkpt lat="42.69934" lon="23.69416">
        <ele>608.590199</ele>
        <time>2022-03-08T13:21:04.838Z</time>
      </trkpt>
      <trkpt lat="42.6994" lon="23.69429">
        <ele>608.674194</ele>
        <time>2022-03-08T13:21:07.784Z</time>
      </trkpt>
      <trkpt lat="42.69945" lon="23.69441">
        <ele>609.046168</ele>
        <time>2022-03-08T13:21:10.746Z</time>
      </trkpt>
      <trkpt lat="42.69952" lon="23.69455">
        <ele>609.500437</ele>
        <time>2022-03-08T13:21:13.811Z</time>
      </trkpt>
      <trkpt lat="42.69958" lon="23.69466">
        <ele>609.914979</ele>
        <time>2022-03-08T13:21:16.792Z</time>
      </trkpt>
      <trkpt lat="42.69963" lon="23.69478">
        <ele>610.303976</ele>
        <time>2022-03-08T13:21:19.791Z</time>
      </trkpt>
      <trkpt lat="42.6997" lon="23.69489">
        <ele>610.718253</ele>
        <time>2022-03-08T13:21:22.789Z</time>
      </trkpt>
      <trkpt lat="42.69977" lon="23.69499">
        <ele>611.120729</ele>
        <time>2022-03-08T13:21:25.798Z</time>
      </trkpt>
      <trkpt lat="42.69984" lon="23.69511">
        <ele>611.555205</ele>
        <time>2022-03-08T13:21:28.787Z</time>
      </trkpt>
      <trkpt lat="42.69991" lon="23.69521">
        <ele>611.955044</ele>
        <time>2022-03-08T13:21:31.843Z</time>
      </trkpt>
      <trkpt lat="42.69998" lon="23.69531">
        <ele>612.369681</ele>
        <time>2022-03-08T13:21:34.807Z</time>
      </trkpt>
      <trkpt lat="42.70006" lon="23.69542">
        <ele>612.814163</ele>
        <time>2022-03-08T13:21:37.785Z</time>
      </trkpt>
      <trkpt lat="42.70013" lon="23.69554">
        <ele>613.255182</ele>
        <time>2022-03-08T13:21:40.804Z</time>
      </trkpt>
      <trkpt lat="42.7002" lon="23.69566">
        <ele>613.688212</ele>
        <time>2022-03-08T13:21:43.786Z</time>
      </trkpt>
      <trkpt lat="42.70027" lon="23.69577">
        <ele>614.119173</ele>
        <time>2022-03-08T13:21:46.798Z</time>
      </trkpt>
      <trkpt lat="42.70033" lon="23.69588">
        <ele>614.516395</ele>
        <time>2022-03-08T13:21:49.792Z</time>
      </trkpt>
      <trkpt lat="42.70041" lon="23.69598">
        <ele>614.941487</ele>
        <time>2022-03-08T13:21:52.788Z</time>
      </trkpt>
      <trkpt lat="42.70049" lon="23.69608">
        <ele>615.364582</ele>
        <time>2022-03-08T13:21:55.789Z</time>
      </trkpt>
      <trkpt lat="42.70057" lon="23.69619">
        <ele>615.754849</ele>
        <time>2022-03-08T13:21:58.789Z</time>
      </trkpt>
      <trkpt lat="42.70066" lon="23.6963">
        <ele>615.749283</ele>
        <time>2022-03-08T13:22:01.793Z</time>
      </trkpt>
      <trkpt lat="42.70074" lon="23.69639">
        <ele>615.743903</ele>
        <time>2022-03-08T13:22:04.835Z</time>
      </trkpt>
      <trkpt lat="42.70085" lon="23.69648">
        <ele>615.738215</ele>
        <time>2022-03-08T13:22:07.773Z</time>
      </trkpt>
      <trkpt lat="42.70095" lon="23.69655">
        <ele>615.732525</ele>
        <time>2022-03-08T13:22:10.799Z</time>
      </trkpt>
      <trkpt lat="42.70106" lon="23.6966">
        <ele>615.727048</ele>
        <time>2022-03-08T13:22:13.795Z</time>
      </trkpt>
      <trkpt lat="42.70117" lon="23.69663">
        <ele>615.721978</ele>
        <time>2022-03-08T13:22:16.772Z</time>
      </trkpt>
      <trkpt lat="42.70128" lon="23.69662">
        <ele>615.716598</ele>
        <time>2022-03-08T13:22:19.806Z</time>
      </trkpt>
      <trkpt lat="42.70139" lon="23.6966">
        <ele>615.711169</ele>
        <time>2022-03-08T13:22:22.790Z</time>
      </trkpt>
      <trkpt lat="42.7015" lon="23.69656">
        <ele>615.705716</ele>
        <time>2022-03-08T13:22:25.786Z</time>
      </trkpt>
      <trkpt lat="42.70161" lon="23.6965">
        <ele>615.700289</ele>
        <time>2022-03-08T13:22:28.794Z</time>
      </trkpt>
      <trkpt lat="42.70173" lon="23.69646">
        <ele>615.694551</ele>
        <time>2022-03-08T13:22:31.784Z</time>
      </trkpt>
      <trkpt lat="42.70184" lon="23.69642">
        <ele>615.688943</ele>
        <time>2022-03-08T13:22:34.783Z</time>
      </trkpt>
      <trkpt lat="42.70195" lon="23.69639">
        <ele>615.683439</ele>
        <time>2022-03-08T13:22:37.791Z</time>
      </trkpt>
      <trkpt lat="42.70206" lon="23.69635">
        <ele>615.678136</ele>
        <time>2022-03-08T13:22:40.786Z</time>
      </trkpt>
      <trkpt lat="42.70216" lon="23.69632">
        <ele>615.673266</ele>
        <time>2022-03-08T13:22:43.810Z</time>
      </trkpt>
      <trkpt lat="42.70227" lon="23.69629">
        <ele>615.671017</ele>
        <time>2022-03-08T13:22:46.791Z</time>
      </trkpt>
      <trkpt lat="42.70237" lon="23.69627">
        <ele>615.674369</ele>
        <time>2022-03-08T13:22:49.796Z</time>
      </trkpt>
      <trkpt lat="42.70248" lon="23.69626">
        <ele>615.677864</ele>
        <time>2022-03-08T13:22:52.795Z</time>
      </trkpt>
      <trkpt lat="42.70259" lon="23.69626">
        <ele>615.681542</ele>
        <time>2022-03-08T13:22:55.802Z</time>
      </trkpt>
      <trkpt lat="42.7027" lon="23.69626">
        <ele>615.685057</ele>
        <time>2022-03-08T13:22:58.837Z</time>
      </trkpt>
      <trkpt lat="42.70281" lon="23.69626">
        <ele>615.688572</ele>
        <time>2022-03-08T13:23:01.796Z</time>
      </trkpt>
      <trkpt lat="42.70292" lon="23.69625">
        <ele>615.692216</ele>
        <time>2022-03-08T13:23:04.786Z</time>
      </trkpt>
      <trkpt lat="42.70303" lon="23.69626">
        <ele>615.69564</ele>
        <time>2022-03-08T13:23:07.773Z</time>
      </trkpt>
      <trkpt lat="42.70314" lon="23.69627">
        <ele>615.699189</ele>
        <time>2022-03-08T13:23:10.804Z</time>
      </trkpt>
      <trkpt lat="42.70325" lon="23.69627">
        <ele>615.702673</ele>
        <time>2022-03-08T13:23:13.787Z</time>
      </trkpt>
      <trkpt lat="42.70336" lon="23.69628">
        <ele>615.706324</ele>
        <time>2022-03-08T13:23:16.786Z</time>
      </trkpt>
      <trkpt lat="42.70347" lon="23.69629">
        <ele>615.710036</ele>
        <time>2022-03-08T13:23:19.807Z</time>
      </trkpt>
      <trkpt lat="42.70359" lon="23.69629">
        <ele>615.713682</ele>
        <time>2022-03-08T13:23:22.828Z</time>
      </trkpt>
      <trkpt lat="42.7037" lon="23.6963">
        <ele>615.717361</ele>
        <time>2022-03-08T13:23:25.814Z</time>
      </trkpt>
      <trkpt lat="42.70381" lon="23.69631">
        <ele>615.720883</ele>
        <time>2022-03-08T13:23:28.790Z</time>
      </trkpt>
      <trkpt lat="42.70392" lon="23.6963">
        <ele>615.724431</ele>
        <time>2022-03-08T13:23:31.788Z</time>
      </trkpt>
      <trkpt lat="42.70403" lon="23.6963">
        <ele>615.759845</ele>
        <time>2022-03-08T13:23:34.785Z</time>
      </trkpt>
      <trkpt lat="42.70415" lon="23.69629">
        <ele>616.36721</ele>
        <time>2022-03-08T13:23:37.795Z</time>
      </trkpt>
      <trkpt lat="42.70424" lon="23.69621">
        <ele>616.954778</ele>
        <time>2022-03-08T13:23:40.790Z</time>
      </trkpt>
      <trkpt lat="42.70431" lon="23.69612">
        <ele>617.466848</ele>
        <time>2022-03-08T13:23:43.870Z</time>
      </trkpt>
      <trkpt lat="42.70432" lon="23.69599">
        <ele>617.9668</ele>
        <time>2022-03-08T13:23:48.772Z</time>
      </trkpt>
      <trkpt lat="42.70429" lon="23.69585">
        <ele>618.524245</ele>
        <time>2022-03-08T13:23:54.815Z</time>
      </trkpt>
      <trkpt lat="42.70428" lon="23.6957">
        <ele>619.085783</ele>
        <time>2022-03-08T13:24:00.806Z</time>
      </trkpt>
      <trkpt lat="42.70431" lon="23.69558">
        <ele>619.604786</ele>
        <time>2022-03-08T13:24:06.828Z</time>
      </trkpt>
      <trkpt lat="42.70438" lon="23.69549">
        <ele>620.090054</ele>
        <time>2022-03-08T13:24:12.785Z</time>
      </trkpt>
      <trkpt lat="42.70445" lon="23.69541">
        <ele>620.569712</ele>
        <time>2022-03-08T13:24:17.826Z</time>
      </trkpt>
      <trkpt lat="42.70455" lon="23.69536">
        <ele>621.136512</ele>
        <time>2022-03-08T13:24:23.798Z</time>
      </trkpt>
      <trkpt lat="42.70464" lon="23.69535">
        <ele>621.63289</ele>
        <time>2022-03-08T13:24:29.791Z</time>
      </trkpt>
      <trkpt lat="42.70474" lon="23.69542">
        <ele>622.207728</ele>
        <time>2022-03-08T13:24:36.783Z</time>
      </trkpt>
      <trkpt lat="42.70479" lon="23.69554">
        <ele>622.757557</ele>
        <time>2022-03-08T13:24:40.790Z</time>
      </trkpt>
      <trkpt lat="42.70483" lon="23.69569">
        <ele>623.363122</ele>
        <time>2022-03-08T13:24:44.845Z</time>
      </trkpt>
      <trkpt lat="42.70486" lon="23.69582">
        <ele>623.897531</ele>
        <time>2022-03-08T13:24:47.799Z</time>
      </trkpt>
      <trkpt lat="42.70488" lon="23.69595">
        <ele>624.433323</ele>
        <time>2022-03-08T13:24:50.778Z</time>
      </trkpt>
      <trkpt lat="42.70491" lon="23.69609">
        <ele>624.990327</ele>
        <time>2022-03-08T13:24:53.796Z</time>
      </trkpt>
      <trkpt lat="42.70494" lon="23.69622">
        <ele>625.318543</ele>
        <time>2022-03-08T13:24:56.789Z</time>
      </trkpt>
      <trkpt lat="42.70496" lon="23.69636">
        <ele>625.508807</ele>
        <time>2022-03-08T13:24:59.795Z</time>
      </trkpt>
      <trkpt lat="42.70499" lon="23.69652">
        <ele>625.724319</ele>
        <time>2022-03-08T13:25:02.771Z</time>
      </trkpt>
      <trkpt lat="42.70501" lon="23.69669">
        <ele>625.960956</ele>
        <time>2022-03-08T13:25:05.790Z</time>
      </trkpt>
      <trkpt lat="42.70505" lon="23.69685">
        <ele>626.189218</ele>
        <time>2022-03-08T13:25:08.808Z</time>
      </trkpt>
      <trkpt lat="42.70508" lon="23.69701">
        <ele>626.409285</ele>
        <time>2022-03-08T13:25:11.830Z</time>
      </trkpt>
      <trkpt lat="42.70512" lon="23.69717">
        <ele>626.625511</ele>
        <time>2022-03-08T13:25:14.788Z</time>
      </trkpt>
      <trkpt lat="42.70515" lon="23.69731">
        <ele>626.827884</ele>
        <time>2022-03-08T13:25:17.779Z</time>
      </trkpt>
      <trkpt lat="42.70519" lon="23.69746">
        <ele>627.034616</ele>
        <time>2022-03-08T13:25:20.794Z</time>
      </trkpt>
      <trkpt lat="42.70524" lon="23.6976">
        <ele>627.249624</ele>
        <time>2022-03-08T13:25:23.798Z</time>
      </trkpt>
      <trkpt lat="42.70528" lon="23.69776">
        <ele>627.468154</ele>
        <time>2022-03-08T13:25:26.783Z</time>
      </trkpt>
      <trkpt lat="42.70532" lon="23.69791">
        <ele>627.684253</ele>
        <time>2022-03-08T13:25:29.815Z</time>
      </trkpt>
      <trkpt lat="42.70537" lon="23.69805">
        <ele>627.894705</ele>
        <time>2022-03-08T13:25:32.796Z</time>
      </trkpt>
      <trkpt lat="42.7054" lon="23.69818">
        <ele>628.072113</ele>
        <time>2022-03-08T13:25:35.787Z</time>
      </trkpt>
      <trkpt lat="42.70542" lon="23.69831">
        <ele>628.249722</ele>
        <time>2022-03-08T13:25:38.826Z</time>
      </trkpt>
      <trkpt lat="42.70545" lon="23.69844">
        <ele>628.430978</ele>
        <time>2022-03-08T13:25:41.816Z</time>
      </trkpt>
      <trkpt lat="42.70548" lon="23.69859">
        <ele>628.748603</ele>
        <time>2022-03-08T13:25:45.803Z</time>
      </trkpt>
      <trkpt lat="42.7055" lon="23.69874">
        <ele>629.1023</ele>
        <time>2022-03-08T13:25:49.803Z</time>
      </trkpt>
      <trkpt lat="42.70552" lon="23.69886">
        <ele>629.385275</ele>
        <time>2022-03-08T13:25:52.798Z</time>
      </trkpt>
      <trkpt lat="42.70555" lon="23.69898">
        <ele>629.666594</ele>
        <time>2022-03-08T13:25:55.829Z</time>
      </trkpt>
      <trkpt lat="42.70558" lon="23.69913">
        <ele>630.014061</ele>
        <time>2022-03-08T13:25:59.792Z</time>
      </trkpt>
      <trkpt lat="42.70562" lon="23.69926">
        <ele>630.3251</ele>
        <time>2022-03-08T13:26:03.792Z</time>
      </trkpt>
      <trkpt lat="42.70565" lon="23.69938">
        <ele>630.619158</ele>
        <time>2022-03-08T13:26:07.781Z</time>
      </trkpt>
      <trkpt lat="42.70568" lon="23.69949">
        <ele>630.896163</ele>
        <time>2022-03-08T13:26:11.786Z</time>
      </trkpt>
      <trkpt lat="42.70571" lon="23.69962">
        <ele>631.197879</ele>
        <time>2022-03-08T13:26:16.791Z</time>
      </trkpt>
      <trkpt lat="42.70574" lon="23.69976">
        <ele>631.529604</ele>
        <time>2022-03-08T13:26:22.803Z</time>
      </trkpt>
      <trkpt lat="42.70577" lon="23.69989">
        <ele>631.82699</ele>
        <time>2022-03-08T13:26:27.810Z</time>
      </trkpt>
      <trkpt lat="42.70579" lon="23.70001">
        <ele>632.116392</ele>
        <time>2022-03-08T13:26:32.796Z</time>
      </trkpt>
      <trkpt lat="42.70582" lon="23.70013">
        <ele>632.402981</ele>
        <time>2022-03-08T13:26:37.778Z</time>
      </trkpt>
      <trkpt lat="42.70585" lon="23.70025">
        <ele>632.701311</ele>
        <time>2022-03-08T13:26:43.796Z</time>
      </trkpt>
      <trkpt lat="42.70587" lon="23.70038">
        <ele>632.991543</ele>
        <time>2022-03-08T13:26:49.807Z</time>
      </trkpt>
      <trkpt lat="42.7059" lon="23.70051">
        <ele>633.303774</ele>
        <time>2022-03-08T13:26:55.787Z</time>
      </trkpt>
      <trkpt lat="42.70593" lon="23.70063">
        <ele>633.584907</ele>
        <time>2022-03-08T13:27:01.788Z</time>
      </trkpt>
      <trkpt lat="42.70596" lon="23.70075">
        <ele>633.882061</ele>
        <time>2022-03-08T13:27:07.795Z</time>
      </trkpt>
      <trkpt lat="42.70598" lon="23.70089">
        <ele>634.310054</ele>
        <time>2022-03-08T13:27:13.780Z</time>
      </trkpt>
      <trkpt lat="42.70601" lon="23.70101">
        <ele>634.836261</ele>
        <time>2022-03-08T13:27:19.839Z</time>
      </trkpt>
      <trkpt lat="42.70603" lon="23.70114">
        <ele>635.350973</ele>
        <time>2022-03-08T13:27:25.800Z</time>
      </trkpt>
      <trkpt lat="42.70605" lon="23.70127">
        <ele>635.880022</ele>
        <time>2022-03-08T13:27:32.792Z</time>
      </trkpt>
      <trkpt lat="42.70607" lon="23.70139">
        <ele>636.391747</ele>
        <time>2022-03-08T13:27:38.828Z</time>
      </trkpt>
      <trkpt lat="42.70609" lon="23.70152">
        <ele>636.914008</ele>
        <time>2022-03-08T13:27:45.796Z</time>
      </trkpt>
      <trkpt lat="42.70612" lon="23.70165">
        <ele>637.462418</ele>
        <time>2022-03-08T13:27:52.798Z</time>
      </trkpt>
      <trkpt lat="42.70616" lon="23.70177">
        <ele>637.973254</ele>
        <time>2022-03-08T13:27:58.815Z</time>
      </trkpt>
      <trkpt lat="42.70618" lon="23.70189">
        <ele>638.468168</ele>
        <time>2022-03-08T13:28:04.813Z</time>
      </trkpt>
      <trkpt lat="42.7062" lon="23.70203">
        <ele>639.045741</ele>
        <time>2022-03-08T13:28:11.777Z</time>
      </trkpt>
      <trkpt lat="42.70621" lon="23.70216">
        <ele>639.593835</ele>
        <time>2022-03-08T13:28:18.804Z</time>
      </trkpt>
      <trkpt lat="42.70624" lon="23.70229">
        <ele>640.122559</ele>
        <time>2022-03-08T13:28:24.779Z</time>
      </trkpt>
      <trkpt lat="42.70625" lon="23.70242">
        <ele>640.62241</ele>
        <time>2022-03-08T13:28:30.826Z</time>
      </trkpt>
      <trkpt lat="42.70628" lon="23.70256">
        <ele>641.197679</ele>
        <time>2022-03-08T13:28:36.812Z</time>
      </trkpt>
      <trkpt lat="42.7063" lon="23.70268">
        <ele>641.708359</ele>
        <time>2022-03-08T13:28:42.813Z</time>
      </trkpt>
      <trkpt lat="42.70634" lon="23.7028">
        <ele>642.25837</ele>
        <time>2022-03-08T13:28:49.795Z</time>
      </trkpt>
      <trkpt lat="42.70638" lon="23.70294">
        <ele>642.816314</ele>
        <time>2022-03-08T13:28:56.795Z</time>
      </trkpt>
      <trkpt lat="42.70642" lon="23.70306">
        <ele>643.379506</ele>
        <time>2022-03-08T13:29:04.839Z</time>
      </trkpt>
      <trkpt lat="42.70645" lon="23.7032">
        <ele>643.999168</ele>
        <time>2022-03-08T13:29:11.776Z</time>
      </trkpt>
      <trkpt lat="42.70648" lon="23.70331">
        <ele>644.896573</ele>
        <time>2022-03-08T13:29:17.794Z</time>
      </trkpt>
      <trkpt lat="42.7065" lon="23.70345">
        <ele>645.932286</ele>
        <time>2022-03-08T13:29:24.791Z</time>
      </trkpt>
      <trkpt lat="42.70652" lon="23.70359">
        <ele>646.984645</ele>
        <time>2022-03-08T13:29:31.827Z</time>
      </trkpt>
      <trkpt lat="42.70656" lon="23.70371">
        <ele>647.976537</ele>
        <time>2022-03-08T13:29:37.799Z</time>
      </trkpt>
      <trkpt lat="42.70658" lon="23.70383">
        <ele>648.906037</ele>
        <time>2022-03-08T13:29:45.791Z</time>
      </trkpt>
      <trkpt lat="42.70662" lon="23.70396">
        <ele>649.926132</ele>
        <time>2022-03-08T13:29:52.796Z</time>
      </trkpt>
      <trkpt lat="42.70666" lon="23.70408">
        <ele>650.849334</ele>
        <time>2022-03-08T13:29:59.809Z</time>
      </trkpt>
      <trkpt lat="42.70668" lon="23.70421">
        <ele>651.868436</ele>
        <time>2022-03-08T13:30:07.789Z</time>
      </trkpt>
      <trkpt lat="42.7067" lon="23.70433">
        <ele>652.780483</ele>
        <time>2022-03-08T13:30:14.829Z</time>
      </trkpt>
      <trkpt lat="42.70673" lon="23.70446">
        <ele>653.728092</ele>
        <time>2022-03-08T13:30:21.814Z</time>
      </trkpt>
      <trkpt lat="42.70676" lon="23.70459">
        <ele>654.753887</ele>
        <time>2022-03-08T13:30:28.793Z</time>
      </trkpt>
      <trkpt lat="42.70679" lon="23.70471">
        <ele>655.721912</ele>
        <time>2022-03-08T13:30:35.792Z</time>
      </trkpt>
      <trkpt lat="42.7068" lon="23.70484">
        <ele>656.673929</ele>
        <time>2022-03-08T13:30:42.797Z</time>
      </trkpt>
      <trkpt lat="42.70682" lon="23.70497">
        <ele>657.65495</ele>
        <time>2022-03-08T13:30:50.787Z</time>
      </trkpt>
      <trkpt lat="42.70685" lon="23.70509">
        <ele>658.558048</ele>
        <time>2022-03-08T13:30:57.795Z</time>
      </trkpt>
      <trkpt lat="42.70688" lon="23.70521">
        <ele>659.541747</ele>
        <time>2022-03-08T13:31:05.776Z</time>
      </trkpt>
      <trkpt lat="42.7069" lon="23.70535">
        <ele>660.52251</ele>
        <time>2022-03-08T13:31:12.801Z</time>
      </trkpt>
      <trkpt lat="42.70692" lon="23.70547">
        <ele>661.470116</ele>
        <time>2022-03-08T13:31:19.837Z</time>
      </trkpt>
      <trkpt lat="42.70694" lon="23.70559">
        <ele>662.27402</ele>
        <time>2022-03-08T13:31:25.789Z</time>
      </trkpt>
      <trkpt lat="42.70697" lon="23.70571">
        <ele>663.067898</ele>
        <time>2022-03-08T13:31:32.786Z</time>
      </trkpt>
      <trkpt lat="42.707" lon="23.70584">
        <ele>663.905427</ele>
        <time>2022-03-08T13:31:40.793Z</time>
      </trkpt>
      <trkpt lat="42.70703" lon="23.70597">
        <ele>664.706173</ele>
        <time>2022-03-08T13:31:47.808Z</time>
      </trkpt>
      <trkpt lat="42.70704" lon="23.7061">
        <ele>665.477428</ele>
        <time>2022-03-08T13:31:54.787Z</time>
      </trkpt>
      <trkpt lat="42.70707" lon="23.70621">
        <ele>666.231429</ele>
        <time>2022-03-08T13:32:01.787Z</time>
      </trkpt>
      <trkpt lat="42.70709" lon="23.70634">
        <ele>666.990081</ele>
        <time>2022-03-08T13:32:08.795Z</time>
      </trkpt>
      <trkpt lat="42.7071" lon="23.70646">
        <ele>667.740208</ele>
        <time>2022-03-08T13:32:16.789Z</time>
      </trkpt>
      <trkpt lat="42.70712" lon="23.70658">
        <ele>668.488687</ele>
        <time>2022-03-08T13:32:23.779Z</time>
      </trkpt>
      <trkpt lat="42.70715" lon="23.70671">
        <ele>669.313802</ele>
        <time>2022-03-08T13:32:30.818Z</time>
      </trkpt>
      <trkpt lat="42.70719" lon="23.70683">
        <ele>670.096398</ele>
        <time>2022-03-08T13:32:37.795Z</time>
      </trkpt>
      <trkpt lat="42.70719" lon="23.70695">
        <ele>670.856966</ele>
        <time>2022-03-08T13:32:44.812Z</time>
      </trkpt>
      <trkpt lat="42.70723" lon="23.70707">
        <ele>671.605877</ele>
        <time>2022-03-08T13:32:51.792Z</time>
      </trkpt>
      <trkpt lat="42.70725" lon="23.7072">
        <ele>672.410969</ele>
        <time>2022-03-08T13:32:58.786Z</time>
      </trkpt>
      <trkpt lat="42.70728" lon="23.70731">
        <ele>673.159318</ele>
        <time>2022-03-08T13:33:05.791Z</time>
      </trkpt>
      <trkpt lat="42.70732" lon="23.70744">
        <ele>673.990512</ele>
        <time>2022-03-08T13:33:13.847Z</time>
      </trkpt>
      <trkpt lat="42.70734" lon="23.70757">
        <ele>674.826544</ele>
        <time>2022-03-08T13:33:20.820Z</time>
      </trkpt>
      <trkpt lat="42.70737" lon="23.7077">
        <ele>675.611804</ele>
        <time>2022-03-08T13:33:27.794Z</time>
      </trkpt>
      <trkpt lat="42.7074" lon="23.70782">
        <ele>676.351911</ele>
        <time>2022-03-08T13:33:34.816Z</time>
      </trkpt>
      <trkpt lat="42.70743" lon="23.70794">
        <ele>676.754329</ele>
        <time>2022-03-08T13:33:41.804Z</time>
      </trkpt>
      <trkpt lat="42.70746" lon="23.70805">
        <ele>676.887622</ele>
        <time>2022-03-08T13:33:47.799Z</time>
      </trkpt>
      <trkpt lat="42.70749" lon="23.70818">
        <ele>677.024922</ele>
        <time>2022-03-08T13:33:54.791Z</time>
      </trkpt>
      <trkpt lat="42.70751" lon="23.70831">
        <ele>677.167937</ele>
        <time>2022-03-08T13:34:01.795Z</time>
      </trkpt>
      <trkpt lat="42.70755" lon="23.70843">
        <ele>677.306004</ele>
        <time>2022-03-08T13:34:07.797Z</time>
      </trkpt>
      <trkpt lat="42.70756" lon="23.70856">
        <ele>677.445077</ele>
        <time>2022-03-08T13:34:13.792Z</time>
      </trkpt>
      <trkpt lat="42.70759" lon="23.70868">
        <ele>677.579605</ele>
        <time>2022-03-08T13:34:18.780Z</time>
      </trkpt>
      <trkpt lat="42.70762" lon="23.70879">
        <ele>677.712389</ele>
        <time>2022-03-08T13:34:23.797Z</time>
      </trkpt>
      <trkpt lat="42.70764" lon="23.70893">
        <ele>677.859745</ele>
        <time>2022-03-08T13:34:29.792Z</time>
      </trkpt>
      <trkpt lat="42.70767" lon="23.70906">
        <ele>678.004145</ele>
        <time>2022-03-08T13:34:35.798Z</time>
      </trkpt>
      <trkpt lat="42.70768" lon="23.7092">
        <ele>678.154012</ele>
        <time>2022-03-08T13:34:41.796Z</time>
      </trkpt>
      <trkpt lat="42.7077" lon="23.70934">
        <ele>678.308181</ele>
        <time>2022-03-08T13:34:47.789Z</time>
      </trkpt>
      <trkpt lat="42.70773" lon="23.70947">
        <ele>678.451443</ele>
        <time>2022-03-08T13:34:52.793Z</time>
      </trkpt>
      <trkpt lat="42.70777" lon="23.7096">
        <ele>678.607062</ele>
        <time>2022-03-08T13:34:57.807Z</time>
      </trkpt>
      <trkpt lat="42.70779" lon="23.70975">
        <ele>678.764109</ele>
        <time>2022-03-08T13:35:02.817Z</time>
      </trkpt>
      <trkpt lat="42.70781" lon="23.70989">
        <ele>678.916186</ele>
        <time>2022-03-08T13:35:07.798Z</time>
      </trkpt>
      <trkpt lat="42.70784" lon="23.71003">
        <ele>679.074782</ele>
        <time>2022-03-08T13:35:12.795Z</time>
      </trkpt>
      <trkpt lat="42.70786" lon="23.71017">
        <ele>679.227322</ele>
        <time>2022-03-08T13:35:17.804Z</time>
      </trkpt>
      <trkpt lat="42.70788" lon="23.71031">
        <ele>679.029557</ele>
        <time>2022-03-08T13:35:22.791Z</time>
      </trkpt>
      <trkpt lat="42.70791" lon="23.71042">
        <ele>678.660655</ele>
        <time>2022-03-08T13:35:26.833Z</time>
      </trkpt>
      <trkpt lat="42.70794" lon="23.71054">
        <ele>678.287917</ele>
        <time>2022-03-08T13:35:30.769Z</time>
      </trkpt>
      <trkpt lat="42.70797" lon="23.71068">
        <ele>677.857399</ele>
        <time>2022-03-08T13:35:34.808Z</time>
      </trkpt>
      <trkpt lat="42.708" lon="23.71083">
        <ele>677.393612</ele>
        <time>2022-03-08T13:35:38.801Z</time>
      </trkpt>
      <trkpt lat="42.70803" lon="23.71099">
        <ele>676.900435</ele>
        <time>2022-03-08T13:35:42.796Z</time>
      </trkpt>
      <trkpt lat="42.70805" lon="23.71111">
        <ele>676.520773</ele>
        <time>2022-03-08T13:35:45.798Z</time>
      </trkpt>
      <trkpt lat="42.70808" lon="23.71124">
        <ele>676.118994</ele>
        <time>2022-03-08T13:35:48.782Z</time>
      </trkpt>
      <trkpt lat="42.7081" lon="23.71137">
        <ele>675.709477</ele>
        <time>2022-03-08T13:35:51.797Z</time>
      </trkpt>
      <trkpt lat="42.70813" lon="23.71151">
        <ele>675.267402</ele>
        <time>2022-03-08T13:35:54.788Z</time>
      </trkpt>
      <trkpt lat="42.70816" lon="23.71166">
        <ele>674.812983</ele>
        <time>2022-03-08T13:35:57.791Z</time>
      </trkpt>
      <trkpt lat="42.70818" lon="23.71181">
        <ele>674.343896</ele>
        <time>2022-03-08T13:36:00.800Z</time>
      </trkpt>
      <trkpt lat="42.70822" lon="23.71195">
        <ele>673.885907</ele>
        <time>2022-03-08T13:36:03.796Z</time>
      </trkpt>
      <trkpt lat="42.70827" lon="23.71209">
        <ele>673.431225</ele>
        <time>2022-03-08T13:36:06.814Z</time>
      </trkpt>
      <trkpt lat="42.7083" lon="23.71224">
        <ele>672.958486</ele>
        <time>2022-03-08T13:36:09.807Z</time>
      </trkpt>
      <trkpt lat="42.70834" lon="23.71241">
        <ele>672.42742</ele>
        <time>2022-03-08T13:36:12.788Z</time>
      </trkpt>
      <trkpt lat="42.70836" lon="23.71253">
        <ele>672.038336</ele>
        <time>2022-03-08T13:36:14.782Z</time>
      </trkpt>
      <trkpt lat="42.70838" lon="23.7127">
        <ele>671.860957</ele>
        <time>2022-03-08T13:36:17.828Z</time>
      </trkpt>
      <trkpt lat="42.70841" lon="23.71282">
        <ele>671.804571</ele>
        <time>2022-03-08T13:36:19.808Z</time>
      </trkpt>
      <trkpt lat="42.70844" lon="23.71293">
        <ele>671.749484</ele>
        <time>2022-03-08T13:36:21.791Z</time>
      </trkpt>
      <trkpt lat="42.70846" lon="23.71307">
        <ele>671.687976</ele>
        <time>2022-03-08T13:36:23.796Z</time>
      </trkpt>
      <trkpt lat="42.70849" lon="23.7132">
        <ele>671.62612</ele>
        <time>2022-03-08T13:36:25.792Z</time>
      </trkpt>
      <trkpt lat="42.70852" lon="23.71333">
        <ele>671.563408</ele>
        <time>2022-03-08T13:36:27.789Z</time>
      </trkpt>
      <trkpt lat="42.70855" lon="23.71346">
        <ele>671.501901</ele>
        <time>2022-03-08T13:36:29.810Z</time>
      </trkpt>
      <trkpt lat="42.70859" lon="23.7136">
        <ele>671.438447</ele>
        <time>2022-03-08T13:36:31.798Z</time>
      </trkpt>
      <trkpt lat="42.70862" lon="23.71373">
        <ele>671.373514</ele>
        <time>2022-03-08T13:36:33.783Z</time>
      </trkpt>
      <trkpt lat="42.70865" lon="23.71387">
        <ele>671.31001</ele>
        <time>2022-03-08T13:36:35.792Z</time>
      </trkpt>
      <trkpt lat="42.70869" lon="23.71401">
        <ele>671.244425</ele>
        <time>2022-03-08T13:36:37.773Z</time>
      </trkpt>
      <trkpt lat="42.70872" lon="23.71415">
        <ele>671.178107</ele>
        <time>2022-03-08T13:36:39.804Z</time>
      </trkpt>
      <trkpt lat="42.70876" lon="23.7143">
        <ele>671.108739</ele>
        <time>2022-03-08T13:36:41.787Z</time>
      </trkpt>
      <trkpt lat="42.70879" lon="23.71445">
        <ele>671.037954</ele>
        <time>2022-03-08T13:36:43.794Z</time>
      </trkpt>
      <trkpt lat="42.70882" lon="23.71461">
        <ele>670.964679</ele>
        <time>2022-03-08T13:36:45.788Z</time>
      </trkpt>
      <trkpt lat="42.70886" lon="23.71477">
        <ele>670.88817</ele>
        <time>2022-03-08T13:36:47.794Z</time>
      </trkpt>
      <trkpt lat="42.70891" lon="23.71493">
        <ele>670.758852</ele>
        <time>2022-03-08T13:36:49.813Z</time>
      </trkpt>
      <trkpt lat="42.70896" lon="23.7151">
        <ele>670.217448</ele>
        <time>2022-03-08T13:36:51.798Z</time>
      </trkpt>
      <trkpt lat="42.70901" lon="23.71528">
        <ele>669.696284</ele>
        <time>2022-03-08T13:36:53.790Z</time>
      </trkpt>
      <trkpt lat="42.70906" lon="23.71546">
        <ele>669.15255</ele>
        <time>2022-03-08T13:36:55.792Z</time>
      </trkpt>
      <trkpt lat="42.7091" lon="23.71563">
        <ele>668.620743</ele>
        <time>2022-03-08T13:36:57.820Z</time>
      </trkpt>
      <trkpt lat="42.70915" lon="23.71581">
        <ele>668.082307</ele>
        <time>2022-03-08T13:36:59.805Z</time>
      </trkpt>
      <trkpt lat="42.7092" lon="23.716">
        <ele>667.527838</ele>
        <time>2022-03-08T13:37:01.789Z</time>
      </trkpt>
      <trkpt lat="42.70924" lon="23.71618">
        <ele>666.976045</ele>
        <time>2022-03-08T13:37:03.791Z</time>
      </trkpt>
      <trkpt lat="42.70929" lon="23.71637">
        <ele>666.421673</ele>
        <time>2022-03-08T13:37:05.824Z</time>
      </trkpt>
      <trkpt lat="42.70934" lon="23.71655">
        <ele>665.869925</ele>
        <time>2022-03-08T13:37:07.788Z</time>
      </trkpt>
      <trkpt lat="42.70939" lon="23.71674">
        <ele>665.303588</ele>
        <time>2022-03-08T13:37:09.818Z</time>
      </trkpt>
      <trkpt lat="42.70944" lon="23.71691">
        <ele>664.765155</ele>
        <time>2022-03-08T13:37:11.784Z</time>
      </trkpt>
      <trkpt lat="42.70949" lon="23.71709">
        <ele>664.232034</ele>
        <time>2022-03-08T13:37:13.783Z</time>
      </trkpt>
      <trkpt lat="42.70954" lon="23.71727">
        <ele>663.509153</ele>
        <time>2022-03-08T13:37:15.801Z</time>
      </trkpt>
      <trkpt lat="42.70958" lon="23.71746">
        <ele>662.531608</ele>
        <time>2022-03-08T13:37:17.790Z</time>
      </trkpt>
      <trkpt lat="42.70963" lon="23.71764">
        <ele>661.520639</ele>
        <time>2022-03-08T13:37:19.792Z</time>
      </trkpt>
      <trkpt lat="42.70968" lon="23.71784">
        <ele>660.454975</ele>
        <time>2022-03-08T13:37:21.807Z</time>
      </trkpt>
      <trkpt lat="42.70973" lon="23.71803">
        <ele>659.406074</ele>
        <time>2022-03-08T13:37:23.786Z</time>
      </trkpt>
      <trkpt lat="42.70978" lon="23.71821">
        <ele>658.433892</ele>
        <time>2022-03-08T13:37:25.797Z</time>
      </trkpt>
      <trkpt lat="42.70984" lon="23.7184">
        <ele>657.408776</ele>
        <time>2022-03-08T13:37:27.792Z</time>
      </trkpt>
      <trkpt lat="42.70989" lon="23.7186">
        <ele>656.314466</ele>
        <time>2022-03-08T13:37:29.808Z</time>
      </trkpt>
      <trkpt lat="42.70994" lon="23.7188">
        <ele>655.231784</ele>
        <time>2022-03-08T13:37:31.796Z</time>
      </trkpt>
      <trkpt lat="42.70999" lon="23.71899">
        <ele>654.216346</ele>
        <time>2022-03-08T13:37:33.806Z</time>
      </trkpt>
      <trkpt lat="42.71004" lon="23.71918">
        <ele>653.181862</ele>
        <time>2022-03-08T13:37:35.796Z</time>
      </trkpt>
      <trkpt lat="42.71009" lon="23.71937">
        <ele>652.166426</ele>
        <time>2022-03-08T13:37:37.808Z</time>
      </trkpt>
      <trkpt lat="42.71014" lon="23.71956">
        <ele>651.121051</ele>
        <time>2022-03-08T13:37:39.803Z</time>
      </trkpt>
      <trkpt lat="42.71019" lon="23.71977">
        <ele>650.050662</ele>
        <time>2022-03-08T13:37:41.803Z</time>
      </trkpt>
      <trkpt lat="42.71024" lon="23.71996">
        <ele>649.021998</ele>
        <time>2022-03-08T13:37:43.788Z</time>
      </trkpt>
      <trkpt lat="42.71029" lon="23.72015">
        <ele>648.030428</ele>
        <time>2022-03-08T13:37:45.778Z</time>
      </trkpt>
      <trkpt lat="42.71035" lon="23.72033">
        <ele>647.078175</ele>
        <time>2022-03-08T13:37:47.814Z</time>
      </trkpt>
      <trkpt lat="42.71041" lon="23.72051">
        <ele>646.094044</ele>
        <time>2022-03-08T13:37:49.845Z</time>
      </trkpt>
      <trkpt lat="42.71047" lon="23.7207">
        <ele>645.080022</ele>
        <time>2022-03-08T13:37:51.795Z</time>
      </trkpt>
      <trkpt lat="42.71053" lon="23.72089">
        <ele>644.067823</ele>
        <time>2022-03-08T13:37:53.807Z</time>
      </trkpt>
      <trkpt lat="42.71059" lon="23.72107">
        <ele>643.082681</ele>
        <time>2022-03-08T13:37:55.794Z</time>
      </trkpt>
      <trkpt lat="42.71064" lon="23.72123">
        <ele>642.198545</ele>
        <time>2022-03-08T13:37:57.804Z</time>
      </trkpt>
      <trkpt lat="42.71069" lon="23.72137">
        <ele>641.416269</ele>
        <time>2022-03-08T13:37:59.788Z</time>
      </trkpt>
      <trkpt lat="42.71078" lon="23.72149">
        <ele>640.559692</ele>
        <time>2022-03-08T13:38:02.788Z</time>
      </trkpt>
      <trkpt lat="42.71092" lon="23.72144">
        <ele>639.606542</ele>
        <time>2022-03-08T13:38:05.816Z</time>
      </trkpt>
      <trkpt lat="42.71102" lon="23.72135">
        <ele>639.145861</ele>
        <time>2022-03-08T13:38:07.797Z</time>
      </trkpt>
      <trkpt lat="42.71112" lon="23.72128">
        <ele>638.899093</ele>
        <time>2022-03-08T13:38:09.791Z</time>
      </trkpt>
      <trkpt lat="42.71124" lon="23.72121">
        <ele>638.625299</ele>
        <time>2022-03-08T13:38:11.811Z</time>
      </trkpt>
      <trkpt lat="42.71135" lon="23.72114">
        <ele>638.350057</ele>
        <time>2022-03-08T13:38:13.808Z</time>
      </trkpt>
      <trkpt lat="42.71147" lon="23.72109">
        <ele>638.084478</ele>
        <time>2022-03-08T13:38:15.791Z</time>
      </trkpt>
      <trkpt lat="42.71159" lon="23.72104">
        <ele>637.820337</ele>
        <time>2022-03-08T13:38:17.792Z</time>
      </trkpt>
      <trkpt lat="42.7117" lon="23.72099">
        <ele>637.563366</ele>
        <time>2022-03-08T13:38:19.807Z</time>
      </trkpt>
      <trkpt lat="42.71181" lon="23.72094">
        <ele>637.314486</ele>
        <time>2022-03-08T13:38:21.783Z</time>
      </trkpt>
      <trkpt lat="42.71192" lon="23.72089">
        <ele>637.081285</ele>
        <time>2022-03-08T13:38:23.811Z</time>
      </trkpt>
      <trkpt lat="42.71201" lon="23.72085">
        <ele>636.873295</ele>
        <time>2022-03-08T13:38:25.799Z</time>
      </trkpt>
      <trkpt lat="42.71211" lon="23.7208">
        <ele>636.650215</ele>
        <time>2022-03-08T13:38:27.793Z</time>
      </trkpt>
      <trkpt lat="42.7122" lon="23.72076">
        <ele>636.443617</ele>
        <time>2022-03-08T13:38:29.803Z</time>
      </trkpt>
      <trkpt lat="42.71232" lon="23.7207">
        <ele>636.176525</ele>
        <time>2022-03-08T13:38:32.805Z</time>
      </trkpt>
      <trkpt lat="42.71242" lon="23.72066">
        <ele>635.949386</ele>
        <time>2022-03-08T13:38:35.792Z</time>
      </trkpt>
      <trkpt lat="42.71251" lon="23.72062">
        <ele>635.736849</ele>
        <time>2022-03-08T13:38:38.783Z</time>
      </trkpt>
      <trkpt lat="42.71261" lon="23.72058">
        <ele>635.524771</ele>
        <time>2022-03-08T13:38:41.795Z</time>
      </trkpt>
      <trkpt lat="42.71272" lon="23.72054">
        <ele>635.59121</ele>
        <time>2022-03-08T13:38:44.829Z</time>
      </trkpt>
      <trkpt lat="42.71282" lon="23.72049">
        <ele>635.819842</ele>
        <time>2022-03-08T13:38:47.778Z</time>
      </trkpt>
      <trkpt lat="42.71293" lon="23.72044">
        <ele>636.032437</ele>
        <time>2022-03-08T13:38:50.784Z</time>
      </trkpt>
      <trkpt lat="42.71303" lon="23.7204">
        <ele>636.243653</ele>
        <time>2022-03-08T13:38:53.791Z</time>
      </trkpt>
      <trkpt lat="42.71313" lon="23.72035">
        <ele>636.453891</ele>
        <time>2022-03-08T13:38:56.786Z</time>
      </trkpt>
      <trkpt lat="42.71322" lon="23.7203">
        <ele>636.660842</ele>
        <time>2022-03-08T13:38:59.795Z</time>
      </trkpt>
      <trkpt lat="42.71332" lon="23.72026">
        <ele>636.868267</ele>
        <time>2022-03-08T13:39:02.777Z</time>
      </trkpt>
      <trkpt lat="42.71342" lon="23.72022">
        <ele>637.061077</ele>
        <time>2022-03-08T13:39:05.801Z</time>
      </trkpt>
      <trkpt lat="42.71351" lon="23.72018">
        <ele>637.266761</ele>
        <time>2022-03-08T13:39:08.805Z</time>
      </trkpt>
      <trkpt lat="42.71361" lon="23.72014">
        <ele>637.470961</ele>
        <time>2022-03-08T13:39:11.798Z</time>
      </trkpt>
      <trkpt lat="42.7137" lon="23.7201">
        <ele>637.654403</ele>
        <time>2022-03-08T13:39:14.792Z</time>
      </trkpt>
      <trkpt lat="42.71379" lon="23.72006">
        <ele>637.848661</ele>
        <time>2022-03-08T13:39:17.799Z</time>
      </trkpt>
      <trkpt lat="42.71388" lon="23.72003">
        <ele>638.035857</ele>
        <time>2022-03-08T13:39:20.791Z</time>
      </trkpt>
      <trkpt lat="42.71398" lon="23.72001">
        <ele>638.225825</ele>
        <time>2022-03-08T13:39:23.795Z</time>
      </trkpt>
      <trkpt lat="42.71407" lon="23.71998">
        <ele>638.41631</ele>
        <time>2022-03-08T13:39:26.818Z</time>
      </trkpt>
      <trkpt lat="42.71417" lon="23.71996">
        <ele>638.607654</ele>
        <time>2022-03-08T13:39:29.806Z</time>
      </trkpt>
      <trkpt lat="42.71429" lon="23.71994">
        <ele>638.849399</ele>
        <time>2022-03-08T13:39:33.840Z</time>
      </trkpt>
      <trkpt lat="42.7144" lon="23.71993">
        <ele>639.016232</ele>
        <time>2022-03-08T13:39:36.785Z</time>
      </trkpt>
      <trkpt lat="42.71452" lon="23.71993">
        <ele>638.953444</ele>
        <time>2022-03-08T13:39:39.841Z</time>
      </trkpt>
      <trkpt lat="42.71463" lon="23.71992">
        <ele>638.895315</ele>
        <time>2022-03-08T13:39:42.817Z</time>
      </trkpt>
      <trkpt lat="42.71474" lon="23.71991">
        <ele>638.834599</ele>
        <time>2022-03-08T13:39:45.790Z</time>
      </trkpt>
      <trkpt lat="42.71486" lon="23.7199">
        <ele>638.771835</ele>
        <time>2022-03-08T13:39:48.791Z</time>
      </trkpt>
      <trkpt lat="42.71497" lon="23.71989">
        <ele>638.713679</ele>
        <time>2022-03-08T13:39:51.791Z</time>
      </trkpt>
      <trkpt lat="42.71508" lon="23.71987">
        <ele>638.654691</ele>
        <time>2022-03-08T13:39:54.800Z</time>
      </trkpt>
      <trkpt lat="42.7152" lon="23.71986">
        <ele>638.593655</ele>
        <time>2022-03-08T13:39:57.807Z</time>
      </trkpt>
      <trkpt lat="42.71532" lon="23.71985">
        <ele>638.530833</ele>
        <time>2022-03-08T13:40:00.796Z</time>
      </trkpt>
      <trkpt lat="42.71541" lon="23.71982">
        <ele>638.478112</ele>
        <time>2022-03-08T13:40:03.802Z</time>
      </trkpt>
      <trkpt lat="42.71554" lon="23.71976">
        <ele>638.409582</ele>
        <time>2022-03-08T13:40:07.771Z</time>
      </trkpt>
      <trkpt lat="42.71562" lon="23.7197">
        <ele>638.357384</ele>
        <time>2022-03-08T13:40:10.770Z</time>
      </trkpt>
      <trkpt lat="42.71571" lon="23.71964">
        <ele>638.307648</ele>
        <time>2022-03-08T13:40:13.804Z</time>
      </trkpt>
      <trkpt lat="42.71579" lon="23.71957">
        <ele>638.255916</ele>
        <time>2022-03-08T13:40:16.763Z</time>
      </trkpt>
      <trkpt lat="42.7159" lon="23.71947">
        <ele>638.187243</ele>
        <time>2022-03-08T13:40:20.777Z</time>
      </trkpt>
      <trkpt lat="42.71598" lon="23.71938">
        <ele>638.13211</ele>
        <time>2022-03-08T13:40:23.852Z</time>
      </trkpt>
      <trkpt lat="42.71605" lon="23.71929">
        <ele>638.080038</ele>
        <time>2022-03-08T13:40:26.776Z</time>
      </trkpt>
      <trkpt lat="42.71613" lon="23.71919">
        <ele>638.318783</ele>
        <time>2022-03-08T13:40:29.770Z</time>
      </trkpt>
      <trkpt lat="42.71619" lon="23.71908">
        <ele>638.564247</ele>
        <time>2022-03-08T13:40:32.772Z</time>
      </trkpt>
      <trkpt lat="42.71627" lon="23.71898">
        <ele>638.823436</ele>
        <time>2022-03-08T13:40:35.811Z</time>
      </trkpt>
      <trkpt lat="42.71635" lon="23.71887">
        <ele>639.091916</ele>
        <time>2022-03-08T13:40:38.776Z</time>
      </trkpt>
      <trkpt lat="42.71642" lon="23.71877">
        <ele>639.337379</ele>
        <time>2022-03-08T13:40:41.844Z</time>
      </trkpt>
      <trkpt lat="42.71649" lon="23.71866">
        <ele>639.581774</ele>
        <time>2022-03-08T13:40:44.782Z</time>
      </trkpt>
      <trkpt lat="42.71656" lon="23.71855">
        <ele>639.848125</ele>
        <time>2022-03-08T13:40:47.789Z</time>
      </trkpt>
      <trkpt lat="42.71665" lon="23.71846">
        <ele>640.114991</ele>
        <time>2022-03-08T13:40:50.785Z</time>
      </trkpt>
      <trkpt lat="42.71673" lon="23.71838">
        <ele>640.365854</ele>
        <time>2022-03-08T13:40:53.779Z</time>
      </trkpt>
      <trkpt lat="42.71683" lon="23.71833">
        <ele>640.600992</ele>
        <time>2022-03-08T13:40:56.794Z</time>
      </trkpt>
      <trkpt lat="42.71693" lon="23.71829">
        <ele>640.869833</ele>
        <time>2022-03-08T13:41:00.774Z</time>
      </trkpt>
      <trkpt lat="42.71704" lon="23.71826">
        <ele>641.126298</ele>
        <time>2022-03-08T13:41:05.816Z</time>
      </trkpt>
      <trkpt lat="42.71714" lon="23.71826">
        <ele>641.367847</ele>
        <time>2022-03-08T13:41:10.784Z</time>
      </trkpt>
      <trkpt lat="42.71723" lon="23.71825">
        <ele>641.583342</ele>
        <time>2022-03-08T13:41:15.810Z</time>
      </trkpt>
      <trkpt lat="42.71732" lon="23.71824">
        <ele>641.805991</ele>
        <time>2022-03-08T13:41:20.776Z</time>
      </trkpt>
      <trkpt lat="42.71743" lon="23.71826">
        <ele>642.055524</ele>
        <time>2022-03-08T13:41:27.786Z</time>
      </trkpt>
      <trkpt lat="42.71753" lon="23.71826">
        <ele>642.299259</ele>
        <time>2022-03-08T13:41:32.777Z</time>
      </trkpt>
      <trkpt lat="42.71762" lon="23.71827">
        <ele>642.508865</ele>
        <time>2022-03-08T13:41:37.830Z</time>
      </trkpt>
      <trkpt lat="42.71772" lon="23.71829">
        <ele>642.736328</ele>
        <time>2022-03-08T13:41:43.795Z</time>
      </trkpt>
      <trkpt lat="42.71783" lon="23.71832">
        <ele>642.972737</ele>
        <time>2022-03-08T13:41:49.800Z</time>
      </trkpt>
      <trkpt lat="42.71793" lon="23.71834">
        <ele>643.201413</ele>
        <time>2022-03-08T13:41:55.790Z</time>
      </trkpt>
      <trkpt lat="42.71803" lon="23.71836">
        <ele>643.419427</ele>
        <time>2022-03-08T13:42:01.786Z</time>
      </trkpt>
      <trkpt lat="42.71812" lon="23.71837">
        <ele>643.623476</ele>
        <time>2022-03-08T13:42:06.782Z</time>
      </trkpt>
      <trkpt lat="42.71822" lon="23.71839">
        <ele>643.84802</ele>
        <time>2022-03-08T13:42:12.776Z</time>
      </trkpt>
      <trkpt lat="42.71832" lon="23.71841">
        <ele>644.068708</ele>
        <time>2022-03-08T13:42:18.791Z</time>
      </trkpt>
      <trkpt lat="42.71843" lon="23.71843">
        <ele>644.310271</ele>
        <time>2022-03-08T13:42:23.796Z</time>
      </trkpt>
      <trkpt lat="42.71853" lon="23.71845">
        <ele>644.533975</ele>
        <time>2022-03-08T13:42:28.850Z</time>
      </trkpt>
      <trkpt lat="42.71863" lon="23.71846">
        <ele>644.74438</ele>
        <time>2022-03-08T13:42:33.870Z</time>
      </trkpt>
      <trkpt lat="42.71872" lon="23.7185">
        <ele>644.950582</ele>
        <time>2022-03-08T13:42:37.787Z</time>
      </trkpt>
      <trkpt lat="42.71881" lon="23.71858">
        <ele>645.192787</ele>
        <time>2022-03-08T13:42:41.794Z</time>
      </trkpt>
      <trkpt lat="42.71889" lon="23.71869">
        <ele>645.449918</ele>
        <time>2022-03-08T13:42:45.802Z</time>
      </trkpt>
      <trkpt lat="42.71895" lon="23.71882">
        <ele>645.690715</ele>
        <time>2022-03-08T13:42:49.801Z</time>
      </trkpt>
      <trkpt lat="42.71895" lon="23.71899">
        <ele>645.956024</ele>
        <time>2022-03-08T13:42:53.806Z</time>
      </trkpt>
      <trkpt lat="42.71892" lon="23.71912">
        <ele>646.183672</ele>
        <time>2022-03-08T13:42:56.784Z</time>
      </trkpt>
      <trkpt lat="42.71887" lon="23.71926">
        <ele>646.216175</ele>
        <time>2022-03-08T13:42:59.795Z</time>
      </trkpt>
      <trkpt lat="42.71878" lon="23.71935">
        <ele>645.912683</ele>
        <time>2022-03-08T13:43:02.938Z</time>
      </trkpt>
      <trkpt lat="42.71869" lon="23.7194">
        <ele>645.652158</ele>
        <time>2022-03-08T13:43:04.819Z</time>
      </trkpt>
      <trkpt lat="42.7186" lon="23.71943">
        <ele>645.385113</ele>
        <time>2022-03-08T13:43:06.806Z</time>
      </trkpt>
      <trkpt lat="42.7185" lon="23.71943">
        <ele>645.110717</ele>
        <time>2022-03-08T13:43:08.804Z</time>
      </trkpt>
      <trkpt lat="42.71839" lon="23.71939">
        <ele>644.8269</ele>
        <time>2022-03-08T13:43:10.892Z</time>
      </trkpt>
      <trkpt lat="42.7183" lon="23.71936">
        <ele>644.552789</ele>
        <time>2022-03-08T13:43:12.792Z</time>
      </trkpt>
      <trkpt lat="42.71817" lon="23.71934">
        <ele>644.209479</ele>
        <time>2022-03-08T13:43:15.788Z</time>
      </trkpt>
      <trkpt lat="42.71808" lon="23.71947">
        <ele>643.867387</ele>
        <time>2022-03-08T13:43:18.785Z</time>
      </trkpt>
      <trkpt lat="42.71806" lon="23.71959">
        <ele>643.605061</ele>
        <time>2022-03-08T13:43:20.810Z</time>
      </trkpt>
      <trkpt lat="42.71804" lon="23.71973">
        <ele>643.331065</ele>
        <time>2022-03-08T13:43:22.771Z</time>
      </trkpt>
      <trkpt lat="42.71803" lon="23.71986">
        <ele>643.063367</ele>
        <time>2022-03-08T13:43:24.787Z</time>
      </trkpt>
      <trkpt lat="42.718" lon="23.71999">
        <ele>642.799927</ele>
        <time>2022-03-08T13:43:26.825Z</time>
      </trkpt>
      <trkpt lat="42.71799" lon="23.72012">
        <ele>642.542367</ele>
        <time>2022-03-08T13:43:28.820Z</time>
      </trkpt>
      <trkpt lat="42.71796" lon="23.72027">
        <ele>642.222956</ele>
        <time>2022-03-08T13:43:31.803Z</time>
      </trkpt>
      <trkpt lat="42.71795" lon="23.7204">
        <ele>641.961935</ele>
        <time>2022-03-08T13:43:34.830Z</time>
      </trkpt>
      <trkpt lat="42.71791" lon="23.72055">
        <ele>641.641398</ele>
        <time>2022-03-08T13:43:37.795Z</time>
      </trkpt>
      <trkpt lat="42.71788" lon="23.72069">
        <ele>641.567775</ele>
        <time>2022-03-08T13:43:40.834Z</time>
      </trkpt>
      <trkpt lat="42.71786" lon="23.72081">
        <ele>641.913984</ele>
        <time>2022-03-08T13:43:43.823Z</time>
      </trkpt>
      <trkpt lat="42.71782" lon="23.72095">
        <ele>642.284948</ele>
        <time>2022-03-08T13:43:46.808Z</time>
      </trkpt>
      <trkpt lat="42.71779" lon="23.72107">
        <ele>642.631989</ele>
        <time>2022-03-08T13:43:49.815Z</time>
      </trkpt>
      <trkpt lat="42.71776" lon="23.72119">
        <ele>642.96913</ele>
        <time>2022-03-08T13:43:52.823Z</time>
      </trkpt>
      <trkpt lat="42.71772" lon="23.72131">
        <ele>643.311086</ele>
        <time>2022-03-08T13:43:55.846Z</time>
      </trkpt>
      <trkpt lat="42.71768" lon="23.72145">
        <ele>643.717946</ele>
        <time>2022-03-08T13:43:59.829Z</time>
      </trkpt>
      <trkpt lat="42.71763" lon="23.7216">
        <ele>644.156054</ele>
        <time>2022-03-08T13:44:03.812Z</time>
      </trkpt>
      <trkpt lat="42.71761" lon="23.72173">
        <ele>644.525904</ele>
        <time>2022-03-08T13:44:08.802Z</time>
      </trkpt>
      <trkpt lat="42.71757" lon="23.72186">
        <ele>644.903131</ele>
        <time>2022-03-08T13:44:13.813Z</time>
      </trkpt>
      <trkpt lat="42.71752" lon="23.72199">
        <ele>645.290624</ele>
        <time>2022-03-08T13:44:18.804Z</time>
      </trkpt>
      <trkpt lat="42.71748" lon="23.72213">
        <ele>645.683939</ele>
        <time>2022-03-08T13:44:23.809Z</time>
      </trkpt>
      <trkpt lat="42.71745" lon="23.72225">
        <ele>646.029662</ele>
        <time>2022-03-08T13:44:28.821Z</time>
      </trkpt>
      <trkpt lat="42.71742" lon="23.72237">
        <ele>646.376623</ele>
        <time>2022-03-08T13:44:33.817Z</time>
      </trkpt>
      <trkpt lat="42.71738" lon="23.7225">
        <ele>646.743626</ele>
        <time>2022-03-08T13:44:38.808Z</time>
      </trkpt>
      <trkpt lat="42.71735" lon="23.72264">
        <ele>647.121989</ele>
        <time>2022-03-08T13:44:43.849Z</time>
      </trkpt>
      <trkpt lat="42.71731" lon="23.72275">
        <ele>647.459488</ele>
        <time>2022-03-08T13:44:47.810Z</time>
      </trkpt>
      <trkpt lat="42.71727" lon="23.72287">
        <ele>647.806807</ele>
        <time>2022-03-08T13:44:51.806Z</time>
      </trkpt>
      <trkpt lat="42.71723" lon="23.72299">
        <ele>648.146634</ele>
        <time>2022-03-08T13:44:55.824Z</time>
      </trkpt>
      <trkpt lat="42.71719" lon="23.7231">
        <ele>648.468718</ele>
        <time>2022-03-08T13:44:59.838Z</time>
      </trkpt>
      <trkpt lat="42.71716" lon="23.72322">
        <ele>648.775044</ele>
        <time>2022-03-08T13:45:03.826Z</time>
      </trkpt>
      <trkpt lat="42.71712" lon="23.72334">
        <ele>649.090777</ele>
        <time>2022-03-08T13:45:07.818Z</time>
      </trkpt>
      <trkpt lat="42.71708" lon="23.72346">
        <ele>649.425914</ele>
        <time>2022-03-08T13:45:11.819Z</time>
      </trkpt>
      <trkpt lat="42.71705" lon="23.72358">
        <ele>649.768746</ele>
        <time>2022-03-08T13:45:15.801Z</time>
      </trkpt>
      <trkpt lat="42.71702" lon="23.72371">
        <ele>650.095397</ele>
        <time>2022-03-08T13:45:19.825Z</time>
      </trkpt>
      <trkpt lat="42.717" lon="23.72385">
        <ele>650.467587</ele>
        <time>2022-03-08T13:45:24.791Z</time>
      </trkpt>
      <trkpt lat="42.71697" lon="23.724">
        <ele>650.839071</ele>
        <time>2022-03-08T13:45:29.843Z</time>
      </trkpt>
      <trkpt lat="42.71694" lon="23.72413">
        <ele>651.194928</ele>
        <time>2022-03-08T13:45:34.824Z</time>
      </trkpt>
      <trkpt lat="42.71692" lon="23.72425">
        <ele>651.509462</ele>
        <time>2022-03-08T13:45:38.801Z</time>
      </trkpt>
      <trkpt lat="42.71688" lon="23.72437">
        <ele>651.833444</ele>
        <time>2022-03-08T13:45:42.823Z</time>
      </trkpt>
      <trkpt lat="42.71685" lon="23.72449">
        <ele>652.145649</ele>
        <time>2022-03-08T13:45:46.794Z</time>
      </trkpt>
      <trkpt lat="42.71682" lon="23.72462">
        <ele>652.496949</ele>
        <time>2022-03-08T13:45:50.838Z</time>
      </trkpt>
      <trkpt lat="42.71678" lon="23.72476">
        <ele>652.852739</ele>
        <time>2022-03-08T13:45:54.798Z</time>
      </trkpt>
      <trkpt lat="42.71683" lon="23.72487">
        <ele>653.18256</ele>
        <time>2022-03-08T13:45:59.824Z</time>
      </trkpt>
      <trkpt lat="42.7169" lon="23.72497">
        <ele>653.515837</ele>
        <time>2022-03-08T13:46:04.785Z</time>
      </trkpt>
      <trkpt lat="42.71696" lon="23.72507">
        <ele>653.855135</ele>
        <time>2022-03-08T13:46:10.810Z</time>
      </trkpt>
      <trkpt lat="42.71703" lon="23.72517">
        <ele>654.192201</ele>
        <time>2022-03-08T13:46:16.805Z</time>
      </trkpt>
      <trkpt lat="42.71709" lon="23.72528">
        <ele>654.569202</ele>
        <time>2022-03-08T13:46:23.851Z</time>
      </trkpt>
      <trkpt lat="42.71717" lon="23.72537">
        <ele>654.936212</ele>
        <time>2022-03-08T13:46:29.850Z</time>
      </trkpt>
      <trkpt lat="42.71723" lon="23.72546">
        <ele>655.266616</ele>
        <time>2022-03-08T13:46:34.823Z</time>
      </trkpt>
      <trkpt lat="42.71732" lon="23.72554">
        <ele>655.652181</ele>
        <time>2022-03-08T13:46:41.807Z</time>
      </trkpt>
      <trkpt lat="42.71737" lon="23.72565">
        <ele>655.981082</ele>
        <time>2022-03-08T13:46:48.833Z</time>
      </trkpt>
      <trkpt lat="42.71733" lon="23.72578">
        <ele>656.359059</ele>
        <time>2022-03-08T13:46:56.829Z</time>
      </trkpt>
      <trkpt lat="42.71737" lon="23.7259">
        <ele>656.71336</ele>
        <time>2022-03-08T13:47:02.835Z</time>
      </trkpt>
      <trkpt lat="42.71744" lon="23.72598">
        <ele>657.053464</ele>
        <time>2022-03-08T13:47:08.824Z</time>
      </trkpt>
      <trkpt lat="42.71751" lon="23.72608">
        <ele>657.408172</ele>
        <time>2022-03-08T13:47:14.812Z</time>
      </trkpt>
      <trkpt lat="42.71759" lon="23.72614">
        <ele>657.749516</ele>
        <time>2022-03-08T13:47:20.816Z</time>
      </trkpt>
      <trkpt lat="42.71768" lon="23.72621">
        <ele>658.130208</ele>
        <time>2022-03-08T13:47:27.849Z</time>
      </trkpt>
      <trkpt lat="42.71776" lon="23.72628">
        <ele>658.476161</ele>
        <time>2022-03-08T13:47:32.810Z</time>
      </trkpt>
      <trkpt lat="42.71783" lon="23.72636">
        <ele>658.811578</ele>
        <time>2022-03-08T13:47:39.854Z</time>
      </trkpt>
      <trkpt lat="42.7179" lon="23.72644">
        <ele>659.147942</ele>
        <time>2022-03-08T13:47:46.798Z</time>
      </trkpt>
      <trkpt lat="42.71795" lon="23.72654">
        <ele>659.483169</ele>
        <time>2022-03-08T13:47:54.812Z</time>
      </trkpt>
      <trkpt lat="42.71802" lon="23.72665">
        <ele>659.855538</ele>
        <time>2022-03-08T13:48:02.802Z</time>
      </trkpt>
      <trkpt lat="42.71808" lon="23.72673">
        <ele>660.18377</ele>
        <time>2022-03-08T13:48:08.838Z</time>
      </trkpt>
      <trkpt lat="42.71816" lon="23.72682">
        <ele>660.540851</ele>
        <time>2022-03-08T13:48:15.830Z</time>
      </trkpt>
      <trkpt lat="42.71823" lon="23.72691">
        <ele>660.697779</ele>
        <time>2022-03-08T13:48:21.807Z</time>
      </trkpt>
      <trkpt lat="42.7183" lon="23.727">
        <ele>660.697779</ele>
        <time>2022-03-08T13:48:28.813Z</time>
      </trkpt>
      <trkpt lat="42.71838" lon="23.72708">
        <ele>660.697779</ele>
        <time>2022-03-08T13:48:36.818Z</time>
      </trkpt>
      <trkpt lat="42.71845" lon="23.72717">
        <ele>660.697779</ele>
        <time>2022-03-08T13:48:44.834Z</time>
      </trkpt>
      <trkpt lat="42.71853" lon="23.72725">
        <ele>660.697779</ele>
        <time>2022-03-08T13:48:52.808Z</time>
      </trkpt>
      <trkpt lat="42.71859" lon="23.72735">
        <ele>660.697779</ele>
        <time>2022-03-08T13:48:59.839Z</time>
      </trkpt>
      <trkpt lat="42.71865" lon="23.72744">
        <ele>660.697779</ele>
        <time>2022-03-08T13:49:06.806Z</time>
      </trkpt>
      <trkpt lat="42.71871" lon="23.72753">
        <ele>660.697779</ele>
        <time>2022-03-08T13:49:14.810Z</time>
      </trkpt>
      <trkpt lat="42.71879" lon="23.72761">
        <ele>660.697779</ele>
        <time>2022-03-08T13:49:23.833Z</time>
      </trkpt>
      <trkpt lat="42.71886" lon="23.7277">
        <ele>660.697779</ele>
        <time>2022-03-08T13:49:30.814Z</time>
      </trkpt>
      <trkpt lat="42.71895" lon="23.72776">
        <ele>660.697779</ele>
        <time>2022-03-08T13:49:38.804Z</time>
      </trkpt>
      <trkpt lat="42.71902" lon="23.72785">
        <ele>660.697779</ele>
        <time>2022-03-08T13:49:46.806Z</time>
      </trkpt>
      <trkpt lat="42.7191" lon="23.72792">
        <ele>660.697779</ele>
        <time>2022-03-08T13:49:54.792Z</time>
      </trkpt>
      <trkpt lat="42.71918" lon="23.72799">
        <ele>660.697779</ele>
        <time>2022-03-08T13:50:00.793Z</time>
      </trkpt>
      <trkpt lat="42.71922" lon="23.7281">
        <ele>660.697779</ele>
        <time>2022-03-08T13:50:08.799Z</time>
      </trkpt>
      <trkpt lat="42.71915" lon="23.72821">
        <ele>660.697779</ele>
        <time>2022-03-08T13:54:37.061Z</time>
      </trkpt>
    </trkseg>
  </trk>
</gpx>